<?xml version='1.0' encoding='UTF-8'?><gpx version="1.1" creator="JPX - https://github.com/jenetics/jpx" xmlns="http://www.topografix.com/GPX/1/1"><trk><trkseg><trkpt lat="44.1436042" lon="10.4120742"><ele>440.0</ele><time>2026-05-02T07:50:28.964Z</time></trkpt><trkpt lat="44.1437715" lon="10.4119506"><ele>440.0</ele><time>2026-05-02T07:50:30.963Z</time></trkpt><trkpt lat="44.1438484" lon="10.4118602"><ele>440.0</ele><time>2026-05-02T07:50:31.963Z</time></trkpt><trkpt lat="44.1439151" lon="10.4117536"><ele>440.0</ele><time>2026-05-02T07:50:32.964Z</time></trkpt><trkpt lat="44.1439735" lon="10.4116429"><ele>440.0</ele><time>2026-05-02T07:50:33.964Z</time></trkpt><trkpt lat="44.1440098" lon="10.4115162"><ele>440.0</ele><time>2026-05-02T07:50:34.964Z</time></trkpt><trkpt lat="44.1440096" lon="10.4113894"><ele>440.0</ele><time>2026-05-02T07:50:35.963Z</time></trkpt><trkpt lat="44.1439762" lon="10.4112579"><ele>440.0</ele><time>2026-05-02T07:50:36.964Z</time></trkpt><trkpt lat="44.1439218" lon="10.4111382"><ele>440.0</ele><time>2026-05-02T07:50:37.964Z</time></trkpt><trkpt lat="44.1438364" lon="10.4110445"><ele>441.4</ele><time>2026-05-02T07:50:38.963Z</time></trkpt><trkpt lat="44.1437481" lon="10.4109493"><ele>442.8</ele><time>2026-05-02T07:50:39.963Z</time></trkpt><trkpt lat="44.1436594" lon="10.4108624"><ele>444.20000000000005</ele><time>2026-05-02T07:50:40.964Z</time></trkpt><trkpt lat="44.1435842" lon="10.4107884"><ele>445.6</ele><time>2026-05-02T07:50:41.964Z</time></trkpt><trkpt lat="44.1435095" lon="10.4107182"><ele>447.0</ele><time>2026-05-02T07:50:42.963Z</time></trkpt><trkpt lat="44.1434445" lon="10.4106439"><ele>446.99999999999994</ele><time>2026-05-02T07:50:43.964Z</time></trkpt><trkpt lat="44.1434107" lon="10.4105573"><ele>447.0</ele><time>2026-05-02T07:50:44.964Z</time></trkpt><trkpt lat="44.1434169" lon="10.4104493"><ele>447.0</ele><time>2026-05-02T07:50:45.964Z</time></trkpt><trkpt lat="44.1434557" lon="10.4103688"><ele>447.0</ele><time>2026-05-02T07:50:46.963Z</time></trkpt><trkpt lat="44.1435108" lon="10.4103114"><ele>447.0</ele><time>2026-05-02T07:50:47.964Z</time></trkpt><trkpt lat="44.1435791" lon="10.4102678"><ele>446.99999999999994</ele><time>2026-05-02T07:50:48.963Z</time></trkpt><trkpt lat="44.1436487" lon="10.4102294"><ele>447.0</ele><time>2026-05-02T07:50:49.964Z</time></trkpt><trkpt lat="44.1437124" lon="10.4101876"><ele>447.5</ele><time>2026-05-02T07:50:50.963Z</time></trkpt><trkpt lat="44.1437891" lon="10.41015"><ele>448.0</ele><time>2026-05-02T07:50:51.964Z</time></trkpt><trkpt lat="44.1438702" lon="10.4101179"><ele>448.5</ele><time>2026-05-02T07:50:52.964Z</time></trkpt><trkpt lat="44.1439587" lon="10.4100872"><ele>449.0</ele><time>2026-05-02T07:50:53.963Z</time></trkpt><trkpt lat="44.1440418" lon="10.4100663"><ele>449.5</ele><time>2026-05-02T07:50:54.964Z</time></trkpt><trkpt lat="44.1441443" lon="10.4101022"><ele>450.0</ele><time>2026-05-02T07:50:55.963Z</time></trkpt><trkpt lat="44.1442479" lon="10.4101353"><ele>452.8</ele><time>2026-05-02T07:50:56.964Z</time></trkpt><trkpt lat="44.1443493" lon="10.4101764"><ele>455.6</ele><time>2026-05-02T07:50:57.963Z</time></trkpt><trkpt lat="44.1444554" lon="10.4102111"><ele>458.4</ele><time>2026-05-02T07:50:58.964Z</time></trkpt><trkpt lat="44.1445596" lon="10.4102475"><ele>461.2</ele><time>2026-05-02T07:50:59.963Z</time></trkpt><trkpt lat="44.1446675" lon="10.4102819"><ele>464.0</ele><time>2026-05-02T07:51:00.964Z</time></trkpt><trkpt lat="44.1447699" lon="10.4103205"><ele>464.0</ele><time>2026-05-02T07:51:01.964Z</time></trkpt><trkpt lat="44.1448673" lon="10.410361"><ele>464.0</ele><time>2026-05-02T07:51:02.964Z</time></trkpt><trkpt lat="44.1449685" lon="10.4103939"><ele>464.0</ele><time>2026-05-02T07:51:03.963Z</time></trkpt><trkpt lat="44.1450665" lon="10.410422"><ele>464.0</ele><time>2026-05-02T07:51:04.964Z</time></trkpt><trkpt lat="44.1451724" lon="10.4104548"><ele>464.0</ele><time>2026-05-02T07:51:05.964Z</time></trkpt><trkpt lat="44.145265" lon="10.4104874"><ele>465.16666666666663</ele><time>2026-05-02T07:51:06.963Z</time></trkpt><trkpt lat="44.1453476" lon="10.4105201"><ele>466.3333333333333</ele><time>2026-05-02T07:51:07.964Z</time></trkpt><trkpt lat="44.1454354" lon="10.4105453"><ele>467.5</ele><time>2026-05-02T07:51:08.964Z</time></trkpt><trkpt lat="44.1455272" lon="10.4104736"><ele>468.66666666666663</ele><time>2026-05-02T07:51:10.964Z</time></trkpt><trkpt lat="44.1455607" lon="10.4103969"><ele>469.8333333333333</ele><time>2026-05-02T07:51:11.964Z</time></trkpt><trkpt lat="44.1455652" lon="10.4102763"><ele>471.0</ele><time>2026-05-02T07:51:12.964Z</time></trkpt><trkpt lat="44.1455727" lon="10.4101375"><ele>471.0</ele><time>2026-05-02T07:51:13.964Z</time></trkpt><trkpt lat="44.1455695" lon="10.4099822"><ele>471.0</ele><time>2026-05-02T07:51:14.964Z</time></trkpt><trkpt lat="44.1455648" lon="10.4098155"><ele>471.0</ele><time>2026-05-02T07:51:15.963Z</time></trkpt><trkpt lat="44.145561" lon="10.4096569"><ele>471.0</ele><time>2026-05-02T07:51:16.964Z</time></trkpt><trkpt lat="44.1455604" lon="10.4095143"><ele>471.0</ele><time>2026-05-02T07:51:17.964Z</time></trkpt><trkpt lat="44.1455618" lon="10.409387"><ele>471.3333333333333</ele><time>2026-05-02T07:51:18.964Z</time></trkpt><trkpt lat="44.1455614" lon="10.4092605"><ele>471.66666666666663</ele><time>2026-05-02T07:51:19.964Z</time></trkpt><trkpt lat="44.1455676" lon="10.4091127"><ele>472.0</ele><time>2026-05-02T07:51:21.964Z</time></trkpt><trkpt lat="44.1456119" lon="10.4090323"><ele>472.3333333333333</ele><time>2026-05-02T07:51:23.964Z</time></trkpt><trkpt lat="44.1457" lon="10.4089755"><ele>472.66666666666663</ele><time>2026-05-02T07:51:25.964Z</time></trkpt><trkpt lat="44.1457625" lon="10.4089436"><ele>473.0</ele><time>2026-05-02T07:51:26.963Z</time></trkpt><trkpt lat="44.1458236" lon="10.4089156"><ele>473.8333333333333</ele><time>2026-05-02T07:51:27.964Z</time></trkpt><trkpt lat="44.1458941" lon="10.4088699"><ele>474.66666666666663</ele><time>2026-05-02T07:51:28.963Z</time></trkpt><trkpt lat="44.1459828" lon="10.4088697"><ele>475.5</ele><time>2026-05-02T07:51:30.964Z</time></trkpt><trkpt lat="44.1460596" lon="10.4089008"><ele>476.33333333333337</ele><time>2026-05-02T07:51:32.964Z</time></trkpt><trkpt lat="44.1461343" lon="10.4090083"><ele>477.1666666666667</ele><time>2026-05-02T07:51:34.963Z</time></trkpt><trkpt lat="44.1461833" lon="10.4090659"><ele>478.0</ele><time>2026-05-02T07:51:35.963Z</time></trkpt><trkpt lat="44.146262" lon="10.4091642"><ele>478.00000000000006</ele><time>2026-05-02T07:51:37.963Z</time></trkpt><trkpt lat="44.1463214" lon="10.4092024"><ele>478.0</ele><time>2026-05-02T07:51:39.963Z</time></trkpt><trkpt lat="44.1464034" lon="10.4092216"><ele>478.0</ele><time>2026-05-02T07:51:41.964Z</time></trkpt><trkpt lat="44.1465133" lon="10.4092381"><ele>478.0</ele><time>2026-05-02T07:51:43.964Z</time></trkpt><trkpt lat="44.1466112" lon="10.4092142"><ele>478.00000000000006</ele><time>2026-05-02T07:51:45.964Z</time></trkpt><trkpt lat="44.1466964" lon="10.4091918"><ele>478.0</ele><time>2026-05-02T07:51:47.963Z</time></trkpt><trkpt lat="44.1468007" lon="10.4091898"><ele>480.6666666666667</ele><time>2026-05-02T07:51:49.963Z</time></trkpt><trkpt lat="44.1468868" lon="10.4091923"><ele>483.33333333333337</ele><time>2026-05-02T07:51:51.963Z</time></trkpt><trkpt lat="44.1469729" lon="10.4092219"><ele>486.0</ele><time>2026-05-02T07:51:53.963Z</time></trkpt><trkpt lat="44.1470394" lon="10.4092515"><ele>488.66666666666663</ele><time>2026-05-02T07:51:54.964Z</time></trkpt><trkpt lat="44.1471222" lon="10.4092989"><ele>491.3333333333333</ele><time>2026-05-02T07:51:55.963Z</time></trkpt><trkpt lat="44.1471998" lon="10.4093467"><ele>494.0</ele><time>2026-05-02T07:51:56.963Z</time></trkpt><trkpt lat="44.1472677" lon="10.4093884"><ele>493.99999999999994</ele><time>2026-05-02T07:51:57.964Z</time></trkpt><trkpt lat="44.1473449" lon="10.409428"><ele>494.0</ele><time>2026-05-02T07:51:58.964Z</time></trkpt><trkpt lat="44.1474069" lon="10.4094659"><ele>494.0</ele><time>2026-05-02T07:51:59.964Z</time></trkpt><trkpt lat="44.147465" lon="10.4095019"><ele>494.0</ele><time>2026-05-02T07:52:00.963Z</time></trkpt><trkpt lat="44.1475651" lon="10.4095192"><ele>493.99999999999994</ele><time>2026-05-02T07:52:02.964Z</time></trkpt><trkpt lat="44.1476274" lon="10.4094447"><ele>494.0</ele><time>2026-05-02T07:52:07.964Z</time></trkpt><trkpt lat="44.1476217" lon="10.409339"><ele>497.0</ele><time>2026-05-02T07:52:08.964Z</time></trkpt><trkpt lat="44.1476064" lon="10.4092512"><ele>500.0</ele><time>2026-05-02T07:52:09.964Z</time></trkpt><trkpt lat="44.1475875" lon="10.4091374"><ele>503.0</ele><time>2026-05-02T07:52:10.963Z</time></trkpt><trkpt lat="44.1475654" lon="10.4090056"><ele>506.0</ele><time>2026-05-02T07:52:11.964Z</time></trkpt><trkpt lat="44.1475459" lon="10.408859"><ele>509.0</ele><time>2026-05-02T07:52:12.963Z</time></trkpt><trkpt lat="44.147523" lon="10.4087057"><ele>510.4</ele><time>2026-05-02T07:52:13.964Z</time></trkpt><trkpt lat="44.147483" lon="10.4085483"><ele>511.79999999999995</ele><time>2026-05-02T07:52:14.964Z</time></trkpt><trkpt lat="44.1474293" lon="10.4084018"><ele>513.2</ele><time>2026-05-02T07:52:15.964Z</time></trkpt><trkpt lat="44.1473665" lon="10.4082841"><ele>514.6</ele><time>2026-05-02T07:52:16.963Z</time></trkpt><trkpt lat="44.1473013" lon="10.4081876"><ele>516.0</ele><time>2026-05-02T07:52:17.964Z</time></trkpt><trkpt lat="44.1472496" lon="10.4080936"><ele>514.0</ele><time>2026-05-02T07:52:18.963Z</time></trkpt><trkpt lat="44.1472075" lon="10.4080135"><ele>512.0</ele><time>2026-05-02T07:52:19.964Z</time></trkpt><trkpt lat="44.1472324" lon="10.407857"><ele>510.0</ele><time>2026-05-02T07:52:21.964Z</time></trkpt><trkpt lat="44.1473971" lon="10.407772"><ele>508.0</ele><time>2026-05-02T07:52:23.964Z</time></trkpt><trkpt lat="44.1474843" lon="10.4077521"><ele>508.00000000000006</ele><time>2026-05-02T07:52:24.964Z</time></trkpt><trkpt lat="44.1475876" lon="10.4077687"><ele>508.0</ele><time>2026-05-02T07:52:25.963Z</time></trkpt><trkpt lat="44.1476852" lon="10.4077944"><ele>508.0</ele><time>2026-05-02T07:52:26.964Z</time></trkpt><trkpt lat="44.1477733" lon="10.4078103"><ele>508.0</ele><time>2026-05-02T07:52:27.964Z</time></trkpt><trkpt lat="44.1478493" lon="10.4078398"><ele>508.00000000000006</ele><time>2026-05-02T07:52:28.964Z</time></trkpt><trkpt lat="44.1479191" lon="10.407885"><ele>508.0</ele><time>2026-05-02T07:52:29.963Z</time></trkpt><trkpt lat="44.1479543" lon="10.4079857"><ele>509.33333333333337</ele><time>2026-05-02T07:52:30.963Z</time></trkpt><trkpt lat="44.1479787" lon="10.4080767"><ele>510.6666666666667</ele><time>2026-05-02T07:52:31.964Z</time></trkpt><trkpt lat="44.1479937" lon="10.4081851"><ele>512.0</ele><time>2026-05-02T07:52:32.963Z</time></trkpt><trkpt lat="44.1480013" lon="10.4083064"><ele>513.3333333333334</ele><time>2026-05-02T07:52:33.963Z</time></trkpt><trkpt lat="44.148014" lon="10.408428"><ele>514.6666666666666</ele><time>2026-05-02T07:52:34.963Z</time></trkpt><trkpt lat="44.1480234" lon="10.4085599"><ele>516.0</ele><time>2026-05-02T07:52:35.964Z</time></trkpt><trkpt lat="44.1480378" lon="10.4086977"><ele>514.6</ele><time>2026-05-02T07:52:36.963Z</time></trkpt><trkpt lat="44.1480488" lon="10.4088321"><ele>513.2</ele><time>2026-05-02T07:52:37.964Z</time></trkpt><trkpt lat="44.1480581" lon="10.4089643"><ele>511.79999999999995</ele><time>2026-05-02T07:52:38.964Z</time></trkpt><trkpt lat="44.1480687" lon="10.4090859"><ele>510.4</ele><time>2026-05-02T07:52:39.964Z</time></trkpt><trkpt lat="44.1480789" lon="10.4092034"><ele>509.0</ele><time>2026-05-02T07:52:40.964Z</time></trkpt><trkpt lat="44.148089" lon="10.4093224"><ele>508.99999999999994</ele><time>2026-05-02T07:52:41.963Z</time></trkpt><trkpt lat="44.1481011" lon="10.4094424"><ele>509.0</ele><time>2026-05-02T07:52:42.964Z</time></trkpt><trkpt lat="44.148112" lon="10.409551"><ele>509.0</ele><time>2026-05-02T07:52:43.963Z</time></trkpt><trkpt lat="44.148127" lon="10.4096584"><ele>509.0</ele><time>2026-05-02T07:52:44.964Z</time></trkpt><trkpt lat="44.1481448" lon="10.4097622"><ele>508.99999999999994</ele><time>2026-05-02T07:52:45.964Z</time></trkpt><trkpt lat="44.1481682" lon="10.4098534"><ele>509.0</ele><time>2026-05-02T07:52:46.964Z</time></trkpt><trkpt lat="44.1481894" lon="10.4099439"><ele>512.2</ele><time>2026-05-02T07:52:47.964Z</time></trkpt><trkpt lat="44.1482157" lon="10.4100851"><ele>515.4</ele><time>2026-05-02T07:52:49.964Z</time></trkpt><trkpt lat="44.1482399" lon="10.4102264"><ele>518.6</ele><time>2026-05-02T07:52:51.963Z</time></trkpt><trkpt lat="44.1482766" lon="10.4103797"><ele>521.8</ele><time>2026-05-02T07:52:53.964Z</time></trkpt><trkpt lat="44.1483003" lon="10.4104703"><ele>525.0</ele><time>2026-05-02T07:52:54.963Z</time></trkpt><trkpt lat="44.1483356" lon="10.410574"><ele>525.0</ele><time>2026-05-02T07:52:55.964Z</time></trkpt><trkpt lat="44.1483678" lon="10.4106884"><ele>525.0</ele><time>2026-05-02T07:52:56.963Z</time></trkpt><trkpt lat="44.1484024" lon="10.4108028"><ele>525.0</ele><time>2026-05-02T07:52:57.963Z</time></trkpt><trkpt lat="44.1484397" lon="10.4109088"><ele>525.0</ele><time>2026-05-02T07:52:58.964Z</time></trkpt><trkpt lat="44.1484762" lon="10.4110155"><ele>525.0</ele><time>2026-05-02T07:52:59.964Z</time></trkpt><trkpt lat="44.1485223" lon="10.4111141"><ele>525.0</ele><time>2026-05-02T07:53:00.963Z</time></trkpt><trkpt lat="44.1485636" lon="10.4112103"><ele>525.0</ele><time>2026-05-02T07:53:01.963Z</time></trkpt><trkpt lat="44.1486071" lon="10.4112857"><ele>525.0</ele><time>2026-05-02T07:53:02.964Z</time></trkpt><trkpt lat="44.1486526" lon="10.411369"><ele>525.0</ele><time>2026-05-02T07:53:03.963Z</time></trkpt><trkpt lat="44.1487225" lon="10.41142"><ele>525.0</ele><time>2026-05-02T07:53:04.964Z</time></trkpt><trkpt lat="44.1487879" lon="10.4114397"><ele>525.0</ele><time>2026-05-02T07:53:05.964Z</time></trkpt><trkpt lat="44.1488599" lon="10.4114211"><ele>525.0</ele><time>2026-05-02T07:53:06.963Z</time></trkpt><trkpt lat="44.1489329" lon="10.4113697"><ele>525.0</ele><time>2026-05-02T07:53:07.964Z</time></trkpt><trkpt lat="44.1490002" lon="10.4113004"><ele>527.2</ele><time>2026-05-02T07:53:08.964Z</time></trkpt><trkpt lat="44.1490595" lon="10.4112363"><ele>529.4</ele><time>2026-05-02T07:53:09.963Z</time></trkpt><trkpt lat="44.14912" lon="10.4111891"><ele>531.6</ele><time>2026-05-02T07:53:10.964Z</time></trkpt><trkpt lat="44.1492213" lon="10.411162"><ele>533.8</ele><time>2026-05-02T07:53:12.963Z</time></trkpt><trkpt lat="44.149306" lon="10.4111009"><ele>536.0</ele><time>2026-05-02T07:53:14.963Z</time></trkpt><trkpt lat="44.1494234" lon="10.4110526"><ele>536.0</ele><time>2026-05-02T07:53:16.963Z</time></trkpt><trkpt lat="44.1494972" lon="10.4110506"><ele>536.0</ele><time>2026-05-02T07:53:17.963Z</time></trkpt><trkpt lat="44.1495834" lon="10.4110792"><ele>536.0</ele><time>2026-05-02T07:53:18.964Z</time></trkpt><trkpt lat="44.1496723" lon="10.4111128"><ele>536.0</ele><time>2026-05-02T07:53:19.963Z</time></trkpt><trkpt lat="44.1498041" lon="10.4112078"><ele>536.0</ele><time>2026-05-02T07:53:21.963Z</time></trkpt><trkpt lat="44.1498693" lon="10.4112421"><ele>535.8333333333333</ele><time>2026-05-02T07:53:22.963Z</time></trkpt><trkpt lat="44.1499656" lon="10.411259"><ele>535.6666666666666</ele><time>2026-05-02T07:53:23.964Z</time></trkpt><trkpt lat="44.1500469" lon="10.41126"><ele>535.5</ele><time>2026-05-02T07:53:24.964Z</time></trkpt><trkpt lat="44.1501217" lon="10.4112597"><ele>535.3333333333334</ele><time>2026-05-02T07:53:25.964Z</time></trkpt><trkpt lat="44.1501951" lon="10.4112555"><ele>535.1666666666667</ele><time>2026-05-02T07:53:26.964Z</time></trkpt><trkpt lat="44.1502661" lon="10.4112601"><ele>535.0</ele><time>2026-05-02T07:53:27.964Z</time></trkpt><trkpt lat="44.1503346" lon="10.4112734"><ele>535.0</ele><time>2026-05-02T07:53:28.964Z</time></trkpt><trkpt lat="44.1503894" lon="10.4112293"><ele>535.0</ele><time>2026-05-02T07:53:29.963Z</time></trkpt><trkpt lat="44.1504362" lon="10.4110463"><ele>535.0</ele><time>2026-05-02T07:53:31.964Z</time></trkpt><trkpt lat="44.1504419" lon="10.4109148"><ele>535.0</ele><time>2026-05-02T07:53:32.964Z</time></trkpt><trkpt lat="44.1504481" lon="10.4107752"><ele>535.0</ele><time>2026-05-02T07:53:33.964Z</time></trkpt><trkpt lat="44.1504584" lon="10.4106406"><ele>535.0</ele><time>2026-05-02T07:53:34.964Z</time></trkpt><trkpt lat="44.1504656" lon="10.4105"><ele>535.0</ele><time>2026-05-02T07:53:35.964Z</time></trkpt><trkpt lat="44.150469" lon="10.4103633"><ele>535.0</ele><time>2026-05-02T07:53:36.964Z</time></trkpt><trkpt lat="44.150471" lon="10.410222"><ele>535.0</ele><time>2026-05-02T07:53:37.964Z</time></trkpt><trkpt lat="44.1504785" lon="10.4100807"><ele>535.0</ele><time>2026-05-02T07:53:38.964Z</time></trkpt><trkpt lat="44.1504764" lon="10.4099373"><ele>534.0</ele><time>2026-05-02T07:53:39.964Z</time></trkpt><trkpt lat="44.1504926" lon="10.4098056"><ele>533.0</ele><time>2026-05-02T07:53:40.963Z</time></trkpt><trkpt lat="44.1505022" lon="10.409676"><ele>532.0</ele><time>2026-05-02T07:53:41.964Z</time></trkpt><trkpt lat="44.1505079" lon="10.4095468"><ele>531.0</ele><time>2026-05-02T07:53:42.964Z</time></trkpt><trkpt lat="44.150526" lon="10.4094166"><ele>530.0</ele><time>2026-05-02T07:53:43.963Z</time></trkpt><trkpt lat="44.1505539" lon="10.4092877"><ele>528.2</ele><time>2026-05-02T07:53:44.964Z</time></trkpt><trkpt lat="44.1505783" lon="10.4091487"><ele>526.4</ele><time>2026-05-02T07:53:45.964Z</time></trkpt><trkpt lat="44.1506076" lon="10.4090038"><ele>524.6</ele><time>2026-05-02T07:53:46.963Z</time></trkpt><trkpt lat="44.1506317" lon="10.408864"><ele>522.8</ele><time>2026-05-02T07:53:47.964Z</time></trkpt><trkpt lat="44.1506607" lon="10.4087297"><ele>521.0</ele><time>2026-05-02T07:53:48.964Z</time></trkpt><trkpt lat="44.1506944" lon="10.4086013"><ele>517.1666666666666</ele><time>2026-05-02T07:53:49.964Z</time></trkpt><trkpt lat="44.1507225" lon="10.4084806"><ele>513.3333333333333</ele><time>2026-05-02T07:53:50.963Z</time></trkpt><trkpt lat="44.1507467" lon="10.4083581"><ele>509.5</ele><time>2026-05-02T07:53:51.963Z</time></trkpt><trkpt lat="44.1507711" lon="10.4082465"><ele>505.66666666666663</ele><time>2026-05-02T07:53:52.964Z</time></trkpt><trkpt lat="44.1507929" lon="10.4081246"><ele>501.8333333333333</ele><time>2026-05-02T07:53:53.964Z</time></trkpt><trkpt lat="44.1507901" lon="10.4080127"><ele>498.0</ele><time>2026-05-02T07:53:54.963Z</time></trkpt><trkpt lat="44.150793" lon="10.4078969"><ele>496.8333333333333</ele><time>2026-05-02T07:53:55.964Z</time></trkpt><trkpt lat="44.1507851" lon="10.4077795"><ele>495.66666666666663</ele><time>2026-05-02T07:53:56.963Z</time></trkpt><trkpt lat="44.1507762" lon="10.4076726"><ele>494.5</ele><time>2026-05-02T07:53:57.963Z</time></trkpt><trkpt lat="44.1507545" lon="10.4075219"><ele>493.3333333333333</ele><time>2026-05-02T07:53:59.964Z</time></trkpt><trkpt lat="44.1507644" lon="10.4074245"><ele>492.16666666666663</ele><time>2026-05-02T07:54:01.963Z</time></trkpt><trkpt lat="44.1508075" lon="10.4074912"><ele>491.0</ele><time>2026-05-02T07:54:04.964Z</time></trkpt><trkpt lat="44.150826" lon="10.4076672"><ele>491.0</ele><time>2026-05-02T07:54:06.964Z</time></trkpt><trkpt lat="44.1508326" lon="10.4077733"><ele>490.99999999999994</ele><time>2026-05-02T07:54:07.963Z</time></trkpt><trkpt lat="44.1508427" lon="10.4078775"><ele>491.0</ele><time>2026-05-02T07:54:08.963Z</time></trkpt><trkpt lat="44.1508667" lon="10.4079623"><ele>491.0</ele><time>2026-05-02T07:54:09.964Z</time></trkpt><trkpt lat="44.1509118" lon="10.4080249"><ele>490.99999999999994</ele><time>2026-05-02T07:54:10.963Z</time></trkpt><trkpt lat="44.1510104" lon="10.4080184"><ele>491.0</ele><time>2026-05-02T07:54:12.964Z</time></trkpt><trkpt lat="44.1510623" lon="10.4079645"><ele>491.0</ele><time>2026-05-02T07:54:13.963Z</time></trkpt><trkpt lat="44.1511268" lon="10.4078828"><ele>491.0</ele><time>2026-05-02T07:54:14.964Z</time></trkpt><trkpt lat="44.1511874" lon="10.407803"><ele>491.0</ele><time>2026-05-02T07:54:15.964Z</time></trkpt><trkpt lat="44.1512392" lon="10.4077276"><ele>491.0</ele><time>2026-05-02T07:54:16.963Z</time></trkpt><trkpt lat="44.1512852" lon="10.4076592"><ele>491.0</ele><time>2026-05-02T07:54:17.964Z</time></trkpt><trkpt lat="44.1513743" lon="10.4075577"><ele>491.0</ele><time>2026-05-02T07:54:19.964Z</time></trkpt><trkpt lat="44.1514833" lon="10.4075916"><ele>491.0</ele><time>2026-05-02T07:54:21.963Z</time></trkpt><trkpt lat="44.1515098" lon="10.4076897"><ele>491.0</ele><time>2026-05-02T07:54:22.964Z</time></trkpt><trkpt lat="44.1515713" lon="10.4077876"><ele>491.0</ele><time>2026-05-02T07:54:23.964Z</time></trkpt><trkpt lat="44.1516387" lon="10.4078778"><ele>491.0</ele><time>2026-05-02T07:54:24.964Z</time></trkpt><trkpt lat="44.1517256" lon="10.4079685"><ele>491.0</ele><time>2026-05-02T07:54:25.964Z</time></trkpt><trkpt lat="44.151811" lon="10.4080465"><ele>491.3333333333333</ele><time>2026-05-02T07:54:26.963Z</time></trkpt><trkpt lat="44.1518926" lon="10.4081203"><ele>491.66666666666663</ele><time>2026-05-02T07:54:27.964Z</time></trkpt><trkpt lat="44.1519705" lon="10.4081943"><ele>492.0</ele><time>2026-05-02T07:54:28.964Z</time></trkpt><trkpt lat="44.1520414" lon="10.4082728"><ele>492.33333333333337</ele><time>2026-05-02T07:54:29.963Z</time></trkpt><trkpt lat="44.1521108" lon="10.4083423"><ele>492.6666666666667</ele><time>2026-05-02T07:54:30.964Z</time></trkpt><trkpt lat="44.152169" lon="10.4083811"><ele>493.0</ele><time>2026-05-02T07:54:31.963Z</time></trkpt><trkpt lat="44.1522517" lon="10.4083824"><ele>493.0</ele><time>2026-05-02T07:54:32.964Z</time></trkpt><trkpt lat="44.1523387" lon="10.4083551"><ele>492.99999999999994</ele><time>2026-05-02T07:54:33.964Z</time></trkpt><trkpt lat="44.1524282" lon="10.4083211"><ele>492.99999999999994</ele><time>2026-05-02T07:54:34.963Z</time></trkpt><trkpt lat="44.1525158" lon="10.4082734"><ele>493.0</ele><time>2026-05-02T07:54:35.964Z</time></trkpt><trkpt lat="44.1526083" lon="10.40819"><ele>493.0</ele><time>2026-05-02T07:54:36.963Z</time></trkpt><trkpt lat="44.1526864" lon="10.4081174"><ele>493.4</ele><time>2026-05-02T07:54:37.964Z</time></trkpt><trkpt lat="44.1527607" lon="10.4080398"><ele>493.79999999999995</ele><time>2026-05-02T07:54:38.963Z</time></trkpt><trkpt lat="44.1528247" lon="10.4079492"><ele>494.2</ele><time>2026-05-02T07:54:39.963Z</time></trkpt><trkpt lat="44.1528849" lon="10.407847"><ele>494.6</ele><time>2026-05-02T07:54:40.964Z</time></trkpt><trkpt lat="44.1529451" lon="10.4077555"><ele>495.0</ele><time>2026-05-02T07:54:41.964Z</time></trkpt><trkpt lat="44.1530113" lon="10.4076792"><ele>494.3333333333333</ele><time>2026-05-02T07:54:42.964Z</time></trkpt><trkpt lat="44.1530814" lon="10.4076173"><ele>493.66666666666663</ele><time>2026-05-02T07:54:43.964Z</time></trkpt><trkpt lat="44.153164" lon="10.4075656"><ele>493.0</ele><time>2026-05-02T07:54:44.964Z</time></trkpt><trkpt lat="44.1532518" lon="10.4075124"><ele>492.3333333333333</ele><time>2026-05-02T07:54:45.963Z</time></trkpt><trkpt lat="44.1533295" lon="10.4074628"><ele>491.66666666666663</ele><time>2026-05-02T07:54:46.964Z</time></trkpt><trkpt lat="44.1534063" lon="10.4074313"><ele>491.0</ele><time>2026-05-02T07:54:47.964Z</time></trkpt><trkpt lat="44.1534837" lon="10.4074164"><ele>490.99999999999994</ele><time>2026-05-02T07:54:48.964Z</time></trkpt><trkpt lat="44.1535552" lon="10.4074419"><ele>491.0</ele><time>2026-05-02T07:54:49.963Z</time></trkpt><trkpt lat="44.1536131" lon="10.4074771"><ele>491.0</ele><time>2026-05-02T07:54:50.964Z</time></trkpt><trkpt lat="44.1537106" lon="10.4074535"><ele>491.0</ele><time>2026-05-02T07:54:52.964Z</time></trkpt><trkpt lat="44.1537478" lon="10.4073767"><ele>490.99999999999994</ele><time>2026-05-02T07:54:53.964Z</time></trkpt><trkpt lat="44.1537646" lon="10.4072794"><ele>491.0</ele><time>2026-05-02T07:54:54.964Z</time></trkpt><trkpt lat="44.153792" lon="10.4071408"><ele>489.20000000000005</ele><time>2026-05-02T07:54:55.964Z</time></trkpt><trkpt lat="44.1538146" lon="10.4069905"><ele>487.40000000000003</ele><time>2026-05-02T07:54:56.963Z</time></trkpt><trkpt lat="44.1538452" lon="10.4068355"><ele>485.6</ele><time>2026-05-02T07:54:57.963Z</time></trkpt><trkpt lat="44.1538665" lon="10.4066919"><ele>483.8</ele><time>2026-05-02T07:54:58.963Z</time></trkpt><trkpt lat="44.1538932" lon="10.4065452"><ele>482.0</ele><time>2026-05-02T07:54:59.964Z</time></trkpt><trkpt lat="44.153914" lon="10.4063924"><ele>482.8</ele><time>2026-05-02T07:55:00.964Z</time></trkpt><trkpt lat="44.153947" lon="10.4062619"><ele>483.6</ele><time>2026-05-02T07:55:01.964Z</time></trkpt><trkpt lat="44.1539761" lon="10.4061357"><ele>484.40000000000003</ele><time>2026-05-02T07:55:02.963Z</time></trkpt><trkpt lat="44.154011" lon="10.405996"><ele>485.20000000000005</ele><time>2026-05-02T07:55:03.963Z</time></trkpt><trkpt lat="44.1540597" lon="10.4059115"><ele>486.0</ele><time>2026-05-02T07:55:04.963Z</time></trkpt><trkpt lat="44.1541007" lon="10.4058024"><ele>486.0</ele><time>2026-05-02T07:55:05.964Z</time></trkpt><trkpt lat="44.1541576" lon="10.4057587"><ele>486.0</ele><time>2026-05-02T07:55:06.964Z</time></trkpt><trkpt lat="44.1542067" lon="10.4056927"><ele>486.0</ele><time>2026-05-02T07:55:07.964Z</time></trkpt><trkpt lat="44.1542846" lon="10.4055654"><ele>486.0</ele><time>2026-05-02T07:55:09.964Z</time></trkpt><trkpt lat="44.1543218" lon="10.4054097"><ele>486.0</ele><time>2026-05-02T07:55:11.964Z</time></trkpt><trkpt lat="44.1544032" lon="10.4052409"><ele>484.6666666666667</ele><time>2026-05-02T07:55:13.964Z</time></trkpt><trkpt lat="44.1544499" lon="10.4051585"><ele>483.33333333333337</ele><time>2026-05-02T07:55:14.964Z</time></trkpt><trkpt lat="44.1545037" lon="10.405096"><ele>482.0</ele><time>2026-05-02T07:55:15.964Z</time></trkpt><trkpt lat="44.1546214" lon="10.4050535"><ele>480.6666666666667</ele><time>2026-05-02T07:55:17.964Z</time></trkpt><trkpt lat="44.1546936" lon="10.4050468"><ele>479.33333333333337</ele><time>2026-05-02T07:55:18.964Z</time></trkpt><trkpt lat="44.1547647" lon="10.4051034"><ele>478.0</ele><time>2026-05-02T07:55:19.964Z</time></trkpt><trkpt lat="44.1548267" lon="10.4051384"><ele>477.6666666666667</ele><time>2026-05-02T07:55:20.964Z</time></trkpt><trkpt lat="44.1548983" lon="10.4051807"><ele>477.33333333333337</ele><time>2026-05-02T07:55:21.964Z</time></trkpt><trkpt lat="44.1549543" lon="10.4052448"><ele>477.0</ele><time>2026-05-02T07:55:22.964Z</time></trkpt><trkpt lat="44.155002" lon="10.4053049"><ele>476.66666666666663</ele><time>2026-05-02T07:55:23.964Z</time></trkpt><trkpt lat="44.1550539" lon="10.4053676"><ele>476.3333333333333</ele><time>2026-05-02T07:55:24.964Z</time></trkpt><trkpt lat="44.1551382" lon="10.4054998"><ele>476.0</ele><time>2026-05-02T07:55:26.963Z</time></trkpt><trkpt lat="44.1551852" lon="10.40558"><ele>479.3333333333333</ele><time>2026-05-02T07:55:27.964Z</time></trkpt><trkpt lat="44.1552544" lon="10.4057014"><ele>482.66666666666663</ele><time>2026-05-02T07:55:29.964Z</time></trkpt><trkpt lat="44.1553167" lon="10.4057413"><ele>486.0</ele><time>2026-05-02T07:55:30.964Z</time></trkpt><trkpt lat="44.1554012" lon="10.4058182"><ele>489.33333333333337</ele><time>2026-05-02T07:55:32.964Z</time></trkpt><trkpt lat="44.155481" lon="10.4058323"><ele>492.6666666666667</ele><time>2026-05-02T07:55:34.963Z</time></trkpt><trkpt lat="44.1555279" lon="10.4057615"><ele>496.0</ele><time>2026-05-02T07:55:36.964Z</time></trkpt><trkpt lat="44.1555245" lon="10.4056324"><ele>496.0</ele><time>2026-05-02T07:55:38.964Z</time></trkpt><trkpt lat="44.1554724" lon="10.4055597"><ele>496.00000000000006</ele><time>2026-05-02T07:55:39.964Z</time></trkpt><trkpt lat="44.1554246" lon="10.4054826"><ele>496.0</ele><time>2026-05-02T07:55:40.963Z</time></trkpt><trkpt lat="44.155383" lon="10.4054006"><ele>496.0</ele><time>2026-05-02T07:55:41.964Z</time></trkpt><trkpt lat="44.1553313" lon="10.4053156"><ele>496.00000000000006</ele><time>2026-05-02T07:55:42.963Z</time></trkpt><trkpt lat="44.1552822" lon="10.4052497"><ele>496.0</ele><time>2026-05-02T07:55:43.963Z</time></trkpt><trkpt lat="44.1552248" lon="10.4051698"><ele>496.0</ele><time>2026-05-02T07:55:44.963Z</time></trkpt><trkpt lat="44.1551864" lon="10.4050854"><ele>492.0</ele><time>2026-05-02T07:55:45.964Z</time></trkpt><trkpt lat="44.1551455" lon="10.4049937"><ele>488.0</ele><time>2026-05-02T07:55:46.963Z</time></trkpt><trkpt lat="44.1550795" lon="10.404829"><ele>484.0</ele><time>2026-05-02T07:55:48.964Z</time></trkpt><trkpt lat="44.1550426" lon="10.4047525"><ele>480.0</ele><time>2026-05-02T07:55:49.964Z</time></trkpt><trkpt lat="44.1549566" lon="10.4046657"><ele>476.0</ele><time>2026-05-02T07:55:51.964Z</time></trkpt><trkpt lat="44.1549097" lon="10.4045358"><ele>474.8333333333333</ele><time>2026-05-02T07:55:53.964Z</time></trkpt><trkpt lat="44.1549183" lon="10.4044417"><ele>473.66666666666663</ele><time>2026-05-02T07:55:55.964Z</time></trkpt><trkpt lat="44.1548466" lon="10.4043204"><ele>472.5</ele><time>2026-05-02T07:55:57.964Z</time></trkpt><trkpt lat="44.1547939" lon="10.4042649"><ele>471.33333333333337</ele><time>2026-05-02T07:55:58.964Z</time></trkpt><trkpt lat="44.1547319" lon="10.404206"><ele>470.1666666666667</ele><time>2026-05-02T07:55:59.964Z</time></trkpt><trkpt lat="44.154672" lon="10.4041651"><ele>469.0</ele><time>2026-05-02T07:56:00.964Z</time></trkpt><trkpt lat="44.1545678" lon="10.4040663"><ele>468.4</ele><time>2026-05-02T07:56:02.963Z</time></trkpt><trkpt lat="44.1544673" lon="10.4040177"><ele>467.79999999999995</ele><time>2026-05-02T07:56:04.964Z</time></trkpt><trkpt lat="44.1543683" lon="10.4039929"><ele>467.20000000000005</ele><time>2026-05-02T07:56:06.964Z</time></trkpt><trkpt lat="44.1543294" lon="10.4038907"><ele>466.6</ele><time>2026-05-02T07:56:08.963Z</time></trkpt><trkpt lat="44.1543474" lon="10.4037506"><ele>466.0</ele><time>2026-05-02T07:56:10.964Z</time></trkpt><trkpt lat="44.1543041" lon="10.403608"><ele>465.6</ele><time>2026-05-02T07:56:12.963Z</time></trkpt><trkpt lat="44.1541991" lon="10.4034962"><ele>465.20000000000005</ele><time>2026-05-02T07:56:14.964Z</time></trkpt><trkpt lat="44.1541442" lon="10.4034448"><ele>464.79999999999995</ele><time>2026-05-02T07:56:15.964Z</time></trkpt><trkpt lat="44.1540635" lon="10.4033489"><ele>464.4</ele><time>2026-05-02T07:56:16.964Z</time></trkpt><trkpt lat="44.1539905" lon="10.4032638"><ele>464.0</ele><time>2026-05-02T07:56:17.964Z</time></trkpt><trkpt lat="44.1539185" lon="10.4032114"><ele>462.3333333333333</ele><time>2026-05-02T07:56:18.964Z</time></trkpt><trkpt lat="44.1538593" lon="10.4031649"><ele>460.66666666666663</ele><time>2026-05-02T07:56:19.964Z</time></trkpt><trkpt lat="44.1537921" lon="10.4031111"><ele>459.0</ele><time>2026-05-02T07:56:20.963Z</time></trkpt><trkpt lat="44.1537459" lon="10.4030371"><ele>457.33333333333337</ele><time>2026-05-02T07:56:21.964Z</time></trkpt><trkpt lat="44.153704" lon="10.4029651"><ele>455.6666666666667</ele><time>2026-05-02T07:56:22.964Z</time></trkpt><trkpt lat="44.153662" lon="10.4028899"><ele>454.0</ele><time>2026-05-02T07:56:23.964Z</time></trkpt><trkpt lat="44.1535889" lon="10.4027792"><ele>454.0</ele><time>2026-05-02T07:56:25.964Z</time></trkpt><trkpt lat="44.1535601" lon="10.4026646"><ele>454.0</ele><time>2026-05-02T07:56:27.963Z</time></trkpt><trkpt lat="44.1535974" lon="10.4025615"><ele>454.0</ele><time>2026-05-02T07:56:29.964Z</time></trkpt><trkpt lat="44.1536748" lon="10.4024619"><ele>454.0</ele><time>2026-05-02T07:56:31.964Z</time></trkpt><trkpt lat="44.1537337" lon="10.4023545"><ele>454.0</ele><time>2026-05-02T07:56:33.963Z</time></trkpt><trkpt lat="44.1537471" lon="10.4022122"><ele>453.6666666666667</ele><time>2026-05-02T07:56:35.964Z</time></trkpt><trkpt lat="44.1537229" lon="10.4020368"><ele>453.33333333333337</ele><time>2026-05-02T07:56:37.964Z</time></trkpt><trkpt lat="44.1537105" lon="10.4019241"><ele>453.0</ele><time>2026-05-02T07:56:38.964Z</time></trkpt><trkpt lat="44.1536913" lon="10.4018162"><ele>452.66666666666663</ele><time>2026-05-02T07:56:39.964Z</time></trkpt><trkpt lat="44.1536807" lon="10.4017146"><ele>452.3333333333333</ele><time>2026-05-02T07:56:40.964Z</time></trkpt><trkpt lat="44.1536516" lon="10.4016086"><ele>452.0</ele><time>2026-05-02T07:56:41.964Z</time></trkpt><trkpt lat="44.1536258" lon="10.4014837"><ele>451.99999999999994</ele><time>2026-05-02T07:56:42.964Z</time></trkpt><trkpt lat="44.1536" lon="10.4013682"><ele>452.0</ele><time>2026-05-02T07:56:43.964Z</time></trkpt><trkpt lat="44.1535589" lon="10.4012413"><ele>452.0</ele><time>2026-05-02T07:56:44.963Z</time></trkpt><trkpt lat="44.1535282" lon="10.4011248"><ele>452.0</ele><time>2026-05-02T07:56:45.964Z</time></trkpt><trkpt lat="44.1535007" lon="10.4010116"><ele>451.99999999999994</ele><time>2026-05-02T07:56:46.964Z</time></trkpt><trkpt lat="44.1534771" lon="10.4009153"><ele>452.0</ele><time>2026-05-02T07:56:47.964Z</time></trkpt><trkpt lat="44.153456" lon="10.4008128"><ele>451.99999999999994</ele><time>2026-05-02T07:56:48.963Z</time></trkpt><trkpt lat="44.1534276" lon="10.4007014"><ele>452.0</ele><time>2026-05-02T07:56:49.964Z</time></trkpt><trkpt lat="44.1534118" lon="10.4005844"><ele>452.0</ele><time>2026-05-02T07:56:50.963Z</time></trkpt><trkpt lat="44.1533971" lon="10.4004767"><ele>452.0</ele><time>2026-05-02T07:56:51.964Z</time></trkpt><trkpt lat="44.1533958" lon="10.4003771"><ele>451.99999999999994</ele><time>2026-05-02T07:56:52.964Z</time></trkpt><trkpt lat="44.1533871" lon="10.4002686"><ele>452.0</ele><time>2026-05-02T07:56:53.964Z</time></trkpt><trkpt lat="44.153367" lon="10.4001799"><ele>453.42857142857144</ele><time>2026-05-02T07:56:54.964Z</time></trkpt><trkpt lat="44.1533509" lon="10.4000888"><ele>454.85714285714283</ele><time>2026-05-02T07:56:55.963Z</time></trkpt><trkpt lat="44.1533412" lon="10.3999849"><ele>456.2857142857143</ele><time>2026-05-02T07:56:56.964Z</time></trkpt><trkpt lat="44.1533288" lon="10.3998722"><ele>457.7142857142857</ele><time>2026-05-02T07:56:57.964Z</time></trkpt><trkpt lat="44.153319" lon="10.3997734"><ele>459.1428571428571</ele><time>2026-05-02T07:56:58.964Z</time></trkpt><trkpt lat="44.1533159" lon="10.3996663"><ele>460.57142857142856</ele><time>2026-05-02T07:56:59.963Z</time></trkpt><trkpt lat="44.1533193" lon="10.3995602"><ele>462.0</ele><time>2026-05-02T07:57:00.963Z</time></trkpt><trkpt lat="44.1533229" lon="10.3994524"><ele>462.6666666666667</ele><time>2026-05-02T07:57:01.964Z</time></trkpt><trkpt lat="44.153344" lon="10.3993551"><ele>463.33333333333337</ele><time>2026-05-02T07:57:02.963Z</time></trkpt><trkpt lat="44.1533761" lon="10.3992421"><ele>464.0</ele><time>2026-05-02T07:57:03.964Z</time></trkpt><trkpt lat="44.1534096" lon="10.399148"><ele>464.6666666666667</ele><time>2026-05-02T07:57:04.963Z</time></trkpt><trkpt lat="44.1534362" lon="10.3990627"><ele>465.33333333333337</ele><time>2026-05-02T07:57:05.964Z</time></trkpt><trkpt lat="44.1534574" lon="10.398964"><ele>466.0</ele><time>2026-05-02T07:57:06.964Z</time></trkpt><trkpt lat="44.1534761" lon="10.3987868"><ele>466.33333333333337</ele><time>2026-05-02T07:57:08.964Z</time></trkpt><trkpt lat="44.1535004" lon="10.3986734"><ele>466.6666666666667</ele><time>2026-05-02T07:57:09.963Z</time></trkpt><trkpt lat="44.1535138" lon="10.398579"><ele>467.0</ele><time>2026-05-02T07:57:10.963Z</time></trkpt><trkpt lat="44.1535318" lon="10.3984725"><ele>467.33333333333337</ele><time>2026-05-02T07:57:11.963Z</time></trkpt><trkpt lat="44.1535509" lon="10.3983595"><ele>467.6666666666667</ele><time>2026-05-02T07:57:12.963Z</time></trkpt><trkpt lat="44.1535846" lon="10.3982422"><ele>468.0</ele><time>2026-05-02T07:57:13.964Z</time></trkpt><trkpt lat="44.1536021" lon="10.3981292"><ele>468.0</ele><time>2026-05-02T07:57:14.964Z</time></trkpt><trkpt lat="44.1536106" lon="10.3980176"><ele>468.0</ele><time>2026-05-02T07:57:15.964Z</time></trkpt><trkpt lat="44.1535905" lon="10.3978975"><ele>468.0</ele><time>2026-05-02T07:57:16.964Z</time></trkpt><trkpt lat="44.1535748" lon="10.3977877"><ele>468.0</ele><time>2026-05-02T07:57:17.964Z</time></trkpt><trkpt lat="44.1535666" lon="10.397658"><ele>468.0</ele><time>2026-05-02T07:57:18.964Z</time></trkpt><trkpt lat="44.1535702" lon="10.3975472"><ele>468.0</ele><time>2026-05-02T07:57:19.964Z</time></trkpt><trkpt lat="44.1535687" lon="10.3974447"><ele>468.8333333333333</ele><time>2026-05-02T07:57:20.964Z</time></trkpt><trkpt lat="44.153567" lon="10.3973359"><ele>469.66666666666663</ele><time>2026-05-02T07:57:21.963Z</time></trkpt><trkpt lat="44.1535561" lon="10.397238"><ele>470.5</ele><time>2026-05-02T07:57:22.964Z</time></trkpt><trkpt lat="44.1535344" lon="10.3971443"><ele>471.3333333333333</ele><time>2026-05-02T07:57:23.964Z</time></trkpt><trkpt lat="44.1535121" lon="10.3970539"><ele>472.16666666666663</ele><time>2026-05-02T07:57:24.964Z</time></trkpt><trkpt lat="44.153519" lon="10.39688"><ele>473.0</ele><time>2026-05-02T07:57:26.963Z</time></trkpt><trkpt lat="44.1535322" lon="10.3967362"><ele>474.4</ele><time>2026-05-02T07:57:28.964Z</time></trkpt><trkpt lat="44.1535453" lon="10.3966193"><ele>475.79999999999995</ele><time>2026-05-02T07:57:31.964Z</time></trkpt><trkpt lat="44.1536047" lon="10.396493"><ele>477.2</ele><time>2026-05-02T07:57:34.964Z</time></trkpt><trkpt lat="44.1536519" lon="10.3964087"><ele>478.6</ele><time>2026-05-02T07:57:36.964Z</time></trkpt><trkpt lat="44.1537302" lon="10.3964117"><ele>480.0</ele><time>2026-05-02T07:57:38.964Z</time></trkpt><trkpt lat="44.1538169" lon="10.3964935"><ele>480.0</ele><time>2026-05-02T07:57:40.964Z</time></trkpt><trkpt lat="44.1539226" lon="10.3965939"><ele>480.0</ele><time>2026-05-02T07:57:42.964Z</time></trkpt><trkpt lat="44.1539861" lon="10.3966458"><ele>480.0</ele><time>2026-05-02T07:57:43.963Z</time></trkpt><trkpt lat="44.1540518" lon="10.3967017"><ele>480.0</ele><time>2026-05-02T07:57:44.964Z</time></trkpt><trkpt lat="44.1541116" lon="10.3967689"><ele>480.0</ele><time>2026-05-02T07:57:45.964Z</time></trkpt><trkpt lat="44.1541742" lon="10.3968419"><ele>480.0</ele><time>2026-05-02T07:57:46.964Z</time></trkpt><trkpt lat="44.1542359" lon="10.3969125"><ele>481.5</ele><time>2026-05-02T07:57:47.963Z</time></trkpt><trkpt lat="44.1542952" lon="10.3969737"><ele>483.0</ele><time>2026-05-02T07:57:48.964Z</time></trkpt><trkpt lat="44.1543638" lon="10.3970272"><ele>484.5</ele><time>2026-05-02T07:57:49.963Z</time></trkpt><trkpt lat="44.1544299" lon="10.3970812"><ele>486.0</ele><time>2026-05-02T07:57:50.964Z</time></trkpt><trkpt lat="44.1544932" lon="10.3971358"><ele>487.5</ele><time>2026-05-02T07:57:51.964Z</time></trkpt><trkpt lat="44.1545587" lon="10.3971869"><ele>489.0</ele><time>2026-05-02T07:57:52.964Z</time></trkpt><trkpt lat="44.1546246" lon="10.3972242"><ele>489.2</ele><time>2026-05-02T07:57:53.964Z</time></trkpt><trkpt lat="44.1547277" lon="10.3972713"><ele>489.4</ele><time>2026-05-02T07:57:55.963Z</time></trkpt><trkpt lat="44.1548363" lon="10.3973329"><ele>489.6</ele><time>2026-05-02T07:57:57.964Z</time></trkpt><trkpt lat="44.1548962" lon="10.3973616"><ele>489.8</ele><time>2026-05-02T07:57:58.963Z</time></trkpt><trkpt lat="44.1549592" lon="10.3973791"><ele>490.0</ele><time>2026-05-02T07:57:59.964Z</time></trkpt><trkpt lat="44.1550816" lon="10.3974459"><ele>491.8571428571429</ele><time>2026-05-02T07:58:01.964Z</time></trkpt><trkpt lat="44.1551508" lon="10.3974556"><ele>493.7142857142857</ele><time>2026-05-02T07:58:02.963Z</time></trkpt><trkpt lat="44.1552208" lon="10.3974645"><ele>495.57142857142856</ele><time>2026-05-02T07:58:03.963Z</time></trkpt><trkpt lat="44.1552921" lon="10.3974534"><ele>497.42857142857144</ele><time>2026-05-02T07:58:04.963Z</time></trkpt><trkpt lat="44.1553561" lon="10.3974546"><ele>499.28571428571433</ele><time>2026-05-02T07:58:05.963Z</time></trkpt><trkpt lat="44.1554243" lon="10.3974596"><ele>501.14285714285717</ele><time>2026-05-02T07:58:06.964Z</time></trkpt><trkpt lat="44.1554922" lon="10.3974891"><ele>503.0</ele><time>2026-05-02T07:58:07.964Z</time></trkpt><trkpt lat="44.1555645" lon="10.3975265"><ele>503.0</ele><time>2026-05-02T07:58:08.963Z</time></trkpt><trkpt lat="44.1556157" lon="10.3976057"><ele>503.00000000000006</ele><time>2026-05-02T07:58:09.964Z</time></trkpt><trkpt lat="44.1556773" lon="10.397657"><ele>503.0</ele><time>2026-05-02T07:58:10.964Z</time></trkpt><trkpt lat="44.1557416" lon="10.3977082"><ele>503.0</ele><time>2026-05-02T07:58:11.964Z</time></trkpt><trkpt lat="44.1558043" lon="10.3977748"><ele>503.00000000000006</ele><time>2026-05-02T07:58:12.963Z</time></trkpt><trkpt lat="44.1558597" lon="10.3978178"><ele>503.0</ele><time>2026-05-02T07:58:13.963Z</time></trkpt><trkpt lat="44.1559026" lon="10.3978843"><ele>503.0</ele><time>2026-05-02T07:58:14.964Z</time></trkpt><trkpt lat="44.1559792" lon="10.3980064"><ele>503.3333333333333</ele><time>2026-05-02T07:58:16.964Z</time></trkpt><trkpt lat="44.1560477" lon="10.3981105"><ele>503.66666666666663</ele><time>2026-05-02T07:58:18.963Z</time></trkpt><trkpt lat="44.1561291" lon="10.3981731"><ele>504.0</ele><time>2026-05-02T07:58:20.964Z</time></trkpt><trkpt lat="44.1562321" lon="10.3981435"><ele>504.33333333333337</ele><time>2026-05-02T07:58:22.964Z</time></trkpt><trkpt lat="44.1562952" lon="10.3981101"><ele>504.6666666666667</ele><time>2026-05-02T07:58:23.964Z</time></trkpt><trkpt lat="44.1563493" lon="10.3980649"><ele>505.0</ele><time>2026-05-02T07:58:24.964Z</time></trkpt><trkpt lat="44.156408" lon="10.3979616"><ele>505.83333333333337</ele><time>2026-05-02T07:58:25.963Z</time></trkpt><trkpt lat="44.1564549" lon="10.3978669"><ele>506.6666666666667</ele><time>2026-05-02T07:58:26.964Z</time></trkpt><trkpt lat="44.156504" lon="10.3977631"><ele>507.5</ele><time>2026-05-02T07:58:27.963Z</time></trkpt><trkpt lat="44.1565506" lon="10.3976722"><ele>508.33333333333337</ele><time>2026-05-02T07:58:28.964Z</time></trkpt><trkpt lat="44.1565851" lon="10.3975751"><ele>509.1666666666667</ele><time>2026-05-02T07:58:29.964Z</time></trkpt><trkpt lat="44.1565954" lon="10.3974862"><ele>510.0</ele><time>2026-05-02T07:58:30.964Z</time></trkpt><trkpt lat="44.1566942" lon="10.3973977"><ele>511.8333333333333</ele><time>2026-05-02T07:58:32.964Z</time></trkpt><trkpt lat="44.1567995" lon="10.3973899"><ele>513.6666666666666</ele><time>2026-05-02T07:58:34.963Z</time></trkpt><trkpt lat="44.1568655" lon="10.3973889"><ele>515.5</ele><time>2026-05-02T07:58:35.963Z</time></trkpt><trkpt lat="44.1569559" lon="10.3974218"><ele>517.3333333333333</ele><time>2026-05-02T07:58:37.964Z</time></trkpt><trkpt lat="44.1570205" lon="10.3974589"><ele>519.1666666666666</ele><time>2026-05-02T07:58:39.964Z</time></trkpt><trkpt lat="44.157104" lon="10.3974936"><ele>521.0</ele><time>2026-05-02T07:58:41.964Z</time></trkpt><trkpt lat="44.1571938" lon="10.3975428"><ele>521.0</ele><time>2026-05-02T07:58:43.963Z</time></trkpt><trkpt lat="44.1572856" lon="10.3975894"><ele>521.0</ele><time>2026-05-02T07:58:45.964Z</time></trkpt><trkpt lat="44.1573904" lon="10.3975747"><ele>521.0</ele><time>2026-05-02T07:58:47.964Z</time></trkpt><trkpt lat="44.1574922" lon="10.3974714"><ele>521.0</ele><time>2026-05-02T07:58:49.964Z</time></trkpt><trkpt lat="44.1575836" lon="10.3973615"><ele>523.6</ele><time>2026-05-02T07:58:51.964Z</time></trkpt><trkpt lat="44.1576823" lon="10.3972707"><ele>526.2</ele><time>2026-05-02T07:58:53.964Z</time></trkpt><trkpt lat="44.1577476" lon="10.3972453"><ele>528.8</ele><time>2026-05-02T07:58:54.964Z</time></trkpt><trkpt lat="44.1578733" lon="10.3972364"><ele>531.4</ele><time>2026-05-02T07:58:56.963Z</time></trkpt><trkpt lat="44.1579364" lon="10.397242"><ele>534.0</ele><time>2026-05-02T07:58:57.963Z</time></trkpt><trkpt lat="44.1580469" lon="10.3972536"><ele>534.0</ele><time>2026-05-02T07:58:59.963Z</time></trkpt><trkpt lat="44.1581543" lon="10.3973292"><ele>534.0</ele><time>2026-05-02T07:59:01.964Z</time></trkpt><trkpt lat="44.1582396" lon="10.3974252"><ele>534.0</ele><time>2026-05-02T07:59:03.964Z</time></trkpt><trkpt lat="44.1582836" lon="10.3974914"><ele>534.0</ele><time>2026-05-02T07:59:04.963Z</time></trkpt><trkpt lat="44.1583359" lon="10.3975677"><ele>534.0</ele><time>2026-05-02T07:59:05.963Z</time></trkpt><trkpt lat="44.1583833" lon="10.3976457"><ele>534.0</ele><time>2026-05-02T07:59:06.964Z</time></trkpt><trkpt lat="44.1584665" lon="10.3977439"><ele>536.0</ele><time>2026-05-02T07:59:08.964Z</time></trkpt><trkpt lat="44.1585571" lon="10.3978143"><ele>538.0</ele><time>2026-05-02T07:59:10.964Z</time></trkpt><trkpt lat="44.1586222" lon="10.3978178"><ele>540.0</ele><time>2026-05-02T07:59:11.963Z</time></trkpt><trkpt lat="44.1586861" lon="10.3978352"><ele>542.0</ele><time>2026-05-02T07:59:12.964Z</time></trkpt><trkpt lat="44.1587514" lon="10.397882"><ele>544.0</ele><time>2026-05-02T07:59:13.964Z</time></trkpt><trkpt lat="44.1588265" lon="10.3979203"><ele>546.0</ele><time>2026-05-02T07:59:14.964Z</time></trkpt><trkpt lat="44.1588944" lon="10.3979535"><ele>546.0</ele><time>2026-05-02T07:59:15.964Z</time></trkpt><trkpt lat="44.1589777" lon="10.3979869"><ele>546.0</ele><time>2026-05-02T07:59:16.964Z</time></trkpt><trkpt lat="44.1590554" lon="10.3980203"><ele>546.0</ele><time>2026-05-02T07:59:17.963Z</time></trkpt><trkpt lat="44.1591334" lon="10.3980539"><ele>546.0</ele><time>2026-05-02T07:59:18.963Z</time></trkpt><trkpt lat="44.1592066" lon="10.39809"><ele>546.0</ele><time>2026-05-02T07:59:19.964Z</time></trkpt><trkpt lat="44.1592824" lon="10.3981306"><ele>546.0</ele><time>2026-05-02T07:59:20.964Z</time></trkpt><trkpt lat="44.1593461" lon="10.3981497"><ele>546.0</ele><time>2026-05-02T07:59:21.963Z</time></trkpt><trkpt lat="44.1594173" lon="10.3981612"><ele>546.0</ele><time>2026-05-02T07:59:22.964Z</time></trkpt><trkpt lat="44.1594822" lon="10.3981893"><ele>546.0</ele><time>2026-05-02T07:59:23.963Z</time></trkpt><trkpt lat="44.1595679" lon="10.3981065"><ele>546.0</ele><time>2026-05-02T07:59:32.964Z</time></trkpt><trkpt lat="44.1595655" lon="10.3979631"><ele>546.0</ele><time>2026-05-02T07:59:34.964Z</time></trkpt><trkpt lat="44.1595619" lon="10.3978626"><ele>546.0</ele><time>2026-05-02T07:59:35.964Z</time></trkpt><trkpt lat="44.1595602" lon="10.3977439"><ele>545.8333333333334</ele><time>2026-05-02T07:59:36.964Z</time></trkpt><trkpt lat="44.1595664" lon="10.397619"><ele>545.6666666666666</ele><time>2026-05-02T07:59:37.963Z</time></trkpt><trkpt lat="44.1596012" lon="10.397504"><ele>545.5</ele><time>2026-05-02T07:59:38.963Z</time></trkpt><trkpt lat="44.1596385" lon="10.3974033"><ele>545.3333333333333</ele><time>2026-05-02T07:59:39.964Z</time></trkpt><trkpt lat="44.1596631" lon="10.3973162"><ele>545.1666666666666</ele><time>2026-05-02T07:59:40.964Z</time></trkpt><trkpt lat="44.1597151" lon="10.3971659"><ele>545.0</ele><time>2026-05-02T07:59:42.964Z</time></trkpt><trkpt lat="44.159762" lon="10.3970128"><ele>544.4</ele><time>2026-05-02T07:59:44.963Z</time></trkpt><trkpt lat="44.1597916" lon="10.3969236"><ele>543.8</ele><time>2026-05-02T07:59:45.963Z</time></trkpt><trkpt lat="44.159833" lon="10.3968268"><ele>543.2</ele><time>2026-05-02T07:59:46.964Z</time></trkpt><trkpt lat="44.1598794" lon="10.3967099"><ele>542.6</ele><time>2026-05-02T07:59:47.964Z</time></trkpt><trkpt lat="44.1599306" lon="10.3965788"><ele>542.0</ele><time>2026-05-02T07:59:48.964Z</time></trkpt><trkpt lat="44.1599841" lon="10.3964333"><ele>541.0</ele><time>2026-05-02T07:59:49.964Z</time></trkpt><trkpt lat="44.16004" lon="10.3962739"><ele>540.0</ele><time>2026-05-02T07:59:50.964Z</time></trkpt><trkpt lat="44.1601015" lon="10.3961083"><ele>539.0</ele><time>2026-05-02T07:59:51.964Z</time></trkpt><trkpt lat="44.16016" lon="10.3959531"><ele>538.0</ele><time>2026-05-02T07:59:52.964Z</time></trkpt><trkpt lat="44.1602196" lon="10.3958061"><ele>538.0</ele><time>2026-05-02T07:59:53.964Z</time></trkpt><trkpt lat="44.1602897" lon="10.3956698"><ele>538.0</ele><time>2026-05-02T07:59:54.964Z</time></trkpt><trkpt lat="44.1603676" lon="10.3955692"><ele>538.0</ele><time>2026-05-02T07:59:55.964Z</time></trkpt><trkpt lat="44.160464" lon="10.3955054"><ele>538.0</ele><time>2026-05-02T07:59:56.964Z</time></trkpt><trkpt lat="44.1605658" lon="10.3954753"><ele>538.0</ele><time>2026-05-02T07:59:57.963Z</time></trkpt><trkpt lat="44.1606767" lon="10.3954887"><ele>538.0</ele><time>2026-05-02T07:59:58.964Z</time></trkpt><trkpt lat="44.1607929" lon="10.3955362"><ele>538.0</ele><time>2026-05-02T07:59:59.964Z</time></trkpt><trkpt lat="44.1609112" lon="10.3956025"><ele>538.0</ele><time>2026-05-02T08:00:00.964Z</time></trkpt><trkpt lat="44.1610247" lon="10.3956683"><ele>538.0</ele><time>2026-05-02T08:00:01.963Z</time></trkpt><trkpt lat="44.1611317" lon="10.3957309"><ele>538.0</ele><time>2026-05-02T08:00:02.964Z</time></trkpt><trkpt lat="44.1612382" lon="10.3957886"><ele>538.0</ele><time>2026-05-02T08:00:03.964Z</time></trkpt><trkpt lat="44.1613391" lon="10.395842"><ele>538.0</ele><time>2026-05-02T08:00:04.964Z</time></trkpt><trkpt lat="44.1614303" lon="10.395886"><ele>538.0</ele><time>2026-05-02T08:00:05.964Z</time></trkpt><trkpt lat="44.1615303" lon="10.3958724"><ele>538.0</ele><time>2026-05-02T08:00:06.963Z</time></trkpt><trkpt lat="44.1616266" lon="10.3958779"><ele>537.5</ele><time>2026-05-02T08:00:07.964Z</time></trkpt><trkpt lat="44.1616927" lon="10.3958025"><ele>537.0</ele><time>2026-05-02T08:00:08.964Z</time></trkpt><trkpt lat="44.1617718" lon="10.3957774"><ele>536.5</ele><time>2026-05-02T08:00:09.964Z</time></trkpt><trkpt lat="44.1618403" lon="10.3957204"><ele>536.0</ele><time>2026-05-02T08:00:10.964Z</time></trkpt><trkpt lat="44.1618906" lon="10.3956534"><ele>535.5</ele><time>2026-05-02T08:00:11.963Z</time></trkpt><trkpt lat="44.1619264" lon="10.3955579"><ele>535.0</ele><time>2026-05-02T08:00:12.964Z</time></trkpt><trkpt lat="44.161938" lon="10.3954505"><ele>535.0</ele><time>2026-05-02T08:00:13.963Z</time></trkpt><trkpt lat="44.1619557" lon="10.3953306"><ele>535.0</ele><time>2026-05-02T08:00:14.964Z</time></trkpt><trkpt lat="44.161897" lon="10.3951982"><ele>535.0</ele><time>2026-05-02T08:00:15.963Z</time></trkpt><trkpt lat="44.1618702" lon="10.3950696"><ele>535.0</ele><time>2026-05-02T08:00:16.964Z</time></trkpt><trkpt lat="44.161838" lon="10.394944"><ele>535.0</ele><time>2026-05-02T08:00:17.963Z</time></trkpt><trkpt lat="44.161803" lon="10.3948136"><ele>535.0</ele><time>2026-05-02T08:00:18.964Z</time></trkpt><trkpt lat="44.1617676" lon="10.394693"><ele>535.0</ele><time>2026-05-02T08:00:19.964Z</time></trkpt><trkpt lat="44.1617322" lon="10.3945291"><ele>535.0</ele><time>2026-05-02T08:00:20.964Z</time></trkpt><trkpt lat="44.1616958" lon="10.3944014"><ele>535.0</ele><time>2026-05-02T08:00:21.964Z</time></trkpt><trkpt lat="44.1616539" lon="10.3942531"><ele>535.0</ele><time>2026-05-02T08:00:22.963Z</time></trkpt><trkpt lat="44.1616153" lon="10.3941191"><ele>535.25</ele><time>2026-05-02T08:00:23.963Z</time></trkpt><trkpt lat="44.1615802" lon="10.3939669"><ele>535.5</ele><time>2026-05-02T08:00:24.964Z</time></trkpt><trkpt lat="44.1615417" lon="10.3938172"><ele>535.75</ele><time>2026-05-02T08:00:25.964Z</time></trkpt><trkpt lat="44.1615095" lon="10.3936595"><ele>536.0</ele><time>2026-05-02T08:00:26.964Z</time></trkpt><trkpt lat="44.161465" lon="10.3934964"><ele>534.25</ele><time>2026-05-02T08:00:27.963Z</time></trkpt><trkpt lat="44.1614224" lon="10.3933417"><ele>532.5</ele><time>2026-05-02T08:00:28.964Z</time></trkpt><trkpt lat="44.1613833" lon="10.3931795"><ele>530.75</ele><time>2026-05-02T08:00:29.963Z</time></trkpt><trkpt lat="44.1613451" lon="10.3930229"><ele>529.0</ele><time>2026-05-02T08:00:30.964Z</time></trkpt><trkpt lat="44.1613149" lon="10.392881"><ele>529.0</ele><time>2026-05-02T08:00:31.964Z</time></trkpt><trkpt lat="44.1612859" lon="10.3927407"><ele>529.0</ele><time>2026-05-02T08:00:32.964Z</time></trkpt><trkpt lat="44.1612644" lon="10.3926057"><ele>529.0</ele><time>2026-05-02T08:00:33.964Z</time></trkpt><trkpt lat="44.1612471" lon="10.3924622"><ele>529.0</ele><time>2026-05-02T08:00:34.964Z</time></trkpt><trkpt lat="44.1612471" lon="10.3922963"><ele>529.0</ele><time>2026-05-02T08:00:35.963Z</time></trkpt><trkpt lat="44.1612439" lon="10.3921219"><ele>528.75</ele><time>2026-05-02T08:00:36.964Z</time></trkpt><trkpt lat="44.1612458" lon="10.3919449"><ele>528.5</ele><time>2026-05-02T08:00:37.964Z</time></trkpt><trkpt lat="44.161244" lon="10.3917648"><ele>528.25</ele><time>2026-05-02T08:00:38.963Z</time></trkpt><trkpt lat="44.1612435" lon="10.3915797"><ele>528.0</ele><time>2026-05-02T08:00:39.963Z</time></trkpt><trkpt lat="44.161238" lon="10.3913989"><ele>528.5</ele><time>2026-05-02T08:00:40.964Z</time></trkpt><trkpt lat="44.1612379" lon="10.3912187"><ele>529.0</ele><time>2026-05-02T08:00:41.964Z</time></trkpt><trkpt lat="44.1612501" lon="10.3910652"><ele>529.5</ele><time>2026-05-02T08:00:42.964Z</time></trkpt><trkpt lat="44.1612697" lon="10.3909046"><ele>530.0</ele><time>2026-05-02T08:00:43.964Z</time></trkpt><trkpt lat="44.1613051" lon="10.3907468"><ele>530.0</ele><time>2026-05-02T08:00:44.964Z</time></trkpt><trkpt lat="44.1613602" lon="10.3906002"><ele>530.0</ele><time>2026-05-02T08:00:45.964Z</time></trkpt><trkpt lat="44.1614243" lon="10.3904617"><ele>530.0</ele><time>2026-05-02T08:00:46.964Z</time></trkpt><trkpt lat="44.1614911" lon="10.3903283"><ele>530.0</ele><time>2026-05-02T08:00:47.964Z</time></trkpt><trkpt lat="44.1616086" lon="10.3902198"><ele>532.0</ele><time>2026-05-02T08:00:48.964Z</time></trkpt><trkpt lat="44.1617029" lon="10.3901053"><ele>534.0</ele><time>2026-05-02T08:00:49.963Z</time></trkpt><trkpt lat="44.1617984" lon="10.3900034"><ele>536.0</ele><time>2026-05-02T08:00:50.964Z</time></trkpt><trkpt lat="44.1618884" lon="10.3899157"><ele>538.0</ele><time>2026-05-02T08:00:51.963Z</time></trkpt><trkpt lat="44.1619589" lon="10.3898476"><ele>540.0</ele><time>2026-05-02T08:00:52.963Z</time></trkpt><trkpt lat="44.1620278" lon="10.3898052"><ele>540.0</ele><time>2026-05-02T08:00:53.963Z</time></trkpt><trkpt lat="44.1621219" lon="10.3897756"><ele>540.0</ele><time>2026-05-02T08:00:55.963Z</time></trkpt><trkpt lat="44.1622421" lon="10.3898168"><ele>540.0</ele><time>2026-05-02T08:00:57.964Z</time></trkpt><trkpt lat="44.16231" lon="10.3898759"><ele>540.0</ele><time>2026-05-02T08:00:58.964Z</time></trkpt><trkpt lat="44.1623814" lon="10.3899573"><ele>540.0</ele><time>2026-05-02T08:00:59.963Z</time></trkpt><trkpt lat="44.1624492" lon="10.3900432"><ele>541.2</ele><time>2026-05-02T08:01:00.964Z</time></trkpt><trkpt lat="44.1625189" lon="10.390122"><ele>542.4</ele><time>2026-05-02T08:01:01.964Z</time></trkpt><trkpt lat="44.1625942" lon="10.3902286"><ele>543.6</ele><time>2026-05-02T08:01:02.963Z</time></trkpt><trkpt lat="44.1626529" lon="10.3903216"><ele>544.8</ele><time>2026-05-02T08:01:03.964Z</time></trkpt><trkpt lat="44.1627091" lon="10.3904159"><ele>546.0</ele><time>2026-05-02T08:01:04.964Z</time></trkpt><trkpt lat="44.1627518" lon="10.3905074"><ele>546.0</ele><time>2026-05-02T08:01:05.963Z</time></trkpt><trkpt lat="44.162774" lon="10.3906099"><ele>546.0</ele><time>2026-05-02T08:01:06.964Z</time></trkpt><trkpt lat="44.1628038" lon="10.3907571"><ele>546.0</ele><time>2026-05-02T08:01:08.963Z</time></trkpt><trkpt lat="44.1628723" lon="10.390756"><ele>546.0</ele><time>2026-05-02T08:01:12.963Z</time></trkpt><trkpt lat="44.1628379" lon="10.3906124"><ele>546.0</ele><time>2026-05-02T08:01:14.964Z</time></trkpt><trkpt lat="44.162794" lon="10.3905247"><ele>546.0</ele><time>2026-05-02T08:01:15.963Z</time></trkpt><trkpt lat="44.162746" lon="10.3904248"><ele>546.0</ele><time>2026-05-02T08:01:16.963Z</time></trkpt><trkpt lat="44.1626939" lon="10.3903258"><ele>546.0</ele><time>2026-05-02T08:01:17.963Z</time></trkpt><trkpt lat="44.1626297" lon="10.3902296"><ele>546.0</ele><time>2026-05-02T08:01:18.964Z</time></trkpt><trkpt lat="44.1625591" lon="10.3901312"><ele>546.0</ele><time>2026-05-02T08:01:19.963Z</time></trkpt><trkpt lat="44.1624898" lon="10.3900391"><ele>546.0</ele><time>2026-05-02T08:01:20.964Z</time></trkpt><trkpt lat="44.1624179" lon="10.3899612"><ele>545.0</ele><time>2026-05-02T08:01:21.964Z</time></trkpt><trkpt lat="44.1623511" lon="10.3898858"><ele>544.0</ele><time>2026-05-02T08:01:22.964Z</time></trkpt><trkpt lat="44.1622967" lon="10.3898047"><ele>543.0</ele><time>2026-05-02T08:01:23.963Z</time></trkpt><trkpt lat="44.1622438" lon="10.3897196"><ele>542.0</ele><time>2026-05-02T08:01:24.963Z</time></trkpt><trkpt lat="44.1622557" lon="10.3896216"><ele>541.0</ele><time>2026-05-02T08:01:25.963Z</time></trkpt><trkpt lat="44.162265" lon="10.3895222"><ele>540.0</ele><time>2026-05-02T08:01:26.964Z</time></trkpt><trkpt lat="44.162309" lon="10.3894243"><ele>539.8333333333334</ele><time>2026-05-02T08:01:27.963Z</time></trkpt><trkpt lat="44.1623658" lon="10.3893417"><ele>539.6666666666666</ele><time>2026-05-02T08:01:28.964Z</time></trkpt><trkpt lat="44.1624431" lon="10.3892778"><ele>539.5</ele><time>2026-05-02T08:01:29.963Z</time></trkpt><trkpt lat="44.16252" lon="10.3892356"><ele>539.3333333333333</ele><time>2026-05-02T08:01:30.964Z</time></trkpt><trkpt lat="44.1625784" lon="10.3891789"><ele>539.1666666666666</ele><time>2026-05-02T08:01:31.963Z</time></trkpt><trkpt lat="44.1626436" lon="10.389044"><ele>539.0</ele><time>2026-05-02T08:01:33.964Z</time></trkpt><trkpt lat="44.1625802" lon="10.3889735"><ele>538.0</ele><time>2026-05-02T08:01:34.963Z</time></trkpt><trkpt lat="44.1624539" lon="10.388841"><ele>537.0</ele><time>2026-05-02T08:01:36.963Z</time></trkpt><trkpt lat="44.1623743" lon="10.3887621"><ele>536.0</ele><time>2026-05-02T08:01:37.964Z</time></trkpt><trkpt lat="44.1622914" lon="10.3886759"><ele>535.0</ele><time>2026-05-02T08:01:38.964Z</time></trkpt><trkpt lat="44.1622126" lon="10.3885897"><ele>535.0</ele><time>2026-05-02T08:01:39.964Z</time></trkpt><trkpt lat="44.1621314" lon="10.3885004"><ele>535.0</ele><time>2026-05-02T08:01:40.963Z</time></trkpt><trkpt lat="44.1620537" lon="10.3884108"><ele>535.0</ele><time>2026-05-02T08:01:41.963Z</time></trkpt><trkpt lat="44.1619792" lon="10.3883229"><ele>535.0</ele><time>2026-05-02T08:01:42.964Z</time></trkpt><trkpt lat="44.1619032" lon="10.3882374"><ele>535.0</ele><time>2026-05-02T08:01:43.963Z</time></trkpt><trkpt lat="44.1618265" lon="10.3881568"><ele>535.0</ele><time>2026-05-02T08:01:44.963Z</time></trkpt><trkpt lat="44.1617674" lon="10.3880843"><ele>535.0</ele><time>2026-05-02T08:01:45.964Z</time></trkpt><trkpt lat="44.161709" lon="10.3880237"><ele>535.0</ele><time>2026-05-02T08:01:46.964Z</time></trkpt><trkpt lat="44.1616165" lon="10.3879716"><ele>535.0</ele><time>2026-05-02T08:01:48.963Z</time></trkpt><trkpt lat="44.1615545" lon="10.3879321"><ele>535.0</ele><time>2026-05-02T08:01:51.964Z</time></trkpt><trkpt lat="44.1616205" lon="10.3878557"><ele>535.0</ele><time>2026-05-02T08:01:54.963Z</time></trkpt><trkpt lat="44.1616949" lon="10.3878896"><ele>535.0</ele><time>2026-05-02T08:01:55.964Z</time></trkpt><trkpt lat="44.1617739" lon="10.3879441"><ele>535.0</ele><time>2026-05-02T08:01:56.964Z</time></trkpt><trkpt lat="44.1618549" lon="10.3880285"><ele>535.0</ele><time>2026-05-02T08:01:57.964Z</time></trkpt><trkpt lat="44.1619436" lon="10.3881087"><ele>535.0</ele><time>2026-05-02T08:01:58.964Z</time></trkpt><trkpt lat="44.162041" lon="10.388175"><ele>535.0</ele><time>2026-05-02T08:01:59.963Z</time></trkpt><trkpt lat="44.1621362" lon="10.3882273"><ele>535.0</ele><time>2026-05-02T08:02:00.964Z</time></trkpt><trkpt lat="44.1622352" lon="10.3882828"><ele>535.0</ele><time>2026-05-02T08:02:01.963Z</time></trkpt><trkpt lat="44.1623288" lon="10.3883467"><ele>535.0</ele><time>2026-05-02T08:02:02.963Z</time></trkpt><trkpt lat="44.162419" lon="10.3884225"><ele>535.0</ele><time>2026-05-02T08:02:03.964Z</time></trkpt><trkpt lat="44.1625071" lon="10.3884861"><ele>535.0</ele><time>2026-05-02T08:02:04.964Z</time></trkpt><trkpt lat="44.162605" lon="10.3885102"><ele>532.2</ele><time>2026-05-02T08:02:05.963Z</time></trkpt><trkpt lat="44.1627032" lon="10.3885245"><ele>529.4</ele><time>2026-05-02T08:02:06.963Z</time></trkpt><trkpt lat="44.1627974" lon="10.3885361"><ele>526.6</ele><time>2026-05-02T08:02:07.963Z</time></trkpt><trkpt lat="44.1628876" lon="10.3885458"><ele>523.8</ele><time>2026-05-02T08:02:08.964Z</time></trkpt><trkpt lat="44.1629672" lon="10.3885621"><ele>521.0</ele><time>2026-05-02T08:02:09.964Z</time></trkpt><trkpt lat="44.1630527" lon="10.3885656"><ele>521.0</ele><time>2026-05-02T08:02:10.963Z</time></trkpt><trkpt lat="44.1631155" lon="10.3885198"><ele>521.0</ele><time>2026-05-02T08:02:11.964Z</time></trkpt><trkpt lat="44.1631817" lon="10.388458"><ele>521.0</ele><time>2026-05-02T08:02:12.964Z</time></trkpt><trkpt lat="44.1632332" lon="10.3883703"><ele>521.0</ele><time>2026-05-02T08:02:13.964Z</time></trkpt><trkpt lat="44.1632753" lon="10.3882704"><ele>521.0</ele><time>2026-05-02T08:02:14.964Z</time></trkpt><trkpt lat="44.1632988" lon="10.3881507"><ele>521.0</ele><time>2026-05-02T08:02:15.963Z</time></trkpt><trkpt lat="44.1633084" lon="10.3880134"><ele>517.8333333333333</ele><time>2026-05-02T08:02:16.964Z</time></trkpt><trkpt lat="44.1633156" lon="10.3878813"><ele>514.6666666666666</ele><time>2026-05-02T08:02:17.964Z</time></trkpt><trkpt lat="44.1633145" lon="10.3877523"><ele>511.5</ele><time>2026-05-02T08:02:18.964Z</time></trkpt><trkpt lat="44.1633165" lon="10.3876313"><ele>508.33333333333337</ele><time>2026-05-02T08:02:19.964Z</time></trkpt><trkpt lat="44.1633213" lon="10.3875199"><ele>505.1666666666667</ele><time>2026-05-02T08:02:20.964Z</time></trkpt><trkpt lat="44.1633068" lon="10.3874237"><ele>502.0</ele><time>2026-05-02T08:02:21.964Z</time></trkpt><trkpt lat="44.1632102" lon="10.3873252"><ele>502.50000000000006</ele><time>2026-05-02T08:02:23.963Z</time></trkpt><trkpt lat="44.1631463" lon="10.3873132"><ele>503.0</ele><time>2026-05-02T08:02:24.964Z</time></trkpt><trkpt lat="44.1630774" lon="10.3873042"><ele>503.5</ele><time>2026-05-02T08:02:25.964Z</time></trkpt><trkpt lat="44.1629934" lon="10.3872861"><ele>504.0</ele><time>2026-05-02T08:02:26.963Z</time></trkpt><trkpt lat="44.1629111" lon="10.3872544"><ele>504.50000000000006</ele><time>2026-05-02T08:02:27.964Z</time></trkpt><trkpt lat="44.1628405" lon="10.3872025"><ele>505.0</ele><time>2026-05-02T08:02:28.963Z</time></trkpt><trkpt lat="44.1627852" lon="10.3871167"><ele>506.1666666666667</ele><time>2026-05-02T08:02:29.964Z</time></trkpt><trkpt lat="44.1627472" lon="10.3870047"><ele>507.33333333333337</ele><time>2026-05-02T08:02:30.963Z</time></trkpt><trkpt lat="44.1627198" lon="10.386881"><ele>508.5</ele><time>2026-05-02T08:02:31.964Z</time></trkpt><trkpt lat="44.1626969" lon="10.38676"><ele>509.66666666666663</ele><time>2026-05-02T08:02:32.964Z</time></trkpt><trkpt lat="44.1626782" lon="10.3866429"><ele>510.8333333333333</ele><time>2026-05-02T08:02:33.964Z</time></trkpt><trkpt lat="44.1626765" lon="10.386545"><ele>512.0</ele><time>2026-05-02T08:02:34.964Z</time></trkpt><trkpt lat="44.1626696" lon="10.3864451"><ele>512.0</ele><time>2026-05-02T08:02:35.963Z</time></trkpt><trkpt lat="44.1627399" lon="10.3863643"><ele>512.0</ele><time>2026-05-02T08:02:36.964Z</time></trkpt><trkpt lat="44.1627998" lon="10.3862688"><ele>512.0</ele><time>2026-05-02T08:02:37.963Z</time></trkpt><trkpt lat="44.1628586" lon="10.3861756"><ele>512.0</ele><time>2026-05-02T08:02:38.964Z</time></trkpt><trkpt lat="44.1628986" lon="10.3860521"><ele>512.0</ele><time>2026-05-02T08:02:39.964Z</time></trkpt><trkpt lat="44.1629226" lon="10.3859129"><ele>513.75</ele><time>2026-05-02T08:02:40.964Z</time></trkpt><trkpt lat="44.1629433" lon="10.3857617"><ele>515.5</ele><time>2026-05-02T08:02:41.964Z</time></trkpt><trkpt lat="44.1629669" lon="10.3855946"><ele>517.25</ele><time>2026-05-02T08:02:42.964Z</time></trkpt><trkpt lat="44.1629991" lon="10.38543"><ele>519.0</ele><time>2026-05-02T08:02:43.964Z</time></trkpt><trkpt lat="44.1630356" lon="10.385278"><ele>521.4</ele><time>2026-05-02T08:02:44.963Z</time></trkpt><trkpt lat="44.163077" lon="10.3851425"><ele>523.8</ele><time>2026-05-02T08:02:45.963Z</time></trkpt><trkpt lat="44.1631193" lon="10.3850149"><ele>526.2</ele><time>2026-05-02T08:02:46.964Z</time></trkpt><trkpt lat="44.1631528" lon="10.3848839"><ele>528.6</ele><time>2026-05-02T08:02:47.964Z</time></trkpt><trkpt lat="44.1631647" lon="10.3847428"><ele>531.0</ele><time>2026-05-02T08:02:48.963Z</time></trkpt><trkpt lat="44.1631601" lon="10.3846017"><ele>532.3333333333334</ele><time>2026-05-02T08:02:49.964Z</time></trkpt><trkpt lat="44.1631363" lon="10.3844592"><ele>533.6666666666666</ele><time>2026-05-02T08:02:50.964Z</time></trkpt><trkpt lat="44.1631038" lon="10.3843414"><ele>535.0</ele><time>2026-05-02T08:02:51.963Z</time></trkpt><trkpt lat="44.1630638" lon="10.3842348"><ele>536.3333333333333</ele><time>2026-05-02T08:02:52.964Z</time></trkpt><trkpt lat="44.1630245" lon="10.3841319"><ele>537.6666666666666</ele><time>2026-05-02T08:02:53.964Z</time></trkpt><trkpt lat="44.1630079" lon="10.3840175"><ele>539.0</ele><time>2026-05-02T08:02:54.964Z</time></trkpt><trkpt lat="44.1630115" lon="10.3839032"><ele>538.8333333333333</ele><time>2026-05-02T08:02:55.963Z</time></trkpt><trkpt lat="44.163036" lon="10.3837946"><ele>538.6666666666666</ele><time>2026-05-02T08:02:56.964Z</time></trkpt><trkpt lat="44.1630773" lon="10.3837037"><ele>538.5</ele><time>2026-05-02T08:02:57.964Z</time></trkpt><trkpt lat="44.1631405" lon="10.3836298"><ele>538.3333333333334</ele><time>2026-05-02T08:02:58.964Z</time></trkpt><trkpt lat="44.1632248" lon="10.3835645"><ele>538.1666666666667</ele><time>2026-05-02T08:02:59.964Z</time></trkpt><trkpt lat="44.1633122" lon="10.383503"><ele>538.0</ele><time>2026-05-02T08:03:00.964Z</time></trkpt><trkpt lat="44.1634016" lon="10.3834456"><ele>538.0</ele><time>2026-05-02T08:03:01.964Z</time></trkpt><trkpt lat="44.1634836" lon="10.383391"><ele>538.0</ele><time>2026-05-02T08:03:02.963Z</time></trkpt><trkpt lat="44.1635547" lon="10.3833347"><ele>538.0</ele><time>2026-05-02T08:03:03.964Z</time></trkpt><trkpt lat="44.1636026" lon="10.3832599"><ele>538.0</ele><time>2026-05-02T08:03:04.963Z</time></trkpt><trkpt lat="44.1636228" lon="10.3831612"><ele>538.0</ele><time>2026-05-02T08:03:05.963Z</time></trkpt><trkpt lat="44.1636206" lon="10.3830452"><ele>538.0</ele><time>2026-05-02T08:03:06.964Z</time></trkpt><trkpt lat="44.1636031" lon="10.3829102"><ele>540.5</ele><time>2026-05-02T08:03:07.964Z</time></trkpt><trkpt lat="44.1635763" lon="10.382755"><ele>543.0</ele><time>2026-05-02T08:03:08.964Z</time></trkpt><trkpt lat="44.1635439" lon="10.3825955"><ele>545.5</ele><time>2026-05-02T08:03:09.963Z</time></trkpt><trkpt lat="44.1635001" lon="10.3824421"><ele>548.0</ele><time>2026-05-02T08:03:10.964Z</time></trkpt><trkpt lat="44.1634646" lon="10.3822873"><ele>548.0</ele><time>2026-05-02T08:03:11.963Z</time></trkpt><trkpt lat="44.1634411" lon="10.3821865"><ele>548.0</ele><time>2026-05-02T08:03:12.964Z</time></trkpt><trkpt lat="44.1634669" lon="10.3820768"><ele>548.0</ele><time>2026-05-02T08:03:13.963Z</time></trkpt><trkpt lat="44.163524" lon="10.3819976"><ele>548.0</ele><time>2026-05-02T08:03:14.964Z</time></trkpt><trkpt lat="44.1635867" lon="10.3819497"><ele>548.0</ele><time>2026-05-02T08:03:15.964Z</time></trkpt><trkpt lat="44.1636667" lon="10.381921"><ele>548.0</ele><time>2026-05-02T08:03:16.964Z</time></trkpt><trkpt lat="44.163749" lon="10.3819004"><ele>548.0</ele><time>2026-05-02T08:03:17.964Z</time></trkpt><trkpt lat="44.1638302" lon="10.3818896"><ele>548.0</ele><time>2026-05-02T08:03:18.964Z</time></trkpt><trkpt lat="44.1639051" lon="10.3819555"><ele>548.0</ele><time>2026-05-02T08:03:19.964Z</time></trkpt><trkpt lat="44.1639557" lon="10.3820453"><ele>548.0</ele><time>2026-05-02T08:03:20.964Z</time></trkpt><trkpt lat="44.163991" lon="10.3821425"><ele>548.0</ele><time>2026-05-02T08:03:21.964Z</time></trkpt><trkpt lat="44.1640261" lon="10.3822195"><ele>548.0</ele><time>2026-05-02T08:03:22.963Z</time></trkpt><trkpt lat="44.1640787" lon="10.3822694"><ele>548.1999999999999</ele><time>2026-05-02T08:03:23.964Z</time></trkpt><trkpt lat="44.1641609" lon="10.3822195"><ele>548.4</ele><time>2026-05-02T08:03:25.964Z</time></trkpt><trkpt lat="44.1641493" lon="10.3820404"><ele>548.5999999999999</ele><time>2026-05-02T08:03:27.964Z</time></trkpt><trkpt lat="44.1640984" lon="10.3819379"><ele>548.8</ele><time>2026-05-02T08:03:28.963Z</time></trkpt><trkpt lat="44.164072" lon="10.3818418"><ele>549.0</ele><time>2026-05-02T08:03:29.964Z</time></trkpt><trkpt lat="44.1640686" lon="10.3817435"><ele>551.5</ele><time>2026-05-02T08:03:30.963Z</time></trkpt><trkpt lat="44.1640639" lon="10.3816394"><ele>554.0</ele><time>2026-05-02T08:03:31.964Z</time></trkpt><trkpt lat="44.1641366" lon="10.3815498"><ele>556.5</ele><time>2026-05-02T08:03:32.964Z</time></trkpt><trkpt lat="44.1641813" lon="10.3814452"><ele>559.0</ele><time>2026-05-02T08:03:33.963Z</time></trkpt><trkpt lat="44.1642232" lon="10.3813462"><ele>561.5</ele><time>2026-05-02T08:03:34.963Z</time></trkpt><trkpt lat="44.1643094" lon="10.3812704"><ele>564.0</ele><time>2026-05-02T08:03:35.964Z</time></trkpt><trkpt lat="44.164417" lon="10.3812492"><ele>565.6666666666666</ele><time>2026-05-02T08:03:36.963Z</time></trkpt><trkpt lat="44.1645" lon="10.3812121"><ele>567.3333333333334</ele><time>2026-05-02T08:03:37.963Z</time></trkpt><trkpt lat="44.1645857" lon="10.3811974"><ele>569.0</ele><time>2026-05-02T08:03:38.963Z</time></trkpt><trkpt lat="44.1646546" lon="10.3811651"><ele>570.6666666666667</ele><time>2026-05-02T08:03:39.964Z</time></trkpt><trkpt lat="44.1647187" lon="10.381109"><ele>572.3333333333334</ele><time>2026-05-02T08:03:40.963Z</time></trkpt><trkpt lat="44.1647483" lon="10.3810089"><ele>574.0</ele><time>2026-05-02T08:03:41.964Z</time></trkpt><trkpt lat="44.16476" lon="10.3808972"><ele>574.0</ele><time>2026-05-02T08:03:42.964Z</time></trkpt><trkpt lat="44.16476" lon="10.3807695"><ele>574.0</ele><time>2026-05-02T08:03:43.963Z</time></trkpt><trkpt lat="44.1647646" lon="10.3806327"><ele>574.0</ele><time>2026-05-02T08:03:44.964Z</time></trkpt><trkpt lat="44.1647528" lon="10.3804987"><ele>574.0</ele><time>2026-05-02T08:03:45.964Z</time></trkpt><trkpt lat="44.1647101" lon="10.3803708"><ele>574.0</ele><time>2026-05-02T08:03:46.964Z</time></trkpt><trkpt lat="44.1646582" lon="10.3802561"><ele>575.6</ele><time>2026-05-02T08:03:47.963Z</time></trkpt><trkpt lat="44.1646081" lon="10.3801425"><ele>577.2</ele><time>2026-05-02T08:03:48.964Z</time></trkpt><trkpt lat="44.1645524" lon="10.3800246"><ele>578.8000000000001</ele><time>2026-05-02T08:03:49.963Z</time></trkpt><trkpt lat="44.1644933" lon="10.3799064"><ele>580.4</ele><time>2026-05-02T08:03:50.963Z</time></trkpt><trkpt lat="44.1644413" lon="10.3797905"><ele>582.0</ele><time>2026-05-02T08:03:51.963Z</time></trkpt><trkpt lat="44.1643958" lon="10.379676"><ele>582.8333333333334</ele><time>2026-05-02T08:03:52.964Z</time></trkpt><trkpt lat="44.164353" lon="10.3795649"><ele>583.6666666666666</ele><time>2026-05-02T08:03:53.964Z</time></trkpt><trkpt lat="44.1643186" lon="10.3794529"><ele>584.5</ele><time>2026-05-02T08:03:54.964Z</time></trkpt><trkpt lat="44.1642904" lon="10.379343"><ele>585.3333333333333</ele><time>2026-05-02T08:03:55.964Z</time></trkpt><trkpt lat="44.1642724" lon="10.3792186"><ele>586.1666666666666</ele><time>2026-05-02T08:03:56.964Z</time></trkpt><trkpt lat="44.1642588" lon="10.3790872"><ele>587.0</ele><time>2026-05-02T08:03:57.964Z</time></trkpt><trkpt lat="44.1642546" lon="10.3789546"><ele>587.6</ele><time>2026-05-02T08:03:58.964Z</time></trkpt><trkpt lat="44.16425" lon="10.3788112"><ele>588.2</ele><time>2026-05-02T08:03:59.964Z</time></trkpt><trkpt lat="44.1642583" lon="10.3786626"><ele>588.8</ele><time>2026-05-02T08:04:00.964Z</time></trkpt><trkpt lat="44.1642767" lon="10.3785246"><ele>589.4</ele><time>2026-05-02T08:04:01.963Z</time></trkpt><trkpt lat="44.1643087" lon="10.3784008"><ele>590.0</ele><time>2026-05-02T08:04:02.963Z</time></trkpt><trkpt lat="44.1643441" lon="10.3782964"><ele>590.0</ele><time>2026-05-02T08:04:03.963Z</time></trkpt><trkpt lat="44.1643864" lon="10.3781905"><ele>590.0</ele><time>2026-05-02T08:04:04.963Z</time></trkpt><trkpt lat="44.1644399" lon="10.3780975"><ele>590.0</ele><time>2026-05-02T08:04:05.964Z</time></trkpt><trkpt lat="44.1644968" lon="10.3780085"><ele>590.0</ele><time>2026-05-02T08:04:06.964Z</time></trkpt><trkpt lat="44.1645521" lon="10.3779383"><ele>590.0</ele><time>2026-05-02T08:04:07.964Z</time></trkpt><trkpt lat="44.1646099" lon="10.3778833"><ele>590.0</ele><time>2026-05-02T08:04:08.964Z</time></trkpt><trkpt lat="44.1646939" lon="10.3777925"><ele>591.5</ele><time>2026-05-02T08:04:10.964Z</time></trkpt><trkpt lat="44.1647461" lon="10.3777334"><ele>593.0</ele><time>2026-05-02T08:04:13.963Z</time></trkpt><trkpt lat="44.1648073" lon="10.3776574"><ele>594.5</ele><time>2026-05-02T08:04:15.963Z</time></trkpt><trkpt lat="44.164902" lon="10.3775414"><ele>596.0</ele><time>2026-05-02T08:04:17.963Z</time></trkpt><trkpt lat="44.1649593" lon="10.3774673"><ele>597.5</ele><time>2026-05-02T08:04:18.963Z</time></trkpt><trkpt lat="44.1650257" lon="10.3773917"><ele>599.0</ele><time>2026-05-02T08:04:19.963Z</time></trkpt><trkpt lat="44.1650865" lon="10.3773143"><ele>599.0</ele><time>2026-05-02T08:04:20.964Z</time></trkpt><trkpt lat="44.1651693" lon="10.3772407"><ele>599.0</ele><time>2026-05-02T08:04:21.964Z</time></trkpt><trkpt lat="44.1652512" lon="10.3771619"><ele>599.0</ele><time>2026-05-02T08:04:22.963Z</time></trkpt><trkpt lat="44.1653237" lon="10.3770986"><ele>599.0</ele><time>2026-05-02T08:04:23.964Z</time></trkpt><trkpt lat="44.165403" lon="10.3770241"><ele>599.0</ele><time>2026-05-02T08:04:24.964Z</time></trkpt><trkpt lat="44.1654801" lon="10.3769341"><ele>601.0</ele><time>2026-05-02T08:04:25.963Z</time></trkpt><trkpt lat="44.1655486" lon="10.3768326"><ele>603.0</ele><time>2026-05-02T08:04:26.963Z</time></trkpt><trkpt lat="44.16561" lon="10.3767214"><ele>605.0</ele><time>2026-05-02T08:04:27.964Z</time></trkpt><trkpt lat="44.165682" lon="10.3766068"><ele>607.0</ele><time>2026-05-02T08:04:28.964Z</time></trkpt><trkpt lat="44.1657668" lon="10.3765043"><ele>609.0</ele><time>2026-05-02T08:04:29.964Z</time></trkpt><trkpt lat="44.1658505" lon="10.3764225"><ele>609.0</ele><time>2026-05-02T08:04:30.964Z</time></trkpt><trkpt lat="44.1659234" lon="10.3763604"><ele>609.0</ele><time>2026-05-02T08:04:31.963Z</time></trkpt><trkpt lat="44.1659783" lon="10.3762878"><ele>609.0</ele><time>2026-05-02T08:04:32.963Z</time></trkpt><trkpt lat="44.1659925" lon="10.3761976"><ele>609.0</ele><time>2026-05-02T08:04:33.963Z</time></trkpt><trkpt lat="44.1659743" lon="10.3761105"><ele>609.0</ele><time>2026-05-02T08:04:34.964Z</time></trkpt><trkpt lat="44.1659308" lon="10.3760264"><ele>609.0</ele><time>2026-05-02T08:04:35.964Z</time></trkpt><trkpt lat="44.1658738" lon="10.375939"><ele>611.2</ele><time>2026-05-02T08:04:36.964Z</time></trkpt><trkpt lat="44.1658112" lon="10.3758412"><ele>613.4</ele><time>2026-05-02T08:04:37.963Z</time></trkpt><trkpt lat="44.1657532" lon="10.3757322"><ele>615.6</ele><time>2026-05-02T08:04:38.964Z</time></trkpt><trkpt lat="44.1656969" lon="10.3756155"><ele>617.8</ele><time>2026-05-02T08:04:39.963Z</time></trkpt><trkpt lat="44.1656578" lon="10.3754857"><ele>620.0</ele><time>2026-05-02T08:04:40.964Z</time></trkpt><trkpt lat="44.1656231" lon="10.3753513"><ele>621.8</ele><time>2026-05-02T08:04:41.963Z</time></trkpt><trkpt lat="44.1655955" lon="10.3752124"><ele>623.6</ele><time>2026-05-02T08:04:42.963Z</time></trkpt><trkpt lat="44.1655716" lon="10.3750812"><ele>625.4</ele><time>2026-05-02T08:04:43.963Z</time></trkpt><trkpt lat="44.1655568" lon="10.374944"><ele>627.2</ele><time>2026-05-02T08:04:44.964Z</time></trkpt><trkpt lat="44.1655553" lon="10.3747832"><ele>629.0</ele><time>2026-05-02T08:04:45.964Z</time></trkpt><trkpt lat="44.1655543" lon="10.3746288"><ele>629.25</ele><time>2026-05-02T08:04:46.963Z</time></trkpt><trkpt lat="44.1655542" lon="10.3744714"><ele>629.5</ele><time>2026-05-02T08:04:47.964Z</time></trkpt><trkpt lat="44.1655542" lon="10.3743076"><ele>629.75</ele><time>2026-05-02T08:04:48.964Z</time></trkpt><trkpt lat="44.1655669" lon="10.374151"><ele>630.0</ele><time>2026-05-02T08:04:49.964Z</time></trkpt><trkpt lat="44.1655893" lon="10.3739877"><ele>631.6</ele><time>2026-05-02T08:04:50.963Z</time></trkpt><trkpt lat="44.1656115" lon="10.3738335"><ele>633.2</ele><time>2026-05-02T08:04:51.964Z</time></trkpt><trkpt lat="44.1656405" lon="10.3736929"><ele>634.8</ele><time>2026-05-02T08:04:52.963Z</time></trkpt><trkpt lat="44.1656475" lon="10.3735533"><ele>636.4</ele><time>2026-05-02T08:04:53.963Z</time></trkpt><trkpt lat="44.1656375" lon="10.3734159"><ele>638.0</ele><time>2026-05-02T08:04:54.964Z</time></trkpt><trkpt lat="44.165601" lon="10.373284"><ele>638.0</ele><time>2026-05-02T08:04:55.963Z</time></trkpt><trkpt lat="44.1655617" lon="10.373146"><ele>638.0</ele><time>2026-05-02T08:04:56.964Z</time></trkpt><trkpt lat="44.165517" lon="10.3730228"><ele>638.0</ele><time>2026-05-02T08:04:57.963Z</time></trkpt><trkpt lat="44.1654585" lon="10.3729147"><ele>638.0</ele><time>2026-05-02T08:04:58.964Z</time></trkpt><trkpt lat="44.1653786" lon="10.3728254"><ele>638.0</ele><time>2026-05-02T08:04:59.964Z</time></trkpt><trkpt lat="44.165295" lon="10.3727717"><ele>641.0</ele><time>2026-05-02T08:05:00.963Z</time></trkpt><trkpt lat="44.1652071" lon="10.372753"><ele>644.0</ele><time>2026-05-02T08:05:01.963Z</time></trkpt><trkpt lat="44.1651113" lon="10.3727634"><ele>647.0</ele><time>2026-05-02T08:05:02.964Z</time></trkpt><trkpt lat="44.1650141" lon="10.372784"><ele>650.0</ele><time>2026-05-02T08:05:03.964Z</time></trkpt><trkpt lat="44.1649173" lon="10.3728028"><ele>653.0</ele><time>2026-05-02T08:05:04.964Z</time></trkpt><trkpt lat="44.1648241" lon="10.3728505"><ele>653.8</ele><time>2026-05-02T08:05:05.964Z</time></trkpt><trkpt lat="44.1646964" lon="10.3728365"><ele>654.5999999999999</ele><time>2026-05-02T08:05:06.963Z</time></trkpt><trkpt lat="44.1645825" lon="10.3728531"><ele>655.4000000000001</ele><time>2026-05-02T08:05:07.963Z</time></trkpt><trkpt lat="44.1644757" lon="10.3728618"><ele>656.2</ele><time>2026-05-02T08:05:08.963Z</time></trkpt><trkpt lat="44.1643981" lon="10.3728758"><ele>657.0</ele><time>2026-05-02T08:05:09.964Z</time></trkpt><trkpt lat="44.1642959" lon="10.3728818"><ele>657.0</ele><time>2026-05-02T08:05:10.964Z</time></trkpt><trkpt lat="44.1642056" lon="10.3728644"><ele>657.0</ele><time>2026-05-02T08:05:11.964Z</time></trkpt><trkpt lat="44.1641213" lon="10.3728297"><ele>657.0</ele><time>2026-05-02T08:05:12.964Z</time></trkpt><trkpt lat="44.1640298" lon="10.3727809"><ele>657.0</ele><time>2026-05-02T08:05:13.963Z</time></trkpt><trkpt lat="44.163932" lon="10.3727357"><ele>657.0</ele><time>2026-05-02T08:05:14.964Z</time></trkpt><trkpt lat="44.1638295" lon="10.3726916"><ele>655.2</ele><time>2026-05-02T08:05:15.964Z</time></trkpt><trkpt lat="44.1637348" lon="10.3726458"><ele>653.4000000000001</ele><time>2026-05-02T08:05:16.964Z</time></trkpt><trkpt lat="44.1636419" lon="10.3726011"><ele>651.5999999999999</ele><time>2026-05-02T08:05:17.964Z</time></trkpt><trkpt lat="44.1635501" lon="10.3725505"><ele>649.8</ele><time>2026-05-02T08:05:18.963Z</time></trkpt><trkpt lat="44.1634673" lon="10.3724937"><ele>648.0</ele><time>2026-05-02T08:05:19.964Z</time></trkpt><trkpt lat="44.163392" lon="10.3724308"><ele>648.0</ele><time>2026-05-02T08:05:20.963Z</time></trkpt><trkpt lat="44.1633186" lon="10.3723669"><ele>648.0</ele><time>2026-05-02T08:05:21.964Z</time></trkpt><trkpt lat="44.1632526" lon="10.3723033"><ele>648.0</ele><time>2026-05-02T08:05:22.964Z</time></trkpt><trkpt lat="44.1631885" lon="10.3722337"><ele>648.0</ele><time>2026-05-02T08:05:23.963Z</time></trkpt><trkpt lat="44.1631344" lon="10.3721634"><ele>648.0</ele><time>2026-05-02T08:05:24.963Z</time></trkpt><trkpt lat="44.1630793" lon="10.3721062"><ele>648.0</ele><time>2026-05-02T08:05:25.964Z</time></trkpt><trkpt lat="44.162968" lon="10.3720599"><ele>647.0</ele><time>2026-05-02T08:05:27.963Z</time></trkpt><trkpt lat="44.1629035" lon="10.372071"><ele>646.0</ele><time>2026-05-02T08:05:28.963Z</time></trkpt><trkpt lat="44.1628386" lon="10.3720922"><ele>645.0</ele><time>2026-05-02T08:05:29.964Z</time></trkpt><trkpt lat="44.1627767" lon="10.3721119"><ele>644.0</ele><time>2026-05-02T08:05:30.964Z</time></trkpt><trkpt lat="44.162649" lon="10.3721026"><ele>643.0</ele><time>2026-05-02T08:05:32.964Z</time></trkpt><trkpt lat="44.1625741" lon="10.3720907"><ele>642.0</ele><time>2026-05-02T08:05:33.964Z</time></trkpt><trkpt lat="44.1625025" lon="10.372084"><ele>642.0</ele><time>2026-05-02T08:05:34.963Z</time></trkpt><trkpt lat="44.1623973" lon="10.3720684"><ele>642.0</ele><time>2026-05-02T08:05:36.964Z</time></trkpt><trkpt lat="44.1622811" lon="10.3720556"><ele>642.0</ele><time>2026-05-02T08:05:38.964Z</time></trkpt><trkpt lat="44.1622108" lon="10.3720583"><ele>642.0</ele><time>2026-05-02T08:05:39.964Z</time></trkpt><trkpt lat="44.1621304" lon="10.3720594"><ele>642.0</ele><time>2026-05-02T08:05:40.963Z</time></trkpt><trkpt lat="44.1620543" lon="10.3720637"><ele>642.0</ele><time>2026-05-02T08:05:41.963Z</time></trkpt><trkpt lat="44.1619755" lon="10.3720634"><ele>641.5714285714286</ele><time>2026-05-02T08:05:42.964Z</time></trkpt><trkpt lat="44.1618995" lon="10.372067"><ele>641.1428571428571</ele><time>2026-05-02T08:05:43.964Z</time></trkpt><trkpt lat="44.1618317" lon="10.3720765"><ele>640.7142857142858</ele><time>2026-05-02T08:05:44.964Z</time></trkpt><trkpt lat="44.1617636" lon="10.3721073"><ele>640.2857142857142</ele><time>2026-05-02T08:05:45.963Z</time></trkpt><trkpt lat="44.161697" lon="10.3721546"><ele>639.8571428571429</ele><time>2026-05-02T08:05:46.964Z</time></trkpt><trkpt lat="44.1616406" lon="10.3722132"><ele>639.4285714285714</ele><time>2026-05-02T08:05:47.963Z</time></trkpt><trkpt lat="44.1615914" lon="10.3722904"><ele>639.0</ele><time>2026-05-02T08:05:48.963Z</time></trkpt><trkpt lat="44.1615467" lon="10.372378"><ele>639.3333333333334</ele><time>2026-05-02T08:05:49.964Z</time></trkpt><trkpt lat="44.161502" lon="10.3724599"><ele>639.6666666666666</ele><time>2026-05-02T08:05:50.963Z</time></trkpt><trkpt lat="44.1614606" lon="10.3725464"><ele>640.0</ele><time>2026-05-02T08:05:51.964Z</time></trkpt><trkpt lat="44.1614051" lon="10.3726231"><ele>640.3333333333333</ele><time>2026-05-02T08:05:52.964Z</time></trkpt><trkpt lat="44.1613441" lon="10.3726885"><ele>640.6666666666666</ele><time>2026-05-02T08:05:53.964Z</time></trkpt><trkpt lat="44.1612931" lon="10.3727595"><ele>641.0</ele><time>2026-05-02T08:05:54.963Z</time></trkpt><trkpt lat="44.1612391" lon="10.3728599"><ele>641.0</ele><time>2026-05-02T08:05:56.964Z</time></trkpt><trkpt lat="44.1611376" lon="10.3729617"><ele>641.0</ele><time>2026-05-02T08:06:12.964Z</time></trkpt><trkpt lat="44.1610492" lon="10.3730843"><ele>641.0</ele><time>2026-05-02T08:06:14.964Z</time></trkpt><trkpt lat="44.1609968" lon="10.3731519"><ele>641.0</ele><time>2026-05-02T08:06:15.964Z</time></trkpt><trkpt lat="44.160936" lon="10.3732284"><ele>641.0</ele><time>2026-05-02T08:06:16.964Z</time></trkpt><trkpt lat="44.1608743" lon="10.3733116"><ele>641.4</ele><time>2026-05-02T08:06:17.963Z</time></trkpt><trkpt lat="44.1608065" lon="10.3733923"><ele>641.8</ele><time>2026-05-02T08:06:18.963Z</time></trkpt><trkpt lat="44.1607496" lon="10.3734699"><ele>642.1999999999999</ele><time>2026-05-02T08:06:19.964Z</time></trkpt><trkpt lat="44.1606547" lon="10.3735973"><ele>642.5999999999999</ele><time>2026-05-02T08:06:21.964Z</time></trkpt><trkpt lat="44.1606074" lon="10.3736614"><ele>643.0</ele><time>2026-05-02T08:06:22.964Z</time></trkpt><trkpt lat="44.1604967" lon="10.3737565"><ele>643.0</ele><time>2026-05-02T08:06:24.964Z</time></trkpt><trkpt lat="44.1603787" lon="10.3738215"><ele>643.0</ele><time>2026-05-02T08:06:26.964Z</time></trkpt><trkpt lat="44.1602635" lon="10.3738065"><ele>643.0</ele><time>2026-05-02T08:06:28.964Z</time></trkpt><trkpt lat="44.1601923" lon="10.3738055"><ele>643.0</ele><time>2026-05-02T08:06:29.964Z</time></trkpt><trkpt lat="44.1600602" lon="10.3737989"><ele>643.0</ele><time>2026-05-02T08:06:31.964Z</time></trkpt><trkpt lat="44.1599897" lon="10.3738027"><ele>643.0</ele><time>2026-05-02T08:06:32.963Z</time></trkpt><trkpt lat="44.1599281" lon="10.3737846"><ele>643.0</ele><time>2026-05-02T08:06:33.964Z</time></trkpt><trkpt lat="44.1597891" lon="10.3737931"><ele>643.0</ele><time>2026-05-02T08:06:35.964Z</time></trkpt><trkpt lat="44.1597037" lon="10.3738038"><ele>643.0</ele><time>2026-05-02T08:06:36.964Z</time></trkpt><trkpt lat="44.1596133" lon="10.3738391"><ele>643.0</ele><time>2026-05-02T08:06:37.964Z</time></trkpt><trkpt lat="44.1595375" lon="10.3738362"><ele>644.1666666666667</ele><time>2026-05-02T08:06:38.963Z</time></trkpt><trkpt lat="44.1594291" lon="10.3738499"><ele>645.3333333333334</ele><time>2026-05-02T08:06:40.964Z</time></trkpt><trkpt lat="44.159339" lon="10.3738762"><ele>646.5</ele><time>2026-05-02T08:06:42.963Z</time></trkpt><trkpt lat="44.1592612" lon="10.3739395"><ele>647.6666666666666</ele><time>2026-05-02T08:06:43.963Z</time></trkpt><trkpt lat="44.159195" lon="10.3739837"><ele>648.8333333333333</ele><time>2026-05-02T08:06:44.964Z</time></trkpt><trkpt lat="44.1591254" lon="10.3740261"><ele>650.0</ele><time>2026-05-02T08:06:45.963Z</time></trkpt><trkpt lat="44.1590499" lon="10.374059"><ele>649.6</ele><time>2026-05-02T08:06:46.963Z</time></trkpt><trkpt lat="44.1589312" lon="10.374063"><ele>649.2</ele><time>2026-05-02T08:06:48.963Z</time></trkpt><trkpt lat="44.1588463" lon="10.374079"><ele>648.8</ele><time>2026-05-02T08:06:49.964Z</time></trkpt><trkpt lat="44.1587737" lon="10.3740631"><ele>648.4</ele><time>2026-05-02T08:06:50.964Z</time></trkpt><trkpt lat="44.1586726" lon="10.3740562"><ele>648.0</ele><time>2026-05-02T08:06:51.964Z</time></trkpt><trkpt lat="44.1585952" lon="10.3740124"><ele>648.0</ele><time>2026-05-02T08:06:52.963Z</time></trkpt><trkpt lat="44.158537" lon="10.3739406"><ele>648.0</ele><time>2026-05-02T08:06:53.964Z</time></trkpt><trkpt lat="44.1584719" lon="10.3738693"><ele>648.0</ele><time>2026-05-02T08:06:54.964Z</time></trkpt><trkpt lat="44.15842" lon="10.3737618"><ele>648.0</ele><time>2026-05-02T08:06:55.963Z</time></trkpt><trkpt lat="44.1583892" lon="10.3736438"><ele>648.0</ele><time>2026-05-02T08:06:56.964Z</time></trkpt><trkpt lat="44.1583384" lon="10.3735566"><ele>648.0</ele><time>2026-05-02T08:06:57.963Z</time></trkpt><trkpt lat="44.1582827" lon="10.3734714"><ele>646.1999999999999</ele><time>2026-05-02T08:06:58.964Z</time></trkpt><trkpt lat="44.1582316" lon="10.3733058"><ele>644.4</ele><time>2026-05-02T08:07:00.964Z</time></trkpt><trkpt lat="44.15818" lon="10.373221"><ele>642.5999999999999</ele><time>2026-05-02T08:07:01.964Z</time></trkpt><trkpt lat="44.1581131" lon="10.3731553"><ele>640.8</ele><time>2026-05-02T08:07:02.964Z</time></trkpt><trkpt lat="44.158017" lon="10.3730304"><ele>639.0</ele><time>2026-05-02T08:07:04.964Z</time></trkpt><trkpt lat="44.1579598" lon="10.3729856"><ele>637.6666666666666</ele><time>2026-05-02T08:07:05.963Z</time></trkpt><trkpt lat="44.1578509" lon="10.3729753"><ele>636.3333333333334</ele><time>2026-05-02T08:07:06.963Z</time></trkpt><trkpt lat="44.1577817" lon="10.3729537"><ele>635.0</ele><time>2026-05-02T08:07:07.964Z</time></trkpt><trkpt lat="44.157698" lon="10.3729288"><ele>633.6666666666667</ele><time>2026-05-02T08:07:08.964Z</time></trkpt><trkpt lat="44.1576115" lon="10.3728853"><ele>632.3333333333334</ele><time>2026-05-02T08:07:09.964Z</time></trkpt><trkpt lat="44.1575282" lon="10.3728426"><ele>631.0</ele><time>2026-05-02T08:07:10.964Z</time></trkpt><trkpt lat="44.1573934" lon="10.3727704"><ele>630.5</ele><time>2026-05-02T08:07:12.963Z</time></trkpt><trkpt lat="44.1573084" lon="10.3727624"><ele>630.0</ele><time>2026-05-02T08:07:13.963Z</time></trkpt><trkpt lat="44.1572298" lon="10.3727529"><ele>629.5</ele><time>2026-05-02T08:07:14.963Z</time></trkpt><trkpt lat="44.15713" lon="10.3727546"><ele>629.0</ele><time>2026-05-02T08:07:15.964Z</time></trkpt><trkpt lat="44.1570584" lon="10.3727553"><ele>628.5</ele><time>2026-05-02T08:07:16.964Z</time></trkpt><trkpt lat="44.1569726" lon="10.372739"><ele>628.0</ele><time>2026-05-02T08:07:17.964Z</time></trkpt><trkpt lat="44.1568892" lon="10.3727369"><ele>628.0</ele><time>2026-05-02T08:07:18.964Z</time></trkpt><trkpt lat="44.1568133" lon="10.3727156"><ele>628.0</ele><time>2026-05-02T08:07:19.964Z</time></trkpt><trkpt lat="44.1567241" lon="10.3727052"><ele>628.0</ele><time>2026-05-02T08:07:20.964Z</time></trkpt><trkpt lat="44.1566462" lon="10.3727411"><ele>628.0</ele><time>2026-05-02T08:07:21.963Z</time></trkpt><trkpt lat="44.1565594" lon="10.3727917"><ele>628.0</ele><time>2026-05-02T08:07:22.963Z</time></trkpt><trkpt lat="44.1564929" lon="10.3728237"><ele>628.0</ele><time>2026-05-02T08:07:23.964Z</time></trkpt><trkpt lat="44.1564344" lon="10.3729212"><ele>626.6666666666667</ele><time>2026-05-02T08:07:24.964Z</time></trkpt><trkpt lat="44.1563761" lon="10.3730152"><ele>625.3333333333334</ele><time>2026-05-02T08:07:25.964Z</time></trkpt><trkpt lat="44.1563196" lon="10.3731087"><ele>624.0</ele><time>2026-05-02T08:07:26.964Z</time></trkpt><trkpt lat="44.1562676" lon="10.3732005"><ele>622.6666666666666</ele><time>2026-05-02T08:07:27.963Z</time></trkpt><trkpt lat="44.156204" lon="10.3733018"><ele>621.3333333333333</ele><time>2026-05-02T08:07:28.964Z</time></trkpt><trkpt lat="44.1561567" lon="10.3733848"><ele>620.0</ele><time>2026-05-02T08:07:29.964Z</time></trkpt><trkpt lat="44.156128" lon="10.3734705"><ele>619.5</ele><time>2026-05-02T08:07:30.964Z</time></trkpt><trkpt lat="44.1560744" lon="10.3735456"><ele>619.0</ele><time>2026-05-02T08:07:31.964Z</time></trkpt><trkpt lat="44.1560046" lon="10.3735699"><ele>618.5</ele><time>2026-05-02T08:07:32.964Z</time></trkpt><trkpt lat="44.1559415" lon="10.373531"><ele>618.0</ele><time>2026-05-02T08:07:33.964Z</time></trkpt><trkpt lat="44.1558305" lon="10.3735052"><ele>617.5</ele><time>2026-05-02T08:07:35.964Z</time></trkpt><trkpt lat="44.155733" lon="10.3734293"><ele>617.0</ele><time>2026-05-02T08:07:37.964Z</time></trkpt><trkpt lat="44.1556959" lon="10.3733389"><ele>616.6666666666666</ele><time>2026-05-02T08:07:38.964Z</time></trkpt><trkpt lat="44.1556455" lon="10.3732771"><ele>616.3333333333333</ele><time>2026-05-02T08:07:39.963Z</time></trkpt><trkpt lat="44.1556275" lon="10.3731844"><ele>616.0</ele><time>2026-05-02T08:07:41.964Z</time></trkpt><trkpt lat="44.1555965" lon="10.373058"><ele>615.6666666666666</ele><time>2026-05-02T08:07:43.964Z</time></trkpt><trkpt lat="44.1555881" lon="10.3729062"><ele>615.3333333333334</ele><time>2026-05-02T08:07:45.964Z</time></trkpt><trkpt lat="44.1555669" lon="10.3728055"><ele>615.0</ele><time>2026-05-02T08:07:46.963Z</time></trkpt><trkpt lat="44.1555088" lon="10.3727135"><ele>614.8</ele><time>2026-05-02T08:07:47.964Z</time></trkpt><trkpt lat="44.1554646" lon="10.3726311"><ele>614.6</ele><time>2026-05-02T08:07:48.963Z</time></trkpt><trkpt lat="44.1553518" lon="10.3725491"><ele>614.4</ele><time>2026-05-02T08:07:50.964Z</time></trkpt><trkpt lat="44.1552861" lon="10.3724859"><ele>614.2</ele><time>2026-05-02T08:07:51.964Z</time></trkpt><trkpt lat="44.1551732" lon="10.3724183"><ele>614.0</ele><time>2026-05-02T08:07:53.964Z</time></trkpt><trkpt lat="44.1550646" lon="10.3723416"><ele>613.9999999999999</ele><time>2026-05-02T08:07:55.964Z</time></trkpt><trkpt lat="44.1549871" lon="10.3723165"><ele>614.0</ele><time>2026-05-02T08:07:56.964Z</time></trkpt><trkpt lat="44.1549213" lon="10.3722809"><ele>614.0</ele><time>2026-05-02T08:07:57.964Z</time></trkpt><trkpt lat="44.1548639" lon="10.3722333"><ele>614.0</ele><time>2026-05-02T08:07:58.964Z</time></trkpt><trkpt lat="44.1548052" lon="10.3721834"><ele>614.0</ele><time>2026-05-02T08:07:59.963Z</time></trkpt><trkpt lat="44.1547606" lon="10.3721199"><ele>613.9999999999999</ele><time>2026-05-02T08:08:00.964Z</time></trkpt><trkpt lat="44.1547079" lon="10.3720513"><ele>614.0</ele><time>2026-05-02T08:08:01.963Z</time></trkpt><trkpt lat="44.1546344" lon="10.3719269"><ele>611.4</ele><time>2026-05-02T08:08:03.963Z</time></trkpt><trkpt lat="44.1545464" lon="10.3718791"><ele>608.8</ele><time>2026-05-02T08:08:05.963Z</time></trkpt><trkpt lat="44.1544574" lon="10.3719396"><ele>606.2</ele><time>2026-05-02T08:08:07.964Z</time></trkpt><trkpt lat="44.1543867" lon="10.3720806"><ele>603.6</ele><time>2026-05-02T08:08:09.963Z</time></trkpt><trkpt lat="44.1543335" lon="10.3722464"><ele>601.0</ele><time>2026-05-02T08:08:11.964Z</time></trkpt><trkpt lat="44.1543034" lon="10.3723501"><ele>601.0</ele><time>2026-05-02T08:08:12.964Z</time></trkpt><trkpt lat="44.1542663" lon="10.3724321"><ele>601.0</ele><time>2026-05-02T08:08:13.964Z</time></trkpt><trkpt lat="44.1542334" lon="10.3725184"><ele>601.0</ele><time>2026-05-02T08:08:14.963Z</time></trkpt><trkpt lat="44.1541927" lon="10.3726023"><ele>601.0</ele><time>2026-05-02T08:08:15.963Z</time></trkpt><trkpt lat="44.1541336" lon="10.3726587"><ele>601.0</ele><time>2026-05-02T08:08:16.964Z</time></trkpt><trkpt lat="44.1540688" lon="10.3727241"><ele>601.0</ele><time>2026-05-02T08:08:17.964Z</time></trkpt><trkpt lat="44.1539961" lon="10.3727873"><ele>599.2</ele><time>2026-05-02T08:08:18.963Z</time></trkpt><trkpt lat="44.1539241" lon="10.372844"><ele>597.4000000000001</ele><time>2026-05-02T08:08:19.964Z</time></trkpt><trkpt lat="44.1538545" lon="10.3728989"><ele>595.6</ele><time>2026-05-02T08:08:20.964Z</time></trkpt><trkpt lat="44.153772" lon="10.3729775"><ele>593.8000000000001</ele><time>2026-05-02T08:08:22.964Z</time></trkpt><trkpt lat="44.1536991" lon="10.3730827"><ele>592.0</ele><time>2026-05-02T08:08:24.964Z</time></trkpt><trkpt lat="44.1536257" lon="10.3731857"><ele>592.0</ele><time>2026-05-02T08:08:26.964Z</time></trkpt><trkpt lat="44.1535405" lon="10.373285"><ele>592.0</ele><time>2026-05-02T08:08:28.963Z</time></trkpt><trkpt lat="44.1534641" lon="10.3733467"><ele>592.0</ele><time>2026-05-02T08:08:30.964Z</time></trkpt><trkpt lat="44.1534024" lon="10.3733795"><ele>592.0</ele><time>2026-05-02T08:08:31.963Z</time></trkpt><trkpt lat="44.1532838" lon="10.3734301"><ele>592.0</ele><time>2026-05-02T08:08:33.964Z</time></trkpt><trkpt lat="44.153213" lon="10.3734529"><ele>590.6666666666667</ele><time>2026-05-02T08:08:34.964Z</time></trkpt><trkpt lat="44.1531487" lon="10.3734744"><ele>589.3333333333334</ele><time>2026-05-02T08:08:35.964Z</time></trkpt><trkpt lat="44.1530785" lon="10.3734955"><ele>588.0</ele><time>2026-05-02T08:08:36.964Z</time></trkpt><trkpt lat="44.1530145" lon="10.373528"><ele>586.6666666666666</ele><time>2026-05-02T08:08:37.963Z</time></trkpt><trkpt lat="44.152894" lon="10.3735903"><ele>585.3333333333333</ele><time>2026-05-02T08:08:39.964Z</time></trkpt><trkpt lat="44.1528236" lon="10.3736165"><ele>584.0</ele><time>2026-05-02T08:08:40.963Z</time></trkpt><trkpt lat="44.1527193" lon="10.3736143"><ele>584.0</ele><time>2026-05-02T08:08:42.963Z</time></trkpt><trkpt lat="44.1526087" lon="10.373594"><ele>584.0</ele><time>2026-05-02T08:08:44.964Z</time></trkpt><trkpt lat="44.1525412" lon="10.3735747"><ele>584.0</ele><time>2026-05-02T08:08:45.964Z</time></trkpt><trkpt lat="44.1524492" lon="10.3734509"><ele>584.0</ele><time>2026-05-02T08:08:47.963Z</time></trkpt><trkpt lat="44.1523799" lon="10.3733141"><ele>584.0</ele><time>2026-05-02T08:08:49.963Z</time></trkpt><trkpt lat="44.1522865" lon="10.3732632"><ele>581.0</ele><time>2026-05-02T08:08:51.964Z</time></trkpt><trkpt lat="44.1521873" lon="10.3733188"><ele>578.0</ele><time>2026-05-02T08:08:53.963Z</time></trkpt><trkpt lat="44.1520778" lon="10.3733728"><ele>575.0</ele><time>2026-05-02T08:08:55.963Z</time></trkpt><trkpt lat="44.1520159" lon="10.3733927"><ele>572.0</ele><time>2026-05-02T08:08:56.964Z</time></trkpt><trkpt lat="44.1518957" lon="10.3733703"><ele>569.0</ele><time>2026-05-02T08:08:58.964Z</time></trkpt><trkpt lat="44.1518634" lon="10.3732712"><ele>569.0</ele><time>2026-05-02T08:08:59.964Z</time></trkpt><trkpt lat="44.1517694" lon="10.3732159"><ele>569.0</ele><time>2026-05-02T08:09:01.963Z</time></trkpt><trkpt lat="44.1517003" lon="10.3732568"><ele>569.0</ele><time>2026-05-02T08:09:03.964Z</time></trkpt><trkpt lat="44.1517182" lon="10.3733516"><ele>569.0</ele><time>2026-05-02T08:09:05.964Z</time></trkpt><trkpt lat="44.1517475" lon="10.3735153"><ele>569.0</ele><time>2026-05-02T08:09:07.963Z</time></trkpt><trkpt lat="44.1517819" lon="10.3736161"><ele>569.0</ele><time>2026-05-02T08:09:08.963Z</time></trkpt><trkpt lat="44.1518195" lon="10.3736869"><ele>569.0</ele><time>2026-05-02T08:09:09.964Z</time></trkpt><trkpt lat="44.151852" lon="10.3737709"><ele>569.0</ele><time>2026-05-02T08:09:10.964Z</time></trkpt><trkpt lat="44.1519299" lon="10.3738959"><ele>569.0</ele><time>2026-05-02T08:09:12.964Z</time></trkpt><trkpt lat="44.1520738" lon="10.3739165"><ele>569.0</ele><time>2026-05-02T08:09:14.964Z</time></trkpt><trkpt lat="44.1521488" lon="10.3739471"><ele>569.0</ele><time>2026-05-02T08:09:15.964Z</time></trkpt><trkpt lat="44.1522083" lon="10.3739958"><ele>569.2</ele><time>2026-05-02T08:09:16.964Z</time></trkpt><trkpt lat="44.1522502" lon="10.3740657"><ele>569.4</ele><time>2026-05-02T08:09:17.964Z</time></trkpt><trkpt lat="44.152292" lon="10.3741434"><ele>569.6</ele><time>2026-05-02T08:09:18.963Z</time></trkpt><trkpt lat="44.1523364" lon="10.3742067"><ele>569.8</ele><time>2026-05-02T08:09:19.964Z</time></trkpt><trkpt lat="44.1524482" lon="10.3743095"><ele>570.0</ele><time>2026-05-02T08:09:21.963Z</time></trkpt><trkpt lat="44.1525385" lon="10.3744402"><ele>570.0</ele><time>2026-05-02T08:09:23.964Z</time></trkpt><trkpt lat="44.1525358" lon="10.3745485"><ele>570.0</ele><time>2026-05-02T08:09:24.963Z</time></trkpt><trkpt lat="44.1525513" lon="10.3746469"><ele>570.0</ele><time>2026-05-02T08:09:25.963Z</time></trkpt><trkpt lat="44.1525524" lon="10.3747557"><ele>570.0</ele><time>2026-05-02T08:09:26.964Z</time></trkpt><trkpt lat="44.1525542" lon="10.3748673"><ele>570.0</ele><time>2026-05-02T08:09:27.964Z</time></trkpt><trkpt lat="44.1525607" lon="10.3749714"><ele>570.0</ele><time>2026-05-02T08:09:28.964Z</time></trkpt><trkpt lat="44.1525537" lon="10.3750819"><ele>567.8333333333334</ele><time>2026-05-02T08:09:29.964Z</time></trkpt><trkpt lat="44.152566" lon="10.3751907"><ele>565.6666666666666</ele><time>2026-05-02T08:09:30.963Z</time></trkpt><trkpt lat="44.152567" lon="10.3753068"><ele>563.5</ele><time>2026-05-02T08:09:31.963Z</time></trkpt><trkpt lat="44.1525595" lon="10.3754101"><ele>561.3333333333333</ele><time>2026-05-02T08:09:32.964Z</time></trkpt><trkpt lat="44.1525412" lon="10.3755126"><ele>559.1666666666666</ele><time>2026-05-02T08:09:33.964Z</time></trkpt><trkpt lat="44.1525038" lon="10.3756064"><ele>557.0</ele><time>2026-05-02T08:09:34.964Z</time></trkpt><trkpt lat="44.1524634" lon="10.3756958"><ele>555.5</ele><time>2026-05-02T08:09:35.964Z</time></trkpt><trkpt lat="44.1524283" lon="10.3757899"><ele>554.0</ele><time>2026-05-02T08:09:36.963Z</time></trkpt><trkpt lat="44.1523961" lon="10.3758741"><ele>552.5</ele><time>2026-05-02T08:09:37.963Z</time></trkpt><trkpt lat="44.1523619" lon="10.3759735"><ele>551.0</ele><time>2026-05-02T08:09:38.964Z</time></trkpt><trkpt lat="44.1523349" lon="10.3761414"><ele>549.5</ele><time>2026-05-02T08:09:40.964Z</time></trkpt><trkpt lat="44.1523272" lon="10.3762297"><ele>548.0</ele><time>2026-05-02T08:09:41.964Z</time></trkpt><trkpt lat="44.1523312" lon="10.376323"><ele>544.8333333333333</ele><time>2026-05-02T08:09:42.964Z</time></trkpt><trkpt lat="44.1523308" lon="10.3764311"><ele>541.6666666666666</ele><time>2026-05-02T08:09:43.963Z</time></trkpt><trkpt lat="44.1523421" lon="10.3765292"><ele>538.5</ele><time>2026-05-02T08:09:44.964Z</time></trkpt><trkpt lat="44.152321" lon="10.3766142"><ele>535.3333333333334</ele><time>2026-05-02T08:09:45.964Z</time></trkpt><trkpt lat="44.1523185" lon="10.3767779"><ele>532.1666666666667</ele><time>2026-05-02T08:09:47.963Z</time></trkpt><trkpt lat="44.1522985" lon="10.3768986"><ele>529.0</ele><time>2026-05-02T08:09:49.963Z</time></trkpt><trkpt lat="44.1522601" lon="10.3770027"><ele>529.0</ele><time>2026-05-02T08:09:51.964Z</time></trkpt><trkpt lat="44.1522443" lon="10.3770908"><ele>529.0</ele><time>2026-05-02T08:09:53.964Z</time></trkpt><trkpt lat="44.1522198" lon="10.3771824"><ele>529.0</ele><time>2026-05-02T08:09:55.964Z</time></trkpt><trkpt lat="44.1522335" lon="10.3772882"><ele>529.0</ele><time>2026-05-02T08:09:57.963Z</time></trkpt><trkpt lat="44.1522264" lon="10.3773893"><ele>529.0</ele><time>2026-05-02T08:09:59.963Z</time></trkpt><trkpt lat="44.1521394" lon="10.3775002"><ele>529.0</ele><time>2026-05-02T08:10:02.963Z</time></trkpt><trkpt lat="44.1520503" lon="10.377579"><ele>527.2</ele><time>2026-05-02T08:10:04.964Z</time></trkpt><trkpt lat="44.1519698" lon="10.3776685"><ele>525.4</ele><time>2026-05-02T08:10:06.963Z</time></trkpt><trkpt lat="44.1518728" lon="10.3777611"><ele>523.6</ele><time>2026-05-02T08:10:08.963Z</time></trkpt><trkpt lat="44.1517711" lon="10.3778028"><ele>521.8</ele><time>2026-05-02T08:10:10.964Z</time></trkpt><trkpt lat="44.1516664" lon="10.377777"><ele>520.0</ele><time>2026-05-02T08:10:12.964Z</time></trkpt><trkpt lat="44.1515634" lon="10.3777057"><ele>518.0</ele><time>2026-05-02T08:10:14.964Z</time></trkpt><trkpt lat="44.1514776" lon="10.3776129"><ele>516.0</ele><time>2026-05-02T08:10:16.963Z</time></trkpt><trkpt lat="44.1514423" lon="10.377508"><ele>514.0</ele><time>2026-05-02T08:10:18.963Z</time></trkpt><trkpt lat="44.1514466" lon="10.3773748"><ele>512.0</ele><time>2026-05-02T08:10:20.963Z</time></trkpt><trkpt lat="44.151513" lon="10.3772388"><ele>510.0</ele><time>2026-05-02T08:10:22.964Z</time></trkpt><trkpt lat="44.1515399" lon="10.3771514"><ele>510.0</ele><time>2026-05-02T08:10:23.963Z</time></trkpt><trkpt lat="44.1515558" lon="10.3770655"><ele>510.0</ele><time>2026-05-02T08:10:24.964Z</time></trkpt><trkpt lat="44.1515756" lon="10.3768937"><ele>510.0</ele><time>2026-05-02T08:10:26.964Z</time></trkpt><trkpt lat="44.1515659" lon="10.3767419"><ele>510.0</ele><time>2026-05-02T08:10:28.964Z</time></trkpt><trkpt lat="44.1515177" lon="10.3765884"><ele>510.0</ele><time>2026-05-02T08:10:30.964Z</time></trkpt><trkpt lat="44.1514834" lon="10.3765124"><ele>510.0</ele><time>2026-05-02T08:10:31.963Z</time></trkpt><trkpt lat="44.1514358" lon="10.3764507"><ele>510.0</ele><time>2026-05-02T08:10:32.964Z</time></trkpt><trkpt lat="44.1513704" lon="10.3763256"><ele>510.0</ele><time>2026-05-02T08:10:34.963Z</time></trkpt><trkpt lat="44.1513413" lon="10.3761773"><ele>510.0</ele><time>2026-05-02T08:10:36.963Z</time></trkpt><trkpt lat="44.1513592" lon="10.3760534"><ele>510.0</ele><time>2026-05-02T08:10:38.964Z</time></trkpt><trkpt lat="44.1514033" lon="10.3759266"><ele>509.6</ele><time>2026-05-02T08:10:40.963Z</time></trkpt><trkpt lat="44.1514871" lon="10.3757921"><ele>509.2</ele><time>2026-05-02T08:10:42.963Z</time></trkpt><trkpt lat="44.1515219" lon="10.3757126"><ele>508.79999999999995</ele><time>2026-05-02T08:10:43.964Z</time></trkpt><trkpt lat="44.1515422" lon="10.3756236"><ele>508.4</ele><time>2026-05-02T08:10:44.964Z</time></trkpt><trkpt lat="44.1516094" lon="10.375504"><ele>508.0</ele><time>2026-05-02T08:10:46.964Z</time></trkpt><trkpt lat="44.1516302" lon="10.3753914"><ele>508.79999999999995</ele><time>2026-05-02T08:10:48.964Z</time></trkpt><trkpt lat="44.1515681" lon="10.3752735"><ele>509.59999999999997</ele><time>2026-05-02T08:10:50.964Z</time></trkpt><trkpt lat="44.1514469" lon="10.375215"><ele>510.40000000000003</ele><time>2026-05-02T08:10:52.964Z</time></trkpt><trkpt lat="44.1513242" lon="10.3751711"><ele>511.20000000000005</ele><time>2026-05-02T08:10:54.963Z</time></trkpt><trkpt lat="44.1512658" lon="10.3751303"><ele>512.0</ele><time>2026-05-02T08:10:55.964Z</time></trkpt><trkpt lat="44.1512096" lon="10.3750831"><ele>512.0</ele><time>2026-05-02T08:10:56.964Z</time></trkpt><trkpt lat="44.151149" lon="10.3750398"><ele>511.99999999999994</ele><time>2026-05-02T08:10:57.964Z</time></trkpt><trkpt lat="44.1510938" lon="10.3749913"><ele>512.0</ele><time>2026-05-02T08:10:58.963Z</time></trkpt><trkpt lat="44.1510413" lon="10.3749396"><ele>512.0</ele><time>2026-05-02T08:10:59.964Z</time></trkpt><trkpt lat="44.150991" lon="10.3748791"><ele>511.99999999999994</ele><time>2026-05-02T08:11:00.964Z</time></trkpt><trkpt lat="44.1509464" lon="10.3748062"><ele>512.0</ele><time>2026-05-02T08:11:01.963Z</time></trkpt><trkpt lat="44.1509021" lon="10.3747259"><ele>512.0</ele><time>2026-05-02T08:11:02.963Z</time></trkpt><trkpt lat="44.1508655" lon="10.3746391"><ele>511.49999999999994</ele><time>2026-05-02T08:11:03.964Z</time></trkpt><trkpt lat="44.1508352" lon="10.3745546"><ele>511.0</ele><time>2026-05-02T08:11:04.964Z</time></trkpt><trkpt lat="44.1507993" lon="10.3744792"><ele>510.5</ele><time>2026-05-02T08:11:05.964Z</time></trkpt><trkpt lat="44.1507141" lon="10.3743577"><ele>510.0</ele><time>2026-05-02T08:11:07.963Z</time></trkpt><trkpt lat="44.1506449" lon="10.374337"><ele>509.49999999999994</ele><time>2026-05-02T08:11:08.963Z</time></trkpt><trkpt lat="44.1505793" lon="10.3742906"><ele>509.0</ele><time>2026-05-02T08:11:09.964Z</time></trkpt><trkpt lat="44.1505173" lon="10.3742613"><ele>508.99999999999994</ele><time>2026-05-02T08:11:10.964Z</time></trkpt><trkpt lat="44.1504495" lon="10.3742311"><ele>509.0</ele><time>2026-05-02T08:11:11.964Z</time></trkpt><trkpt lat="44.1503857" lon="10.3742114"><ele>509.0</ele><time>2026-05-02T08:11:12.963Z</time></trkpt><trkpt lat="44.1503134" lon="10.3742053"><ele>509.0</ele><time>2026-05-02T08:11:13.964Z</time></trkpt><trkpt lat="44.1502447" lon="10.3742169"><ele>508.99999999999994</ele><time>2026-05-02T08:11:14.964Z</time></trkpt><trkpt lat="44.1501802" lon="10.3742317"><ele>509.0</ele><time>2026-05-02T08:11:15.963Z</time></trkpt><trkpt lat="44.1500629" lon="10.3742661"><ele>508.99999999999994</ele><time>2026-05-02T08:11:17.964Z</time></trkpt><trkpt lat="44.1499964" lon="10.3742861"><ele>509.0</ele><time>2026-05-02T08:11:18.963Z</time></trkpt><trkpt lat="44.1498826" lon="10.374245"><ele>509.0</ele><time>2026-05-02T08:11:20.963Z</time></trkpt><trkpt lat="44.1498247" lon="10.3741564"><ele>509.0</ele><time>2026-05-02T08:11:21.964Z</time></trkpt><trkpt lat="44.1497738" lon="10.3740789"><ele>508.99999999999994</ele><time>2026-05-02T08:11:22.964Z</time></trkpt><trkpt lat="44.1497137" lon="10.3739862"><ele>509.0</ele><time>2026-05-02T08:11:23.964Z</time></trkpt><trkpt lat="44.1496806" lon="10.3738846"><ele>505.3333333333333</ele><time>2026-05-02T08:11:24.963Z</time></trkpt><trkpt lat="44.1496408" lon="10.373781"><ele>501.66666666666663</ele><time>2026-05-02T08:11:25.964Z</time></trkpt><trkpt lat="44.1495949" lon="10.3736667"><ele>498.0</ele><time>2026-05-02T08:11:26.963Z</time></trkpt><trkpt lat="44.1495457" lon="10.3735652"><ele>494.33333333333337</ele><time>2026-05-02T08:11:27.963Z</time></trkpt><trkpt lat="44.1494942" lon="10.3734609"><ele>490.6666666666667</ele><time>2026-05-02T08:11:28.963Z</time></trkpt><trkpt lat="44.149438" lon="10.3733612"><ele>487.0</ele><time>2026-05-02T08:11:29.963Z</time></trkpt><trkpt lat="44.1493865" lon="10.3732675"><ele>487.0</ele><time>2026-05-02T08:11:30.964Z</time></trkpt><trkpt lat="44.1493405" lon="10.3731713"><ele>487.00000000000006</ele><time>2026-05-02T08:11:31.964Z</time></trkpt><trkpt lat="44.1492987" lon="10.3730851"><ele>487.00000000000006</ele><time>2026-05-02T08:11:32.963Z</time></trkpt><trkpt lat="44.1492639" lon="10.3730026"><ele>487.0</ele><time>2026-05-02T08:11:33.964Z</time></trkpt><trkpt lat="44.1492004" lon="10.3728702"><ele>487.0</ele><time>2026-05-02T08:11:35.964Z</time></trkpt><trkpt lat="44.1491923" lon="10.3726893"><ele>485.8</ele><time>2026-05-02T08:11:37.963Z</time></trkpt><trkpt lat="44.1492095" lon="10.3725838"><ele>484.6</ele><time>2026-05-02T08:11:38.963Z</time></trkpt><trkpt lat="44.1492252" lon="10.3724833"><ele>483.40000000000003</ele><time>2026-05-02T08:11:39.964Z</time></trkpt><trkpt lat="44.1492368" lon="10.3723775"><ele>482.20000000000005</ele><time>2026-05-02T08:11:40.964Z</time></trkpt><trkpt lat="44.1492141" lon="10.3722017"><ele>481.0</ele><time>2026-05-02T08:11:42.964Z</time></trkpt><trkpt lat="44.1492106" lon="10.3720484"><ele>478.20000000000005</ele><time>2026-05-02T08:11:44.964Z</time></trkpt><trkpt lat="44.1492362" lon="10.3718899"><ele>475.40000000000003</ele><time>2026-05-02T08:11:46.964Z</time></trkpt><trkpt lat="44.1492663" lon="10.3718108"><ele>472.6</ele><time>2026-05-02T08:11:47.964Z</time></trkpt><trkpt lat="44.1492961" lon="10.371724"><ele>469.8</ele><time>2026-05-02T08:11:48.964Z</time></trkpt><trkpt lat="44.1493622" lon="10.3715914"><ele>467.0</ele><time>2026-05-02T08:11:50.964Z</time></trkpt><trkpt lat="44.1493877" lon="10.3714426"><ele>465.0</ele><time>2026-05-02T08:11:52.964Z</time></trkpt><trkpt lat="44.1493923" lon="10.3712894"><ele>463.00000000000006</ele><time>2026-05-02T08:11:54.964Z</time></trkpt><trkpt lat="44.1494726" lon="10.3711425"><ele>461.00000000000006</ele><time>2026-05-02T08:11:56.964Z</time></trkpt><trkpt lat="44.149542" lon="10.3710729"><ele>459.0</ele><time>2026-05-02T08:11:57.964Z</time></trkpt><trkpt lat="44.1496228" lon="10.371007"><ele>457.0</ele><time>2026-05-02T08:11:58.964Z</time></trkpt><trkpt lat="44.1496963" lon="10.3709393"><ele>457.00000000000006</ele><time>2026-05-02T08:11:59.964Z</time></trkpt><trkpt lat="44.1497758" lon="10.3708758"><ele>457.0</ele><time>2026-05-02T08:12:00.963Z</time></trkpt><trkpt lat="44.1498579" lon="10.3708196"><ele>457.0</ele><time>2026-05-02T08:12:01.964Z</time></trkpt><trkpt lat="44.1499396" lon="10.3707672"><ele>457.0</ele><time>2026-05-02T08:12:02.963Z</time></trkpt><trkpt lat="44.1500148" lon="10.3707187"><ele>457.00000000000006</ele><time>2026-05-02T08:12:03.964Z</time></trkpt><trkpt lat="44.1500904" lon="10.3706904"><ele>457.0</ele><time>2026-05-02T08:12:04.963Z</time></trkpt><trkpt lat="44.1501553" lon="10.3706612"><ele>456.50000000000006</ele><time>2026-05-02T08:12:05.964Z</time></trkpt><trkpt lat="44.1502262" lon="10.3706221"><ele>456.0</ele><time>2026-05-02T08:12:06.964Z</time></trkpt><trkpt lat="44.1502825" lon="10.3705782"><ele>455.5</ele><time>2026-05-02T08:12:07.963Z</time></trkpt><trkpt lat="44.1503282" lon="10.3704478"><ele>455.0</ele><time>2026-05-02T08:12:09.964Z</time></trkpt><trkpt lat="44.1502739" lon="10.3703698"><ele>454.50000000000006</ele><time>2026-05-02T08:12:11.964Z</time></trkpt><trkpt lat="44.1501801" lon="10.3704261"><ele>454.0</ele><time>2026-05-02T08:12:13.964Z</time></trkpt><trkpt lat="44.1501072" lon="10.3704792"><ele>454.50000000000006</ele><time>2026-05-02T08:12:14.964Z</time></trkpt><trkpt lat="44.1500369" lon="10.3705255"><ele>455.0</ele><time>2026-05-02T08:12:15.963Z</time></trkpt><trkpt lat="44.1499589" lon="10.3705589"><ele>455.5</ele><time>2026-05-02T08:12:16.964Z</time></trkpt><trkpt lat="44.1498866" lon="10.3705859"><ele>456.0</ele><time>2026-05-02T08:12:17.964Z</time></trkpt><trkpt lat="44.1498078" lon="10.3706091"><ele>456.50000000000006</ele><time>2026-05-02T08:12:18.964Z</time></trkpt><trkpt lat="44.1497394" lon="10.3706083"><ele>457.0</ele><time>2026-05-02T08:12:19.963Z</time></trkpt><trkpt lat="44.1496267" lon="10.3705465"><ele>454.40000000000003</ele><time>2026-05-02T08:12:21.963Z</time></trkpt><trkpt lat="44.1495646" lon="10.3704185"><ele>451.80000000000007</ele><time>2026-05-02T08:12:23.964Z</time></trkpt><trkpt lat="44.1494939" lon="10.3702634"><ele>449.2</ele><time>2026-05-02T08:12:25.964Z</time></trkpt><trkpt lat="44.1494439" lon="10.3701962"><ele>446.6</ele><time>2026-05-02T08:12:26.964Z</time></trkpt><trkpt lat="44.1493807" lon="10.3701435"><ele>444.0</ele><time>2026-05-02T08:12:27.964Z</time></trkpt><trkpt lat="44.1493159" lon="10.3701163"><ele>444.0</ele><time>2026-05-02T08:12:28.964Z</time></trkpt><trkpt lat="44.1491998" lon="10.3701214"><ele>444.0</ele><time>2026-05-02T08:12:30.963Z</time></trkpt><trkpt lat="44.1491444" lon="10.3700167"><ele>444.0</ele><time>2026-05-02T08:12:32.964Z</time></trkpt><trkpt lat="44.1491588" lon="10.3699275"><ele>444.0</ele><time>2026-05-02T08:12:33.964Z</time></trkpt><trkpt lat="44.1491849" lon="10.3698315"><ele>444.0</ele><time>2026-05-02T08:12:34.964Z</time></trkpt><trkpt lat="44.149195" lon="10.3697207"><ele>444.0</ele><time>2026-05-02T08:12:35.963Z</time></trkpt><trkpt lat="44.1491963" lon="10.3696063"><ele>443.1666666666667</ele><time>2026-05-02T08:12:36.964Z</time></trkpt><trkpt lat="44.1491894" lon="10.3694903"><ele>442.33333333333337</ele><time>2026-05-02T08:12:37.963Z</time></trkpt><trkpt lat="44.1491914" lon="10.3693731"><ele>441.5</ele><time>2026-05-02T08:12:38.964Z</time></trkpt><trkpt lat="44.1491873" lon="10.3692503"><ele>440.6666666666667</ele><time>2026-05-02T08:12:39.964Z</time></trkpt><trkpt lat="44.1491844" lon="10.3691482"><ele>439.83333333333337</ele><time>2026-05-02T08:12:40.963Z</time></trkpt><trkpt lat="44.1491761" lon="10.3690454"><ele>439.0</ele><time>2026-05-02T08:12:41.964Z</time></trkpt><trkpt lat="44.1491694" lon="10.3689256"><ele>438.1666666666667</ele><time>2026-05-02T08:12:42.963Z</time></trkpt><trkpt lat="44.1491789" lon="10.3687756"><ele>437.33333333333337</ele><time>2026-05-02T08:12:44.964Z</time></trkpt><trkpt lat="44.1492415" lon="10.3686365"><ele>436.5</ele><time>2026-05-02T08:12:46.964Z</time></trkpt><trkpt lat="44.1492761" lon="10.3685561"><ele>435.66666666666663</ele><time>2026-05-02T08:12:47.964Z</time></trkpt><trkpt lat="44.1493233" lon="10.3684968"><ele>434.8333333333333</ele><time>2026-05-02T08:12:48.964Z</time></trkpt><trkpt lat="44.1493573" lon="10.3684059"><ele>434.0</ele><time>2026-05-02T08:12:49.964Z</time></trkpt><trkpt lat="44.1494272" lon="10.3683742"><ele>433.99999999999994</ele><time>2026-05-02T08:12:50.964Z</time></trkpt><trkpt lat="44.1494632" lon="10.3682559"><ele>434.0</ele><time>2026-05-02T08:12:51.964Z</time></trkpt><trkpt lat="44.1495161" lon="10.3681783"><ele>434.0</ele><time>2026-05-02T08:12:52.964Z</time></trkpt><trkpt lat="44.149584" lon="10.3681249"><ele>434.0</ele><time>2026-05-02T08:12:53.964Z</time></trkpt><trkpt lat="44.1496596" lon="10.3680886"><ele>433.99999999999994</ele><time>2026-05-02T08:12:54.964Z</time></trkpt><trkpt lat="44.1497286" lon="10.368055"><ele>434.0</ele><time>2026-05-02T08:12:55.964Z</time></trkpt><trkpt lat="44.1497959" lon="10.3680031"><ele>433.57142857142856</ele><time>2026-05-02T08:12:56.964Z</time></trkpt><trkpt lat="44.1498453" lon="10.3679283"><ele>433.1428571428571</ele><time>2026-05-02T08:12:57.964Z</time></trkpt><trkpt lat="44.1498932" lon="10.3678469"><ele>432.7142857142857</ele><time>2026-05-02T08:12:58.964Z</time></trkpt><trkpt lat="44.1499296" lon="10.3677557"><ele>432.2857142857143</ele><time>2026-05-02T08:12:59.963Z</time></trkpt><trkpt lat="44.1499747" lon="10.3676592"><ele>431.85714285714283</ele><time>2026-05-02T08:13:00.964Z</time></trkpt><trkpt lat="44.1500099" lon="10.3675739"><ele>431.42857142857144</ele><time>2026-05-02T08:13:01.964Z</time></trkpt><trkpt lat="44.1500474" lon="10.3674877"><ele>431.0</ele><time>2026-05-02T08:13:02.964Z</time></trkpt><trkpt lat="44.1500947" lon="10.3673769"><ele>431.0</ele><time>2026-05-02T08:13:04.964Z</time></trkpt><trkpt lat="44.1501308" lon="10.3672998"><ele>431.0</ele><time>2026-05-02T08:13:07.964Z</time></trkpt><trkpt lat="44.1500183" lon="10.3672985"><ele>431.0</ele><time>2026-05-02T08:13:48.964Z</time></trkpt><trkpt lat="44.1498782" lon="10.3673651"><ele>431.0</ele><time>2026-05-02T08:13:50.964Z</time></trkpt><trkpt lat="44.1497933" lon="10.3674083"><ele>431.0</ele><time>2026-05-02T08:13:51.963Z</time></trkpt><trkpt lat="44.149709" lon="10.3674537"><ele>429.3333333333333</ele><time>2026-05-02T08:13:52.964Z</time></trkpt><trkpt lat="44.1496329" lon="10.3674909"><ele>427.66666666666663</ele><time>2026-05-02T08:13:53.964Z</time></trkpt><trkpt lat="44.1495712" lon="10.3675189"><ele>426.0</ele><time>2026-05-02T08:13:54.964Z</time></trkpt><trkpt lat="44.1494837" lon="10.3675233"><ele>424.33333333333337</ele><time>2026-05-02T08:13:56.964Z</time></trkpt><trkpt lat="44.1495505" lon="10.3673613"><ele>422.6666666666667</ele><time>2026-05-02T08:13:58.964Z</time></trkpt><trkpt lat="44.149601" lon="10.3672818"><ele>421.0</ele><time>2026-05-02T08:13:59.964Z</time></trkpt><trkpt lat="44.1496687" lon="10.3672121"><ele>419.6666666666667</ele><time>2026-05-02T08:14:00.963Z</time></trkpt><trkpt lat="44.1497401" lon="10.3671484"><ele>418.33333333333337</ele><time>2026-05-02T08:14:01.964Z</time></trkpt><trkpt lat="44.1498215" lon="10.3670907"><ele>417.0</ele><time>2026-05-02T08:14:02.964Z</time></trkpt><trkpt lat="44.1499047" lon="10.3670391"><ele>415.66666666666663</ele><time>2026-05-02T08:14:03.964Z</time></trkpt><trkpt lat="44.1499847" lon="10.3669906"><ele>414.3333333333333</ele><time>2026-05-02T08:14:04.963Z</time></trkpt><trkpt lat="44.1500567" lon="10.3669389"><ele>413.0</ele><time>2026-05-02T08:14:05.964Z</time></trkpt><trkpt lat="44.1501396" lon="10.3668838"><ele>413.0</ele><time>2026-05-02T08:14:06.964Z</time></trkpt><trkpt lat="44.1502205" lon="10.3668125"><ele>413.0</ele><time>2026-05-02T08:14:07.963Z</time></trkpt><trkpt lat="44.1503022" lon="10.3667337"><ele>413.0</ele><time>2026-05-02T08:14:08.964Z</time></trkpt><trkpt lat="44.1503819" lon="10.3666475"><ele>413.0</ele><time>2026-05-02T08:14:09.963Z</time></trkpt><trkpt lat="44.1504539" lon="10.3665712"><ele>413.0</ele><time>2026-05-02T08:14:10.963Z</time></trkpt><trkpt lat="44.1505294" lon="10.366491"><ele>413.0</ele><time>2026-05-02T08:14:11.964Z</time></trkpt><trkpt lat="44.1506068" lon="10.3664169"><ele>413.0</ele><time>2026-05-02T08:14:12.964Z</time></trkpt><trkpt lat="44.1506944" lon="10.3663523"><ele>413.0</ele><time>2026-05-02T08:14:13.964Z</time></trkpt><trkpt lat="44.1507891" lon="10.366316"><ele>413.0</ele><time>2026-05-02T08:14:14.964Z</time></trkpt><trkpt lat="44.1508787" lon="10.3662792"><ele>413.0</ele><time>2026-05-02T08:14:15.964Z</time></trkpt><trkpt lat="44.150963" lon="10.3662301"><ele>410.8333333333333</ele><time>2026-05-02T08:14:16.964Z</time></trkpt><trkpt lat="44.1510415" lon="10.3661638"><ele>408.66666666666663</ele><time>2026-05-02T08:14:17.963Z</time></trkpt><trkpt lat="44.1511141" lon="10.3660815"><ele>406.5</ele><time>2026-05-02T08:14:18.964Z</time></trkpt><trkpt lat="44.1511819" lon="10.3659911"><ele>404.33333333333337</ele><time>2026-05-02T08:14:19.964Z</time></trkpt><trkpt lat="44.1512368" lon="10.3659052"><ele>402.1666666666667</ele><time>2026-05-02T08:14:20.963Z</time></trkpt><trkpt lat="44.1512886" lon="10.3658275"><ele>400.0</ele><time>2026-05-02T08:14:21.963Z</time></trkpt><trkpt lat="44.1513409" lon="10.3657768"><ele>400.00000000000006</ele><time>2026-05-02T08:14:22.963Z</time></trkpt><trkpt lat="44.151464" lon="10.3657693"><ele>400.0</ele><time>2026-05-02T08:14:24.964Z</time></trkpt><trkpt lat="44.1515441" lon="10.3658226"><ele>400.0</ele><time>2026-05-02T08:14:25.963Z</time></trkpt><trkpt lat="44.151603" lon="10.36588"><ele>400.0</ele><time>2026-05-02T08:14:26.964Z</time></trkpt><trkpt lat="44.1516631" lon="10.365927"><ele>400.00000000000006</ele><time>2026-05-02T08:14:27.964Z</time></trkpt><trkpt lat="44.1517294" lon="10.3659631"><ele>400.0</ele><time>2026-05-02T08:14:28.963Z</time></trkpt><trkpt lat="44.1518153" lon="10.3658942"><ele>401.0</ele><time>2026-05-02T08:14:30.964Z</time></trkpt><trkpt lat="44.1518508" lon="10.365784"><ele>402.0</ele><time>2026-05-02T08:14:32.963Z</time></trkpt><trkpt lat="44.151842" lon="10.3656345"><ele>403.0</ele><time>2026-05-02T08:14:34.964Z</time></trkpt><trkpt lat="44.1518718" lon="10.3654694"><ele>404.0</ele><time>2026-05-02T08:14:36.964Z</time></trkpt><trkpt lat="44.151898" lon="10.3653799"><ele>405.0</ele><time>2026-05-02T08:14:37.964Z</time></trkpt><trkpt lat="44.1519193" lon="10.365291"><ele>401.8</ele><time>2026-05-02T08:14:38.963Z</time></trkpt><trkpt lat="44.1519442" lon="10.365209"><ele>398.6</ele><time>2026-05-02T08:14:39.964Z</time></trkpt><trkpt lat="44.1520097" lon="10.3650698"><ele>395.4</ele><time>2026-05-02T08:14:41.964Z</time></trkpt><trkpt lat="44.1520943" lon="10.3649544"><ele>392.2</ele><time>2026-05-02T08:14:43.963Z</time></trkpt><trkpt lat="44.1521909" lon="10.3648386"><ele>389.0</ele><time>2026-05-02T08:14:45.964Z</time></trkpt><trkpt lat="44.1522466" lon="10.364786"><ele>389.0</ele><time>2026-05-02T08:14:46.963Z</time></trkpt><trkpt lat="44.1522993" lon="10.3647349"><ele>389.0</ele><time>2026-05-02T08:14:47.964Z</time></trkpt><trkpt lat="44.1524104" lon="10.3646589"><ele>389.0</ele><time>2026-05-02T08:14:49.964Z</time></trkpt><trkpt lat="44.1525382" lon="10.3646258"><ele>389.0</ele><time>2026-05-02T08:14:51.964Z</time></trkpt><trkpt lat="44.1526039" lon="10.3646211"><ele>389.0</ele><time>2026-05-02T08:14:52.964Z</time></trkpt><trkpt lat="44.1526748" lon="10.364635"><ele>388.3333333333333</ele><time>2026-05-02T08:14:53.964Z</time></trkpt><trkpt lat="44.1527627" lon="10.3646155"><ele>387.66666666666663</ele><time>2026-05-02T08:14:55.964Z</time></trkpt><trkpt lat="44.1527027" lon="10.3645833"><ele>387.0</ele><time>2026-05-02T08:15:01.964Z</time></trkpt><trkpt lat="44.1526067" lon="10.3645897"><ele>386.33333333333337</ele><time>2026-05-02T08:15:03.964Z</time></trkpt><trkpt lat="44.1525321" lon="10.364582"><ele>385.6666666666667</ele><time>2026-05-02T08:15:04.964Z</time></trkpt><trkpt lat="44.152456" lon="10.3645987"><ele>385.0</ele><time>2026-05-02T08:15:05.963Z</time></trkpt><trkpt lat="44.1523701" lon="10.36464"><ele>385.6666666666667</ele><time>2026-05-02T08:15:06.964Z</time></trkpt><trkpt lat="44.1522977" lon="10.3647097"><ele>386.33333333333337</ele><time>2026-05-02T08:15:07.963Z</time></trkpt><trkpt lat="44.152234" lon="10.3647713"><ele>387.0</ele><time>2026-05-02T08:15:08.964Z</time></trkpt><trkpt lat="44.1521731" lon="10.3648362"><ele>387.66666666666663</ele><time>2026-05-02T08:15:09.964Z</time></trkpt><trkpt lat="44.152111" lon="10.3649081"><ele>388.3333333333333</ele><time>2026-05-02T08:15:10.963Z</time></trkpt><trkpt lat="44.152061" lon="10.3649773"><ele>389.0</ele><time>2026-05-02T08:15:11.964Z</time></trkpt><trkpt lat="44.1520193" lon="10.3650522"><ele>388.99999999999994</ele><time>2026-05-02T08:15:12.963Z</time></trkpt><trkpt lat="44.1519542" lon="10.3652258"><ele>389.0</ele><time>2026-05-02T08:15:14.964Z</time></trkpt><trkpt lat="44.1519262" lon="10.3653133"><ele>389.0</ele><time>2026-05-02T08:15:15.964Z</time></trkpt><trkpt lat="44.1518974" lon="10.3654171"><ele>389.0</ele><time>2026-05-02T08:15:16.964Z</time></trkpt><trkpt lat="44.151877" lon="10.365513"><ele>388.99999999999994</ele><time>2026-05-02T08:15:17.963Z</time></trkpt><trkpt lat="44.1518646" lon="10.3656001"><ele>389.0</ele><time>2026-05-02T08:15:18.963Z</time></trkpt><trkpt lat="44.1518496" lon="10.3657139"><ele>391.66666666666663</ele><time>2026-05-02T08:15:20.963Z</time></trkpt><trkpt lat="44.1518279" lon="10.365823"><ele>394.3333333333333</ele><time>2026-05-02T08:15:23.963Z</time></trkpt><trkpt lat="44.1518891" lon="10.3657302"><ele>397.0</ele><time>2026-05-02T08:15:32.963Z</time></trkpt><trkpt lat="44.1519136" lon="10.3656275"><ele>399.66666666666663</ele><time>2026-05-02T08:15:34.964Z</time></trkpt><trkpt lat="44.1519899" lon="10.365552"><ele>402.3333333333333</ele><time>2026-05-02T08:15:37.964Z</time></trkpt><trkpt lat="44.1519168" lon="10.3655936"><ele>405.0</ele><time>2026-05-02T08:16:02.963Z</time></trkpt><trkpt lat="44.1518921" lon="10.3657007"><ele>405.0</ele><time>2026-05-02T08:16:04.963Z</time></trkpt><trkpt lat="44.1518773" lon="10.3658518"><ele>405.0</ele><time>2026-05-02T08:16:05.964Z</time></trkpt><trkpt lat="44.1517997" lon="10.3659485"><ele>405.0</ele><time>2026-05-02T08:16:07.963Z</time></trkpt><trkpt lat="44.1516741" lon="10.3659337"><ele>405.0</ele><time>2026-05-02T08:16:09.964Z</time></trkpt><trkpt lat="44.1515959" lon="10.3659345"><ele>405.0</ele><time>2026-05-02T08:16:10.963Z</time></trkpt><trkpt lat="44.1515297" lon="10.3658071"><ele>404.0</ele><time>2026-05-02T08:16:11.963Z</time></trkpt><trkpt lat="44.1514532" lon="10.3657738"><ele>403.0</ele><time>2026-05-02T08:16:12.964Z</time></trkpt><trkpt lat="44.1513806" lon="10.3657563"><ele>402.0</ele><time>2026-05-02T08:16:13.964Z</time></trkpt><trkpt lat="44.1513067" lon="10.3657529"><ele>401.0</ele><time>2026-05-02T08:16:14.964Z</time></trkpt><trkpt lat="44.151255" lon="10.3658644"><ele>400.0</ele><time>2026-05-02T08:16:15.964Z</time></trkpt><trkpt lat="44.1511492" lon="10.3660214"><ele>400.0</ele><time>2026-05-02T08:16:17.963Z</time></trkpt><trkpt lat="44.1510729" lon="10.3661042"><ele>400.0</ele><time>2026-05-02T08:16:18.964Z</time></trkpt><trkpt lat="44.1509988" lon="10.3662107"><ele>400.0</ele><time>2026-05-02T08:16:19.964Z</time></trkpt><trkpt lat="44.1508825" lon="10.3662402"><ele>400.0</ele><time>2026-05-02T08:16:20.963Z</time></trkpt><trkpt lat="44.1507856" lon="10.3662931"><ele>400.0</ele><time>2026-05-02T08:16:21.963Z</time></trkpt><trkpt lat="44.150702" lon="10.3663344"><ele>402.6</ele><time>2026-05-02T08:16:22.963Z</time></trkpt><trkpt lat="44.1506159" lon="10.366388"><ele>405.2</ele><time>2026-05-02T08:16:23.964Z</time></trkpt><trkpt lat="44.1505353" lon="10.3664658"><ele>407.79999999999995</ele><time>2026-05-02T08:16:24.963Z</time></trkpt><trkpt lat="44.1504558" lon="10.3665526"><ele>410.4</ele><time>2026-05-02T08:16:25.964Z</time></trkpt><trkpt lat="44.1503811" lon="10.3666352"><ele>413.0</ele><time>2026-05-02T08:16:26.964Z</time></trkpt><trkpt lat="44.1502934" lon="10.3667195"><ele>413.0</ele><time>2026-05-02T08:16:27.963Z</time></trkpt><trkpt lat="44.1502064" lon="10.3668005"><ele>413.0</ele><time>2026-05-02T08:16:28.964Z</time></trkpt><trkpt lat="44.1501179" lon="10.3668713"><ele>413.0</ele><time>2026-05-02T08:16:29.964Z</time></trkpt><trkpt lat="44.1500202" lon="10.3669419"><ele>413.0</ele><time>2026-05-02T08:16:30.964Z</time></trkpt><trkpt lat="44.1499288" lon="10.3669939"><ele>413.0</ele><time>2026-05-02T08:16:31.964Z</time></trkpt><trkpt lat="44.1498424" lon="10.3670547"><ele>414.3333333333333</ele><time>2026-05-02T08:16:32.963Z</time></trkpt><trkpt lat="44.1497544" lon="10.3671164"><ele>415.66666666666663</ele><time>2026-05-02T08:16:33.963Z</time></trkpt><trkpt lat="44.1496755" lon="10.3671789"><ele>417.0</ele><time>2026-05-02T08:16:34.964Z</time></trkpt><trkpt lat="44.149607" lon="10.3672327"><ele>418.33333333333337</ele><time>2026-05-02T08:16:35.963Z</time></trkpt><trkpt lat="44.1495551" lon="10.367293"><ele>419.6666666666667</ele><time>2026-05-02T08:16:36.963Z</time></trkpt><trkpt lat="44.1494914" lon="10.3674011"><ele>421.0</ele><time>2026-05-02T08:16:38.963Z</time></trkpt><trkpt lat="44.1494737" lon="10.367509"><ele>421.00000000000006</ele><time>2026-05-02T08:16:41.964Z</time></trkpt><trkpt lat="44.1495427" lon="10.3675605"><ele>421.0</ele><time>2026-05-02T08:16:49.963Z</time></trkpt><trkpt lat="44.1496071" lon="10.3675195"><ele>421.0</ele><time>2026-05-02T08:16:50.964Z</time></trkpt><trkpt lat="44.1496674" lon="10.3674828"><ele>421.0</ele><time>2026-05-02T08:16:51.964Z</time></trkpt><trkpt lat="44.1497418" lon="10.3674492"><ele>421.00000000000006</ele><time>2026-05-02T08:16:52.964Z</time></trkpt><trkpt lat="44.1498271" lon="10.367404"><ele>421.0</ele><time>2026-05-02T08:16:53.964Z</time></trkpt><trkpt lat="44.1499207" lon="10.3673545"><ele>423.0</ele><time>2026-05-02T08:16:54.964Z</time></trkpt><trkpt lat="44.1500135" lon="10.3673154"><ele>425.0</ele><time>2026-05-02T08:16:55.964Z</time></trkpt><trkpt lat="44.15012" lon="10.3672653"><ele>427.0</ele><time>2026-05-02T08:16:56.964Z</time></trkpt><trkpt lat="44.1502301" lon="10.36723"><ele>429.0</ele><time>2026-05-02T08:16:57.964Z</time></trkpt><trkpt lat="44.1503439" lon="10.3671989"><ele>431.0</ele><time>2026-05-02T08:16:58.963Z</time></trkpt><trkpt lat="44.150444" lon="10.3672193"><ele>431.0</ele><time>2026-05-02T08:16:59.963Z</time></trkpt><trkpt lat="44.1505412" lon="10.3672271"><ele>431.0</ele><time>2026-05-02T08:17:00.964Z</time></trkpt><trkpt lat="44.1506502" lon="10.3672418"><ele>431.0</ele><time>2026-05-02T08:17:01.964Z</time></trkpt><trkpt lat="44.1507528" lon="10.3672204"><ele>431.0</ele><time>2026-05-02T08:17:02.964Z</time></trkpt><trkpt lat="44.1508688" lon="10.3671718"><ele>431.0</ele><time>2026-05-02T08:17:03.964Z</time></trkpt><trkpt lat="44.1509799" lon="10.3671042"><ele>428.0</ele><time>2026-05-02T08:17:04.963Z</time></trkpt><trkpt lat="44.151105" lon="10.3670295"><ele>425.0</ele><time>2026-05-02T08:17:05.964Z</time></trkpt><trkpt lat="44.1512272" lon="10.3669677"><ele>422.0</ele><time>2026-05-02T08:17:06.963Z</time></trkpt><trkpt lat="44.1513537" lon="10.3669324"><ele>419.0</ele><time>2026-05-02T08:17:07.964Z</time></trkpt><trkpt lat="44.1514892" lon="10.3668931"><ele>422.25</ele><time>2026-05-02T08:17:08.964Z</time></trkpt><trkpt lat="44.1516213" lon="10.3668614"><ele>425.5</ele><time>2026-05-02T08:17:09.963Z</time></trkpt><trkpt lat="44.1517506" lon="10.3668514"><ele>428.75</ele><time>2026-05-02T08:17:10.963Z</time></trkpt><trkpt lat="44.1518677" lon="10.3668397"><ele>432.0</ele><time>2026-05-02T08:17:11.964Z</time></trkpt><trkpt lat="44.1519766" lon="10.3668136"><ele>432.0</ele><time>2026-05-02T08:17:12.964Z</time></trkpt><trkpt lat="44.1520778" lon="10.3666862"><ele>432.0</ele><time>2026-05-02T08:17:13.964Z</time></trkpt><trkpt lat="44.1521713" lon="10.3665811"><ele>432.0</ele><time>2026-05-02T08:17:14.964Z</time></trkpt><trkpt lat="44.1522758" lon="10.3664816"><ele>432.0</ele><time>2026-05-02T08:17:15.963Z</time></trkpt><trkpt lat="44.1523804" lon="10.366419"><ele>433.5</ele><time>2026-05-02T08:17:16.964Z</time></trkpt><trkpt lat="44.1524874" lon="10.3663741"><ele>435.0</ele><time>2026-05-02T08:17:17.963Z</time></trkpt><trkpt lat="44.152606" lon="10.3663697"><ele>436.5</ele><time>2026-05-02T08:17:18.964Z</time></trkpt><trkpt lat="44.1527356" lon="10.3663681"><ele>438.0</ele><time>2026-05-02T08:17:19.964Z</time></trkpt><trkpt lat="44.1528705" lon="10.3663717"><ele>438.0</ele><time>2026-05-02T08:17:20.963Z</time></trkpt><trkpt lat="44.1530094" lon="10.3663825"><ele>438.0</ele><time>2026-05-02T08:17:21.963Z</time></trkpt><trkpt lat="44.1531598" lon="10.3663878"><ele>438.0</ele><time>2026-05-02T08:17:22.964Z</time></trkpt><trkpt lat="44.1533101" lon="10.3663955"><ele>438.0</ele><time>2026-05-02T08:17:23.964Z</time></trkpt><trkpt lat="44.1534612" lon="10.366405"><ele>440.33333333333337</ele><time>2026-05-02T08:17:24.963Z</time></trkpt><trkpt lat="44.153622" lon="10.3664121"><ele>442.6666666666667</ele><time>2026-05-02T08:17:25.964Z</time></trkpt><trkpt lat="44.1537802" lon="10.3664236"><ele>445.0</ele><time>2026-05-02T08:17:26.964Z</time></trkpt><trkpt lat="44.1539419" lon="10.3664563"><ele>444.33333333333337</ele><time>2026-05-02T08:17:27.963Z</time></trkpt><trkpt lat="44.1541009" lon="10.3665021"><ele>443.66666666666663</ele><time>2026-05-02T08:17:28.963Z</time></trkpt><trkpt lat="44.1542507" lon="10.3665552"><ele>443.0</ele><time>2026-05-02T08:17:29.963Z</time></trkpt><trkpt lat="44.154387" lon="10.366608"><ele>443.0</ele><time>2026-05-02T08:17:30.964Z</time></trkpt><trkpt lat="44.1545069" lon="10.3666826"><ele>443.0</ele><time>2026-05-02T08:17:31.964Z</time></trkpt><trkpt lat="44.1546314" lon="10.3667528"><ele>443.0</ele><time>2026-05-02T08:17:32.964Z</time></trkpt><trkpt lat="44.1547381" lon="10.3668051"><ele>443.0</ele><time>2026-05-02T08:17:33.964Z</time></trkpt><trkpt lat="44.1548441" lon="10.3668283"><ele>442.4</ele><time>2026-05-02T08:17:34.963Z</time></trkpt><trkpt lat="44.1549468" lon="10.3668539"><ele>441.79999999999995</ele><time>2026-05-02T08:17:35.964Z</time></trkpt><trkpt lat="44.1550426" lon="10.3668317"><ele>441.2</ele><time>2026-05-02T08:17:36.964Z</time></trkpt><trkpt lat="44.1551122" lon="10.3667152"><ele>440.6</ele><time>2026-05-02T08:17:37.964Z</time></trkpt><trkpt lat="44.1551849" lon="10.3666234"><ele>440.0</ele><time>2026-05-02T08:17:38.964Z</time></trkpt><trkpt lat="44.1552598" lon="10.3665076"><ele>440.0</ele><time>2026-05-02T08:17:39.964Z</time></trkpt><trkpt lat="44.1553397" lon="10.3663928"><ele>440.0</ele><time>2026-05-02T08:17:40.964Z</time></trkpt><trkpt lat="44.1554218" lon="10.3662765"><ele>440.0</ele><time>2026-05-02T08:17:41.964Z</time></trkpt><trkpt lat="44.1555131" lon="10.3661745"><ele>440.0</ele><time>2026-05-02T08:17:42.963Z</time></trkpt><trkpt lat="44.1556139" lon="10.3661148"><ele>439.6</ele><time>2026-05-02T08:17:43.963Z</time></trkpt><trkpt lat="44.1557302" lon="10.366069"><ele>439.2</ele><time>2026-05-02T08:17:44.963Z</time></trkpt><trkpt lat="44.1558303" lon="10.3660858"><ele>438.79999999999995</ele><time>2026-05-02T08:17:45.964Z</time></trkpt><trkpt lat="44.1559402" lon="10.3660977"><ele>438.4</ele><time>2026-05-02T08:17:46.964Z</time></trkpt><trkpt lat="44.1560454" lon="10.3660833"><ele>438.0</ele><time>2026-05-02T08:17:47.963Z</time></trkpt><trkpt lat="44.1561473" lon="10.3660593"><ele>438.0</ele><time>2026-05-02T08:17:48.964Z</time></trkpt><trkpt lat="44.1562301" lon="10.365945"><ele>437.99999999999994</ele><time>2026-05-02T08:17:49.964Z</time></trkpt><trkpt lat="44.1563001" lon="10.365842"><ele>437.99999999999994</ele><time>2026-05-02T08:17:50.963Z</time></trkpt><trkpt lat="44.1563562" lon="10.3657309"><ele>438.0</ele><time>2026-05-02T08:17:51.964Z</time></trkpt><trkpt lat="44.1564096" lon="10.3656242"><ele>438.0</ele><time>2026-05-02T08:17:52.964Z</time></trkpt><trkpt lat="44.1564644" lon="10.3655159"><ele>437.5</ele><time>2026-05-02T08:17:53.964Z</time></trkpt><trkpt lat="44.1564986" lon="10.3654057"><ele>437.0</ele><time>2026-05-02T08:17:54.964Z</time></trkpt><trkpt lat="44.156508" lon="10.3652983"><ele>436.5</ele><time>2026-05-02T08:17:55.964Z</time></trkpt><trkpt lat="44.156484" lon="10.3651819"><ele>436.0</ele><time>2026-05-02T08:17:56.964Z</time></trkpt><trkpt lat="44.1564419" lon="10.3650736"><ele>435.5</ele><time>2026-05-02T08:17:57.964Z</time></trkpt><trkpt lat="44.1563878" lon="10.3649709"><ele>435.0</ele><time>2026-05-02T08:17:58.963Z</time></trkpt><trkpt lat="44.1563277" lon="10.3648489"><ele>435.0</ele><time>2026-05-02T08:17:59.964Z</time></trkpt><trkpt lat="44.1562767" lon="10.364698"><ele>435.0</ele><time>2026-05-02T08:18:00.963Z</time></trkpt><trkpt lat="44.156253" lon="10.3645365"><ele>435.0</ele><time>2026-05-02T08:18:01.963Z</time></trkpt><trkpt lat="44.1562634" lon="10.3643641"><ele>435.0</ele><time>2026-05-02T08:18:02.964Z</time></trkpt><trkpt lat="44.1562855" lon="10.3641847"><ele>434.75</ele><time>2026-05-02T08:18:03.964Z</time></trkpt><trkpt lat="44.1563231" lon="10.3640043"><ele>434.5</ele><time>2026-05-02T08:18:04.963Z</time></trkpt><trkpt lat="44.1563594" lon="10.3637982"><ele>434.25</ele><time>2026-05-02T08:18:05.964Z</time></trkpt><trkpt lat="44.1563945" lon="10.3635855"><ele>434.0</ele><time>2026-05-02T08:18:06.964Z</time></trkpt><trkpt lat="44.1564336" lon="10.3633807"><ele>434.0</ele><time>2026-05-02T08:18:07.964Z</time></trkpt><trkpt lat="44.1564714" lon="10.3631939"><ele>434.0</ele><time>2026-05-02T08:18:08.963Z</time></trkpt><trkpt lat="44.1565096" lon="10.3630162"><ele>434.0</ele><time>2026-05-02T08:18:09.963Z</time></trkpt><trkpt lat="44.1565497" lon="10.3628453"><ele>434.0</ele><time>2026-05-02T08:18:10.963Z</time></trkpt><trkpt lat="44.1565879" lon="10.3626853"><ele>437.6</ele><time>2026-05-02T08:18:11.964Z</time></trkpt><trkpt lat="44.1566369" lon="10.3625323"><ele>441.2</ele><time>2026-05-02T08:18:12.963Z</time></trkpt><trkpt lat="44.1566973" lon="10.3624123"><ele>444.80000000000007</ele><time>2026-05-02T08:18:13.963Z</time></trkpt><trkpt lat="44.1567891" lon="10.3623503"><ele>448.40000000000003</ele><time>2026-05-02T08:18:14.964Z</time></trkpt><trkpt lat="44.1568863" lon="10.3623168"><ele>452.0</ele><time>2026-05-02T08:18:15.963Z</time></trkpt><trkpt lat="44.1569939" lon="10.3623193"><ele>452.0</ele><time>2026-05-02T08:18:16.963Z</time></trkpt><trkpt lat="44.1571059" lon="10.362329"><ele>452.00000000000006</ele><time>2026-05-02T08:18:17.964Z</time></trkpt><trkpt lat="44.157218" lon="10.3623172"><ele>452.00000000000006</ele><time>2026-05-02T08:18:18.964Z</time></trkpt><trkpt lat="44.1573165" lon="10.3622743"><ele>452.0</ele><time>2026-05-02T08:18:19.964Z</time></trkpt><trkpt lat="44.157402" lon="10.3621929"><ele>452.0</ele><time>2026-05-02T08:18:20.963Z</time></trkpt><trkpt lat="44.1574814" lon="10.3621035"><ele>452.8</ele><time>2026-05-02T08:18:21.964Z</time></trkpt><trkpt lat="44.1575659" lon="10.3620051"><ele>453.6</ele><time>2026-05-02T08:18:22.963Z</time></trkpt><trkpt lat="44.1576404" lon="10.3619142"><ele>454.40000000000003</ele><time>2026-05-02T08:18:23.964Z</time></trkpt><trkpt lat="44.1577011" lon="10.361836"><ele>455.20000000000005</ele><time>2026-05-02T08:18:24.963Z</time></trkpt><trkpt lat="44.1577626" lon="10.3617667"><ele>456.0</ele><time>2026-05-02T08:18:25.964Z</time></trkpt><trkpt lat="44.1578383" lon="10.3616611"><ele>456.0</ele><time>2026-05-02T08:18:27.963Z</time></trkpt><trkpt lat="44.1578142" lon="10.3615556"><ele>456.0</ele><time>2026-05-02T08:18:30.964Z</time></trkpt><trkpt lat="44.1577483" lon="10.3615693"><ele>456.0</ele><time>2026-05-02T08:18:33.964Z</time></trkpt><trkpt lat="44.157663" lon="10.3616283"><ele>456.0</ele><time>2026-05-02T08:18:35.964Z</time></trkpt><trkpt lat="44.1575716" lon="10.3617002"><ele>456.0</ele><time>2026-05-02T08:18:37.964Z</time></trkpt><trkpt lat="44.1574739" lon="10.3617745"><ele>453.8</ele><time>2026-05-02T08:18:39.964Z</time></trkpt><trkpt lat="44.1573601" lon="10.3617986"><ele>451.6</ele><time>2026-05-02T08:18:41.964Z</time></trkpt><trkpt lat="44.1572725" lon="10.3617211"><ele>449.4</ele><time>2026-05-02T08:18:43.964Z</time></trkpt><trkpt lat="44.157271" lon="10.3615962"><ele>447.2</ele><time>2026-05-02T08:18:45.964Z</time></trkpt><trkpt lat="44.1573092" lon="10.3614697"><ele>445.0</ele><time>2026-05-02T08:18:47.964Z</time></trkpt><trkpt lat="44.1573482" lon="10.3612947"><ele>445.6666666666667</ele><time>2026-05-02T08:18:49.964Z</time></trkpt><trkpt lat="44.1573813" lon="10.3612013"><ele>446.33333333333337</ele><time>2026-05-02T08:18:50.964Z</time></trkpt><trkpt lat="44.1574071" lon="10.361097"><ele>447.0</ele><time>2026-05-02T08:18:51.964Z</time></trkpt><trkpt lat="44.1574234" lon="10.3609857"><ele>447.66666666666663</ele><time>2026-05-02T08:18:52.964Z</time></trkpt><trkpt lat="44.1574259" lon="10.36087"><ele>448.3333333333333</ele><time>2026-05-02T08:18:53.964Z</time></trkpt><trkpt lat="44.1574306" lon="10.360759"><ele>449.0</ele><time>2026-05-02T08:18:54.964Z</time></trkpt><trkpt lat="44.1574317" lon="10.3606521"><ele>449.0</ele><time>2026-05-02T08:18:55.964Z</time></trkpt><trkpt lat="44.1574264" lon="10.3605586"><ele>449.0</ele><time>2026-05-02T08:18:56.964Z</time></trkpt><trkpt lat="44.1574034" lon="10.3604727"><ele>449.0</ele><time>2026-05-02T08:18:57.963Z</time></trkpt><trkpt lat="44.1573276" lon="10.3603438"><ele>449.0</ele><time>2026-05-02T08:18:59.964Z</time></trkpt><trkpt lat="44.1572476" lon="10.360232"><ele>449.0</ele><time>2026-05-02T08:19:01.964Z</time></trkpt><trkpt lat="44.1572085" lon="10.3601043"><ele>446.4285714285714</ele><time>2026-05-02T08:19:03.963Z</time></trkpt><trkpt lat="44.1571916" lon="10.3599832"><ele>443.8571428571428</ele><time>2026-05-02T08:19:06.963Z</time></trkpt><trkpt lat="44.157154" lon="10.3598976"><ele>441.2857142857143</ele><time>2026-05-02T08:19:08.964Z</time></trkpt><trkpt lat="44.1571402" lon="10.3598093"><ele>438.71428571428567</ele><time>2026-05-02T08:19:09.963Z</time></trkpt><trkpt lat="44.1571021" lon="10.359727"><ele>436.1428571428571</ele><time>2026-05-02T08:19:10.964Z</time></trkpt><trkpt lat="44.1570726" lon="10.3596421"><ele>433.57142857142856</ele><time>2026-05-02T08:19:11.964Z</time></trkpt><trkpt lat="44.1570334" lon="10.359565"><ele>431.0</ele><time>2026-05-02T08:19:12.964Z</time></trkpt><trkpt lat="44.1569765" lon="10.3594415"><ele>429.6</ele><time>2026-05-02T08:19:14.963Z</time></trkpt><trkpt lat="44.1569717" lon="10.3593051"><ele>428.20000000000005</ele><time>2026-05-02T08:19:16.963Z</time></trkpt><trkpt lat="44.1570338" lon="10.3591596"><ele>426.79999999999995</ele><time>2026-05-02T08:19:18.964Z</time></trkpt><trkpt lat="44.1571333" lon="10.359061"><ele>425.4</ele><time>2026-05-02T08:19:20.963Z</time></trkpt><trkpt lat="44.1571912" lon="10.3590253"><ele>424.0</ele><time>2026-05-02T08:19:21.964Z</time></trkpt><trkpt lat="44.1572795" lon="10.3589503"><ele>424.0</ele><time>2026-05-02T08:19:23.964Z</time></trkpt><trkpt lat="44.1573583" lon="10.3588813"><ele>424.0</ele><time>2026-05-02T08:19:25.963Z</time></trkpt><trkpt lat="44.1574559" lon="10.358797"><ele>424.0</ele><time>2026-05-02T08:19:27.963Z</time></trkpt><trkpt lat="44.1575678" lon="10.3587006"><ele>424.0</ele><time>2026-05-02T08:19:29.964Z</time></trkpt><trkpt lat="44.1576762" lon="10.3586121"><ele>423.79999999999995</ele><time>2026-05-02T08:19:31.963Z</time></trkpt><trkpt lat="44.1577311" lon="10.3585643"><ele>423.59999999999997</ele><time>2026-05-02T08:19:32.964Z</time></trkpt><trkpt lat="44.1578145" lon="10.3584539"><ele>423.4</ele><time>2026-05-02T08:19:34.964Z</time></trkpt><trkpt lat="44.1578851" lon="10.3583142"><ele>423.2</ele><time>2026-05-02T08:19:36.964Z</time></trkpt><trkpt lat="44.1579592" lon="10.3581753"><ele>423.0</ele><time>2026-05-02T08:19:38.964Z</time></trkpt><trkpt lat="44.1580014" lon="10.358101"><ele>421.4</ele><time>2026-05-02T08:19:39.963Z</time></trkpt><trkpt lat="44.1580401" lon="10.3580254"><ele>419.79999999999995</ele><time>2026-05-02T08:19:40.963Z</time></trkpt><trkpt lat="44.1581215" lon="10.3579048"><ele>418.2</ele><time>2026-05-02T08:19:42.964Z</time></trkpt><trkpt lat="44.1582045" lon="10.3577903"><ele>416.6</ele><time>2026-05-02T08:19:44.963Z</time></trkpt><trkpt lat="44.1582541" lon="10.3576859"><ele>415.0</ele><time>2026-05-02T08:19:46.964Z</time></trkpt><trkpt lat="44.1582683" lon="10.3575895"><ele>415.0</ele><time>2026-05-02T08:19:48.963Z</time></trkpt><trkpt lat="44.1582571" lon="10.3575019"><ele>415.0</ele><time>2026-05-02T08:19:50.963Z</time></trkpt><trkpt lat="44.1581862" lon="10.3574053"><ele>415.0</ele><time>2026-05-02T08:19:53.963Z</time></trkpt><trkpt lat="44.1580976" lon="10.3573582"><ele>415.0</ele><time>2026-05-02T08:19:55.963Z</time></trkpt><trkpt lat="44.1580071" lon="10.3573053"><ele>415.0</ele><time>2026-05-02T08:19:57.963Z</time></trkpt><trkpt lat="44.1579225" lon="10.3572447"><ele>414.4</ele><time>2026-05-02T08:19:59.964Z</time></trkpt><trkpt lat="44.157869" lon="10.3571464"><ele>413.8</ele><time>2026-05-02T08:20:01.963Z</time></trkpt><trkpt lat="44.1578479" lon="10.3569988"><ele>413.20000000000005</ele><time>2026-05-02T08:20:03.964Z</time></trkpt><trkpt lat="44.1578463" lon="10.3568878"><ele>412.6</ele><time>2026-05-02T08:20:04.963Z</time></trkpt><trkpt lat="44.1578469" lon="10.3567947"><ele>412.0</ele><time>2026-05-02T08:20:05.964Z</time></trkpt><trkpt lat="44.1578477" lon="10.3566261"><ele>412.00000000000006</ele><time>2026-05-02T08:20:07.964Z</time></trkpt><trkpt lat="44.1578615" lon="10.3565383"><ele>412.0</ele><time>2026-05-02T08:20:08.964Z</time></trkpt><trkpt lat="44.1578709" lon="10.3563835"><ele>412.0</ele><time>2026-05-02T08:20:10.963Z</time></trkpt><trkpt lat="44.1578827" lon="10.3562326"><ele>412.0</ele><time>2026-05-02T08:20:12.964Z</time></trkpt><trkpt lat="44.1578738" lon="10.3561036"><ele>412.00000000000006</ele><time>2026-05-02T08:20:14.964Z</time></trkpt><trkpt lat="44.1578726" lon="10.3560091"><ele>412.0</ele><time>2026-05-02T08:20:16.964Z</time></trkpt><trkpt lat="44.1578851" lon="10.3558881"><ele>412.6</ele><time>2026-05-02T08:20:18.964Z</time></trkpt><trkpt lat="44.1579061" lon="10.3557643"><ele>413.20000000000005</ele><time>2026-05-02T08:20:20.964Z</time></trkpt><trkpt lat="44.1579303" lon="10.3556272"><ele>413.8</ele><time>2026-05-02T08:20:22.963Z</time></trkpt><trkpt lat="44.1579678" lon="10.3554916"><ele>414.4</ele><time>2026-05-02T08:20:24.964Z</time></trkpt><trkpt lat="44.1580277" lon="10.3553522"><ele>415.0</ele><time>2026-05-02T08:20:26.963Z</time></trkpt><trkpt lat="44.1581077" lon="10.355252"><ele>415.0</ele><time>2026-05-02T08:20:28.963Z</time></trkpt><trkpt lat="44.1581486" lon="10.3551423"><ele>415.0</ele><time>2026-05-02T08:20:30.964Z</time></trkpt><trkpt lat="44.158154" lon="10.3549932"><ele>415.0</ele><time>2026-05-02T08:20:32.964Z</time></trkpt><trkpt lat="44.1581522" lon="10.3548304"><ele>415.0</ele><time>2026-05-02T08:20:34.964Z</time></trkpt><trkpt lat="44.1581432" lon="10.3546794"><ele>415.0</ele><time>2026-05-02T08:20:36.964Z</time></trkpt><trkpt lat="44.1581043" lon="10.3545248"><ele>414.83333333333337</ele><time>2026-05-02T08:20:38.964Z</time></trkpt><trkpt lat="44.1580713" lon="10.3543796"><ele>414.6666666666667</ele><time>2026-05-02T08:20:40.964Z</time></trkpt><trkpt lat="44.1580365" lon="10.3542497"><ele>414.5</ele><time>2026-05-02T08:20:42.964Z</time></trkpt><trkpt lat="44.1579961" lon="10.3541547"><ele>414.33333333333337</ele><time>2026-05-02T08:20:44.964Z</time></trkpt><trkpt lat="44.157934" lon="10.3541062"><ele>414.1666666666667</ele><time>2026-05-02T08:20:46.964Z</time></trkpt><trkpt lat="44.1578546" lon="10.3541085"><ele>414.0</ele><time>2026-05-02T08:20:48.963Z</time></trkpt><trkpt lat="44.1577875" lon="10.3541222"><ele>414.0</ele><time>2026-05-02T08:20:50.964Z</time></trkpt><trkpt lat="44.1577401" lon="10.354055"><ele>414.0</ele><time>2026-05-02T08:20:53.964Z</time></trkpt><trkpt lat="44.1577934" lon="10.3539707"><ele>414.0</ele><time>2026-05-02T08:20:56.963Z</time></trkpt><trkpt lat="44.1578674" lon="10.3538941"><ele>414.0</ele><time>2026-05-02T08:20:58.964Z</time></trkpt><trkpt lat="44.1579282" lon="10.3538069"><ele>414.0</ele><time>2026-05-02T08:21:00.964Z</time></trkpt><trkpt lat="44.1579954" lon="10.3537061"><ele>414.0</ele><time>2026-05-02T08:21:02.964Z</time></trkpt><trkpt lat="44.1580234" lon="10.3535954"><ele>412.4</ele><time>2026-05-02T08:21:04.964Z</time></trkpt><trkpt lat="44.1580313" lon="10.3534959"><ele>410.79999999999995</ele><time>2026-05-02T08:21:06.964Z</time></trkpt><trkpt lat="44.158035" lon="10.3533887"><ele>409.20000000000005</ele><time>2026-05-02T08:21:08.963Z</time></trkpt><trkpt lat="44.1580405" lon="10.35325"><ele>407.6</ele><time>2026-05-02T08:21:10.964Z</time></trkpt><trkpt lat="44.1580354" lon="10.3530894"><ele>406.0</ele><time>2026-05-02T08:21:12.964Z</time></trkpt><trkpt lat="44.158037" lon="10.3529251"><ele>404.20000000000005</ele><time>2026-05-02T08:21:14.964Z</time></trkpt><trkpt lat="44.1580325" lon="10.3528349"><ele>402.40000000000003</ele><time>2026-05-02T08:21:15.964Z</time></trkpt><trkpt lat="44.1580239" lon="10.3526679"><ele>400.6</ele><time>2026-05-02T08:21:17.964Z</time></trkpt><trkpt lat="44.1580255" lon="10.3525776"><ele>398.8</ele><time>2026-05-02T08:21:18.964Z</time></trkpt><trkpt lat="44.1580305" lon="10.3524288"><ele>397.0</ele><time>2026-05-02T08:21:20.964Z</time></trkpt><trkpt lat="44.1580309" lon="10.3522759"><ele>396.0</ele><time>2026-05-02T08:21:22.963Z</time></trkpt><trkpt lat="44.1580418" lon="10.3521135"><ele>395.0</ele><time>2026-05-02T08:21:24.963Z</time></trkpt><trkpt lat="44.1580736" lon="10.3519642"><ele>394.0</ele><time>2026-05-02T08:21:26.964Z</time></trkpt><trkpt lat="44.1581114" lon="10.3518458"><ele>393.0</ele><time>2026-05-02T08:21:28.963Z</time></trkpt><trkpt lat="44.1581343" lon="10.3517277"><ele>392.0</ele><time>2026-05-02T08:21:30.964Z</time></trkpt><trkpt lat="44.1581138" lon="10.3516095"><ele>391.99999999999994</ele><time>2026-05-02T08:21:32.964Z</time></trkpt><trkpt lat="44.1580553" lon="10.3514866"><ele>392.0</ele><time>2026-05-02T08:21:34.964Z</time></trkpt><trkpt lat="44.157998" lon="10.3514036"><ele>392.0</ele><time>2026-05-02T08:21:36.964Z</time></trkpt><trkpt lat="44.1579443" lon="10.3513422"><ele>392.0</ele><time>2026-05-02T08:21:38.964Z</time></trkpt><trkpt lat="44.1579042" lon="10.3512695"><ele>391.99999999999994</ele><time>2026-05-02T08:21:41.964Z</time></trkpt><trkpt lat="44.1578329" lon="10.3511942"><ele>392.0</ele><time>2026-05-02T08:21:44.963Z</time></trkpt><trkpt lat="44.1577948" lon="10.3510903"><ele>391.49999999999994</ele><time>2026-05-02T08:21:48.964Z</time></trkpt><trkpt lat="44.1577986" lon="10.3510018"><ele>391.0</ele><time>2026-05-02T08:21:51.963Z</time></trkpt><trkpt lat="44.1577737" lon="10.3509033"><ele>390.5</ele><time>2026-05-02T08:21:54.964Z</time></trkpt><trkpt lat="44.1577957" lon="10.3507878"><ele>390.0</ele><time>2026-05-02T08:21:58.964Z</time></trkpt><trkpt lat="44.1578206" lon="10.3506729"><ele>389.49999999999994</ele><time>2026-05-02T08:22:01.963Z</time></trkpt><trkpt lat="44.1578439" lon="10.3505844"><ele>389.0</ele><time>2026-05-02T08:22:04.964Z</time></trkpt><trkpt lat="44.1579081" lon="10.3505159"><ele>389.8333333333333</ele><time>2026-05-02T08:22:07.964Z</time></trkpt><trkpt lat="44.1579602" lon="10.350465"><ele>390.66666666666663</ele><time>2026-05-02T08:22:09.963Z</time></trkpt><trkpt lat="44.1580236" lon="10.3504094"><ele>391.5</ele><time>2026-05-02T08:22:10.964Z</time></trkpt><trkpt lat="44.1581083" lon="10.3503393"><ele>392.33333333333337</ele><time>2026-05-02T08:22:12.964Z</time></trkpt><trkpt lat="44.158166" lon="10.3502534"><ele>393.1666666666667</ele><time>2026-05-02T08:22:14.964Z</time></trkpt><trkpt lat="44.1582377" lon="10.3502111"><ele>394.0</ele><time>2026-05-02T08:22:16.964Z</time></trkpt><trkpt lat="44.1583194" lon="10.3501925"><ele>394.0</ele><time>2026-05-02T08:22:19.964Z</time></trkpt><trkpt lat="44.1583996" lon="10.3501555"><ele>394.0</ele><time>2026-05-02T08:22:22.964Z</time></trkpt><trkpt lat="44.1584954" lon="10.3501234"><ele>394.0</ele><time>2026-05-02T08:22:24.964Z</time></trkpt><trkpt lat="44.1585828" lon="10.350133"><ele>394.0</ele><time>2026-05-02T08:22:26.963Z</time></trkpt><trkpt lat="44.1587013" lon="10.3501382"><ele>394.0</ele><time>2026-05-02T08:22:28.963Z</time></trkpt><trkpt lat="44.1587665" lon="10.350149"><ele>394.00000000000006</ele><time>2026-05-02T08:22:30.964Z</time></trkpt><trkpt lat="44.1588459" lon="10.3501349"><ele>394.0</ele><time>2026-05-02T08:22:32.964Z</time></trkpt><trkpt lat="44.158937" lon="10.3501121"><ele>394.0</ele><time>2026-05-02T08:22:34.964Z</time></trkpt><trkpt lat="44.1590066" lon="10.3500847"><ele>394.0</ele><time>2026-05-02T08:22:37.964Z</time></trkpt><trkpt lat="44.1590676" lon="10.3500346"><ele>394.00000000000006</ele><time>2026-05-02T08:22:45.964Z</time></trkpt><trkpt lat="44.1590074" lon="10.3500687"><ele>394.0</ele><time>2026-05-02T08:23:25.964Z</time></trkpt><trkpt lat="44.1589392" lon="10.3500984"><ele>394.00000000000006</ele><time>2026-05-02T08:24:08.964Z</time></trkpt><trkpt lat="44.1588639" lon="10.3501086"><ele>394.0</ele><time>2026-05-02T08:24:11.963Z</time></trkpt><trkpt lat="44.1587692" lon="10.3501238"><ele>394.0</ele><time>2026-05-02T08:24:14.964Z</time></trkpt><trkpt lat="44.1587007" lon="10.3501485"><ele>394.0</ele><time>2026-05-02T08:24:16.964Z</time></trkpt><trkpt lat="44.158609" lon="10.350146"><ele>394.00000000000006</ele><time>2026-05-02T08:24:18.964Z</time></trkpt><trkpt lat="44.1585325" lon="10.3501402"><ele>394.0</ele><time>2026-05-02T08:24:20.964Z</time></trkpt><trkpt lat="44.1584675" lon="10.3501393"><ele>394.00000000000006</ele><time>2026-05-02T08:24:22.964Z</time></trkpt><trkpt lat="44.1583858" lon="10.3501683"><ele>394.0</ele><time>2026-05-02T08:24:25.964Z</time></trkpt><trkpt lat="44.1583087" lon="10.3501984"><ele>394.0</ele><time>2026-05-02T08:24:27.964Z</time></trkpt><trkpt lat="44.1582413" lon="10.3502248"><ele>394.0</ele><time>2026-05-02T08:24:29.963Z</time></trkpt><trkpt lat="44.1581635" lon="10.3502558"><ele>394.00000000000006</ele><time>2026-05-02T08:24:32.963Z</time></trkpt><trkpt lat="44.158088" lon="10.3503449"><ele>394.0</ele><time>2026-05-02T08:24:34.964Z</time></trkpt><trkpt lat="44.158001" lon="10.3504286"><ele>393.2857142857143</ele><time>2026-05-02T08:24:37.964Z</time></trkpt><trkpt lat="44.1579257" lon="10.3504941"><ele>392.57142857142856</ele><time>2026-05-02T08:24:39.963Z</time></trkpt><trkpt lat="44.157871" lon="10.3505409"><ele>391.8571428571429</ele><time>2026-05-02T08:24:41.963Z</time></trkpt><trkpt lat="44.1578247" lon="10.3506091"><ele>391.1428571428571</ele><time>2026-05-02T08:24:44.963Z</time></trkpt><trkpt lat="44.157782" lon="10.3506972"><ele>390.4285714285714</ele><time>2026-05-02T08:24:47.963Z</time></trkpt><trkpt lat="44.157765" lon="10.3507832"><ele>389.7142857142857</ele><time>2026-05-02T08:24:49.963Z</time></trkpt><trkpt lat="44.1577539" lon="10.3508817"><ele>389.0</ele><time>2026-05-02T08:24:52.964Z</time></trkpt><trkpt lat="44.1577856" lon="10.3510037"><ele>389.0</ele><time>2026-05-02T08:24:55.964Z</time></trkpt><trkpt lat="44.1577905" lon="10.351104"><ele>389.0</ele><time>2026-05-02T08:24:57.964Z</time></trkpt><trkpt lat="44.1578116" lon="10.3512283"><ele>389.0</ele><time>2026-05-02T08:25:00.964Z</time></trkpt><trkpt lat="44.1578955" lon="10.3512986"><ele>389.0</ele><time>2026-05-02T08:25:02.963Z</time></trkpt><trkpt lat="44.1579597" lon="10.3513993"><ele>389.0</ele><time>2026-05-02T08:25:04.963Z</time></trkpt><trkpt lat="44.1580332" lon="10.3515106"><ele>389.6</ele><time>2026-05-02T08:25:06.964Z</time></trkpt><trkpt lat="44.158089" lon="10.3516141"><ele>390.2</ele><time>2026-05-02T08:25:08.964Z</time></trkpt><trkpt lat="44.1581069" lon="10.3517426"><ele>390.8</ele><time>2026-05-02T08:25:10.964Z</time></trkpt><trkpt lat="44.1580715" lon="10.3519038"><ele>391.40000000000003</ele><time>2026-05-02T08:25:12.964Z</time></trkpt><trkpt lat="44.1580479" lon="10.3519877"><ele>392.0</ele><time>2026-05-02T08:25:13.963Z</time></trkpt><trkpt lat="44.1580208" lon="10.352161"><ele>392.8333333333333</ele><time>2026-05-02T08:25:15.964Z</time></trkpt><trkpt lat="44.1580172" lon="10.3522606"><ele>393.66666666666663</ele><time>2026-05-02T08:25:16.964Z</time></trkpt><trkpt lat="44.1580177" lon="10.3523618"><ele>394.5</ele><time>2026-05-02T08:25:17.964Z</time></trkpt><trkpt lat="44.1580155" lon="10.3524537"><ele>395.33333333333337</ele><time>2026-05-02T08:25:18.964Z</time></trkpt><trkpt lat="44.158016" lon="10.3525516"><ele>396.1666666666667</ele><time>2026-05-02T08:25:19.964Z</time></trkpt><trkpt lat="44.1580101" lon="10.3527211"><ele>397.0</ele><time>2026-05-02T08:25:21.963Z</time></trkpt><trkpt lat="44.1580141" lon="10.3528116"><ele>397.0</ele><time>2026-05-02T08:25:22.964Z</time></trkpt><trkpt lat="44.1580149" lon="10.3529066"><ele>397.0</ele><time>2026-05-02T08:25:23.964Z</time></trkpt><trkpt lat="44.1580159" lon="10.3530037"><ele>397.0</ele><time>2026-05-02T08:25:24.964Z</time></trkpt><trkpt lat="44.1580178" lon="10.3530921"><ele>397.0</ele><time>2026-05-02T08:25:25.963Z</time></trkpt><trkpt lat="44.158023" lon="10.3531817"><ele>397.0</ele><time>2026-05-02T08:25:26.964Z</time></trkpt><trkpt lat="44.1580284" lon="10.3532815"><ele>397.0</ele><time>2026-05-02T08:25:27.964Z</time></trkpt><trkpt lat="44.1580256" lon="10.3533773"><ele>397.0</ele><time>2026-05-02T08:25:28.964Z</time></trkpt><trkpt lat="44.1580147" lon="10.3535312"><ele>398.8</ele><time>2026-05-02T08:25:30.963Z</time></trkpt><trkpt lat="44.1579891" lon="10.3536702"><ele>400.6</ele><time>2026-05-02T08:25:32.963Z</time></trkpt><trkpt lat="44.157911" lon="10.3538067"><ele>402.40000000000003</ele><time>2026-05-02T08:25:34.964Z</time></trkpt><trkpt lat="44.1578645" lon="10.353871"><ele>404.20000000000005</ele><time>2026-05-02T08:25:35.964Z</time></trkpt><trkpt lat="44.157783" lon="10.3539649"><ele>406.0</ele><time>2026-05-02T08:25:37.964Z</time></trkpt><trkpt lat="44.1577419" lon="10.3540494"><ele>407.6</ele><time>2026-05-02T08:25:39.964Z</time></trkpt><trkpt lat="44.1577458" lon="10.3541631"><ele>409.20000000000005</ele><time>2026-05-02T08:25:42.963Z</time></trkpt><trkpt lat="44.1578354" lon="10.3541397"><ele>410.79999999999995</ele><time>2026-05-02T08:25:44.964Z</time></trkpt><trkpt lat="44.1579326" lon="10.3541223"><ele>412.4</ele><time>2026-05-02T08:25:46.963Z</time></trkpt><trkpt lat="44.1580011" lon="10.3542232"><ele>414.0</ele><time>2026-05-02T08:25:48.964Z</time></trkpt><trkpt lat="44.158047" lon="10.3543797"><ele>414.0</ele><time>2026-05-02T08:25:50.964Z</time></trkpt><trkpt lat="44.1580611" lon="10.3544785"><ele>414.0</ele><time>2026-05-02T08:25:51.964Z</time></trkpt><trkpt lat="44.1580903" lon="10.3545602"><ele>414.0</ele><time>2026-05-02T08:25:52.964Z</time></trkpt><trkpt lat="44.1581176" lon="10.3547112"><ele>414.0</ele><time>2026-05-02T08:25:54.963Z</time></trkpt><trkpt lat="44.1581326" lon="10.3548689"><ele>414.0</ele><time>2026-05-02T08:25:56.963Z</time></trkpt><trkpt lat="44.1581271" lon="10.355004"><ele>414.2</ele><time>2026-05-02T08:25:58.963Z</time></trkpt><trkpt lat="44.1581335" lon="10.3551308"><ele>414.4</ele><time>2026-05-02T08:26:00.964Z</time></trkpt><trkpt lat="44.1580871" lon="10.3552461"><ele>414.6</ele><time>2026-05-02T08:26:02.963Z</time></trkpt><trkpt lat="44.158006" lon="10.3553427"><ele>414.8</ele><time>2026-05-02T08:26:04.964Z</time></trkpt><trkpt lat="44.1579511" lon="10.3554719"><ele>415.0</ele><time>2026-05-02T08:26:06.964Z</time></trkpt><trkpt lat="44.1579161" lon="10.3556122"><ele>415.0</ele><time>2026-05-02T08:26:08.963Z</time></trkpt><trkpt lat="44.1578809" lon="10.3557521"><ele>415.0</ele><time>2026-05-02T08:26:10.963Z</time></trkpt><trkpt lat="44.1578489" lon="10.3559042"><ele>415.0</ele><time>2026-05-02T08:26:12.964Z</time></trkpt><trkpt lat="44.1578375" lon="10.356053"><ele>415.0</ele><time>2026-05-02T08:26:14.964Z</time></trkpt><trkpt lat="44.1578453" lon="10.3562055"><ele>415.0</ele><time>2026-05-02T08:26:16.963Z</time></trkpt><trkpt lat="44.157857" lon="10.3563842"><ele>414.50000000000006</ele><time>2026-05-02T08:26:18.964Z</time></trkpt><trkpt lat="44.157867" lon="10.3564742"><ele>414.0</ele><time>2026-05-02T08:26:19.964Z</time></trkpt><trkpt lat="44.1578547" lon="10.3565727"><ele>413.5</ele><time>2026-05-02T08:26:20.964Z</time></trkpt><trkpt lat="44.1578472" lon="10.3566763"><ele>413.0</ele><time>2026-05-02T08:26:21.963Z</time></trkpt><trkpt lat="44.1578447" lon="10.3567853"><ele>412.50000000000006</ele><time>2026-05-02T08:26:22.964Z</time></trkpt><trkpt lat="44.1578441" lon="10.3568915"><ele>412.0</ele><time>2026-05-02T08:26:23.963Z</time></trkpt><trkpt lat="44.1578432" lon="10.357067"><ele>412.0</ele><time>2026-05-02T08:26:25.964Z</time></trkpt><trkpt lat="44.1578797" lon="10.357198"><ele>412.0</ele><time>2026-05-02T08:26:27.964Z</time></trkpt><trkpt lat="44.157944" lon="10.3572905"><ele>412.0</ele><time>2026-05-02T08:26:29.964Z</time></trkpt><trkpt lat="44.1580049" lon="10.357319"><ele>412.0</ele><time>2026-05-02T08:26:30.963Z</time></trkpt><trkpt lat="44.1581183" lon="10.3573934"><ele>412.0</ele><time>2026-05-02T08:26:32.964Z</time></trkpt><trkpt lat="44.1582013" lon="10.3574379"><ele>412.6</ele><time>2026-05-02T08:26:34.964Z</time></trkpt><trkpt lat="44.1582481" lon="10.3575237"><ele>413.20000000000005</ele><time>2026-05-02T08:26:36.963Z</time></trkpt><trkpt lat="44.1582386" lon="10.3576721"><ele>413.8</ele><time>2026-05-02T08:26:38.963Z</time></trkpt><trkpt lat="44.1582048" lon="10.3577499"><ele>414.4</ele><time>2026-05-02T08:26:39.964Z</time></trkpt><trkpt lat="44.1581091" lon="10.3578958"><ele>415.0</ele><time>2026-05-02T08:26:41.964Z</time></trkpt><trkpt lat="44.158063" lon="10.3579655"><ele>416.33333333333337</ele><time>2026-05-02T08:26:42.963Z</time></trkpt><trkpt lat="44.1580021" lon="10.3580503"><ele>417.6666666666667</ele><time>2026-05-02T08:26:43.963Z</time></trkpt><trkpt lat="44.157959" lon="10.3581406"><ele>419.0</ele><time>2026-05-02T08:26:44.964Z</time></trkpt><trkpt lat="44.1579078" lon="10.3582298"><ele>420.33333333333337</ele><time>2026-05-02T08:26:45.964Z</time></trkpt><trkpt lat="44.157866" lon="10.3583174"><ele>421.6666666666667</ele><time>2026-05-02T08:26:46.964Z</time></trkpt><trkpt lat="44.1578242" lon="10.3584018"><ele>423.0</ele><time>2026-05-02T08:26:47.964Z</time></trkpt><trkpt lat="44.1577788" lon="10.3584746"><ele>423.0</ele><time>2026-05-02T08:26:48.964Z</time></trkpt><trkpt lat="44.1577226" lon="10.3585402"><ele>423.0</ele><time>2026-05-02T08:26:49.964Z</time></trkpt><trkpt lat="44.157649" lon="10.3586043"><ele>423.0</ele><time>2026-05-02T08:26:50.964Z</time></trkpt><trkpt lat="44.1575772" lon="10.3586671"><ele>423.0</ele><time>2026-05-02T08:26:51.964Z</time></trkpt><trkpt lat="44.1575061" lon="10.3587298"><ele>423.0</ele><time>2026-05-02T08:26:52.964Z</time></trkpt><trkpt lat="44.1574408" lon="10.3587921"><ele>423.0</ele><time>2026-05-02T08:26:53.964Z</time></trkpt><trkpt lat="44.1573791" lon="10.3588483"><ele>423.2</ele><time>2026-05-02T08:26:54.964Z</time></trkpt><trkpt lat="44.1573184" lon="10.3588979"><ele>423.4</ele><time>2026-05-02T08:26:55.964Z</time></trkpt><trkpt lat="44.1572052" lon="10.3589896"><ele>423.59999999999997</ele><time>2026-05-02T08:26:57.963Z</time></trkpt><trkpt lat="44.1571471" lon="10.3590351"><ele>423.79999999999995</ele><time>2026-05-02T08:26:58.963Z</time></trkpt><trkpt lat="44.1570379" lon="10.3591146"><ele>424.0</ele><time>2026-05-02T08:27:00.964Z</time></trkpt><trkpt lat="44.1569687" lon="10.3592521"><ele>424.00000000000006</ele><time>2026-05-02T08:27:02.964Z</time></trkpt><trkpt lat="44.1569353" lon="10.3593396"><ele>424.0</ele><time>2026-05-02T08:27:03.963Z</time></trkpt><trkpt lat="44.1569809" lon="10.3595026"><ele>424.0</ele><time>2026-05-02T08:27:05.964Z</time></trkpt><trkpt lat="44.1570273" lon="10.3595848"><ele>424.0</ele><time>2026-05-02T08:27:06.963Z</time></trkpt><trkpt lat="44.1570709" lon="10.3596763"><ele>424.00000000000006</ele><time>2026-05-02T08:27:07.964Z</time></trkpt><trkpt lat="44.1570988" lon="10.3597747"><ele>424.0</ele><time>2026-05-02T08:27:08.963Z</time></trkpt><trkpt lat="44.1571532" lon="10.359917"><ele>425.4</ele><time>2026-05-02T08:27:10.964Z</time></trkpt><trkpt lat="44.157191" lon="10.3600342"><ele>426.79999999999995</ele><time>2026-05-02T08:27:12.963Z</time></trkpt><trkpt lat="44.157211" lon="10.3601882"><ele>428.20000000000005</ele><time>2026-05-02T08:27:14.964Z</time></trkpt><trkpt lat="44.1572521" lon="10.3602559"><ele>429.6</ele><time>2026-05-02T08:27:15.964Z</time></trkpt><trkpt lat="44.1573367" lon="10.360391"><ele>431.0</ele><time>2026-05-02T08:27:17.963Z</time></trkpt><trkpt lat="44.157391" lon="10.3604814"><ele>431.99999999999994</ele><time>2026-05-02T08:27:18.964Z</time></trkpt><trkpt lat="44.1574157" lon="10.360596"><ele>433.0</ele><time>2026-05-02T08:27:19.964Z</time></trkpt><trkpt lat="44.1574222" lon="10.3607281"><ele>434.0</ele><time>2026-05-02T08:27:20.964Z</time></trkpt><trkpt lat="44.1574162" lon="10.3608621"><ele>435.0</ele><time>2026-05-02T08:27:21.964Z</time></trkpt><trkpt lat="44.1574082" lon="10.3609842"><ele>435.99999999999994</ele><time>2026-05-02T08:27:22.964Z</time></trkpt><trkpt lat="44.1573913" lon="10.3610985"><ele>437.0</ele><time>2026-05-02T08:27:23.964Z</time></trkpt><trkpt lat="44.1573656" lon="10.3612113"><ele>437.0</ele><time>2026-05-02T08:27:24.964Z</time></trkpt><trkpt lat="44.1573432" lon="10.3613044"><ele>437.0</ele><time>2026-05-02T08:27:25.963Z</time></trkpt><trkpt lat="44.1573209" lon="10.3613987"><ele>437.0</ele><time>2026-05-02T08:27:26.963Z</time></trkpt><trkpt lat="44.1572979" lon="10.3614843"><ele>437.0</ele><time>2026-05-02T08:27:27.964Z</time></trkpt><trkpt lat="44.1572824" lon="10.3615738"><ele>437.0</ele><time>2026-05-02T08:27:28.964Z</time></trkpt><trkpt lat="44.1572747" lon="10.3616609"><ele>437.0</ele><time>2026-05-02T08:27:29.964Z</time></trkpt><trkpt lat="44.1573215" lon="10.3617926"><ele>437.0</ele><time>2026-05-02T08:27:31.964Z</time></trkpt><trkpt lat="44.1574328" lon="10.3617966"><ele>440.16666666666663</ele><time>2026-05-02T08:27:33.964Z</time></trkpt><trkpt lat="44.1575481" lon="10.3617131"><ele>443.3333333333333</ele><time>2026-05-02T08:27:35.964Z</time></trkpt><trkpt lat="44.1576077" lon="10.3616495"><ele>446.5</ele><time>2026-05-02T08:27:36.963Z</time></trkpt><trkpt lat="44.1576656" lon="10.3616011"><ele>449.66666666666663</ele><time>2026-05-02T08:27:37.964Z</time></trkpt><trkpt lat="44.1577402" lon="10.3615966"><ele>452.8333333333333</ele><time>2026-05-02T08:27:39.964Z</time></trkpt><trkpt lat="44.1578313" lon="10.3615791"><ele>456.0</ele><time>2026-05-02T08:27:57.964Z</time></trkpt><trkpt lat="44.1579377" lon="10.3615047"><ele>456.0</ele><time>2026-05-02T08:27:59.964Z</time></trkpt><trkpt lat="44.1579877" lon="10.3614177"><ele>456.0</ele><time>2026-05-02T08:28:00.963Z</time></trkpt><trkpt lat="44.158041" lon="10.3613151"><ele>456.0</ele><time>2026-05-02T08:28:01.964Z</time></trkpt><trkpt lat="44.1580911" lon="10.3611863"><ele>456.0</ele><time>2026-05-02T08:28:02.964Z</time></trkpt><trkpt lat="44.1581251" lon="10.3610385"><ele>456.0</ele><time>2026-05-02T08:28:03.963Z</time></trkpt><trkpt lat="44.1581543" lon="10.3608813"><ele>457.5</ele><time>2026-05-02T08:28:04.963Z</time></trkpt><trkpt lat="44.1581847" lon="10.3607172"><ele>459.0</ele><time>2026-05-02T08:28:05.963Z</time></trkpt><trkpt lat="44.1582172" lon="10.3605488"><ele>460.5</ele><time>2026-05-02T08:28:06.963Z</time></trkpt><trkpt lat="44.1582489" lon="10.3603992"><ele>462.0</ele><time>2026-05-02T08:28:07.963Z</time></trkpt><trkpt lat="44.1582858" lon="10.360233"><ele>462.0</ele><time>2026-05-02T08:28:08.963Z</time></trkpt><trkpt lat="44.1583442" lon="10.3601483"><ele>462.00000000000006</ele><time>2026-05-02T08:28:09.963Z</time></trkpt><trkpt lat="44.1584176" lon="10.3600527"><ele>462.00000000000006</ele><time>2026-05-02T08:28:10.963Z</time></trkpt><trkpt lat="44.1585052" lon="10.3599779"><ele>462.0</ele><time>2026-05-02T08:28:11.963Z</time></trkpt><trkpt lat="44.1586052" lon="10.3599294"><ele>462.0</ele><time>2026-05-02T08:28:12.964Z</time></trkpt><trkpt lat="44.1587136" lon="10.3598883"><ele>462.0</ele><time>2026-05-02T08:28:13.963Z</time></trkpt><trkpt lat="44.1588233" lon="10.3598411"><ele>462.0</ele><time>2026-05-02T08:28:14.964Z</time></trkpt><trkpt lat="44.1589543" lon="10.3598014"><ele>462.0</ele><time>2026-05-02T08:28:15.964Z</time></trkpt><trkpt lat="44.1590669" lon="10.3597523"><ele>462.0</ele><time>2026-05-02T08:28:16.964Z</time></trkpt><trkpt lat="44.1592112" lon="10.3597028"><ele>461.5</ele><time>2026-05-02T08:28:17.964Z</time></trkpt><trkpt lat="44.1593453" lon="10.3596492"><ele>461.0</ele><time>2026-05-02T08:28:18.964Z</time></trkpt><trkpt lat="44.1594846" lon="10.3596117"><ele>460.5</ele><time>2026-05-02T08:28:19.964Z</time></trkpt><trkpt lat="44.1596219" lon="10.3595546"><ele>460.0</ele><time>2026-05-02T08:28:20.964Z</time></trkpt><trkpt lat="44.1597446" lon="10.3595022"><ele>460.0</ele><time>2026-05-02T08:28:21.964Z</time></trkpt><trkpt lat="44.1598663" lon="10.3594223"><ele>460.0</ele><time>2026-05-02T08:28:22.964Z</time></trkpt><trkpt lat="44.1599797" lon="10.359327"><ele>460.0</ele><time>2026-05-02T08:28:23.964Z</time></trkpt><trkpt lat="44.1600816" lon="10.3592148"><ele>460.0</ele><time>2026-05-02T08:28:24.964Z</time></trkpt><trkpt lat="44.1601732" lon="10.3590852"><ele>462.75</ele><time>2026-05-02T08:28:25.964Z</time></trkpt><trkpt lat="44.1602656" lon="10.3589438"><ele>465.5</ele><time>2026-05-02T08:28:26.964Z</time></trkpt><trkpt lat="44.1603594" lon="10.3587926"><ele>468.25</ele><time>2026-05-02T08:28:27.964Z</time></trkpt><trkpt lat="44.1604516" lon="10.3586425"><ele>471.0</ele><time>2026-05-02T08:28:28.964Z</time></trkpt><trkpt lat="44.1605446" lon="10.3584963"><ele>471.0</ele><time>2026-05-02T08:28:29.964Z</time></trkpt><trkpt lat="44.1606399" lon="10.3583519"><ele>471.0</ele><time>2026-05-02T08:28:30.963Z</time></trkpt><trkpt lat="44.1607294" lon="10.3582009"><ele>471.0</ele><time>2026-05-02T08:28:31.963Z</time></trkpt><trkpt lat="44.1608142" lon="10.3580475"><ele>471.0</ele><time>2026-05-02T08:28:32.964Z</time></trkpt><trkpt lat="44.1608944" lon="10.3578883"><ele>473.33333333333337</ele><time>2026-05-02T08:28:33.964Z</time></trkpt><trkpt lat="44.1609649" lon="10.3577186"><ele>475.6666666666667</ele><time>2026-05-02T08:28:34.963Z</time></trkpt><trkpt lat="44.1610764" lon="10.3573607"><ele>478.0</ele><time>2026-05-02T08:28:36.964Z</time></trkpt><trkpt lat="44.1611312" lon="10.3571765"><ele>478.0</ele><time>2026-05-02T08:28:37.964Z</time></trkpt><trkpt lat="44.1611819" lon="10.3569994"><ele>478.0</ele><time>2026-05-02T08:28:38.964Z</time></trkpt><trkpt lat="44.1612254" lon="10.3568296"><ele>478.0</ele><time>2026-05-02T08:28:39.964Z</time></trkpt><trkpt lat="44.1612724" lon="10.3566612"><ele>478.0</ele><time>2026-05-02T08:28:40.964Z</time></trkpt><trkpt lat="44.161316" lon="10.3565048"><ele>479.0</ele><time>2026-05-02T08:28:41.964Z</time></trkpt><trkpt lat="44.1613616" lon="10.3563601"><ele>479.99999999999994</ele><time>2026-05-02T08:28:42.964Z</time></trkpt><trkpt lat="44.1614032" lon="10.3562215"><ele>480.99999999999994</ele><time>2026-05-02T08:28:43.964Z</time></trkpt><trkpt lat="44.1614344" lon="10.3561068"><ele>482.0</ele><time>2026-05-02T08:28:44.963Z</time></trkpt><trkpt lat="44.1614629" lon="10.3559853"><ele>483.0</ele><time>2026-05-02T08:28:45.964Z</time></trkpt><trkpt lat="44.1614421" lon="10.3558625"><ele>483.0</ele><time>2026-05-02T08:28:46.963Z</time></trkpt><trkpt lat="44.1614026" lon="10.3557497"><ele>482.99999999999994</ele><time>2026-05-02T08:28:47.964Z</time></trkpt><trkpt lat="44.1613434" lon="10.355658"><ele>482.99999999999994</ele><time>2026-05-02T08:28:48.963Z</time></trkpt><trkpt lat="44.161276" lon="10.355564"><ele>483.0</ele><time>2026-05-02T08:28:49.964Z</time></trkpt><trkpt lat="44.1612059" lon="10.3554661"><ele>483.0</ele><time>2026-05-02T08:28:50.963Z</time></trkpt><trkpt lat="44.1611279" lon="10.3553661"><ele>485.25</ele><time>2026-05-02T08:28:51.963Z</time></trkpt><trkpt lat="44.161043" lon="10.3552549"><ele>487.5</ele><time>2026-05-02T08:28:52.964Z</time></trkpt><trkpt lat="44.1609529" lon="10.3551411"><ele>489.75</ele><time>2026-05-02T08:28:53.964Z</time></trkpt><trkpt lat="44.1608635" lon="10.3550359"><ele>492.0</ele><time>2026-05-02T08:28:54.964Z</time></trkpt><trkpt lat="44.1607806" lon="10.3549327"><ele>492.0</ele><time>2026-05-02T08:28:55.964Z</time></trkpt><trkpt lat="44.1607049" lon="10.3548233"><ele>492.00000000000006</ele><time>2026-05-02T08:28:56.964Z</time></trkpt><trkpt lat="44.160638" lon="10.3547147"><ele>492.00000000000006</ele><time>2026-05-02T08:28:57.964Z</time></trkpt><trkpt lat="44.1606393" lon="10.3545882"><ele>492.0</ele><time>2026-05-02T08:28:58.964Z</time></trkpt><trkpt lat="44.1606323" lon="10.354461"><ele>492.0</ele><time>2026-05-02T08:28:59.964Z</time></trkpt><trkpt lat="44.1606631" lon="10.3543454"><ele>491.20000000000005</ele><time>2026-05-02T08:29:00.963Z</time></trkpt><trkpt lat="44.1607181" lon="10.3542453"><ele>490.40000000000003</ele><time>2026-05-02T08:29:01.964Z</time></trkpt><trkpt lat="44.1607698" lon="10.3541333"><ele>489.59999999999997</ele><time>2026-05-02T08:29:02.964Z</time></trkpt><trkpt lat="44.1608235" lon="10.3540126"><ele>488.79999999999995</ele><time>2026-05-02T08:29:03.964Z</time></trkpt><trkpt lat="44.1608807" lon="10.3538916"><ele>488.0</ele><time>2026-05-02T08:29:04.964Z</time></trkpt><trkpt lat="44.1609448" lon="10.3537764"><ele>487.99999999999994</ele><time>2026-05-02T08:29:05.964Z</time></trkpt><trkpt lat="44.1610169" lon="10.3536757"><ele>488.0</ele><time>2026-05-02T08:29:06.964Z</time></trkpt><trkpt lat="44.1610939" lon="10.3536102"><ele>488.0</ele><time>2026-05-02T08:29:07.964Z</time></trkpt><trkpt lat="44.1611635" lon="10.3535786"><ele>488.0</ele><time>2026-05-02T08:29:08.964Z</time></trkpt><trkpt lat="44.1612556" lon="10.3536069"><ele>487.99999999999994</ele><time>2026-05-02T08:29:09.963Z</time></trkpt><trkpt lat="44.1613401" lon="10.3536415"><ele>488.0</ele><time>2026-05-02T08:29:10.964Z</time></trkpt><trkpt lat="44.161431" lon="10.3537191"><ele>488.0</ele><time>2026-05-02T08:29:11.964Z</time></trkpt><trkpt lat="44.1615215" lon="10.3538147"><ele>488.0</ele><time>2026-05-02T08:29:12.964Z</time></trkpt><trkpt lat="44.1616104" lon="10.3538963"><ele>488.0</ele><time>2026-05-02T08:29:13.963Z</time></trkpt><trkpt lat="44.1617038" lon="10.353999"><ele>488.0</ele><time>2026-05-02T08:29:14.964Z</time></trkpt><trkpt lat="44.1617939" lon="10.354099"><ele>491.0</ele><time>2026-05-02T08:29:15.964Z</time></trkpt><trkpt lat="44.1618803" lon="10.3541949"><ele>493.99999999999994</ele><time>2026-05-02T08:29:16.963Z</time></trkpt><trkpt lat="44.1619673" lon="10.3542894"><ele>496.99999999999994</ele><time>2026-05-02T08:29:17.964Z</time></trkpt><trkpt lat="44.1620542" lon="10.3543781"><ele>500.0</ele><time>2026-05-02T08:29:18.964Z</time></trkpt><trkpt lat="44.1621396" lon="10.3544477"><ele>503.0</ele><time>2026-05-02T08:29:19.964Z</time></trkpt><trkpt lat="44.1622214" lon="10.3545014"><ele>503.0</ele><time>2026-05-02T08:29:20.964Z</time></trkpt><trkpt lat="44.1623175" lon="10.3545343"><ele>502.99999999999994</ele><time>2026-05-02T08:29:21.964Z</time></trkpt><trkpt lat="44.1624221" lon="10.3545553"><ele>502.99999999999994</ele><time>2026-05-02T08:29:22.964Z</time></trkpt><trkpt lat="44.1625331" lon="10.3545782"><ele>503.0</ele><time>2026-05-02T08:29:23.963Z</time></trkpt><trkpt lat="44.1626343" lon="10.3545692"><ele>503.0</ele><time>2026-05-02T08:29:24.964Z</time></trkpt><trkpt lat="44.1627405" lon="10.3545695"><ele>501.59999999999997</ele><time>2026-05-02T08:29:25.964Z</time></trkpt><trkpt lat="44.1628434" lon="10.3545708"><ele>500.19999999999993</ele><time>2026-05-02T08:29:26.964Z</time></trkpt><trkpt lat="44.1629569" lon="10.3545476"><ele>498.8</ele><time>2026-05-02T08:29:27.963Z</time></trkpt><trkpt lat="44.1630679" lon="10.3545365"><ele>497.4</ele><time>2026-05-02T08:29:28.964Z</time></trkpt><trkpt lat="44.1631742" lon="10.3545228"><ele>496.0</ele><time>2026-05-02T08:29:29.963Z</time></trkpt><trkpt lat="44.1632705" lon="10.3545098"><ele>496.00000000000006</ele><time>2026-05-02T08:29:30.964Z</time></trkpt><trkpt lat="44.1633677" lon="10.3544821"><ele>496.0</ele><time>2026-05-02T08:29:31.963Z</time></trkpt><trkpt lat="44.1634568" lon="10.354474"><ele>496.0</ele><time>2026-05-02T08:29:32.964Z</time></trkpt><trkpt lat="44.1635426" lon="10.3544505"><ele>496.0</ele><time>2026-05-02T08:29:33.964Z</time></trkpt><trkpt lat="44.1636241" lon="10.3544334"><ele>496.00000000000006</ele><time>2026-05-02T08:29:34.964Z</time></trkpt><trkpt lat="44.1636992" lon="10.3544141"><ele>496.0</ele><time>2026-05-02T08:29:35.964Z</time></trkpt><trkpt lat="44.1637639" lon="10.3544064"><ele>496.0</ele><time>2026-05-02T08:29:36.964Z</time></trkpt><trkpt lat="44.163863" lon="10.3543988"><ele>496.0</ele><time>2026-05-02T08:29:38.963Z</time></trkpt><trkpt lat="44.1639207" lon="10.3544431"><ele>496.0</ele><time>2026-05-02T08:29:41.964Z</time></trkpt><trkpt lat="44.1640338" lon="10.3543695"><ele>496.0</ele><time>2026-05-02T08:30:29.964Z</time></trkpt><trkpt lat="44.1640989" lon="10.3543202"><ele>496.0</ele><time>2026-05-02T08:30:30.964Z</time></trkpt><trkpt lat="44.1641746" lon="10.3542434"><ele>496.25</ele><time>2026-05-02T08:30:31.964Z</time></trkpt><trkpt lat="44.1642634" lon="10.3541506"><ele>496.5</ele><time>2026-05-02T08:30:32.964Z</time></trkpt><trkpt lat="44.1643532" lon="10.3540467"><ele>496.75</ele><time>2026-05-02T08:30:33.964Z</time></trkpt><trkpt lat="44.1644465" lon="10.3539048"><ele>497.0</ele><time>2026-05-02T08:30:34.964Z</time></trkpt><trkpt lat="44.1645368" lon="10.3537513"><ele>498.3333333333333</ele><time>2026-05-02T08:30:35.964Z</time></trkpt><trkpt lat="44.1646435" lon="10.3535901"><ele>499.66666666666663</ele><time>2026-05-02T08:30:36.964Z</time></trkpt><trkpt lat="44.1647538" lon="10.353433"><ele>501.0</ele><time>2026-05-02T08:30:37.963Z</time></trkpt><trkpt lat="44.1648727" lon="10.3532905"><ele>501.0</ele><time>2026-05-02T08:30:38.964Z</time></trkpt><trkpt lat="44.1649933" lon="10.3531603"><ele>501.0</ele><time>2026-05-02T08:30:39.964Z</time></trkpt><trkpt lat="44.1651373" lon="10.3530786"><ele>501.0</ele><time>2026-05-02T08:30:40.963Z</time></trkpt><trkpt lat="44.1652895" lon="10.3530033"><ele>499.0</ele><time>2026-05-02T08:30:41.964Z</time></trkpt><trkpt lat="44.1654519" lon="10.3529389"><ele>497.0</ele><time>2026-05-02T08:30:42.964Z</time></trkpt><trkpt lat="44.1656199" lon="10.3528788"><ele>495.0</ele><time>2026-05-02T08:30:43.964Z</time></trkpt><trkpt lat="44.1657855" lon="10.3528139"><ele>495.0</ele><time>2026-05-02T08:30:44.964Z</time></trkpt><trkpt lat="44.1659473" lon="10.3527386"><ele>495.0</ele><time>2026-05-02T08:30:45.963Z</time></trkpt><trkpt lat="44.1661131" lon="10.3526775"><ele>495.0</ele><time>2026-05-02T08:30:46.964Z</time></trkpt><trkpt lat="44.1662655" lon="10.3526177"><ele>495.0</ele><time>2026-05-02T08:30:47.963Z</time></trkpt><trkpt lat="44.166424" lon="10.352562"><ele>495.0</ele><time>2026-05-02T08:30:48.963Z</time></trkpt><trkpt lat="44.1665711" lon="10.3525066"><ele>495.0</ele><time>2026-05-02T08:30:49.963Z</time></trkpt><trkpt lat="44.1667077" lon="10.3524317"><ele>493.0</ele><time>2026-05-02T08:30:50.964Z</time></trkpt><trkpt lat="44.1668357" lon="10.3523381"><ele>491.0</ele><time>2026-05-02T08:30:51.964Z</time></trkpt><trkpt lat="44.166952" lon="10.3522132"><ele>489.0</ele><time>2026-05-02T08:30:52.963Z</time></trkpt><trkpt lat="44.1670636" lon="10.3520773"><ele>487.0</ele><time>2026-05-02T08:30:53.964Z</time></trkpt><trkpt lat="44.1671727" lon="10.3519524"><ele>487.0</ele><time>2026-05-02T08:30:54.964Z</time></trkpt><trkpt lat="44.1672829" lon="10.3518394"><ele>487.0</ele><time>2026-05-02T08:30:55.964Z</time></trkpt><trkpt lat="44.1673846" lon="10.351746"><ele>487.0</ele><time>2026-05-02T08:30:56.964Z</time></trkpt><trkpt lat="44.1675075" lon="10.3516783"><ele>487.0</ele><time>2026-05-02T08:30:57.964Z</time></trkpt><trkpt lat="44.1676327" lon="10.3516499"><ele>493.0</ele><time>2026-05-02T08:30:58.964Z</time></trkpt><trkpt lat="44.1677612" lon="10.3516585"><ele>499.0</ele><time>2026-05-02T08:30:59.964Z</time></trkpt><trkpt lat="44.1678918" lon="10.351666"><ele>505.0</ele><time>2026-05-02T08:31:00.964Z</time></trkpt><trkpt lat="44.1680162" lon="10.3516986"><ele>511.0</ele><time>2026-05-02T08:31:01.963Z</time></trkpt><trkpt lat="44.1681349" lon="10.3517382"><ele>514.75</ele><time>2026-05-02T08:31:02.964Z</time></trkpt><trkpt lat="44.1682416" lon="10.3517765"><ele>518.5</ele><time>2026-05-02T08:31:03.964Z</time></trkpt><trkpt lat="44.1684467" lon="10.3517475"><ele>522.25</ele><time>2026-05-02T08:31:05.964Z</time></trkpt><trkpt lat="44.1685245" lon="10.3516907"><ele>526.0</ele><time>2026-05-02T08:31:06.964Z</time></trkpt><trkpt lat="44.1685788" lon="10.3515858"><ele>526.0</ele><time>2026-05-02T08:31:07.964Z</time></trkpt><trkpt lat="44.1686124" lon="10.3514564"><ele>526.0</ele><time>2026-05-02T08:31:08.964Z</time></trkpt><trkpt lat="44.1686438" lon="10.3513147"><ele>526.0</ele><time>2026-05-02T08:31:09.964Z</time></trkpt><trkpt lat="44.168674" lon="10.3511678"><ele>526.0</ele><time>2026-05-02T08:31:10.963Z</time></trkpt><trkpt lat="44.1687008" lon="10.3510103"><ele>526.0</ele><time>2026-05-02T08:31:11.964Z</time></trkpt><trkpt lat="44.1687156" lon="10.3508579"><ele>522.4</ele><time>2026-05-02T08:31:12.964Z</time></trkpt><trkpt lat="44.1686969" lon="10.350713"><ele>518.8</ele><time>2026-05-02T08:31:13.964Z</time></trkpt><trkpt lat="44.1686495" lon="10.3505854"><ele>515.1999999999999</ele><time>2026-05-02T08:31:14.963Z</time></trkpt><trkpt lat="44.1685876" lon="10.350446"><ele>511.59999999999997</ele><time>2026-05-02T08:31:15.964Z</time></trkpt><trkpt lat="44.168539" lon="10.3502914"><ele>508.0</ele><time>2026-05-02T08:31:16.963Z</time></trkpt><trkpt lat="44.1685009" lon="10.3501553"><ele>508.0</ele><time>2026-05-02T08:31:17.963Z</time></trkpt><trkpt lat="44.1684545" lon="10.3499907"><ele>508.0</ele><time>2026-05-02T08:31:18.964Z</time></trkpt><trkpt lat="44.1685209" lon="10.3498179"><ele>508.0</ele><time>2026-05-02T08:31:19.964Z</time></trkpt><trkpt lat="44.1685373" lon="10.3496578"><ele>508.0</ele><time>2026-05-02T08:31:20.964Z</time></trkpt><trkpt lat="44.1685936" lon="10.3495189"><ele>508.25</ele><time>2026-05-02T08:31:21.964Z</time></trkpt><trkpt lat="44.1686354" lon="10.3493735"><ele>508.5</ele><time>2026-05-02T08:31:22.963Z</time></trkpt><trkpt lat="44.1686791" lon="10.3492338"><ele>508.75</ele><time>2026-05-02T08:31:23.963Z</time></trkpt><trkpt lat="44.168724" lon="10.3490888"><ele>509.0</ele><time>2026-05-02T08:31:24.963Z</time></trkpt><trkpt lat="44.1687675" lon="10.34894"><ele>509.75</ele><time>2026-05-02T08:31:25.964Z</time></trkpt><trkpt lat="44.1688174" lon="10.3487958"><ele>510.5</ele><time>2026-05-02T08:31:26.964Z</time></trkpt><trkpt lat="44.1688667" lon="10.3486489"><ele>511.25</ele><time>2026-05-02T08:31:27.964Z</time></trkpt><trkpt lat="44.1689198" lon="10.3485095"><ele>512.0</ele><time>2026-05-02T08:31:28.963Z</time></trkpt><trkpt lat="44.1689665" lon="10.3483688"><ele>511.99999999999994</ele><time>2026-05-02T08:31:29.964Z</time></trkpt><trkpt lat="44.1690088" lon="10.3482375"><ele>512.0</ele><time>2026-05-02T08:31:30.964Z</time></trkpt><trkpt lat="44.1690296" lon="10.3481129"><ele>512.0</ele><time>2026-05-02T08:31:31.964Z</time></trkpt><trkpt lat="44.1690253" lon="10.3479912"><ele>512.0</ele><time>2026-05-02T08:31:32.964Z</time></trkpt><trkpt lat="44.168988" lon="10.3478927"><ele>511.99999999999994</ele><time>2026-05-02T08:31:33.964Z</time></trkpt><trkpt lat="44.1689438" lon="10.3477977"><ele>512.0</ele><time>2026-05-02T08:31:34.963Z</time></trkpt><trkpt lat="44.168835" lon="10.3477563"><ele>515.0</ele><time>2026-05-02T08:31:35.964Z</time></trkpt><trkpt lat="44.168739" lon="10.3477142"><ele>518.0</ele><time>2026-05-02T08:31:36.964Z</time></trkpt><trkpt lat="44.1686414" lon="10.3476976"><ele>521.0</ele><time>2026-05-02T08:31:37.964Z</time></trkpt><trkpt lat="44.1685431" lon="10.3476619"><ele>524.0</ele><time>2026-05-02T08:31:38.964Z</time></trkpt><trkpt lat="44.1684747" lon="10.3475928"><ele>527.0</ele><time>2026-05-02T08:31:39.964Z</time></trkpt><trkpt lat="44.1684327" lon="10.3474996"><ele>527.0</ele><time>2026-05-02T08:31:40.964Z</time></trkpt><trkpt lat="44.1684349" lon="10.3473896"><ele>527.0</ele><time>2026-05-02T08:31:41.964Z</time></trkpt><trkpt lat="44.1684193" lon="10.3472822"><ele>527.0</ele><time>2026-05-02T08:31:42.963Z</time></trkpt><trkpt lat="44.1685081" lon="10.3471941"><ele>527.0</ele><time>2026-05-02T08:31:43.964Z</time></trkpt><trkpt lat="44.1685686" lon="10.3471021"><ele>527.0</ele><time>2026-05-02T08:31:44.964Z</time></trkpt><trkpt lat="44.1686325" lon="10.347003"><ele>527.0</ele><time>2026-05-02T08:31:45.964Z</time></trkpt><trkpt lat="44.1686972" lon="10.3469086"><ele>527.0</ele><time>2026-05-02T08:31:46.963Z</time></trkpt><trkpt lat="44.1687538" lon="10.3468223"><ele>527.0</ele><time>2026-05-02T08:31:47.964Z</time></trkpt><trkpt lat="44.1687984" lon="10.346751"><ele>527.0</ele><time>2026-05-02T08:31:48.964Z</time></trkpt><trkpt lat="44.1688555" lon="10.3466813"><ele>527.0</ele><time>2026-05-02T08:31:50.964Z</time></trkpt><trkpt lat="44.1688526" lon="10.3465828"><ele>527.0</ele><time>2026-05-02T08:31:54.964Z</time></trkpt><trkpt lat="44.1687991" lon="10.346665"><ele>527.0</ele><time>2026-05-02T08:31:56.964Z</time></trkpt><trkpt lat="44.1687169" lon="10.3468062"><ele>527.0</ele><time>2026-05-02T08:31:58.964Z</time></trkpt><trkpt lat="44.1686516" lon="10.3469074"><ele>527.0</ele><time>2026-05-02T08:31:59.963Z</time></trkpt><trkpt lat="44.1685861" lon="10.3470088"><ele>527.0</ele><time>2026-05-02T08:32:00.964Z</time></trkpt><trkpt lat="44.1685207" lon="10.3471115"><ele>527.0</ele><time>2026-05-02T08:32:01.964Z</time></trkpt><trkpt lat="44.1684623" lon="10.3472049"><ele>527.0</ele><time>2026-05-02T08:32:02.963Z</time></trkpt><trkpt lat="44.1684015" lon="10.3472903"><ele>527.0</ele><time>2026-05-02T08:32:03.964Z</time></trkpt><trkpt lat="44.1683805" lon="10.3473789"><ele>527.0</ele><time>2026-05-02T08:32:04.964Z</time></trkpt><trkpt lat="44.1684056" lon="10.3474835"><ele>527.0</ele><time>2026-05-02T08:32:05.964Z</time></trkpt><trkpt lat="44.1684488" lon="10.3475903"><ele>527.0</ele><time>2026-05-02T08:32:06.963Z</time></trkpt><trkpt lat="44.1685206" lon="10.3476555"><ele>527.0</ele><time>2026-05-02T08:32:07.963Z</time></trkpt><trkpt lat="44.1685918" lon="10.3476735"><ele>527.0</ele><time>2026-05-02T08:32:08.963Z</time></trkpt><trkpt lat="44.1686944" lon="10.3476977"><ele>527.0</ele><time>2026-05-02T08:32:09.963Z</time></trkpt><trkpt lat="44.1687901" lon="10.347736"><ele>527.0</ele><time>2026-05-02T08:32:10.963Z</time></trkpt><trkpt lat="44.16888" lon="10.347793"><ele>527.0</ele><time>2026-05-02T08:32:11.964Z</time></trkpt><trkpt lat="44.1689441" lon="10.3478842"><ele>527.0</ele><time>2026-05-02T08:32:12.963Z</time></trkpt><trkpt lat="44.1689869" lon="10.3479928"><ele>524.0</ele><time>2026-05-02T08:32:13.964Z</time></trkpt><trkpt lat="44.1689923" lon="10.3481282"><ele>521.0</ele><time>2026-05-02T08:32:14.964Z</time></trkpt><trkpt lat="44.1689525" lon="10.3482696"><ele>518.0</ele><time>2026-05-02T08:32:15.963Z</time></trkpt><trkpt lat="44.1689113" lon="10.3484014"><ele>515.0</ele><time>2026-05-02T08:32:16.963Z</time></trkpt><trkpt lat="44.1688665" lon="10.3485345"><ele>512.0</ele><time>2026-05-02T08:32:17.963Z</time></trkpt><trkpt lat="44.1688261" lon="10.3486622"><ele>511.99999999999994</ele><time>2026-05-02T08:32:18.964Z</time></trkpt><trkpt lat="44.1687859" lon="10.3487937"><ele>512.0</ele><time>2026-05-02T08:32:19.963Z</time></trkpt><trkpt lat="44.1687462" lon="10.3489225"><ele>512.0</ele><time>2026-05-02T08:32:20.964Z</time></trkpt><trkpt lat="44.1687101" lon="10.3490371"><ele>512.0</ele><time>2026-05-02T08:32:21.964Z</time></trkpt><trkpt lat="44.1686806" lon="10.3491236"><ele>511.99999999999994</ele><time>2026-05-02T08:32:22.964Z</time></trkpt><trkpt lat="44.1686309" lon="10.3492189"><ele>512.0</ele><time>2026-05-02T08:32:24.964Z</time></trkpt><trkpt lat="44.1685666" lon="10.3491267"><ele>512.0</ele><time>2026-05-02T08:32:27.964Z</time></trkpt><trkpt lat="44.1685345" lon="10.3490386"><ele>512.0</ele><time>2026-05-02T08:32:28.964Z</time></trkpt><trkpt lat="44.1684969" lon="10.3489274"><ele>512.0</ele><time>2026-05-02T08:32:29.964Z</time></trkpt><trkpt lat="44.1684548" lon="10.348791"><ele>512.0</ele><time>2026-05-02T08:32:30.964Z</time></trkpt><trkpt lat="44.1684159" lon="10.3486509"><ele>512.0</ele><time>2026-05-02T08:32:31.964Z</time></trkpt><trkpt lat="44.168377" lon="10.3485226"><ele>512.0</ele><time>2026-05-02T08:32:32.964Z</time></trkpt><trkpt lat="44.1683291" lon="10.3483938"><ele>512.0</ele><time>2026-05-02T08:32:33.964Z</time></trkpt><trkpt lat="44.168291" lon="10.3482686"><ele>512.0</ele><time>2026-05-02T08:32:34.964Z</time></trkpt><trkpt lat="44.1682348" lon="10.3481657"><ele>512.0</ele><time>2026-05-02T08:32:35.963Z</time></trkpt><trkpt lat="44.1681604" lon="10.3481003"><ele>512.0</ele><time>2026-05-02T08:32:36.964Z</time></trkpt><trkpt lat="44.1680724" lon="10.3480683"><ele>509.6</ele><time>2026-05-02T08:32:37.964Z</time></trkpt><trkpt lat="44.1679715" lon="10.3480657"><ele>507.20000000000005</ele><time>2026-05-02T08:32:38.963Z</time></trkpt><trkpt lat="44.1678617" lon="10.3480729"><ele>504.8</ele><time>2026-05-02T08:32:39.964Z</time></trkpt><trkpt lat="44.1677512" lon="10.3480756"><ele>502.4</ele><time>2026-05-02T08:32:40.964Z</time></trkpt><trkpt lat="44.1676424" lon="10.348064"><ele>500.0</ele><time>2026-05-02T08:32:41.964Z</time></trkpt><trkpt lat="44.1675302" lon="10.3480658"><ele>500.0</ele><time>2026-05-02T08:32:42.963Z</time></trkpt><trkpt lat="44.1674332" lon="10.3480614"><ele>500.0</ele><time>2026-05-02T08:32:43.964Z</time></trkpt><trkpt lat="44.1673423" lon="10.3480341"><ele>500.0</ele><time>2026-05-02T08:32:44.963Z</time></trkpt><trkpt lat="44.1672644" lon="10.3479703"><ele>500.0</ele><time>2026-05-02T08:32:45.964Z</time></trkpt><trkpt lat="44.1672005" lon="10.3478837"><ele>500.0</ele><time>2026-05-02T08:32:46.964Z</time></trkpt><trkpt lat="44.1671593" lon="10.3477743"><ele>499.0</ele><time>2026-05-02T08:32:47.963Z</time></trkpt><trkpt lat="44.1671558" lon="10.3476483"><ele>498.0</ele><time>2026-05-02T08:32:48.964Z</time></trkpt><trkpt lat="44.1671788" lon="10.3475162"><ele>497.0</ele><time>2026-05-02T08:32:49.964Z</time></trkpt><trkpt lat="44.1672111" lon="10.3473921"><ele>496.0</ele><time>2026-05-02T08:32:50.964Z</time></trkpt><trkpt lat="44.1672373" lon="10.347267"><ele>495.0</ele><time>2026-05-02T08:32:51.964Z</time></trkpt><trkpt lat="44.1672418" lon="10.3471512"><ele>495.0</ele><time>2026-05-02T08:32:52.964Z</time></trkpt><trkpt lat="44.1672149" lon="10.3470459"><ele>495.0</ele><time>2026-05-02T08:32:53.964Z</time></trkpt><trkpt lat="44.1671501" lon="10.3469684"><ele>495.0</ele><time>2026-05-02T08:32:54.964Z</time></trkpt><trkpt lat="44.1670653" lon="10.3469354"><ele>495.0</ele><time>2026-05-02T08:32:55.964Z</time></trkpt><trkpt lat="44.166965" lon="10.3469442"><ele>495.0</ele><time>2026-05-02T08:32:56.964Z</time></trkpt><trkpt lat="44.1668473" lon="10.3469653"><ele>495.0</ele><time>2026-05-02T08:32:57.964Z</time></trkpt><trkpt lat="44.1667238" lon="10.3469889"><ele>495.0</ele><time>2026-05-02T08:32:58.964Z</time></trkpt><trkpt lat="44.166604" lon="10.3470121"><ele>495.0</ele><time>2026-05-02T08:32:59.964Z</time></trkpt><trkpt lat="44.1664869" lon="10.3470361"><ele>495.0</ele><time>2026-05-02T08:33:00.964Z</time></trkpt><trkpt lat="44.1663714" lon="10.3470547"><ele>493.25</ele><time>2026-05-02T08:33:01.963Z</time></trkpt><trkpt lat="44.1662564" lon="10.3470719"><ele>491.5</ele><time>2026-05-02T08:33:02.963Z</time></trkpt><trkpt lat="44.1661478" lon="10.347065"><ele>489.75</ele><time>2026-05-02T08:33:03.963Z</time></trkpt><trkpt lat="44.166033" lon="10.3470464"><ele>488.0</ele><time>2026-05-02T08:33:04.964Z</time></trkpt><trkpt lat="44.1659205" lon="10.347001"><ele>488.0</ele><time>2026-05-02T08:33:05.964Z</time></trkpt><trkpt lat="44.1658049" lon="10.346941"><ele>488.0</ele><time>2026-05-02T08:33:06.963Z</time></trkpt><trkpt lat="44.1656975" lon="10.3468686"><ele>488.0</ele><time>2026-05-02T08:33:07.963Z</time></trkpt><trkpt lat="44.1656011" lon="10.3467861"><ele>488.0</ele><time>2026-05-02T08:33:08.964Z</time></trkpt><trkpt lat="44.1655137" lon="10.3466954"><ele>487.25</ele><time>2026-05-02T08:33:09.964Z</time></trkpt><trkpt lat="44.1654319" lon="10.3465905"><ele>486.5</ele><time>2026-05-02T08:33:10.964Z</time></trkpt><trkpt lat="44.1653525" lon="10.3464714"><ele>485.75</ele><time>2026-05-02T08:33:11.964Z</time></trkpt><trkpt lat="44.1652712" lon="10.3463535"><ele>485.0</ele><time>2026-05-02T08:33:12.964Z</time></trkpt><trkpt lat="44.1651839" lon="10.3462413"><ele>485.0</ele><time>2026-05-02T08:33:13.964Z</time></trkpt><trkpt lat="44.1651127" lon="10.3461189"><ele>485.0</ele><time>2026-05-02T08:33:14.963Z</time></trkpt><trkpt lat="44.1650577" lon="10.3460008"><ele>485.0</ele><time>2026-05-02T08:33:15.964Z</time></trkpt><trkpt lat="44.1650325" lon="10.3458774"><ele>485.0</ele><time>2026-05-02T08:33:16.963Z</time></trkpt><trkpt lat="44.1650339" lon="10.3457515"><ele>485.0</ele><time>2026-05-02T08:33:17.964Z</time></trkpt><trkpt lat="44.1650631" lon="10.3456254"><ele>484.5</ele><time>2026-05-02T08:33:18.964Z</time></trkpt><trkpt lat="44.1651039" lon="10.3454985"><ele>484.0</ele><time>2026-05-02T08:33:19.964Z</time></trkpt><trkpt lat="44.1651624" lon="10.345357"><ele>483.5</ele><time>2026-05-02T08:33:20.963Z</time></trkpt><trkpt lat="44.1652363" lon="10.3452035"><ele>483.0</ele><time>2026-05-02T08:33:21.963Z</time></trkpt><trkpt lat="44.1652932" lon="10.3450488"><ele>483.0</ele><time>2026-05-02T08:33:22.964Z</time></trkpt><trkpt lat="44.1653344" lon="10.3448844"><ele>483.0</ele><time>2026-05-02T08:33:23.964Z</time></trkpt><trkpt lat="44.1653562" lon="10.3447184"><ele>483.0</ele><time>2026-05-02T08:33:24.964Z</time></trkpt><trkpt lat="44.1653632" lon="10.3445571"><ele>483.0</ele><time>2026-05-02T08:33:25.963Z</time></trkpt><trkpt lat="44.1653521" lon="10.3444045"><ele>482.2</ele><time>2026-05-02T08:33:26.964Z</time></trkpt><trkpt lat="44.1653243" lon="10.3442633"><ele>481.4</ele><time>2026-05-02T08:33:27.964Z</time></trkpt><trkpt lat="44.1652862" lon="10.344131"><ele>480.59999999999997</ele><time>2026-05-02T08:33:28.963Z</time></trkpt><trkpt lat="44.1652342" lon="10.3440126"><ele>479.79999999999995</ele><time>2026-05-02T08:33:29.963Z</time></trkpt><trkpt lat="44.1651696" lon="10.3439085"><ele>479.0</ele><time>2026-05-02T08:33:30.964Z</time></trkpt><trkpt lat="44.1650957" lon="10.3438134"><ele>478.66666666666663</ele><time>2026-05-02T08:33:31.963Z</time></trkpt><trkpt lat="44.1650245" lon="10.3437293"><ele>478.3333333333333</ele><time>2026-05-02T08:33:32.964Z</time></trkpt><trkpt lat="44.1649647" lon="10.343666"><ele>478.0</ele><time>2026-05-02T08:33:33.964Z</time></trkpt><trkpt lat="44.1648883" lon="10.3435815"><ele>477.66666666666663</ele><time>2026-05-02T08:33:35.964Z</time></trkpt><trkpt lat="44.1648373" lon="10.3435142"><ele>477.3333333333333</ele><time>2026-05-02T08:33:37.964Z</time></trkpt><trkpt lat="44.1647999" lon="10.343385"><ele>477.0</ele><time>2026-05-02T08:33:39.964Z</time></trkpt><trkpt lat="44.1647976" lon="10.3431994"><ele>475.8333333333333</ele><time>2026-05-02T08:33:41.964Z</time></trkpt><trkpt lat="44.1648196" lon="10.3430957"><ele>474.66666666666663</ele><time>2026-05-02T08:33:42.964Z</time></trkpt><trkpt lat="44.1648586" lon="10.343002"><ele>473.5</ele><time>2026-05-02T08:33:43.964Z</time></trkpt><trkpt lat="44.1649117" lon="10.3429208"><ele>472.3333333333333</ele><time>2026-05-02T08:33:44.964Z</time></trkpt><trkpt lat="44.1649754" lon="10.3428755"><ele>471.16666666666663</ele><time>2026-05-02T08:33:45.964Z</time></trkpt><trkpt lat="44.1650492" lon="10.3428429"><ele>470.0</ele><time>2026-05-02T08:33:46.964Z</time></trkpt><trkpt lat="44.1651291" lon="10.342817"><ele>469.0</ele><time>2026-05-02T08:33:47.963Z</time></trkpt><trkpt lat="44.1652141" lon="10.3427918"><ele>468.0</ele><time>2026-05-02T08:33:48.963Z</time></trkpt><trkpt lat="44.1653115" lon="10.3427547"><ele>467.0</ele><time>2026-05-02T08:33:49.964Z</time></trkpt><trkpt lat="44.1654141" lon="10.3427161"><ele>466.0</ele><time>2026-05-02T08:33:50.964Z</time></trkpt><trkpt lat="44.1655186" lon="10.3426806"><ele>465.0</ele><time>2026-05-02T08:33:51.964Z</time></trkpt><trkpt lat="44.1656181" lon="10.3426513"><ele>464.8</ele><time>2026-05-02T08:33:52.964Z</time></trkpt><trkpt lat="44.1657151" lon="10.3426127"><ele>464.6</ele><time>2026-05-02T08:33:53.963Z</time></trkpt><trkpt lat="44.1658119" lon="10.3425738"><ele>464.4</ele><time>2026-05-02T08:33:54.964Z</time></trkpt><trkpt lat="44.1659033" lon="10.3425306"><ele>464.2</ele><time>2026-05-02T08:33:55.963Z</time></trkpt><trkpt lat="44.1659921" lon="10.3424716"><ele>464.0</ele><time>2026-05-02T08:33:56.964Z</time></trkpt><trkpt lat="44.1660822" lon="10.3423947"><ele>464.0</ele><time>2026-05-02T08:33:57.963Z</time></trkpt><trkpt lat="44.1661703" lon="10.3423114"><ele>464.0</ele><time>2026-05-02T08:33:58.963Z</time></trkpt><trkpt lat="44.1662498" lon="10.3422326"><ele>464.0</ele><time>2026-05-02T08:33:59.964Z</time></trkpt><trkpt lat="44.1663253" lon="10.3421403"><ele>464.0</ele><time>2026-05-02T08:34:00.964Z</time></trkpt><trkpt lat="44.1663959" lon="10.342033"><ele>464.0</ele><time>2026-05-02T08:34:01.964Z</time></trkpt><trkpt lat="44.1664461" lon="10.3419101"><ele>462.79999999999995</ele><time>2026-05-02T08:34:02.964Z</time></trkpt><trkpt lat="44.1664872" lon="10.341787"><ele>461.59999999999997</ele><time>2026-05-02T08:34:03.964Z</time></trkpt><trkpt lat="44.1665227" lon="10.3416533"><ele>460.4</ele><time>2026-05-02T08:34:04.963Z</time></trkpt><trkpt lat="44.1665577" lon="10.3415154"><ele>459.2</ele><time>2026-05-02T08:34:05.964Z</time></trkpt><trkpt lat="44.1665884" lon="10.3413771"><ele>458.0</ele><time>2026-05-02T08:34:06.963Z</time></trkpt><trkpt lat="44.1666189" lon="10.3412406"><ele>456.2</ele><time>2026-05-02T08:34:07.963Z</time></trkpt><trkpt lat="44.1666327" lon="10.341101"><ele>454.4</ele><time>2026-05-02T08:34:08.963Z</time></trkpt><trkpt lat="44.1666295" lon="10.3409516"><ele>452.59999999999997</ele><time>2026-05-02T08:34:09.963Z</time></trkpt><trkpt lat="44.1666167" lon="10.3407995"><ele>450.79999999999995</ele><time>2026-05-02T08:34:10.963Z</time></trkpt><trkpt lat="44.1665949" lon="10.3406447"><ele>449.0</ele><time>2026-05-02T08:34:11.964Z</time></trkpt><trkpt lat="44.1665657" lon="10.3404916"><ele>445.4</ele><time>2026-05-02T08:34:12.964Z</time></trkpt><trkpt lat="44.1665173" lon="10.340348"><ele>441.79999999999995</ele><time>2026-05-02T08:34:13.964Z</time></trkpt><trkpt lat="44.16646" lon="10.3402206"><ele>438.20000000000005</ele><time>2026-05-02T08:34:14.964Z</time></trkpt><trkpt lat="44.1663857" lon="10.3401042"><ele>434.6</ele><time>2026-05-02T08:34:15.963Z</time></trkpt><trkpt lat="44.166316" lon="10.3399945"><ele>431.0</ele><time>2026-05-02T08:34:16.964Z</time></trkpt><trkpt lat="44.166241" lon="10.3398922"><ele>431.0</ele><time>2026-05-02T08:34:17.964Z</time></trkpt><trkpt lat="44.1661722" lon="10.3397863"><ele>431.0</ele><time>2026-05-02T08:34:18.964Z</time></trkpt><trkpt lat="44.1661067" lon="10.3396813"><ele>431.0</ele><time>2026-05-02T08:34:19.963Z</time></trkpt><trkpt lat="44.1660522" lon="10.339567"><ele>431.0</ele><time>2026-05-02T08:34:20.964Z</time></trkpt><trkpt lat="44.1660102" lon="10.3394489"><ele>431.0</ele><time>2026-05-02T08:34:21.964Z</time></trkpt><trkpt lat="44.1659925" lon="10.3393284"><ele>429.6</ele><time>2026-05-02T08:34:22.963Z</time></trkpt><trkpt lat="44.1659974" lon="10.3392005"><ele>428.20000000000005</ele><time>2026-05-02T08:34:23.964Z</time></trkpt><trkpt lat="44.1660152" lon="10.3390735"><ele>426.79999999999995</ele><time>2026-05-02T08:34:24.964Z</time></trkpt><trkpt lat="44.1660454" lon="10.3389735"><ele>425.4</ele><time>2026-05-02T08:34:25.964Z</time></trkpt><trkpt lat="44.166148" lon="10.3389068"><ele>424.0</ele><time>2026-05-02T08:34:27.963Z</time></trkpt><trkpt lat="44.166263" lon="10.3390138"><ele>424.0</ele><time>2026-05-02T08:34:29.964Z</time></trkpt><trkpt lat="44.1663234" lon="10.3391216"><ele>424.0</ele><time>2026-05-02T08:34:30.964Z</time></trkpt><trkpt lat="44.1663837" lon="10.3392383"><ele>424.0</ele><time>2026-05-02T08:34:31.964Z</time></trkpt><trkpt lat="44.1664407" lon="10.3393504"><ele>424.0</ele><time>2026-05-02T08:34:32.964Z</time></trkpt><trkpt lat="44.1665026" lon="10.3394447"><ele>424.0</ele><time>2026-05-02T08:34:33.964Z</time></trkpt><trkpt lat="44.1665741" lon="10.3394996"><ele>424.33333333333337</ele><time>2026-05-02T08:34:34.964Z</time></trkpt><trkpt lat="44.1666402" lon="10.3395074"><ele>424.6666666666667</ele><time>2026-05-02T08:34:35.963Z</time></trkpt><trkpt lat="44.1667096" lon="10.3394678"><ele>425.0</ele><time>2026-05-02T08:34:36.964Z</time></trkpt><trkpt lat="44.1667639" lon="10.3393942"><ele>425.33333333333337</ele><time>2026-05-02T08:34:37.963Z</time></trkpt><trkpt lat="44.1667912" lon="10.3392959"><ele>425.6666666666667</ele><time>2026-05-02T08:34:38.964Z</time></trkpt><trkpt lat="44.1668086" lon="10.3391954"><ele>426.0</ele><time>2026-05-02T08:34:39.963Z</time></trkpt><trkpt lat="44.1667369" lon="10.3390867"><ele>426.0</ele><time>2026-05-02T08:34:40.964Z</time></trkpt><trkpt lat="44.1666911" lon="10.3389747"><ele>426.0</ele><time>2026-05-02T08:34:41.964Z</time></trkpt><trkpt lat="44.1666121" lon="10.3388578"><ele>426.0</ele><time>2026-05-02T08:34:42.963Z</time></trkpt><trkpt lat="44.1665466" lon="10.3387406"><ele>426.0</ele><time>2026-05-02T08:34:43.964Z</time></trkpt><trkpt lat="44.1664758" lon="10.3386209"><ele>426.0</ele><time>2026-05-02T08:34:44.964Z</time></trkpt><trkpt lat="44.166405" lon="10.3384961"><ele>424.0</ele><time>2026-05-02T08:34:45.964Z</time></trkpt><trkpt lat="44.1663365" lon="10.3383727"><ele>422.0</ele><time>2026-05-02T08:34:46.964Z</time></trkpt><trkpt lat="44.1662638" lon="10.3382543"><ele>420.0</ele><time>2026-05-02T08:34:47.963Z</time></trkpt><trkpt lat="44.1661996" lon="10.3381418"><ele>418.0</ele><time>2026-05-02T08:34:48.963Z</time></trkpt><trkpt lat="44.1661367" lon="10.3380334"><ele>416.0</ele><time>2026-05-02T08:34:49.963Z</time></trkpt><trkpt lat="44.1660676" lon="10.3379387"><ele>412.25</ele><time>2026-05-02T08:34:50.963Z</time></trkpt><trkpt lat="44.1659915" lon="10.3378697"><ele>408.5</ele><time>2026-05-02T08:34:51.964Z</time></trkpt><trkpt lat="44.1659014" lon="10.3378595"><ele>404.75</ele><time>2026-05-02T08:34:52.964Z</time></trkpt><trkpt lat="44.165804" lon="10.3378796"><ele>401.0</ele><time>2026-05-02T08:34:53.963Z</time></trkpt><trkpt lat="44.1656162" lon="10.3380174"><ele>400.75</ele><time>2026-05-02T08:34:55.964Z</time></trkpt><trkpt lat="44.1655357" lon="10.3381316"><ele>400.5</ele><time>2026-05-02T08:34:56.964Z</time></trkpt><trkpt lat="44.1654714" lon="10.3382639"><ele>400.25</ele><time>2026-05-02T08:34:57.964Z</time></trkpt><trkpt lat="44.1654108" lon="10.3384039"><ele>400.0</ele><time>2026-05-02T08:34:58.963Z</time></trkpt><trkpt lat="44.1653527" lon="10.3385392"><ele>400.0</ele><time>2026-05-02T08:34:59.964Z</time></trkpt><trkpt lat="44.1653014" lon="10.3386737"><ele>400.0</ele><time>2026-05-02T08:35:00.963Z</time></trkpt><trkpt lat="44.1652353" lon="10.3387846"><ele>400.0</ele><time>2026-05-02T08:35:01.964Z</time></trkpt><trkpt lat="44.1651623" lon="10.3388643"><ele>400.0</ele><time>2026-05-02T08:35:02.964Z</time></trkpt><trkpt lat="44.1650723" lon="10.3388787"><ele>400.0</ele><time>2026-05-02T08:35:03.963Z</time></trkpt><trkpt lat="44.1649848" lon="10.3388816"><ele>400.0</ele><time>2026-05-02T08:35:04.963Z</time></trkpt><trkpt lat="44.1648817" lon="10.3388211"><ele>400.0</ele><time>2026-05-02T08:35:05.964Z</time></trkpt><trkpt lat="44.1647743" lon="10.3387864"><ele>400.0</ele><time>2026-05-02T08:35:06.964Z</time></trkpt><trkpt lat="44.1646704" lon="10.3387517"><ele>400.0</ele><time>2026-05-02T08:35:07.964Z</time></trkpt><trkpt lat="44.1645571" lon="10.3387186"><ele>400.0</ele><time>2026-05-02T08:35:08.964Z</time></trkpt><trkpt lat="44.1644474" lon="10.3386994"><ele>397.6</ele><time>2026-05-02T08:35:09.964Z</time></trkpt><trkpt lat="44.1643356" lon="10.3386902"><ele>395.2</ele><time>2026-05-02T08:35:10.964Z</time></trkpt><trkpt lat="44.1642232" lon="10.338703"><ele>392.79999999999995</ele><time>2026-05-02T08:35:11.964Z</time></trkpt><trkpt lat="44.1641131" lon="10.3387393"><ele>390.4</ele><time>2026-05-02T08:35:12.964Z</time></trkpt><trkpt lat="44.16401" lon="10.3387904"><ele>388.0</ele><time>2026-05-02T08:35:13.963Z</time></trkpt><trkpt lat="44.1639098" lon="10.3388521"><ele>387.79999999999995</ele><time>2026-05-02T08:35:14.964Z</time></trkpt><trkpt lat="44.163802" lon="10.3389278"><ele>387.6</ele><time>2026-05-02T08:35:15.964Z</time></trkpt><trkpt lat="44.1636967" lon="10.338976"><ele>387.4</ele><time>2026-05-02T08:35:16.964Z</time></trkpt><trkpt lat="44.1635925" lon="10.3389913"><ele>387.20000000000005</ele><time>2026-05-02T08:35:17.964Z</time></trkpt><trkpt lat="44.1634798" lon="10.338986"><ele>387.0</ele><time>2026-05-02T08:35:18.963Z</time></trkpt><trkpt lat="44.1633753" lon="10.3389578"><ele>387.0</ele><time>2026-05-02T08:35:19.964Z</time></trkpt><trkpt lat="44.1632725" lon="10.3389036"><ele>387.0</ele><time>2026-05-02T08:35:20.964Z</time></trkpt><trkpt lat="44.1631772" lon="10.3388334"><ele>387.0</ele><time>2026-05-02T08:35:21.963Z</time></trkpt><trkpt lat="44.1630799" lon="10.3387447"><ele>387.0</ele><time>2026-05-02T08:35:22.964Z</time></trkpt><trkpt lat="44.1629982" lon="10.3386458"><ele>387.0</ele><time>2026-05-02T08:35:23.963Z</time></trkpt><trkpt lat="44.1629238" lon="10.3385497"><ele>388.8</ele><time>2026-05-02T08:35:24.964Z</time></trkpt><trkpt lat="44.162856" lon="10.338451"><ele>390.6</ele><time>2026-05-02T08:35:25.964Z</time></trkpt><trkpt lat="44.1628057" lon="10.3383395"><ele>392.40000000000003</ele><time>2026-05-02T08:35:26.963Z</time></trkpt><trkpt lat="44.1627726" lon="10.3382207"><ele>394.20000000000005</ele><time>2026-05-02T08:35:27.964Z</time></trkpt><trkpt lat="44.1627711" lon="10.3381019"><ele>396.0</ele><time>2026-05-02T08:35:28.963Z</time></trkpt><trkpt lat="44.1627733" lon="10.3379833"><ele>397.8</ele><time>2026-05-02T08:35:29.964Z</time></trkpt><trkpt lat="44.1628221" lon="10.3378928"><ele>399.6</ele><time>2026-05-02T08:35:30.964Z</time></trkpt><trkpt lat="44.1628613" lon="10.3377871"><ele>401.4</ele><time>2026-05-02T08:35:31.964Z</time></trkpt><trkpt lat="44.1629069" lon="10.3376809"><ele>403.2</ele><time>2026-05-02T08:35:32.963Z</time></trkpt><trkpt lat="44.1629578" lon="10.3375646"><ele>405.0</ele><time>2026-05-02T08:35:33.964Z</time></trkpt><trkpt lat="44.1630103" lon="10.3374463"><ele>405.0</ele><time>2026-05-02T08:35:34.964Z</time></trkpt><trkpt lat="44.1630563" lon="10.3373261"><ele>405.0</ele><time>2026-05-02T08:35:35.964Z</time></trkpt><trkpt lat="44.1631028" lon="10.3372067"><ele>405.0</ele><time>2026-05-02T08:35:36.964Z</time></trkpt><trkpt lat="44.1631479" lon="10.3370859"><ele>405.0</ele><time>2026-05-02T08:35:37.964Z</time></trkpt><trkpt lat="44.1631832" lon="10.3369561"><ele>405.0</ele><time>2026-05-02T08:35:38.963Z</time></trkpt><trkpt lat="44.1631934" lon="10.3368495"><ele>406.0</ele><time>2026-05-02T08:35:39.964Z</time></trkpt><trkpt lat="44.163118" lon="10.3367779"><ele>407.0</ele><time>2026-05-02T08:35:40.963Z</time></trkpt><trkpt lat="44.1630474" lon="10.336721"><ele>408.0</ele><time>2026-05-02T08:35:41.963Z</time></trkpt><trkpt lat="44.1629574" lon="10.3367009"><ele>409.0</ele><time>2026-05-02T08:35:42.964Z</time></trkpt><trkpt lat="44.1628632" lon="10.3366763"><ele>410.0</ele><time>2026-05-02T08:35:43.964Z</time></trkpt><trkpt lat="44.1627673" lon="10.336773"><ele>410.0</ele><time>2026-05-02T08:35:44.964Z</time></trkpt><trkpt lat="44.1626789" lon="10.3368592"><ele>410.0</ele><time>2026-05-02T08:35:45.963Z</time></trkpt><trkpt lat="44.1625985" lon="10.3369824"><ele>410.0</ele><time>2026-05-02T08:35:46.964Z</time></trkpt><trkpt lat="44.1625159" lon="10.3371312"><ele>410.0</ele><time>2026-05-02T08:35:47.964Z</time></trkpt><trkpt lat="44.1624405" lon="10.337281"><ele>408.75</ele><time>2026-05-02T08:35:48.964Z</time></trkpt><trkpt lat="44.1623675" lon="10.3374101"><ele>407.5</ele><time>2026-05-02T08:35:49.964Z</time></trkpt><trkpt lat="44.162283" lon="10.3375101"><ele>406.25</ele><time>2026-05-02T08:35:50.964Z</time></trkpt><trkpt lat="44.1621852" lon="10.3375988"><ele>405.0</ele><time>2026-05-02T08:35:51.964Z</time></trkpt><trkpt lat="44.1620886" lon="10.3376824"><ele>407.4</ele><time>2026-05-02T08:35:52.964Z</time></trkpt><trkpt lat="44.1619966" lon="10.337753"><ele>409.8</ele><time>2026-05-02T08:35:53.963Z</time></trkpt><trkpt lat="44.1619106" lon="10.337807"><ele>412.20000000000005</ele><time>2026-05-02T08:35:54.964Z</time></trkpt><trkpt lat="44.1618229" lon="10.3378505"><ele>414.6</ele><time>2026-05-02T08:35:55.964Z</time></trkpt><trkpt lat="44.1617284" lon="10.3378677"><ele>417.0</ele><time>2026-05-02T08:35:56.963Z</time></trkpt><trkpt lat="44.1616355" lon="10.33786"><ele>417.0</ele><time>2026-05-02T08:35:57.964Z</time></trkpt><trkpt lat="44.1615345" lon="10.3378265"><ele>417.0</ele><time>2026-05-02T08:35:58.964Z</time></trkpt><trkpt lat="44.1614233" lon="10.3377884"><ele>417.0</ele><time>2026-05-02T08:35:59.963Z</time></trkpt><trkpt lat="44.1613093" lon="10.3377373"><ele>417.0</ele><time>2026-05-02T08:36:00.964Z</time></trkpt><trkpt lat="44.1611997" lon="10.3376752"><ele>417.5</ele><time>2026-05-02T08:36:01.963Z</time></trkpt><trkpt lat="44.1610856" lon="10.3375937"><ele>418.0</ele><time>2026-05-02T08:36:02.963Z</time></trkpt><trkpt lat="44.1609692" lon="10.3375034"><ele>418.5</ele><time>2026-05-02T08:36:03.963Z</time></trkpt><trkpt lat="44.1608484" lon="10.3374123"><ele>419.0</ele><time>2026-05-02T08:36:04.963Z</time></trkpt><trkpt lat="44.1607323" lon="10.3373092"><ele>421.25</ele><time>2026-05-02T08:36:05.963Z</time></trkpt><trkpt lat="44.1606127" lon="10.3372268"><ele>423.5</ele><time>2026-05-02T08:36:06.964Z</time></trkpt><trkpt lat="44.1604937" lon="10.3371582"><ele>425.75</ele><time>2026-05-02T08:36:07.964Z</time></trkpt><trkpt lat="44.160376" lon="10.3371128"><ele>428.0</ele><time>2026-05-02T08:36:08.963Z</time></trkpt><trkpt lat="44.1602467" lon="10.337103"><ele>428.0</ele><time>2026-05-02T08:36:09.964Z</time></trkpt><trkpt lat="44.160134" lon="10.3371787"><ele>428.0</ele><time>2026-05-02T08:36:10.963Z</time></trkpt><trkpt lat="44.1600091" lon="10.3372473"><ele>428.0</ele><time>2026-05-02T08:36:11.964Z</time></trkpt><trkpt lat="44.1598976" lon="10.3373385"><ele>428.0</ele><time>2026-05-02T08:36:12.964Z</time></trkpt><trkpt lat="44.1597882" lon="10.3374371"><ele>431.2</ele><time>2026-05-02T08:36:13.964Z</time></trkpt><trkpt lat="44.1596903" lon="10.337533"><ele>434.4</ele><time>2026-05-02T08:36:14.963Z</time></trkpt><trkpt lat="44.1596089" lon="10.3376246"><ele>437.59999999999997</ele><time>2026-05-02T08:36:15.964Z</time></trkpt><trkpt lat="44.1595253" lon="10.3376903"><ele>440.79999999999995</ele><time>2026-05-02T08:36:16.964Z</time></trkpt><trkpt lat="44.1594487" lon="10.3377076"><ele>444.0</ele><time>2026-05-02T08:36:17.964Z</time></trkpt><trkpt lat="44.1593816" lon="10.3376681"><ele>444.0</ele><time>2026-05-02T08:36:18.963Z</time></trkpt><trkpt lat="44.1593206" lon="10.3375624"><ele>444.0</ele><time>2026-05-02T08:36:20.963Z</time></trkpt><trkpt lat="44.1593819" lon="10.3374645"><ele>444.0</ele><time>2026-05-02T08:36:21.963Z</time></trkpt><trkpt lat="44.1594287" lon="10.3373722"><ele>444.0</ele><time>2026-05-02T08:36:22.964Z</time></trkpt><trkpt lat="44.1594908" lon="10.3372597"><ele>444.0</ele><time>2026-05-02T08:36:23.964Z</time></trkpt><trkpt lat="44.1595744" lon="10.337128"><ele>444.0</ele><time>2026-05-02T08:36:24.964Z</time></trkpt><trkpt lat="44.1596682" lon="10.3370033"><ele>444.0</ele><time>2026-05-02T08:36:25.964Z</time></trkpt><trkpt lat="44.1597714" lon="10.3368924"><ele>444.0</ele><time>2026-05-02T08:36:26.963Z</time></trkpt><trkpt lat="44.1598627" lon="10.3367637"><ele>444.0</ele><time>2026-05-02T08:36:27.963Z</time></trkpt><trkpt lat="44.1599324" lon="10.336615"><ele>444.0</ele><time>2026-05-02T08:36:28.964Z</time></trkpt><trkpt lat="44.1600034" lon="10.3364554"><ele>444.0</ele><time>2026-05-02T08:36:29.964Z</time></trkpt><trkpt lat="44.1600578" lon="10.3362988"><ele>444.0</ele><time>2026-05-02T08:36:30.964Z</time></trkpt><trkpt lat="44.1600759" lon="10.3361316"><ele>444.0</ele><time>2026-05-02T08:36:31.963Z</time></trkpt><trkpt lat="44.1600823" lon="10.3359629"><ele>446.0</ele><time>2026-05-02T08:36:32.964Z</time></trkpt><trkpt lat="44.1600687" lon="10.3358112"><ele>448.0</ele><time>2026-05-02T08:36:33.964Z</time></trkpt><trkpt lat="44.160055" lon="10.3356776"><ele>450.0</ele><time>2026-05-02T08:36:34.963Z</time></trkpt><trkpt lat="44.1600185" lon="10.3355692"><ele>452.0</ele><time>2026-05-02T08:36:35.964Z</time></trkpt><trkpt lat="44.1599512" lon="10.33546"><ele>454.0</ele><time>2026-05-02T08:36:37.964Z</time></trkpt><trkpt lat="44.1598704" lon="10.3354557"><ele>454.00000000000006</ele><time>2026-05-02T08:36:40.964Z</time></trkpt><trkpt lat="44.1598439" lon="10.3355521"><ele>454.0</ele><time>2026-05-02T08:36:42.963Z</time></trkpt><trkpt lat="44.1598695" lon="10.3357031"><ele>454.0</ele><time>2026-05-02T08:36:44.963Z</time></trkpt><trkpt lat="44.159885" lon="10.3358004"><ele>454.0</ele><time>2026-05-02T08:36:45.964Z</time></trkpt><trkpt lat="44.1598862" lon="10.335898"><ele>454.00000000000006</ele><time>2026-05-02T08:36:46.964Z</time></trkpt><trkpt lat="44.1598595" lon="10.3359926"><ele>454.0</ele><time>2026-05-02T08:36:47.964Z</time></trkpt><trkpt lat="44.1598197" lon="10.3360902"><ele>457.33333333333337</ele><time>2026-05-02T08:36:48.964Z</time></trkpt><trkpt lat="44.1597681" lon="10.3361589"><ele>460.6666666666667</ele><time>2026-05-02T08:36:49.964Z</time></trkpt><trkpt lat="44.1596794" lon="10.336204"><ele>464.0</ele><time>2026-05-02T08:36:51.964Z</time></trkpt><trkpt lat="44.1596286" lon="10.3361286"><ele>467.33333333333337</ele><time>2026-05-02T08:37:01.963Z</time></trkpt><trkpt lat="44.1596679" lon="10.3360562"><ele>470.6666666666667</ele><time>2026-05-02T08:37:02.964Z</time></trkpt><trkpt lat="44.1597141" lon="10.3359792"><ele>474.0</ele><time>2026-05-02T08:37:03.964Z</time></trkpt><trkpt lat="44.1597579" lon="10.3358836"><ele>474.0</ele><time>2026-05-02T08:37:04.963Z</time></trkpt><trkpt lat="44.159791" lon="10.3357838"><ele>474.0</ele><time>2026-05-02T08:37:05.963Z</time></trkpt><trkpt lat="44.1597945" lon="10.3356746"><ele>474.0</ele><time>2026-05-02T08:37:06.964Z</time></trkpt><trkpt lat="44.1597876" lon="10.3355592"><ele>474.0</ele><time>2026-05-02T08:37:07.963Z</time></trkpt><trkpt lat="44.1597186" lon="10.335442"><ele>474.0</ele><time>2026-05-02T08:37:08.963Z</time></trkpt><trkpt lat="44.1596543" lon="10.3353276"><ele>474.4</ele><time>2026-05-02T08:37:09.964Z</time></trkpt><trkpt lat="44.1595838" lon="10.335214"><ele>474.79999999999995</ele><time>2026-05-02T08:37:10.964Z</time></trkpt><trkpt lat="44.1595067" lon="10.3351035"><ele>475.20000000000005</ele><time>2026-05-02T08:37:11.964Z</time></trkpt><trkpt lat="44.1594422" lon="10.3349935"><ele>475.6</ele><time>2026-05-02T08:37:12.964Z</time></trkpt><trkpt lat="44.1593939" lon="10.3348798"><ele>476.0</ele><time>2026-05-02T08:37:13.964Z</time></trkpt><trkpt lat="44.1593665" lon="10.3347482"><ele>476.20000000000005</ele><time>2026-05-02T08:37:14.964Z</time></trkpt><trkpt lat="44.1593592" lon="10.3346104"><ele>476.40000000000003</ele><time>2026-05-02T08:37:15.964Z</time></trkpt><trkpt lat="44.1593741" lon="10.3344642"><ele>476.6</ele><time>2026-05-02T08:37:16.963Z</time></trkpt><trkpt lat="44.1593852" lon="10.3343096"><ele>476.8</ele><time>2026-05-02T08:37:17.964Z</time></trkpt><trkpt lat="44.1593973" lon="10.3341532"><ele>477.0</ele><time>2026-05-02T08:37:18.963Z</time></trkpt><trkpt lat="44.1594085" lon="10.3340159"><ele>477.0</ele><time>2026-05-02T08:37:19.963Z</time></trkpt><trkpt lat="44.1594144" lon="10.33389"><ele>477.0</ele><time>2026-05-02T08:37:20.964Z</time></trkpt><trkpt lat="44.1594173" lon="10.3337693"><ele>477.0</ele><time>2026-05-02T08:37:21.964Z</time></trkpt><trkpt lat="44.1594043" lon="10.3336705"><ele>477.0</ele><time>2026-05-02T08:37:22.963Z</time></trkpt><trkpt lat="44.1593738" lon="10.3335808"><ele>477.0</ele><time>2026-05-02T08:37:23.964Z</time></trkpt><trkpt lat="44.1593247" lon="10.333481"><ele>477.0</ele><time>2026-05-02T08:37:25.964Z</time></trkpt><trkpt lat="44.1592588" lon="10.3333755"><ele>477.5</ele><time>2026-05-02T08:37:34.964Z</time></trkpt><trkpt lat="44.1591601" lon="10.3333045"><ele>478.0</ele><time>2026-05-02T08:37:36.964Z</time></trkpt><trkpt lat="44.1590965" lon="10.3332511"><ele>478.5</ele><time>2026-05-02T08:37:37.964Z</time></trkpt><trkpt lat="44.1590277" lon="10.3331794"><ele>479.0</ele><time>2026-05-02T08:37:38.963Z</time></trkpt><trkpt lat="44.1589834" lon="10.3330924"><ele>479.5</ele><time>2026-05-02T08:37:39.964Z</time></trkpt><trkpt lat="44.1589525" lon="10.3329757"><ele>480.0</ele><time>2026-05-02T08:37:40.964Z</time></trkpt><trkpt lat="44.1589301" lon="10.3328501"><ele>482.1666666666667</ele><time>2026-05-02T08:37:41.964Z</time></trkpt><trkpt lat="44.1589111" lon="10.3327114"><ele>484.33333333333337</ele><time>2026-05-02T08:37:42.964Z</time></trkpt><trkpt lat="44.1588999" lon="10.3326012"><ele>486.5</ele><time>2026-05-02T08:37:43.964Z</time></trkpt><trkpt lat="44.1588745" lon="10.3324664"><ele>488.6666666666667</ele><time>2026-05-02T08:37:45.964Z</time></trkpt><trkpt lat="44.1588411" lon="10.3323884"><ele>490.83333333333337</ele><time>2026-05-02T08:37:47.963Z</time></trkpt><trkpt lat="44.1587731" lon="10.3324131"><ele>493.0</ele><time>2026-05-02T08:37:50.963Z</time></trkpt><trkpt lat="44.1586885" lon="10.3324577"><ele>493.00000000000006</ele><time>2026-05-02T08:37:54.964Z</time></trkpt><trkpt lat="44.1586261" lon="10.3325088"><ele>493.0</ele><time>2026-05-02T08:37:56.963Z</time></trkpt><trkpt lat="44.1585531" lon="10.3324563"><ele>493.0</ele><time>2026-05-02T08:38:00.964Z</time></trkpt><trkpt lat="44.1585333" lon="10.3322907"><ele>493.0</ele><time>2026-05-02T08:38:02.964Z</time></trkpt><trkpt lat="44.1585317" lon="10.3321856"><ele>493.00000000000006</ele><time>2026-05-02T08:38:03.964Z</time></trkpt><trkpt lat="44.1585398" lon="10.3320859"><ele>493.0</ele><time>2026-05-02T08:38:04.963Z</time></trkpt><trkpt lat="44.1585521" lon="10.3319814"><ele>494.33333333333337</ele><time>2026-05-02T08:38:05.963Z</time></trkpt><trkpt lat="44.1585766" lon="10.3318983"><ele>495.6666666666667</ele><time>2026-05-02T08:38:06.964Z</time></trkpt><trkpt lat="44.1585861" lon="10.3318"><ele>497.0</ele><time>2026-05-02T08:38:08.964Z</time></trkpt><trkpt lat="44.1584985" lon="10.3318264"><ele>498.33333333333337</ele><time>2026-05-02T08:38:12.964Z</time></trkpt><trkpt lat="44.1584223" lon="10.3319394"><ele>499.6666666666667</ele><time>2026-05-02T08:38:14.964Z</time></trkpt><trkpt lat="44.1583658" lon="10.3320009"><ele>501.0</ele><time>2026-05-02T08:38:15.964Z</time></trkpt><trkpt lat="44.1583087" lon="10.3320662"><ele>501.0</ele><time>2026-05-02T08:38:16.963Z</time></trkpt><trkpt lat="44.1582636" lon="10.3321374"><ele>501.0</ele><time>2026-05-02T08:38:17.963Z</time></trkpt><trkpt lat="44.1581951" lon="10.3322013"><ele>501.0</ele><time>2026-05-02T08:38:18.964Z</time></trkpt><trkpt lat="44.1581434" lon="10.3322575"><ele>501.0</ele><time>2026-05-02T08:38:19.963Z</time></trkpt><trkpt lat="44.1580375" lon="10.3323066"><ele>501.0</ele><time>2026-05-02T08:38:21.963Z</time></trkpt><trkpt lat="44.15795" lon="10.3322316"><ele>501.0</ele><time>2026-05-02T08:38:23.964Z</time></trkpt><trkpt lat="44.1579319" lon="10.3321284"><ele>502.0</ele><time>2026-05-02T08:38:24.964Z</time></trkpt><trkpt lat="44.1579161" lon="10.3320224"><ele>503.0</ele><time>2026-05-02T08:38:25.964Z</time></trkpt><trkpt lat="44.1578973" lon="10.3319103"><ele>504.0</ele><time>2026-05-02T08:38:26.963Z</time></trkpt><trkpt lat="44.157887" lon="10.3317913"><ele>505.0</ele><time>2026-05-02T08:38:27.964Z</time></trkpt><trkpt lat="44.1578674" lon="10.3316667"><ele>506.0</ele><time>2026-05-02T08:38:28.964Z</time></trkpt><trkpt lat="44.1578478" lon="10.3315354"><ele>507.0</ele><time>2026-05-02T08:38:29.963Z</time></trkpt><trkpt lat="44.1578294" lon="10.3314028"><ele>508.3333333333333</ele><time>2026-05-02T08:38:30.964Z</time></trkpt><trkpt lat="44.1577804" lon="10.3313091"><ele>509.66666666666663</ele><time>2026-05-02T08:38:31.963Z</time></trkpt><trkpt lat="44.1577384" lon="10.3312083"><ele>511.0</ele><time>2026-05-02T08:38:32.963Z</time></trkpt><trkpt lat="44.1576966" lon="10.3311247"><ele>512.3333333333333</ele><time>2026-05-02T08:38:33.964Z</time></trkpt><trkpt lat="44.1576247" lon="10.3310139"><ele>513.6666666666666</ele><time>2026-05-02T08:38:35.964Z</time></trkpt><trkpt lat="44.1575557" lon="10.3309893"><ele>515.0</ele><time>2026-05-02T08:38:38.963Z</time></trkpt><trkpt lat="44.1574601" lon="10.3310279"><ele>515.0</ele><time>2026-05-02T08:38:40.964Z</time></trkpt><trkpt lat="44.1573974" lon="10.3310795"><ele>515.0</ele><time>2026-05-02T08:38:41.964Z</time></trkpt><trkpt lat="44.1573233" lon="10.3311079"><ele>515.0</ele><time>2026-05-02T08:38:42.964Z</time></trkpt><trkpt lat="44.1572426" lon="10.3311137"><ele>515.0</ele><time>2026-05-02T08:38:43.963Z</time></trkpt><trkpt lat="44.1571618" lon="10.3310867"><ele>515.0</ele><time>2026-05-02T08:38:44.964Z</time></trkpt><trkpt lat="44.1570947" lon="10.3310265"><ele>515.0</ele><time>2026-05-02T08:38:45.964Z</time></trkpt><trkpt lat="44.1570447" lon="10.3309414"><ele>516.4285714285714</ele><time>2026-05-02T08:38:46.964Z</time></trkpt><trkpt lat="44.1570213" lon="10.3308328"><ele>517.8571428571429</ele><time>2026-05-02T08:38:47.964Z</time></trkpt><trkpt lat="44.1570177" lon="10.3307238"><ele>519.2857142857142</ele><time>2026-05-02T08:38:48.964Z</time></trkpt><trkpt lat="44.1570218" lon="10.3306353"><ele>520.7142857142858</ele><time>2026-05-02T08:38:49.964Z</time></trkpt><trkpt lat="44.1570371" lon="10.3305493"><ele>522.1428571428571</ele><time>2026-05-02T08:38:50.964Z</time></trkpt><trkpt lat="44.1570653" lon="10.3304569"><ele>523.5714285714286</ele><time>2026-05-02T08:38:51.964Z</time></trkpt><trkpt lat="44.1570977" lon="10.3303653"><ele>525.0</ele><time>2026-05-02T08:38:52.964Z</time></trkpt><trkpt lat="44.157113" lon="10.3302562"><ele>527.4</ele><time>2026-05-02T08:38:53.963Z</time></trkpt><trkpt lat="44.1571134" lon="10.3301376"><ele>529.8</ele><time>2026-05-02T08:38:54.964Z</time></trkpt><trkpt lat="44.1571074" lon="10.3300132"><ele>532.2</ele><time>2026-05-02T08:38:55.964Z</time></trkpt><trkpt lat="44.1570599" lon="10.329889"><ele>534.6</ele><time>2026-05-02T08:38:56.964Z</time></trkpt><trkpt lat="44.1570245" lon="10.3297569"><ele>537.0</ele><time>2026-05-02T08:38:57.964Z</time></trkpt><trkpt lat="44.1569901" lon="10.3296158"><ele>539.75</ele><time>2026-05-02T08:38:58.964Z</time></trkpt><trkpt lat="44.1569689" lon="10.3294733"><ele>542.5</ele><time>2026-05-02T08:38:59.964Z</time></trkpt><trkpt lat="44.1569546" lon="10.3293353"><ele>545.25</ele><time>2026-05-02T08:39:00.963Z</time></trkpt><trkpt lat="44.1569888" lon="10.3291498"><ele>548.0</ele><time>2026-05-02T08:39:01.964Z</time></trkpt><trkpt lat="44.1569945" lon="10.328986"><ele>550.0</ele><time>2026-05-02T08:39:02.964Z</time></trkpt><trkpt lat="44.1569964" lon="10.3287959"><ele>552.0</ele><time>2026-05-02T08:39:03.964Z</time></trkpt><trkpt lat="44.1570201" lon="10.3286068"><ele>554.0</ele><time>2026-05-02T08:39:04.963Z</time></trkpt><trkpt lat="44.157046" lon="10.3284262"><ele>556.0</ele><time>2026-05-02T08:39:05.964Z</time></trkpt><trkpt lat="44.1570805" lon="10.3282571"><ele>556.0</ele><time>2026-05-02T08:39:06.964Z</time></trkpt><trkpt lat="44.1571306" lon="10.3281134"><ele>556.0</ele><time>2026-05-02T08:39:07.964Z</time></trkpt><trkpt lat="44.1571727" lon="10.3279856"><ele>556.0</ele><time>2026-05-02T08:39:08.964Z</time></trkpt><trkpt lat="44.157207" lon="10.3278833"><ele>556.0</ele><time>2026-05-02T08:39:09.964Z</time></trkpt><trkpt lat="44.1572093" lon="10.3277905"><ele>556.0</ele><time>2026-05-02T08:39:10.963Z</time></trkpt><trkpt lat="44.1571211" lon="10.3277095"><ele>556.0</ele><time>2026-05-02T08:39:12.964Z</time></trkpt><trkpt lat="44.1570004" lon="10.3278084"><ele>556.0</ele><time>2026-05-02T08:39:14.964Z</time></trkpt><trkpt lat="44.1569375" lon="10.3278884"><ele>556.0</ele><time>2026-05-02T08:39:15.964Z</time></trkpt><trkpt lat="44.1568515" lon="10.327976"><ele>556.0</ele><time>2026-05-02T08:39:16.963Z</time></trkpt><trkpt lat="44.1567822" lon="10.3280645"><ele>556.0</ele><time>2026-05-02T08:39:17.963Z</time></trkpt><trkpt lat="44.1566925" lon="10.3281021"><ele>556.0</ele><time>2026-05-02T08:39:18.964Z</time></trkpt><trkpt lat="44.1565992" lon="10.3281453"><ele>556.0</ele><time>2026-05-02T08:39:19.963Z</time></trkpt><trkpt lat="44.1565036" lon="10.3281765"><ele>556.0</ele><time>2026-05-02T08:39:20.964Z</time></trkpt><trkpt lat="44.1564049" lon="10.3282059"><ele>556.0</ele><time>2026-05-02T08:39:21.963Z</time></trkpt><trkpt lat="44.1563009" lon="10.3282179"><ele>556.0</ele><time>2026-05-02T08:39:22.964Z</time></trkpt><trkpt lat="44.1561903" lon="10.3282131"><ele>557.3333333333334</ele><time>2026-05-02T08:39:23.964Z</time></trkpt><trkpt lat="44.156081" lon="10.3281947"><ele>558.6666666666667</ele><time>2026-05-02T08:39:24.964Z</time></trkpt><trkpt lat="44.155988" lon="10.3281772"><ele>560.0</ele><time>2026-05-02T08:39:25.963Z</time></trkpt><trkpt lat="44.155926" lon="10.3281495"><ele>561.3333333333334</ele><time>2026-05-02T08:39:26.963Z</time></trkpt><trkpt lat="44.1558802" lon="10.3280882"><ele>562.6666666666666</ele><time>2026-05-02T08:39:27.963Z</time></trkpt><trkpt lat="44.1558858" lon="10.3279296"><ele>564.0</ele><time>2026-05-02T08:39:29.964Z</time></trkpt><trkpt lat="44.1559242" lon="10.3278488"><ele>565.4</ele><time>2026-05-02T08:39:30.963Z</time></trkpt><trkpt lat="44.1559748" lon="10.3277518"><ele>566.8</ele><time>2026-05-02T08:39:31.964Z</time></trkpt><trkpt lat="44.1560332" lon="10.3276389"><ele>568.2</ele><time>2026-05-02T08:39:32.964Z</time></trkpt><trkpt lat="44.1561044" lon="10.3275164"><ele>569.6</ele><time>2026-05-02T08:39:33.963Z</time></trkpt><trkpt lat="44.1561714" lon="10.3273762"><ele>571.0</ele><time>2026-05-02T08:39:34.964Z</time></trkpt><trkpt lat="44.1562324" lon="10.3272244"><ele>573.0</ele><time>2026-05-02T08:39:35.964Z</time></trkpt><trkpt lat="44.1562787" lon="10.3270861"><ele>575.0</ele><time>2026-05-02T08:39:36.963Z</time></trkpt><trkpt lat="44.1563065" lon="10.3269433"><ele>577.0</ele><time>2026-05-02T08:39:37.963Z</time></trkpt><trkpt lat="44.1563088" lon="10.326802"><ele>579.0</ele><time>2026-05-02T08:39:38.963Z</time></trkpt><trkpt lat="44.156284" lon="10.3266565"><ele>581.0</ele><time>2026-05-02T08:39:39.964Z</time></trkpt><trkpt lat="44.1562478" lon="10.3265118"><ele>583.4</ele><time>2026-05-02T08:39:40.964Z</time></trkpt><trkpt lat="44.1562245" lon="10.3263563"><ele>585.8</ele><time>2026-05-02T08:39:41.964Z</time></trkpt><trkpt lat="44.1562059" lon="10.3261995"><ele>588.1999999999999</ele><time>2026-05-02T08:39:42.964Z</time></trkpt><trkpt lat="44.1562121" lon="10.3260749"><ele>590.6</ele><time>2026-05-02T08:39:43.964Z</time></trkpt><trkpt lat="44.1562227" lon="10.3259643"><ele>593.0</ele><time>2026-05-02T08:39:44.964Z</time></trkpt><trkpt lat="44.1562344" lon="10.3258767"><ele>593.0</ele><time>2026-05-02T08:39:45.964Z</time></trkpt><trkpt lat="44.1561961" lon="10.3257526"><ele>593.0</ele><time>2026-05-02T08:39:47.963Z</time></trkpt><trkpt lat="44.1561024" lon="10.3257255"><ele>593.0</ele><time>2026-05-02T08:39:49.963Z</time></trkpt><trkpt lat="44.1560294" lon="10.3257461"><ele>593.0</ele><time>2026-05-02T08:39:50.964Z</time></trkpt><trkpt lat="44.1559466" lon="10.3257637"><ele>593.0</ele><time>2026-05-02T08:39:51.964Z</time></trkpt><trkpt lat="44.1558437" lon="10.3257785"><ele>593.0</ele><time>2026-05-02T08:39:52.963Z</time></trkpt><trkpt lat="44.155732" lon="10.3258023"><ele>593.0</ele><time>2026-05-02T08:39:53.964Z</time></trkpt><trkpt lat="44.1556156" lon="10.3258195"><ele>593.0</ele><time>2026-05-02T08:39:54.964Z</time></trkpt><trkpt lat="44.1554925" lon="10.325832"><ele>593.0</ele><time>2026-05-02T08:39:55.964Z</time></trkpt><trkpt lat="44.1553806" lon="10.3258362"><ele>593.3333333333333</ele><time>2026-05-02T08:39:56.964Z</time></trkpt><trkpt lat="44.1552816" lon="10.3258262"><ele>593.6666666666666</ele><time>2026-05-02T08:39:57.964Z</time></trkpt><trkpt lat="44.1552047" lon="10.3257797"><ele>594.0</ele><time>2026-05-02T08:39:58.963Z</time></trkpt><trkpt lat="44.1551517" lon="10.325695"><ele>594.3333333333334</ele><time>2026-05-02T08:39:59.964Z</time></trkpt><trkpt lat="44.1551262" lon="10.3255841"><ele>594.6666666666667</ele><time>2026-05-02T08:40:00.964Z</time></trkpt><trkpt lat="44.1551125" lon="10.3254657"><ele>595.0</ele><time>2026-05-02T08:40:01.963Z</time></trkpt><trkpt lat="44.1550793" lon="10.3253557"><ele>596.4</ele><time>2026-05-02T08:40:02.964Z</time></trkpt><trkpt lat="44.155017" lon="10.3252612"><ele>597.8</ele><time>2026-05-02T08:40:03.964Z</time></trkpt><trkpt lat="44.1549366" lon="10.3251782"><ele>599.2</ele><time>2026-05-02T08:40:04.963Z</time></trkpt><trkpt lat="44.1548408" lon="10.3250922"><ele>600.6</ele><time>2026-05-02T08:40:05.964Z</time></trkpt><trkpt lat="44.1547561" lon="10.3250087"><ele>602.0</ele><time>2026-05-02T08:40:06.963Z</time></trkpt><trkpt lat="44.1546688" lon="10.3249632"><ele>603.0</ele><time>2026-05-02T08:40:07.964Z</time></trkpt><trkpt lat="44.1545759" lon="10.3249537"><ele>604.0</ele><time>2026-05-02T08:40:08.964Z</time></trkpt><trkpt lat="44.1544756" lon="10.324981"><ele>605.0</ele><time>2026-05-02T08:40:09.964Z</time></trkpt><trkpt lat="44.1543727" lon="10.3250294"><ele>606.0</ele><time>2026-05-02T08:40:10.964Z</time></trkpt><trkpt lat="44.1542683" lon="10.325083"><ele>607.0</ele><time>2026-05-02T08:40:11.963Z</time></trkpt><trkpt lat="44.1541616" lon="10.3251378"><ele>607.0</ele><time>2026-05-02T08:40:12.964Z</time></trkpt><trkpt lat="44.1540575" lon="10.3251802"><ele>607.0</ele><time>2026-05-02T08:40:13.964Z</time></trkpt><trkpt lat="44.1539636" lon="10.3252083"><ele>607.0</ele><time>2026-05-02T08:40:14.964Z</time></trkpt><trkpt lat="44.1538709" lon="10.3252117"><ele>607.0</ele><time>2026-05-02T08:40:15.964Z</time></trkpt><trkpt lat="44.1537951" lon="10.3251779"><ele>607.0</ele><time>2026-05-02T08:40:16.964Z</time></trkpt><trkpt lat="44.1537338" lon="10.325095"><ele>609.4</ele><time>2026-05-02T08:40:17.964Z</time></trkpt><trkpt lat="44.1537" lon="10.3249883"><ele>611.8000000000001</ele><time>2026-05-02T08:40:18.963Z</time></trkpt><trkpt lat="44.1537026" lon="10.3248718"><ele>614.2</ele><time>2026-05-02T08:40:19.964Z</time></trkpt><trkpt lat="44.1537408" lon="10.3247579"><ele>616.6</ele><time>2026-05-02T08:40:20.963Z</time></trkpt><trkpt lat="44.1537941" lon="10.3246463"><ele>619.0</ele><time>2026-05-02T08:40:21.963Z</time></trkpt><trkpt lat="44.1538572" lon="10.324519"><ele>617.5</ele><time>2026-05-02T08:40:22.963Z</time></trkpt><trkpt lat="44.1539294" lon="10.3243819"><ele>616.0</ele><time>2026-05-02T08:40:23.964Z</time></trkpt><trkpt lat="44.1539999" lon="10.3242357"><ele>614.5</ele><time>2026-05-02T08:40:24.964Z</time></trkpt><trkpt lat="44.1540619" lon="10.3240918"><ele>613.0</ele><time>2026-05-02T08:40:25.963Z</time></trkpt><trkpt lat="44.154118" lon="10.323957"><ele>614.8</ele><time>2026-05-02T08:40:26.963Z</time></trkpt><trkpt lat="44.1541654" lon="10.3238313"><ele>616.5999999999999</ele><time>2026-05-02T08:40:27.964Z</time></trkpt><trkpt lat="44.1542111" lon="10.3237071"><ele>618.4000000000001</ele><time>2026-05-02T08:40:28.964Z</time></trkpt><trkpt lat="44.1542085" lon="10.323584"><ele>620.2</ele><time>2026-05-02T08:40:29.963Z</time></trkpt><trkpt lat="44.1542323" lon="10.3234666"><ele>622.0</ele><time>2026-05-02T08:40:30.964Z</time></trkpt><trkpt lat="44.1542037" lon="10.323316"><ele>622.0</ele><time>2026-05-02T08:40:31.964Z</time></trkpt><trkpt lat="44.1541829" lon="10.3231772"><ele>622.0</ele><time>2026-05-02T08:40:32.964Z</time></trkpt><trkpt lat="44.1541436" lon="10.3230453"><ele>622.0</ele><time>2026-05-02T08:40:33.964Z</time></trkpt><trkpt lat="44.1540849" lon="10.3229392"><ele>622.0</ele><time>2026-05-02T08:40:34.963Z</time></trkpt><trkpt lat="44.1540051" lon="10.3228684"><ele>622.0</ele><time>2026-05-02T08:40:35.964Z</time></trkpt><trkpt lat="44.1539328" lon="10.3227844"><ele>626.5</ele><time>2026-05-02T08:40:36.963Z</time></trkpt><trkpt lat="44.1538009" lon="10.3228053"><ele>631.0</ele><time>2026-05-02T08:40:37.964Z</time></trkpt><trkpt lat="44.1536949" lon="10.3227862"><ele>635.5</ele><time>2026-05-02T08:40:38.963Z</time></trkpt><trkpt lat="44.1535753" lon="10.3227699"><ele>640.0</ele><time>2026-05-02T08:40:39.963Z</time></trkpt><trkpt lat="44.1534525" lon="10.3227677"><ele>640.0</ele><time>2026-05-02T08:40:40.964Z</time></trkpt><trkpt lat="44.1533277" lon="10.3227584"><ele>640.0</ele><time>2026-05-02T08:40:41.963Z</time></trkpt><trkpt lat="44.1532123" lon="10.3227479"><ele>640.0</ele><time>2026-05-02T08:40:42.963Z</time></trkpt><trkpt lat="44.1531027" lon="10.3227303"><ele>640.0</ele><time>2026-05-02T08:40:43.964Z</time></trkpt><trkpt lat="44.1529896" lon="10.3227316"><ele>642.5</ele><time>2026-05-02T08:40:44.964Z</time></trkpt><trkpt lat="44.1528781" lon="10.3227591"><ele>645.0</ele><time>2026-05-02T08:40:45.964Z</time></trkpt><trkpt lat="44.1527727" lon="10.3228208"><ele>647.5</ele><time>2026-05-02T08:40:46.964Z</time></trkpt><trkpt lat="44.1526782" lon="10.3229038"><ele>650.0</ele><time>2026-05-02T08:40:47.964Z</time></trkpt><trkpt lat="44.1525849" lon="10.3230053"><ele>648.5</ele><time>2026-05-02T08:40:48.964Z</time></trkpt><trkpt lat="44.1524873" lon="10.3231165"><ele>647.0</ele><time>2026-05-02T08:40:49.964Z</time></trkpt><trkpt lat="44.1523874" lon="10.3232241"><ele>645.5</ele><time>2026-05-02T08:40:50.963Z</time></trkpt><trkpt lat="44.1522997" lon="10.3233304"><ele>644.0</ele><time>2026-05-02T08:40:51.964Z</time></trkpt><trkpt lat="44.1522198" lon="10.3234197"><ele>646.8333333333333</ele><time>2026-05-02T08:40:52.964Z</time></trkpt><trkpt lat="44.1521458" lon="10.323495"><ele>649.6666666666666</ele><time>2026-05-02T08:40:53.964Z</time></trkpt><trkpt lat="44.1520746" lon="10.323565"><ele>652.5</ele><time>2026-05-02T08:40:54.964Z</time></trkpt><trkpt lat="44.1520085" lon="10.3236383"><ele>655.3333333333334</ele><time>2026-05-02T08:40:55.963Z</time></trkpt><trkpt lat="44.1519374" lon="10.3237117"><ele>658.1666666666667</ele><time>2026-05-02T08:40:56.964Z</time></trkpt><trkpt lat="44.1518583" lon="10.3237883"><ele>661.0</ele><time>2026-05-02T08:40:57.964Z</time></trkpt><trkpt lat="44.1517859" lon="10.3238623"><ele>660.8333333333334</ele><time>2026-05-02T08:40:58.964Z</time></trkpt><trkpt lat="44.1517135" lon="10.3239482"><ele>660.6666666666667</ele><time>2026-05-02T08:40:59.964Z</time></trkpt><trkpt lat="44.1516502" lon="10.3240266"><ele>660.5</ele><time>2026-05-02T08:41:00.964Z</time></trkpt><trkpt lat="44.151601" lon="10.3241078"><ele>660.3333333333334</ele><time>2026-05-02T08:41:01.964Z</time></trkpt><trkpt lat="44.1515508" lon="10.3242057"><ele>660.1666666666666</ele><time>2026-05-02T08:41:02.964Z</time></trkpt><trkpt lat="44.1515036" lon="10.3243113"><ele>660.0</ele><time>2026-05-02T08:41:03.964Z</time></trkpt><trkpt lat="44.1514645" lon="10.3244272"><ele>660.0</ele><time>2026-05-02T08:41:04.963Z</time></trkpt><trkpt lat="44.1514298" lon="10.324552"><ele>660.0</ele><time>2026-05-02T08:41:05.963Z</time></trkpt><trkpt lat="44.1513978" lon="10.3246726"><ele>660.0</ele><time>2026-05-02T08:41:06.964Z</time></trkpt><trkpt lat="44.1513747" lon="10.3247834"><ele>660.0</ele><time>2026-05-02T08:41:07.964Z</time></trkpt><trkpt lat="44.1513442" lon="10.3248795"><ele>660.0</ele><time>2026-05-02T08:41:08.963Z</time></trkpt><trkpt lat="44.151296" lon="10.3249504"><ele>660.0</ele><time>2026-05-02T08:41:09.964Z</time></trkpt><trkpt lat="44.1512312" lon="10.324996"><ele>657.2</ele><time>2026-05-02T08:41:10.964Z</time></trkpt><trkpt lat="44.1511546" lon="10.3250027"><ele>654.4</ele><time>2026-05-02T08:41:11.964Z</time></trkpt><trkpt lat="44.1510663" lon="10.3249864"><ele>651.5999999999999</ele><time>2026-05-02T08:41:12.963Z</time></trkpt><trkpt lat="44.1509652" lon="10.3249599"><ele>648.8</ele><time>2026-05-02T08:41:13.964Z</time></trkpt><trkpt lat="44.150862" lon="10.3249313"><ele>646.0</ele><time>2026-05-02T08:41:14.964Z</time></trkpt><trkpt lat="44.1507449" lon="10.3248988"><ele>646.4</ele><time>2026-05-02T08:41:15.964Z</time></trkpt><trkpt lat="44.1506361" lon="10.3248674"><ele>646.8</ele><time>2026-05-02T08:41:16.964Z</time></trkpt><trkpt lat="44.1505274" lon="10.3248401"><ele>647.1999999999999</ele><time>2026-05-02T08:41:17.963Z</time></trkpt><trkpt lat="44.1504185" lon="10.3248268"><ele>647.5999999999999</ele><time>2026-05-02T08:41:18.964Z</time></trkpt><trkpt lat="44.1503074" lon="10.3248231"><ele>648.0</ele><time>2026-05-02T08:41:19.964Z</time></trkpt><trkpt lat="44.150195" lon="10.3248252"><ele>648.0</ele><time>2026-05-02T08:41:20.964Z</time></trkpt><trkpt lat="44.1500783" lon="10.3248359"><ele>648.0</ele><time>2026-05-02T08:41:21.963Z</time></trkpt><trkpt lat="44.1499735" lon="10.3248424"><ele>648.0</ele><time>2026-05-02T08:41:22.964Z</time></trkpt><trkpt lat="44.1498715" lon="10.3248571"><ele>648.0</ele><time>2026-05-02T08:41:23.964Z</time></trkpt><trkpt lat="44.1497684" lon="10.3248653"><ele>648.0</ele><time>2026-05-02T08:41:24.963Z</time></trkpt><trkpt lat="44.1496608" lon="10.3248619"><ele>648.25</ele><time>2026-05-02T08:41:25.964Z</time></trkpt><trkpt lat="44.1495492" lon="10.3248553"><ele>648.5</ele><time>2026-05-02T08:41:26.964Z</time></trkpt><trkpt lat="44.1494288" lon="10.3248502"><ele>648.75</ele><time>2026-05-02T08:41:27.964Z</time></trkpt><trkpt lat="44.1493078" lon="10.3248331"><ele>649.0</ele><time>2026-05-02T08:41:28.964Z</time></trkpt><trkpt lat="44.1491885" lon="10.3248159"><ele>649.0</ele><time>2026-05-02T08:41:29.963Z</time></trkpt><trkpt lat="44.1490633" lon="10.3247989"><ele>649.0</ele><time>2026-05-02T08:41:30.964Z</time></trkpt><trkpt lat="44.1489376" lon="10.3247778"><ele>649.0</ele><time>2026-05-02T08:41:31.963Z</time></trkpt><trkpt lat="44.1488297" lon="10.3247668"><ele>649.0</ele><time>2026-05-02T08:41:32.964Z</time></trkpt><trkpt lat="44.1487149" lon="10.3247446"><ele>654.6</ele><time>2026-05-02T08:41:33.963Z</time></trkpt><trkpt lat="44.1486122" lon="10.3246956"><ele>660.2</ele><time>2026-05-02T08:41:34.963Z</time></trkpt><trkpt lat="44.148507" lon="10.324655"><ele>665.8000000000001</ele><time>2026-05-02T08:41:35.964Z</time></trkpt><trkpt lat="44.1484043" lon="10.324645"><ele>671.4000000000001</ele><time>2026-05-02T08:41:36.964Z</time></trkpt><trkpt lat="44.1482942" lon="10.324669"><ele>677.0</ele><time>2026-05-02T08:41:37.963Z</time></trkpt><trkpt lat="44.1481948" lon="10.324714"><ele>674.8</ele><time>2026-05-02T08:41:38.964Z</time></trkpt><trkpt lat="44.1481007" lon="10.3247484"><ele>672.6</ele><time>2026-05-02T08:41:39.964Z</time></trkpt><trkpt lat="44.1480108" lon="10.324741"><ele>670.4</ele><time>2026-05-02T08:41:40.964Z</time></trkpt><trkpt lat="44.1479269" lon="10.3247302"><ele>668.1999999999999</ele><time>2026-05-02T08:41:41.963Z</time></trkpt><trkpt lat="44.1478318" lon="10.324704"><ele>666.0</ele><time>2026-05-02T08:41:42.963Z</time></trkpt><trkpt lat="44.1477272" lon="10.3246877"><ele>666.0</ele><time>2026-05-02T08:41:43.963Z</time></trkpt><trkpt lat="44.1476485" lon="10.3248066"><ele>666.0</ele><time>2026-05-02T08:41:44.964Z</time></trkpt><trkpt lat="44.1475437" lon="10.3248627"><ele>666.0</ele><time>2026-05-02T08:41:45.964Z</time></trkpt><trkpt lat="44.1474515" lon="10.3248972"><ele>666.0</ele><time>2026-05-02T08:41:46.963Z</time></trkpt><trkpt lat="44.1473611" lon="10.3249263"><ele>666.0</ele><time>2026-05-02T08:41:47.964Z</time></trkpt><trkpt lat="44.1472858" lon="10.3249637"><ele>671.1666666666666</ele><time>2026-05-02T08:41:48.964Z</time></trkpt><trkpt lat="44.1472369" lon="10.325044"><ele>676.3333333333334</ele><time>2026-05-02T08:41:49.963Z</time></trkpt><trkpt lat="44.1472135" lon="10.3251482"><ele>681.5</ele><time>2026-05-02T08:41:50.964Z</time></trkpt><trkpt lat="44.1472411" lon="10.3252579"><ele>686.6666666666667</ele><time>2026-05-02T08:41:51.964Z</time></trkpt><trkpt lat="44.147254" lon="10.3253742"><ele>691.8333333333334</ele><time>2026-05-02T08:41:52.964Z</time></trkpt><trkpt lat="44.147252" lon="10.3254685"><ele>697.0</ele><time>2026-05-02T08:41:53.964Z</time></trkpt><trkpt lat="44.1472236" lon="10.3255505"><ele>690.6</ele><time>2026-05-02T08:41:54.963Z</time></trkpt><trkpt lat="44.1471521" lon="10.3255844"><ele>684.2</ele><time>2026-05-02T08:41:55.964Z</time></trkpt><trkpt lat="44.1470696" lon="10.3255956"><ele>677.8</ele><time>2026-05-02T08:41:56.964Z</time></trkpt><trkpt lat="44.1469649" lon="10.3256113"><ele>671.4</ele><time>2026-05-02T08:41:57.963Z</time></trkpt><trkpt lat="44.1468639" lon="10.3256267"><ele>665.0</ele><time>2026-05-02T08:41:58.963Z</time></trkpt><trkpt lat="44.1467684" lon="10.3256227"><ele>665.0</ele><time>2026-05-02T08:41:59.963Z</time></trkpt><trkpt lat="44.146689" lon="10.3255962"><ele>665.0</ele><time>2026-05-02T08:42:00.964Z</time></trkpt><trkpt lat="44.146609" lon="10.3255967"><ele>665.0</ele><time>2026-05-02T08:42:01.964Z</time></trkpt><trkpt lat="44.1465272" lon="10.3256751"><ele>665.0</ele><time>2026-05-02T08:42:02.964Z</time></trkpt><trkpt lat="44.1464476" lon="10.3257544"><ele>665.0</ele><time>2026-05-02T08:42:03.963Z</time></trkpt><trkpt lat="44.1463773" lon="10.3258421"><ele>663.5</ele><time>2026-05-02T08:42:04.963Z</time></trkpt><trkpt lat="44.1463248" lon="10.3259536"><ele>662.0</ele><time>2026-05-02T08:42:05.963Z</time></trkpt><trkpt lat="44.1462931" lon="10.3260789"><ele>660.5</ele><time>2026-05-02T08:42:06.964Z</time></trkpt><trkpt lat="44.1462659" lon="10.3261955"><ele>659.0</ele><time>2026-05-02T08:42:07.964Z</time></trkpt><trkpt lat="44.1462165" lon="10.3262954"><ele>657.5</ele><time>2026-05-02T08:42:08.964Z</time></trkpt><trkpt lat="44.1461484" lon="10.3263495"><ele>656.0</ele><time>2026-05-02T08:42:09.964Z</time></trkpt><trkpt lat="44.1460909" lon="10.3264046"><ele>662.0</ele><time>2026-05-02T08:42:10.963Z</time></trkpt><trkpt lat="44.1460165" lon="10.326275"><ele>668.0</ele><time>2026-05-02T08:42:11.964Z</time></trkpt><trkpt lat="44.1459615" lon="10.3262167"><ele>674.0</ele><time>2026-05-02T08:42:12.963Z</time></trkpt><trkpt lat="44.1458881" lon="10.3261343"><ele>680.0</ele><time>2026-05-02T08:42:13.964Z</time></trkpt><trkpt lat="44.1457997" lon="10.3260924"><ele>686.0</ele><time>2026-05-02T08:42:14.963Z</time></trkpt><trkpt lat="44.1457174" lon="10.3260666"><ele>685.6666666666666</ele><time>2026-05-02T08:42:15.964Z</time></trkpt><trkpt lat="44.1456412" lon="10.3260877"><ele>685.3333333333333</ele><time>2026-05-02T08:42:16.964Z</time></trkpt><trkpt lat="44.1455833" lon="10.3261531"><ele>685.0</ele><time>2026-05-02T08:42:17.964Z</time></trkpt><trkpt lat="44.1455254" lon="10.3262075"><ele>684.6666666666666</ele><time>2026-05-02T08:42:18.964Z</time></trkpt><trkpt lat="44.1455349" lon="10.3263616"><ele>684.3333333333334</ele><time>2026-05-02T08:42:19.964Z</time></trkpt><trkpt lat="44.145516" lon="10.3264899"><ele>684.0</ele><time>2026-05-02T08:42:20.964Z</time></trkpt><trkpt lat="44.1455007" lon="10.3265973"><ele>684.0</ele><time>2026-05-02T08:42:21.963Z</time></trkpt><trkpt lat="44.1454777" lon="10.3266859"><ele>684.0</ele><time>2026-05-02T08:42:22.963Z</time></trkpt><trkpt lat="44.1453912" lon="10.3267467"><ele>684.0</ele><time>2026-05-02T08:42:23.964Z</time></trkpt><trkpt lat="44.1453281" lon="10.3267963"><ele>684.0</ele><time>2026-05-02T08:42:24.963Z</time></trkpt><trkpt lat="44.1452396" lon="10.3268375"><ele>684.0</ele><time>2026-05-02T08:42:25.964Z</time></trkpt><trkpt lat="44.1451298" lon="10.3268948"><ele>684.0</ele><time>2026-05-02T08:42:26.964Z</time></trkpt><trkpt lat="44.1450341" lon="10.3269512"><ele>684.0</ele><time>2026-05-02T08:42:27.963Z</time></trkpt><trkpt lat="44.1449127" lon="10.3270165"><ele>684.0</ele><time>2026-05-02T08:42:28.964Z</time></trkpt><trkpt lat="44.1448026" lon="10.3270883"><ele>684.0</ele><time>2026-05-02T08:42:29.964Z</time></trkpt><trkpt lat="44.1446723" lon="10.3271476"><ele>684.0</ele><time>2026-05-02T08:42:30.964Z</time></trkpt><trkpt lat="44.1445514" lon="10.3272009"><ele>679.0</ele><time>2026-05-02T08:42:31.964Z</time></trkpt><trkpt lat="44.1444161" lon="10.3272363"><ele>674.0</ele><time>2026-05-02T08:42:32.964Z</time></trkpt><trkpt lat="44.1442937" lon="10.3272787"><ele>669.0</ele><time>2026-05-02T08:42:33.964Z</time></trkpt><trkpt lat="44.1441792" lon="10.3273292"><ele>664.0</ele><time>2026-05-02T08:42:34.964Z</time></trkpt><trkpt lat="44.1440661" lon="10.3274092"><ele>660.8000000000001</ele><time>2026-05-02T08:42:35.963Z</time></trkpt><trkpt lat="44.1439601" lon="10.3274907"><ele>657.6</ele><time>2026-05-02T08:42:36.964Z</time></trkpt><trkpt lat="44.1438773" lon="10.3275927"><ele>654.4</ele><time>2026-05-02T08:42:37.963Z</time></trkpt><trkpt lat="44.1438158" lon="10.3277143"><ele>651.2</ele><time>2026-05-02T08:42:38.964Z</time></trkpt><trkpt lat="44.1437748" lon="10.3278583"><ele>648.0</ele><time>2026-05-02T08:42:39.963Z</time></trkpt><trkpt lat="44.1437355" lon="10.3279738"><ele>648.0</ele><time>2026-05-02T08:42:40.964Z</time></trkpt><trkpt lat="44.1436844" lon="10.3280631"><ele>648.0</ele><time>2026-05-02T08:42:41.963Z</time></trkpt><trkpt lat="44.1436228" lon="10.3281021"><ele>648.0</ele><time>2026-05-02T08:42:42.963Z</time></trkpt><trkpt lat="44.1435161" lon="10.3280777"><ele>648.0</ele><time>2026-05-02T08:42:44.964Z</time></trkpt><trkpt lat="44.1435136" lon="10.3278864"><ele>648.0</ele><time>2026-05-02T08:42:46.964Z</time></trkpt><trkpt lat="44.143519" lon="10.3277798"><ele>648.0</ele><time>2026-05-02T08:42:47.963Z</time></trkpt><trkpt lat="44.1435161" lon="10.3276469"><ele>648.0</ele><time>2026-05-02T08:42:48.963Z</time></trkpt><trkpt lat="44.1434961" lon="10.3275301"><ele>648.0</ele><time>2026-05-02T08:42:49.964Z</time></trkpt><trkpt lat="44.1434751" lon="10.3274276"><ele>648.0</ele><time>2026-05-02T08:42:50.964Z</time></trkpt><trkpt lat="44.1434922" lon="10.3273431"><ele>648.0</ele><time>2026-05-02T08:42:51.964Z</time></trkpt><trkpt lat="44.1435462" lon="10.3272809"><ele>648.0</ele><time>2026-05-02T08:42:52.964Z</time></trkpt><trkpt lat="44.1436706" lon="10.327159"><ele>645.0</ele><time>2026-05-02T08:42:54.964Z</time></trkpt><trkpt lat="44.1437218" lon="10.3270613"><ele>642.0</ele><time>2026-05-02T08:42:55.964Z</time></trkpt><trkpt lat="44.1437698" lon="10.3269304"><ele>639.0</ele><time>2026-05-02T08:42:56.963Z</time></trkpt><trkpt lat="44.143811" lon="10.3268177"><ele>636.0</ele><time>2026-05-02T08:42:57.964Z</time></trkpt><trkpt lat="44.1438614" lon="10.3267159"><ele>633.0</ele><time>2026-05-02T08:42:58.964Z</time></trkpt><trkpt lat="44.1439305" lon="10.326625"><ele>633.0</ele><time>2026-05-02T08:42:59.964Z</time></trkpt><trkpt lat="44.143993" lon="10.3265344"><ele>633.0</ele><time>2026-05-02T08:43:00.964Z</time></trkpt><trkpt lat="44.1440465" lon="10.3264362"><ele>633.0</ele><time>2026-05-02T08:43:01.963Z</time></trkpt><trkpt lat="44.1440979" lon="10.3263299"><ele>633.0</ele><time>2026-05-02T08:43:02.964Z</time></trkpt><trkpt lat="44.1441399" lon="10.3262197"><ele>633.0</ele><time>2026-05-02T08:43:03.964Z</time></trkpt><trkpt lat="44.144167" lon="10.32611"><ele>633.0</ele><time>2026-05-02T08:43:04.964Z</time></trkpt><trkpt lat="44.1441543" lon="10.3259899"><ele>632.6666666666666</ele><time>2026-05-02T08:43:05.964Z</time></trkpt><trkpt lat="44.1441529" lon="10.3258713"><ele>632.3333333333334</ele><time>2026-05-02T08:43:06.964Z</time></trkpt><trkpt lat="44.1440922" lon="10.3257942"><ele>632.0</ele><time>2026-05-02T08:43:07.964Z</time></trkpt><trkpt lat="44.1440402" lon="10.3256945"><ele>631.6666666666667</ele><time>2026-05-02T08:43:08.963Z</time></trkpt><trkpt lat="44.1439903" lon="10.3255926"><ele>631.3333333333334</ele><time>2026-05-02T08:43:09.964Z</time></trkpt><trkpt lat="44.1439652" lon="10.3254647"><ele>631.0</ele><time>2026-05-02T08:43:10.964Z</time></trkpt><trkpt lat="44.1439368" lon="10.3253298"><ele>635.5</ele><time>2026-05-02T08:43:11.963Z</time></trkpt><trkpt lat="44.1439117" lon="10.3251862"><ele>640.0</ele><time>2026-05-02T08:43:12.964Z</time></trkpt><trkpt lat="44.1438737" lon="10.3250172"><ele>644.5</ele><time>2026-05-02T08:43:13.964Z</time></trkpt><trkpt lat="44.1438446" lon="10.3248612"><ele>649.0</ele><time>2026-05-02T08:43:14.963Z</time></trkpt><trkpt lat="44.1438171" lon="10.3247055"><ele>650.0</ele><time>2026-05-02T08:43:15.963Z</time></trkpt><trkpt lat="44.143794" lon="10.324554"><ele>651.0</ele><time>2026-05-02T08:43:16.963Z</time></trkpt><trkpt lat="44.1437748" lon="10.3244049"><ele>652.0</ele><time>2026-05-02T08:43:17.964Z</time></trkpt><trkpt lat="44.1437698" lon="10.3243154"><ele>653.0</ele><time>2026-05-02T08:43:18.964Z</time></trkpt><trkpt lat="44.1437708" lon="10.3242184"><ele>654.0</ele><time>2026-05-02T08:43:20.964Z</time></trkpt><trkpt lat="44.1437538" lon="10.3240883"><ele>655.0</ele><time>2026-05-02T08:43:23.963Z</time></trkpt><trkpt lat="44.1437517" lon="10.3239691"><ele>661.0</ele><time>2026-05-02T08:43:25.963Z</time></trkpt><trkpt lat="44.1437434" lon="10.3238282"><ele>667.0</ele><time>2026-05-02T08:43:27.963Z</time></trkpt><trkpt lat="44.1436695" lon="10.3237114"><ele>673.0</ele><time>2026-05-02T08:43:29.964Z</time></trkpt><trkpt lat="44.1435967" lon="10.3236832"><ele>679.0</ele><time>2026-05-02T08:43:30.963Z</time></trkpt><trkpt lat="44.1435198" lon="10.3236638"><ele>685.0</ele><time>2026-05-02T08:43:31.963Z</time></trkpt><trkpt lat="44.1434363" lon="10.323637"><ele>685.0</ele><time>2026-05-02T08:43:32.963Z</time></trkpt><trkpt lat="44.1433558" lon="10.3235853"><ele>685.0</ele><time>2026-05-02T08:43:33.964Z</time></trkpt><trkpt lat="44.1432759" lon="10.3235348"><ele>685.0</ele><time>2026-05-02T08:43:34.964Z</time></trkpt><trkpt lat="44.1432066" lon="10.3234622"><ele>685.0</ele><time>2026-05-02T08:43:35.963Z</time></trkpt><trkpt lat="44.1431347" lon="10.3234039"><ele>685.0</ele><time>2026-05-02T08:43:36.963Z</time></trkpt><trkpt lat="44.1430608" lon="10.3233383"><ele>685.0</ele><time>2026-05-02T08:43:37.964Z</time></trkpt><trkpt lat="44.1429932" lon="10.3232763"><ele>677.3333333333334</ele><time>2026-05-02T08:43:38.964Z</time></trkpt><trkpt lat="44.1429387" lon="10.3232149"><ele>669.6666666666667</ele><time>2026-05-02T08:43:39.963Z</time></trkpt><trkpt lat="44.142901" lon="10.3231317"><ele>662.0</ele><time>2026-05-02T08:43:40.964Z</time></trkpt><trkpt lat="44.1428898" lon="10.3230362"><ele>654.3333333333334</ele><time>2026-05-02T08:43:41.964Z</time></trkpt><trkpt lat="44.1428855" lon="10.3229434"><ele>646.6666666666666</ele><time>2026-05-02T08:43:42.963Z</time></trkpt><trkpt lat="44.1428658" lon="10.3228104"><ele>639.0</ele><time>2026-05-02T08:43:43.964Z</time></trkpt><trkpt lat="44.1428346" lon="10.3226739"><ele>639.0</ele><time>2026-05-02T08:43:44.964Z</time></trkpt><trkpt lat="44.1427943" lon="10.3225425"><ele>639.0</ele><time>2026-05-02T08:43:45.964Z</time></trkpt><trkpt lat="44.1427585" lon="10.3224089"><ele>639.0</ele><time>2026-05-02T08:43:46.964Z</time></trkpt><trkpt lat="44.1427242" lon="10.3222723"><ele>639.0</ele><time>2026-05-02T08:43:47.964Z</time></trkpt><trkpt lat="44.142687" lon="10.322138"><ele>639.0</ele><time>2026-05-02T08:43:48.964Z</time></trkpt><trkpt lat="44.1426593" lon="10.3220096"><ele>640.0</ele><time>2026-05-02T08:43:49.964Z</time></trkpt><trkpt lat="44.1426572" lon="10.3218688"><ele>641.0</ele><time>2026-05-02T08:43:50.964Z</time></trkpt><trkpt lat="44.1426553" lon="10.3217307"><ele>642.0</ele><time>2026-05-02T08:43:51.964Z</time></trkpt><trkpt lat="44.1426664" lon="10.3215933"><ele>643.0</ele><time>2026-05-02T08:43:52.964Z</time></trkpt><trkpt lat="44.1426725" lon="10.3214466"><ele>644.0</ele><time>2026-05-02T08:43:53.964Z</time></trkpt><trkpt lat="44.1426784" lon="10.3213152"><ele>641.2</ele><time>2026-05-02T08:43:54.964Z</time></trkpt><trkpt lat="44.1426879" lon="10.3211738"><ele>638.4000000000001</ele><time>2026-05-02T08:43:55.963Z</time></trkpt><trkpt lat="44.1426924" lon="10.3210389"><ele>635.6</ele><time>2026-05-02T08:43:56.964Z</time></trkpt><trkpt lat="44.1427233" lon="10.3209402"><ele>632.8</ele><time>2026-05-02T08:43:57.963Z</time></trkpt><trkpt lat="44.1427818" lon="10.3208763"><ele>630.0</ele><time>2026-05-02T08:43:58.963Z</time></trkpt><trkpt lat="44.1428886" lon="10.3208946"><ele>630.0</ele><time>2026-05-02T08:43:59.964Z</time></trkpt><trkpt lat="44.1429844" lon="10.3208718"><ele>630.0</ele><time>2026-05-02T08:44:00.963Z</time></trkpt><trkpt lat="44.1430844" lon="10.3208758"><ele>630.0</ele><time>2026-05-02T08:44:01.964Z</time></trkpt><trkpt lat="44.1431544" lon="10.3208621"><ele>630.0</ele><time>2026-05-02T08:44:02.963Z</time></trkpt><trkpt lat="44.1432273" lon="10.3208413"><ele>630.0</ele><time>2026-05-02T08:44:03.963Z</time></trkpt><trkpt lat="44.1432714" lon="10.3207184"><ele>630.0</ele><time>2026-05-02T08:44:05.964Z</time></trkpt><trkpt lat="44.1432573" lon="10.3206257"><ele>628.4</ele><time>2026-05-02T08:44:06.963Z</time></trkpt><trkpt lat="44.1432324" lon="10.3205326"><ele>626.8</ele><time>2026-05-02T08:44:07.963Z</time></trkpt><trkpt lat="44.143157" lon="10.3204274"><ele>625.2</ele><time>2026-05-02T08:44:08.963Z</time></trkpt><trkpt lat="44.1431025" lon="10.3203244"><ele>623.6</ele><time>2026-05-02T08:44:09.964Z</time></trkpt><trkpt lat="44.1430519" lon="10.3202153"><ele>622.0</ele><time>2026-05-02T08:44:10.964Z</time></trkpt><trkpt lat="44.1430278" lon="10.3200978"><ele>622.0</ele><time>2026-05-02T08:44:11.964Z</time></trkpt><trkpt lat="44.1430068" lon="10.3199838"><ele>622.0</ele><time>2026-05-02T08:44:12.964Z</time></trkpt><trkpt lat="44.1430108" lon="10.3198688"><ele>622.0</ele><time>2026-05-02T08:44:13.964Z</time></trkpt><trkpt lat="44.143041" lon="10.3197495"><ele>622.0</ele><time>2026-05-02T08:44:14.963Z</time></trkpt><trkpt lat="44.1430636" lon="10.3196262"><ele>622.0</ele><time>2026-05-02T08:44:15.964Z</time></trkpt><trkpt lat="44.1431017" lon="10.3194882"><ele>625.2</ele><time>2026-05-02T08:44:16.963Z</time></trkpt><trkpt lat="44.1431345" lon="10.3193463"><ele>628.4000000000001</ele><time>2026-05-02T08:44:17.963Z</time></trkpt><trkpt lat="44.1431626" lon="10.3192177"><ele>631.5999999999999</ele><time>2026-05-02T08:44:18.963Z</time></trkpt><trkpt lat="44.1432116" lon="10.3190638"><ele>634.8</ele><time>2026-05-02T08:44:19.964Z</time></trkpt><trkpt lat="44.1432472" lon="10.3189318"><ele>638.0</ele><time>2026-05-02T08:44:20.964Z</time></trkpt><trkpt lat="44.1431899" lon="10.3188488"><ele>638.0</ele><time>2026-05-02T08:44:21.963Z</time></trkpt><trkpt lat="44.1431017" lon="10.3187452"><ele>638.0</ele><time>2026-05-02T08:44:23.964Z</time></trkpt><trkpt lat="44.1430231" lon="10.3188009"><ele>638.0</ele><time>2026-05-02T08:44:24.964Z</time></trkpt><trkpt lat="44.1429461" lon="10.3188324"><ele>638.0</ele><time>2026-05-02T08:44:25.963Z</time></trkpt><trkpt lat="44.1428729" lon="10.3188976"><ele>638.0</ele><time>2026-05-02T08:44:26.964Z</time></trkpt><trkpt lat="44.1427926" lon="10.3189435"><ele>638.0</ele><time>2026-05-02T08:44:27.964Z</time></trkpt><trkpt lat="44.1427017" lon="10.3189813"><ele>638.0</ele><time>2026-05-02T08:44:28.964Z</time></trkpt><trkpt lat="44.1426034" lon="10.3189852"><ele>638.0</ele><time>2026-05-02T08:44:29.964Z</time></trkpt><trkpt lat="44.1425129" lon="10.3189771"><ele>638.0</ele><time>2026-05-02T08:44:30.964Z</time></trkpt><trkpt lat="44.142444" lon="10.3189589"><ele>638.0</ele><time>2026-05-02T08:44:31.964Z</time></trkpt><trkpt lat="44.1423842" lon="10.3189293"><ele>638.0</ele><time>2026-05-02T08:44:33.963Z</time></trkpt><trkpt lat="44.1423571" lon="10.318831"><ele>638.5</ele><time>2026-05-02T08:44:35.963Z</time></trkpt><trkpt lat="44.1422496" lon="10.318784"><ele>639.0</ele><time>2026-05-02T08:44:37.963Z</time></trkpt><trkpt lat="44.1421912" lon="10.3187367"><ele>639.5</ele><time>2026-05-02T08:44:38.964Z</time></trkpt><trkpt lat="44.142129" lon="10.3186845"><ele>640.0</ele><time>2026-05-02T08:44:39.964Z</time></trkpt><trkpt lat="44.142082" lon="10.3185941"><ele>640.5</ele><time>2026-05-02T08:44:40.964Z</time></trkpt><trkpt lat="44.1420533" lon="10.3184747"><ele>641.0</ele><time>2026-05-02T08:44:41.964Z</time></trkpt><trkpt lat="44.1420228" lon="10.3183476"><ele>641.0</ele><time>2026-05-02T08:44:42.964Z</time></trkpt><trkpt lat="44.1419775" lon="10.3182117"><ele>641.0</ele><time>2026-05-02T08:44:43.963Z</time></trkpt><trkpt lat="44.1419202" lon="10.3180794"><ele>641.0</ele><time>2026-05-02T08:44:44.964Z</time></trkpt><trkpt lat="44.1418596" lon="10.3179611"><ele>641.0</ele><time>2026-05-02T08:44:45.964Z</time></trkpt><trkpt lat="44.1418081" lon="10.3178633"><ele>641.0</ele><time>2026-05-02T08:44:46.964Z</time></trkpt><trkpt lat="44.1417396" lon="10.3178"><ele>642.5</ele><time>2026-05-02T08:44:47.963Z</time></trkpt><trkpt lat="44.1416575" lon="10.3177573"><ele>644.0</ele><time>2026-05-02T08:44:48.963Z</time></trkpt><trkpt lat="44.1415686" lon="10.3177201"><ele>645.5</ele><time>2026-05-02T08:44:49.964Z</time></trkpt><trkpt lat="44.1414745" lon="10.3176764"><ele>647.0</ele><time>2026-05-02T08:44:50.964Z</time></trkpt><trkpt lat="44.1413983" lon="10.3176291"><ele>648.5</ele><time>2026-05-02T08:44:51.964Z</time></trkpt><trkpt lat="44.1413359" lon="10.3175586"><ele>650.0</ele><time>2026-05-02T08:44:52.963Z</time></trkpt><trkpt lat="44.1413001" lon="10.3174627"><ele>650.0</ele><time>2026-05-02T08:44:53.964Z</time></trkpt><trkpt lat="44.1412848" lon="10.3173496"><ele>650.0</ele><time>2026-05-02T08:44:54.964Z</time></trkpt><trkpt lat="44.1412576" lon="10.3172234"><ele>650.0</ele><time>2026-05-02T08:44:55.964Z</time></trkpt><trkpt lat="44.1412208" lon="10.3171172"><ele>650.0</ele><time>2026-05-02T08:44:56.964Z</time></trkpt><trkpt lat="44.1411573" lon="10.3170197"><ele>650.0</ele><time>2026-05-02T08:44:57.964Z</time></trkpt><trkpt lat="44.1410737" lon="10.3169515"><ele>652.75</ele><time>2026-05-02T08:44:58.964Z</time></trkpt><trkpt lat="44.1409825" lon="10.3168867"><ele>655.5</ele><time>2026-05-02T08:44:59.964Z</time></trkpt><trkpt lat="44.1408849" lon="10.3168102"><ele>658.25</ele><time>2026-05-02T08:45:00.964Z</time></trkpt><trkpt lat="44.1407811" lon="10.3167284"><ele>661.0</ele><time>2026-05-02T08:45:01.964Z</time></trkpt><trkpt lat="44.1406518" lon="10.3166304"><ele>661.0</ele><time>2026-05-02T08:45:02.964Z</time></trkpt><trkpt lat="44.1405393" lon="10.3165378"><ele>661.0</ele><time>2026-05-02T08:45:03.963Z</time></trkpt><trkpt lat="44.1404088" lon="10.3164307"><ele>661.0</ele><time>2026-05-02T08:45:04.964Z</time></trkpt><trkpt lat="44.1403015" lon="10.3163383"><ele>661.0</ele><time>2026-05-02T08:45:05.964Z</time></trkpt><trkpt lat="44.1402036" lon="10.3162623"><ele>665.25</ele><time>2026-05-02T08:45:06.963Z</time></trkpt><trkpt lat="44.1400211" lon="10.3161464"><ele>669.5</ele><time>2026-05-02T08:45:08.964Z</time></trkpt><trkpt lat="44.1399202" lon="10.3160987"><ele>673.75</ele><time>2026-05-02T08:45:09.964Z</time></trkpt><trkpt lat="44.1398426" lon="10.3160646"><ele>678.0</ele><time>2026-05-02T08:45:10.963Z</time></trkpt><trkpt lat="44.1397447" lon="10.3160201"><ele>678.0</ele><time>2026-05-02T08:45:11.964Z</time></trkpt><trkpt lat="44.13966" lon="10.3159848"><ele>678.0</ele><time>2026-05-02T08:45:12.963Z</time></trkpt><trkpt lat="44.1395784" lon="10.3159454"><ele>678.0</ele><time>2026-05-02T08:45:13.964Z</time></trkpt><trkpt lat="44.1394967" lon="10.315889"><ele>678.0</ele><time>2026-05-02T08:45:14.964Z</time></trkpt><trkpt lat="44.1394344" lon="10.3158673"><ele>678.0</ele><time>2026-05-02T08:45:15.964Z</time></trkpt><trkpt lat="44.1393769" lon="10.3158"><ele>678.0</ele><time>2026-05-02T08:45:16.964Z</time></trkpt><trkpt lat="44.1393349" lon="10.3157024"><ele>678.0</ele><time>2026-05-02T08:45:17.963Z</time></trkpt><trkpt lat="44.1392868" lon="10.3156005"><ele>678.0</ele><time>2026-05-02T08:45:18.963Z</time></trkpt><trkpt lat="44.139231" lon="10.3154995"><ele>678.0</ele><time>2026-05-02T08:45:19.964Z</time></trkpt><trkpt lat="44.1391556" lon="10.3153999"><ele>678.0</ele><time>2026-05-02T08:45:20.964Z</time></trkpt><trkpt lat="44.1390773" lon="10.3152848"><ele>678.0</ele><time>2026-05-02T08:45:21.964Z</time></trkpt><trkpt lat="44.1390022" lon="10.3151764"><ele>680.2</ele><time>2026-05-02T08:45:22.964Z</time></trkpt><trkpt lat="44.1389409" lon="10.3150692"><ele>682.4</ele><time>2026-05-02T08:45:23.963Z</time></trkpt><trkpt lat="44.138889" lon="10.314951"><ele>684.6</ele><time>2026-05-02T08:45:24.964Z</time></trkpt><trkpt lat="44.1388551" lon="10.3148338"><ele>686.8000000000001</ele><time>2026-05-02T08:45:25.964Z</time></trkpt><trkpt lat="44.1388511" lon="10.3147081"><ele>689.0</ele><time>2026-05-02T08:45:26.964Z</time></trkpt><trkpt lat="44.1388598" lon="10.3145883"><ele>691.8000000000001</ele><time>2026-05-02T08:45:27.964Z</time></trkpt><trkpt lat="44.1388808" lon="10.3144736"><ele>694.6</ele><time>2026-05-02T08:45:28.964Z</time></trkpt><trkpt lat="44.1389067" lon="10.314347"><ele>697.4</ele><time>2026-05-02T08:45:29.964Z</time></trkpt><trkpt lat="44.1389313" lon="10.3142101"><ele>700.2</ele><time>2026-05-02T08:45:30.963Z</time></trkpt><trkpt lat="44.1389503" lon="10.3140697"><ele>703.0</ele><time>2026-05-02T08:45:31.964Z</time></trkpt><trkpt lat="44.1389568" lon="10.3139182"><ele>702.6666666666667</ele><time>2026-05-02T08:45:32.964Z</time></trkpt><trkpt lat="44.1389515" lon="10.3137933"><ele>702.3333333333334</ele><time>2026-05-02T08:45:33.963Z</time></trkpt><trkpt lat="44.1389461" lon="10.3136668"><ele>702.0</ele><time>2026-05-02T08:45:34.964Z</time></trkpt><trkpt lat="44.1389439" lon="10.3135364"><ele>701.6666666666666</ele><time>2026-05-02T08:45:35.964Z</time></trkpt><trkpt lat="44.1389532" lon="10.313417"><ele>701.3333333333333</ele><time>2026-05-02T08:45:36.964Z</time></trkpt><trkpt lat="44.1389538" lon="10.3133101"><ele>701.0</ele><time>2026-05-02T08:45:37.964Z</time></trkpt><trkpt lat="44.1389535" lon="10.3132038"><ele>701.0</ele><time>2026-05-02T08:45:38.963Z</time></trkpt><trkpt lat="44.1389587" lon="10.3130881"><ele>701.0</ele><time>2026-05-02T08:45:39.964Z</time></trkpt><trkpt lat="44.1389558" lon="10.312987"><ele>701.0</ele><time>2026-05-02T08:45:40.964Z</time></trkpt><trkpt lat="44.1389583" lon="10.3128705"><ele>701.0</ele><time>2026-05-02T08:45:41.963Z</time></trkpt><trkpt lat="44.1389525" lon="10.3127365"><ele>701.0</ele><time>2026-05-02T08:45:42.964Z</time></trkpt><trkpt lat="44.1389448" lon="10.3126025"><ele>701.0</ele><time>2026-05-02T08:45:43.964Z</time></trkpt><trkpt lat="44.1389401" lon="10.3124577"><ele>699.8</ele><time>2026-05-02T08:45:44.964Z</time></trkpt><trkpt lat="44.1389449" lon="10.31232"><ele>698.5999999999999</ele><time>2026-05-02T08:45:45.963Z</time></trkpt><trkpt lat="44.1389548" lon="10.3121807"><ele>697.4</ele><time>2026-05-02T08:45:46.964Z</time></trkpt><trkpt lat="44.1389646" lon="10.3120456"><ele>696.2</ele><time>2026-05-02T08:45:47.964Z</time></trkpt><trkpt lat="44.1389694" lon="10.3119066"><ele>695.0</ele><time>2026-05-02T08:45:48.964Z</time></trkpt><trkpt lat="44.1389734" lon="10.3117665"><ele>691.4</ele><time>2026-05-02T08:45:49.964Z</time></trkpt><trkpt lat="44.1389766" lon="10.3116301"><ele>687.8</ele><time>2026-05-02T08:45:50.964Z</time></trkpt><trkpt lat="44.1389799" lon="10.3114966"><ele>684.2</ele><time>2026-05-02T08:45:51.964Z</time></trkpt><trkpt lat="44.1389809" lon="10.3113764"><ele>680.6</ele><time>2026-05-02T08:45:52.963Z</time></trkpt><trkpt lat="44.1389845" lon="10.3112515"><ele>677.0</ele><time>2026-05-02T08:45:53.964Z</time></trkpt><trkpt lat="44.1389858" lon="10.3111189"><ele>675.3333333333333</ele><time>2026-05-02T08:45:54.963Z</time></trkpt><trkpt lat="44.1389956" lon="10.311013"><ele>673.6666666666666</ele><time>2026-05-02T08:45:55.964Z</time></trkpt><trkpt lat="44.1390061" lon="10.3109089"><ele>672.0</ele><time>2026-05-02T08:45:56.964Z</time></trkpt><trkpt lat="44.1390153" lon="10.3108102"><ele>670.3333333333334</ele><time>2026-05-02T08:45:57.964Z</time></trkpt><trkpt lat="44.1390226" lon="10.3106223"><ele>668.6666666666667</ele><time>2026-05-02T08:45:59.964Z</time></trkpt><trkpt lat="44.1390317" lon="10.3105217"><ele>667.0</ele><time>2026-05-02T08:46:00.964Z</time></trkpt><trkpt lat="44.1390456" lon="10.310413"><ele>667.0</ele><time>2026-05-02T08:46:01.964Z</time></trkpt><trkpt lat="44.1390683" lon="10.3102316"><ele>667.0</ele><time>2026-05-02T08:46:03.963Z</time></trkpt><trkpt lat="44.1390805" lon="10.3100982"><ele>667.0</ele><time>2026-05-02T08:46:05.963Z</time></trkpt><trkpt lat="44.1390605" lon="10.3099619"><ele>667.0</ele><time>2026-05-02T08:46:07.964Z</time></trkpt><trkpt lat="44.1390186" lon="10.3098286"><ele>667.0</ele><time>2026-05-02T08:46:09.964Z</time></trkpt><trkpt lat="44.1390138" lon="10.3096634"><ele>668.6</ele><time>2026-05-02T08:46:11.964Z</time></trkpt><trkpt lat="44.1390397" lon="10.3095077"><ele>670.2</ele><time>2026-05-02T08:46:13.963Z</time></trkpt><trkpt lat="44.1390572" lon="10.3093616"><ele>671.8</ele><time>2026-05-02T08:46:15.963Z</time></trkpt><trkpt lat="44.1391023" lon="10.3092625"><ele>673.4</ele><time>2026-05-02T08:46:17.964Z</time></trkpt><trkpt lat="44.1391547" lon="10.3091817"><ele>675.0</ele><time>2026-05-02T08:46:19.963Z</time></trkpt><trkpt lat="44.1392184" lon="10.3091434"><ele>678.6666666666666</ele><time>2026-05-02T08:46:21.964Z</time></trkpt><trkpt lat="44.139244" lon="10.3090458"><ele>682.3333333333334</ele><time>2026-05-02T08:46:25.964Z</time></trkpt><trkpt lat="44.1391823" lon="10.3089852"><ele>686.0</ele><time>2026-05-02T08:46:28.964Z</time></trkpt><trkpt lat="44.1391157" lon="10.3089232"><ele>689.6666666666667</ele><time>2026-05-02T08:46:30.964Z</time></trkpt><trkpt lat="44.1391192" lon="10.3087819"><ele>693.3333333333334</ele><time>2026-05-02T08:46:32.963Z</time></trkpt><trkpt lat="44.1391377" lon="10.3086296"><ele>697.0</ele><time>2026-05-02T08:46:34.964Z</time></trkpt><trkpt lat="44.1391478" lon="10.3084911"><ele>697.8</ele><time>2026-05-02T08:46:36.963Z</time></trkpt><trkpt lat="44.1391888" lon="10.3083681"><ele>698.6</ele><time>2026-05-02T08:46:38.963Z</time></trkpt><trkpt lat="44.1392228" lon="10.3082712"><ele>699.4</ele><time>2026-05-02T08:46:40.963Z</time></trkpt><trkpt lat="44.1392149" lon="10.308122"><ele>700.1999999999999</ele><time>2026-05-02T08:46:43.964Z</time></trkpt><trkpt lat="44.1391929" lon="10.3079872"><ele>701.0</ele><time>2026-05-02T08:46:45.964Z</time></trkpt><trkpt lat="44.1391642" lon="10.3078709"><ele>699.8333333333333</ele><time>2026-05-02T08:46:47.963Z</time></trkpt><trkpt lat="44.1391283" lon="10.3077721"><ele>698.6666666666666</ele><time>2026-05-02T08:46:49.963Z</time></trkpt><trkpt lat="44.1390786" lon="10.307711"><ele>697.5</ele><time>2026-05-02T08:46:52.964Z</time></trkpt><trkpt lat="44.1390065" lon="10.307705"><ele>696.3333333333334</ele><time>2026-05-02T08:47:03.963Z</time></trkpt><trkpt lat="44.1389261" lon="10.3077012"><ele>695.1666666666667</ele><time>2026-05-02T08:47:06.964Z</time></trkpt><trkpt lat="44.1388314" lon="10.3076813"><ele>694.0</ele><time>2026-05-02T08:47:09.963Z</time></trkpt><trkpt lat="44.1387553" lon="10.3076817"><ele>694.0</ele><time>2026-05-02T08:47:11.964Z</time></trkpt><trkpt lat="44.1386743" lon="10.3077152"><ele>694.0</ele><time>2026-05-02T08:47:13.964Z</time></trkpt><trkpt lat="44.1386103" lon="10.3077199"><ele>694.0</ele><time>2026-05-02T08:47:15.963Z</time></trkpt><trkpt lat="44.1385505" lon="10.3076654"><ele>694.0</ele><time>2026-05-02T08:47:17.964Z</time></trkpt><trkpt lat="44.1385042" lon="10.3075763"><ele>694.0</ele><time>2026-05-02T08:47:19.964Z</time></trkpt><trkpt lat="44.1384502" lon="10.3074766"><ele>694.0</ele><time>2026-05-02T08:47:22.963Z</time></trkpt><trkpt lat="44.1383814" lon="10.3074419"><ele>694.0</ele><time>2026-05-02T08:47:24.964Z</time></trkpt><trkpt lat="44.1382738" lon="10.3075153"><ele>694.0</ele><time>2026-05-02T08:47:26.963Z</time></trkpt><trkpt lat="44.1381767" lon="10.3075231"><ele>694.0</ele><time>2026-05-02T08:47:28.963Z</time></trkpt><trkpt lat="44.1380912" lon="10.3075724"><ele>694.0</ele><time>2026-05-02T08:47:30.964Z</time></trkpt><trkpt lat="44.1380066" lon="10.3076041"><ele>694.0</ele><time>2026-05-02T08:47:32.964Z</time></trkpt><trkpt lat="44.1379409" lon="10.3076247"><ele>694.0</ele><time>2026-05-02T08:47:34.963Z</time></trkpt><trkpt lat="44.1378473" lon="10.3076207"><ele>694.0</ele><time>2026-05-02T08:47:37.964Z</time></trkpt><trkpt lat="44.1377766" lon="10.3075926"><ele>694.0</ele><time>2026-05-02T08:47:39.964Z</time></trkpt><trkpt lat="44.1377175" lon="10.3075482"><ele>694.0</ele><time>2026-05-02T08:47:41.963Z</time></trkpt><trkpt lat="44.137648" lon="10.307492"><ele>694.0</ele><time>2026-05-02T08:47:44.964Z</time></trkpt><trkpt lat="44.1376032" lon="10.3073957"><ele>694.0</ele><time>2026-05-02T08:47:47.963Z</time></trkpt><trkpt lat="44.1375433" lon="10.3073124"><ele>694.0</ele><time>2026-05-02T08:47:50.963Z</time></trkpt><trkpt lat="44.1374845" lon="10.3072654"><ele>694.0</ele><time>2026-05-02T08:47:52.963Z</time></trkpt><trkpt lat="44.1374127" lon="10.3072029"><ele>694.0</ele><time>2026-05-02T08:47:54.964Z</time></trkpt><trkpt lat="44.1373322" lon="10.3072006"><ele>694.0</ele><time>2026-05-02T08:47:57.964Z</time></trkpt><trkpt lat="44.1372601" lon="10.3072402"><ele>694.0</ele><time>2026-05-02T08:47:59.963Z</time></trkpt><trkpt lat="44.1372043" lon="10.3072979"><ele>694.0</ele><time>2026-05-02T08:48:00.963Z</time></trkpt><trkpt lat="44.1371354" lon="10.3073165"><ele>695.0</ele><time>2026-05-02T08:48:02.963Z</time></trkpt><trkpt lat="44.1370588" lon="10.3072941"><ele>696.0</ele><time>2026-05-02T08:48:04.964Z</time></trkpt><trkpt lat="44.1369712" lon="10.3072719"><ele>697.0</ele><time>2026-05-02T08:48:06.964Z</time></trkpt><trkpt lat="44.136891" lon="10.3072749"><ele>698.0</ele><time>2026-05-02T08:48:08.964Z</time></trkpt><trkpt lat="44.1368101" lon="10.3072814"><ele>699.0</ele><time>2026-05-02T08:48:11.964Z</time></trkpt><trkpt lat="44.136742" lon="10.307202"><ele>700.0</ele><time>2026-05-02T08:48:14.964Z</time></trkpt><trkpt lat="44.1367091" lon="10.3071019"><ele>700.1666666666667</ele><time>2026-05-02T08:48:16.963Z</time></trkpt><trkpt lat="44.1366794" lon="10.3069975"><ele>700.3333333333334</ele><time>2026-05-02T08:48:18.963Z</time></trkpt><trkpt lat="44.1366873" lon="10.3069072"><ele>700.5</ele><time>2026-05-02T08:48:20.964Z</time></trkpt><trkpt lat="44.1367231" lon="10.3068024"><ele>700.6666666666666</ele><time>2026-05-02T08:48:22.964Z</time></trkpt><trkpt lat="44.13677" lon="10.3066871"><ele>700.8333333333333</ele><time>2026-05-02T08:48:24.964Z</time></trkpt><trkpt lat="44.1368098" lon="10.3066132"><ele>701.0</ele><time>2026-05-02T08:48:26.963Z</time></trkpt><trkpt lat="44.1368483" lon="10.3065005"><ele>702.6666666666666</ele><time>2026-05-02T08:48:29.964Z</time></trkpt><trkpt lat="44.1368587" lon="10.3064094"><ele>704.3333333333333</ele><time>2026-05-02T08:48:31.964Z</time></trkpt><trkpt lat="44.1368715" lon="10.3063137"><ele>706.0</ele><time>2026-05-02T08:48:33.963Z</time></trkpt><trkpt lat="44.136879" lon="10.3061852"><ele>707.6666666666666</ele><time>2026-05-02T08:48:36.964Z</time></trkpt><trkpt lat="44.1369037" lon="10.3060944"><ele>709.3333333333334</ele><time>2026-05-02T08:48:38.964Z</time></trkpt><trkpt lat="44.1369617" lon="10.3060173"><ele>711.0</ele><time>2026-05-02T08:48:41.964Z</time></trkpt><trkpt lat="44.1370379" lon="10.3059739"><ele>711.0</ele><time>2026-05-02T08:48:44.964Z</time></trkpt><trkpt lat="44.1370939" lon="10.305924"><ele>711.0</ele><time>2026-05-02T08:48:46.964Z</time></trkpt><trkpt lat="44.1371483" lon="10.3058571"><ele>711.0</ele><time>2026-05-02T08:48:48.964Z</time></trkpt><trkpt lat="44.137207" lon="10.3057853"><ele>711.0</ele><time>2026-05-02T08:48:50.964Z</time></trkpt><trkpt lat="44.1372678" lon="10.3057428"><ele>711.0</ele><time>2026-05-02T08:48:52.964Z</time></trkpt><trkpt lat="44.1373319" lon="10.3057146"><ele>711.0</ele><time>2026-05-02T08:48:54.963Z</time></trkpt><trkpt lat="44.1373997" lon="10.3056773"><ele>711.0</ele><time>2026-05-02T08:48:57.963Z</time></trkpt><trkpt lat="44.1374615" lon="10.3056491"><ele>711.1428571428571</ele><time>2026-05-02T08:49:01.964Z</time></trkpt><trkpt lat="44.1375513" lon="10.3056527"><ele>711.2857142857142</ele><time>2026-05-02T08:49:19.964Z</time></trkpt><trkpt lat="44.1376143" lon="10.3056506"><ele>711.4285714285713</ele><time>2026-05-02T08:49:21.964Z</time></trkpt><trkpt lat="44.137692" lon="10.3056629"><ele>711.5714285714286</ele><time>2026-05-02T08:49:24.964Z</time></trkpt><trkpt lat="44.1377569" lon="10.3056772"><ele>711.7142857142857</ele><time>2026-05-02T08:49:26.964Z</time></trkpt><trkpt lat="44.1378211" lon="10.3056931"><ele>711.8571428571428</ele><time>2026-05-02T08:49:28.964Z</time></trkpt><trkpt lat="44.1378853" lon="10.3057295"><ele>712.0</ele><time>2026-05-02T08:49:30.964Z</time></trkpt><trkpt lat="44.1379588" lon="10.3057895"><ele>712.0</ele><time>2026-05-02T08:49:33.963Z</time></trkpt><trkpt lat="44.1380209" lon="10.3058292"><ele>712.0</ele><time>2026-05-02T08:49:36.963Z</time></trkpt><trkpt lat="44.1380832" lon="10.3058449"><ele>712.0</ele><time>2026-05-02T08:49:39.964Z</time></trkpt><trkpt lat="44.1381589" lon="10.3058112"><ele>712.0</ele><time>2026-05-02T08:49:42.964Z</time></trkpt><trkpt lat="44.1381884" lon="10.3057167"><ele>712.0</ele><time>2026-05-02T08:49:44.964Z</time></trkpt><trkpt lat="44.1382555" lon="10.3057597"><ele>712.0</ele><time>2026-05-02T08:50:27.963Z</time></trkpt><trkpt lat="44.1383173" lon="10.3058644"><ele>713.1666666666667</ele><time>2026-05-02T08:50:30.963Z</time></trkpt><trkpt lat="44.1383845" lon="10.3059422"><ele>714.3333333333334</ele><time>2026-05-02T08:50:32.963Z</time></trkpt><trkpt lat="44.1384571" lon="10.3060124"><ele>715.5</ele><time>2026-05-02T08:50:34.964Z</time></trkpt><trkpt lat="44.1385196" lon="10.3060705"><ele>716.6666666666666</ele><time>2026-05-02T08:50:36.964Z</time></trkpt><trkpt lat="44.1385767" lon="10.3061134"><ele>717.8333333333333</ele><time>2026-05-02T08:50:38.963Z</time></trkpt><trkpt lat="44.1386669" lon="10.3061607"><ele>719.0</ele><time>2026-05-02T08:50:41.964Z</time></trkpt><trkpt lat="44.1387343" lon="10.3061833"><ele>719.0</ele><time>2026-05-02T08:50:43.964Z</time></trkpt><trkpt lat="44.1388082" lon="10.3061952"><ele>719.0</ele><time>2026-05-02T08:50:45.964Z</time></trkpt><trkpt lat="44.1388562" lon="10.3062547"><ele>719.0</ele><time>2026-05-02T08:50:52.964Z</time></trkpt><trkpt lat="44.1388513" lon="10.3064026"><ele>719.0</ele><time>2026-05-02T08:50:55.963Z</time></trkpt><trkpt lat="44.1388318" lon="10.3064909"><ele>719.0</ele><time>2026-05-02T08:50:57.964Z</time></trkpt><trkpt lat="44.1387832" lon="10.3065745"><ele>719.0</ele><time>2026-05-02T08:51:00.964Z</time></trkpt><trkpt lat="44.1387132" lon="10.3066156"><ele>716.6666666666666</ele><time>2026-05-02T08:51:04.964Z</time></trkpt><trkpt lat="44.1386478" lon="10.3066803"><ele>714.3333333333333</ele><time>2026-05-02T08:51:08.964Z</time></trkpt><trkpt lat="44.1386398" lon="10.3067858"><ele>712.0</ele><time>2026-05-02T08:51:11.964Z</time></trkpt><trkpt lat="44.1386848" lon="10.3068987"><ele>709.6666666666666</ele><time>2026-05-02T08:51:14.964Z</time></trkpt><trkpt lat="44.1387355" lon="10.3069762"><ele>707.3333333333334</ele><time>2026-05-02T08:51:16.964Z</time></trkpt><trkpt lat="44.1387827" lon="10.3070594"><ele>705.0</ele><time>2026-05-02T08:51:18.964Z</time></trkpt><trkpt lat="44.138823" lon="10.3071469"><ele>704.9999999999999</ele><time>2026-05-02T08:51:20.964Z</time></trkpt><trkpt lat="44.1388691" lon="10.3072392"><ele>705.0</ele><time>2026-05-02T08:51:23.964Z</time></trkpt><trkpt lat="44.1389282" lon="10.3072772"><ele>705.0</ele><time>2026-05-02T08:51:25.964Z</time></trkpt><trkpt lat="44.139" lon="10.307287"><ele>705.0</ele><time>2026-05-02T08:51:26.963Z</time></trkpt><trkpt lat="44.1390438" lon="10.3073685"><ele>705.0</ele><time>2026-05-02T08:51:29.963Z</time></trkpt><trkpt lat="44.1390887" lon="10.3074673"><ele>704.9999999999999</ele><time>2026-05-02T08:51:32.963Z</time></trkpt><trkpt lat="44.1391053" lon="10.3075641"><ele>705.0</ele><time>2026-05-02T08:51:34.964Z</time></trkpt><trkpt lat="44.1390804" lon="10.3076597"><ele>703.1666666666666</ele><time>2026-05-02T08:51:36.964Z</time></trkpt><trkpt lat="44.1390201" lon="10.3077332"><ele>701.3333333333334</ele><time>2026-05-02T08:51:39.963Z</time></trkpt><trkpt lat="44.1389364" lon="10.307768"><ele>699.5</ele><time>2026-05-02T08:51:42.963Z</time></trkpt><trkpt lat="44.1388451" lon="10.30775"><ele>697.6666666666667</ele><time>2026-05-02T08:51:45.963Z</time></trkpt><trkpt lat="44.1387584" lon="10.3077228"><ele>695.8333333333334</ele><time>2026-05-02T08:51:48.964Z</time></trkpt><trkpt lat="44.1386918" lon="10.3077239"><ele>694.0</ele><time>2026-05-02T08:51:50.963Z</time></trkpt><trkpt lat="44.1386236" lon="10.3077354"><ele>694.0</ele><time>2026-05-02T08:51:52.964Z</time></trkpt><trkpt lat="44.1385595" lon="10.3077107"><ele>694.0</ele><time>2026-05-02T08:51:54.964Z</time></trkpt><trkpt lat="44.1385051" lon="10.3076481"><ele>694.0</ele><time>2026-05-02T08:51:56.964Z</time></trkpt><trkpt lat="44.1384673" lon="10.3075726"><ele>694.0</ele><time>2026-05-02T08:51:58.963Z</time></trkpt><trkpt lat="44.1384027" lon="10.3074944"><ele>694.0</ele><time>2026-05-02T08:52:01.963Z</time></trkpt><trkpt lat="44.1383307" lon="10.3074916"><ele>694.0</ele><time>2026-05-02T08:52:03.964Z</time></trkpt><trkpt lat="44.1382472" lon="10.3075157"><ele>694.0</ele><time>2026-05-02T08:52:04.964Z</time></trkpt><trkpt lat="44.1381483" lon="10.307547"><ele>694.0</ele><time>2026-05-02T08:52:06.964Z</time></trkpt><trkpt lat="44.1380603" lon="10.3075747"><ele>694.0</ele><time>2026-05-02T08:52:08.964Z</time></trkpt><trkpt lat="44.1379911" lon="10.3076136"><ele>694.0</ele><time>2026-05-02T08:52:11.963Z</time></trkpt><trkpt lat="44.1379133" lon="10.30763"><ele>694.0</ele><time>2026-05-02T08:52:14.964Z</time></trkpt><trkpt lat="44.1378205" lon="10.3076345"><ele>694.0</ele><time>2026-05-02T08:52:16.964Z</time></trkpt><trkpt lat="44.1377099" lon="10.3076126"><ele>694.0</ele><time>2026-05-02T08:52:18.963Z</time></trkpt><trkpt lat="44.1376176" lon="10.3075447"><ele>694.0</ele><time>2026-05-02T08:52:20.964Z</time></trkpt><trkpt lat="44.1375546" lon="10.3074775"><ele>694.0</ele><time>2026-05-02T08:52:22.964Z</time></trkpt><trkpt lat="44.1376023" lon="10.3074103"><ele>694.0</ele><time>2026-05-02T08:52:33.964Z</time></trkpt><trkpt lat="44.1375695" lon="10.3073332"><ele>694.0</ele><time>2026-05-02T08:52:37.964Z</time></trkpt><trkpt lat="44.1374252" lon="10.3072125"><ele>694.0</ele><time>2026-05-02T08:52:40.963Z</time></trkpt><trkpt lat="44.1373427" lon="10.3071839"><ele>695.0</ele><time>2026-05-02T08:52:43.963Z</time></trkpt><trkpt lat="44.1372593" lon="10.307189"><ele>696.0</ele><time>2026-05-02T08:52:45.963Z</time></trkpt><trkpt lat="44.1371829" lon="10.3072422"><ele>697.0</ele><time>2026-05-02T08:52:48.963Z</time></trkpt><trkpt lat="44.1371079" lon="10.3072555"><ele>698.0</ele><time>2026-05-02T08:52:50.964Z</time></trkpt><trkpt lat="44.1370077" lon="10.3072457"><ele>699.0</ele><time>2026-05-02T08:52:52.964Z</time></trkpt><trkpt lat="44.136908" lon="10.3072347"><ele>700.0</ele><time>2026-05-02T08:52:54.963Z</time></trkpt><trkpt lat="44.136844" lon="10.3072459"><ele>700.0</ele><time>2026-05-02T08:52:56.964Z</time></trkpt><trkpt lat="44.1367781" lon="10.3072502"><ele>700.0</ele><time>2026-05-02T08:52:59.963Z</time></trkpt><trkpt lat="44.1367146" lon="10.3071693"><ele>700.0</ele><time>2026-05-02T08:53:12.964Z</time></trkpt><trkpt lat="44.1366822" lon="10.3070462"><ele>700.0</ele><time>2026-05-02T08:53:14.964Z</time></trkpt><trkpt lat="44.1366657" lon="10.3069502"><ele>700.0</ele><time>2026-05-02T08:53:16.963Z</time></trkpt><trkpt lat="44.1367009" lon="10.3068557"><ele>700.0</ele><time>2026-05-02T08:53:40.964Z</time></trkpt><trkpt lat="44.1367343" lon="10.3067787"><ele>700.1666666666667</ele><time>2026-05-02T08:53:42.964Z</time></trkpt><trkpt lat="44.1367731" lon="10.3067012"><ele>700.3333333333334</ele><time>2026-05-02T08:53:45.963Z</time></trkpt><trkpt lat="44.1368" lon="10.3066142"><ele>700.5</ele><time>2026-05-02T08:53:47.964Z</time></trkpt><trkpt lat="44.13682" lon="10.3064938"><ele>700.6666666666666</ele><time>2026-05-02T08:53:49.964Z</time></trkpt><trkpt lat="44.1368394" lon="10.3063477"><ele>700.8333333333333</ele><time>2026-05-02T08:53:51.963Z</time></trkpt><trkpt lat="44.1368695" lon="10.3061949"><ele>701.0</ele><time>2026-05-02T08:53:53.963Z</time></trkpt><trkpt lat="44.1369258" lon="10.3060647"><ele>702.6666666666666</ele><time>2026-05-02T08:53:55.964Z</time></trkpt><trkpt lat="44.1369997" lon="10.3059899"><ele>704.3333333333333</ele><time>2026-05-02T08:53:57.963Z</time></trkpt><trkpt lat="44.13706" lon="10.3059522"><ele>706.0</ele><time>2026-05-02T08:54:00.964Z</time></trkpt><trkpt lat="44.1371249" lon="10.3058909"><ele>707.6666666666666</ele><time>2026-05-02T08:54:03.964Z</time></trkpt><trkpt lat="44.1371815" lon="10.3058401"><ele>709.3333333333334</ele><time>2026-05-02T08:54:05.964Z</time></trkpt><trkpt lat="44.1372486" lon="10.3057874"><ele>711.0</ele><time>2026-05-02T08:54:07.964Z</time></trkpt><trkpt lat="44.1374478" lon="10.305665"><ele>711.1666666666666</ele><time>2026-05-02T08:54:09.964Z</time></trkpt><trkpt lat="44.1375163" lon="10.3056413"><ele>711.3333333333334</ele><time>2026-05-02T08:54:11.964Z</time></trkpt><trkpt lat="44.1375899" lon="10.3056462"><ele>711.5</ele><time>2026-05-02T08:54:13.963Z</time></trkpt><trkpt lat="44.1376854" lon="10.3056676"><ele>711.6666666666667</ele><time>2026-05-02T08:54:16.964Z</time></trkpt><trkpt lat="44.1377651" lon="10.3056862"><ele>711.8333333333334</ele><time>2026-05-02T08:54:18.964Z</time></trkpt><trkpt lat="44.1378454" lon="10.3057079"><ele>712.0</ele><time>2026-05-02T08:54:20.963Z</time></trkpt><trkpt lat="44.1379197" lon="10.3057508"><ele>712.0</ele><time>2026-05-02T08:54:22.964Z</time></trkpt><trkpt lat="44.1379955" lon="10.3058065"><ele>712.0</ele><time>2026-05-02T08:54:24.964Z</time></trkpt><trkpt lat="44.138068" lon="10.30585"><ele>712.0</ele><time>2026-05-02T08:54:26.963Z</time></trkpt><trkpt lat="44.1381429" lon="10.3058592"><ele>712.0</ele><time>2026-05-02T08:54:28.964Z</time></trkpt><trkpt lat="44.1382089" lon="10.3057685"><ele>712.0</ele><time>2026-05-02T08:54:31.963Z</time></trkpt><trkpt lat="44.1382658" lon="10.3056856"><ele>712.0</ele><time>2026-05-02T08:54:34.963Z</time></trkpt><trkpt lat="44.1383337" lon="10.3057743"><ele>712.9999999999999</ele><time>2026-05-02T08:54:37.963Z</time></trkpt><trkpt lat="44.1383888" lon="10.3058709"><ele>714.0</ele><time>2026-05-02T08:54:40.963Z</time></trkpt><trkpt lat="44.1384366" lon="10.3059345"><ele>715.0</ele><time>2026-05-02T08:54:42.964Z</time></trkpt><trkpt lat="44.1384927" lon="10.3059898"><ele>716.0</ele><time>2026-05-02T08:54:44.963Z</time></trkpt><trkpt lat="44.1385575" lon="10.3060408"><ele>717.0</ele><time>2026-05-02T08:54:46.964Z</time></trkpt><trkpt lat="44.1386159" lon="10.3060889"><ele>717.9999999999999</ele><time>2026-05-02T08:54:48.963Z</time></trkpt><trkpt lat="44.1386874" lon="10.3061371"><ele>719.0</ele><time>2026-05-02T08:54:50.963Z</time></trkpt><trkpt lat="44.1387675" lon="10.3061785"><ele>719.0</ele><time>2026-05-02T08:54:52.963Z</time></trkpt><trkpt lat="44.1388376" lon="10.3062272"><ele>719.0</ele><time>2026-05-02T08:54:54.964Z</time></trkpt><trkpt lat="44.1388682" lon="10.3063241"><ele>719.0</ele><time>2026-05-02T08:54:56.964Z</time></trkpt><trkpt lat="44.1388493" lon="10.3064402"><ele>719.0</ele><time>2026-05-02T08:54:58.964Z</time></trkpt><trkpt lat="44.1387935" lon="10.3065514"><ele>719.0</ele><time>2026-05-02T08:55:00.963Z</time></trkpt><trkpt lat="44.1387292" lon="10.3066274"><ele>719.0</ele><time>2026-05-02T08:55:02.964Z</time></trkpt><trkpt lat="44.1386677" lon="10.3066492"><ele>716.6666666666666</ele><time>2026-05-02T08:55:03.964Z</time></trkpt><trkpt lat="44.1386384" lon="10.3067585"><ele>714.3333333333333</ele><time>2026-05-02T08:55:06.963Z</time></trkpt><trkpt lat="44.1386875" lon="10.3068766"><ele>712.0</ele><time>2026-05-02T08:55:09.964Z</time></trkpt><trkpt lat="44.1387372" lon="10.3069601"><ele>709.6666666666666</ele><time>2026-05-02T08:55:12.963Z</time></trkpt><trkpt lat="44.13878" lon="10.3070441"><ele>707.3333333333334</ele><time>2026-05-02T08:55:14.963Z</time></trkpt><trkpt lat="44.1388483" lon="10.3070849"><ele>705.0</ele><time>2026-05-02T08:55:16.964Z</time></trkpt><trkpt lat="44.1389021" lon="10.307174"><ele>705.0</ele><time>2026-05-02T08:55:18.963Z</time></trkpt><trkpt lat="44.1389858" lon="10.3072216"><ele>705.0</ele><time>2026-05-02T08:55:20.964Z</time></trkpt><trkpt lat="44.1390595" lon="10.3072879"><ele>705.0</ele><time>2026-05-02T08:55:22.885Z</time></trkpt><trkpt lat="44.1390894" lon="10.3074002"><ele>705.0</ele><time>2026-05-02T08:55:24.839Z</time></trkpt><trkpt lat="44.1391044" lon="10.3075051"><ele>705.0</ele><time>2026-05-02T08:55:26.963Z</time></trkpt><trkpt lat="44.139086" lon="10.3076395"><ele>705.0</ele><time>2026-05-02T08:55:28.964Z</time></trkpt><trkpt lat="44.1390848" lon="10.3077401"><ele>704.3333333333334</ele><time>2026-05-02T08:55:35.964Z</time></trkpt><trkpt lat="44.1391418" lon="10.3078065"><ele>703.6666666666666</ele><time>2026-05-02T08:55:38.963Z</time></trkpt><trkpt lat="44.1391715" lon="10.3079085"><ele>703.0</ele><time>2026-05-02T08:55:41.963Z</time></trkpt><trkpt lat="44.1391905" lon="10.3080307"><ele>702.3333333333333</ele><time>2026-05-02T08:55:43.964Z</time></trkpt><trkpt lat="44.1392085" lon="10.3081278"><ele>701.6666666666666</ele><time>2026-05-02T08:55:46.964Z</time></trkpt><trkpt lat="44.1391937" lon="10.3082233"><ele>701.0</ele><time>2026-05-02T08:55:48.964Z</time></trkpt><trkpt lat="44.1391546" lon="10.3083119"><ele>701.0</ele><time>2026-05-02T08:55:50.963Z</time></trkpt><trkpt lat="44.1391147" lon="10.3084662"><ele>701.0</ele><time>2026-05-02T08:55:52.964Z</time></trkpt><trkpt lat="44.1391091" lon="10.308593"><ele>701.0</ele><time>2026-05-02T08:55:54.964Z</time></trkpt><trkpt lat="44.1390957" lon="10.3087303"><ele>701.0</ele><time>2026-05-02T08:55:56.964Z</time></trkpt><trkpt lat="44.1390932" lon="10.308854"><ele>701.0</ele><time>2026-05-02T08:55:58.963Z</time></trkpt><trkpt lat="44.1391426" lon="10.3089372"><ele>700.3333333333333</ele><time>2026-05-02T08:56:00.964Z</time></trkpt><trkpt lat="44.1392006" lon="10.308979"><ele>699.6666666666666</ele><time>2026-05-02T08:56:02.964Z</time></trkpt><trkpt lat="44.1392001" lon="10.30908"><ele>699.0</ele><time>2026-05-02T08:56:06.964Z</time></trkpt><trkpt lat="44.139134" lon="10.3091761"><ele>698.3333333333334</ele><time>2026-05-02T08:56:08.963Z</time></trkpt><trkpt lat="44.1390856" lon="10.3092598"><ele>697.6666666666667</ele><time>2026-05-02T08:56:10.964Z</time></trkpt><trkpt lat="44.1390276" lon="10.3093782"><ele>697.0</ele><time>2026-05-02T08:56:12.964Z</time></trkpt><trkpt lat="44.1390008" lon="10.3095273"><ele>692.6</ele><time>2026-05-02T08:56:14.964Z</time></trkpt><trkpt lat="44.1390066" lon="10.3096675"><ele>688.2</ele><time>2026-05-02T08:56:16.964Z</time></trkpt><trkpt lat="44.1390059" lon="10.3098105"><ele>683.8</ele><time>2026-05-02T08:56:18.963Z</time></trkpt><trkpt lat="44.1390174" lon="10.3099275"><ele>679.4</ele><time>2026-05-02T08:56:20.963Z</time></trkpt><trkpt lat="44.1390507" lon="10.3100477"><ele>675.0</ele><time>2026-05-02T08:56:22.964Z</time></trkpt><trkpt lat="44.1390385" lon="10.3102004"><ele>673.6666666666666</ele><time>2026-05-02T08:56:24.964Z</time></trkpt><trkpt lat="44.1390051" lon="10.3103219"><ele>672.3333333333334</ele><time>2026-05-02T08:56:26.963Z</time></trkpt><trkpt lat="44.1389902" lon="10.3104631"><ele>671.0</ele><time>2026-05-02T08:56:28.964Z</time></trkpt><trkpt lat="44.1389898" lon="10.3105658"><ele>669.6666666666667</ele><time>2026-05-02T08:56:31.964Z</time></trkpt><trkpt lat="44.1389815" lon="10.3106614"><ele>668.3333333333334</ele><time>2026-05-02T08:56:34.964Z</time></trkpt><trkpt lat="44.1390425" lon="10.3106223"><ele>667.0</ele><time>2026-05-02T08:56:39.964Z</time></trkpt><trkpt lat="44.1390447" lon="10.3104899"><ele>673.0</ele><time>2026-05-02T08:56:53.964Z</time></trkpt><trkpt lat="44.1390808" lon="10.3103253"><ele>679.0</ele><time>2026-05-02T08:56:55.964Z</time></trkpt><trkpt lat="44.1391028" lon="10.3102109"><ele>685.0</ele><time>2026-05-02T08:56:56.964Z</time></trkpt><trkpt lat="44.1391176" lon="10.3100987"><ele>691.0</ele><time>2026-05-02T08:56:57.964Z</time></trkpt><trkpt lat="44.1391413" lon="10.3099518"><ele>697.0</ele><time>2026-05-02T08:56:58.964Z</time></trkpt><trkpt lat="44.1391755" lon="10.3097712"><ele>697.0</ele><time>2026-05-02T08:56:59.964Z</time></trkpt><trkpt lat="44.1391981" lon="10.309642"><ele>697.0</ele><time>2026-05-02T08:57:00.963Z</time></trkpt><trkpt lat="44.1392262" lon="10.3095176"><ele>697.0</ele><time>2026-05-02T08:57:01.963Z</time></trkpt><trkpt lat="44.1392565" lon="10.3094041"><ele>697.0</ele><time>2026-05-02T08:57:02.963Z</time></trkpt><trkpt lat="44.1393138" lon="10.3093134"><ele>697.0</ele><time>2026-05-02T08:57:03.964Z</time></trkpt><trkpt lat="44.1393742" lon="10.3092282"><ele>697.0</ele><time>2026-05-02T08:57:04.963Z</time></trkpt><trkpt lat="44.1394275" lon="10.3091455"><ele>697.0</ele><time>2026-05-02T08:57:05.963Z</time></trkpt><trkpt lat="44.139502" lon="10.3090889"><ele>697.0</ele><time>2026-05-02T08:57:06.964Z</time></trkpt><trkpt lat="44.1395629" lon="10.3090046"><ele>697.0</ele><time>2026-05-02T08:57:07.963Z</time></trkpt><trkpt lat="44.1396061" lon="10.3089038"><ele>697.0</ele><time>2026-05-02T08:57:08.964Z</time></trkpt><trkpt lat="44.1396293" lon="10.3087702"><ele>697.0</ele><time>2026-05-02T08:57:09.964Z</time></trkpt><trkpt lat="44.1396532" lon="10.3086303"><ele>697.8</ele><time>2026-05-02T08:57:10.964Z</time></trkpt><trkpt lat="44.139657" lon="10.3084827"><ele>698.6</ele><time>2026-05-02T08:57:11.964Z</time></trkpt><trkpt lat="44.1396649" lon="10.3083403"><ele>699.4</ele><time>2026-05-02T08:57:12.964Z</time></trkpt><trkpt lat="44.1396766" lon="10.3082001"><ele>700.1999999999999</ele><time>2026-05-02T08:57:13.964Z</time></trkpt><trkpt lat="44.1396862" lon="10.3080545"><ele>701.0</ele><time>2026-05-02T08:57:14.964Z</time></trkpt><trkpt lat="44.1396902" lon="10.3079162"><ele>702.6666666666666</ele><time>2026-05-02T08:57:15.963Z</time></trkpt><trkpt lat="44.1396953" lon="10.3077785"><ele>704.3333333333333</ele><time>2026-05-02T08:57:16.964Z</time></trkpt><trkpt lat="44.1397019" lon="10.3076469"><ele>706.0</ele><time>2026-05-02T08:57:17.964Z</time></trkpt><trkpt lat="44.139698" lon="10.3075224"><ele>707.6666666666666</ele><time>2026-05-02T08:57:18.963Z</time></trkpt><trkpt lat="44.1396935" lon="10.3074133"><ele>709.3333333333334</ele><time>2026-05-02T08:57:19.964Z</time></trkpt><trkpt lat="44.1396722" lon="10.3073054"><ele>711.0</ele><time>2026-05-02T08:57:20.964Z</time></trkpt><trkpt lat="44.1396634" lon="10.3072151"><ele>712.8333333333334</ele><time>2026-05-02T08:57:21.964Z</time></trkpt><trkpt lat="44.1396438" lon="10.3071175"><ele>714.6666666666666</ele><time>2026-05-02T08:57:22.963Z</time></trkpt><trkpt lat="44.1396738" lon="10.3069662"><ele>716.5</ele><time>2026-05-02T08:57:24.964Z</time></trkpt><trkpt lat="44.1397499" lon="10.3068909"><ele>718.3333333333333</ele><time>2026-05-02T08:57:26.963Z</time></trkpt><trkpt lat="44.1398318" lon="10.3069744"><ele>720.1666666666666</ele><time>2026-05-02T08:57:28.963Z</time></trkpt><trkpt lat="44.1398594" lon="10.3070592"><ele>722.0</ele><time>2026-05-02T08:57:29.964Z</time></trkpt><trkpt lat="44.1398932" lon="10.3071504"><ele>724.8</ele><time>2026-05-02T08:57:30.963Z</time></trkpt><trkpt lat="44.1399266" lon="10.3072609"><ele>727.6</ele><time>2026-05-02T08:57:31.964Z</time></trkpt><trkpt lat="44.1399647" lon="10.3074008"><ele>730.4</ele><time>2026-05-02T08:57:32.963Z</time></trkpt><trkpt lat="44.1399798" lon="10.3075461"><ele>733.1999999999999</ele><time>2026-05-02T08:57:33.963Z</time></trkpt><trkpt lat="44.1399905" lon="10.3076849"><ele>736.0</ele><time>2026-05-02T08:57:34.963Z</time></trkpt><trkpt lat="44.139996" lon="10.3078274"><ele>736.0</ele><time>2026-05-02T08:57:35.964Z</time></trkpt><trkpt lat="44.1399991" lon="10.3079589"><ele>736.0</ele><time>2026-05-02T08:57:36.964Z</time></trkpt><trkpt lat="44.1399993" lon="10.3080703"><ele>736.0</ele><time>2026-05-02T08:57:37.963Z</time></trkpt><trkpt lat="44.140012" lon="10.3081762"><ele>736.0</ele><time>2026-05-02T08:57:38.964Z</time></trkpt><trkpt lat="44.1400481" lon="10.308255"><ele>736.0</ele><time>2026-05-02T08:57:39.964Z</time></trkpt><trkpt lat="44.1401451" lon="10.3082703"><ele>736.0</ele><time>2026-05-02T08:57:41.963Z</time></trkpt><trkpt lat="44.1401974" lon="10.3081218"><ele>736.0</ele><time>2026-05-02T08:57:43.964Z</time></trkpt><trkpt lat="44.140208" lon="10.3080194"><ele>736.0</ele><time>2026-05-02T08:57:44.964Z</time></trkpt><trkpt lat="44.1402096" lon="10.3078883"><ele>736.0</ele><time>2026-05-02T08:57:45.964Z</time></trkpt><trkpt lat="44.1402222" lon="10.3077458"><ele>736.0</ele><time>2026-05-02T08:57:46.963Z</time></trkpt><trkpt lat="44.1402446" lon="10.3076042"><ele>736.0</ele><time>2026-05-02T08:57:47.964Z</time></trkpt><trkpt lat="44.1402585" lon="10.3074485"><ele>736.0</ele><time>2026-05-02T08:57:48.964Z</time></trkpt><trkpt lat="44.1402776" lon="10.3072857"><ele>736.0</ele><time>2026-05-02T08:57:49.963Z</time></trkpt><trkpt lat="44.1403022" lon="10.3071233"><ele>736.0</ele><time>2026-05-02T08:57:50.964Z</time></trkpt><trkpt lat="44.1403202" lon="10.3069614"><ele>736.0</ele><time>2026-05-02T08:57:51.964Z</time></trkpt><trkpt lat="44.1403286" lon="10.3068038"><ele>738.25</ele><time>2026-05-02T08:57:52.963Z</time></trkpt><trkpt lat="44.1403359" lon="10.3066391"><ele>740.5</ele><time>2026-05-02T08:57:53.964Z</time></trkpt><trkpt lat="44.1403366" lon="10.3064736"><ele>742.75</ele><time>2026-05-02T08:57:54.963Z</time></trkpt><trkpt lat="44.1403424" lon="10.3063064"><ele>745.0</ele><time>2026-05-02T08:57:55.963Z</time></trkpt><trkpt lat="44.1403304" lon="10.3061423"><ele>747.5</ele><time>2026-05-02T08:57:56.963Z</time></trkpt><trkpt lat="44.1403112" lon="10.3059777"><ele>750.0</ele><time>2026-05-02T08:57:57.964Z</time></trkpt><trkpt lat="44.1402849" lon="10.3058173"><ele>752.5</ele><time>2026-05-02T08:57:58.964Z</time></trkpt><trkpt lat="44.1402654" lon="10.3056405"><ele>755.0</ele><time>2026-05-02T08:57:59.964Z</time></trkpt><trkpt lat="44.1402529" lon="10.3054712"><ele>757.0</ele><time>2026-05-02T08:58:00.964Z</time></trkpt><trkpt lat="44.140241" lon="10.3053062"><ele>759.0</ele><time>2026-05-02T08:58:01.963Z</time></trkpt><trkpt lat="44.1402298" lon="10.3051379"><ele>761.0</ele><time>2026-05-02T08:58:02.963Z</time></trkpt><trkpt lat="44.1402241" lon="10.3049782"><ele>763.0</ele><time>2026-05-02T08:58:03.964Z</time></trkpt><trkpt lat="44.1402243" lon="10.3048295"><ele>764.8</ele><time>2026-05-02T08:58:04.964Z</time></trkpt><trkpt lat="44.1402226" lon="10.3046927"><ele>766.5999999999999</ele><time>2026-05-02T08:58:05.964Z</time></trkpt><trkpt lat="44.1402207" lon="10.3045526"><ele>768.4000000000001</ele><time>2026-05-02T08:58:06.964Z</time></trkpt><trkpt lat="44.1402009" lon="10.3044176"><ele>770.2</ele><time>2026-05-02T08:58:07.964Z</time></trkpt><trkpt lat="44.1401566" lon="10.3042849"><ele>772.0</ele><time>2026-05-02T08:58:08.964Z</time></trkpt><trkpt lat="44.1401133" lon="10.3041587"><ele>772.0</ele><time>2026-05-02T08:58:09.963Z</time></trkpt><trkpt lat="44.1400693" lon="10.3040325"><ele>772.0</ele><time>2026-05-02T08:58:10.963Z</time></trkpt><trkpt lat="44.1400188" lon="10.3039129"><ele>772.0</ele><time>2026-05-02T08:58:11.964Z</time></trkpt><trkpt lat="44.1399604" lon="10.3038075"><ele>772.0</ele><time>2026-05-02T08:58:12.964Z</time></trkpt><trkpt lat="44.1398953" lon="10.3036925"><ele>772.0</ele><time>2026-05-02T08:58:13.963Z</time></trkpt><trkpt lat="44.1398412" lon="10.3035781"><ele>771.6666666666666</ele><time>2026-05-02T08:58:14.963Z</time></trkpt><trkpt lat="44.1397965" lon="10.3034625"><ele>771.3333333333333</ele><time>2026-05-02T08:58:15.964Z</time></trkpt><trkpt lat="44.1397664" lon="10.303354"><ele>771.0</ele><time>2026-05-02T08:58:16.964Z</time></trkpt><trkpt lat="44.1397531" lon="10.3032443"><ele>770.6666666666667</ele><time>2026-05-02T08:58:17.963Z</time></trkpt><trkpt lat="44.1397574" lon="10.303132"><ele>770.3333333333334</ele><time>2026-05-02T08:58:18.964Z</time></trkpt><trkpt lat="44.1397458" lon="10.3030238"><ele>770.0</ele><time>2026-05-02T08:58:19.964Z</time></trkpt><trkpt lat="44.1397357" lon="10.3029229"><ele>771.3333333333334</ele><time>2026-05-02T08:58:21.963Z</time></trkpt><trkpt lat="44.1397492" lon="10.3027983"><ele>772.6666666666667</ele><time>2026-05-02T08:58:25.964Z</time></trkpt><trkpt lat="44.1397934" lon="10.3026763"><ele>774.0</ele><time>2026-05-02T08:58:27.96Z</time></trkpt><trkpt lat="44.1398192" lon="10.3025772"><ele>775.3333333333333</ele><time>2026-05-02T08:58:28.964Z</time></trkpt><trkpt lat="44.1398312" lon="10.3024717"><ele>776.6666666666666</ele><time>2026-05-02T08:58:29.963Z</time></trkpt><trkpt lat="44.1398466" lon="10.3023597"><ele>778.0</ele><time>2026-05-02T08:58:30.964Z</time></trkpt><trkpt lat="44.1398648" lon="10.3022557"><ele>777.4999999999999</ele><time>2026-05-02T08:58:31.963Z</time></trkpt><trkpt lat="44.139875" lon="10.3021384"><ele>777.0</ele><time>2026-05-02T08:58:32.964Z</time></trkpt><trkpt lat="44.1398859" lon="10.3020326"><ele>776.5</ele><time>2026-05-02T08:58:33.964Z</time></trkpt><trkpt lat="44.1399033" lon="10.3019239"><ele>776.0</ele><time>2026-05-02T08:58:34.964Z</time></trkpt><trkpt lat="44.1399191" lon="10.3018286"><ele>775.4999999999999</ele><time>2026-05-02T08:58:35.964Z</time></trkpt><trkpt lat="44.1399311" lon="10.3017339"><ele>775.0</ele><time>2026-05-02T08:58:36.963Z</time></trkpt><trkpt lat="44.1399433" lon="10.3016379"><ele>777.8333333333333</ele><time>2026-05-02T08:58:37.964Z</time></trkpt><trkpt lat="44.1399557" lon="10.3015368"><ele>780.6666666666666</ele><time>2026-05-02T08:58:38.964Z</time></trkpt><trkpt lat="44.1399691" lon="10.301425"><ele>783.5</ele><time>2026-05-02T08:58:39.963Z</time></trkpt><trkpt lat="44.1399806" lon="10.3013075"><ele>786.3333333333333</ele><time>2026-05-02T08:58:40.964Z</time></trkpt><trkpt lat="44.1400013" lon="10.3011874"><ele>789.1666666666666</ele><time>2026-05-02T08:58:41.964Z</time></trkpt><trkpt lat="44.1400205" lon="10.3010657"><ele>792.0</ele><time>2026-05-02T08:58:42.964Z</time></trkpt><trkpt lat="44.140042" lon="10.3009409"><ele>792.0</ele><time>2026-05-02T08:58:43.963Z</time></trkpt><trkpt lat="44.1400704" lon="10.3008158"><ele>792.0</ele><time>2026-05-02T08:58:44.963Z</time></trkpt><trkpt lat="44.1401033" lon="10.3006945"><ele>792.0</ele><time>2026-05-02T08:58:45.964Z</time></trkpt><trkpt lat="44.1401364" lon="10.3005823"><ele>792.0</ele><time>2026-05-02T08:58:46.963Z</time></trkpt><trkpt lat="44.1401699" lon="10.300475"><ele>792.0</ele><time>2026-05-02T08:58:47.963Z</time></trkpt><trkpt lat="44.140203" lon="10.3003757"><ele>792.0</ele><time>2026-05-02T08:58:48.964Z</time></trkpt><trkpt lat="44.1402436" lon="10.3002757"><ele>792.0</ele><time>2026-05-02T08:58:49.963Z</time></trkpt><trkpt lat="44.1402813" lon="10.300179"><ele>792.0</ele><time>2026-05-02T08:58:50.964Z</time></trkpt><trkpt lat="44.1403254" lon="10.3000909"><ele>792.0</ele><time>2026-05-02T08:58:51.964Z</time></trkpt><trkpt lat="44.1403626" lon="10.3000026"><ele>792.0</ele><time>2026-05-02T08:58:52.964Z</time></trkpt><trkpt lat="44.1403897" lon="10.2999219"><ele>792.0</ele><time>2026-05-02T08:58:53.963Z</time></trkpt><trkpt lat="44.1404429" lon="10.2997721"><ele>792.0</ele><time>2026-05-02T08:58:55.964Z</time></trkpt><trkpt lat="44.1404743" lon="10.2996891"><ele>791.0</ele><time>2026-05-02T08:58:56.963Z</time></trkpt><trkpt lat="44.1405137" lon="10.2996016"><ele>790.0</ele><time>2026-05-02T08:58:57.963Z</time></trkpt><trkpt lat="44.1405596" lon="10.2994825"><ele>789.0</ele><time>2026-05-02T08:58:58.964Z</time></trkpt><trkpt lat="44.1405955" lon="10.2993593"><ele>788.0</ele><time>2026-05-02T08:58:59.964Z</time></trkpt><trkpt lat="44.1406243" lon="10.2992226"><ele>787.0</ele><time>2026-05-02T08:59:00.964Z</time></trkpt><trkpt lat="44.1406349" lon="10.2990637"><ele>787.0</ele><time>2026-05-02T08:59:01.963Z</time></trkpt><trkpt lat="44.1406253" lon="10.2988979"><ele>787.0</ele><time>2026-05-02T08:59:02.963Z</time></trkpt><trkpt lat="44.1406128" lon="10.2987334"><ele>787.0</ele><time>2026-05-02T08:59:03.964Z</time></trkpt><trkpt lat="44.1405958" lon="10.2985684"><ele>787.0</ele><time>2026-05-02T08:59:04.964Z</time></trkpt><trkpt lat="44.1405767" lon="10.2984023"><ele>787.0</ele><time>2026-05-02T08:59:05.963Z</time></trkpt><trkpt lat="44.1405549" lon="10.2982374"><ele>787.0</ele><time>2026-05-02T08:59:06.964Z</time></trkpt><trkpt lat="44.1405372" lon="10.2980921"><ele>787.0</ele><time>2026-05-02T08:59:07.964Z</time></trkpt><trkpt lat="44.1405173" lon="10.2979569"><ele>787.0</ele><time>2026-05-02T08:59:08.963Z</time></trkpt><trkpt lat="44.1405005" lon="10.2978318"><ele>787.0</ele><time>2026-05-02T08:59:09.964Z</time></trkpt><trkpt lat="44.1404854" lon="10.2977164"><ele>788.6666666666666</ele><time>2026-05-02T08:59:10.964Z</time></trkpt><trkpt lat="44.1404702" lon="10.2976159"><ele>790.3333333333333</ele><time>2026-05-02T08:59:11.963Z</time></trkpt><trkpt lat="44.140458" lon="10.2975294"><ele>792.0</ele><time>2026-05-02T08:59:12.963Z</time></trkpt><trkpt lat="44.1404169" lon="10.2973839"><ele>793.6666666666667</ele><time>2026-05-02T08:59:14.963Z</time></trkpt><trkpt lat="44.1403539" lon="10.2972595"><ele>795.3333333333334</ele><time>2026-05-02T08:59:16.963Z</time></trkpt><trkpt lat="44.1403066" lon="10.2971979"><ele>797.0</ele><time>2026-05-02T08:59:17.964Z</time></trkpt><trkpt lat="44.1402579" lon="10.2971247"><ele>798.8333333333334</ele><time>2026-05-02T08:59:18.964Z</time></trkpt><trkpt lat="44.1401947" lon="10.2970497"><ele>800.6666666666667</ele><time>2026-05-02T08:59:19.964Z</time></trkpt><trkpt lat="44.1401419" lon="10.2969743"><ele>802.5</ele><time>2026-05-02T08:59:20.964Z</time></trkpt><trkpt lat="44.1400871" lon="10.2968978"><ele>804.3333333333333</ele><time>2026-05-02T08:59:21.963Z</time></trkpt><trkpt lat="44.1400268" lon="10.2968109"><ele>806.1666666666666</ele><time>2026-05-02T08:59:22.964Z</time></trkpt><trkpt lat="44.1399746" lon="10.2967208"><ele>808.0</ele><time>2026-05-02T08:59:23.964Z</time></trkpt><trkpt lat="44.1399353" lon="10.2966352"><ele>808.0</ele><time>2026-05-02T08:59:24.964Z</time></trkpt><trkpt lat="44.1399096" lon="10.2965468"><ele>808.0</ele><time>2026-05-02T08:59:25.963Z</time></trkpt><trkpt lat="44.1398935" lon="10.2964587"><ele>808.0</ele><time>2026-05-02T08:59:26.964Z</time></trkpt><trkpt lat="44.1398978" lon="10.296293"><ele>808.0</ele><time>2026-05-02T08:59:28.964Z</time></trkpt><trkpt lat="44.1399111" lon="10.2961186"><ele>808.0</ele><time>2026-05-02T08:59:30.964Z</time></trkpt><trkpt lat="44.1399065" lon="10.2959291"><ele>808.9999999999999</ele><time>2026-05-02T08:59:32.964Z</time></trkpt><trkpt lat="44.1399009" lon="10.2958096"><ele>810.0</ele><time>2026-05-02T08:59:33.963Z</time></trkpt><trkpt lat="44.1398912" lon="10.2956949"><ele>811.0</ele><time>2026-05-02T08:59:34.963Z</time></trkpt><trkpt lat="44.1398809" lon="10.2955801"><ele>812.0</ele><time>2026-05-02T08:59:35.964Z</time></trkpt><trkpt lat="44.1398784" lon="10.295486"><ele>812.9999999999999</ele><time>2026-05-02T08:59:36.964Z</time></trkpt><trkpt lat="44.1398784" lon="10.2953847"><ele>814.0</ele><time>2026-05-02T08:59:37.964Z</time></trkpt><trkpt lat="44.139863" lon="10.2952968"><ele>814.0000000000001</ele><time>2026-05-02T08:59:38.964Z</time></trkpt><trkpt lat="44.1398559" lon="10.2951946"><ele>814.0</ele><time>2026-05-02T08:59:39.964Z</time></trkpt><trkpt lat="44.1398463" lon="10.2950939"><ele>814.0</ele><time>2026-05-02T08:59:40.964Z</time></trkpt><trkpt lat="44.1398395" lon="10.2950043"><ele>814.0</ele><time>2026-05-02T08:59:41.964Z</time></trkpt><trkpt lat="44.139829" lon="10.2949063"><ele>814.0</ele><time>2026-05-02T08:59:42.964Z</time></trkpt><trkpt lat="44.1398154" lon="10.2948053"><ele>814.0000000000001</ele><time>2026-05-02T08:59:43.964Z</time></trkpt><trkpt lat="44.1398003" lon="10.2947098"><ele>814.0</ele><time>2026-05-02T08:59:44.964Z</time></trkpt><trkpt lat="44.1397913" lon="10.2946196"><ele>814.9999999999999</ele><time>2026-05-02T08:59:45.964Z</time></trkpt><trkpt lat="44.1397781" lon="10.2945288"><ele>816.0</ele><time>2026-05-02T08:59:46.964Z</time></trkpt><trkpt lat="44.139759" lon="10.294419"><ele>817.0</ele><time>2026-05-02T08:59:47.963Z</time></trkpt><trkpt lat="44.1397445" lon="10.2942775"><ele>818.0</ele><time>2026-05-02T08:59:49.964Z</time></trkpt><trkpt lat="44.1397036" lon="10.2941298"><ele>818.9999999999999</ele><time>2026-05-02T08:59:51.964Z</time></trkpt><trkpt lat="44.1396974" lon="10.2940381"><ele>820.0</ele><time>2026-05-02T08:59:52.964Z</time></trkpt><trkpt lat="44.1396832" lon="10.2939384"><ele>819.9999999999999</ele><time>2026-05-02T08:59:53.963Z</time></trkpt><trkpt lat="44.1396512" lon="10.2938535"><ele>820.0</ele><time>2026-05-02T08:59:54.964Z</time></trkpt><trkpt lat="44.1396193" lon="10.2937741"><ele>820.0</ele><time>2026-05-02T08:59:57.964Z</time></trkpt><trkpt lat="44.1396305" lon="10.2936729"><ele>820.0</ele><time>2026-05-02T08:59:59.963Z</time></trkpt><trkpt lat="44.1396173" lon="10.2935126"><ele>819.9999999999999</ele><time>2026-05-02T09:00:01.964Z</time></trkpt><trkpt lat="44.1396205" lon="10.2934085"><ele>820.0</ele><time>2026-05-02T09:00:03.964Z</time></trkpt><trkpt lat="44.1396326" lon="10.2933216"><ele>819.9999999999999</ele><time>2026-05-02T09:00:08.964Z</time></trkpt><trkpt lat="44.1396564" lon="10.293233"><ele>820.0</ele><time>2026-05-02T09:01:12.963Z</time></trkpt><trkpt lat="44.1397356" lon="10.2931964"><ele>820.0</ele><time>2026-05-02T09:01:14.964Z</time></trkpt><trkpt lat="44.1398089" lon="10.2931855"><ele>820.0</ele><time>2026-05-02T09:01:16.963Z</time></trkpt><trkpt lat="44.1398497" lon="10.293083"><ele>819.9999999999999</ele><time>2026-05-02T09:01:19.964Z</time></trkpt><trkpt lat="44.1398656" lon="10.2929472"><ele>820.0</ele><time>2026-05-02T09:01:21.963Z</time></trkpt><trkpt lat="44.139857" lon="10.2928262"><ele>819.8333333333333</ele><time>2026-05-02T09:01:23.964Z</time></trkpt><trkpt lat="44.1398651" lon="10.2927096"><ele>819.6666666666666</ele><time>2026-05-02T09:01:26.963Z</time></trkpt><trkpt lat="44.1398676" lon="10.2926168"><ele>819.5</ele><time>2026-05-02T09:01:28.963Z</time></trkpt><trkpt lat="44.1398572" lon="10.2924851"><ele>819.3333333333333</ele><time>2026-05-02T09:01:31.964Z</time></trkpt><trkpt lat="44.1398601" lon="10.2923772"><ele>819.1666666666666</ele><time>2026-05-02T09:01:33.964Z</time></trkpt><trkpt lat="44.1398599" lon="10.2922702"><ele>819.0</ele><time>2026-05-02T09:01:36.963Z</time></trkpt><trkpt lat="44.1398892" lon="10.2921897"><ele>819.0</ele><time>2026-05-02T09:01:50.964Z</time></trkpt><trkpt lat="44.1398706" lon="10.2922748"><ele>819.0</ele><time>2026-05-02T09:02:29.964Z</time></trkpt><trkpt lat="44.1398688" lon="10.2924024"><ele>819.0</ele><time>2026-05-02T09:02:31.964Z</time></trkpt><trkpt lat="44.1398596" lon="10.2925223"><ele>819.0</ele><time>2026-05-02T09:02:33.964Z</time></trkpt><trkpt lat="44.1398533" lon="10.292684"><ele>819.0</ele><time>2026-05-02T09:02:35.963Z</time></trkpt><trkpt lat="44.1398562" lon="10.2928542"><ele>819.0</ele><time>2026-05-02T09:02:37.963Z</time></trkpt><trkpt lat="44.1398521" lon="10.2930245"><ele>819.0</ele><time>2026-05-02T09:02:39.964Z</time></trkpt><trkpt lat="44.1398214" lon="10.2931505"><ele>819.0</ele><time>2026-05-02T09:02:41.964Z</time></trkpt><trkpt lat="44.1397449" lon="10.2932055"><ele>819.0</ele><time>2026-05-02T09:02:43.963Z</time></trkpt><trkpt lat="44.1396503" lon="10.293256"><ele>819.0</ele><time>2026-05-02T09:02:45.964Z</time></trkpt><trkpt lat="44.1395989" lon="10.2933522"><ele>819.1666666666666</ele><time>2026-05-02T09:02:47.964Z</time></trkpt><trkpt lat="44.1396186" lon="10.2934775"><ele>819.3333333333333</ele><time>2026-05-02T09:02:49.963Z</time></trkpt><trkpt lat="44.1396333" lon="10.2936205"><ele>819.5</ele><time>2026-05-02T09:02:51.964Z</time></trkpt><trkpt lat="44.1396289" lon="10.2937312"><ele>819.6666666666666</ele><time>2026-05-02T09:02:53.964Z</time></trkpt><trkpt lat="44.1395782" lon="10.2937893"><ele>819.8333333333333</ele><time>2026-05-02T09:02:55.963Z</time></trkpt><trkpt lat="44.1394862" lon="10.293799"><ele>820.0</ele><time>2026-05-02T09:02:57.963Z</time></trkpt><trkpt lat="44.1394229" lon="10.2937923"><ele>820.0</ele><time>2026-05-02T09:02:58.964Z</time></trkpt><trkpt lat="44.1393118" lon="10.2937763"><ele>820.0</ele><time>2026-05-02T09:03:00.964Z</time></trkpt><trkpt lat="44.1392054" lon="10.2937093"><ele>820.0</ele><time>2026-05-02T09:03:02.964Z</time></trkpt><trkpt lat="44.1391217" lon="10.2936318"><ele>820.0</ele><time>2026-05-02T09:03:04.963Z</time></trkpt><trkpt lat="44.1390412" lon="10.2935721"><ele>820.0</ele><time>2026-05-02T09:03:06.964Z</time></trkpt><trkpt lat="44.1389946" lon="10.2934961"><ele>822.6666666666666</ele><time>2026-05-02T09:03:10.964Z</time></trkpt><trkpt lat="44.1389384" lon="10.2934339"><ele>825.3333333333333</ele><time>2026-05-02T09:03:12.963Z</time></trkpt><trkpt lat="44.1388752" lon="10.2933042"><ele>828.0</ele><time>2026-05-02T09:03:14.964Z</time></trkpt><trkpt lat="44.1388329" lon="10.2932346"><ele>830.6666666666667</ele><time>2026-05-02T09:03:15.964Z</time></trkpt><trkpt lat="44.1387492" lon="10.2931059"><ele>833.3333333333334</ele><time>2026-05-02T09:03:17.964Z</time></trkpt><trkpt lat="44.1387105" lon="10.2930349"><ele>836.0</ele><time>2026-05-02T09:03:18.964Z</time></trkpt><trkpt lat="44.1386848" lon="10.2929541"><ele>836.8333333333334</ele><time>2026-05-02T09:03:19.963Z</time></trkpt><trkpt lat="44.1386731" lon="10.2928663"><ele>837.6666666666667</ele><time>2026-05-02T09:03:20.963Z</time></trkpt><trkpt lat="44.1386783" lon="10.2927675"><ele>838.5</ele><time>2026-05-02T09:03:21.964Z</time></trkpt><trkpt lat="44.1386895" lon="10.2926638"><ele>839.3333333333333</ele><time>2026-05-02T09:03:22.963Z</time></trkpt><trkpt lat="44.1386996" lon="10.2925609"><ele>840.1666666666666</ele><time>2026-05-02T09:03:23.964Z</time></trkpt><trkpt lat="44.1386967" lon="10.2923843"><ele>841.0</ele><time>2026-05-02T09:03:25.964Z</time></trkpt><trkpt lat="44.1386865" lon="10.2922873"><ele>841.4</ele><time>2026-05-02T09:03:26.964Z</time></trkpt><trkpt lat="44.1386597" lon="10.2921966"><ele>841.8</ele><time>2026-05-02T09:03:27.963Z</time></trkpt><trkpt lat="44.1385919" lon="10.2920487"><ele>842.1999999999999</ele><time>2026-05-02T09:03:29.964Z</time></trkpt><trkpt lat="44.1385511" lon="10.2919063"><ele>842.5999999999999</ele><time>2026-05-02T09:03:31.964Z</time></trkpt><trkpt lat="44.1385941" lon="10.2918241"><ele>843.0</ele><time>2026-05-02T09:03:32.964Z</time></trkpt><trkpt lat="44.13865" lon="10.2916648"><ele>843.0</ele><time>2026-05-02T09:03:34.963Z</time></trkpt><trkpt lat="44.1386916" lon="10.2915953"><ele>843.0</ele><time>2026-05-02T09:03:35.963Z</time></trkpt><trkpt lat="44.1387178" lon="10.2914419"><ele>843.0</ele><time>2026-05-02T09:03:37.963Z</time></trkpt><trkpt lat="44.1387051" lon="10.2912815"><ele>843.0</ele><time>2026-05-02T09:03:39.964Z</time></trkpt><trkpt lat="44.1386927" lon="10.2911743"><ele>843.0</ele><time>2026-05-02T09:03:40.964Z</time></trkpt><trkpt lat="44.1386752" lon="10.2910698"><ele>843.0</ele><time>2026-05-02T09:03:41.964Z</time></trkpt><trkpt lat="44.1386627" lon="10.2909724"><ele>843.5</ele><time>2026-05-02T09:03:42.964Z</time></trkpt><trkpt lat="44.1386373" lon="10.2908486"><ele>844.0</ele><time>2026-05-02T09:03:43.964Z</time></trkpt><trkpt lat="44.1386253" lon="10.2907394"><ele>844.5</ele><time>2026-05-02T09:03:44.964Z</time></trkpt><trkpt lat="44.1385981" lon="10.2906339"><ele>845.0</ele><time>2026-05-02T09:03:45.964Z</time></trkpt><trkpt lat="44.1385581" lon="10.2905362"><ele>845.5</ele><time>2026-05-02T09:03:46.964Z</time></trkpt><trkpt lat="44.1385441" lon="10.29044"><ele>846.0</ele><time>2026-05-02T09:03:47.964Z</time></trkpt><trkpt lat="44.1385164" lon="10.2903398"><ele>846.0</ele><time>2026-05-02T09:03:48.964Z</time></trkpt><trkpt lat="44.1384679" lon="10.2902381"><ele>846.0</ele><time>2026-05-02T09:03:49.964Z</time></trkpt><trkpt lat="44.1384316" lon="10.2901408"><ele>846.0</ele><time>2026-05-02T09:03:50.963Z</time></trkpt><trkpt lat="44.1383838" lon="10.2900296"><ele>846.0</ele><time>2026-05-02T09:03:51.963Z</time></trkpt><trkpt lat="44.1383139" lon="10.2898828"><ele>846.0</ele><time>2026-05-02T09:03:53.963Z</time></trkpt><trkpt lat="44.138292" lon="10.2897729"><ele>846.0</ele><time>2026-05-02T09:03:54.964Z</time></trkpt><trkpt lat="44.1382863" lon="10.2896798"><ele>846.0</ele><time>2026-05-02T09:03:55.964Z</time></trkpt><trkpt lat="44.1382871" lon="10.289581"><ele>846.0</ele><time>2026-05-02T09:03:56.964Z</time></trkpt><trkpt lat="44.1383026" lon="10.2894772"><ele>846.0</ele><time>2026-05-02T09:03:57.963Z</time></trkpt><trkpt lat="44.1383276" lon="10.2893769"><ele>846.0</ele><time>2026-05-02T09:03:58.964Z</time></trkpt><trkpt lat="44.1383546" lon="10.2892275"><ele>846.0</ele><time>2026-05-02T09:04:00.963Z</time></trkpt><trkpt lat="44.1383386" lon="10.2891018"><ele>846.0</ele><time>2026-05-02T09:04:02.963Z</time></trkpt><trkpt lat="44.1383013" lon="10.2889568"><ele>846.0</ele><time>2026-05-02T09:04:04.964Z</time></trkpt><trkpt lat="44.1382697" lon="10.2887721"><ele>846.0</ele><time>2026-05-02T09:04:06.964Z</time></trkpt><trkpt lat="44.1382461" lon="10.2886843"><ele>846.0</ele><time>2026-05-02T09:04:07.963Z</time></trkpt><trkpt lat="44.1382164" lon="10.2885911"><ele>846.0</ele><time>2026-05-02T09:04:08.964Z</time></trkpt><trkpt lat="44.1381868" lon="10.2885119"><ele>850.25</ele><time>2026-05-02T09:04:09.963Z</time></trkpt><trkpt lat="44.1381033" lon="10.2883779"><ele>854.5</ele><time>2026-05-02T09:04:11.963Z</time></trkpt><trkpt lat="44.1380026" lon="10.2882904"><ele>858.75</ele><time>2026-05-02T09:04:13.964Z</time></trkpt><trkpt lat="44.1378793" lon="10.2881969"><ele>863.0</ele><time>2026-05-02T09:04:15.964Z</time></trkpt><trkpt lat="44.1377909" lon="10.2881565"><ele>863.0000000000001</ele><time>2026-05-02T09:04:16.963Z</time></trkpt><trkpt lat="44.1377305" lon="10.2880955"><ele>863.0</ele><time>2026-05-02T09:04:17.964Z</time></trkpt><trkpt lat="44.1376776" lon="10.2880449"><ele>863.0</ele><time>2026-05-02T09:04:18.964Z</time></trkpt><trkpt lat="44.1376359" lon="10.2879601"><ele>863.0</ele><time>2026-05-02T09:04:19.963Z</time></trkpt><trkpt lat="44.1375911" lon="10.287893"><ele>863.0</ele><time>2026-05-02T09:04:20.963Z</time></trkpt><trkpt lat="44.1375553" lon="10.2878124"><ele>863.0000000000001</ele><time>2026-05-02T09:04:21.964Z</time></trkpt><trkpt lat="44.1375152" lon="10.2877153"><ele>863.0</ele><time>2026-05-02T09:04:22.964Z</time></trkpt><trkpt lat="44.1374598" lon="10.2876201"><ele>862.1666666666667</ele><time>2026-05-02T09:04:23.963Z</time></trkpt><trkpt lat="44.1374029" lon="10.2875258"><ele>861.3333333333334</ele><time>2026-05-02T09:04:24.964Z</time></trkpt><trkpt lat="44.1373405" lon="10.2874312"><ele>860.5</ele><time>2026-05-02T09:04:25.964Z</time></trkpt><trkpt lat="44.1372781" lon="10.2873278"><ele>859.6666666666667</ele><time>2026-05-02T09:04:26.963Z</time></trkpt><trkpt lat="44.1372225" lon="10.2872355"><ele>858.8333333333334</ele><time>2026-05-02T09:04:27.964Z</time></trkpt><trkpt lat="44.1371706" lon="10.2871513"><ele>858.0</ele><time>2026-05-02T09:04:28.964Z</time></trkpt><trkpt lat="44.1371073" lon="10.2870426"><ele>860.8</ele><time>2026-05-02T09:04:29.963Z</time></trkpt><trkpt lat="44.1370717" lon="10.286925"><ele>863.5999999999999</ele><time>2026-05-02T09:04:30.964Z</time></trkpt><trkpt lat="44.1370342" lon="10.2868009"><ele>866.4000000000001</ele><time>2026-05-02T09:04:31.963Z</time></trkpt><trkpt lat="44.1369848" lon="10.2867125"><ele>869.2</ele><time>2026-05-02T09:04:32.964Z</time></trkpt><trkpt lat="44.1369186" lon="10.2865728"><ele>872.0</ele><time>2026-05-02T09:04:34.964Z</time></trkpt><trkpt lat="44.1368355" lon="10.2864523"><ele>871.0000000000001</ele><time>2026-05-02T09:04:36.963Z</time></trkpt><trkpt lat="44.1367914" lon="10.2863735"><ele>870.0</ele><time>2026-05-02T09:04:37.964Z</time></trkpt><trkpt lat="44.1367487" lon="10.2863055"><ele>869.0</ele><time>2026-05-02T09:04:38.964Z</time></trkpt><trkpt lat="44.1366896" lon="10.2862519"><ele>868.0</ele><time>2026-05-02T09:04:39.963Z</time></trkpt><trkpt lat="44.136633" lon="10.286213"><ele>867.0000000000001</ele><time>2026-05-02T09:04:40.963Z</time></trkpt><trkpt lat="44.1365082" lon="10.2861663"><ele>866.0</ele><time>2026-05-02T09:04:42.963Z</time></trkpt><trkpt lat="44.1363902" lon="10.2861196"><ele>867.0000000000001</ele><time>2026-05-02T09:04:44.964Z</time></trkpt><trkpt lat="44.1363343" lon="10.2860196"><ele>868.0</ele><time>2026-05-02T09:04:45.963Z</time></trkpt><trkpt lat="44.136272" lon="10.2859501"><ele>869.0</ele><time>2026-05-02T09:04:46.964Z</time></trkpt><trkpt lat="44.1362097" lon="10.2858534"><ele>870.0</ele><time>2026-05-02T09:04:47.964Z</time></trkpt><trkpt lat="44.1361492" lon="10.2857684"><ele>871.0000000000001</ele><time>2026-05-02T09:04:48.963Z</time></trkpt><trkpt lat="44.1360985" lon="10.285673"><ele>872.0</ele><time>2026-05-02T09:04:49.964Z</time></trkpt><trkpt lat="44.136053" lon="10.2855757"><ele>872.0000000000001</ele><time>2026-05-02T09:04:50.964Z</time></trkpt><trkpt lat="44.1360002" lon="10.2854811"><ele>872.0</ele><time>2026-05-02T09:04:51.964Z</time></trkpt><trkpt lat="44.1359505" lon="10.2853938"><ele>872.0</ele><time>2026-05-02T09:04:52.964Z</time></trkpt><trkpt lat="44.1358867" lon="10.2853061"><ele>872.0</ele><time>2026-05-02T09:04:53.963Z</time></trkpt><trkpt lat="44.1358223" lon="10.2852479"><ele>872.0000000000001</ele><time>2026-05-02T09:04:54.964Z</time></trkpt><trkpt lat="44.1357508" lon="10.2852131"><ele>872.0</ele><time>2026-05-02T09:04:55.964Z</time></trkpt><trkpt lat="44.1356956" lon="10.2851679"><ele>872.0</ele><time>2026-05-02T09:04:56.963Z</time></trkpt><trkpt lat="44.1356404" lon="10.2851077"><ele>872.0</ele><time>2026-05-02T09:04:57.963Z</time></trkpt><trkpt lat="44.1355962" lon="10.2849698"><ele>872.0</ele><time>2026-05-02T09:04:59.963Z</time></trkpt><trkpt lat="44.1356547" lon="10.2848565"><ele>872.0</ele><time>2026-05-02T09:05:01.964Z</time></trkpt><trkpt lat="44.1357431" lon="10.2848402"><ele>872.0</ele><time>2026-05-02T09:05:03.964Z</time></trkpt><trkpt lat="44.135853" lon="10.284908"><ele>872.0000000000001</ele><time>2026-05-02T09:05:05.963Z</time></trkpt><trkpt lat="44.1359167" lon="10.2849286"><ele>872.0</ele><time>2026-05-02T09:05:06.963Z</time></trkpt><trkpt lat="44.1359805" lon="10.2849322"><ele>872.0</ele><time>2026-05-02T09:05:07.964Z</time></trkpt><trkpt lat="44.1360552" lon="10.2849508"><ele>872.0</ele><time>2026-05-02T09:05:08.964Z</time></trkpt><trkpt lat="44.1361206" lon="10.284963"><ele>872.0000000000001</ele><time>2026-05-02T09:05:09.964Z</time></trkpt><trkpt lat="44.1362403" lon="10.2850173"><ele>872.0</ele><time>2026-05-02T09:05:11.963Z</time></trkpt><trkpt lat="44.1363111" lon="10.2851002"><ele>872.0</ele><time>2026-05-02T09:06:09.964Z</time></trkpt><trkpt lat="44.1363617" lon="10.285179"><ele>872.0</ele><time>2026-05-02T09:06:11.964Z</time></trkpt><trkpt lat="44.136409" lon="10.2852585"><ele>872.0</ele><time>2026-05-02T09:06:13.964Z</time></trkpt><trkpt lat="44.1364642" lon="10.2853275"><ele>872.0</ele><time>2026-05-02T09:06:15.964Z</time></trkpt><trkpt lat="44.1365896" lon="10.2853556"><ele>872.0</ele><time>2026-05-02T09:06:18.964Z</time></trkpt><trkpt lat="44.1367239" lon="10.285383"><ele>872.6666666666667</ele><time>2026-05-02T09:06:20.964Z</time></trkpt><trkpt lat="44.1367991" lon="10.2854108"><ele>873.3333333333334</ele><time>2026-05-02T09:06:21.964Z</time></trkpt><trkpt lat="44.1368684" lon="10.2854451"><ele>874.0</ele><time>2026-05-02T09:06:22.964Z</time></trkpt><trkpt lat="44.1369254" lon="10.2854937"><ele>874.6666666666667</ele><time>2026-05-02T09:06:23.964Z</time></trkpt><trkpt lat="44.1369791" lon="10.2855529"><ele>875.3333333333334</ele><time>2026-05-02T09:06:24.964Z</time></trkpt><trkpt lat="44.1370786" lon="10.285631"><ele>876.0</ele><time>2026-05-02T09:06:26.963Z</time></trkpt><trkpt lat="44.1371927" lon="10.2856705"><ele>876.0</ele><time>2026-05-02T09:06:28.964Z</time></trkpt><trkpt lat="44.1372817" lon="10.2857007"><ele>876.0</ele><time>2026-05-02T09:06:30.964Z</time></trkpt><trkpt lat="44.1373429" lon="10.2856778"><ele>876.0</ele><time>2026-05-02T09:06:32.963Z</time></trkpt><trkpt lat="44.1373493" lon="10.2855644"><ele>876.0</ele><time>2026-05-02T09:06:40.963Z</time></trkpt><trkpt lat="44.1373043" lon="10.2854528"><ele>876.0</ele><time>2026-05-02T09:06:42.964Z</time></trkpt><trkpt lat="44.1372771" lon="10.2853469"><ele>876.0</ele><time>2026-05-02T09:06:44.963Z</time></trkpt><trkpt lat="44.1372735" lon="10.2851993"><ele>876.0</ele><time>2026-05-02T09:06:46.964Z</time></trkpt><trkpt lat="44.1372926" lon="10.2850493"><ele>876.0</ele><time>2026-05-02T09:06:48.963Z</time></trkpt><trkpt lat="44.1373169" lon="10.2849237"><ele>876.0</ele><time>2026-05-02T09:06:50.963Z</time></trkpt><trkpt lat="44.1373911" lon="10.2848666"><ele>876.0</ele><time>2026-05-02T09:06:52.963Z</time></trkpt><trkpt lat="44.137464" lon="10.2848341"><ele>876.0</ele><time>2026-05-02T09:06:54.964Z</time></trkpt><trkpt lat="44.1375314" lon="10.2848165"><ele>876.0</ele><time>2026-05-02T09:06:56.964Z</time></trkpt><trkpt lat="44.1375905" lon="10.2847753"><ele>878.0</ele><time>2026-05-02T09:06:58.964Z</time></trkpt><trkpt lat="44.1376857" lon="10.2847494"><ele>880.0</ele><time>2026-05-02T09:07:00.963Z</time></trkpt><trkpt lat="44.1377545" lon="10.2847013"><ele>882.0</ele><time>2026-05-02T09:07:02.964Z</time></trkpt><trkpt lat="44.1378375" lon="10.2846606"><ele>884.0</ele><time>2026-05-02T09:07:04.964Z</time></trkpt><trkpt lat="44.1379161" lon="10.2846194"><ele>886.0</ele><time>2026-05-02T09:07:12.964Z</time></trkpt><trkpt lat="44.1379746" lon="10.2846555"><ele>888.0</ele><time>2026-05-02T09:07:13.964Z</time></trkpt><trkpt lat="44.1380741" lon="10.2847079"><ele>888.2</ele><time>2026-05-02T09:07:15.964Z</time></trkpt><trkpt lat="44.1381369" lon="10.284779"><ele>888.4</ele><time>2026-05-02T09:07:16.964Z</time></trkpt><trkpt lat="44.1382143" lon="10.2848863"><ele>888.6000000000001</ele><time>2026-05-02T09:07:18.963Z</time></trkpt><trkpt lat="44.138281" lon="10.2849958"><ele>888.8000000000001</ele><time>2026-05-02T09:07:20.964Z</time></trkpt><trkpt lat="44.1382819" lon="10.285156"><ele>889.0</ele><time>2026-05-02T09:07:22.964Z</time></trkpt><trkpt lat="44.138349" lon="10.2852918"><ele>889.0</ele><time>2026-05-02T09:07:24.963Z</time></trkpt><trkpt lat="44.1384168" lon="10.2853782"><ele>889.0000000000001</ele><time>2026-05-02T09:07:26.963Z</time></trkpt><trkpt lat="44.138542" lon="10.2854057"><ele>889.0000000000001</ele><time>2026-05-02T09:07:28.964Z</time></trkpt><trkpt lat="44.1386434" lon="10.2854004"><ele>889.0</ele><time>2026-05-02T09:07:29.964Z</time></trkpt><trkpt lat="44.138742" lon="10.2853905"><ele>889.0</ele><time>2026-05-02T09:07:30.964Z</time></trkpt><trkpt lat="44.1388434" lon="10.2853942"><ele>889.0</ele><time>2026-05-02T09:07:31.964Z</time></trkpt><trkpt lat="44.1389287" lon="10.285376"><ele>889.0000000000001</ele><time>2026-05-02T09:07:32.964Z</time></trkpt><trkpt lat="44.1390339" lon="10.2853729"><ele>889.0000000000001</ele><time>2026-05-02T09:07:33.963Z</time></trkpt><trkpt lat="44.139115" lon="10.2853715"><ele>889.0</ele><time>2026-05-02T09:07:34.964Z</time></trkpt><trkpt lat="44.1392384" lon="10.2853946"><ele>889.0</ele><time>2026-05-02T09:07:36.963Z</time></trkpt><trkpt lat="44.1393107" lon="10.2854132"><ele>890.3333333333333</ele><time>2026-05-02T09:07:37.963Z</time></trkpt><trkpt lat="44.1393931" lon="10.2853454"><ele>891.6666666666666</ele><time>2026-05-02T09:07:40.964Z</time></trkpt><trkpt lat="44.1393838" lon="10.2852136"><ele>893.0</ele><time>2026-05-02T09:07:42.964Z</time></trkpt><trkpt lat="44.1393451" lon="10.2851076"><ele>894.3333333333333</ele><time>2026-05-02T09:07:44.963Z</time></trkpt><trkpt lat="44.1392594" lon="10.2850642"><ele>895.6666666666666</ele><time>2026-05-02T09:07:45.964Z</time></trkpt><trkpt lat="44.1392067" lon="10.2850121"><ele>897.0</ele><time>2026-05-02T09:07:46.964Z</time></trkpt><trkpt lat="44.1391434" lon="10.2849779"><ele>897.0</ele><time>2026-05-02T09:07:47.964Z</time></trkpt><trkpt lat="44.1390467" lon="10.2849276"><ele>897.0</ele><time>2026-05-02T09:07:48.964Z</time></trkpt><trkpt lat="44.1389763" lon="10.2848965"><ele>897.0</ele><time>2026-05-02T09:07:49.963Z</time></trkpt><trkpt lat="44.138917" lon="10.2848639"><ele>897.0</ele><time>2026-05-02T09:07:50.964Z</time></trkpt><trkpt lat="44.1388338" lon="10.2847936"><ele>897.0</ele><time>2026-05-02T09:07:52.963Z</time></trkpt><trkpt lat="44.1388248" lon="10.284663"><ele>897.0</ele><time>2026-05-02T09:07:54.964Z</time></trkpt><trkpt lat="44.1388641" lon="10.2844991"><ele>897.0</ele><time>2026-05-02T09:07:56.964Z</time></trkpt><trkpt lat="44.1388515" lon="10.2843717"><ele>897.0</ele><time>2026-05-02T09:07:58.964Z</time></trkpt><trkpt lat="44.1387902" lon="10.2843012"><ele>897.0</ele><time>2026-05-02T09:08:00.963Z</time></trkpt><trkpt lat="44.1387284" lon="10.2842548"><ele>897.0</ele><time>2026-05-02T09:08:01.963Z</time></trkpt><trkpt lat="44.1386823" lon="10.284185"><ele>897.0</ele><time>2026-05-02T09:08:02.963Z</time></trkpt><trkpt lat="44.1386532" lon="10.2841021"><ele>897.0</ele><time>2026-05-02T09:08:03.964Z</time></trkpt><trkpt lat="44.1386176" lon="10.2840252"><ele>897.0</ele><time>2026-05-02T09:08:04.964Z</time></trkpt><trkpt lat="44.1386207" lon="10.2838651"><ele>899.2857142857143</ele><time>2026-05-02T09:08:06.963Z</time></trkpt><trkpt lat="44.1386178" lon="10.2837748"><ele>901.5714285714284</ele><time>2026-05-02T09:08:07.963Z</time></trkpt><trkpt lat="44.1386052" lon="10.2836778"><ele>903.8571428571428</ele><time>2026-05-02T09:08:08.964Z</time></trkpt><trkpt lat="44.138565" lon="10.2835927"><ele>906.1428571428571</ele><time>2026-05-02T09:08:09.964Z</time></trkpt><trkpt lat="44.1385316" lon="10.2835057"><ele>908.4285714285713</ele><time>2026-05-02T09:08:10.964Z</time></trkpt><trkpt lat="44.1384732" lon="10.2834446"><ele>910.7142857142856</ele><time>2026-05-02T09:08:11.964Z</time></trkpt><trkpt lat="44.1384164" lon="10.2833933"><ele>912.9999999999999</ele><time>2026-05-02T09:08:12.963Z</time></trkpt><trkpt lat="44.1383375" lon="10.2832809"><ele>912.9999999999999</ele><time>2026-05-02T09:08:14.964Z</time></trkpt><trkpt lat="44.1383014" lon="10.2831483"><ele>913.0</ele><time>2026-05-02T09:08:16.963Z</time></trkpt><trkpt lat="44.1382764" lon="10.2830487"><ele>913.0</ele><time>2026-05-02T09:08:17.963Z</time></trkpt><trkpt lat="44.1382404" lon="10.2829568"><ele>913.0</ele><time>2026-05-02T09:08:18.964Z</time></trkpt><trkpt lat="44.1382026" lon="10.2828646"><ele>912.9999999999999</ele><time>2026-05-02T09:08:19.964Z</time></trkpt><trkpt lat="44.1381658" lon="10.2827756"><ele>913.0</ele><time>2026-05-02T09:08:20.964Z</time></trkpt><trkpt lat="44.1380775" lon="10.2826103"><ele>914.3333333333333</ele><time>2026-05-02T09:08:22.963Z</time></trkpt><trkpt lat="44.1380266" lon="10.282535"><ele>915.6666666666666</ele><time>2026-05-02T09:08:23.964Z</time></trkpt><trkpt lat="44.1379821" lon="10.2824544"><ele>917.0</ele><time>2026-05-02T09:08:25.963Z</time></trkpt><trkpt lat="44.138065" lon="10.2824161"><ele>918.3333333333333</ele><time>2026-05-02T09:08:28.964Z</time></trkpt><trkpt lat="44.1381619" lon="10.2825061"><ele>919.6666666666666</ele><time>2026-05-02T09:08:30.964Z</time></trkpt><trkpt lat="44.1382231" lon="10.2825917"><ele>921.0</ele><time>2026-05-02T09:08:31.963Z</time></trkpt><trkpt lat="44.1382887" lon="10.2826894"><ele>919.6666666666666</ele><time>2026-05-02T09:08:32.963Z</time></trkpt><trkpt lat="44.1383484" lon="10.2827699"><ele>918.3333333333333</ele><time>2026-05-02T09:08:33.964Z</time></trkpt><trkpt lat="44.1384031" lon="10.282855"><ele>917.0</ele><time>2026-05-02T09:08:34.964Z</time></trkpt><trkpt lat="44.1384529" lon="10.2829253"><ele>915.6666666666666</ele><time>2026-05-02T09:08:35.964Z</time></trkpt><trkpt lat="44.1384889" lon="10.2830119"><ele>914.3333333333333</ele><time>2026-05-02T09:08:36.963Z</time></trkpt><trkpt lat="44.1385066" lon="10.2831206"><ele>913.0</ele><time>2026-05-02T09:08:38.964Z</time></trkpt><trkpt lat="44.1385757" lon="10.2831578"><ele>912.9999999999999</ele><time>2026-05-02T09:08:41.964Z</time></trkpt><trkpt lat="44.1386553" lon="10.2831732"><ele>913.0</ele><time>2026-05-02T09:08:43.964Z</time></trkpt><trkpt lat="44.1387329" lon="10.2832436"><ele>913.0</ele><time>2026-05-02T09:08:45.964Z</time></trkpt><trkpt lat="44.1388099" lon="10.2833179"><ele>913.0</ele><time>2026-05-02T09:08:47.964Z</time></trkpt><trkpt lat="44.1388782" lon="10.283382"><ele>912.9999999999999</ele><time>2026-05-02T09:08:49.964Z</time></trkpt><trkpt lat="44.1389573" lon="10.2833411"><ele>913.0</ele><time>2026-05-02T09:08:51.963Z</time></trkpt><trkpt lat="44.1390073" lon="10.283285"><ele>916.5999999999999</ele><time>2026-05-02T09:08:52.964Z</time></trkpt><trkpt lat="44.1390804" lon="10.2831422"><ele>920.1999999999999</ele><time>2026-05-02T09:08:54.964Z</time></trkpt><trkpt lat="44.1391113" lon="10.2830351"><ele>923.8</ele><time>2026-05-02T09:08:55.964Z</time></trkpt><trkpt lat="44.139135" lon="10.2829335"><ele>927.4</ele><time>2026-05-02T09:08:56.964Z</time></trkpt><trkpt lat="44.1391653" lon="10.2828377"><ele>931.0</ele><time>2026-05-02T09:08:57.964Z</time></trkpt><trkpt lat="44.1392227" lon="10.2827232"><ele>930.8333333333333</ele><time>2026-05-02T09:08:59.964Z</time></trkpt><trkpt lat="44.1391657" lon="10.2826511"><ele>930.6666666666666</ele><time>2026-05-02T09:09:02.963Z</time></trkpt><trkpt lat="44.1391037" lon="10.2827039"><ele>930.5</ele><time>2026-05-02T09:09:04.963Z</time></trkpt><trkpt lat="44.1390583" lon="10.2827754"><ele>930.3333333333333</ele><time>2026-05-02T09:09:05.964Z</time></trkpt><trkpt lat="44.1390024" lon="10.282844"><ele>930.1666666666666</ele><time>2026-05-02T09:09:06.963Z</time></trkpt><trkpt lat="44.1389347" lon="10.2828871"><ele>930.0</ele><time>2026-05-02T09:09:07.964Z</time></trkpt><trkpt lat="44.1388313" lon="10.2829305"><ele>930.0</ele><time>2026-05-02T09:09:09.964Z</time></trkpt><trkpt lat="44.1387489" lon="10.2829126"><ele>930.0</ele><time>2026-05-02T09:09:11.964Z</time></trkpt><trkpt lat="44.1387249" lon="10.2827653"><ele>930.0</ele><time>2026-05-02T09:09:13.964Z</time></trkpt><trkpt lat="44.1386947" lon="10.2826838"><ele>930.0</ele><time>2026-05-02T09:09:14.963Z</time></trkpt><trkpt lat="44.1386585" lon="10.2825999"><ele>930.0</ele><time>2026-05-02T09:09:15.964Z</time></trkpt><trkpt lat="44.1386177" lon="10.2825192"><ele>930.0</ele><time>2026-05-02T09:09:16.963Z</time></trkpt><trkpt lat="44.1385856" lon="10.2823775"><ele>932.8333333333334</ele><time>2026-05-02T09:09:18.964Z</time></trkpt><trkpt lat="44.1386217" lon="10.2822314"><ele>935.6666666666667</ele><time>2026-05-02T09:09:20.964Z</time></trkpt><trkpt lat="44.1386108" lon="10.2821129"><ele>938.5</ele><time>2026-05-02T09:09:21.963Z</time></trkpt><trkpt lat="44.1386256" lon="10.282003"><ele>941.3333333333334</ele><time>2026-05-02T09:09:22.964Z</time></trkpt><trkpt lat="44.1386192" lon="10.2819118"><ele>944.1666666666667</ele><time>2026-05-02T09:09:23.964Z</time></trkpt><trkpt lat="44.1386122" lon="10.2818232"><ele>947.0</ele><time>2026-05-02T09:09:24.963Z</time></trkpt><trkpt lat="44.1385727" lon="10.2816623"><ele>947.0</ele><time>2026-05-02T09:09:26.964Z</time></trkpt><trkpt lat="44.1384801" lon="10.2816109"><ele>947.0</ele><time>2026-05-02T09:09:27.963Z</time></trkpt><trkpt lat="44.1384353" lon="10.2815388"><ele>947.0</ele><time>2026-05-02T09:09:28.964Z</time></trkpt><trkpt lat="44.1384314" lon="10.281354"><ele>947.0</ele><time>2026-05-02T09:09:30.964Z</time></trkpt><trkpt lat="44.1384221" lon="10.2812633"><ele>947.0</ele><time>2026-05-02T09:09:31.963Z</time></trkpt><trkpt lat="44.1384757" lon="10.2811048"><ele>949.0000000000001</ele><time>2026-05-02T09:09:33.963Z</time></trkpt><trkpt lat="44.1384821" lon="10.2810116"><ele>951.0</ele><time>2026-05-02T09:09:34.964Z</time></trkpt><trkpt lat="44.1384904" lon="10.280864"><ele>953.0</ele><time>2026-05-02T09:09:36.964Z</time></trkpt><trkpt lat="44.1384599" lon="10.2807614"><ele>955.0</ele><time>2026-05-02T09:09:37.964Z</time></trkpt><trkpt lat="44.1384482" lon="10.2806689"><ele>957.0000000000001</ele><time>2026-05-02T09:09:38.964Z</time></trkpt><trkpt lat="44.1384392" lon="10.2805725"><ele>959.0</ele><time>2026-05-02T09:09:39.963Z</time></trkpt><trkpt lat="44.1384492" lon="10.2804809"><ele>960.5714285714286</ele><time>2026-05-02T09:09:40.964Z</time></trkpt><trkpt lat="44.1384688" lon="10.2803891"><ele>962.1428571428571</ele><time>2026-05-02T09:09:41.963Z</time></trkpt><trkpt lat="44.1384542" lon="10.2802751"><ele>963.7142857142858</ele><time>2026-05-02T09:09:42.963Z</time></trkpt><trkpt lat="44.1384573" lon="10.2801655"><ele>965.2857142857143</ele><time>2026-05-02T09:09:43.964Z</time></trkpt><trkpt lat="44.1383897" lon="10.2800945"><ele>966.8571428571429</ele><time>2026-05-02T09:09:44.964Z</time></trkpt><trkpt lat="44.138362" lon="10.2800137"><ele>968.4285714285716</ele><time>2026-05-02T09:09:45.964Z</time></trkpt><trkpt lat="44.1383451" lon="10.2799232"><ele>970.0000000000001</ele><time>2026-05-02T09:09:46.964Z</time></trkpt><trkpt lat="44.1383482" lon="10.2797561"><ele>971.9999999999999</ele><time>2026-05-02T09:09:48.964Z</time></trkpt><trkpt lat="44.1383571" lon="10.2796475"><ele>974.0</ele><time>2026-05-02T09:09:49.964Z</time></trkpt><trkpt lat="44.1383682" lon="10.2795346"><ele>976.0</ele><time>2026-05-02T09:09:50.964Z</time></trkpt><trkpt lat="44.1383981" lon="10.2794522"><ele>978.0</ele><time>2026-05-02T09:09:51.964Z</time></trkpt><trkpt lat="44.1384182" lon="10.2793503"><ele>979.9999999999999</ele><time>2026-05-02T09:09:52.964Z</time></trkpt><trkpt lat="44.1384582" lon="10.2792693"><ele>982.0</ele><time>2026-05-02T09:09:53.964Z</time></trkpt><trkpt lat="44.1385001" lon="10.2791773"><ele>981.9999999999999</ele><time>2026-05-02T09:09:54.964Z</time></trkpt><trkpt lat="44.1385364" lon="10.2790849"><ele>982.0</ele><time>2026-05-02T09:09:55.964Z</time></trkpt><trkpt lat="44.1385799" lon="10.2789379"><ele>982.0</ele><time>2026-05-02T09:09:57.964Z</time></trkpt><trkpt lat="44.13855" lon="10.2788302"><ele>982.0</ele><time>2026-05-02T09:09:59.964Z</time></trkpt><trkpt lat="44.1384759" lon="10.2787373"><ele>981.9999999999999</ele><time>2026-05-02T09:10:01.963Z</time></trkpt><trkpt lat="44.1384111" lon="10.2787156"><ele>982.0</ele><time>2026-05-02T09:10:02.964Z</time></trkpt><trkpt lat="44.1383078" lon="10.2786992"><ele>982.8</ele><time>2026-05-02T09:10:04.964Z</time></trkpt><trkpt lat="44.1382433" lon="10.2788015"><ele>983.6</ele><time>2026-05-02T09:10:06.964Z</time></trkpt><trkpt lat="44.1381421" lon="10.2788956"><ele>984.3999999999999</ele><time>2026-05-02T09:10:08.963Z</time></trkpt><trkpt lat="44.1380963" lon="10.2789751"><ele>985.1999999999999</ele><time>2026-05-02T09:10:09.964Z</time></trkpt><trkpt lat="44.1380241" lon="10.2790485"><ele>986.0</ele><time>2026-05-02T09:10:10.964Z</time></trkpt><trkpt lat="44.1379653" lon="10.2790996"><ele>986.0000000000001</ele><time>2026-05-02T09:10:11.964Z</time></trkpt><trkpt lat="44.1379132" lon="10.2791648"><ele>986.0</ele><time>2026-05-02T09:10:12.964Z</time></trkpt><trkpt lat="44.1377989" lon="10.2791662"><ele>986.0</ele><time>2026-05-02T09:10:14.964Z</time></trkpt><trkpt lat="44.1377342" lon="10.2791822"><ele>986.0</ele><time>2026-05-02T09:10:15.964Z</time></trkpt><trkpt lat="44.1376757" lon="10.279299"><ele>986.0000000000001</ele><time>2026-05-02T09:10:17.963Z</time></trkpt><trkpt lat="44.1376422" lon="10.2793968"><ele>986.0</ele><time>2026-05-02T09:10:18.964Z</time></trkpt><trkpt lat="44.1375802" lon="10.2795113"><ele>986.0</ele><time>2026-05-02T09:10:20.964Z</time></trkpt><trkpt lat="44.1374554" lon="10.2795776"><ele>985.9999999999999</ele><time>2026-05-02T09:10:22.963Z</time></trkpt><trkpt lat="44.1373972" lon="10.2796401"><ele>985.9999999999999</ele><time>2026-05-02T09:10:23.964Z</time></trkpt><trkpt lat="44.1372976" lon="10.2797337"><ele>986.0</ele><time>2026-05-02T09:10:25.963Z</time></trkpt><trkpt lat="44.1372239" lon="10.2797491"><ele>986.0</ele><time>2026-05-02T09:10:26.963Z</time></trkpt><trkpt lat="44.137129" lon="10.279693"><ele>984.75</ele><time>2026-05-02T09:10:28.964Z</time></trkpt><trkpt lat="44.1371137" lon="10.2795261"><ele>983.5</ele><time>2026-05-02T09:10:30.963Z</time></trkpt><trkpt lat="44.137116" lon="10.2794344"><ele>982.25</ele><time>2026-05-02T09:10:31.963Z</time></trkpt><trkpt lat="44.1372144" lon="10.2792474"><ele>981.0</ele><time>2026-05-02T09:10:33.964Z</time></trkpt><trkpt lat="44.1372718" lon="10.2791265"><ele>981.0</ele><time>2026-05-02T09:10:34.964Z</time></trkpt><trkpt lat="44.1373201" lon="10.2790161"><ele>981.0</ele><time>2026-05-02T09:10:35.964Z</time></trkpt><trkpt lat="44.1373602" lon="10.2789151"><ele>981.0</ele><time>2026-05-02T09:10:36.964Z</time></trkpt><trkpt lat="44.1373942" lon="10.2788273"><ele>981.0</ele><time>2026-05-02T09:10:37.963Z</time></trkpt><trkpt lat="44.1374156" lon="10.2787368"><ele>981.0</ele><time>2026-05-02T09:10:38.964Z</time></trkpt><trkpt lat="44.1373973" lon="10.2786509"><ele>981.0</ele><time>2026-05-02T09:10:39.963Z</time></trkpt><trkpt lat="44.1373668" lon="10.2785569"><ele>982.1666666666666</ele><time>2026-05-02T09:10:40.964Z</time></trkpt><trkpt lat="44.1373177" lon="10.2784626"><ele>983.3333333333333</ele><time>2026-05-02T09:10:41.964Z</time></trkpt><trkpt lat="44.1372764" lon="10.2783597"><ele>984.5</ele><time>2026-05-02T09:10:42.964Z</time></trkpt><trkpt lat="44.1372226" lon="10.2782516"><ele>985.6666666666666</ele><time>2026-05-02T09:10:43.963Z</time></trkpt><trkpt lat="44.1371564" lon="10.278188"><ele>986.8333333333333</ele><time>2026-05-02T09:10:44.964Z</time></trkpt><trkpt lat="44.1371011" lon="10.2781332"><ele>988.0</ele><time>2026-05-02T09:10:45.964Z</time></trkpt><trkpt lat="44.1370125" lon="10.2781252"><ele>987.9999999999999</ele><time>2026-05-02T09:10:46.963Z</time></trkpt><trkpt lat="44.136944" lon="10.2781016"><ele>988.0</ele><time>2026-05-02T09:10:47.964Z</time></trkpt><trkpt lat="44.1368854" lon="10.2780662"><ele>988.0</ele><time>2026-05-02T09:10:48.964Z</time></trkpt><trkpt lat="44.1368092" lon="10.2779466"><ele>988.0</ele><time>2026-05-02T09:10:50.964Z</time></trkpt><trkpt lat="44.136788" lon="10.2778133"><ele>987.9999999999999</ele><time>2026-05-02T09:10:52.964Z</time></trkpt><trkpt lat="44.1368055" lon="10.2777177"><ele>988.0</ele><time>2026-05-02T09:10:54.964Z</time></trkpt><trkpt lat="44.1368297" lon="10.2776295"><ele>990.3333333333333</ele><time>2026-05-02T09:11:07.964Z</time></trkpt><trkpt lat="44.1367761" lon="10.2775174"><ele>992.6666666666666</ele><time>2026-05-02T09:11:09.963Z</time></trkpt><trkpt lat="44.1367153" lon="10.2774589"><ele>995.0</ele><time>2026-05-02T09:11:10.964Z</time></trkpt><trkpt lat="44.1366621" lon="10.277411"><ele>997.3333333333333</ele><time>2026-05-02T09:11:11.964Z</time></trkpt><trkpt lat="44.1365864" lon="10.2773608"><ele>999.6666666666666</ele><time>2026-05-02T09:11:12.963Z</time></trkpt><trkpt lat="44.1365304" lon="10.277317"><ele>1002.0</ele><time>2026-05-02T09:11:13.963Z</time></trkpt><trkpt lat="44.1364524" lon="10.2771957"><ele>1004.3333333333334</ele><time>2026-05-02T09:11:15.963Z</time></trkpt><trkpt lat="44.1363767" lon="10.2770926"><ele>1006.6666666666667</ele><time>2026-05-02T09:11:17.964Z</time></trkpt><trkpt lat="44.1363177" lon="10.2770509"><ele>1009.0</ele><time>2026-05-02T09:11:19.963Z</time></trkpt><trkpt lat="44.1362498" lon="10.2770499"><ele>1011.3333333333334</ele><time>2026-05-02T09:11:20.964Z</time></trkpt><trkpt lat="44.1361827" lon="10.2770518"><ele>1013.6666666666667</ele><time>2026-05-02T09:11:21.964Z</time></trkpt><trkpt lat="44.1361063" lon="10.2770598"><ele>1016.0</ele><time>2026-05-02T09:11:22.964Z</time></trkpt><trkpt lat="44.1359641" lon="10.2771095"><ele>1016.0</ele><time>2026-05-02T09:11:24.964Z</time></trkpt><trkpt lat="44.1358547" lon="10.2771744"><ele>1015.9999999999999</ele><time>2026-05-02T09:11:26.964Z</time></trkpt><trkpt lat="44.1357437" lon="10.2770867"><ele>1015.9999999999999</ele><time>2026-05-02T09:11:28.963Z</time></trkpt><trkpt lat="44.1356813" lon="10.2770279"><ele>1016.0</ele><time>2026-05-02T09:11:29.964Z</time></trkpt><trkpt lat="44.135605" lon="10.2769504"><ele>1016.0</ele><time>2026-05-02T09:11:30.964Z</time></trkpt><trkpt lat="44.1355361" lon="10.2768933"><ele>1013.6666666666667</ele><time>2026-05-02T09:11:31.964Z</time></trkpt><trkpt lat="44.1354704" lon="10.2768267"><ele>1011.3333333333334</ele><time>2026-05-02T09:11:32.964Z</time></trkpt><trkpt lat="44.135407" lon="10.2767731"><ele>1009.0</ele><time>2026-05-02T09:11:33.963Z</time></trkpt><trkpt lat="44.1353452" lon="10.276716"><ele>1006.6666666666667</ele><time>2026-05-02T09:11:34.964Z</time></trkpt><trkpt lat="44.1353" lon="10.2766345"><ele>1004.3333333333334</ele><time>2026-05-02T09:11:35.963Z</time></trkpt><trkpt lat="44.1352582" lon="10.2765507"><ele>1002.0</ele><time>2026-05-02T09:11:36.964Z</time></trkpt><trkpt lat="44.1352339" lon="10.2764429"><ele>1002.1666666666666</ele><time>2026-05-02T09:11:37.964Z</time></trkpt><trkpt lat="44.1351968" lon="10.2763593"><ele>1002.3333333333333</ele><time>2026-05-02T09:11:38.963Z</time></trkpt><trkpt lat="44.1351564" lon="10.2762722"><ele>1002.5</ele><time>2026-05-02T09:11:39.964Z</time></trkpt><trkpt lat="44.1350953" lon="10.2761641"><ele>1002.6666666666666</ele><time>2026-05-02T09:11:40.963Z</time></trkpt><trkpt lat="44.1350434" lon="10.2760744"><ele>1002.8333333333333</ele><time>2026-05-02T09:11:41.964Z</time></trkpt><trkpt lat="44.1349707" lon="10.275965"><ele>1003.0</ele><time>2026-05-02T09:11:42.963Z</time></trkpt><trkpt lat="44.1349067" lon="10.2758565"><ele>1003.8333333333333</ele><time>2026-05-02T09:11:43.964Z</time></trkpt><trkpt lat="44.1348375" lon="10.2757654"><ele>1004.6666666666666</ele><time>2026-05-02T09:11:44.964Z</time></trkpt><trkpt lat="44.1347681" lon="10.2756846"><ele>1005.5</ele><time>2026-05-02T09:11:45.964Z</time></trkpt><trkpt lat="44.1347038" lon="10.2755845"><ele>1006.3333333333333</ele><time>2026-05-02T09:11:47.964Z</time></trkpt><trkpt lat="44.1346438" lon="10.2755412"><ele>1007.1666666666666</ele><time>2026-05-02T09:11:51.964Z</time></trkpt><trkpt lat="44.1346996" lon="10.2756429"><ele>1008.0</ele><time>2026-05-02T09:11:56.963Z</time></trkpt><trkpt lat="44.1347484" lon="10.2757231"><ele>1008.0</ele><time>2026-05-02T09:11:58.964Z</time></trkpt><trkpt lat="44.134837" lon="10.2758336"><ele>1008.0</ele><time>2026-05-02T09:12:00.964Z</time></trkpt><trkpt lat="44.1348931" lon="10.2759207"><ele>1008.0</ele><time>2026-05-02T09:12:01.964Z</time></trkpt><trkpt lat="44.1349316" lon="10.2759931"><ele>1008.0</ele><time>2026-05-02T09:12:02.964Z</time></trkpt><trkpt lat="44.1349751" lon="10.2760641"><ele>1008.0</ele><time>2026-05-02T09:12:03.963Z</time></trkpt><trkpt lat="44.1350668" lon="10.2761878"><ele>1007.2857142857142</ele><time>2026-05-02T09:12:05.963Z</time></trkpt><trkpt lat="44.1351114" lon="10.276255"><ele>1006.5714285714286</ele><time>2026-05-02T09:12:06.964Z</time></trkpt><trkpt lat="44.1351599" lon="10.2763283"><ele>1005.8571428571429</ele><time>2026-05-02T09:12:08.963Z</time></trkpt><trkpt lat="44.135202" lon="10.276407"><ele>1005.1428571428571</ele><time>2026-05-02T09:12:10.964Z</time></trkpt><trkpt lat="44.1352746" lon="10.2763554"><ele>1004.4285714285713</ele><time>2026-05-02T09:12:38.963Z</time></trkpt><trkpt lat="44.1353163" lon="10.2762857"><ele>1003.7142857142857</ele><time>2026-05-02T09:12:40.964Z</time></trkpt><trkpt lat="44.135337" lon="10.2761778"><ele>1003.0</ele><time>2026-05-02T09:12:42.964Z</time></trkpt><trkpt lat="44.1353518" lon="10.27609"><ele>1003.0</ele><time>2026-05-02T09:12:44.964Z</time></trkpt><trkpt lat="44.1353769" lon="10.276009"><ele>1002.9999999999999</ele><time>2026-05-02T09:12:46.964Z</time></trkpt><trkpt lat="44.1354161" lon="10.2759294"><ele>1003.0</ele><time>2026-05-02T09:12:48.964Z</time></trkpt><trkpt lat="44.1354602" lon="10.275863"><ele>1003.0</ele><time>2026-05-02T09:12:50.963Z</time></trkpt><trkpt lat="44.13552" lon="10.2757953"><ele>1002.9999999999999</ele><time>2026-05-02T09:12:53.964Z</time></trkpt><trkpt lat="44.1355725" lon="10.2757095"><ele>1003.0</ele><time>2026-05-02T09:12:55.964Z</time></trkpt><trkpt lat="44.1356254" lon="10.2756105"><ele>1003.0</ele><time>2026-05-02T09:12:57.964Z</time></trkpt><trkpt lat="44.1356742" lon="10.2755449"><ele>1001.7142857142857</ele><time>2026-05-02T09:12:59.963Z</time></trkpt><trkpt lat="44.1357287" lon="10.275479"><ele>1000.4285714285713</ele><time>2026-05-02T09:13:01.964Z</time></trkpt><trkpt lat="44.1357798" lon="10.2754198"><ele>999.1428571428571</ele><time>2026-05-02T09:13:03.964Z</time></trkpt><trkpt lat="44.1358507" lon="10.2753997"><ele>997.8571428571429</ele><time>2026-05-02T09:13:06.963Z</time></trkpt><trkpt lat="44.1359232" lon="10.2754438"><ele>996.5714285714286</ele><time>2026-05-02T09:13:08.964Z</time></trkpt><trkpt lat="44.1359905" lon="10.2754311"><ele>995.2857142857142</ele><time>2026-05-02T09:13:11.964Z</time></trkpt><trkpt lat="44.1360099" lon="10.2753144"><ele>994.0</ele><time>2026-05-02T09:13:14.964Z</time></trkpt><trkpt lat="44.1361195" lon="10.2752663"><ele>993.9999999999999</ele><time>2026-05-02T09:13:17.964Z</time></trkpt><trkpt lat="44.1362196" lon="10.2753185"><ele>994.0</ele><time>2026-05-02T09:13:19.963Z</time></trkpt><trkpt lat="44.1362836" lon="10.2754095"><ele>994.0</ele><time>2026-05-02T09:13:22.964Z</time></trkpt><trkpt lat="44.1363523" lon="10.2754466"><ele>994.0</ele><time>2026-05-02T09:13:24.964Z</time></trkpt><trkpt lat="44.1364342" lon="10.2754493"><ele>993.9999999999999</ele><time>2026-05-02T09:13:25.964Z</time></trkpt><trkpt lat="44.1365023" lon="10.2753921"><ele>994.0</ele><time>2026-05-02T09:13:27.964Z</time></trkpt><trkpt lat="44.1365437" lon="10.2753057"><ele>995.5714285714286</ele><time>2026-05-02T09:13:29.963Z</time></trkpt><trkpt lat="44.1365625" lon="10.2752172"><ele>997.1428571428571</ele><time>2026-05-02T09:13:31.964Z</time></trkpt><trkpt lat="44.1365928" lon="10.2751145"><ele>998.7142857142858</ele><time>2026-05-02T09:13:33.964Z</time></trkpt><trkpt lat="44.1366438" lon="10.2750476"><ele>1000.2857142857143</ele><time>2026-05-02T09:13:35.964Z</time></trkpt><trkpt lat="44.1367021" lon="10.2750108"><ele>1001.8571428571429</ele><time>2026-05-02T09:13:37.964Z</time></trkpt><trkpt lat="44.1367658" lon="10.2749998"><ele>1003.4285714285716</ele><time>2026-05-02T09:13:39.963Z</time></trkpt><trkpt lat="44.1368244" lon="10.275038"><ele>1005.0000000000001</ele><time>2026-05-02T09:13:41.963Z</time></trkpt><trkpt lat="44.1368804" lon="10.2751261"><ele>1005.0</ele><time>2026-05-02T09:13:43.964Z</time></trkpt><trkpt lat="44.1369455" lon="10.275161"><ele>1005.0</ele><time>2026-05-02T09:13:45.964Z</time></trkpt><trkpt lat="44.1370455" lon="10.2751997"><ele>1005.0</ele><time>2026-05-02T09:13:47.964Z</time></trkpt><trkpt lat="44.137112" lon="10.2751859"><ele>1005.0</ele><time>2026-05-02T09:13:48.963Z</time></trkpt><trkpt lat="44.1371937" lon="10.2751086"><ele>1005.0</ele><time>2026-05-02T09:13:50.963Z</time></trkpt><trkpt lat="44.1372566" lon="10.2749897"><ele>1005.0</ele><time>2026-05-02T09:13:52.964Z</time></trkpt><trkpt lat="44.1372949" lon="10.2748635"><ele>1005.0</ele><time>2026-05-02T09:13:54.964Z</time></trkpt><trkpt lat="44.1373354" lon="10.2747918"><ele>1005.0</ele><time>2026-05-02T09:13:56.963Z</time></trkpt><trkpt lat="44.1373982" lon="10.2747323"><ele>1005.0</ele><time>2026-05-02T09:13:58.963Z</time></trkpt><trkpt lat="44.1374746" lon="10.2746716"><ele>1005.0</ele><time>2026-05-02T09:14:01.964Z</time></trkpt><trkpt lat="44.1375467" lon="10.2746377"><ele>1005.0</ele><time>2026-05-02T09:14:03.963Z</time></trkpt><trkpt lat="44.1376298" lon="10.2745925"><ele>1005.0</ele><time>2026-05-02T09:14:05.963Z</time></trkpt><trkpt lat="44.1376978" lon="10.2745008"><ele>1005.2</ele><time>2026-05-02T09:14:07.963Z</time></trkpt><trkpt lat="44.1377701" lon="10.2743615"><ele>1005.4</ele><time>2026-05-02T09:14:09.964Z</time></trkpt><trkpt lat="44.1378224" lon="10.2742505"><ele>1005.5999999999999</ele><time>2026-05-02T09:14:11.964Z</time></trkpt><trkpt lat="44.1378645" lon="10.2741591"><ele>1005.8</ele><time>2026-05-02T09:14:13.964Z</time></trkpt><trkpt lat="44.1378577" lon="10.2740362"><ele>1006.0</ele><time>2026-05-02T09:14:15.964Z</time></trkpt><trkpt lat="44.137826" lon="10.2739277"><ele>1005.9999999999999</ele><time>2026-05-02T09:14:17.964Z</time></trkpt><trkpt lat="44.1377998" lon="10.2738214"><ele>1006.0</ele><time>2026-05-02T09:14:19.963Z</time></trkpt><trkpt lat="44.1378105" lon="10.2737334"><ele>1006.0</ele><time>2026-05-02T09:14:22.963Z</time></trkpt><trkpt lat="44.137864" lon="10.2736355"><ele>1006.0</ele><time>2026-05-02T09:14:25.964Z</time></trkpt><trkpt lat="44.1378828" lon="10.2735381"><ele>1005.9999999999999</ele><time>2026-05-02T09:14:27.964Z</time></trkpt><trkpt lat="44.1379135" lon="10.2734323"><ele>1006.0</ele><time>2026-05-02T09:14:29.963Z</time></trkpt><trkpt lat="44.137976" lon="10.2734082"><ele>1005.9999999999999</ele><time>2026-05-02T09:14:31.964Z</time></trkpt><trkpt lat="44.1380504" lon="10.2733428"><ele>1006.0</ele><time>2026-05-02T09:14:34.964Z</time></trkpt><trkpt lat="44.138121" lon="10.2732306"><ele>1006.0</ele><time>2026-05-02T09:14:36.964Z</time></trkpt><trkpt lat="44.1381533" lon="10.2731491"><ele>1006.0</ele><time>2026-05-02T09:14:37.963Z</time></trkpt><trkpt lat="44.1382136" lon="10.2730561"><ele>1005.9999999999999</ele><time>2026-05-02T09:14:39.964Z</time></trkpt><trkpt lat="44.1382716" lon="10.2729897"><ele>1006.0</ele><time>2026-05-02T09:14:41.964Z</time></trkpt><trkpt lat="44.1383647" lon="10.2729304"><ele>1009.5999999999999</ele><time>2026-05-02T09:14:43.964Z</time></trkpt><trkpt lat="44.1384415" lon="10.2728257"><ele>1013.1999999999999</ele><time>2026-05-02T09:14:45.964Z</time></trkpt><trkpt lat="44.1385336" lon="10.2727437"><ele>1016.8000000000001</ele><time>2026-05-02T09:14:47.964Z</time></trkpt><trkpt lat="44.1386099" lon="10.2726517"><ele>1020.4000000000001</ele><time>2026-05-02T09:14:49.964Z</time></trkpt><trkpt lat="44.1386787" lon="10.2725808"><ele>1024.0</ele><time>2026-05-02T09:14:51.964Z</time></trkpt><trkpt lat="44.1387555" lon="10.2724969"><ele>1023.9999999999999</ele><time>2026-05-02T09:14:53.964Z</time></trkpt><trkpt lat="44.1388203" lon="10.2724869"><ele>1024.0</ele><time>2026-05-02T09:14:55.964Z</time></trkpt><trkpt lat="44.1388855" lon="10.2724614"><ele>1024.0</ele><time>2026-05-02T09:14:57.964Z</time></trkpt><trkpt lat="44.1389785" lon="10.2724489"><ele>1024.0</ele><time>2026-05-02T09:14:59.963Z</time></trkpt><trkpt lat="44.1390554" lon="10.2724268"><ele>1023.9999999999999</ele><time>2026-05-02T09:15:01.964Z</time></trkpt><trkpt lat="44.1391551" lon="10.2723645"><ele>1024.0</ele><time>2026-05-02T09:15:03.964Z</time></trkpt><trkpt lat="44.1392194" lon="10.2723508"><ele>1025.0</ele><time>2026-05-02T09:15:04.964Z</time></trkpt><trkpt lat="44.139287" lon="10.2723332"><ele>1026.0</ele><time>2026-05-02T09:15:06.964Z</time></trkpt><trkpt lat="44.1393525" lon="10.2723144"><ele>1027.0</ele><time>2026-05-02T09:15:08.964Z</time></trkpt><trkpt lat="44.1394394" lon="10.272314"><ele>1028.0</ele><time>2026-05-02T09:15:11.964Z</time></trkpt><trkpt lat="44.1395355" lon="10.2723117"><ele>1029.0</ele><time>2026-05-02T09:15:13.964Z</time></trkpt><trkpt lat="44.1396197" lon="10.2722767"><ele>1030.0</ele><time>2026-05-02T09:15:15.963Z</time></trkpt><trkpt lat="44.1396948" lon="10.272213"><ele>1030.0</ele><time>2026-05-02T09:15:17.964Z</time></trkpt><trkpt lat="44.1397616" lon="10.2721516"><ele>1030.0</ele><time>2026-05-02T09:15:19.964Z</time></trkpt><trkpt lat="44.1398318" lon="10.2720616"><ele>1030.0</ele><time>2026-05-02T09:15:21.964Z</time></trkpt><trkpt lat="44.1398929" lon="10.2720165"><ele>1030.0</ele><time>2026-05-02T09:15:23.964Z</time></trkpt><trkpt lat="44.1399539" lon="10.2719641"><ele>1030.0</ele><time>2026-05-02T09:15:25.963Z</time></trkpt><trkpt lat="44.1400364" lon="10.271959"><ele>1030.0</ele><time>2026-05-02T09:15:27.964Z</time></trkpt><trkpt lat="44.1401065" lon="10.271959"><ele>1031.5</ele><time>2026-05-02T09:15:29.964Z</time></trkpt><trkpt lat="44.1401733" lon="10.271952"><ele>1033.0</ele><time>2026-05-02T09:15:31.964Z</time></trkpt><trkpt lat="44.1402527" lon="10.2720011"><ele>1034.5</ele><time>2026-05-02T09:15:34.963Z</time></trkpt><trkpt lat="44.140166" lon="10.272068"><ele>1036.0</ele><time>2026-05-02T09:15:37.964Z</time></trkpt><trkpt lat="44.1401051" lon="10.2721033"><ele>1037.5</ele><time>2026-05-02T09:15:39.964Z</time></trkpt><trkpt lat="44.1400365" lon="10.2721629"><ele>1039.0</ele><time>2026-05-02T09:15:41.964Z</time></trkpt><trkpt lat="44.1399478" lon="10.2722286"><ele>1040.6666666666665</ele><time>2026-05-02T09:15:43.964Z</time></trkpt><trkpt lat="44.1398852" lon="10.2722806"><ele>1042.3333333333333</ele><time>2026-05-02T09:15:45.964Z</time></trkpt><trkpt lat="44.1398088" lon="10.2723899"><ele>1044.0</ele><time>2026-05-02T09:15:48.964Z</time></trkpt><trkpt lat="44.1397513" lon="10.2724686"><ele>1045.6666666666667</ele><time>2026-05-02T09:15:50.963Z</time></trkpt><trkpt lat="44.1396541" lon="10.2725148"><ele>1047.3333333333335</ele><time>2026-05-02T09:15:53.964Z</time></trkpt><trkpt lat="44.1395965" lon="10.2725689"><ele>1049.0</ele><time>2026-05-02T09:15:55.962Z</time></trkpt><trkpt lat="44.1395171" lon="10.272653"><ele>1049.0</ele><time>2026-05-02T09:15:58.964Z</time></trkpt><trkpt lat="44.1394501" lon="10.2726996"><ele>1049.0</ele><time>2026-05-02T09:16:00.964Z</time></trkpt><trkpt lat="44.1393898" lon="10.2727281"><ele>1049.0</ele><time>2026-05-02T09:16:01.964Z</time></trkpt><trkpt lat="44.1393137" lon="10.2727533"><ele>1049.0</ele><time>2026-05-02T09:16:03.964Z</time></trkpt><trkpt lat="44.1392418" lon="10.2727945"><ele>1049.0</ele><time>2026-05-02T09:16:05.964Z</time></trkpt><trkpt lat="44.1391651" lon="10.2728254"><ele>1049.0</ele><time>2026-05-02T09:16:07.964Z</time></trkpt><trkpt lat="44.1391007" lon="10.272866"><ele>1049.0</ele><time>2026-05-02T09:16:09.964Z</time></trkpt><trkpt lat="44.1390378" lon="10.2729237"><ele>1049.0</ele><time>2026-05-02T09:16:11.964Z</time></trkpt><trkpt lat="44.1389816" lon="10.2730229"><ele>1049.0</ele><time>2026-05-02T09:16:13.964Z</time></trkpt><trkpt lat="44.1389234" lon="10.2731127"><ele>1049.0</ele><time>2026-05-02T09:16:15.963Z</time></trkpt><trkpt lat="44.1389126" lon="10.2732195"><ele>1049.0</ele><time>2026-05-02T09:16:19.963Z</time></trkpt><trkpt lat="44.138993" lon="10.2731861"><ele>1049.0</ele><time>2026-05-02T09:16:22.963Z</time></trkpt><trkpt lat="44.1390756" lon="10.2731207"><ele>1049.0</ele><time>2026-05-02T09:16:25.964Z</time></trkpt><trkpt lat="44.1391438" lon="10.2730717"><ele>1049.0</ele><time>2026-05-02T09:16:27.964Z</time></trkpt><trkpt lat="44.1392291" lon="10.2730536"><ele>1049.0</ele><time>2026-05-02T09:16:29.964Z</time></trkpt><trkpt lat="44.1393084" lon="10.2730394"><ele>1049.0</ele><time>2026-05-02T09:16:31.964Z</time></trkpt><trkpt lat="44.1393725" lon="10.272999"><ele>1049.0</ele><time>2026-05-02T09:16:33.964Z</time></trkpt><trkpt lat="44.1394568" lon="10.2730021"><ele>1049.0</ele><time>2026-05-02T09:16:35.963Z</time></trkpt><trkpt lat="44.1395421" lon="10.2730087"><ele>1049.0</ele><time>2026-05-02T09:16:37.964Z</time></trkpt><trkpt lat="44.1396242" lon="10.2729727"><ele>1049.0</ele><time>2026-05-02T09:16:39.963Z</time></trkpt><trkpt lat="44.1397195" lon="10.2729084"><ele>1049.0</ele><time>2026-05-02T09:16:41.964Z</time></trkpt><trkpt lat="44.1397889" lon="10.2728552"><ele>1049.0</ele><time>2026-05-02T09:16:43.964Z</time></trkpt><trkpt lat="44.1399035" lon="10.2728329"><ele>1049.0</ele><time>2026-05-02T09:23:05.963Z</time></trkpt><trkpt lat="44.1398419" lon="10.2728576"><ele>1049.0</ele><time>2026-05-02T09:23:47.963Z</time></trkpt><trkpt lat="44.1398621" lon="10.2729461"><ele>1049.0</ele><time>2026-05-02T09:28:37.964Z</time></trkpt><trkpt lat="44.1398061" lon="10.2730015"><ele>1049.0</ele><time>2026-05-02T09:28:39.964Z</time></trkpt><trkpt lat="44.1397295" lon="10.2730545"><ele>1049.0</ele><time>2026-05-02T09:28:42.964Z</time></trkpt><trkpt lat="44.1396755" lon="10.2731003"><ele>1049.0</ele><time>2026-05-02T09:28:43.963Z</time></trkpt><trkpt lat="44.1396197" lon="10.2731557"><ele>1049.0</ele><time>2026-05-02T09:28:44.964Z</time></trkpt><trkpt lat="44.1395754" lon="10.2732262"><ele>1049.0</ele><time>2026-05-02T09:28:45.964Z</time></trkpt><trkpt lat="44.1394929" lon="10.2732974"><ele>1049.0</ele><time>2026-05-02T09:28:47.964Z</time></trkpt><trkpt lat="44.1394021" lon="10.2733215"><ele>1054.6666666666667</ele><time>2026-05-02T09:28:49.964Z</time></trkpt><trkpt lat="44.139338" lon="10.2733476"><ele>1060.3333333333335</ele><time>2026-05-02T09:28:51.964Z</time></trkpt><trkpt lat="44.139257" lon="10.2734173"><ele>1066.0</ele><time>2026-05-02T09:28:54.964Z</time></trkpt><trkpt lat="44.1392116" lon="10.2734911"><ele>1071.6666666666667</ele><time>2026-05-02T09:28:56.964Z</time></trkpt><trkpt lat="44.1391736" lon="10.2735732"><ele>1077.3333333333333</ele><time>2026-05-02T09:28:58.963Z</time></trkpt><trkpt lat="44.1391241" lon="10.2736397"><ele>1083.0</ele><time>2026-05-02T09:29:00.963Z</time></trkpt><trkpt lat="44.1390934" lon="10.2737458"><ele>1077.0</ele><time>2026-05-02T09:29:02.964Z</time></trkpt><trkpt lat="44.1390444" lon="10.2738637"><ele>1071.0</ele><time>2026-05-02T09:29:04.963Z</time></trkpt><trkpt lat="44.1390003" lon="10.2739494"><ele>1065.0</ele><time>2026-05-02T09:29:07.964Z</time></trkpt><trkpt lat="44.1389841" lon="10.2740743"><ele>1059.0</ele><time>2026-05-02T09:29:10.964Z</time></trkpt><trkpt lat="44.1389509" lon="10.2742603"><ele>1053.0</ele><time>2026-05-02T09:29:13.963Z</time></trkpt><trkpt lat="44.1389262" lon="10.2743668"><ele>1052.9999999999998</ele><time>2026-05-02T09:29:15.963Z</time></trkpt><trkpt lat="44.1389177" lon="10.2744581"><ele>1053.0</ele><time>2026-05-02T09:29:17.964Z</time></trkpt><trkpt lat="44.1389427" lon="10.274571"><ele>1053.0</ele><time>2026-05-02T09:29:20.964Z</time></trkpt><trkpt lat="44.1389705" lon="10.2746602"><ele>1053.0</ele><time>2026-05-02T09:29:23.964Z</time></trkpt><trkpt lat="44.1390013" lon="10.2747387"><ele>1053.0</ele><time>2026-05-02T09:29:26.963Z</time></trkpt><trkpt lat="44.1390074" lon="10.2748639"><ele>1052.9999999999998</ele><time>2026-05-02T09:29:29.964Z</time></trkpt><trkpt lat="44.1389852" lon="10.274961"><ele>1053.0</ele><time>2026-05-02T09:29:31.964Z</time></trkpt><trkpt lat="44.1389414" lon="10.2750374"><ele>1056.1666666666667</ele><time>2026-05-02T09:29:33.964Z</time></trkpt><trkpt lat="44.1389017" lon="10.275115"><ele>1059.3333333333333</ele><time>2026-05-02T09:29:35.963Z</time></trkpt><trkpt lat="44.1388765" lon="10.2752006"><ele>1062.5</ele><time>2026-05-02T09:29:37.963Z</time></trkpt><trkpt lat="44.1388413" lon="10.2752933"><ele>1065.6666666666665</ele><time>2026-05-02T09:29:39.963Z</time></trkpt><trkpt lat="44.1388005" lon="10.2753771"><ele>1068.8333333333333</ele><time>2026-05-02T09:29:41.964Z</time></trkpt><trkpt lat="44.1387873" lon="10.2754995"><ele>1072.0</ele><time>2026-05-02T09:29:44.964Z</time></trkpt><trkpt lat="44.1388512" lon="10.2755802"><ele>1072.0</ele><time>2026-05-02T09:29:47.964Z</time></trkpt><trkpt lat="44.138915" lon="10.2755844"><ele>1072.0</ele><time>2026-05-02T09:29:49.964Z</time></trkpt><trkpt lat="44.1389972" lon="10.2755723"><ele>1072.0</ele><time>2026-05-02T09:29:52.964Z</time></trkpt><trkpt lat="44.1390714" lon="10.2755072"><ele>1072.0</ele><time>2026-05-02T09:30:05.963Z</time></trkpt><trkpt lat="44.1391459" lon="10.2754812"><ele>1072.0</ele><time>2026-05-02T09:30:08.964Z</time></trkpt><trkpt lat="44.1392251" lon="10.2754528"><ele>1072.0</ele><time>2026-05-02T09:30:11.963Z</time></trkpt><trkpt lat="44.1393191" lon="10.2754982"><ele>1079.3333333333333</ele><time>2026-05-02T09:30:40.963Z</time></trkpt><trkpt lat="44.1393875" lon="10.2755571"><ele>1086.6666666666665</ele><time>2026-05-02T09:30:44.963Z</time></trkpt><trkpt lat="44.1394624" lon="10.2755107"><ele>1094.0</ele><time>2026-05-02T09:30:48.964Z</time></trkpt><trkpt lat="44.1395237" lon="10.2754749"><ele>1101.3333333333333</ele><time>2026-05-02T09:30:53.964Z</time></trkpt><trkpt lat="44.139589" lon="10.2754308"><ele>1108.6666666666667</ele><time>2026-05-02T09:30:57.964Z</time></trkpt><trkpt lat="44.1396631" lon="10.2753757"><ele>1116.0</ele><time>2026-05-02T09:31:01.963Z</time></trkpt><trkpt lat="44.1397386" lon="10.2753465"><ele>1116.0</ele><time>2026-05-02T09:31:04.963Z</time></trkpt><trkpt lat="44.1398724" lon="10.2753277"><ele>1116.0</ele><time>2026-05-02T09:31:08.964Z</time></trkpt><trkpt lat="44.1399442" lon="10.2753102"><ele>1116.0</ele><time>2026-05-02T09:31:10.963Z</time></trkpt><trkpt lat="44.14001" lon="10.2752994"><ele>1116.0</ele><time>2026-05-02T09:31:12.964Z</time></trkpt><trkpt lat="44.1401572" lon="10.2753988"><ele>1116.0</ele><time>2026-05-02T09:31:16.964Z</time></trkpt><trkpt lat="44.1401688" lon="10.2755086"><ele>1115.8333333333333</ele><time>2026-05-02T09:31:20.889Z</time></trkpt><trkpt lat="44.1402335" lon="10.2756241"><ele>1115.6666666666667</ele><time>2026-05-02T09:31:22.964Z</time></trkpt><trkpt lat="44.1402902" lon="10.2756832"><ele>1115.5</ele><time>2026-05-02T09:31:24.917Z</time></trkpt><trkpt lat="44.1403644" lon="10.2757454"><ele>1115.3333333333335</ele><time>2026-05-02T09:31:27.963Z</time></trkpt><trkpt lat="44.1404274" lon="10.2757647"><ele>1115.1666666666667</ele><time>2026-05-02T09:31:30.889Z</time></trkpt><trkpt lat="44.1405266" lon="10.2758452"><ele>1115.0</ele><time>2026-05-02T09:31:32.964Z</time></trkpt><trkpt lat="44.1405975" lon="10.2758806"><ele>1115.0</ele><time>2026-05-02T09:31:34.963Z</time></trkpt><trkpt lat="44.1406638" lon="10.2759068"><ele>1115.0</ele><time>2026-05-02T09:31:36.964Z</time></trkpt><trkpt lat="44.1407271" lon="10.2759157"><ele>1115.0</ele><time>2026-05-02T09:31:38.964Z</time></trkpt><trkpt lat="44.1408016" lon="10.2759174"><ele>1115.0</ele><time>2026-05-02T09:31:41.964Z</time></trkpt><trkpt lat="44.1408738" lon="10.2759821"><ele>1115.0</ele><time>2026-05-02T09:31:45.964Z</time></trkpt><trkpt lat="44.1409183" lon="10.2760663"><ele>1115.0</ele><time>2026-05-02T09:31:48.964Z</time></trkpt><trkpt lat="44.140958" lon="10.2761443"><ele>1115.0</ele><time>2026-05-02T09:31:51.963Z</time></trkpt><trkpt lat="44.1409874" lon="10.2762248"><ele>1118.4285714285713</ele><time>2026-05-02T09:31:56.964Z</time></trkpt><trkpt lat="44.1410583" lon="10.2763065"><ele>1121.8571428571427</ele><time>2026-05-02T09:33:46.963Z</time></trkpt><trkpt lat="44.1411221" lon="10.2763161"><ele>1125.2857142857142</ele><time>2026-05-02T09:34:15.964Z</time></trkpt><trkpt lat="44.1411366" lon="10.2762073"><ele>1128.7142857142858</ele><time>2026-05-02T09:42:40.964Z</time></trkpt><trkpt lat="44.1411171" lon="10.2761176"><ele>1132.1428571428573</ele><time>2026-05-02T09:42:54.964Z</time></trkpt><trkpt lat="44.1410478" lon="10.2760628"><ele>1135.5714285714287</ele><time>2026-05-02T09:45:52.964Z</time></trkpt><trkpt lat="44.1410175" lon="10.2759842"><ele>1139.0</ele><time>2026-05-02T09:45:56.964Z</time></trkpt><trkpt lat="44.1409584" lon="10.275943"><ele>1139.0</ele><time>2026-05-02T09:46:02.964Z</time></trkpt><trkpt lat="44.1408834" lon="10.2759209"><ele>1139.0</ele><time>2026-05-02T09:46:06.964Z</time></trkpt><trkpt lat="44.1407833" lon="10.2758884"><ele>1139.0</ele><time>2026-05-02T09:46:10.964Z</time></trkpt><trkpt lat="44.1407037" lon="10.2758501"><ele>1139.0</ele><time>2026-05-02T09:46:13.964Z</time></trkpt><trkpt lat="44.1406401" lon="10.2758235"><ele>1139.0</ele><time>2026-05-02T09:46:15.963Z</time></trkpt><trkpt lat="44.1405732" lon="10.2757785"><ele>1139.0</ele><time>2026-05-02T09:46:17.963Z</time></trkpt><trkpt lat="44.1404986" lon="10.2757112"><ele>1139.1666666666667</ele><time>2026-05-02T09:46:19.964Z</time></trkpt><trkpt lat="44.140428" lon="10.2756538"><ele>1139.3333333333335</ele><time>2026-05-02T09:46:21.963Z</time></trkpt><trkpt lat="44.140375" lon="10.2755764"><ele>1139.5</ele><time>2026-05-02T09:46:23.964Z</time></trkpt><trkpt lat="44.1403026" lon="10.2755119"><ele>1139.6666666666667</ele><time>2026-05-02T09:46:25.963Z</time></trkpt><trkpt lat="44.1402494" lon="10.2754383"><ele>1139.8333333333333</ele><time>2026-05-02T09:46:27.963Z</time></trkpt><trkpt lat="44.1402051" lon="10.2753717"><ele>1140.0</ele><time>2026-05-02T09:46:29.964Z</time></trkpt><trkpt lat="44.1401267" lon="10.2753228"><ele>1140.0</ele><time>2026-05-02T09:46:33.964Z</time></trkpt><trkpt lat="44.1400385" lon="10.2753414"><ele>1140.0</ele><time>2026-05-02T09:46:36.964Z</time></trkpt><trkpt lat="44.1399704" lon="10.2753534"><ele>1140.0</ele><time>2026-05-02T09:46:38.963Z</time></trkpt><trkpt lat="44.1398745" lon="10.2753401"><ele>1140.0</ele><time>2026-05-02T09:46:41.963Z</time></trkpt><trkpt lat="44.1397907" lon="10.275335"><ele>1140.0</ele><time>2026-05-02T09:46:44.964Z</time></trkpt><trkpt lat="44.1397184" lon="10.2753403"><ele>1140.0</ele><time>2026-05-02T09:46:47.964Z</time></trkpt><trkpt lat="44.1396384" lon="10.2753605"><ele>1136.5714285714284</ele><time>2026-05-02T09:46:50.963Z</time></trkpt><trkpt lat="44.1395521" lon="10.2753864"><ele>1133.142857142857</ele><time>2026-05-02T09:46:53.964Z</time></trkpt><trkpt lat="44.1394956" lon="10.2754269"><ele>1129.7142857142858</ele><time>2026-05-02T09:46:56.964Z</time></trkpt><trkpt lat="44.1394283" lon="10.2754424"><ele>1126.2857142857142</ele><time>2026-05-02T09:46:58.963Z</time></trkpt><trkpt lat="44.139349" lon="10.2754515"><ele>1122.857142857143</ele><time>2026-05-02T09:47:01.964Z</time></trkpt><trkpt lat="44.1392752" lon="10.2754532"><ele>1119.4285714285713</ele><time>2026-05-02T09:47:03.964Z</time></trkpt><trkpt lat="44.1392057" lon="10.2754643"><ele>1116.0</ele><time>2026-05-02T09:47:05.964Z</time></trkpt><trkpt lat="44.1391412" lon="10.2754685"><ele>1116.0</ele><time>2026-05-02T09:47:06.964Z</time></trkpt><trkpt lat="44.1390541" lon="10.2754951"><ele>1116.0</ele><time>2026-05-02T09:47:09.964Z</time></trkpt><trkpt lat="44.1389834" lon="10.2754935"><ele>1116.0</ele><time>2026-05-02T09:47:12.963Z</time></trkpt><trkpt lat="44.1389091" lon="10.2754849"><ele>1116.0</ele><time>2026-05-02T09:47:15.963Z</time></trkpt><trkpt lat="44.1388287" lon="10.2754682"><ele>1116.0</ele><time>2026-05-02T09:47:17.963Z</time></trkpt><trkpt lat="44.1387625" lon="10.2753994"><ele>1116.0</ele><time>2026-05-02T09:47:20.964Z</time></trkpt><trkpt lat="44.1387697" lon="10.2753106"><ele>1109.7142857142856</ele><time>2026-05-02T09:47:22.963Z</time></trkpt><trkpt lat="44.1387998" lon="10.2752315"><ele>1103.4285714285713</ele><time>2026-05-02T09:47:24.963Z</time></trkpt><trkpt lat="44.1388502" lon="10.2751517"><ele>1097.142857142857</ele><time>2026-05-02T09:47:27.963Z</time></trkpt><trkpt lat="44.1388889" lon="10.2750788"><ele>1090.8571428571427</ele><time>2026-05-02T09:47:29.963Z</time></trkpt><trkpt lat="44.138915" lon="10.2749959"><ele>1084.5714285714284</ele><time>2026-05-02T09:47:31.963Z</time></trkpt><trkpt lat="44.1389593" lon="10.2749125"><ele>1078.2857142857142</ele><time>2026-05-02T09:47:34.963Z</time></trkpt><trkpt lat="44.1389687" lon="10.2748038"><ele>1072.0</ele><time>2026-05-02T09:47:38.964Z</time></trkpt><trkpt lat="44.138928" lon="10.2747204"><ele>1068.8333333333333</ele><time>2026-05-02T09:47:41.964Z</time></trkpt><trkpt lat="44.1388824" lon="10.2746224"><ele>1065.6666666666665</ele><time>2026-05-02T09:47:44.963Z</time></trkpt><trkpt lat="44.1388559" lon="10.274509"><ele>1062.5</ele><time>2026-05-02T09:47:47.964Z</time></trkpt><trkpt lat="44.1388594" lon="10.2743944"><ele>1059.3333333333333</ele><time>2026-05-02T09:47:50.964Z</time></trkpt><trkpt lat="44.1388983" lon="10.274288"><ele>1056.1666666666667</ele><time>2026-05-02T09:47:53.964Z</time></trkpt><trkpt lat="44.1389512" lon="10.2741989"><ele>1053.0</ele><time>2026-05-02T09:48:23.964Z</time></trkpt><trkpt lat="44.1389826" lon="10.2741044"><ele>1053.0</ele><time>2026-05-02T09:48:26.964Z</time></trkpt><trkpt lat="44.1390075" lon="10.2740082"><ele>1053.0</ele><time>2026-05-02T09:48:29.964Z</time></trkpt><trkpt lat="44.1390445" lon="10.2739188"><ele>1053.0</ele><time>2026-05-02T09:48:32.9Z</time></trkpt><trkpt lat="44.1390849" lon="10.2738248"><ele>1053.0</ele><time>2026-05-02T09:48:35.964Z</time></trkpt><trkpt lat="44.1391223" lon="10.2737343"><ele>1053.0</ele><time>2026-05-02T09:48:38.926Z</time></trkpt><trkpt lat="44.1391475" lon="10.2736211"><ele>1053.0</ele><time>2026-05-02T09:48:41.964Z</time></trkpt><trkpt lat="44.1392002" lon="10.2735212"><ele>1052.3333333333333</ele><time>2026-05-02T09:48:44.963Z</time></trkpt><trkpt lat="44.1392415" lon="10.2734319"><ele>1051.6666666666667</ele><time>2026-05-02T09:48:46.964Z</time></trkpt><trkpt lat="44.1392864" lon="10.2733386"><ele>1051.0</ele><time>2026-05-02T09:48:48.964Z</time></trkpt><trkpt lat="44.1393482" lon="10.2732157"><ele>1050.3333333333335</ele><time>2026-05-02T09:48:50.963Z</time></trkpt><trkpt lat="44.1393971" lon="10.2731381"><ele>1049.6666666666667</ele><time>2026-05-02T09:48:52.964Z</time></trkpt><trkpt lat="44.1394593" lon="10.2730993"><ele>1049.0</ele><time>2026-05-02T09:48:54.964Z</time></trkpt><trkpt lat="44.1395264" lon="10.2730978"><ele>1049.0</ele><time>2026-05-02T09:48:57.964Z</time></trkpt><trkpt lat="44.1396118" lon="10.2730904"><ele>1049.0</ele><time>2026-05-02T09:48:59.964Z</time></trkpt><trkpt lat="44.1396887" lon="10.273031"><ele>1049.0</ele><time>2026-05-02T09:49:01.964Z</time></trkpt><trkpt lat="44.1397518" lon="10.2729675"><ele>1049.0</ele><time>2026-05-02T09:49:03.964Z</time></trkpt><trkpt lat="44.1398128" lon="10.2729218"><ele>1049.0</ele><time>2026-05-02T09:49:05.964Z</time></trkpt><trkpt lat="44.1398663" lon="10.2728334"><ele>1049.0</ele><time>2026-05-02T09:49:08.964Z</time></trkpt><trkpt lat="44.1397998" lon="10.2727988"><ele>1049.0</ele><time>2026-05-02T09:49:13.964Z</time></trkpt><trkpt lat="44.1397307" lon="10.2728349"><ele>1049.0</ele><time>2026-05-02T09:49:16.964Z</time></trkpt><trkpt lat="44.1396584" lon="10.2729057"><ele>1049.0</ele><time>2026-05-02T09:49:19.964Z</time></trkpt><trkpt lat="44.1395711" lon="10.2729463"><ele>1049.0</ele><time>2026-05-02T09:49:22.964Z</time></trkpt><trkpt lat="44.1394844" lon="10.2729342"><ele>1049.0</ele><time>2026-05-02T09:49:24.963Z</time></trkpt><trkpt lat="44.1394129" lon="10.2729248"><ele>1049.0</ele><time>2026-05-02T09:49:26.963Z</time></trkpt><trkpt lat="44.1393467" lon="10.2729417"><ele>1049.0</ele><time>2026-05-02T09:49:28.964Z</time></trkpt><trkpt lat="44.1392699" lon="10.2729596"><ele>1049.0</ele><time>2026-05-02T09:49:31.964Z</time></trkpt><trkpt lat="44.1391807" lon="10.272993"><ele>1049.0</ele><time>2026-05-02T09:49:33.964Z</time></trkpt><trkpt lat="44.1391005" lon="10.2730393"><ele>1049.0</ele><time>2026-05-02T09:49:35.964Z</time></trkpt><trkpt lat="44.139036" lon="10.2730956"><ele>1049.0</ele><time>2026-05-02T09:49:37.964Z</time></trkpt><trkpt lat="44.1389852" lon="10.2731665"><ele>1049.0</ele><time>2026-05-02T09:49:39.964Z</time></trkpt><trkpt lat="44.1389322" lon="10.2732595"><ele>1047.5</ele><time>2026-05-02T09:49:41.963Z</time></trkpt><trkpt lat="44.1388628" lon="10.2732886"><ele>1046.0</ele><time>2026-05-02T09:49:44.964Z</time></trkpt><trkpt lat="44.138831" lon="10.2731965"><ele>1044.5</ele><time>2026-05-02T09:49:46.964Z</time></trkpt><trkpt lat="44.1388436" lon="10.2730912"><ele>1043.0</ele><time>2026-05-02T09:49:48.964Z</time></trkpt><trkpt lat="44.1389075" lon="10.2730251"><ele>1041.5</ele><time>2026-05-02T09:49:50.964Z</time></trkpt><trkpt lat="44.1389805" lon="10.2729671"><ele>1040.0</ele><time>2026-05-02T09:49:52.963Z</time></trkpt><trkpt lat="44.1390404" lon="10.272905"><ele>1041.2857142857144</ele><time>2026-05-02T09:49:54.963Z</time></trkpt><trkpt lat="44.1390954" lon="10.2728348"><ele>1042.5714285714287</ele><time>2026-05-02T09:49:56.963Z</time></trkpt><trkpt lat="44.1391559" lon="10.2727766"><ele>1043.857142857143</ele><time>2026-05-02T09:49:58.964Z</time></trkpt><trkpt lat="44.1392339" lon="10.2727394"><ele>1045.1428571428573</ele><time>2026-05-02T09:50:00.964Z</time></trkpt><trkpt lat="44.1393134" lon="10.2727157"><ele>1046.4285714285716</ele><time>2026-05-02T09:50:02.964Z</time></trkpt><trkpt lat="44.1393816" lon="10.2727173"><ele>1047.7142857142858</ele><time>2026-05-02T09:50:04.963Z</time></trkpt><trkpt lat="44.1394462" lon="10.2727061"><ele>1049.0</ele><time>2026-05-02T09:50:06.964Z</time></trkpt><trkpt lat="44.1395005" lon="10.2726598"><ele>1049.0</ele><time>2026-05-02T09:50:08.964Z</time></trkpt><trkpt lat="44.1395508" lon="10.2725923"><ele>1049.0</ele><time>2026-05-02T09:50:10.964Z</time></trkpt><trkpt lat="44.1395975" lon="10.2725151"><ele>1049.0</ele><time>2026-05-02T09:50:12.964Z</time></trkpt><trkpt lat="44.1396551" lon="10.2724737"><ele>1049.0</ele><time>2026-05-02T09:50:14.964Z</time></trkpt><trkpt lat="44.1397194" lon="10.2724474"><ele>1049.0</ele><time>2026-05-02T09:50:16.964Z</time></trkpt><trkpt lat="44.1397935" lon="10.2724013"><ele>1049.0</ele><time>2026-05-02T09:50:18.964Z</time></trkpt><trkpt lat="44.1398387" lon="10.2723253"><ele>1049.0</ele><time>2026-05-02T09:50:20.963Z</time></trkpt><trkpt lat="44.1399063" lon="10.2722541"><ele>1047.3333333333335</ele><time>2026-05-02T09:50:23.964Z</time></trkpt><trkpt lat="44.1399609" lon="10.2722005"><ele>1045.6666666666667</ele><time>2026-05-02T09:50:26.964Z</time></trkpt><trkpt lat="44.1400481" lon="10.2721387"><ele>1044.0</ele><time>2026-05-02T09:50:28.964Z</time></trkpt><trkpt lat="44.1401316" lon="10.2720689"><ele>1042.3333333333333</ele><time>2026-05-02T09:50:30.964Z</time></trkpt><trkpt lat="44.1402121" lon="10.2720071"><ele>1040.6666666666665</ele><time>2026-05-02T09:50:32.964Z</time></trkpt><trkpt lat="44.1402468" lon="10.2719193"><ele>1039.0</ele><time>2026-05-02T09:50:36.964Z</time></trkpt><trkpt lat="44.1401459" lon="10.2718956"><ele>1039.0</ele><time>2026-05-02T09:50:39.962Z</time></trkpt><trkpt lat="44.1400801" lon="10.2719055"><ele>1039.0</ele><time>2026-05-02T09:50:41.964Z</time></trkpt><trkpt lat="44.139986" lon="10.2718979"><ele>1039.0</ele><time>2026-05-02T09:50:45.964Z</time></trkpt><trkpt lat="44.1399223" lon="10.2719313"><ele>1039.0</ele><time>2026-05-02T09:50:47.964Z</time></trkpt><trkpt lat="44.1398594" lon="10.2719839"><ele>1039.0</ele><time>2026-05-02T09:50:49.964Z</time></trkpt><trkpt lat="44.1397871" lon="10.272062"><ele>1039.0</ele><time>2026-05-02T09:50:51.964Z</time></trkpt><trkpt lat="44.1397384" lon="10.2721315"><ele>1037.5</ele><time>2026-05-02T09:50:53.964Z</time></trkpt><trkpt lat="44.1396694" lon="10.2721982"><ele>1036.0</ele><time>2026-05-02T09:50:55.959Z</time></trkpt><trkpt lat="44.13962" lon="10.2722762"><ele>1034.5</ele><time>2026-05-02T09:50:57.964Z</time></trkpt><trkpt lat="44.1395427" lon="10.2722552"><ele>1033.0</ele><time>2026-05-02T09:50:59.964Z</time></trkpt><trkpt lat="44.1394783" lon="10.2722356"><ele>1031.5</ele><time>2026-05-02T09:51:02.963Z</time></trkpt><trkpt lat="44.1393799" lon="10.2722392"><ele>1030.0</ele><time>2026-05-02T09:51:05.964Z</time></trkpt><trkpt lat="44.1392993" lon="10.2722242"><ele>1030.0</ele><time>2026-05-02T09:51:06.963Z</time></trkpt><trkpt lat="44.1392284" lon="10.2722527"><ele>1030.0</ele><time>2026-05-02T09:51:08.964Z</time></trkpt><trkpt lat="44.1391575" lon="10.272264"><ele>1030.0</ele><time>2026-05-02T09:51:10.963Z</time></trkpt><trkpt lat="44.1390828" lon="10.272304"><ele>1030.0</ele><time>2026-05-02T09:51:13.964Z</time></trkpt><trkpt lat="44.1389826" lon="10.2723686"><ele>1030.0</ele><time>2026-05-02T09:51:16.963Z</time></trkpt><trkpt lat="44.1388642" lon="10.2723793"><ele>1029.0</ele><time>2026-05-02T09:51:18.963Z</time></trkpt><trkpt lat="44.1387647" lon="10.2724013"><ele>1028.0</ele><time>2026-05-02T09:51:20.963Z</time></trkpt><trkpt lat="44.138676" lon="10.2724197"><ele>1027.0</ele><time>2026-05-02T09:51:22.964Z</time></trkpt><trkpt lat="44.1386099" lon="10.2724662"><ele>1026.0</ele><time>2026-05-02T09:51:24.964Z</time></trkpt><trkpt lat="44.1385457" lon="10.2725463"><ele>1025.0</ele><time>2026-05-02T09:51:26.963Z</time></trkpt><trkpt lat="44.1384788" lon="10.2726248"><ele>1024.0</ele><time>2026-05-02T09:51:28.964Z</time></trkpt><trkpt lat="44.1384075" lon="10.2727011"><ele>1023.9999999999999</ele><time>2026-05-02T09:51:31.964Z</time></trkpt><trkpt lat="44.138356" lon="10.2727614"><ele>1024.0</ele><time>2026-05-02T09:51:32.963Z</time></trkpt><trkpt lat="44.1382982" lon="10.272827"><ele>1024.0</ele><time>2026-05-02T09:51:33.964Z</time></trkpt><trkpt lat="44.1382063" lon="10.2729074"><ele>1024.0</ele><time>2026-05-02T09:51:34.963Z</time></trkpt><trkpt lat="44.1381495" lon="10.2729602"><ele>1023.9999999999999</ele><time>2026-05-02T09:51:37.964Z</time></trkpt><trkpt lat="44.1380899" lon="10.2730648"><ele>1024.0</ele><time>2026-05-02T09:51:39.964Z</time></trkpt><trkpt lat="44.1380502" lon="10.2731548"><ele>1020.4000000000001</ele><time>2026-05-02T09:51:41.964Z</time></trkpt><trkpt lat="44.1379535" lon="10.2733069"><ele>1016.8000000000001</ele><time>2026-05-02T09:51:45.964Z</time></trkpt><trkpt lat="44.1378568" lon="10.2733725"><ele>1013.1999999999999</ele><time>2026-05-02T09:51:46.964Z</time></trkpt><trkpt lat="44.1378053" lon="10.273429"><ele>1009.5999999999999</ele><time>2026-05-02T09:51:48.963Z</time></trkpt><trkpt lat="44.1377918" lon="10.2735282"><ele>1006.0</ele><time>2026-05-02T09:51:50.964Z</time></trkpt><trkpt lat="44.1377668" lon="10.2736214"><ele>1006.0</ele><time>2026-05-02T09:51:53.964Z</time></trkpt><trkpt lat="44.1377463" lon="10.2737113"><ele>1006.0000000000001</ele><time>2026-05-02T09:51:57.964Z</time></trkpt><trkpt lat="44.1377769" lon="10.2738316"><ele>1006.0</ele><time>2026-05-02T09:52:01.963Z</time></trkpt><trkpt lat="44.1378111" lon="10.2739226"><ele>1006.0</ele><time>2026-05-02T09:52:03.963Z</time></trkpt><trkpt lat="44.1378268" lon="10.2740199"><ele>1006.0000000000001</ele><time>2026-05-02T09:52:05.964Z</time></trkpt><trkpt lat="44.1378059" lon="10.2741084"><ele>1006.0</ele><time>2026-05-02T09:52:07.964Z</time></trkpt><trkpt lat="44.1377684" lon="10.2741921"><ele>1006.0</ele><time>2026-05-02T09:52:09.963Z</time></trkpt><trkpt lat="44.1377332" lon="10.2742764"><ele>1007.1428571428572</ele><time>2026-05-02T09:52:11.964Z</time></trkpt><trkpt lat="44.1376967" lon="10.2743668"><ele>1008.2857142857144</ele><time>2026-05-02T09:52:13.964Z</time></trkpt><trkpt lat="44.1376543" lon="10.2744536"><ele>1009.4285714285714</ele><time>2026-05-02T09:52:15.964Z</time></trkpt><trkpt lat="44.1375999" lon="10.2745099"><ele>1010.5714285714287</ele><time>2026-05-02T09:52:17.963Z</time></trkpt><trkpt lat="44.1375277" lon="10.2745522"><ele>1011.7142857142858</ele><time>2026-05-02T09:52:19.964Z</time></trkpt><trkpt lat="44.1374668" lon="10.2745901"><ele>1012.8571428571429</ele><time>2026-05-02T09:52:21.964Z</time></trkpt><trkpt lat="44.1374139" lon="10.2746407"><ele>1014.0</ele><time>2026-05-02T09:52:30.963Z</time></trkpt><trkpt lat="44.1373507" lon="10.2746635"><ele>1012.5</ele><time>2026-05-02T09:52:35.963Z</time></trkpt><trkpt lat="44.1372871" lon="10.2746966"><ele>1011.0</ele><time>2026-05-02T09:52:38.964Z</time></trkpt><trkpt lat="44.1372305" lon="10.2747552"><ele>1009.5</ele><time>2026-05-02T09:52:41.963Z</time></trkpt><trkpt lat="44.1372056" lon="10.2748407"><ele>1008.0</ele><time>2026-05-02T09:52:44.963Z</time></trkpt><trkpt lat="44.1371965" lon="10.2749675"><ele>1006.5</ele><time>2026-05-02T09:52:47.964Z</time></trkpt><trkpt lat="44.1371563" lon="10.2750415"><ele>1005.0</ele><time>2026-05-02T09:52:49.964Z</time></trkpt><trkpt lat="44.1370377" lon="10.2751042"><ele>1005.0</ele><time>2026-05-02T09:52:51.964Z</time></trkpt><trkpt lat="44.1369514" lon="10.2750698"><ele>1005.0</ele><time>2026-05-02T09:52:54.964Z</time></trkpt><trkpt lat="44.1368905" lon="10.2750415"><ele>1005.0</ele><time>2026-05-02T09:52:57.963Z</time></trkpt><trkpt lat="44.1368386" lon="10.2749843"><ele>1005.0</ele><time>2026-05-02T09:53:00.964Z</time></trkpt><trkpt lat="44.1367803" lon="10.2749503"><ele>1005.0</ele><time>2026-05-02T09:53:01.963Z</time></trkpt><trkpt lat="44.136702" lon="10.274942"><ele>1005.0</ele><time>2026-05-02T09:53:03.964Z</time></trkpt><trkpt lat="44.1366129" lon="10.2749715"><ele>1005.0</ele><time>2026-05-02T09:53:05.964Z</time></trkpt><trkpt lat="44.1365667" lon="10.275039"><ele>1005.0</ele><time>2026-05-02T09:53:07.964Z</time></trkpt><trkpt lat="44.1365428" lon="10.275152"><ele>1005.0</ele><time>2026-05-02T09:53:10.964Z</time></trkpt><trkpt lat="44.1365187" lon="10.2753012"><ele>1005.0</ele><time>2026-05-02T09:53:12.963Z</time></trkpt><trkpt lat="44.1364721" lon="10.2754168"><ele>1005.0</ele><time>2026-05-02T09:53:14.964Z</time></trkpt><trkpt lat="44.136394" lon="10.2754637"><ele>1005.0</ele><time>2026-05-02T09:53:16.962Z</time></trkpt><trkpt lat="44.1362762" lon="10.2754154"><ele>1003.1666666666666</ele><time>2026-05-02T09:53:18.964Z</time></trkpt><trkpt lat="44.1362548" lon="10.2753075"><ele>1001.3333333333333</ele><time>2026-05-02T09:53:20.964Z</time></trkpt><trkpt lat="44.1361847" lon="10.2752266"><ele>999.5</ele><time>2026-05-02T09:53:23.964Z</time></trkpt><trkpt lat="44.1361093" lon="10.2752297"><ele>997.6666666666666</ele><time>2026-05-02T09:53:25.963Z</time></trkpt><trkpt lat="44.1360389" lon="10.2753242"><ele>995.8333333333333</ele><time>2026-05-02T09:53:28.964Z</time></trkpt><trkpt lat="44.1359723" lon="10.2754281"><ele>994.0</ele><time>2026-05-02T09:53:30.963Z</time></trkpt><trkpt lat="44.1358878" lon="10.2753691"><ele>994.0</ele><time>2026-05-02T09:53:33.964Z</time></trkpt><trkpt lat="44.1357865" lon="10.2753489"><ele>994.0000000000001</ele><time>2026-05-02T09:53:35.964Z</time></trkpt><trkpt lat="44.1357158" lon="10.2753774"><ele>994.0000000000001</ele><time>2026-05-02T09:53:37.964Z</time></trkpt><trkpt lat="44.1356133" lon="10.2754527"><ele>994.0</ele><time>2026-05-02T09:53:39.964Z</time></trkpt><trkpt lat="44.1355567" lon="10.2755443"><ele>994.0</ele><time>2026-05-02T09:53:41.964Z</time></trkpt><trkpt lat="44.1355554" lon="10.2756874"><ele>995.8000000000001</ele><time>2026-05-02T09:53:43.963Z</time></trkpt><trkpt lat="44.1355102" lon="10.2757896"><ele>997.6000000000001</ele><time>2026-05-02T09:53:45.964Z</time></trkpt><trkpt lat="44.1354187" lon="10.2758694"><ele>999.4</ele><time>2026-05-02T09:53:47.963Z</time></trkpt><trkpt lat="44.1353908" lon="10.2759575"><ele>1001.2</ele><time>2026-05-02T09:53:49.963Z</time></trkpt><trkpt lat="44.1353481" lon="10.2760505"><ele>1003.0</ele><time>2026-05-02T09:53:51.964Z</time></trkpt><trkpt lat="44.1352497" lon="10.276329"><ele>1003.0</ele><time>2026-05-02T09:53:52.963Z</time></trkpt><trkpt lat="44.1352853" lon="10.2764394"><ele>1003.0</ele><time>2026-05-02T09:53:53.964Z</time></trkpt><trkpt lat="44.135211" lon="10.2763224"><ele>1003.0</ele><time>2026-05-02T09:53:57.964Z</time></trkpt><trkpt lat="44.1351528" lon="10.2762299"><ele>1003.0</ele><time>2026-05-02T09:54:00.96Z</time></trkpt><trkpt lat="44.1350902" lon="10.2761239"><ele>1003.0</ele><time>2026-05-02T09:54:02.963Z</time></trkpt><trkpt lat="44.1349989" lon="10.275999"><ele>1005.5</ele><time>2026-05-02T09:54:04.964Z</time></trkpt><trkpt lat="44.1348066" lon="10.2757698"><ele>1008.0</ele><time>2026-05-02T09:54:05.964Z</time></trkpt><trkpt lat="44.1346357" lon="10.2754854"><ele>1006.0</ele><time>2026-05-02T09:54:06.959Z</time></trkpt><trkpt lat="44.1345659" lon="10.2754099"><ele>1004.0</ele><time>2026-05-02T09:54:07.964Z</time></trkpt><trkpt lat="44.1344895" lon="10.2753273"><ele>1002.0</ele><time>2026-05-02T09:54:08.963Z</time></trkpt><trkpt lat="44.1344139" lon="10.2752435"><ele>1000.0</ele><time>2026-05-02T09:54:09.964Z</time></trkpt><trkpt lat="44.1343453" lon="10.2751582"><ele>998.0</ele><time>2026-05-02T09:54:10.962Z</time></trkpt><trkpt lat="44.1342885" lon="10.2750835"><ele>998.0000000000001</ele><time>2026-05-02T09:54:11.964Z</time></trkpt><trkpt lat="44.1342339" lon="10.2750205"><ele>998.0</ele><time>2026-05-02T09:54:12.963Z</time></trkpt><trkpt lat="44.1341709" lon="10.274939"><ele>998.0000000000001</ele><time>2026-05-02T09:54:13.963Z</time></trkpt><trkpt lat="44.1341125" lon="10.2748779"><ele>998.0000000000001</ele><time>2026-05-02T09:54:14.964Z</time></trkpt><trkpt lat="44.134054" lon="10.2748278"><ele>998.0</ele><time>2026-05-02T09:54:15.964Z</time></trkpt><trkpt lat="44.1339899" lon="10.2747771"><ele>998.0000000000001</ele><time>2026-05-02T09:54:16.964Z</time></trkpt><trkpt lat="44.1339226" lon="10.2747613"><ele>998.0000000000001</ele><time>2026-05-02T09:54:17.961Z</time></trkpt><trkpt lat="44.1338312" lon="10.2747354"><ele>997.0</ele><time>2026-05-02T09:54:18.964Z</time></trkpt><trkpt lat="44.1337419" lon="10.2746995"><ele>996.0</ele><time>2026-05-02T09:54:19.964Z</time></trkpt><trkpt lat="44.1336402" lon="10.2746597"><ele>995.0</ele><time>2026-05-02T09:54:20.963Z</time></trkpt><trkpt lat="44.1335591" lon="10.2746056"><ele>994.0</ele><time>2026-05-02T09:54:21.964Z</time></trkpt><trkpt lat="44.1334663" lon="10.2745498"><ele>993.0</ele><time>2026-05-02T09:54:22.964Z</time></trkpt><trkpt lat="44.1333877" lon="10.2744763"><ele>993.0</ele><time>2026-05-02T09:54:23.963Z</time></trkpt><trkpt lat="44.1332904" lon="10.2744158"><ele>993.0</ele><time>2026-05-02T09:54:24.963Z</time></trkpt><trkpt lat="44.1332139" lon="10.2743324"><ele>993.0</ele><time>2026-05-02T09:54:25.961Z</time></trkpt><trkpt lat="44.1331264" lon="10.2742715"><ele>993.0</ele><time>2026-05-02T09:54:26.964Z</time></trkpt><trkpt lat="44.1330405" lon="10.2742097"><ele>993.0</ele><time>2026-05-02T09:54:27.963Z</time></trkpt><trkpt lat="44.1329786" lon="10.2741452"><ele>994.0</ele><time>2026-05-02T09:54:28.964Z</time></trkpt><trkpt lat="44.1329162" lon="10.2740707"><ele>995.0</ele><time>2026-05-02T09:54:29.964Z</time></trkpt><trkpt lat="44.1328546" lon="10.2739926"><ele>996.0</ele><time>2026-05-02T09:54:30.961Z</time></trkpt><trkpt lat="44.1328053" lon="10.2739107"><ele>997.0</ele><time>2026-05-02T09:54:31.963Z</time></trkpt><trkpt lat="44.1327483" lon="10.2738337"><ele>998.0</ele><time>2026-05-02T09:54:32.964Z</time></trkpt><trkpt lat="44.1327088" lon="10.2737548"><ele>999.0</ele><time>2026-05-02T09:54:33.963Z</time></trkpt><trkpt lat="44.1326684" lon="10.2736685"><ele>999.0</ele><time>2026-05-02T09:54:34.962Z</time></trkpt><trkpt lat="44.1326202" lon="10.2735783"><ele>999.0</ele><time>2026-05-02T09:54:35.963Z</time></trkpt><trkpt lat="44.1326173" lon="10.2734603"><ele>999.0</ele><time>2026-05-02T09:54:36.963Z</time></trkpt><trkpt lat="44.1325762" lon="10.2733667"><ele>999.0</ele><time>2026-05-02T09:54:37.964Z</time></trkpt><trkpt lat="44.1325475" lon="10.273266"><ele>999.0</ele><time>2026-05-02T09:54:38.964Z</time></trkpt><trkpt lat="44.1325191" lon="10.2731702"><ele>999.0</ele><time>2026-05-02T09:54:39.963Z</time></trkpt><trkpt lat="44.1325016" lon="10.2730829"><ele>999.0</ele><time>2026-05-02T09:54:40.963Z</time></trkpt><trkpt lat="44.1324416" lon="10.2729369"><ele>999.0</ele><time>2026-05-02T09:54:42.964Z</time></trkpt><trkpt lat="44.1323835" lon="10.2728704"><ele>999.0</ele><time>2026-05-02T09:54:43.963Z</time></trkpt><trkpt lat="44.1323285" lon="10.2728026"><ele>999.0</ele><time>2026-05-02T09:54:44.963Z</time></trkpt><trkpt lat="44.1322802" lon="10.2727197"><ele>999.0</ele><time>2026-05-02T09:54:45.96Z</time></trkpt><trkpt lat="44.1322265" lon="10.2726277"><ele>999.0</ele><time>2026-05-02T09:54:46.964Z</time></trkpt><trkpt lat="44.1321598" lon="10.2725274"><ele>999.0</ele><time>2026-05-02T09:54:47.964Z</time></trkpt><trkpt lat="44.1321255" lon="10.272443"><ele>999.0</ele><time>2026-05-02T09:54:48.963Z</time></trkpt><trkpt lat="44.1320758" lon="10.2723703"><ele>999.0</ele><time>2026-05-02T09:54:49.964Z</time></trkpt><trkpt lat="44.1320333" lon="10.2722812"><ele>999.0</ele><time>2026-05-02T09:54:50.961Z</time></trkpt><trkpt lat="44.1319885" lon="10.2722123"><ele>999.0</ele><time>2026-05-02T09:54:51.964Z</time></trkpt><trkpt lat="44.1319209" lon="10.2721506"><ele>999.0</ele><time>2026-05-02T09:54:52.963Z</time></trkpt><trkpt lat="44.1318558" lon="10.2720769"><ele>997.1666666666666</ele><time>2026-05-02T09:54:53.963Z</time></trkpt><trkpt lat="44.1317895" lon="10.272015"><ele>995.3333333333333</ele><time>2026-05-02T09:54:54.964Z</time></trkpt><trkpt lat="44.1317025" lon="10.2719674"><ele>993.5</ele><time>2026-05-02T09:54:55.963Z</time></trkpt><trkpt lat="44.1316141" lon="10.2719228"><ele>991.6666666666666</ele><time>2026-05-02T09:54:56.962Z</time></trkpt><trkpt lat="44.1315331" lon="10.2718753"><ele>989.8333333333333</ele><time>2026-05-02T09:54:57.963Z</time></trkpt><trkpt lat="44.1314466" lon="10.2718469"><ele>988.0</ele><time>2026-05-02T09:54:58.964Z</time></trkpt><trkpt lat="44.1313608" lon="10.2718377"><ele>987.9999999999999</ele><time>2026-05-02T09:54:59.963Z</time></trkpt><trkpt lat="44.1312825" lon="10.2718345"><ele>988.0</ele><time>2026-05-02T09:55:00.964Z</time></trkpt><trkpt lat="44.1312023" lon="10.2718417"><ele>988.0</ele><time>2026-05-02T09:55:01.964Z</time></trkpt><trkpt lat="44.1311257" lon="10.2718681"><ele>988.0</ele><time>2026-05-02T09:55:02.963Z</time></trkpt><trkpt lat="44.1310437" lon="10.2719215"><ele>987.9999999999999</ele><time>2026-05-02T09:55:03.964Z</time></trkpt><trkpt lat="44.1309588" lon="10.2719853"><ele>988.0</ele><time>2026-05-02T09:55:04.964Z</time></trkpt><trkpt lat="44.1308861" lon="10.27205"><ele>988.0</ele><time>2026-05-02T09:55:05.964Z</time></trkpt><trkpt lat="44.1308179" lon="10.272103"><ele>988.0</ele><time>2026-05-02T09:55:06.963Z</time></trkpt><trkpt lat="44.1307528" lon="10.2721321"><ele>988.0</ele><time>2026-05-02T09:55:07.964Z</time></trkpt><trkpt lat="44.1306803" lon="10.272139"><ele>988.0</ele><time>2026-05-02T09:55:08.963Z</time></trkpt><trkpt lat="44.1306112" lon="10.2721082"><ele>988.0</ele><time>2026-05-02T09:55:09.963Z</time></trkpt><trkpt lat="44.1305315" lon="10.2720787"><ele>988.0</ele><time>2026-05-02T09:55:10.962Z</time></trkpt><trkpt lat="44.1304601" lon="10.2720861"><ele>988.0</ele><time>2026-05-02T09:55:11.962Z</time></trkpt><trkpt lat="44.1303956" lon="10.2720959"><ele>988.1666666666666</ele><time>2026-05-02T09:55:12.963Z</time></trkpt><trkpt lat="44.1303277" lon="10.2721307"><ele>988.3333333333333</ele><time>2026-05-02T09:55:13.963Z</time></trkpt><trkpt lat="44.1302602" lon="10.2721733"><ele>988.5</ele><time>2026-05-02T09:55:14.963Z</time></trkpt><trkpt lat="44.1301874" lon="10.2722433"><ele>988.6666666666667</ele><time>2026-05-02T09:55:15.964Z</time></trkpt><trkpt lat="44.1301168" lon="10.2723251"><ele>988.8333333333334</ele><time>2026-05-02T09:55:16.964Z</time></trkpt><trkpt lat="44.1300432" lon="10.2723919"><ele>989.0</ele><time>2026-05-02T09:55:17.964Z</time></trkpt><trkpt lat="44.1299645" lon="10.2724603"><ele>994.4000000000001</ele><time>2026-05-02T09:55:18.958Z</time></trkpt><trkpt lat="44.1298897" lon="10.2724851"><ele>999.8000000000001</ele><time>2026-05-02T09:55:19.964Z</time></trkpt><trkpt lat="44.1298204" lon="10.2724882"><ele>1005.1999999999999</ele><time>2026-05-02T09:55:20.963Z</time></trkpt><trkpt lat="44.1296868" lon="10.2724335"><ele>1010.5999999999999</ele><time>2026-05-02T09:55:22.964Z</time></trkpt><trkpt lat="44.1295946" lon="10.2723916"><ele>1016.0</ele><time>2026-05-02T09:55:23.964Z</time></trkpt><trkpt lat="44.1295042" lon="10.2723563"><ele>1016.0000000000001</ele><time>2026-05-02T09:55:24.963Z</time></trkpt><trkpt lat="44.1294175" lon="10.2723266"><ele>1016.0</ele><time>2026-05-02T09:55:25.964Z</time></trkpt><trkpt lat="44.129338" lon="10.2722702"><ele>1016.0</ele><time>2026-05-02T09:55:26.964Z</time></trkpt><trkpt lat="44.129268" lon="10.2722304"><ele>1016.0</ele><time>2026-05-02T09:55:27.963Z</time></trkpt><trkpt lat="44.1292035" lon="10.2721761"><ele>1016.0000000000001</ele><time>2026-05-02T09:55:28.964Z</time></trkpt><trkpt lat="44.1291735" lon="10.2720604"><ele>1016.0</ele><time>2026-05-02T09:55:30.964Z</time></trkpt><trkpt lat="44.1291668" lon="10.2718629"><ele>1014.1666666666667</ele><time>2026-05-02T09:55:32.963Z</time></trkpt><trkpt lat="44.1292055" lon="10.2717422"><ele>1012.3333333333334</ele><time>2026-05-02T09:55:33.964Z</time></trkpt><trkpt lat="44.1292243" lon="10.2716132"><ele>1010.5</ele><time>2026-05-02T09:55:34.964Z</time></trkpt><trkpt lat="44.1291934" lon="10.2715042"><ele>1008.6666666666667</ele><time>2026-05-02T09:55:35.964Z</time></trkpt><trkpt lat="44.1291665" lon="10.271406"><ele>1006.8333333333334</ele><time>2026-05-02T09:55:36.964Z</time></trkpt><trkpt lat="44.1291305" lon="10.271287"><ele>1005.0</ele><time>2026-05-02T09:55:37.963Z</time></trkpt><trkpt lat="44.1291058" lon="10.2711611"><ele>1003.6666666666666</ele><time>2026-05-02T09:55:38.962Z</time></trkpt><trkpt lat="44.1290743" lon="10.2710348"><ele>1002.3333333333333</ele><time>2026-05-02T09:55:39.964Z</time></trkpt><trkpt lat="44.1290401" lon="10.2709213"><ele>1001.0</ele><time>2026-05-02T09:55:40.96Z</time></trkpt><trkpt lat="44.1289986" lon="10.2708025"><ele>999.6666666666666</ele><time>2026-05-02T09:55:41.964Z</time></trkpt><trkpt lat="44.1289563" lon="10.2707094"><ele>998.3333333333333</ele><time>2026-05-02T09:55:42.963Z</time></trkpt><trkpt lat="44.1289142" lon="10.2706253"><ele>997.0</ele><time>2026-05-02T09:55:43.963Z</time></trkpt><trkpt lat="44.1288752" lon="10.2704766"><ele>1000.2</ele><time>2026-05-02T09:55:45.964Z</time></trkpt><trkpt lat="44.1288673" lon="10.2703146"><ele>1003.4000000000001</ele><time>2026-05-02T09:55:47.964Z</time></trkpt><trkpt lat="44.1288871" lon="10.2701381"><ele>1006.5999999999999</ele><time>2026-05-02T09:55:49.963Z</time></trkpt><trkpt lat="44.1288866" lon="10.2700429"><ele>1009.8</ele><time>2026-05-02T09:55:50.958Z</time></trkpt><trkpt lat="44.1288757" lon="10.269942"><ele>1013.0</ele><time>2026-05-02T09:55:51.961Z</time></trkpt><trkpt lat="44.1288526" lon="10.2698299"><ele>1012.0000000000001</ele><time>2026-05-02T09:55:52.964Z</time></trkpt><trkpt lat="44.1288402" lon="10.2697206"><ele>1011.0</ele><time>2026-05-02T09:55:53.96Z</time></trkpt><trkpt lat="44.1288338" lon="10.2696262"><ele>1010.0</ele><time>2026-05-02T09:55:54.963Z</time></trkpt><trkpt lat="44.1288373" lon="10.2695173"><ele>1009.0</ele><time>2026-05-02T09:55:55.964Z</time></trkpt><trkpt lat="44.1288623" lon="10.2694058"><ele>1008.0000000000001</ele><time>2026-05-02T09:55:56.964Z</time></trkpt><trkpt lat="44.1288998" lon="10.2692882"><ele>1007.0</ele><time>2026-05-02T09:55:57.964Z</time></trkpt><trkpt lat="44.128946" lon="10.2691743"><ele>1007.0000000000001</ele><time>2026-05-02T09:55:58.964Z</time></trkpt><trkpt lat="44.1290016" lon="10.2690709"><ele>1007.0</ele><time>2026-05-02T09:55:59.964Z</time></trkpt><trkpt lat="44.129065" lon="10.2689731"><ele>1007.0</ele><time>2026-05-02T09:56:00.962Z</time></trkpt><trkpt lat="44.1291154" lon="10.2688938"><ele>1007.0</ele><time>2026-05-02T09:56:01.964Z</time></trkpt><trkpt lat="44.1291556" lon="10.2688101"><ele>1007.0000000000001</ele><time>2026-05-02T09:56:02.962Z</time></trkpt><trkpt lat="44.129191" lon="10.2687374"><ele>1007.0</ele><time>2026-05-02T09:56:03.963Z</time></trkpt><trkpt lat="44.1292232" lon="10.2685752"><ele>1006.3333333333334</ele><time>2026-05-02T09:56:05.957Z</time></trkpt><trkpt lat="44.1292566" lon="10.2684294"><ele>1005.6666666666667</ele><time>2026-05-02T09:56:07.962Z</time></trkpt><trkpt lat="44.1293189" lon="10.2682742"><ele>1005.0</ele><time>2026-05-02T09:56:09.964Z</time></trkpt><trkpt lat="44.1293572" lon="10.2681978"><ele>1004.3333333333333</ele><time>2026-05-02T09:56:10.963Z</time></trkpt><trkpt lat="44.1293773" lon="10.2681079"><ele>1003.6666666666666</ele><time>2026-05-02T09:56:11.964Z</time></trkpt><trkpt lat="44.1294024" lon="10.2680109"><ele>1003.0</ele><time>2026-05-02T09:56:12.964Z</time></trkpt><trkpt lat="44.1293712" lon="10.2678859"><ele>1003.0</ele><time>2026-05-02T09:56:13.964Z</time></trkpt><trkpt lat="44.1293531" lon="10.2677466"><ele>1003.0</ele><time>2026-05-02T09:56:14.964Z</time></trkpt><trkpt lat="44.1293454" lon="10.2676022"><ele>1003.0</ele><time>2026-05-02T09:56:15.964Z</time></trkpt><trkpt lat="44.1293508" lon="10.2674631"><ele>1003.0</ele><time>2026-05-02T09:56:16.964Z</time></trkpt><trkpt lat="44.1293457" lon="10.2673347"><ele>1003.0</ele><time>2026-05-02T09:56:17.964Z</time></trkpt><trkpt lat="44.1293357" lon="10.2672173"><ele>1002.9999999999999</ele><time>2026-05-02T09:56:18.963Z</time></trkpt><trkpt lat="44.1293034" lon="10.2671089"><ele>1003.0</ele><time>2026-05-02T09:56:19.963Z</time></trkpt><trkpt lat="44.1292649" lon="10.2669888"><ele>1003.0</ele><time>2026-05-02T09:56:20.964Z</time></trkpt><trkpt lat="44.1292234" lon="10.2668941"><ele>1003.0</ele><time>2026-05-02T09:56:21.963Z</time></trkpt><trkpt lat="44.1291862" lon="10.2668122"><ele>1002.9999999999999</ele><time>2026-05-02T09:56:22.964Z</time></trkpt><trkpt lat="44.1291217" lon="10.266673"><ele>1003.0</ele><time>2026-05-02T09:56:24.964Z</time></trkpt><trkpt lat="44.1291186" lon="10.2665358"><ele>1003.7142857142857</ele><time>2026-05-02T09:56:25.963Z</time></trkpt><trkpt lat="44.1291242" lon="10.2664289"><ele>1004.4285714285713</ele><time>2026-05-02T09:56:26.964Z</time></trkpt><trkpt lat="44.1291346" lon="10.26633"><ele>1005.1428571428571</ele><time>2026-05-02T09:56:27.961Z</time></trkpt><trkpt lat="44.1291448" lon="10.2662256"><ele>1005.8571428571429</ele><time>2026-05-02T09:56:28.964Z</time></trkpt><trkpt lat="44.1291625" lon="10.2661311"><ele>1006.5714285714286</ele><time>2026-05-02T09:56:29.964Z</time></trkpt><trkpt lat="44.1291755" lon="10.266039"><ele>1007.2857142857142</ele><time>2026-05-02T09:56:30.961Z</time></trkpt><trkpt lat="44.1291869" lon="10.2659415"><ele>1008.0</ele><time>2026-05-02T09:56:31.962Z</time></trkpt><trkpt lat="44.1291956" lon="10.2658424"><ele>1008.0</ele><time>2026-05-02T09:56:32.964Z</time></trkpt><trkpt lat="44.1292176" lon="10.2656509"><ele>1008.0</ele><time>2026-05-02T09:56:34.963Z</time></trkpt><trkpt lat="44.1292376" lon="10.2654748"><ele>1008.0</ele><time>2026-05-02T09:56:36.964Z</time></trkpt><trkpt lat="44.1292421" lon="10.265385"><ele>1008.0</ele><time>2026-05-02T09:56:37.964Z</time></trkpt><trkpt lat="44.1292359" lon="10.2652812"><ele>1008.0</ele><time>2026-05-02T09:56:38.96Z</time></trkpt><trkpt lat="44.1292412" lon="10.2651856"><ele>1007.2</ele><time>2026-05-02T09:56:39.963Z</time></trkpt><trkpt lat="44.1292401" lon="10.2650874"><ele>1006.4</ele><time>2026-05-02T09:56:40.963Z</time></trkpt><trkpt lat="44.1292427" lon="10.2649964"><ele>1005.6000000000001</ele><time>2026-05-02T09:56:41.964Z</time></trkpt><trkpt lat="44.129265" lon="10.2648403"><ele>1004.8000000000001</ele><time>2026-05-02T09:56:43.964Z</time></trkpt><trkpt lat="44.129317" lon="10.2647077"><ele>1004.0</ele><time>2026-05-02T09:56:45.963Z</time></trkpt><trkpt lat="44.1293734" lon="10.2645746"><ele>1001.6666666666667</ele><time>2026-05-02T09:56:47.963Z</time></trkpt><trkpt lat="44.1293865" lon="10.2644884"><ele>999.3333333333334</ele><time>2026-05-02T09:56:48.962Z</time></trkpt><trkpt lat="44.1294039" lon="10.2643044"><ele>997.0</ele><time>2026-05-02T09:56:50.96Z</time></trkpt><trkpt lat="44.1294193" lon="10.2642017"><ele>994.6666666666667</ele><time>2026-05-02T09:56:51.964Z</time></trkpt><trkpt lat="44.1294479" lon="10.2641065"><ele>992.3333333333334</ele><time>2026-05-02T09:56:52.964Z</time></trkpt><trkpt lat="44.1294676" lon="10.2640183"><ele>990.0</ele><time>2026-05-02T09:56:53.964Z</time></trkpt><trkpt lat="44.1294766" lon="10.2639245"><ele>988.5714285714284</ele><time>2026-05-02T09:56:54.963Z</time></trkpt><trkpt lat="44.1294873" lon="10.2638178"><ele>987.1428571428571</ele><time>2026-05-02T09:56:55.964Z</time></trkpt><trkpt lat="44.1295074" lon="10.2637246"><ele>985.7142857142857</ele><time>2026-05-02T09:56:56.964Z</time></trkpt><trkpt lat="44.129533" lon="10.2636416"><ele>984.2857142857142</ele><time>2026-05-02T09:56:57.963Z</time></trkpt><trkpt lat="44.1295727" lon="10.2635551"><ele>982.8571428571429</ele><time>2026-05-02T09:56:58.96Z</time></trkpt><trkpt lat="44.129601" lon="10.2634681"><ele>981.4285714285714</ele><time>2026-05-02T09:56:59.963Z</time></trkpt><trkpt lat="44.1296322" lon="10.2633759"><ele>980.0</ele><time>2026-05-02T09:57:00.963Z</time></trkpt><trkpt lat="44.1296747" lon="10.2632967"><ele>980.0</ele><time>2026-05-02T09:57:01.964Z</time></trkpt><trkpt lat="44.1297118" lon="10.2632166"><ele>980.0</ele><time>2026-05-02T09:57:02.964Z</time></trkpt><trkpt lat="44.1297577" lon="10.2631338"><ele>980.0</ele><time>2026-05-02T09:57:03.963Z</time></trkpt><trkpt lat="44.1298048" lon="10.2629476"><ele>980.0</ele><time>2026-05-02T09:57:05.964Z</time></trkpt><trkpt lat="44.1298394" lon="10.2628367"><ele>980.0</ele><time>2026-05-02T09:57:06.962Z</time></trkpt><trkpt lat="44.1298581" lon="10.2627291"><ele>983.3333333333334</ele><time>2026-05-02T09:57:07.964Z</time></trkpt><trkpt lat="44.1298945" lon="10.2626508"><ele>986.6666666666667</ele><time>2026-05-02T09:57:08.961Z</time></trkpt><trkpt lat="44.1299203" lon="10.2625562"><ele>990.0</ele><time>2026-05-02T09:57:09.964Z</time></trkpt><trkpt lat="44.1299432" lon="10.2624546"><ele>993.3333333333333</ele><time>2026-05-02T09:57:10.962Z</time></trkpt><trkpt lat="44.1299495" lon="10.2622649"><ele>996.6666666666666</ele><time>2026-05-02T09:57:12.963Z</time></trkpt><trkpt lat="44.1299342" lon="10.2621677"><ele>1000.0</ele><time>2026-05-02T09:57:13.963Z</time></trkpt><trkpt lat="44.1299044" lon="10.2620655"><ele>994.8571428571429</ele><time>2026-05-02T09:57:14.964Z</time></trkpt><trkpt lat="44.1298544" lon="10.2619475"><ele>989.7142857142858</ele><time>2026-05-02T09:57:15.96Z</time></trkpt><trkpt lat="44.1298306" lon="10.2618503"><ele>984.5714285714287</ele><time>2026-05-02T09:57:16.964Z</time></trkpt><trkpt lat="44.1298024" lon="10.2617652"><ele>979.4285714285714</ele><time>2026-05-02T09:57:17.964Z</time></trkpt><trkpt lat="44.129786" lon="10.2616741"><ele>974.2857142857144</ele><time>2026-05-02T09:57:18.963Z</time></trkpt><trkpt lat="44.1297578" lon="10.2615955"><ele>969.1428571428572</ele><time>2026-05-02T09:57:19.963Z</time></trkpt><trkpt lat="44.129734" lon="10.2615001"><ele>964.0</ele><time>2026-05-02T09:57:20.959Z</time></trkpt><trkpt lat="44.1297156" lon="10.2613468"><ele>962.3333333333333</ele><time>2026-05-02T09:57:22.963Z</time></trkpt><trkpt lat="44.1297408" lon="10.2611817"><ele>960.6666666666666</ele><time>2026-05-02T09:57:24.964Z</time></trkpt><trkpt lat="44.1297701" lon="10.2610788"><ele>959.0</ele><time>2026-05-02T09:57:25.963Z</time></trkpt><trkpt lat="44.1297906" lon="10.2609695"><ele>957.3333333333333</ele><time>2026-05-02T09:57:26.962Z</time></trkpt><trkpt lat="44.1298142" lon="10.2608544"><ele>955.6666666666666</ele><time>2026-05-02T09:57:27.962Z</time></trkpt><trkpt lat="44.1298305" lon="10.2607588"><ele>954.0</ele><time>2026-05-02T09:57:28.963Z</time></trkpt><trkpt lat="44.1298482" lon="10.2606534"><ele>952.2</ele><time>2026-05-02T09:57:29.963Z</time></trkpt><trkpt lat="44.1298654" lon="10.2605674"><ele>950.4000000000001</ele><time>2026-05-02T09:57:30.958Z</time></trkpt><trkpt lat="44.1298882" lon="10.2604798"><ele>948.6</ele><time>2026-05-02T09:57:31.964Z</time></trkpt><trkpt lat="44.129916" lon="10.2603439"><ele>946.8</ele><time>2026-05-02T09:57:33.963Z</time></trkpt><trkpt lat="44.1299131" lon="10.2601956"><ele>945.0</ele><time>2026-05-02T09:57:35.962Z</time></trkpt><trkpt lat="44.1298968" lon="10.2600216"><ele>945.0</ele><time>2026-05-02T09:57:37.964Z</time></trkpt><trkpt lat="44.1298805" lon="10.2599307"><ele>945.0</ele><time>2026-05-02T09:57:38.964Z</time></trkpt><trkpt lat="44.1298694" lon="10.2598289"><ele>945.0</ele><time>2026-05-02T09:57:39.964Z</time></trkpt><trkpt lat="44.1298436" lon="10.2597433"><ele>945.0</ele><time>2026-05-02T09:57:40.961Z</time></trkpt><trkpt lat="44.129794" lon="10.2596598"><ele>945.0</ele><time>2026-05-02T09:57:41.964Z</time></trkpt><trkpt lat="44.1297629" lon="10.2595691"><ele>945.0</ele><time>2026-05-02T09:57:42.963Z</time></trkpt><trkpt lat="44.1297386" lon="10.259465"><ele>945.0</ele><time>2026-05-02T09:57:43.964Z</time></trkpt><trkpt lat="44.1297026" lon="10.2593643"><ele>947.8</ele><time>2026-05-02T09:57:44.964Z</time></trkpt><trkpt lat="44.1296821" lon="10.2592374"><ele>950.6</ele><time>2026-05-02T09:57:45.964Z</time></trkpt><trkpt lat="44.129655" lon="10.2591199"><ele>953.4000000000001</ele><time>2026-05-02T09:57:46.964Z</time></trkpt><trkpt lat="44.1295866" lon="10.2589581"><ele>956.2</ele><time>2026-05-02T09:57:48.96Z</time></trkpt><trkpt lat="44.1295266" lon="10.258859"><ele>959.0</ele><time>2026-05-02T09:57:49.962Z</time></trkpt><trkpt lat="44.1294597" lon="10.2587859"><ele>961.1428571428571</ele><time>2026-05-02T09:57:50.961Z</time></trkpt><trkpt lat="44.129383" lon="10.2587284"><ele>963.2857142857142</ele><time>2026-05-02T09:57:51.959Z</time></trkpt><trkpt lat="44.1293134" lon="10.2587023"><ele>965.4285714285714</ele><time>2026-05-02T09:57:52.964Z</time></trkpt><trkpt lat="44.1292484" lon="10.2586512"><ele>967.5714285714286</ele><time>2026-05-02T09:57:53.963Z</time></trkpt><trkpt lat="44.1291707" lon="10.2586342"><ele>969.7142857142857</ele><time>2026-05-02T09:57:54.962Z</time></trkpt><trkpt lat="44.1291068" lon="10.2586141"><ele>971.8571428571429</ele><time>2026-05-02T09:57:55.96Z</time></trkpt><trkpt lat="44.1290422" lon="10.2586345"><ele>974.0</ele><time>2026-05-02T09:57:56.964Z</time></trkpt><trkpt lat="44.1289188" lon="10.2586144"><ele>971.0</ele><time>2026-05-02T09:57:58.964Z</time></trkpt><trkpt lat="44.1288129" lon="10.2584726"><ele>968.0000000000001</ele><time>2026-05-02T09:58:00.964Z</time></trkpt><trkpt lat="44.1287554" lon="10.2583883"><ele>965.0000000000001</ele><time>2026-05-02T09:58:01.96Z</time></trkpt><trkpt lat="44.1286916" lon="10.2582968"><ele>962.0</ele><time>2026-05-02T09:58:02.96Z</time></trkpt><trkpt lat="44.1286281" lon="10.2581953"><ele>959.0</ele><time>2026-05-02T09:58:03.963Z</time></trkpt><trkpt lat="44.1285682" lon="10.2581061"><ele>959.0</ele><time>2026-05-02T09:58:04.963Z</time></trkpt><trkpt lat="44.1285139" lon="10.2580295"><ele>959.0000000000001</ele><time>2026-05-02T09:58:05.963Z</time></trkpt><trkpt lat="44.128466" lon="10.2579577"><ele>959.0000000000001</ele><time>2026-05-02T09:58:06.964Z</time></trkpt><trkpt lat="44.1284168" lon="10.2578034"><ele>959.0</ele><time>2026-05-02T09:58:08.964Z</time></trkpt><trkpt lat="44.1283413" lon="10.2576909"><ele>959.0</ele><time>2026-05-02T09:58:10.964Z</time></trkpt><trkpt lat="44.1282517" lon="10.2575566"><ele>955.0</ele><time>2026-05-02T09:58:12.963Z</time></trkpt><trkpt lat="44.1281862" lon="10.2574983"><ele>951.0000000000001</ele><time>2026-05-02T09:58:13.96Z</time></trkpt><trkpt lat="44.1280696" lon="10.2573873"><ele>947.0000000000001</ele><time>2026-05-02T09:58:15.956Z</time></trkpt><trkpt lat="44.1280092" lon="10.2573206"><ele>943.0</ele><time>2026-05-02T09:58:16.961Z</time></trkpt><trkpt lat="44.1279361" lon="10.2571833"><ele>939.0</ele><time>2026-05-02T09:58:18.963Z</time></trkpt><trkpt lat="44.1278588" lon="10.2570637"><ele>939.0</ele><time>2026-05-02T09:58:20.963Z</time></trkpt><trkpt lat="44.1278214" lon="10.2569763"><ele>939.0000000000001</ele><time>2026-05-02T09:58:21.964Z</time></trkpt><trkpt lat="44.1277841" lon="10.2568969"><ele>939.0000000000001</ele><time>2026-05-02T09:58:22.964Z</time></trkpt><trkpt lat="44.1277323" lon="10.2568246"><ele>939.0</ele><time>2026-05-02T09:58:23.963Z</time></trkpt><trkpt lat="44.1276415" lon="10.2567089"><ele>939.0</ele><time>2026-05-02T09:58:25.964Z</time></trkpt><trkpt lat="44.1276169" lon="10.2565488"><ele>938.8000000000001</ele><time>2026-05-02T09:58:27.963Z</time></trkpt><trkpt lat="44.1276856" lon="10.2563988"><ele>938.6000000000001</ele><time>2026-05-02T09:58:29.962Z</time></trkpt><trkpt lat="44.1277517" lon="10.2563425"><ele>938.4</ele><time>2026-05-02T09:58:30.961Z</time></trkpt><trkpt lat="44.1278098" lon="10.2562877"><ele>938.2</ele><time>2026-05-02T09:58:31.963Z</time></trkpt><trkpt lat="44.1279257" lon="10.2562713"><ele>938.0</ele><time>2026-05-02T09:58:33.964Z</time></trkpt><trkpt lat="44.1280087" lon="10.2563786"><ele>938.0</ele><time>2026-05-02T09:58:35.962Z</time></trkpt><trkpt lat="44.1280799" lon="10.2564018"><ele>938.0</ele><time>2026-05-02T09:58:37.964Z</time></trkpt><trkpt lat="44.1280726" lon="10.2562958"><ele>938.0</ele><time>2026-05-02T09:58:39.964Z</time></trkpt><trkpt lat="44.1280322" lon="10.2561532"><ele>938.0</ele><time>2026-05-02T09:58:41.963Z</time></trkpt><trkpt lat="44.1279409" lon="10.2561332"><ele>938.0</ele><time>2026-05-02T09:58:43.961Z</time></trkpt><trkpt lat="44.1278108" lon="10.256119"><ele>938.0000000000001</ele><time>2026-05-02T09:58:45.963Z</time></trkpt><trkpt lat="44.1277436" lon="10.2561121"><ele>938.0</ele><time>2026-05-02T09:58:46.962Z</time></trkpt><trkpt lat="44.1276721" lon="10.2560957"><ele>938.0</ele><time>2026-05-02T09:58:47.962Z</time></trkpt><trkpt lat="44.1276064" lon="10.2560632"><ele>938.0</ele><time>2026-05-02T09:58:48.963Z</time></trkpt><trkpt lat="44.1275153" lon="10.2560293"><ele>938.0000000000001</ele><time>2026-05-02T09:58:50.964Z</time></trkpt><trkpt lat="44.1274586" lon="10.2559543"><ele>938.0</ele><time>2026-05-02T09:58:53.964Z</time></trkpt><trkpt lat="44.127481" lon="10.2558426"><ele>938.0000000000001</ele><time>2026-05-02T09:58:56.964Z</time></trkpt><trkpt lat="44.1275345" lon="10.2557463"><ele>938.0</ele><time>2026-05-02T09:58:58.961Z</time></trkpt><trkpt lat="44.1275898" lon="10.2556106"><ele>938.0</ele><time>2026-05-02T09:59:00.964Z</time></trkpt><trkpt lat="44.1276152" lon="10.2555112"><ele>938.0</ele><time>2026-05-02T09:59:01.963Z</time></trkpt><trkpt lat="44.1276322" lon="10.2554015"><ele>938.0000000000001</ele><time>2026-05-02T09:59:02.958Z</time></trkpt><trkpt lat="44.1276495" lon="10.2553"><ele>938.0</ele><time>2026-05-02T09:59:03.964Z</time></trkpt><trkpt lat="44.1276851" lon="10.2551842"><ele>939.3333333333334</ele><time>2026-05-02T09:59:04.963Z</time></trkpt><trkpt lat="44.1277248" lon="10.2550815"><ele>940.6666666666667</ele><time>2026-05-02T09:59:05.964Z</time></trkpt><trkpt lat="44.1277807" lon="10.2549969"><ele>942.0</ele><time>2026-05-02T09:59:06.958Z</time></trkpt><trkpt lat="44.1278424" lon="10.2549417"><ele>943.3333333333333</ele><time>2026-05-02T09:59:07.964Z</time></trkpt><trkpt lat="44.1279063" lon="10.2549002"><ele>944.6666666666666</ele><time>2026-05-02T09:59:08.964Z</time></trkpt><trkpt lat="44.127981" lon="10.2548507"><ele>946.0</ele><time>2026-05-02T09:59:09.964Z</time></trkpt><trkpt lat="44.1280498" lon="10.2547781"><ele>944.8</ele><time>2026-05-02T09:59:10.961Z</time></trkpt><trkpt lat="44.1281106" lon="10.2546743"><ele>943.5999999999999</ele><time>2026-05-02T09:59:11.96Z</time></trkpt><trkpt lat="44.1281628" lon="10.2545596"><ele>942.4</ele><time>2026-05-02T09:59:12.961Z</time></trkpt><trkpt lat="44.1282155" lon="10.2544561"><ele>941.2</ele><time>2026-05-02T09:59:13.964Z</time></trkpt><trkpt lat="44.1282984" lon="10.254407"><ele>940.0</ele><time>2026-05-02T09:59:14.963Z</time></trkpt><trkpt lat="44.1283762" lon="10.2543633"><ele>940.0</ele><time>2026-05-02T09:59:15.963Z</time></trkpt><trkpt lat="44.1284576" lon="10.2543126"><ele>940.0</ele><time>2026-05-02T09:59:16.964Z</time></trkpt><trkpt lat="44.1285266" lon="10.2542373"><ele>940.0</ele><time>2026-05-02T09:59:17.963Z</time></trkpt><trkpt lat="44.1285847" lon="10.2541331"><ele>940.0</ele><time>2026-05-02T09:59:18.964Z</time></trkpt><trkpt lat="44.128645" lon="10.2540166"><ele>940.0</ele><time>2026-05-02T09:59:19.964Z</time></trkpt><trkpt lat="44.1286904" lon="10.253893"><ele>944.6</ele><time>2026-05-02T09:59:20.964Z</time></trkpt><trkpt lat="44.1287444" lon="10.2537636"><ele>949.2</ele><time>2026-05-02T09:59:21.963Z</time></trkpt><trkpt lat="44.1287614" lon="10.2536064"><ele>953.8</ele><time>2026-05-02T09:59:22.964Z</time></trkpt><trkpt lat="44.1287873" lon="10.2534695"><ele>958.4</ele><time>2026-05-02T09:59:23.964Z</time></trkpt><trkpt lat="44.1288251" lon="10.2533649"><ele>963.0</ele><time>2026-05-02T09:59:24.96Z</time></trkpt><trkpt lat="44.1288624" lon="10.2532789"><ele>963.0</ele><time>2026-05-02T09:59:25.963Z</time></trkpt><trkpt lat="44.1289184" lon="10.2532084"><ele>963.0</ele><time>2026-05-02T09:59:26.963Z</time></trkpt><trkpt lat="44.1289931" lon="10.2531478"><ele>963.0</ele><time>2026-05-02T09:59:27.964Z</time></trkpt><trkpt lat="44.1290783" lon="10.2530995"><ele>963.0</ele><time>2026-05-02T09:59:28.962Z</time></trkpt><trkpt lat="44.1291691" lon="10.2530511"><ele>963.0</ele><time>2026-05-02T09:59:29.963Z</time></trkpt><trkpt lat="44.1292612" lon="10.2530014"><ele>959.8</ele><time>2026-05-02T09:59:30.961Z</time></trkpt><trkpt lat="44.1293435" lon="10.2529268"><ele>956.5999999999999</ele><time>2026-05-02T09:59:31.963Z</time></trkpt><trkpt lat="44.1294121" lon="10.2528552"><ele>953.4000000000001</ele><time>2026-05-02T09:59:32.964Z</time></trkpt><trkpt lat="44.1294945" lon="10.2527954"><ele>950.2</ele><time>2026-05-02T09:59:33.958Z</time></trkpt><trkpt lat="44.1295527" lon="10.2527278"><ele>947.0</ele><time>2026-05-02T09:59:34.963Z</time></trkpt><trkpt lat="44.1296284" lon="10.2526409"><ele>947.0</ele><time>2026-05-02T09:59:35.964Z</time></trkpt><trkpt lat="44.1297079" lon="10.2525472"><ele>947.0</ele><time>2026-05-02T09:59:36.963Z</time></trkpt><trkpt lat="44.1297769" lon="10.252458"><ele>947.0</ele><time>2026-05-02T09:59:37.963Z</time></trkpt><trkpt lat="44.1298468" lon="10.2523472"><ele>947.0</ele><time>2026-05-02T09:59:38.961Z</time></trkpt><trkpt lat="44.1299178" lon="10.2522719"><ele>947.0</ele><time>2026-05-02T09:59:39.964Z</time></trkpt><trkpt lat="44.1299883" lon="10.2521705"><ele>941.6666666666667</ele><time>2026-05-02T09:59:40.959Z</time></trkpt><trkpt lat="44.130037" lon="10.2520731"><ele>936.3333333333334</ele><time>2026-05-02T09:59:41.964Z</time></trkpt><trkpt lat="44.1300561" lon="10.2519656"><ele>931.0</ele><time>2026-05-02T09:59:42.964Z</time></trkpt><trkpt lat="44.1300407" lon="10.251856"><ele>925.6666666666667</ele><time>2026-05-02T09:59:43.958Z</time></trkpt><trkpt lat="44.1300285" lon="10.2517247"><ele>920.3333333333334</ele><time>2026-05-02T09:59:44.96Z</time></trkpt><trkpt lat="44.1299976" lon="10.2516056"><ele>915.0</ele><time>2026-05-02T09:59:45.963Z</time></trkpt><trkpt lat="44.1299324" lon="10.251472"><ele>919.75</ele><time>2026-05-02T09:59:46.96Z</time></trkpt><trkpt lat="44.1298617" lon="10.2513236"><ele>924.5</ele><time>2026-05-02T09:59:47.96Z</time></trkpt><trkpt lat="44.1298061" lon="10.2511779"><ele>929.25</ele><time>2026-05-02T09:59:48.964Z</time></trkpt><trkpt lat="44.1297494" lon="10.251039"><ele>934.0</ele><time>2026-05-02T09:59:49.964Z</time></trkpt><trkpt lat="44.129693" lon="10.2508946"><ele>934.0</ele><time>2026-05-02T09:59:50.963Z</time></trkpt><trkpt lat="44.1296293" lon="10.2507737"><ele>934.0</ele><time>2026-05-02T09:59:51.964Z</time></trkpt><trkpt lat="44.1295609" lon="10.2506489"><ele>934.0</ele><time>2026-05-02T09:59:52.963Z</time></trkpt><trkpt lat="44.129485" lon="10.2505298"><ele>934.0</ele><time>2026-05-02T09:59:53.963Z</time></trkpt><trkpt lat="44.1294094" lon="10.2504021"><ele>931.4999999999999</ele><time>2026-05-02T09:59:54.962Z</time></trkpt><trkpt lat="44.1293407" lon="10.2502887"><ele>929.0</ele><time>2026-05-02T09:59:55.964Z</time></trkpt><trkpt lat="44.1292689" lon="10.2501856"><ele>926.5</ele><time>2026-05-02T09:59:56.963Z</time></trkpt><trkpt lat="44.1292281" lon="10.2500773"><ele>924.0</ele><time>2026-05-02T09:59:57.964Z</time></trkpt><trkpt lat="44.129205" lon="10.2499788"><ele>921.4999999999999</ele><time>2026-05-02T09:59:58.964Z</time></trkpt><trkpt lat="44.1292089" lon="10.2498804"><ele>919.0</ele><time>2026-05-02T09:59:59.963Z</time></trkpt><trkpt lat="44.1292597" lon="10.2498008"><ele>923.5</ele><time>2026-05-02T10:00:00.957Z</time></trkpt><trkpt lat="44.129327" lon="10.2497237"><ele>928.0</ele><time>2026-05-02T10:00:01.963Z</time></trkpt><trkpt lat="44.1294227" lon="10.2496506"><ele>932.5</ele><time>2026-05-02T10:00:02.962Z</time></trkpt><trkpt lat="44.1295373" lon="10.2495688"><ele>937.0</ele><time>2026-05-02T10:00:03.964Z</time></trkpt><trkpt lat="44.1296547" lon="10.249499"><ele>937.0</ele><time>2026-05-02T10:00:04.96Z</time></trkpt><trkpt lat="44.1297721" lon="10.2494402"><ele>937.0</ele><time>2026-05-02T10:00:05.963Z</time></trkpt><trkpt lat="44.1298821" lon="10.2494018"><ele>937.0</ele><time>2026-05-02T10:00:06.962Z</time></trkpt><trkpt lat="44.1300098" lon="10.249385"><ele>937.0</ele><time>2026-05-02T10:00:07.964Z</time></trkpt><trkpt lat="44.1301522" lon="10.2493885"><ele>932.3333333333333</ele><time>2026-05-02T10:00:08.964Z</time></trkpt><trkpt lat="44.1303102" lon="10.2494079"><ele>927.6666666666667</ele><time>2026-05-02T10:00:09.962Z</time></trkpt><trkpt lat="44.1304569" lon="10.2494546"><ele>923.0</ele><time>2026-05-02T10:00:10.964Z</time></trkpt><trkpt lat="44.1305925" lon="10.2495139"><ele>922.5</ele><time>2026-05-02T10:00:11.964Z</time></trkpt><trkpt lat="44.1307271" lon="10.2495803"><ele>922.0</ele><time>2026-05-02T10:00:12.963Z</time></trkpt><trkpt lat="44.1308595" lon="10.2496328"><ele>921.5</ele><time>2026-05-02T10:00:13.958Z</time></trkpt><trkpt lat="44.1309775" lon="10.2496917"><ele>921.0</ele><time>2026-05-02T10:00:14.963Z</time></trkpt><trkpt lat="44.1310904" lon="10.2497497"><ele>914.0</ele><time>2026-05-02T10:00:15.964Z</time></trkpt><trkpt lat="44.1311791" lon="10.2498444"><ele>906.9999999999999</ele><time>2026-05-02T10:00:16.961Z</time></trkpt><trkpt lat="44.1312532" lon="10.2499411"><ele>899.9999999999999</ele><time>2026-05-02T10:00:17.963Z</time></trkpt><trkpt lat="44.131318" lon="10.2500374"><ele>893.0</ele><time>2026-05-02T10:00:18.964Z</time></trkpt><trkpt lat="44.1313825" lon="10.2501219"><ele>886.0</ele><time>2026-05-02T10:00:19.962Z</time></trkpt><trkpt lat="44.1314758" lon="10.2501817"><ele>886.8</ele><time>2026-05-02T10:00:20.964Z</time></trkpt><trkpt lat="44.1315724" lon="10.2502166"><ele>887.5999999999999</ele><time>2026-05-02T10:00:21.963Z</time></trkpt><trkpt lat="44.1316794" lon="10.2502272"><ele>888.4</ele><time>2026-05-02T10:00:22.964Z</time></trkpt><trkpt lat="44.1317781" lon="10.2502154"><ele>889.2</ele><time>2026-05-02T10:00:23.962Z</time></trkpt><trkpt lat="44.1318743" lon="10.2502141"><ele>890.0</ele><time>2026-05-02T10:00:24.964Z</time></trkpt><trkpt lat="44.1319761" lon="10.2501593"><ele>890.0</ele><time>2026-05-02T10:00:25.962Z</time></trkpt><trkpt lat="44.1320615" lon="10.2500947"><ele>890.0</ele><time>2026-05-02T10:00:26.964Z</time></trkpt><trkpt lat="44.1320977" lon="10.2500015"><ele>890.0</ele><time>2026-05-02T10:00:27.963Z</time></trkpt><trkpt lat="44.1321334" lon="10.2499114"><ele>890.0</ele><time>2026-05-02T10:00:28.959Z</time></trkpt><trkpt lat="44.1320772" lon="10.2496282"><ele>893.0</ele><time>2026-05-02T10:00:30.958Z</time></trkpt><trkpt lat="44.1320456" lon="10.2495017"><ele>896.0</ele><time>2026-05-02T10:00:31.963Z</time></trkpt><trkpt lat="44.1320257" lon="10.2493407"><ele>899.0</ele><time>2026-05-02T10:00:32.964Z</time></trkpt><trkpt lat="44.131992" lon="10.2492064"><ele>902.0</ele><time>2026-05-02T10:00:33.961Z</time></trkpt><trkpt lat="44.13197" lon="10.2490369"><ele>905.0</ele><time>2026-05-02T10:00:34.964Z</time></trkpt><trkpt lat="44.1319834" lon="10.2488798"><ele>905.6</ele><time>2026-05-02T10:00:35.961Z</time></trkpt><trkpt lat="44.1320153" lon="10.2487413"><ele>906.2</ele><time>2026-05-02T10:00:36.964Z</time></trkpt><trkpt lat="44.1320252" lon="10.2486016"><ele>906.8</ele><time>2026-05-02T10:00:37.963Z</time></trkpt><trkpt lat="44.1320367" lon="10.2484529"><ele>907.4</ele><time>2026-05-02T10:00:38.963Z</time></trkpt><trkpt lat="44.1320086" lon="10.2483173"><ele>908.0</ele><time>2026-05-02T10:00:39.96Z</time></trkpt><trkpt lat="44.1319764" lon="10.2481723"><ele>904.4</ele><time>2026-05-02T10:00:40.963Z</time></trkpt><trkpt lat="44.1319268" lon="10.2480511"><ele>900.8</ele><time>2026-05-02T10:00:41.964Z</time></trkpt><trkpt lat="44.1318766" lon="10.2479294"><ele>897.2</ele><time>2026-05-02T10:00:42.964Z</time></trkpt><trkpt lat="44.1317934" lon="10.2478227"><ele>893.6</ele><time>2026-05-02T10:00:43.964Z</time></trkpt><trkpt lat="44.1317205" lon="10.2477195"><ele>890.0</ele><time>2026-05-02T10:00:44.964Z</time></trkpt><trkpt lat="44.131641" lon="10.2476351"><ele>890.0</ele><time>2026-05-02T10:00:45.961Z</time></trkpt><trkpt lat="44.1315695" lon="10.2475435"><ele>890.0</ele><time>2026-05-02T10:00:46.961Z</time></trkpt><trkpt lat="44.1315263" lon="10.2474659"><ele>890.0</ele><time>2026-05-02T10:00:47.963Z</time></trkpt><trkpt lat="44.1314763" lon="10.2473844"><ele>890.0</ele><time>2026-05-02T10:00:48.959Z</time></trkpt><trkpt lat="44.1314854" lon="10.2472076"><ele>890.0</ele><time>2026-05-02T10:00:49.963Z</time></trkpt><trkpt lat="44.1314802" lon="10.247066"><ele>889.3333333333334</ele><time>2026-05-02T10:00:50.964Z</time></trkpt><trkpt lat="44.1315507" lon="10.2469573"><ele>888.6666666666667</ele><time>2026-05-02T10:00:51.961Z</time></trkpt><trkpt lat="44.1316026" lon="10.246838"><ele>888.0</ele><time>2026-05-02T10:00:52.963Z</time></trkpt><trkpt lat="44.1316612" lon="10.2467427"><ele>887.3333333333333</ele><time>2026-05-02T10:00:53.961Z</time></trkpt><trkpt lat="44.1317192" lon="10.2466632"><ele>886.6666666666666</ele><time>2026-05-02T10:00:54.963Z</time></trkpt><trkpt lat="44.1317765" lon="10.2466023"><ele>886.0</ele><time>2026-05-02T10:00:55.963Z</time></trkpt><trkpt lat="44.1318673" lon="10.2465296"><ele>886.0</ele><time>2026-05-02T10:00:57.964Z</time></trkpt><trkpt lat="44.1319283" lon="10.2465076"><ele>885.9999999999999</ele><time>2026-05-02T10:00:59.962Z</time></trkpt><trkpt lat="44.1320004" lon="10.2464959"><ele>885.9999999999999</ele><time>2026-05-02T10:02:08.913Z</time></trkpt><trkpt lat="44.1320762" lon="10.246393"><ele>886.0</ele><time>2026-05-02T10:02:11.914Z</time></trkpt><trkpt lat="44.1320765" lon="10.246242"><ele>886.0</ele><time>2026-05-02T10:02:13.919Z</time></trkpt><trkpt lat="44.1320393" lon="10.2460889"><ele>886.8</ele><time>2026-05-02T10:02:15.914Z</time></trkpt><trkpt lat="44.13203" lon="10.2459205"><ele>887.5999999999999</ele><time>2026-05-02T10:02:17.916Z</time></trkpt><trkpt lat="44.1320609" lon="10.2457559"><ele>888.4</ele><time>2026-05-02T10:02:19.918Z</time></trkpt><trkpt lat="44.1320875" lon="10.2456702"><ele>889.2</ele><time>2026-05-02T10:02:20.916Z</time></trkpt><trkpt lat="44.1321148" lon="10.2455773"><ele>890.0</ele><time>2026-05-02T10:02:21.917Z</time></trkpt><trkpt lat="44.1321279" lon="10.2454738"><ele>890.0000000000001</ele><time>2026-05-02T10:02:22.918Z</time></trkpt><trkpt lat="44.1321453" lon="10.2453648"><ele>890.0</ele><time>2026-05-02T10:02:23.92Z</time></trkpt><trkpt lat="44.1321395" lon="10.2452516"><ele>890.0</ele><time>2026-05-02T10:02:24.919Z</time></trkpt><trkpt lat="44.1321365" lon="10.2451337"><ele>890.0</ele><time>2026-05-02T10:02:25.918Z</time></trkpt><trkpt lat="44.1321283" lon="10.2450093"><ele>890.0000000000001</ele><time>2026-05-02T10:02:26.916Z</time></trkpt><trkpt lat="44.1321204" lon="10.244889"><ele>890.0</ele><time>2026-05-02T10:02:27.917Z</time></trkpt><trkpt lat="44.1321222" lon="10.2447655"><ele>888.0000000000001</ele><time>2026-05-02T10:02:28.915Z</time></trkpt><trkpt lat="44.1321424" lon="10.2446431"><ele>886.0</ele><time>2026-05-02T10:02:29.916Z</time></trkpt><trkpt lat="44.1321449" lon="10.2445332"><ele>884.0</ele><time>2026-05-02T10:02:30.914Z</time></trkpt><trkpt lat="44.1321662" lon="10.2444292"><ele>882.0</ele><time>2026-05-02T10:02:31.915Z</time></trkpt><trkpt lat="44.1321804" lon="10.2443143"><ele>880.0000000000001</ele><time>2026-05-02T10:02:32.914Z</time></trkpt><trkpt lat="44.1321553" lon="10.2441972"><ele>878.0</ele><time>2026-05-02T10:02:33.914Z</time></trkpt><trkpt lat="44.1321286" lon="10.2440854"><ele>878.0000000000001</ele><time>2026-05-02T10:02:34.917Z</time></trkpt><trkpt lat="44.1320863" lon="10.2439847"><ele>878.0</ele><time>2026-05-02T10:02:35.915Z</time></trkpt><trkpt lat="44.1320312" lon="10.2438621"><ele>878.0</ele><time>2026-05-02T10:02:36.915Z</time></trkpt><trkpt lat="44.13201" lon="10.2437307"><ele>878.0</ele><time>2026-05-02T10:02:37.917Z</time></trkpt><trkpt lat="44.131993" lon="10.2436309"><ele>878.0000000000001</ele><time>2026-05-02T10:02:38.917Z</time></trkpt><trkpt lat="44.1319967" lon="10.2435063"><ele>878.0</ele><time>2026-05-02T10:02:39.917Z</time></trkpt><trkpt lat="44.1320096" lon="10.2433889"><ele>875.0000000000001</ele><time>2026-05-02T10:02:40.919Z</time></trkpt><trkpt lat="44.132032" lon="10.2432741"><ele>872.0</ele><time>2026-05-02T10:02:41.914Z</time></trkpt><trkpt lat="44.1320563" lon="10.2431588"><ele>869.0</ele><time>2026-05-02T10:02:42.917Z</time></trkpt><trkpt lat="44.132073" lon="10.2430494"><ele>866.0</ele><time>2026-05-02T10:02:43.918Z</time></trkpt><trkpt lat="44.1320977" lon="10.2429441"><ele>863.0000000000001</ele><time>2026-05-02T10:02:44.916Z</time></trkpt><trkpt lat="44.1321131" lon="10.2428587"><ele>860.0</ele><time>2026-05-02T10:02:45.915Z</time></trkpt><trkpt lat="44.1321706" lon="10.2427568"><ele>858.3333333333334</ele><time>2026-05-02T10:02:47.915Z</time></trkpt><trkpt lat="44.1322644" lon="10.2427993"><ele>856.6666666666667</ele><time>2026-05-02T10:02:49.918Z</time></trkpt><trkpt lat="44.132298" lon="10.2428847"><ele>855.0</ele><time>2026-05-02T10:02:50.917Z</time></trkpt><trkpt lat="44.132338" lon="10.242979"><ele>853.3333333333333</ele><time>2026-05-02T10:02:51.916Z</time></trkpt><trkpt lat="44.1323811" lon="10.2430957"><ele>851.6666666666666</ele><time>2026-05-02T10:02:52.916Z</time></trkpt><trkpt lat="44.1324196" lon="10.2432022"><ele>850.0</ele><time>2026-05-02T10:02:53.915Z</time></trkpt><trkpt lat="44.1324454" lon="10.2433244"><ele>846.0</ele><time>2026-05-02T10:02:54.915Z</time></trkpt><trkpt lat="44.132471" lon="10.2434514"><ele>842.0</ele><time>2026-05-02T10:02:55.915Z</time></trkpt><trkpt lat="44.1324699" lon="10.2435843"><ele>838.0</ele><time>2026-05-02T10:02:56.916Z</time></trkpt><trkpt lat="44.1324807" lon="10.2437234"><ele>834.0</ele><time>2026-05-02T10:02:57.917Z</time></trkpt><trkpt lat="44.1324929" lon="10.2438633"><ele>830.0</ele><time>2026-05-02T10:02:58.918Z</time></trkpt><trkpt lat="44.1325062" lon="10.2439927"><ele>830.0</ele><time>2026-05-02T10:02:59.917Z</time></trkpt><trkpt lat="44.1325446" lon="10.2441277"><ele>830.0</ele><time>2026-05-02T10:03:00.915Z</time></trkpt><trkpt lat="44.1325873" lon="10.2442661"><ele>830.0</ele><time>2026-05-02T10:03:01.916Z</time></trkpt><trkpt lat="44.1326438" lon="10.2443987"><ele>830.0</ele><time>2026-05-02T10:03:02.916Z</time></trkpt><trkpt lat="44.132705" lon="10.2445342"><ele>830.0</ele><time>2026-05-02T10:03:03.916Z</time></trkpt><trkpt lat="44.1327747" lon="10.2446444"><ele>830.0</ele><time>2026-05-02T10:03:04.917Z</time></trkpt><trkpt lat="44.1328316" lon="10.2447477"><ele>830.0</ele><time>2026-05-02T10:03:05.916Z</time></trkpt><trkpt lat="44.1328818" lon="10.2448488"><ele>830.0</ele><time>2026-05-02T10:03:06.917Z</time></trkpt><trkpt lat="44.1329318" lon="10.2449292"><ele>830.0</ele><time>2026-05-02T10:03:07.916Z</time></trkpt><trkpt lat="44.133039" lon="10.2449633"><ele>830.0</ele><time>2026-05-02T10:03:09.914Z</time></trkpt><trkpt lat="44.1331139" lon="10.2448504"><ele>830.0</ele><time>2026-05-02T10:03:11.918Z</time></trkpt><trkpt lat="44.133102" lon="10.2447377"><ele>830.0</ele><time>2026-05-02T10:03:12.918Z</time></trkpt><trkpt lat="44.1331007" lon="10.2446133"><ele>830.0</ele><time>2026-05-02T10:03:13.916Z</time></trkpt><trkpt lat="44.1331037" lon="10.2444933"><ele>830.0</ele><time>2026-05-02T10:03:14.916Z</time></trkpt><trkpt lat="44.1330859" lon="10.2443665"><ele>830.0</ele><time>2026-05-02T10:03:15.917Z</time></trkpt><trkpt lat="44.1330213" lon="10.2442545"><ele>830.0000000000001</ele><time>2026-05-02T10:03:16.915Z</time></trkpt><trkpt lat="44.1329643" lon="10.2441556"><ele>830.0</ele><time>2026-05-02T10:03:17.915Z</time></trkpt><trkpt lat="44.1328955" lon="10.2440755"><ele>830.0</ele><time>2026-05-02T10:03:18.915Z</time></trkpt><trkpt lat="44.132844" lon="10.2439923"><ele>830.0</ele><time>2026-05-02T10:03:19.915Z</time></trkpt><trkpt lat="44.1328089" lon="10.243909"><ele>830.0000000000001</ele><time>2026-05-02T10:03:20.917Z</time></trkpt><trkpt lat="44.1328024" lon="10.2438151"><ele>830.0</ele><time>2026-05-02T10:03:21.917Z</time></trkpt><trkpt lat="44.132815" lon="10.243725"><ele>829.0</ele><time>2026-05-02T10:03:22.915Z</time></trkpt><trkpt lat="44.1328371" lon="10.2436078"><ele>828.0</ele><time>2026-05-02T10:03:23.915Z</time></trkpt><trkpt lat="44.1328806" lon="10.2435086"><ele>827.0</ele><time>2026-05-02T10:03:24.916Z</time></trkpt><trkpt lat="44.1329311" lon="10.2433887"><ele>826.0</ele><time>2026-05-02T10:03:25.916Z</time></trkpt><trkpt lat="44.1329839" lon="10.2432809"><ele>825.0</ele><time>2026-05-02T10:03:26.916Z</time></trkpt><trkpt lat="44.1330296" lon="10.2431639"><ele>824.2</ele><time>2026-05-02T10:03:27.917Z</time></trkpt><trkpt lat="44.1330786" lon="10.2430461"><ele>823.4</ele><time>2026-05-02T10:03:28.915Z</time></trkpt><trkpt lat="44.1330945" lon="10.2429147"><ele>822.5999999999999</ele><time>2026-05-02T10:03:29.915Z</time></trkpt><trkpt lat="44.1331207" lon="10.2427797"><ele>821.8</ele><time>2026-05-02T10:03:30.918Z</time></trkpt><trkpt lat="44.1330959" lon="10.2426338"><ele>821.0</ele><time>2026-05-02T10:03:31.919Z</time></trkpt><trkpt lat="44.1331021" lon="10.2424962"><ele>821.0000000000001</ele><time>2026-05-02T10:03:32.918Z</time></trkpt><trkpt lat="44.133103" lon="10.2423566"><ele>821.0</ele><time>2026-05-02T10:03:33.918Z</time></trkpt><trkpt lat="44.1331137" lon="10.242221"><ele>821.0</ele><time>2026-05-02T10:03:34.916Z</time></trkpt><trkpt lat="44.1331113" lon="10.2420915"><ele>821.0</ele><time>2026-05-02T10:03:35.917Z</time></trkpt><trkpt lat="44.1331092" lon="10.2419786"><ele>821.0000000000001</ele><time>2026-05-02T10:03:36.915Z</time></trkpt><trkpt lat="44.1330977" lon="10.2418834"><ele>821.0</ele><time>2026-05-02T10:03:37.918Z</time></trkpt><trkpt lat="44.1331144" lon="10.2417357"><ele>817.8</ele><time>2026-05-02T10:03:39.917Z</time></trkpt><trkpt lat="44.1331718" lon="10.2416851"><ele>814.5999999999999</ele><time>2026-05-02T10:03:41.917Z</time></trkpt><trkpt lat="44.1332364" lon="10.2418132"><ele>811.4</ele><time>2026-05-02T10:03:43.915Z</time></trkpt><trkpt lat="44.1332663" lon="10.2419029"><ele>808.2</ele><time>2026-05-02T10:03:44.917Z</time></trkpt><trkpt lat="44.1332984" lon="10.2420484"><ele>805.0</ele><time>2026-05-02T10:03:45.918Z</time></trkpt><trkpt lat="44.1333395" lon="10.2421731"><ele>797.5</ele><time>2026-05-02T10:03:46.916Z</time></trkpt><trkpt lat="44.1334093" lon="10.2423135"><ele>790.0</ele><time>2026-05-02T10:03:47.916Z</time></trkpt><trkpt lat="44.1334696" lon="10.242456"><ele>782.5</ele><time>2026-05-02T10:03:48.916Z</time></trkpt><trkpt lat="44.1335382" lon="10.2425949"><ele>775.0</ele><time>2026-05-02T10:03:49.914Z</time></trkpt><trkpt lat="44.1335995" lon="10.2427536"><ele>775.0</ele><time>2026-05-02T10:03:50.916Z</time></trkpt><trkpt lat="44.1336633" lon="10.2428981"><ele>775.0</ele><time>2026-05-02T10:03:51.916Z</time></trkpt><trkpt lat="44.1337139" lon="10.2430136"><ele>775.0</ele><time>2026-05-02T10:03:52.917Z</time></trkpt><trkpt lat="44.1337485" lon="10.243145"><ele>775.0</ele><time>2026-05-02T10:03:53.918Z</time></trkpt><trkpt lat="44.1337758" lon="10.2432497"><ele>775.0</ele><time>2026-05-02T10:03:54.914Z</time></trkpt><trkpt lat="44.1337896" lon="10.2433626"><ele>776.3333333333333</ele><time>2026-05-02T10:03:55.915Z</time></trkpt><trkpt lat="44.1338079" lon="10.2435164"><ele>777.6666666666666</ele><time>2026-05-02T10:03:57.913Z</time></trkpt><trkpt lat="44.13389" lon="10.2435664"><ele>779.0</ele><time>2026-05-02T10:03:59.914Z</time></trkpt><trkpt lat="44.1339465" lon="10.2434723"><ele>780.3333333333333</ele><time>2026-05-02T10:04:01.917Z</time></trkpt><trkpt lat="44.1339476" lon="10.2433793"><ele>781.6666666666666</ele><time>2026-05-02T10:04:02.915Z</time></trkpt><trkpt lat="44.1339504" lon="10.2432673"><ele>783.0</ele><time>2026-05-02T10:04:03.916Z</time></trkpt><trkpt lat="44.1339577" lon="10.2431449"><ele>781.4</ele><time>2026-05-02T10:04:04.918Z</time></trkpt><trkpt lat="44.1339612" lon="10.2430331"><ele>779.8</ele><time>2026-05-02T10:04:05.914Z</time></trkpt><trkpt lat="44.1339414" lon="10.2428916"><ele>778.2</ele><time>2026-05-02T10:04:06.917Z</time></trkpt><trkpt lat="44.1339283" lon="10.2427548"><ele>776.6</ele><time>2026-05-02T10:04:07.919Z</time></trkpt><trkpt lat="44.1338962" lon="10.2426172"><ele>775.0</ele><time>2026-05-02T10:04:08.915Z</time></trkpt><trkpt lat="44.1338727" lon="10.2424739"><ele>775.0</ele><time>2026-05-02T10:04:09.92Z</time></trkpt><trkpt lat="44.1338746" lon="10.2423341"><ele>775.0</ele><time>2026-05-02T10:04:10.916Z</time></trkpt><trkpt lat="44.1338606" lon="10.2420796"><ele>775.0</ele><time>2026-05-02T10:04:12.917Z</time></trkpt><trkpt lat="44.1338592" lon="10.2419333"><ele>775.0</ele><time>2026-05-02T10:04:13.918Z</time></trkpt><trkpt lat="44.1338491" lon="10.2417993"><ele>772.4</ele><time>2026-05-02T10:04:14.915Z</time></trkpt><trkpt lat="44.1338481" lon="10.2416747"><ele>769.8</ele><time>2026-05-02T10:04:15.915Z</time></trkpt><trkpt lat="44.1338509" lon="10.2415626"><ele>767.2</ele><time>2026-05-02T10:04:16.917Z</time></trkpt><trkpt lat="44.1338934" lon="10.2414219"><ele>764.6</ele><time>2026-05-02T10:04:18.917Z</time></trkpt><trkpt lat="44.1339777" lon="10.2413616"><ele>762.0</ele><time>2026-05-02T10:04:20.915Z</time></trkpt><trkpt lat="44.1340221" lon="10.2414979"><ele>762.0</ele><time>2026-05-02T10:04:22.917Z</time></trkpt><trkpt lat="44.1340343" lon="10.2416062"><ele>762.0</ele><time>2026-05-02T10:04:23.92Z</time></trkpt><trkpt lat="44.1340655" lon="10.2417206"><ele>762.0</ele><time>2026-05-02T10:04:24.917Z</time></trkpt><trkpt lat="44.1341006" lon="10.2418006"><ele>762.0</ele><time>2026-05-02T10:04:25.916Z</time></trkpt><trkpt lat="44.1341438" lon="10.2418702"><ele>762.0</ele><time>2026-05-02T10:04:26.914Z</time></trkpt><trkpt lat="44.1342676" lon="10.2419071"><ele>762.0</ele><time>2026-05-02T10:04:28.919Z</time></trkpt><trkpt lat="44.1343833" lon="10.241819"><ele>753.25</ele><time>2026-05-02T10:04:29.915Z</time></trkpt><trkpt lat="44.1344735" lon="10.2417848"><ele>744.5</ele><time>2026-05-02T10:04:30.913Z</time></trkpt><trkpt lat="44.1345708" lon="10.2417403"><ele>735.75</ele><time>2026-05-02T10:04:31.918Z</time></trkpt><trkpt lat="44.1346804" lon="10.2416627"><ele>727.0</ele><time>2026-05-02T10:04:32.917Z</time></trkpt><trkpt lat="44.1347813" lon="10.2415441"><ele>726.4000000000001</ele><time>2026-05-02T10:04:33.917Z</time></trkpt><trkpt lat="44.1348837" lon="10.2414639"><ele>725.8000000000001</ele><time>2026-05-02T10:04:34.916Z</time></trkpt><trkpt lat="44.1349748" lon="10.2413772"><ele>725.2</ele><time>2026-05-02T10:04:35.92Z</time></trkpt><trkpt lat="44.1350599" lon="10.2413195"><ele>724.6</ele><time>2026-05-02T10:04:36.916Z</time></trkpt><trkpt lat="44.1351262" lon="10.2412412"><ele>724.0</ele><time>2026-05-02T10:04:37.916Z</time></trkpt><trkpt lat="44.1351895" lon="10.2411534"><ele>721.5</ele><time>2026-05-02T10:04:38.915Z</time></trkpt><trkpt lat="44.1352226" lon="10.2410499"><ele>719.0</ele><time>2026-05-02T10:04:39.915Z</time></trkpt><trkpt lat="44.1352216" lon="10.2409174"><ele>716.5</ele><time>2026-05-02T10:04:40.925Z</time></trkpt><trkpt lat="44.1352068" lon="10.2407763"><ele>714.0</ele><time>2026-05-02T10:04:41.915Z</time></trkpt><trkpt lat="44.135183" lon="10.2406656"><ele>711.5</ele><time>2026-05-02T10:04:42.914Z</time></trkpt><trkpt lat="44.1351353" lon="10.2405787"><ele>709.0</ele><time>2026-05-02T10:04:43.917Z</time></trkpt><trkpt lat="44.1350768" lon="10.2404992"><ele>709.6</ele><time>2026-05-02T10:04:44.919Z</time></trkpt><trkpt lat="44.1350022" lon="10.2404333"><ele>710.2</ele><time>2026-05-02T10:04:45.916Z</time></trkpt><trkpt lat="44.1348942" lon="10.2403877"><ele>710.8000000000001</ele><time>2026-05-02T10:04:46.92Z</time></trkpt><trkpt lat="44.1348075" lon="10.2403181"><ele>711.4000000000001</ele><time>2026-05-02T10:04:47.918Z</time></trkpt><trkpt lat="44.1347292" lon="10.2402367"><ele>712.0</ele><time>2026-05-02T10:04:48.916Z</time></trkpt><trkpt lat="44.1346535" lon="10.2401669"><ele>712.0</ele><time>2026-05-02T10:04:49.916Z</time></trkpt><trkpt lat="44.1345885" lon="10.2400964"><ele>712.0</ele><time>2026-05-02T10:04:50.914Z</time></trkpt><trkpt lat="44.1345223" lon="10.2400538"><ele>712.0</ele><time>2026-05-02T10:04:51.918Z</time></trkpt><trkpt lat="44.1344761" lon="10.2399477"><ele>712.0</ele><time>2026-05-02T10:04:53.913Z</time></trkpt><trkpt lat="44.1345762" lon="10.2398997"><ele>712.0</ele><time>2026-05-02T10:04:56.915Z</time></trkpt><trkpt lat="44.1346404" lon="10.239914"><ele>712.0</ele><time>2026-05-02T10:04:57.922Z</time></trkpt><trkpt lat="44.1347194" lon="10.2399414"><ele>712.0</ele><time>2026-05-02T10:04:58.915Z</time></trkpt><trkpt lat="44.1347975" lon="10.2399635"><ele>712.0</ele><time>2026-05-02T10:04:59.916Z</time></trkpt><trkpt lat="44.1348722" lon="10.2399949"><ele>712.0</ele><time>2026-05-02T10:05:00.918Z</time></trkpt><trkpt lat="44.1349477" lon="10.2400146"><ele>712.0</ele><time>2026-05-02T10:05:01.914Z</time></trkpt><trkpt lat="44.1350235" lon="10.2401424"><ele>712.0</ele><time>2026-05-02T10:05:02.915Z</time></trkpt><trkpt lat="44.135117" lon="10.2402155"><ele>708.5</ele><time>2026-05-02T10:05:03.913Z</time></trkpt><trkpt lat="44.1352285" lon="10.2403169"><ele>705.0</ele><time>2026-05-02T10:05:04.916Z</time></trkpt><trkpt lat="44.1353179" lon="10.2404256"><ele>701.5</ele><time>2026-05-02T10:05:05.917Z</time></trkpt><trkpt lat="44.1354168" lon="10.240526"><ele>698.0</ele><time>2026-05-02T10:05:06.915Z</time></trkpt><trkpt lat="44.1355036" lon="10.2406266"><ele>696.2</ele><time>2026-05-02T10:05:07.914Z</time></trkpt><trkpt lat="44.1355845" lon="10.2407258"><ele>694.4</ele><time>2026-05-02T10:05:08.915Z</time></trkpt><trkpt lat="44.1356692" lon="10.2408239"><ele>692.6</ele><time>2026-05-02T10:05:09.914Z</time></trkpt><trkpt lat="44.1357333" lon="10.2409422"><ele>690.8000000000001</ele><time>2026-05-02T10:05:10.915Z</time></trkpt><trkpt lat="44.1357902" lon="10.2410565"><ele>689.0</ele><time>2026-05-02T10:05:11.912Z</time></trkpt><trkpt lat="44.1358317" lon="10.2411898"><ele>689.0</ele><time>2026-05-02T10:05:12.913Z</time></trkpt><trkpt lat="44.135857" lon="10.2413163"><ele>689.0</ele><time>2026-05-02T10:05:13.917Z</time></trkpt><trkpt lat="44.1358723" lon="10.2414445"><ele>689.0</ele><time>2026-05-02T10:05:14.913Z</time></trkpt><trkpt lat="44.1358711" lon="10.2415675"><ele>689.0</ele><time>2026-05-02T10:05:15.913Z</time></trkpt><trkpt lat="44.1358602" lon="10.2416974"><ele>689.0</ele><time>2026-05-02T10:05:16.914Z</time></trkpt><trkpt lat="44.1358492" lon="10.2418366"><ele>688.75</ele><time>2026-05-02T10:05:17.913Z</time></trkpt><trkpt lat="44.1358387" lon="10.241981"><ele>688.5</ele><time>2026-05-02T10:05:18.914Z</time></trkpt><trkpt lat="44.1358324" lon="10.2421405"><ele>688.25</ele><time>2026-05-02T10:05:19.913Z</time></trkpt><trkpt lat="44.1358248" lon="10.2423083"><ele>688.0</ele><time>2026-05-02T10:05:20.914Z</time></trkpt><trkpt lat="44.1358145" lon="10.2424693"><ele>687.4</ele><time>2026-05-02T10:05:21.914Z</time></trkpt><trkpt lat="44.135802" lon="10.2426203"><ele>686.8</ele><time>2026-05-02T10:05:22.915Z</time></trkpt><trkpt lat="44.135789" lon="10.2427709"><ele>686.2</ele><time>2026-05-02T10:05:23.914Z</time></trkpt><trkpt lat="44.1357825" lon="10.2429092"><ele>685.6</ele><time>2026-05-02T10:05:24.914Z</time></trkpt><trkpt lat="44.135777" lon="10.2430477"><ele>685.0</ele><time>2026-05-02T10:05:25.915Z</time></trkpt><trkpt lat="44.135768" lon="10.2431823"><ele>684.6</ele><time>2026-05-02T10:05:26.917Z</time></trkpt><trkpt lat="44.1357609" lon="10.243316"><ele>684.2</ele><time>2026-05-02T10:05:27.915Z</time></trkpt><trkpt lat="44.1357502" lon="10.2434601"><ele>683.8</ele><time>2026-05-02T10:05:28.917Z</time></trkpt><trkpt lat="44.1357428" lon="10.2436089"><ele>683.4</ele><time>2026-05-02T10:05:29.913Z</time></trkpt><trkpt lat="44.13574" lon="10.2437546"><ele>683.0</ele><time>2026-05-02T10:05:30.916Z</time></trkpt><trkpt lat="44.1357393" lon="10.2439053"><ele>682.5999999999999</ele><time>2026-05-02T10:05:31.914Z</time></trkpt><trkpt lat="44.1357472" lon="10.2440479"><ele>682.1999999999999</ele><time>2026-05-02T10:05:32.915Z</time></trkpt><trkpt lat="44.1357656" lon="10.2441934"><ele>681.8</ele><time>2026-05-02T10:05:33.916Z</time></trkpt><trkpt lat="44.135799" lon="10.2443374"><ele>681.4</ele><time>2026-05-02T10:05:34.916Z</time></trkpt><trkpt lat="44.1358489" lon="10.2444791"><ele>681.0</ele><time>2026-05-02T10:05:35.915Z</time></trkpt><trkpt lat="44.1359024" lon="10.2446172"><ele>681.0</ele><time>2026-05-02T10:05:36.915Z</time></trkpt><trkpt lat="44.1359632" lon="10.2447583"><ele>681.0</ele><time>2026-05-02T10:05:37.917Z</time></trkpt><trkpt lat="44.1360273" lon="10.2449112"><ele>681.0</ele><time>2026-05-02T10:05:38.916Z</time></trkpt><trkpt lat="44.1360971" lon="10.2450737"><ele>681.0</ele><time>2026-05-02T10:05:39.918Z</time></trkpt><trkpt lat="44.1361627" lon="10.2452349"><ele>681.75</ele><time>2026-05-02T10:05:40.918Z</time></trkpt><trkpt lat="44.1362238" lon="10.2453915"><ele>682.5</ele><time>2026-05-02T10:05:41.918Z</time></trkpt><trkpt lat="44.1362888" lon="10.2455407"><ele>683.25</ele><time>2026-05-02T10:05:42.915Z</time></trkpt><trkpt lat="44.1363516" lon="10.2456903"><ele>684.0</ele><time>2026-05-02T10:05:43.916Z</time></trkpt><trkpt lat="44.1364159" lon="10.2458372"><ele>683.0</ele><time>2026-05-02T10:05:44.913Z</time></trkpt><trkpt lat="44.1364803" lon="10.2459861"><ele>682.0</ele><time>2026-05-02T10:05:45.916Z</time></trkpt><trkpt lat="44.1365467" lon="10.2461335"><ele>681.0</ele><time>2026-05-02T10:05:46.921Z</time></trkpt><trkpt lat="44.136619" lon="10.2462803"><ele>680.0</ele><time>2026-05-02T10:05:47.917Z</time></trkpt><trkpt lat="44.1366956" lon="10.2464258"><ele>681.5</ele><time>2026-05-02T10:05:48.917Z</time></trkpt><trkpt lat="44.1367808" lon="10.2465605"><ele>683.0</ele><time>2026-05-02T10:05:49.918Z</time></trkpt><trkpt lat="44.1368774" lon="10.2466655"><ele>684.5</ele><time>2026-05-02T10:05:50.918Z</time></trkpt><trkpt lat="44.1369763" lon="10.2467571"><ele>686.0</ele><time>2026-05-02T10:05:51.916Z</time></trkpt><trkpt lat="44.1370729" lon="10.2468452"><ele>686.0</ele><time>2026-05-02T10:05:52.92Z</time></trkpt><trkpt lat="44.137171" lon="10.2469228"><ele>686.0</ele><time>2026-05-02T10:05:53.915Z</time></trkpt><trkpt lat="44.1372771" lon="10.2470037"><ele>686.0</ele><time>2026-05-02T10:05:54.916Z</time></trkpt><trkpt lat="44.1373865" lon="10.2470822"><ele>686.0</ele><time>2026-05-02T10:05:55.916Z</time></trkpt><trkpt lat="44.1375051" lon="10.2471657"><ele>684.5</ele><time>2026-05-02T10:05:56.918Z</time></trkpt><trkpt lat="44.1376319" lon="10.2472526"><ele>683.0</ele><time>2026-05-02T10:05:57.917Z</time></trkpt><trkpt lat="44.1377542" lon="10.2473266"><ele>681.5</ele><time>2026-05-02T10:05:58.917Z</time></trkpt><trkpt lat="44.1378719" lon="10.2474026"><ele>680.0</ele><time>2026-05-02T10:05:59.917Z</time></trkpt><trkpt lat="44.1379957" lon="10.2474839"><ele>680.0</ele><time>2026-05-02T10:06:00.918Z</time></trkpt><trkpt lat="44.1381185" lon="10.2475658"><ele>680.0</ele><time>2026-05-02T10:06:01.913Z</time></trkpt><trkpt lat="44.1382369" lon="10.2476525"><ele>680.0</ele><time>2026-05-02T10:06:02.914Z</time></trkpt><trkpt lat="44.1383486" lon="10.2477417"><ele>680.0</ele><time>2026-05-02T10:06:03.916Z</time></trkpt><trkpt lat="44.1384504" lon="10.2478444"><ele>678.5</ele><time>2026-05-02T10:06:04.916Z</time></trkpt><trkpt lat="44.1385407" lon="10.2479507"><ele>677.0</ele><time>2026-05-02T10:06:05.914Z</time></trkpt><trkpt lat="44.1386173" lon="10.2480673"><ele>675.5</ele><time>2026-05-02T10:06:06.916Z</time></trkpt><trkpt lat="44.1386839" lon="10.2481981"><ele>674.0</ele><time>2026-05-02T10:06:07.918Z</time></trkpt><trkpt lat="44.1387581" lon="10.2483232"><ele>673.5</ele><time>2026-05-02T10:06:08.917Z</time></trkpt><trkpt lat="44.138805" lon="10.2484976"><ele>673.0</ele><time>2026-05-02T10:06:09.917Z</time></trkpt><trkpt lat="44.1388596" lon="10.2486482"><ele>672.5</ele><time>2026-05-02T10:06:10.916Z</time></trkpt><trkpt lat="44.138912" lon="10.2488081"><ele>672.0</ele><time>2026-05-02T10:06:11.916Z</time></trkpt><trkpt lat="44.1389707" lon="10.2489801"><ele>671.75</ele><time>2026-05-02T10:06:12.917Z</time></trkpt><trkpt lat="44.1390265" lon="10.2491566"><ele>671.5</ele><time>2026-05-02T10:06:13.918Z</time></trkpt><trkpt lat="44.139084" lon="10.2493326"><ele>671.25</ele><time>2026-05-02T10:06:14.918Z</time></trkpt><trkpt lat="44.1391404" lon="10.249499"><ele>671.0</ele><time>2026-05-02T10:06:15.916Z</time></trkpt><trkpt lat="44.1391893" lon="10.249643"><ele>671.0</ele><time>2026-05-02T10:06:16.917Z</time></trkpt><trkpt lat="44.1392569" lon="10.2497828"><ele>671.0</ele><time>2026-05-02T10:06:17.916Z</time></trkpt><trkpt lat="44.1393464" lon="10.2499001"><ele>671.0</ele><time>2026-05-02T10:06:18.916Z</time></trkpt><trkpt lat="44.1394597" lon="10.2500046"><ele>671.0</ele><time>2026-05-02T10:06:19.913Z</time></trkpt><trkpt lat="44.1396019" lon="10.2500881"><ele>670.6666666666666</ele><time>2026-05-02T10:06:20.916Z</time></trkpt><trkpt lat="44.1397567" lon="10.2501472"><ele>670.3333333333334</ele><time>2026-05-02T10:06:21.916Z</time></trkpt><trkpt lat="44.1399188" lon="10.250199"><ele>670.0</ele><time>2026-05-02T10:06:22.917Z</time></trkpt><trkpt lat="44.1400644" lon="10.2502598"><ele>670.0</ele><time>2026-05-02T10:06:23.915Z</time></trkpt><trkpt lat="44.1402115" lon="10.2503487"><ele>670.0</ele><time>2026-05-02T10:06:24.915Z</time></trkpt><trkpt lat="44.1403626" lon="10.2504694"><ele>670.0</ele><time>2026-05-02T10:06:25.915Z</time></trkpt><trkpt lat="44.1405088" lon="10.2506041"><ele>669.0</ele><time>2026-05-02T10:06:26.916Z</time></trkpt><trkpt lat="44.1406509" lon="10.2507363"><ele>668.0</ele><time>2026-05-02T10:06:27.917Z</time></trkpt><trkpt lat="44.1407937" lon="10.2508607"><ele>667.0</ele><time>2026-05-02T10:06:28.917Z</time></trkpt><trkpt lat="44.140936" lon="10.2509905"><ele>665.6666666666667</ele><time>2026-05-02T10:06:29.917Z</time></trkpt><trkpt lat="44.1410806" lon="10.2511228"><ele>664.3333333333334</ele><time>2026-05-02T10:06:30.917Z</time></trkpt><trkpt lat="44.1412142" lon="10.2512522"><ele>663.0</ele><time>2026-05-02T10:06:31.918Z</time></trkpt><trkpt lat="44.1413412" lon="10.251383"><ele>662.3333333333334</ele><time>2026-05-02T10:06:32.916Z</time></trkpt><trkpt lat="44.1414684" lon="10.251513"><ele>661.6666666666667</ele><time>2026-05-02T10:06:33.915Z</time></trkpt><trkpt lat="44.1415856" lon="10.2516366"><ele>661.0</ele><time>2026-05-02T10:06:34.915Z</time></trkpt><trkpt lat="44.1417059" lon="10.2517599"><ele>660.5</ele><time>2026-05-02T10:06:35.918Z</time></trkpt><trkpt lat="44.1418257" lon="10.2518798"><ele>660.0</ele><time>2026-05-02T10:06:36.915Z</time></trkpt><trkpt lat="44.1419429" lon="10.2520006"><ele>659.5</ele><time>2026-05-02T10:06:37.917Z</time></trkpt><trkpt lat="44.1420615" lon="10.252119"><ele>659.0</ele><time>2026-05-02T10:06:38.916Z</time></trkpt><trkpt lat="44.1421544" lon="10.2522611"><ele>659.0</ele><time>2026-05-02T10:06:39.917Z</time></trkpt><trkpt lat="44.1422493" lon="10.2523951"><ele>659.0</ele><time>2026-05-02T10:06:40.917Z</time></trkpt><trkpt lat="44.1423331" lon="10.2525285"><ele>659.0</ele><time>2026-05-02T10:06:41.916Z</time></trkpt><trkpt lat="44.1424128" lon="10.2526554"><ele>659.0</ele><time>2026-05-02T10:06:42.916Z</time></trkpt><trkpt lat="44.1424959" lon="10.2527607"><ele>660.0</ele><time>2026-05-02T10:06:43.915Z</time></trkpt><trkpt lat="44.1425999" lon="10.2528334"><ele>661.0</ele><time>2026-05-02T10:06:44.914Z</time></trkpt><trkpt lat="44.1427223" lon="10.2528736"><ele>662.0</ele><time>2026-05-02T10:06:45.917Z</time></trkpt><trkpt lat="44.1428491" lon="10.2528822"><ele>663.0</ele><time>2026-05-02T10:06:46.914Z</time></trkpt><trkpt lat="44.1429715" lon="10.25287"><ele>663.0</ele><time>2026-05-02T10:06:47.914Z</time></trkpt><trkpt lat="44.1430936" lon="10.2528437"><ele>663.0</ele><time>2026-05-02T10:06:48.917Z</time></trkpt><trkpt lat="44.1432086" lon="10.2528054"><ele>663.0</ele><time>2026-05-02T10:06:49.917Z</time></trkpt><trkpt lat="44.1433236" lon="10.2527627"><ele>663.0</ele><time>2026-05-02T10:06:50.916Z</time></trkpt><trkpt lat="44.1434358" lon="10.2527278"><ele>663.5</ele><time>2026-05-02T10:06:51.919Z</time></trkpt><trkpt lat="44.1435447" lon="10.252695"><ele>664.0</ele><time>2026-05-02T10:06:52.916Z</time></trkpt><trkpt lat="44.1436581" lon="10.2526386"><ele>664.5</ele><time>2026-05-02T10:06:53.914Z</time></trkpt><trkpt lat="44.1437727" lon="10.252586"><ele>665.0</ele><time>2026-05-02T10:06:54.914Z</time></trkpt><trkpt lat="44.1438858" lon="10.2525281"><ele>665.0</ele><time>2026-05-02T10:06:55.916Z</time></trkpt><trkpt lat="44.1439966" lon="10.2524783"><ele>665.0</ele><time>2026-05-02T10:06:56.918Z</time></trkpt><trkpt lat="44.1441065" lon="10.2524009"><ele>665.0</ele><time>2026-05-02T10:06:57.917Z</time></trkpt><trkpt lat="44.1442175" lon="10.2523318"><ele>665.0</ele><time>2026-05-02T10:06:58.917Z</time></trkpt><trkpt lat="44.1443182" lon="10.2522713"><ele>666.0</ele><time>2026-05-02T10:06:59.917Z</time></trkpt><trkpt lat="44.1444246" lon="10.2522091"><ele>667.0</ele><time>2026-05-02T10:07:00.916Z</time></trkpt><trkpt lat="44.1445435" lon="10.25215"><ele>668.0</ele><time>2026-05-02T10:07:01.916Z</time></trkpt><trkpt lat="44.1446361" lon="10.2520936"><ele>669.0</ele><time>2026-05-02T10:07:02.916Z</time></trkpt><trkpt lat="44.1447379" lon="10.2520327"><ele>669.0</ele><time>2026-05-02T10:07:03.917Z</time></trkpt><trkpt lat="44.1448344" lon="10.2519792"><ele>669.0</ele><time>2026-05-02T10:07:04.918Z</time></trkpt><trkpt lat="44.1449357" lon="10.2519243"><ele>669.0</ele><time>2026-05-02T10:07:05.915Z</time></trkpt><trkpt lat="44.1450273" lon="10.2518736"><ele>669.0</ele><time>2026-05-02T10:07:06.915Z</time></trkpt><trkpt lat="44.1451148" lon="10.2518232"><ele>669.0</ele><time>2026-05-02T10:07:07.916Z</time></trkpt><trkpt lat="44.1452124" lon="10.2517674"><ele>664.5</ele><time>2026-05-02T10:07:08.916Z</time></trkpt><trkpt lat="44.1453183" lon="10.2517222"><ele>660.0</ele><time>2026-05-02T10:07:09.917Z</time></trkpt><trkpt lat="44.1454307" lon="10.2516965"><ele>655.5</ele><time>2026-05-02T10:07:10.916Z</time></trkpt><trkpt lat="44.145543" lon="10.25168"><ele>651.0</ele><time>2026-05-02T10:07:11.917Z</time></trkpt><trkpt lat="44.1456569" lon="10.2516668"><ele>650.75</ele><time>2026-05-02T10:07:12.915Z</time></trkpt><trkpt lat="44.145776" lon="10.2516581"><ele>650.5</ele><time>2026-05-02T10:07:13.915Z</time></trkpt><trkpt lat="44.1458918" lon="10.251659"><ele>650.25</ele><time>2026-05-02T10:07:14.915Z</time></trkpt><trkpt lat="44.1460127" lon="10.2516458"><ele>650.0</ele><time>2026-05-02T10:07:15.916Z</time></trkpt><trkpt lat="44.1461376" lon="10.2516158"><ele>650.0</ele><time>2026-05-02T10:07:16.914Z</time></trkpt><trkpt lat="44.1462525" lon="10.2515545"><ele>650.0</ele><time>2026-05-02T10:07:17.917Z</time></trkpt><trkpt lat="44.1463793" lon="10.2514523"><ele>650.0</ele><time>2026-05-02T10:07:18.918Z</time></trkpt><trkpt lat="44.1465137" lon="10.25132"><ele>650.0</ele><time>2026-05-02T10:07:19.915Z</time></trkpt><trkpt lat="44.1466579" lon="10.2511756"><ele>651.3333333333333</ele><time>2026-05-02T10:07:20.921Z</time></trkpt><trkpt lat="44.1468202" lon="10.2510249"><ele>652.6666666666666</ele><time>2026-05-02T10:07:21.919Z</time></trkpt><trkpt lat="44.1469905" lon="10.250868"><ele>654.0</ele><time>2026-05-02T10:07:22.918Z</time></trkpt><trkpt lat="44.1471493" lon="10.250716"><ele>655.3333333333334</ele><time>2026-05-02T10:07:23.917Z</time></trkpt><trkpt lat="44.1473048" lon="10.2505858"><ele>656.6666666666667</ele><time>2026-05-02T10:07:24.918Z</time></trkpt><trkpt lat="44.1474626" lon="10.2504718"><ele>658.0</ele><time>2026-05-02T10:07:25.92Z</time></trkpt><trkpt lat="44.1476265" lon="10.2503798"><ele>658.0</ele><time>2026-05-02T10:07:26.917Z</time></trkpt><trkpt lat="44.1477972" lon="10.2502973"><ele>658.0</ele><time>2026-05-02T10:07:27.916Z</time></trkpt><trkpt lat="44.1479639" lon="10.2502107"><ele>658.0</ele><time>2026-05-02T10:07:28.916Z</time></trkpt><trkpt lat="44.1481223" lon="10.250108"><ele>658.0</ele><time>2026-05-02T10:07:29.918Z</time></trkpt><trkpt lat="44.1482783" lon="10.2499912"><ele>658.0</ele><time>2026-05-02T10:07:30.918Z</time></trkpt><trkpt lat="44.1484342" lon="10.2498787"><ele>658.0</ele><time>2026-05-02T10:07:31.916Z</time></trkpt><trkpt lat="44.1485566" lon="10.2497881"><ele>658.0</ele><time>2026-05-02T10:07:32.917Z</time></trkpt><trkpt lat="44.1486874" lon="10.2496761"><ele>658.0</ele><time>2026-05-02T10:07:33.915Z</time></trkpt><trkpt lat="44.1488073" lon="10.2495739"><ele>658.0</ele><time>2026-05-02T10:07:34.914Z</time></trkpt><trkpt lat="44.1489425" lon="10.249475"><ele>658.0</ele><time>2026-05-02T10:07:35.915Z</time></trkpt><trkpt lat="44.1490674" lon="10.2493821"><ele>654.0</ele><time>2026-05-02T10:07:36.913Z</time></trkpt><trkpt lat="44.1491883" lon="10.2492927"><ele>650.0</ele><time>2026-05-02T10:07:37.917Z</time></trkpt><trkpt lat="44.1493104" lon="10.2492163"><ele>646.0</ele><time>2026-05-02T10:07:38.912Z</time></trkpt><trkpt lat="44.1494389" lon="10.249168"><ele>642.0</ele><time>2026-05-02T10:07:39.917Z</time></trkpt><trkpt lat="44.1495748" lon="10.2491426"><ele>642.0</ele><time>2026-05-02T10:07:40.915Z</time></trkpt><trkpt lat="44.1497214" lon="10.2491078"><ele>642.0</ele><time>2026-05-02T10:07:41.915Z</time></trkpt><trkpt lat="44.149881" lon="10.2490758"><ele>642.0</ele><time>2026-05-02T10:07:42.916Z</time></trkpt><trkpt lat="44.1500439" lon="10.2490356"><ele>639.0</ele><time>2026-05-02T10:07:43.916Z</time></trkpt><trkpt lat="44.1502181" lon="10.248966"><ele>636.0</ele><time>2026-05-02T10:07:44.915Z</time></trkpt><trkpt lat="44.1503869" lon="10.2488648"><ele>633.0</ele><time>2026-05-02T10:07:45.915Z</time></trkpt><trkpt lat="44.1505492" lon="10.2487515"><ele>634.6666666666666</ele><time>2026-05-02T10:07:46.914Z</time></trkpt><trkpt lat="44.1507135" lon="10.2486277"><ele>636.3333333333333</ele><time>2026-05-02T10:07:47.917Z</time></trkpt><trkpt lat="44.1508696" lon="10.2485121"><ele>638.0</ele><time>2026-05-02T10:07:48.916Z</time></trkpt><trkpt lat="44.151019" lon="10.2484025"><ele>638.0</ele><time>2026-05-02T10:07:49.915Z</time></trkpt><trkpt lat="44.1511703" lon="10.2483281"><ele>638.0</ele><time>2026-05-02T10:07:50.917Z</time></trkpt><trkpt lat="44.1513153" lon="10.2482757"><ele>638.0</ele><time>2026-05-02T10:07:51.915Z</time></trkpt><trkpt lat="44.1514662" lon="10.248265"><ele>634.75</ele><time>2026-05-02T10:07:52.914Z</time></trkpt><trkpt lat="44.1516197" lon="10.2482704"><ele>631.5</ele><time>2026-05-02T10:07:53.915Z</time></trkpt><trkpt lat="44.1517671" lon="10.248284"><ele>628.25</ele><time>2026-05-02T10:07:54.918Z</time></trkpt><trkpt lat="44.1519043" lon="10.2483097"><ele>625.0</ele><time>2026-05-02T10:07:55.915Z</time></trkpt><trkpt lat="44.1520379" lon="10.2483313"><ele>625.0</ele><time>2026-05-02T10:07:56.915Z</time></trkpt><trkpt lat="44.1521616" lon="10.2483486"><ele>625.0</ele><time>2026-05-02T10:07:57.915Z</time></trkpt><trkpt lat="44.1522826" lon="10.2483513"><ele>625.0</ele><time>2026-05-02T10:07:58.917Z</time></trkpt><trkpt lat="44.1523995" lon="10.2483311"><ele>625.0</ele><time>2026-05-02T10:07:59.917Z</time></trkpt><trkpt lat="44.1525207" lon="10.2483257"><ele>624.75</ele><time>2026-05-02T10:08:00.916Z</time></trkpt><trkpt lat="44.1526512" lon="10.2482436"><ele>624.5</ele><time>2026-05-02T10:08:01.919Z</time></trkpt><trkpt lat="44.1527761" lon="10.2481793"><ele>624.25</ele><time>2026-05-02T10:08:02.916Z</time></trkpt><trkpt lat="44.1529075" lon="10.248099"><ele>624.0</ele><time>2026-05-02T10:08:03.916Z</time></trkpt><trkpt lat="44.1530492" lon="10.2480147"><ele>624.25</ele><time>2026-05-02T10:08:04.917Z</time></trkpt><trkpt lat="44.1531852" lon="10.247936"><ele>624.5</ele><time>2026-05-02T10:08:05.917Z</time></trkpt><trkpt lat="44.1533241" lon="10.2478622"><ele>624.75</ele><time>2026-05-02T10:08:06.918Z</time></trkpt><trkpt lat="44.1534401" lon="10.2478016"><ele>625.0</ele><time>2026-05-02T10:08:07.917Z</time></trkpt><trkpt lat="44.153571" lon="10.2477376"><ele>625.0</ele><time>2026-05-02T10:08:08.917Z</time></trkpt><trkpt lat="44.1537068" lon="10.2476938"><ele>625.0</ele><time>2026-05-02T10:08:09.916Z</time></trkpt><trkpt lat="44.153852" lon="10.2476617"><ele>625.0</ele><time>2026-05-02T10:08:10.914Z</time></trkpt><trkpt lat="44.1540038" lon="10.2476405"><ele>625.0</ele><time>2026-05-02T10:08:11.917Z</time></trkpt><trkpt lat="44.1541628" lon="10.2476273"><ele>622.6666666666667</ele><time>2026-05-02T10:08:12.918Z</time></trkpt><trkpt lat="44.1543271" lon="10.2476194"><ele>620.3333333333334</ele><time>2026-05-02T10:08:13.915Z</time></trkpt><trkpt lat="44.1544873" lon="10.247609"><ele>618.0</ele><time>2026-05-02T10:08:14.917Z</time></trkpt><trkpt lat="44.1546445" lon="10.2475906"><ele>618.0</ele><time>2026-05-02T10:08:15.917Z</time></trkpt><trkpt lat="44.1547967" lon="10.2475739"><ele>618.0</ele><time>2026-05-02T10:08:16.915Z</time></trkpt><trkpt lat="44.1549449" lon="10.247566"><ele>618.0</ele><time>2026-05-02T10:08:17.916Z</time></trkpt><trkpt lat="44.155092" lon="10.2475593"><ele>618.0</ele><time>2026-05-02T10:08:18.917Z</time></trkpt><trkpt lat="44.1552389" lon="10.2475555"><ele>617.5</ele><time>2026-05-02T10:08:19.918Z</time></trkpt><trkpt lat="44.1553827" lon="10.2475461"><ele>617.0</ele><time>2026-05-02T10:08:20.916Z</time></trkpt><trkpt lat="44.1555236" lon="10.2475333"><ele>616.5</ele><time>2026-05-02T10:08:21.917Z</time></trkpt><trkpt lat="44.155663" lon="10.2475115"><ele>616.0</ele><time>2026-05-02T10:08:22.916Z</time></trkpt><trkpt lat="44.1558089" lon="10.2474625"><ele>615.6666666666667</ele><time>2026-05-02T10:08:23.915Z</time></trkpt><trkpt lat="44.1559509" lon="10.2473877"><ele>615.3333333333334</ele><time>2026-05-02T10:08:24.914Z</time></trkpt><trkpt lat="44.1560969" lon="10.2472923"><ele>615.0</ele><time>2026-05-02T10:08:25.917Z</time></trkpt><trkpt lat="44.1562407" lon="10.2471729"><ele>615.0</ele><time>2026-05-02T10:08:26.916Z</time></trkpt><trkpt lat="44.1563936" lon="10.2470465"><ele>615.0</ele><time>2026-05-02T10:08:27.929Z</time></trkpt><trkpt lat="44.1565523" lon="10.2469093"><ele>615.0</ele><time>2026-05-02T10:08:28.917Z</time></trkpt><trkpt lat="44.1567117" lon="10.246776"><ele>615.0</ele><time>2026-05-02T10:08:29.917Z</time></trkpt><trkpt lat="44.1568732" lon="10.2466384"><ele>615.0</ele><time>2026-05-02T10:08:30.916Z</time></trkpt><trkpt lat="44.157032" lon="10.2464957"><ele>615.0</ele><time>2026-05-02T10:08:31.917Z</time></trkpt><trkpt lat="44.1571826" lon="10.2463615"><ele>615.6666666666666</ele><time>2026-05-02T10:08:32.916Z</time></trkpt><trkpt lat="44.1573317" lon="10.2462297"><ele>616.3333333333333</ele><time>2026-05-02T10:08:33.919Z</time></trkpt><trkpt lat="44.1574814" lon="10.24609"><ele>617.0</ele><time>2026-05-02T10:08:34.918Z</time></trkpt><trkpt lat="44.1576378" lon="10.2459656"><ele>617.0</ele><time>2026-05-02T10:08:35.917Z</time></trkpt><trkpt lat="44.1577784" lon="10.2458406"><ele>617.0</ele><time>2026-05-02T10:08:36.916Z</time></trkpt><trkpt lat="44.1579194" lon="10.2457228"><ele>617.0</ele><time>2026-05-02T10:08:37.914Z</time></trkpt><trkpt lat="44.1580603" lon="10.2456127"><ele>623.3333333333333</ele><time>2026-05-02T10:08:38.916Z</time></trkpt><trkpt lat="44.1582103" lon="10.2455198"><ele>629.6666666666666</ele><time>2026-05-02T10:08:39.915Z</time></trkpt><trkpt lat="44.1583645" lon="10.2454481"><ele>636.0</ele><time>2026-05-02T10:08:40.914Z</time></trkpt><trkpt lat="44.1585262" lon="10.2454132"><ele>636.0</ele><time>2026-05-02T10:08:41.918Z</time></trkpt><trkpt lat="44.1586925" lon="10.2453851"><ele>636.0</ele><time>2026-05-02T10:08:42.913Z</time></trkpt><trkpt lat="44.1588642" lon="10.2453567"><ele>636.0</ele><time>2026-05-02T10:08:43.916Z</time></trkpt><trkpt lat="44.1590102" lon="10.2453275"><ele>634.0</ele><time>2026-05-02T10:08:44.917Z</time></trkpt><trkpt lat="44.159159" lon="10.2452918"><ele>632.0</ele><time>2026-05-02T10:08:45.918Z</time></trkpt><trkpt lat="44.1593014" lon="10.2452415"><ele>630.0</ele><time>2026-05-02T10:08:46.917Z</time></trkpt><trkpt lat="44.1594421" lon="10.24516"><ele>630.0</ele><time>2026-05-02T10:08:47.916Z</time></trkpt><trkpt lat="44.1595718" lon="10.2450624"><ele>630.0</ele><time>2026-05-02T10:08:48.917Z</time></trkpt><trkpt lat="44.1597083" lon="10.2449379"><ele>630.0</ele><time>2026-05-02T10:08:49.917Z</time></trkpt><trkpt lat="44.1598269" lon="10.2448135"><ele>628.25</ele><time>2026-05-02T10:08:50.916Z</time></trkpt><trkpt lat="44.1599346" lon="10.2446895"><ele>626.5</ele><time>2026-05-02T10:08:51.919Z</time></trkpt><trkpt lat="44.1600207" lon="10.2445389"><ele>624.75</ele><time>2026-05-02T10:08:52.917Z</time></trkpt><trkpt lat="44.1600975" lon="10.2443599"><ele>623.0</ele><time>2026-05-02T10:08:53.915Z</time></trkpt><trkpt lat="44.1601491" lon="10.2441621"><ele>626.3333333333333</ele><time>2026-05-02T10:08:54.915Z</time></trkpt><trkpt lat="44.1601995" lon="10.2439546"><ele>629.6666666666666</ele><time>2026-05-02T10:08:55.917Z</time></trkpt><trkpt lat="44.1602365" lon="10.2437232"><ele>633.0</ele><time>2026-05-02T10:08:56.916Z</time></trkpt><trkpt lat="44.1602775" lon="10.2434857"><ele>633.0</ele><time>2026-05-02T10:08:57.918Z</time></trkpt><trkpt lat="44.1603162" lon="10.243288"><ele>633.0</ele><time>2026-05-02T10:08:58.915Z</time></trkpt><trkpt lat="44.1603504" lon="10.2430849"><ele>633.0</ele><time>2026-05-02T10:08:59.915Z</time></trkpt><trkpt lat="44.1603741" lon="10.2428858"><ele>633.0</ele><time>2026-05-02T10:09:00.915Z</time></trkpt><trkpt lat="44.1603805" lon="10.2426833"><ele>633.75</ele><time>2026-05-02T10:09:01.916Z</time></trkpt><trkpt lat="44.1603728" lon="10.2424919"><ele>634.5</ele><time>2026-05-02T10:09:02.915Z</time></trkpt><trkpt lat="44.1603633" lon="10.2423003"><ele>635.25</ele><time>2026-05-02T10:09:03.916Z</time></trkpt><trkpt lat="44.1603681" lon="10.2421191"><ele>636.0</ele><time>2026-05-02T10:09:04.916Z</time></trkpt><trkpt lat="44.1603924" lon="10.2419588"><ele>636.1666666666666</ele><time>2026-05-02T10:09:05.917Z</time></trkpt><trkpt lat="44.1604258" lon="10.2418497"><ele>636.3333333333334</ele><time>2026-05-02T10:09:06.915Z</time></trkpt><trkpt lat="44.1605151" lon="10.2417406"><ele>636.5</ele><time>2026-05-02T10:09:08.914Z</time></trkpt><trkpt lat="44.1605705" lon="10.2416837"><ele>636.6666666666667</ele><time>2026-05-02T10:09:09.917Z</time></trkpt><trkpt lat="44.1606293" lon="10.2416068"><ele>636.8333333333334</ele><time>2026-05-02T10:09:10.917Z</time></trkpt><trkpt lat="44.1606855" lon="10.2415144"><ele>637.0</ele><time>2026-05-02T10:09:11.917Z</time></trkpt><trkpt lat="44.160744" lon="10.241423"><ele>631.25</ele><time>2026-05-02T10:09:12.915Z</time></trkpt><trkpt lat="44.1608481" lon="10.2414335"><ele>625.5</ele><time>2026-05-02T10:09:13.918Z</time></trkpt><trkpt lat="44.1609536" lon="10.2414124"><ele>619.75</ele><time>2026-05-02T10:09:14.918Z</time></trkpt><trkpt lat="44.1610793" lon="10.241396"><ele>614.0</ele><time>2026-05-02T10:09:15.917Z</time></trkpt><trkpt lat="44.1612011" lon="10.2413754"><ele>614.0</ele><time>2026-05-02T10:09:16.916Z</time></trkpt><trkpt lat="44.161317" lon="10.2413764"><ele>614.0</ele><time>2026-05-02T10:09:17.916Z</time></trkpt><trkpt lat="44.1614278" lon="10.2413703"><ele>614.0</ele><time>2026-05-02T10:09:18.916Z</time></trkpt><trkpt lat="44.1615228" lon="10.2413615"><ele>614.0</ele><time>2026-05-02T10:09:19.916Z</time></trkpt><trkpt lat="44.1616108" lon="10.2413566"><ele>614.0</ele><time>2026-05-02T10:09:20.915Z</time></trkpt><trkpt lat="44.1616849" lon="10.2413705"><ele>613.1666666666666</ele><time>2026-05-02T10:09:21.914Z</time></trkpt><trkpt lat="44.1617543" lon="10.241412"><ele>612.3333333333333</ele><time>2026-05-02T10:09:22.915Z</time></trkpt><trkpt lat="44.1618189" lon="10.2414936"><ele>611.5</ele><time>2026-05-02T10:09:23.916Z</time></trkpt><trkpt lat="44.1618642" lon="10.241596"><ele>610.6666666666666</ele><time>2026-05-02T10:09:24.916Z</time></trkpt><trkpt lat="44.1619195" lon="10.2417033"><ele>609.8333333333334</ele><time>2026-05-02T10:09:25.914Z</time></trkpt><trkpt lat="44.1618999" lon="10.2418129"><ele>609.0</ele><time>2026-05-02T10:09:26.916Z</time></trkpt><trkpt lat="44.1619164" lon="10.2419127"><ele>608.8</ele><time>2026-05-02T10:09:27.913Z</time></trkpt><trkpt lat="44.1619369" lon="10.2419975"><ele>608.5999999999999</ele><time>2026-05-02T10:09:28.917Z</time></trkpt><trkpt lat="44.1619556" lon="10.2420894"><ele>608.4</ele><time>2026-05-02T10:09:29.917Z</time></trkpt><trkpt lat="44.1619658" lon="10.2422134"><ele>608.1999999999999</ele><time>2026-05-02T10:09:30.916Z</time></trkpt><trkpt lat="44.1619715" lon="10.2423706"><ele>608.0</ele><time>2026-05-02T10:09:31.914Z</time></trkpt><trkpt lat="44.1619777" lon="10.2425405"><ele>608.0</ele><time>2026-05-02T10:09:32.916Z</time></trkpt><trkpt lat="44.1620006" lon="10.2427081"><ele>608.0</ele><time>2026-05-02T10:09:33.916Z</time></trkpt><trkpt lat="44.1620436" lon="10.2428587"><ele>608.0</ele><time>2026-05-02T10:09:34.917Z</time></trkpt><trkpt lat="44.1621189" lon="10.2429867"><ele>608.0</ele><time>2026-05-02T10:09:35.917Z</time></trkpt><trkpt lat="44.1622083" lon="10.2431159"><ele>608.5</ele><time>2026-05-02T10:09:36.916Z</time></trkpt><trkpt lat="44.1622958" lon="10.2432527"><ele>609.0</ele><time>2026-05-02T10:09:37.92Z</time></trkpt><trkpt lat="44.1623819" lon="10.2433939"><ele>609.5</ele><time>2026-05-02T10:09:38.917Z</time></trkpt><trkpt lat="44.162454" lon="10.2435422"><ele>610.0</ele><time>2026-05-02T10:09:39.916Z</time></trkpt><trkpt lat="44.1625077" lon="10.2437005"><ele>610.0</ele><time>2026-05-02T10:09:40.916Z</time></trkpt><trkpt lat="44.1625462" lon="10.2438772"><ele>610.0</ele><time>2026-05-02T10:09:41.917Z</time></trkpt><trkpt lat="44.1625581" lon="10.2440597"><ele>610.0</ele><time>2026-05-02T10:09:42.917Z</time></trkpt><trkpt lat="44.1625417" lon="10.2442507"><ele>610.0</ele><time>2026-05-02T10:09:43.914Z</time></trkpt><trkpt lat="44.1625058" lon="10.2444432"><ele>609.25</ele><time>2026-05-02T10:09:44.916Z</time></trkpt><trkpt lat="44.1624591" lon="10.244626"><ele>608.5</ele><time>2026-05-02T10:09:45.916Z</time></trkpt><trkpt lat="44.1624157" lon="10.2448019"><ele>607.75</ele><time>2026-05-02T10:09:46.915Z</time></trkpt><trkpt lat="44.1623751" lon="10.2449697"><ele>607.0</ele><time>2026-05-02T10:09:47.915Z</time></trkpt><trkpt lat="44.1623482" lon="10.2451376"><ele>607.0</ele><time>2026-05-02T10:09:48.916Z</time></trkpt><trkpt lat="44.1623209" lon="10.2453027"><ele>607.0</ele><time>2026-05-02T10:09:49.915Z</time></trkpt><trkpt lat="44.1623512" lon="10.2454487"><ele>607.0</ele><time>2026-05-02T10:09:50.916Z</time></trkpt><trkpt lat="44.1623781" lon="10.2455902"><ele>607.0</ele><time>2026-05-02T10:09:51.915Z</time></trkpt><trkpt lat="44.1624271" lon="10.2457383"><ele>606.5</ele><time>2026-05-02T10:09:52.913Z</time></trkpt><trkpt lat="44.1624905" lon="10.2458928"><ele>606.0</ele><time>2026-05-02T10:09:53.914Z</time></trkpt><trkpt lat="44.1625577" lon="10.2460527"><ele>605.5</ele><time>2026-05-02T10:09:54.915Z</time></trkpt><trkpt lat="44.1626223" lon="10.2462107"><ele>605.0</ele><time>2026-05-02T10:09:55.914Z</time></trkpt><trkpt lat="44.1626929" lon="10.2463743"><ele>603.75</ele><time>2026-05-02T10:09:56.916Z</time></trkpt><trkpt lat="44.1627652" lon="10.2465306"><ele>602.5</ele><time>2026-05-02T10:09:57.916Z</time></trkpt><trkpt lat="44.16285" lon="10.2466771"><ele>601.25</ele><time>2026-05-02T10:09:58.914Z</time></trkpt><trkpt lat="44.1629561" lon="10.2468085"><ele>600.0</ele><time>2026-05-02T10:09:59.914Z</time></trkpt><trkpt lat="44.1630738" lon="10.2469343"><ele>600.0</ele><time>2026-05-02T10:10:00.914Z</time></trkpt><trkpt lat="44.163188" lon="10.2470512"><ele>600.0</ele><time>2026-05-02T10:10:01.916Z</time></trkpt><trkpt lat="44.163299" lon="10.2471661"><ele>600.0</ele><time>2026-05-02T10:10:02.915Z</time></trkpt><trkpt lat="44.1634105" lon="10.2472812"><ele>600.0</ele><time>2026-05-02T10:10:03.915Z</time></trkpt><trkpt lat="44.1635181" lon="10.2473865"><ele>600.75</ele><time>2026-05-02T10:10:04.916Z</time></trkpt><trkpt lat="44.1636278" lon="10.2475005"><ele>601.5</ele><time>2026-05-02T10:10:05.916Z</time></trkpt><trkpt lat="44.1637353" lon="10.2476129"><ele>602.25</ele><time>2026-05-02T10:10:06.915Z</time></trkpt><trkpt lat="44.1638471" lon="10.2477308"><ele>603.0</ele><time>2026-05-02T10:10:07.917Z</time></trkpt><trkpt lat="44.1639552" lon="10.2478479"><ele>603.75</ele><time>2026-05-02T10:10:08.916Z</time></trkpt><trkpt lat="44.1640587" lon="10.2479583"><ele>604.5</ele><time>2026-05-02T10:10:09.915Z</time></trkpt><trkpt lat="44.1641619" lon="10.2480674"><ele>605.25</ele><time>2026-05-02T10:10:10.914Z</time></trkpt><trkpt lat="44.1642675" lon="10.2481754"><ele>606.0</ele><time>2026-05-02T10:10:11.916Z</time></trkpt><trkpt lat="44.1643783" lon="10.2482803"><ele>606.0</ele><time>2026-05-02T10:10:12.915Z</time></trkpt><trkpt lat="44.1644835" lon="10.2483884"><ele>606.0</ele><time>2026-05-02T10:10:13.916Z</time></trkpt><trkpt lat="44.1645857" lon="10.2484979"><ele>606.0</ele><time>2026-05-02T10:10:14.915Z</time></trkpt><trkpt lat="44.1646783" lon="10.2486061"><ele>606.0</ele><time>2026-05-02T10:10:15.915Z</time></trkpt><trkpt lat="44.1647627" lon="10.2487089"><ele>606.0</ele><time>2026-05-02T10:10:16.915Z</time></trkpt><trkpt lat="44.1648553" lon="10.2488135"><ele>606.0</ele><time>2026-05-02T10:10:17.914Z</time></trkpt><trkpt lat="44.1649312" lon="10.2489149"><ele>606.0</ele><time>2026-05-02T10:10:18.918Z</time></trkpt><trkpt lat="44.1650046" lon="10.2490194"><ele>606.0</ele><time>2026-05-02T10:10:19.917Z</time></trkpt><trkpt lat="44.1650667" lon="10.2491404"><ele>606.0</ele><time>2026-05-02T10:10:20.913Z</time></trkpt><trkpt lat="44.1651308" lon="10.2492594"><ele>605.6</ele><time>2026-05-02T10:10:21.914Z</time></trkpt><trkpt lat="44.1651847" lon="10.2493999"><ele>605.2</ele><time>2026-05-02T10:10:22.915Z</time></trkpt><trkpt lat="44.1652357" lon="10.2495275"><ele>604.8</ele><time>2026-05-02T10:10:23.916Z</time></trkpt><trkpt lat="44.1652895" lon="10.2496531"><ele>604.4</ele><time>2026-05-02T10:10:24.915Z</time></trkpt><trkpt lat="44.1653431" lon="10.2497865"><ele>604.0</ele><time>2026-05-02T10:10:25.915Z</time></trkpt><trkpt lat="44.1653957" lon="10.249934"><ele>603.25</ele><time>2026-05-02T10:10:26.919Z</time></trkpt><trkpt lat="44.1654435" lon="10.2500903"><ele>602.5</ele><time>2026-05-02T10:10:27.915Z</time></trkpt><trkpt lat="44.1654953" lon="10.2502563"><ele>601.75</ele><time>2026-05-02T10:10:28.914Z</time></trkpt><trkpt lat="44.165557" lon="10.250427"><ele>601.0</ele><time>2026-05-02T10:10:29.917Z</time></trkpt><trkpt lat="44.1656148" lon="10.2506076"><ele>600.25</ele><time>2026-05-02T10:10:30.916Z</time></trkpt><trkpt lat="44.1656784" lon="10.2507834"><ele>599.5</ele><time>2026-05-02T10:10:31.918Z</time></trkpt><trkpt lat="44.1657453" lon="10.250963"><ele>598.75</ele><time>2026-05-02T10:10:32.916Z</time></trkpt><trkpt lat="44.1658049" lon="10.2511316"><ele>598.0</ele><time>2026-05-02T10:10:33.914Z</time></trkpt><trkpt lat="44.1658612" lon="10.2513007"><ele>599.75</ele><time>2026-05-02T10:10:34.916Z</time></trkpt><trkpt lat="44.1659056" lon="10.2514601"><ele>601.5</ele><time>2026-05-02T10:10:35.914Z</time></trkpt><trkpt lat="44.1659324" lon="10.2516254"><ele>603.25</ele><time>2026-05-02T10:10:36.918Z</time></trkpt><trkpt lat="44.1659395" lon="10.2517935"><ele>605.0</ele><time>2026-05-02T10:10:37.92Z</time></trkpt><trkpt lat="44.1659233" lon="10.2519686"><ele>605.0</ele><time>2026-05-02T10:10:38.912Z</time></trkpt><trkpt lat="44.1658933" lon="10.2521465"><ele>605.0</ele><time>2026-05-02T10:10:39.915Z</time></trkpt><trkpt lat="44.1658595" lon="10.2523339"><ele>605.0</ele><time>2026-05-02T10:10:40.915Z</time></trkpt><trkpt lat="44.1658331" lon="10.2525088"><ele>605.0</ele><time>2026-05-02T10:10:41.912Z</time></trkpt><trkpt lat="44.1658304" lon="10.2526699"><ele>605.25</ele><time>2026-05-02T10:10:42.917Z</time></trkpt><trkpt lat="44.1658672" lon="10.2528187"><ele>605.5</ele><time>2026-05-02T10:10:43.917Z</time></trkpt><trkpt lat="44.1659415" lon="10.2529316"><ele>605.75</ele><time>2026-05-02T10:10:44.914Z</time></trkpt><trkpt lat="44.166046" lon="10.2530317"><ele>606.0</ele><time>2026-05-02T10:10:45.915Z</time></trkpt><trkpt lat="44.1661454" lon="10.253137"><ele>604.75</ele><time>2026-05-02T10:10:46.919Z</time></trkpt><trkpt lat="44.1662253" lon="10.2532582"><ele>603.5</ele><time>2026-05-02T10:10:47.917Z</time></trkpt><trkpt lat="44.1662895" lon="10.2533886"><ele>602.25</ele><time>2026-05-02T10:10:48.916Z</time></trkpt><trkpt lat="44.1663553" lon="10.2535205"><ele>601.0</ele><time>2026-05-02T10:10:49.914Z</time></trkpt><trkpt lat="44.1664253" lon="10.253647"><ele>608.0</ele><time>2026-05-02T10:10:50.917Z</time></trkpt><trkpt lat="44.1665438" lon="10.2536835"><ele>615.0</ele><time>2026-05-02T10:10:51.915Z</time></trkpt><trkpt lat="44.1666575" lon="10.2537079"><ele>622.0</ele><time>2026-05-02T10:10:52.914Z</time></trkpt><trkpt lat="44.1667738" lon="10.2537193"><ele>629.0</ele><time>2026-05-02T10:10:53.913Z</time></trkpt><trkpt lat="44.166894" lon="10.2537501"><ele>629.0</ele><time>2026-05-02T10:10:54.918Z</time></trkpt><trkpt lat="44.166974" lon="10.2538525"><ele>629.0</ele><time>2026-05-02T10:10:55.914Z</time></trkpt><trkpt lat="44.1670587" lon="10.2539596"><ele>629.0</ele><time>2026-05-02T10:10:56.915Z</time></trkpt><trkpt lat="44.16715" lon="10.2540512"><ele>629.0</ele><time>2026-05-02T10:10:57.917Z</time></trkpt><trkpt lat="44.1672481" lon="10.2541192"><ele>629.0</ele><time>2026-05-02T10:10:58.918Z</time></trkpt><trkpt lat="44.1673553" lon="10.2541472"><ele>625.75</ele><time>2026-05-02T10:10:59.913Z</time></trkpt><trkpt lat="44.1674724" lon="10.254115"><ele>622.5</ele><time>2026-05-02T10:11:00.916Z</time></trkpt><trkpt lat="44.1676019" lon="10.2540491"><ele>619.25</ele><time>2026-05-02T10:11:01.915Z</time></trkpt><trkpt lat="44.1677376" lon="10.2539633"><ele>616.0</ele><time>2026-05-02T10:11:02.915Z</time></trkpt><trkpt lat="44.1678779" lon="10.253863"><ele>621.6666666666667</ele><time>2026-05-02T10:11:03.918Z</time></trkpt><trkpt lat="44.1680183" lon="10.2537448"><ele>627.3333333333334</ele><time>2026-05-02T10:11:04.914Z</time></trkpt><trkpt lat="44.1681492" lon="10.253644"><ele>633.0</ele><time>2026-05-02T10:11:05.914Z</time></trkpt><trkpt lat="44.1682797" lon="10.2535544"><ele>633.0</ele><time>2026-05-02T10:11:06.915Z</time></trkpt><trkpt lat="44.1684128" lon="10.2535076"><ele>633.0</ele><time>2026-05-02T10:11:07.912Z</time></trkpt><trkpt lat="44.1685546" lon="10.2535039"><ele>633.0</ele><time>2026-05-02T10:11:08.914Z</time></trkpt><trkpt lat="44.1687064" lon="10.2535164"><ele>633.0</ele><time>2026-05-02T10:11:09.916Z</time></trkpt><trkpt lat="44.1688656" lon="10.2535419"><ele>632.0</ele><time>2026-05-02T10:11:10.915Z</time></trkpt><trkpt lat="44.1690418" lon="10.2535764"><ele>631.0</ele><time>2026-05-02T10:11:11.918Z</time></trkpt><trkpt lat="44.169215" lon="10.253617"><ele>630.0</ele><time>2026-05-02T10:11:12.916Z</time></trkpt><trkpt lat="44.1693821" lon="10.2536638"><ele>630.0</ele><time>2026-05-02T10:11:13.915Z</time></trkpt><trkpt lat="44.1695416" lon="10.2537026"><ele>630.0</ele><time>2026-05-02T10:11:14.916Z</time></trkpt><trkpt lat="44.1696889" lon="10.2537241"><ele>630.0</ele><time>2026-05-02T10:11:15.916Z</time></trkpt><trkpt lat="44.1698362" lon="10.2537062"><ele>632.5</ele><time>2026-05-02T10:11:16.916Z</time></trkpt><trkpt lat="44.1699815" lon="10.253652"><ele>635.0</ele><time>2026-05-02T10:11:17.915Z</time></trkpt><trkpt lat="44.1701293" lon="10.2535975"><ele>637.5</ele><time>2026-05-02T10:11:18.915Z</time></trkpt><trkpt lat="44.1702713" lon="10.2535691"><ele>640.0</ele><time>2026-05-02T10:11:19.915Z</time></trkpt><trkpt lat="44.1704174" lon="10.2535441"><ele>640.0</ele><time>2026-05-02T10:11:20.916Z</time></trkpt><trkpt lat="44.1705564" lon="10.2534986"><ele>640.0</ele><time>2026-05-02T10:11:21.914Z</time></trkpt><trkpt lat="44.1706833" lon="10.253452"><ele>640.0</ele><time>2026-05-02T10:11:22.916Z</time></trkpt><trkpt lat="44.1707924" lon="10.2533981"><ele>640.0</ele><time>2026-05-02T10:11:23.915Z</time></trkpt><trkpt lat="44.1708918" lon="10.2533627"><ele>640.0</ele><time>2026-05-02T10:11:24.918Z</time></trkpt><trkpt lat="44.1709778" lon="10.2533951"><ele>640.0</ele><time>2026-05-02T10:11:25.914Z</time></trkpt><trkpt lat="44.1710616" lon="10.2534017"><ele>640.0</ele><time>2026-05-02T10:11:26.916Z</time></trkpt><trkpt lat="44.1710793" lon="10.2535636"><ele>640.0</ele><time>2026-05-02T10:11:27.913Z</time></trkpt><trkpt lat="44.1710854" lon="10.2536957"><ele>640.0</ele><time>2026-05-02T10:11:28.916Z</time></trkpt><trkpt lat="44.1710583" lon="10.2538214"><ele>638.0</ele><time>2026-05-02T10:11:29.916Z</time></trkpt><trkpt lat="44.1710058" lon="10.2539631"><ele>636.0</ele><time>2026-05-02T10:11:30.916Z</time></trkpt><trkpt lat="44.1709608" lon="10.2541182"><ele>634.0</ele><time>2026-05-02T10:11:31.915Z</time></trkpt><trkpt lat="44.17095" lon="10.2542858"><ele>632.0</ele><time>2026-05-02T10:11:32.916Z</time></trkpt><trkpt lat="44.1709639" lon="10.2544432"><ele>632.0</ele><time>2026-05-02T10:11:33.914Z</time></trkpt><trkpt lat="44.17102" lon="10.2546118"><ele>632.0</ele><time>2026-05-02T10:11:34.915Z</time></trkpt><trkpt lat="44.1710787" lon="10.2547742"><ele>632.0</ele><time>2026-05-02T10:11:35.914Z</time></trkpt><trkpt lat="44.1711643" lon="10.2549498"><ele>632.0</ele><time>2026-05-02T10:11:36.918Z</time></trkpt><trkpt lat="44.1712354" lon="10.2551183"><ele>632.0</ele><time>2026-05-02T10:11:37.915Z</time></trkpt><trkpt lat="44.1713123" lon="10.2552765"><ele>632.0</ele><time>2026-05-02T10:11:38.915Z</time></trkpt><trkpt lat="44.1713703" lon="10.2554328"><ele>632.0</ele><time>2026-05-02T10:11:39.914Z</time></trkpt><trkpt lat="44.1714178" lon="10.2555958"><ele>632.0</ele><time>2026-05-02T10:11:40.917Z</time></trkpt><trkpt lat="44.1714115" lon="10.2557657"><ele>631.5</ele><time>2026-05-02T10:11:41.914Z</time></trkpt><trkpt lat="44.1714338" lon="10.2559451"><ele>631.0</ele><time>2026-05-02T10:11:42.915Z</time></trkpt><trkpt lat="44.1713502" lon="10.2561016"><ele>630.5</ele><time>2026-05-02T10:11:43.914Z</time></trkpt><trkpt lat="44.1712955" lon="10.2562828"><ele>630.0</ele><time>2026-05-02T10:11:44.914Z</time></trkpt><trkpt lat="44.1712426" lon="10.2564532"><ele>629.5</ele><time>2026-05-02T10:11:45.915Z</time></trkpt><trkpt lat="44.1711777" lon="10.256611"><ele>629.0</ele><time>2026-05-02T10:11:46.916Z</time></trkpt><trkpt lat="44.1710958" lon="10.2567524"><ele>628.5</ele><time>2026-05-02T10:11:47.916Z</time></trkpt><trkpt lat="44.1709887" lon="10.2568567"><ele>628.0</ele><time>2026-05-02T10:11:48.915Z</time></trkpt><trkpt lat="44.1708777" lon="10.2569315"><ele>628.0</ele><time>2026-05-02T10:11:49.919Z</time></trkpt><trkpt lat="44.1707602" lon="10.2570021"><ele>628.0</ele><time>2026-05-02T10:11:50.913Z</time></trkpt><trkpt lat="44.1706525" lon="10.2570558"><ele>628.0</ele><time>2026-05-02T10:11:51.916Z</time></trkpt><trkpt lat="44.170558" lon="10.257135"><ele>628.0</ele><time>2026-05-02T10:11:52.918Z</time></trkpt><trkpt lat="44.1705057" lon="10.2572529"><ele>620.75</ele><time>2026-05-02T10:11:53.918Z</time></trkpt><trkpt lat="44.1704367" lon="10.2573596"><ele>613.5</ele><time>2026-05-02T10:11:54.915Z</time></trkpt><trkpt lat="44.1704225" lon="10.2575424"><ele>606.25</ele><time>2026-05-02T10:11:55.914Z</time></trkpt><trkpt lat="44.1703664" lon="10.2576768"><ele>599.0</ele><time>2026-05-02T10:11:56.914Z</time></trkpt><trkpt lat="44.1703026" lon="10.2577927"><ele>599.0</ele><time>2026-05-02T10:11:57.916Z</time></trkpt><trkpt lat="44.1702475" lon="10.2578934"><ele>599.0</ele><time>2026-05-02T10:11:58.914Z</time></trkpt><trkpt lat="44.170219" lon="10.2580142"><ele>599.0</ele><time>2026-05-02T10:11:59.915Z</time></trkpt><trkpt lat="44.1702094" lon="10.2581338"><ele>599.0</ele><time>2026-05-02T10:12:00.913Z</time></trkpt><trkpt lat="44.1702748" lon="10.2582678"><ele>599.0</ele><time>2026-05-02T10:12:01.913Z</time></trkpt><trkpt lat="44.1703448" lon="10.2583887"><ele>599.75</ele><time>2026-05-02T10:12:02.914Z</time></trkpt><trkpt lat="44.1704159" lon="10.2585044"><ele>600.5</ele><time>2026-05-02T10:12:03.915Z</time></trkpt><trkpt lat="44.1705353" lon="10.2585826"><ele>601.25</ele><time>2026-05-02T10:12:04.916Z</time></trkpt><trkpt lat="44.1706462" lon="10.2586404"><ele>602.0</ele><time>2026-05-02T10:12:05.914Z</time></trkpt><trkpt lat="44.1707456" lon="10.2587007"><ele>605.0</ele><time>2026-05-02T10:12:06.916Z</time></trkpt><trkpt lat="44.170832" lon="10.2587969"><ele>608.0</ele><time>2026-05-02T10:12:07.916Z</time></trkpt><trkpt lat="44.1708987" lon="10.2589073"><ele>611.0</ele><time>2026-05-02T10:12:08.913Z</time></trkpt><trkpt lat="44.1709442" lon="10.2590478"><ele>614.0</ele><time>2026-05-02T10:12:09.914Z</time></trkpt><trkpt lat="44.1709906" lon="10.2591819"><ele>617.0</ele><time>2026-05-02T10:12:10.913Z</time></trkpt><trkpt lat="44.1710515" lon="10.2593155"><ele>617.0</ele><time>2026-05-02T10:12:11.914Z</time></trkpt><trkpt lat="44.1711418" lon="10.2594309"><ele>617.0</ele><time>2026-05-02T10:12:12.916Z</time></trkpt><trkpt lat="44.1712279" lon="10.2595365"><ele>617.0</ele><time>2026-05-02T10:12:13.915Z</time></trkpt><trkpt lat="44.1713063" lon="10.2596467"><ele>617.0</ele><time>2026-05-02T10:12:14.916Z</time></trkpt><trkpt lat="44.1713668" lon="10.2597798"><ele>612.0</ele><time>2026-05-02T10:12:15.917Z</time></trkpt><trkpt lat="44.1714035" lon="10.2599391"><ele>607.0</ele><time>2026-05-02T10:12:16.916Z</time></trkpt><trkpt lat="44.1714191" lon="10.2601205"><ele>602.0</ele><time>2026-05-02T10:12:17.916Z</time></trkpt><trkpt lat="44.1714201" lon="10.2603128"><ele>597.0</ele><time>2026-05-02T10:12:18.915Z</time></trkpt><trkpt lat="44.1714188" lon="10.2604945"><ele>593.0</ele><time>2026-05-02T10:12:19.915Z</time></trkpt><trkpt lat="44.1714374" lon="10.2606626"><ele>589.0</ele><time>2026-05-02T10:12:20.915Z</time></trkpt><trkpt lat="44.1714839" lon="10.260823"><ele>585.0</ele><time>2026-05-02T10:12:21.913Z</time></trkpt><trkpt lat="44.1715507" lon="10.2609513"><ele>581.0</ele><time>2026-05-02T10:12:22.916Z</time></trkpt><trkpt lat="44.1716445" lon="10.2610456"><ele>589.5</ele><time>2026-05-02T10:12:23.919Z</time></trkpt><trkpt lat="44.1717592" lon="10.2611036"><ele>598.0</ele><time>2026-05-02T10:12:24.921Z</time></trkpt><trkpt lat="44.1718689" lon="10.2611522"><ele>606.5</ele><time>2026-05-02T10:12:25.914Z</time></trkpt><trkpt lat="44.1719915" lon="10.2612104"><ele>615.0</ele><time>2026-05-02T10:12:26.914Z</time></trkpt><trkpt lat="44.172046" lon="10.2613096"><ele>615.0</ele><time>2026-05-02T10:12:27.912Z</time></trkpt><trkpt lat="44.1721003" lon="10.2614212"><ele>615.0</ele><time>2026-05-02T10:12:28.913Z</time></trkpt><trkpt lat="44.1721307" lon="10.261546"><ele>615.0</ele><time>2026-05-02T10:12:29.914Z</time></trkpt><trkpt lat="44.1721596" lon="10.2616682"><ele>615.0</ele><time>2026-05-02T10:12:30.91Z</time></trkpt><trkpt lat="44.1721843" lon="10.2617971"><ele>615.0</ele><time>2026-05-02T10:12:31.914Z</time></trkpt><trkpt lat="44.1722128" lon="10.262787"><ele>606.75</ele><time>2026-05-02T10:12:37.913Z</time></trkpt><trkpt lat="44.1722125" lon="10.2630125"><ele>598.5</ele><time>2026-05-02T10:12:38.913Z</time></trkpt><trkpt lat="44.1720974" lon="10.2631198"><ele>590.25</ele><time>2026-05-02T10:12:39.914Z</time></trkpt><trkpt lat="44.1720219" lon="10.2632608"><ele>582.0</ele><time>2026-05-02T10:12:40.913Z</time></trkpt><trkpt lat="44.1719348" lon="10.2634013"><ele>582.0</ele><time>2026-05-02T10:12:41.915Z</time></trkpt><trkpt lat="44.171858" lon="10.263549"><ele>582.0</ele><time>2026-05-02T10:12:42.915Z</time></trkpt><trkpt lat="44.1717814" lon="10.2637095"><ele>582.0</ele><time>2026-05-02T10:12:43.914Z</time></trkpt><trkpt lat="44.1716918" lon="10.2638669"><ele>582.0</ele><time>2026-05-02T10:12:44.913Z</time></trkpt><trkpt lat="44.1715882" lon="10.2640064"><ele>578.3333333333334</ele><time>2026-05-02T10:12:45.914Z</time></trkpt><trkpt lat="44.1714668" lon="10.2641446"><ele>574.6666666666667</ele><time>2026-05-02T10:12:46.916Z</time></trkpt><trkpt lat="44.1713489" lon="10.264276"><ele>571.0</ele><time>2026-05-02T10:12:47.916Z</time></trkpt><trkpt lat="44.1712318" lon="10.2643945"><ele>571.0</ele><time>2026-05-02T10:12:48.915Z</time></trkpt><trkpt lat="44.1711148" lon="10.2645018"><ele>571.0</ele><time>2026-05-02T10:12:49.916Z</time></trkpt><trkpt lat="44.1710079" lon="10.2646073"><ele>571.0</ele><time>2026-05-02T10:12:50.917Z</time></trkpt><trkpt lat="44.1709137" lon="10.264708"><ele>571.0</ele><time>2026-05-02T10:12:51.916Z</time></trkpt><trkpt lat="44.1708379" lon="10.2648212"><ele>574.25</ele><time>2026-05-02T10:12:52.917Z</time></trkpt><trkpt lat="44.1707814" lon="10.2649558"><ele>577.5</ele><time>2026-05-02T10:12:53.915Z</time></trkpt><trkpt lat="44.1707772" lon="10.265109"><ele>580.75</ele><time>2026-05-02T10:12:54.914Z</time></trkpt><trkpt lat="44.1707562" lon="10.2652529"><ele>584.0</ele><time>2026-05-02T10:12:55.915Z</time></trkpt><trkpt lat="44.1708819" lon="10.2653544"><ele>584.0</ele><time>2026-05-02T10:12:56.916Z</time></trkpt><trkpt lat="44.1709831" lon="10.2654551"><ele>584.0</ele><time>2026-05-02T10:12:57.914Z</time></trkpt><trkpt lat="44.1711149" lon="10.2655505"><ele>584.0</ele><time>2026-05-02T10:12:58.914Z</time></trkpt><trkpt lat="44.1712802" lon="10.2656426"><ele>583.0</ele><time>2026-05-02T10:12:59.914Z</time></trkpt><trkpt lat="44.1714707" lon="10.2657468"><ele>582.0</ele><time>2026-05-02T10:13:00.914Z</time></trkpt><trkpt lat="44.1716681" lon="10.2658292"><ele>581.0</ele><time>2026-05-02T10:13:01.913Z</time></trkpt><trkpt lat="44.1718581" lon="10.2658939"><ele>587.3333333333333</ele><time>2026-05-02T10:13:02.917Z</time></trkpt><trkpt lat="44.1720418" lon="10.2659573"><ele>593.6666666666666</ele><time>2026-05-02T10:13:03.914Z</time></trkpt><trkpt lat="44.1721979" lon="10.2660334"><ele>600.0</ele><time>2026-05-02T10:13:04.916Z</time></trkpt><trkpt lat="44.1723593" lon="10.2661188"><ele>602.3333333333334</ele><time>2026-05-02T10:13:05.918Z</time></trkpt><trkpt lat="44.1724547" lon="10.2663081"><ele>604.6666666666667</ele><time>2026-05-02T10:13:06.915Z</time></trkpt><trkpt lat="44.1725597" lon="10.2665005"><ele>607.0</ele><time>2026-05-02T10:13:07.914Z</time></trkpt><trkpt lat="44.172665" lon="10.2666997"><ele>601.3333333333334</ele><time>2026-05-02T10:13:08.914Z</time></trkpt><trkpt lat="44.1727523" lon="10.2668865"><ele>595.6666666666666</ele><time>2026-05-02T10:13:09.914Z</time></trkpt><trkpt lat="44.1728179" lon="10.2670874"><ele>590.0</ele><time>2026-05-02T10:13:10.916Z</time></trkpt><trkpt lat="44.1728498" lon="10.2673093"><ele>590.0</ele><time>2026-05-02T10:13:11.914Z</time></trkpt><trkpt lat="44.1728808" lon="10.2675402"><ele>590.0</ele><time>2026-05-02T10:13:12.914Z</time></trkpt><trkpt lat="44.1729289" lon="10.2677658"><ele>590.0</ele><time>2026-05-02T10:13:13.915Z</time></trkpt><trkpt lat="44.1729869" lon="10.2679646"><ele>589.25</ele><time>2026-05-02T10:13:14.915Z</time></trkpt><trkpt lat="44.1730499" lon="10.2681625"><ele>588.5</ele><time>2026-05-02T10:13:15.914Z</time></trkpt><trkpt lat="44.1730304" lon="10.2683101"><ele>587.75</ele><time>2026-05-02T10:13:16.914Z</time></trkpt><trkpt lat="44.1730504" lon="10.2684773"><ele>587.0</ele><time>2026-05-02T10:13:17.913Z</time></trkpt><trkpt lat="44.1730309" lon="10.2686527"><ele>587.0</ele><time>2026-05-02T10:13:18.912Z</time></trkpt><trkpt lat="44.1728333" lon="10.2687223"><ele>587.0</ele><time>2026-05-02T10:13:19.914Z</time></trkpt><trkpt lat="44.1727036" lon="10.2688373"><ele>587.0</ele><time>2026-05-02T10:13:20.914Z</time></trkpt><trkpt lat="44.1725664" lon="10.2689707"><ele>589.25</ele><time>2026-05-02T10:13:21.914Z</time></trkpt><trkpt lat="44.1724395" lon="10.2690869"><ele>591.5</ele><time>2026-05-02T10:13:22.914Z</time></trkpt><trkpt lat="44.1723147" lon="10.2692088"><ele>593.75</ele><time>2026-05-02T10:13:23.913Z</time></trkpt><trkpt lat="44.1722005" lon="10.2693171"><ele>596.0</ele><time>2026-05-02T10:13:24.917Z</time></trkpt><trkpt lat="44.1721805" lon="10.2694454"><ele>594.6</ele><time>2026-05-02T10:13:25.917Z</time></trkpt><trkpt lat="44.1721658" lon="10.2695783"><ele>593.2</ele><time>2026-05-02T10:13:26.916Z</time></trkpt><trkpt lat="44.1722014" lon="10.2697105"><ele>591.8</ele><time>2026-05-02T10:13:27.916Z</time></trkpt><trkpt lat="44.1722678" lon="10.2698069"><ele>590.4</ele><time>2026-05-02T10:13:28.92Z</time></trkpt><trkpt lat="44.1723721" lon="10.2698717"><ele>589.0</ele><time>2026-05-02T10:13:29.916Z</time></trkpt><trkpt lat="44.172498" lon="10.2699168"><ele>589.0</ele><time>2026-05-02T10:13:30.917Z</time></trkpt><trkpt lat="44.1726424" lon="10.2699619"><ele>589.0</ele><time>2026-05-02T10:13:31.915Z</time></trkpt><trkpt lat="44.1727992" lon="10.2699979"><ele>589.0</ele><time>2026-05-02T10:13:32.916Z</time></trkpt><trkpt lat="44.172965" lon="10.2700371"><ele>589.0</ele><time>2026-05-02T10:13:33.917Z</time></trkpt><trkpt lat="44.1731336" lon="10.2700785"><ele>589.0</ele><time>2026-05-02T10:13:34.916Z</time></trkpt><trkpt lat="44.1733105" lon="10.2701207"><ele>589.0</ele><time>2026-05-02T10:13:35.916Z</time></trkpt><trkpt lat="44.1734943" lon="10.2701693"><ele>594.3333333333334</ele><time>2026-05-02T10:13:36.913Z</time></trkpt><trkpt lat="44.1736772" lon="10.2702261"><ele>599.6666666666666</ele><time>2026-05-02T10:13:37.917Z</time></trkpt><trkpt lat="44.1738472" lon="10.2702996"><ele>605.0</ele><time>2026-05-02T10:13:38.915Z</time></trkpt><trkpt lat="44.1740143" lon="10.2704037"><ele>611.0</ele><time>2026-05-02T10:13:39.916Z</time></trkpt><trkpt lat="44.1741803" lon="10.2705056"><ele>617.0</ele><time>2026-05-02T10:13:40.916Z</time></trkpt><trkpt lat="44.1743535" lon="10.2706121"><ele>623.0</ele><time>2026-05-02T10:13:41.914Z</time></trkpt><trkpt lat="44.1745285" lon="10.2707093"><ele>615.3333333333333</ele><time>2026-05-02T10:13:42.912Z</time></trkpt><trkpt lat="44.1746978" lon="10.2707905"><ele>607.6666666666666</ele><time>2026-05-02T10:13:43.915Z</time></trkpt><trkpt lat="44.1748644" lon="10.2708749"><ele>600.0</ele><time>2026-05-02T10:13:44.915Z</time></trkpt><trkpt lat="44.1750218" lon="10.2709564"><ele>600.0</ele><time>2026-05-02T10:13:45.913Z</time></trkpt><trkpt lat="44.1751815" lon="10.271035"><ele>600.0</ele><time>2026-05-02T10:13:46.916Z</time></trkpt><trkpt lat="44.1753321" lon="10.2711105"><ele>600.0</ele><time>2026-05-02T10:13:47.914Z</time></trkpt><trkpt lat="44.1754849" lon="10.2711817"><ele>600.0</ele><time>2026-05-02T10:13:48.917Z</time></trkpt><trkpt lat="44.1756644" lon="10.2712424"><ele>600.0</ele><time>2026-05-02T10:13:49.919Z</time></trkpt><trkpt lat="44.17584" lon="10.2712774"><ele>600.0</ele><time>2026-05-02T10:13:50.915Z</time></trkpt><trkpt lat="44.1760215" lon="10.2712977"><ele>603.6666666666666</ele><time>2026-05-02T10:13:51.914Z</time></trkpt><trkpt lat="44.1762079" lon="10.2713075"><ele>607.3333333333333</ele><time>2026-05-02T10:13:52.915Z</time></trkpt><trkpt lat="44.1763809" lon="10.2713185"><ele>611.0</ele><time>2026-05-02T10:13:53.917Z</time></trkpt><trkpt lat="44.1765603" lon="10.2712975"><ele>611.0</ele><time>2026-05-02T10:13:54.913Z</time></trkpt><trkpt lat="44.1767418" lon="10.2712817"><ele>611.0</ele><time>2026-05-02T10:13:55.914Z</time></trkpt><trkpt lat="44.1769113" lon="10.2711989"><ele>611.0</ele><time>2026-05-02T10:13:56.918Z</time></trkpt><trkpt lat="44.1770905" lon="10.2711527"><ele>611.0</ele><time>2026-05-02T10:13:57.916Z</time></trkpt><trkpt lat="44.1772738" lon="10.2711384"><ele>611.0</ele><time>2026-05-02T10:13:58.917Z</time></trkpt><trkpt lat="44.1774624" lon="10.2711043"><ele>611.0</ele><time>2026-05-02T10:13:59.916Z</time></trkpt><trkpt lat="44.1776395" lon="10.271088"><ele>608.0</ele><time>2026-05-02T10:14:00.913Z</time></trkpt><trkpt lat="44.1778087" lon="10.2710682"><ele>605.0</ele><time>2026-05-02T10:14:01.918Z</time></trkpt><trkpt lat="44.1779726" lon="10.2710549"><ele>602.0</ele><time>2026-05-02T10:14:02.914Z</time></trkpt><trkpt lat="44.1781315" lon="10.2710465"><ele>599.25</ele><time>2026-05-02T10:14:03.918Z</time></trkpt><trkpt lat="44.1782826" lon="10.2710364"><ele>596.5</ele><time>2026-05-02T10:14:04.917Z</time></trkpt><trkpt lat="44.1784351" lon="10.2710245"><ele>593.75</ele><time>2026-05-02T10:14:05.915Z</time></trkpt><trkpt lat="44.1785788" lon="10.2709946"><ele>591.0</ele><time>2026-05-02T10:14:06.913Z</time></trkpt><trkpt lat="44.1787283" lon="10.2709674"><ele>591.0</ele><time>2026-05-02T10:14:07.915Z</time></trkpt><trkpt lat="44.1788383" lon="10.2709401"><ele>591.0</ele><time>2026-05-02T10:14:08.914Z</time></trkpt><trkpt lat="44.1789582" lon="10.270947"><ele>591.0</ele><time>2026-05-02T10:14:09.916Z</time></trkpt><trkpt lat="44.1790569" lon="10.2710021"><ele>591.0</ele><time>2026-05-02T10:14:10.913Z</time></trkpt><trkpt lat="44.1791457" lon="10.2710727"><ele>591.0</ele><time>2026-05-02T10:14:11.915Z</time></trkpt><trkpt lat="44.179151" lon="10.2712439"><ele>591.5</ele><time>2026-05-02T10:14:12.914Z</time></trkpt><trkpt lat="44.1791613" lon="10.2713773"><ele>592.0</ele><time>2026-05-02T10:14:13.915Z</time></trkpt><trkpt lat="44.1791382" lon="10.2715339"><ele>592.5</ele><time>2026-05-02T10:14:14.915Z</time></trkpt><trkpt lat="44.1790869" lon="10.2716892"><ele>593.0</ele><time>2026-05-02T10:14:15.918Z</time></trkpt><trkpt lat="44.1790271" lon="10.2718475"><ele>590.0</ele><time>2026-05-02T10:14:16.917Z</time></trkpt><trkpt lat="44.1789716" lon="10.2720047"><ele>587.0</ele><time>2026-05-02T10:14:17.914Z</time></trkpt><trkpt lat="44.178957" lon="10.2722021"><ele>584.0</ele><time>2026-05-02T10:14:18.916Z</time></trkpt><trkpt lat="44.1789276" lon="10.2723806"><ele>581.0</ele><time>2026-05-02T10:14:19.917Z</time></trkpt><trkpt lat="44.1789703" lon="10.2726142"><ele>582.0</ele><time>2026-05-02T10:14:20.917Z</time></trkpt><trkpt lat="44.1790518" lon="10.2728192"><ele>583.0</ele><time>2026-05-02T10:14:21.913Z</time></trkpt><trkpt lat="44.179115" lon="10.2730369"><ele>584.0</ele><time>2026-05-02T10:14:22.914Z</time></trkpt><trkpt lat="44.1791722" lon="10.2732451"><ele>584.0</ele><time>2026-05-02T10:14:23.918Z</time></trkpt><trkpt lat="44.1792241" lon="10.2734529"><ele>584.0</ele><time>2026-05-02T10:14:24.914Z</time></trkpt><trkpt lat="44.1792831" lon="10.2736549"><ele>584.0</ele><time>2026-05-02T10:14:25.917Z</time></trkpt><trkpt lat="44.1792754" lon="10.2738694"><ele>584.6666666666666</ele><time>2026-05-02T10:14:26.918Z</time></trkpt><trkpt lat="44.1792669" lon="10.274079"><ele>585.3333333333334</ele><time>2026-05-02T10:14:27.914Z</time></trkpt><trkpt lat="44.1792241" lon="10.2742866"><ele>586.0</ele><time>2026-05-02T10:14:28.914Z</time></trkpt><trkpt lat="44.1791522" lon="10.2744889"><ele>586.0</ele><time>2026-05-02T10:14:29.916Z</time></trkpt><trkpt lat="44.1790581" lon="10.2746875"><ele>586.0</ele><time>2026-05-02T10:14:30.917Z</time></trkpt><trkpt lat="44.1789601" lon="10.2748845"><ele>586.0</ele><time>2026-05-02T10:14:31.916Z</time></trkpt><trkpt lat="44.178862" lon="10.275075"><ele>581.0</ele><time>2026-05-02T10:14:32.917Z</time></trkpt><trkpt lat="44.1787874" lon="10.2752485"><ele>576.0</ele><time>2026-05-02T10:14:33.917Z</time></trkpt><trkpt lat="44.1787285" lon="10.275464"><ele>571.0</ele><time>2026-05-02T10:14:34.916Z</time></trkpt><trkpt lat="44.1786939" lon="10.2756996"><ele>570.6666666666667</ele><time>2026-05-02T10:14:35.915Z</time></trkpt><trkpt lat="44.17868" lon="10.2759256"><ele>570.3333333333334</ele><time>2026-05-02T10:14:36.917Z</time></trkpt><trkpt lat="44.1786759" lon="10.2761405"><ele>570.0</ele><time>2026-05-02T10:14:37.918Z</time></trkpt><trkpt lat="44.1786911" lon="10.2763398"><ele>570.5</ele><time>2026-05-02T10:14:38.92Z</time></trkpt><trkpt lat="44.1787329" lon="10.2765285"><ele>571.0</ele><time>2026-05-02T10:14:39.92Z</time></trkpt><trkpt lat="44.1788028" lon="10.2767066"><ele>571.5</ele><time>2026-05-02T10:14:40.915Z</time></trkpt><trkpt lat="44.1788897" lon="10.2768769"><ele>572.0</ele><time>2026-05-02T10:14:41.915Z</time></trkpt><trkpt lat="44.1789846" lon="10.277052"><ele>575.0</ele><time>2026-05-02T10:14:42.916Z</time></trkpt><trkpt lat="44.1790816" lon="10.2772258"><ele>578.0</ele><time>2026-05-02T10:14:43.917Z</time></trkpt><trkpt lat="44.1791844" lon="10.2774152"><ele>581.0</ele><time>2026-05-02T10:14:44.917Z</time></trkpt><trkpt lat="44.1792878" lon="10.2776059"><ele>581.0</ele><time>2026-05-02T10:14:45.917Z</time></trkpt><trkpt lat="44.1793877" lon="10.2777859"><ele>581.0</ele><time>2026-05-02T10:14:46.914Z</time></trkpt><trkpt lat="44.1794842" lon="10.2779651"><ele>581.0</ele><time>2026-05-02T10:14:47.92Z</time></trkpt><trkpt lat="44.1795802" lon="10.2781318"><ele>582.0</ele><time>2026-05-02T10:14:48.917Z</time></trkpt><trkpt lat="44.1796676" lon="10.2782909"><ele>583.0</ele><time>2026-05-02T10:14:49.916Z</time></trkpt><trkpt lat="44.1797541" lon="10.2784424"><ele>584.0</ele><time>2026-05-02T10:14:50.915Z</time></trkpt><trkpt lat="44.1798332" lon="10.2785916"><ele>585.0</ele><time>2026-05-02T10:14:51.916Z</time></trkpt><trkpt lat="44.1799122" lon="10.2787357"><ele>585.0</ele><time>2026-05-02T10:14:52.916Z</time></trkpt><trkpt lat="44.1799973" lon="10.2788813"><ele>585.0</ele><time>2026-05-02T10:14:53.915Z</time></trkpt><trkpt lat="44.1800775" lon="10.2790291"><ele>585.0</ele><time>2026-05-02T10:14:54.916Z</time></trkpt><trkpt lat="44.1801544" lon="10.279172"><ele>585.0</ele><time>2026-05-02T10:14:55.913Z</time></trkpt><trkpt lat="44.1802287" lon="10.2792976"><ele>584.0</ele><time>2026-05-02T10:14:56.915Z</time></trkpt><trkpt lat="44.1803182" lon="10.2794118"><ele>583.0</ele><time>2026-05-02T10:14:57.915Z</time></trkpt><trkpt lat="44.1804139" lon="10.279521"><ele>582.0</ele><time>2026-05-02T10:14:58.918Z</time></trkpt><trkpt lat="44.1805083" lon="10.2796181"><ele>581.0</ele><time>2026-05-02T10:14:59.916Z</time></trkpt><trkpt lat="44.1805907" lon="10.2797317"><ele>581.0</ele><time>2026-05-02T10:15:00.915Z</time></trkpt><trkpt lat="44.1806546" lon="10.2798626"><ele>581.0</ele><time>2026-05-02T10:15:01.916Z</time></trkpt><trkpt lat="44.1806936" lon="10.2800018"><ele>581.0</ele><time>2026-05-02T10:15:02.917Z</time></trkpt><trkpt lat="44.18072" lon="10.2801528"><ele>581.0</ele><time>2026-05-02T10:15:03.916Z</time></trkpt><trkpt lat="44.1807553" lon="10.2802993"><ele>581.0</ele><time>2026-05-02T10:15:04.915Z</time></trkpt><trkpt lat="44.1808054" lon="10.2804302"><ele>581.0</ele><time>2026-05-02T10:15:05.916Z</time></trkpt><trkpt lat="44.1808751" lon="10.2805493"><ele>581.0</ele><time>2026-05-02T10:15:06.926Z</time></trkpt><trkpt lat="44.1809622" lon="10.280653"><ele>581.0</ele><time>2026-05-02T10:15:07.931Z</time></trkpt><trkpt lat="44.1810557" lon="10.280737"><ele>581.0</ele><time>2026-05-02T10:15:08.915Z</time></trkpt><trkpt lat="44.1811583" lon="10.2807781"><ele>581.0</ele><time>2026-05-02T10:15:09.913Z</time></trkpt><trkpt lat="44.1812562" lon="10.2807782"><ele>581.6</ele><time>2026-05-02T10:15:10.915Z</time></trkpt><trkpt lat="44.181345" lon="10.2807216"><ele>582.2</ele><time>2026-05-02T10:15:11.914Z</time></trkpt><trkpt lat="44.1814322" lon="10.2806458"><ele>582.8</ele><time>2026-05-02T10:15:12.915Z</time></trkpt><trkpt lat="44.1815253" lon="10.2805939"><ele>583.4</ele><time>2026-05-02T10:15:13.915Z</time></trkpt><trkpt lat="44.1816179" lon="10.2805925"><ele>584.0</ele><time>2026-05-02T10:15:14.916Z</time></trkpt><trkpt lat="44.1817" lon="10.280643"><ele>580.2</ele><time>2026-05-02T10:15:15.919Z</time></trkpt><trkpt lat="44.1817815" lon="10.280736"><ele>576.4</ele><time>2026-05-02T10:15:16.918Z</time></trkpt><trkpt lat="44.1818636" lon="10.2808395"><ele>572.6</ele><time>2026-05-02T10:15:17.917Z</time></trkpt><trkpt lat="44.1819455" lon="10.2809212"><ele>568.8</ele><time>2026-05-02T10:15:18.916Z</time></trkpt><trkpt lat="44.1820496" lon="10.2809738"><ele>565.0</ele><time>2026-05-02T10:15:19.917Z</time></trkpt><trkpt lat="44.1821688" lon="10.280983"><ele>565.0</ele><time>2026-05-02T10:15:20.915Z</time></trkpt><trkpt lat="44.1823017" lon="10.2809707"><ele>565.0</ele><time>2026-05-02T10:15:21.917Z</time></trkpt><trkpt lat="44.1824279" lon="10.2809371"><ele>565.0</ele><time>2026-05-02T10:15:22.915Z</time></trkpt><trkpt lat="44.1825598" lon="10.2808939"><ele>565.0</ele><time>2026-05-02T10:15:23.914Z</time></trkpt><trkpt lat="44.1826857" lon="10.2808231"><ele>563.0</ele><time>2026-05-02T10:15:24.918Z</time></trkpt><trkpt lat="44.1828095" lon="10.2807197"><ele>561.0</ele><time>2026-05-02T10:15:25.918Z</time></trkpt><trkpt lat="44.1829407" lon="10.2805883"><ele>559.0</ele><time>2026-05-02T10:15:26.915Z</time></trkpt><trkpt lat="44.1830748" lon="10.280464"><ele>560.3333333333334</ele><time>2026-05-02T10:15:27.918Z</time></trkpt><trkpt lat="44.1832076" lon="10.2803427"><ele>561.6666666666666</ele><time>2026-05-02T10:15:28.917Z</time></trkpt><trkpt lat="44.1833338" lon="10.2802282"><ele>563.0</ele><time>2026-05-02T10:15:29.917Z</time></trkpt><trkpt lat="44.1834551" lon="10.2801175"><ele>563.0</ele><time>2026-05-02T10:15:30.916Z</time></trkpt><trkpt lat="44.183576" lon="10.2800131"><ele>563.0</ele><time>2026-05-02T10:15:31.916Z</time></trkpt><trkpt lat="44.1836862" lon="10.2799181"><ele>563.0</ele><time>2026-05-02T10:15:32.916Z</time></trkpt><trkpt lat="44.183786" lon="10.2798378"><ele>563.0</ele><time>2026-05-02T10:15:33.916Z</time></trkpt><trkpt lat="44.183888" lon="10.2797666"><ele>562.25</ele><time>2026-05-02T10:15:34.914Z</time></trkpt><trkpt lat="44.183994" lon="10.2797393"><ele>561.5</ele><time>2026-05-02T10:15:35.917Z</time></trkpt><trkpt lat="44.1840975" lon="10.2797661"><ele>560.75</ele><time>2026-05-02T10:15:36.914Z</time></trkpt><trkpt lat="44.1842038" lon="10.279836"><ele>560.0</ele><time>2026-05-02T10:15:37.915Z</time></trkpt><trkpt lat="44.184313" lon="10.2799284"><ele>557.0</ele><time>2026-05-02T10:15:38.914Z</time></trkpt><trkpt lat="44.1844275" lon="10.2800316"><ele>554.0</ele><time>2026-05-02T10:15:39.916Z</time></trkpt><trkpt lat="44.1845371" lon="10.2801402"><ele>551.0</ele><time>2026-05-02T10:15:40.917Z</time></trkpt><trkpt lat="44.1846455" lon="10.2802492"><ele>548.0</ele><time>2026-05-02T10:15:41.916Z</time></trkpt><trkpt lat="44.1847537" lon="10.2803616"><ele>548.4</ele><time>2026-05-02T10:15:42.915Z</time></trkpt><trkpt lat="44.1848475" lon="10.2804679"><ele>548.8</ele><time>2026-05-02T10:15:43.916Z</time></trkpt><trkpt lat="44.1849086" lon="10.2805913"><ele>549.2</ele><time>2026-05-02T10:15:44.916Z</time></trkpt><trkpt lat="44.1849328" lon="10.2807269"><ele>549.6</ele><time>2026-05-02T10:15:45.915Z</time></trkpt><trkpt lat="44.1849279" lon="10.2808939"><ele>550.0</ele><time>2026-05-02T10:15:46.915Z</time></trkpt><trkpt lat="44.1849187" lon="10.2810584"><ele>548.2</ele><time>2026-05-02T10:15:47.914Z</time></trkpt><trkpt lat="44.1849106" lon="10.2812161"><ele>546.4</ele><time>2026-05-02T10:15:48.924Z</time></trkpt><trkpt lat="44.1849229" lon="10.2813619"><ele>544.6</ele><time>2026-05-02T10:15:49.914Z</time></trkpt><trkpt lat="44.1849696" lon="10.281488"><ele>542.8</ele><time>2026-05-02T10:15:50.915Z</time></trkpt><trkpt lat="44.1850461" lon="10.2815852"><ele>541.0</ele><time>2026-05-02T10:15:51.917Z</time></trkpt><trkpt lat="44.1851457" lon="10.2816433"><ele>538.25</ele><time>2026-05-02T10:15:52.914Z</time></trkpt><trkpt lat="44.1852608" lon="10.2816457"><ele>535.5</ele><time>2026-05-02T10:15:53.915Z</time></trkpt><trkpt lat="44.1853925" lon="10.2816127"><ele>532.75</ele><time>2026-05-02T10:15:54.915Z</time></trkpt><trkpt lat="44.185544" lon="10.2815608"><ele>530.0</ele><time>2026-05-02T10:15:55.914Z</time></trkpt><trkpt lat="44.1856922" lon="10.2815125"><ele>531.5</ele><time>2026-05-02T10:15:56.915Z</time></trkpt><trkpt lat="44.1858341" lon="10.2814629"><ele>533.0</ele><time>2026-05-02T10:15:57.917Z</time></trkpt><trkpt lat="44.1859779" lon="10.2814161"><ele>534.5</ele><time>2026-05-02T10:15:58.914Z</time></trkpt><trkpt lat="44.1861179" lon="10.2813662"><ele>536.0</ele><time>2026-05-02T10:15:59.917Z</time></trkpt><trkpt lat="44.1862548" lon="10.281333"><ele>536.0</ele><time>2026-05-02T10:16:00.913Z</time></trkpt><trkpt lat="44.1863802" lon="10.2813269"><ele>536.0</ele><time>2026-05-02T10:16:01.917Z</time></trkpt><trkpt lat="44.1865037" lon="10.2813496"><ele>536.0</ele><time>2026-05-02T10:16:02.916Z</time></trkpt><trkpt lat="44.1866212" lon="10.2814064"><ele>536.0</ele><time>2026-05-02T10:16:03.913Z</time></trkpt><trkpt lat="44.1867324" lon="10.2815"><ele>531.5</ele><time>2026-05-02T10:16:04.915Z</time></trkpt><trkpt lat="44.1868277" lon="10.2816204"><ele>527.0</ele><time>2026-05-02T10:16:05.914Z</time></trkpt><trkpt lat="44.1869132" lon="10.2817527"><ele>522.5</ele><time>2026-05-02T10:16:06.914Z</time></trkpt><trkpt lat="44.186985" lon="10.2818801"><ele>518.0</ele><time>2026-05-02T10:16:07.916Z</time></trkpt><trkpt lat="44.187023" lon="10.2820154"><ele>518.0</ele><time>2026-05-02T10:16:08.913Z</time></trkpt><trkpt lat="44.1870168" lon="10.282146"><ele>518.0</ele><time>2026-05-02T10:16:09.915Z</time></trkpt><trkpt lat="44.1869693" lon="10.2822734"><ele>518.0</ele><time>2026-05-02T10:16:10.919Z</time></trkpt><trkpt lat="44.1868919" lon="10.2823885"><ele>518.0</ele><time>2026-05-02T10:16:11.914Z</time></trkpt><trkpt lat="44.1867876" lon="10.2824917"><ele>518.0</ele><time>2026-05-02T10:16:12.916Z</time></trkpt><trkpt lat="44.1866682" lon="10.2826041"><ele>517.5</ele><time>2026-05-02T10:16:13.913Z</time></trkpt><trkpt lat="44.1865465" lon="10.2827092"><ele>517.0</ele><time>2026-05-02T10:16:14.913Z</time></trkpt><trkpt lat="44.1864605" lon="10.2828179"><ele>516.5</ele><time>2026-05-02T10:16:15.914Z</time></trkpt><trkpt lat="44.186375" lon="10.2829549"><ele>516.0</ele><time>2026-05-02T10:16:16.913Z</time></trkpt><trkpt lat="44.186322" lon="10.2831193"><ele>516.0</ele><time>2026-05-02T10:16:17.914Z</time></trkpt><trkpt lat="44.1863053" lon="10.2833017"><ele>516.0</ele><time>2026-05-02T10:16:18.915Z</time></trkpt><trkpt lat="44.1863224" lon="10.2834947"><ele>516.0</ele><time>2026-05-02T10:16:19.915Z</time></trkpt><trkpt lat="44.1863525" lon="10.2836979"><ele>516.0</ele><time>2026-05-02T10:16:20.918Z</time></trkpt><trkpt lat="44.1863736" lon="10.2838895"><ele>517.25</ele><time>2026-05-02T10:16:21.916Z</time></trkpt><trkpt lat="44.1863663" lon="10.2840579"><ele>518.5</ele><time>2026-05-02T10:16:22.913Z</time></trkpt><trkpt lat="44.1863194" lon="10.2841958"><ele>519.75</ele><time>2026-05-02T10:16:23.917Z</time></trkpt><trkpt lat="44.1862365" lon="10.2843228"><ele>521.0</ele><time>2026-05-02T10:16:24.915Z</time></trkpt><trkpt lat="44.1861309" lon="10.2844462"><ele>521.0</ele><time>2026-05-02T10:16:25.914Z</time></trkpt><trkpt lat="44.1860126" lon="10.2845834"><ele>521.0</ele><time>2026-05-02T10:16:26.912Z</time></trkpt><trkpt lat="44.1858913" lon="10.2847188"><ele>521.0</ele><time>2026-05-02T10:16:27.917Z</time></trkpt><trkpt lat="44.1857766" lon="10.2848472"><ele>520.0</ele><time>2026-05-02T10:16:28.913Z</time></trkpt><trkpt lat="44.1856778" lon="10.2849733"><ele>519.0</ele><time>2026-05-02T10:16:29.915Z</time></trkpt><trkpt lat="44.1856045" lon="10.2851141"><ele>518.0</ele><time>2026-05-02T10:16:30.916Z</time></trkpt><trkpt lat="44.1855726" lon="10.2852739"><ele>517.0</ele><time>2026-05-02T10:16:31.915Z</time></trkpt><trkpt lat="44.1855725" lon="10.2854566"><ele>518.25</ele><time>2026-05-02T10:16:32.914Z</time></trkpt><trkpt lat="44.1855792" lon="10.2856558"><ele>519.5</ele><time>2026-05-02T10:16:33.915Z</time></trkpt><trkpt lat="44.1855786" lon="10.2858538"><ele>520.75</ele><time>2026-05-02T10:16:34.916Z</time></trkpt><trkpt lat="44.1855455" lon="10.286027"><ele>522.0</ele><time>2026-05-02T10:16:35.915Z</time></trkpt><trkpt lat="44.1854843" lon="10.2861913"><ele>522.0</ele><time>2026-05-02T10:16:36.915Z</time></trkpt><trkpt lat="44.1854071" lon="10.2863569"><ele>522.0</ele><time>2026-05-02T10:16:37.916Z</time></trkpt><trkpt lat="44.185331" lon="10.2865352"><ele>522.0</ele><time>2026-05-02T10:16:38.913Z</time></trkpt><trkpt lat="44.1852647" lon="10.2867214"><ele>522.0</ele><time>2026-05-02T10:16:39.915Z</time></trkpt><trkpt lat="44.1852047" lon="10.2869085"><ele>525.0</ele><time>2026-05-02T10:16:40.916Z</time></trkpt><trkpt lat="44.1851518" lon="10.2870926"><ele>528.0</ele><time>2026-05-02T10:16:41.913Z</time></trkpt><trkpt lat="44.1851014" lon="10.2872758"><ele>531.0</ele><time>2026-05-02T10:16:42.917Z</time></trkpt><trkpt lat="44.1850572" lon="10.2874499"><ele>534.0</ele><time>2026-05-02T10:16:43.915Z</time></trkpt><trkpt lat="44.1850147" lon="10.2876188"><ele>535.8</ele><time>2026-05-02T10:16:44.914Z</time></trkpt><trkpt lat="44.1849695" lon="10.287771"><ele>537.5999999999999</ele><time>2026-05-02T10:16:45.915Z</time></trkpt><trkpt lat="44.1849359" lon="10.2879097"><ele>539.4</ele><time>2026-05-02T10:16:46.913Z</time></trkpt><trkpt lat="44.1849168" lon="10.288044"><ele>541.1999999999999</ele><time>2026-05-02T10:16:47.913Z</time></trkpt><trkpt lat="44.1849057" lon="10.2881609"><ele>543.0</ele><time>2026-05-02T10:16:48.914Z</time></trkpt><trkpt lat="44.1849019" lon="10.2882542"><ele>543.6</ele><time>2026-05-02T10:16:49.914Z</time></trkpt><trkpt lat="44.1848831" lon="10.2884092"><ele>544.1999999999999</ele><time>2026-05-02T10:16:51.915Z</time></trkpt><trkpt lat="44.1848553" lon="10.288518"><ele>544.8</ele><time>2026-05-02T10:16:52.911Z</time></trkpt><trkpt lat="44.1848037" lon="10.2886411"><ele>545.4</ele><time>2026-05-02T10:16:53.912Z</time></trkpt><trkpt lat="44.1847558" lon="10.2887666"><ele>546.0</ele><time>2026-05-02T10:16:54.911Z</time></trkpt><trkpt lat="44.1847088" lon="10.2888861"><ele>545.8333333333334</ele><time>2026-05-02T10:16:55.914Z</time></trkpt><trkpt lat="44.1846672" lon="10.2889921"><ele>545.6666666666666</ele><time>2026-05-02T10:16:56.914Z</time></trkpt><trkpt lat="44.1846544" lon="10.2891027"><ele>545.5</ele><time>2026-05-02T10:16:57.91Z</time></trkpt><trkpt lat="44.1846826" lon="10.2891831"><ele>545.3333333333333</ele><time>2026-05-02T10:16:58.91Z</time></trkpt><trkpt lat="44.1847423" lon="10.2892463"><ele>545.1666666666666</ele><time>2026-05-02T10:16:59.913Z</time></trkpt><trkpt lat="44.1848391" lon="10.2892853"><ele>545.0</ele><time>2026-05-02T10:17:00.916Z</time></trkpt><trkpt lat="44.1849575" lon="10.2893256"><ele>545.0</ele><time>2026-05-02T10:17:01.915Z</time></trkpt><trkpt lat="44.1850843" lon="10.2893791"><ele>545.0</ele><time>2026-05-02T10:17:02.913Z</time></trkpt><trkpt lat="44.1851954" lon="10.2894462"><ele>545.0</ele><time>2026-05-02T10:17:03.916Z</time></trkpt><trkpt lat="44.1852884" lon="10.2895469"><ele>545.0</ele><time>2026-05-02T10:17:04.915Z</time></trkpt><trkpt lat="44.1853559" lon="10.2896826"><ele>543.5</ele><time>2026-05-02T10:17:05.918Z</time></trkpt><trkpt lat="44.1854196" lon="10.2898521"><ele>542.0</ele><time>2026-05-02T10:17:06.916Z</time></trkpt><trkpt lat="44.1854789" lon="10.290031"><ele>540.5</ele><time>2026-05-02T10:17:07.914Z</time></trkpt><trkpt lat="44.1855339" lon="10.2902191"><ele>539.0</ele><time>2026-05-02T10:17:08.915Z</time></trkpt><trkpt lat="44.1855847" lon="10.2904049"><ele>539.0</ele><time>2026-05-02T10:17:09.914Z</time></trkpt><trkpt lat="44.1856304" lon="10.2905684"><ele>539.0</ele><time>2026-05-02T10:17:10.916Z</time></trkpt><trkpt lat="44.1856921" lon="10.290703"><ele>539.0</ele><time>2026-05-02T10:17:11.915Z</time></trkpt><trkpt lat="44.1857806" lon="10.2908085"><ele>539.0</ele><time>2026-05-02T10:17:12.915Z</time></trkpt><trkpt lat="44.1858912" lon="10.2908753"><ele>540.3333333333333</ele><time>2026-05-02T10:17:13.915Z</time></trkpt><trkpt lat="44.186027" lon="10.2909349"><ele>541.6666666666666</ele><time>2026-05-02T10:17:14.914Z</time></trkpt><trkpt lat="44.1861755" lon="10.2910279"><ele>543.0</ele><time>2026-05-02T10:17:15.915Z</time></trkpt><trkpt lat="44.1863163" lon="10.2911357"><ele>543.0</ele><time>2026-05-02T10:17:16.913Z</time></trkpt><trkpt lat="44.1864396" lon="10.2912505"><ele>543.0</ele><time>2026-05-02T10:17:17.912Z</time></trkpt><trkpt lat="44.186555" lon="10.2913548"><ele>543.0</ele><time>2026-05-02T10:17:18.914Z</time></trkpt><trkpt lat="44.186664" lon="10.291452"><ele>543.0</ele><time>2026-05-02T10:17:19.916Z</time></trkpt><trkpt lat="44.1867664" lon="10.2915448"><ele>543.1999999999999</ele><time>2026-05-02T10:17:20.913Z</time></trkpt><trkpt lat="44.1868584" lon="10.2916302"><ele>543.4</ele><time>2026-05-02T10:17:21.914Z</time></trkpt><trkpt lat="44.186932" lon="10.2917253"><ele>543.5999999999999</ele><time>2026-05-02T10:17:22.919Z</time></trkpt><trkpt lat="44.1869678" lon="10.2918405"><ele>543.8</ele><time>2026-05-02T10:17:23.911Z</time></trkpt><trkpt lat="44.1869605" lon="10.2919625"><ele>544.0</ele><time>2026-05-02T10:17:24.914Z</time></trkpt><trkpt lat="44.1869279" lon="10.2921239"><ele>543.6666666666667</ele><time>2026-05-02T10:17:25.914Z</time></trkpt><trkpt lat="44.1868783" lon="10.2923049"><ele>543.3333333333334</ele><time>2026-05-02T10:17:26.912Z</time></trkpt><trkpt lat="44.186819" lon="10.2925229"><ele>543.0</ele><time>2026-05-02T10:17:27.914Z</time></trkpt><trkpt lat="44.186749" lon="10.2927502"><ele>543.0</ele><time>2026-05-02T10:17:28.914Z</time></trkpt><trkpt lat="44.1866745" lon="10.2929822"><ele>543.0</ele><time>2026-05-02T10:17:29.913Z</time></trkpt><trkpt lat="44.1865999" lon="10.2932218"><ele>543.0</ele><time>2026-05-02T10:17:30.912Z</time></trkpt><trkpt lat="44.1865286" lon="10.2934813"><ele>539.0</ele><time>2026-05-02T10:17:31.916Z</time></trkpt><trkpt lat="44.1864584" lon="10.2937238"><ele>535.0</ele><time>2026-05-02T10:17:32.914Z</time></trkpt><trkpt lat="44.1863893" lon="10.2939515"><ele>531.0</ele><time>2026-05-02T10:17:33.914Z</time></trkpt><trkpt lat="44.1863254" lon="10.2941705"><ele>531.0</ele><time>2026-05-02T10:17:34.914Z</time></trkpt><trkpt lat="44.1862638" lon="10.2943818"><ele>531.0</ele><time>2026-05-02T10:17:35.913Z</time></trkpt><trkpt lat="44.1862074" lon="10.2945845"><ele>531.0</ele><time>2026-05-02T10:17:36.915Z</time></trkpt><trkpt lat="44.1861504" lon="10.2947808"><ele>532.0</ele><time>2026-05-02T10:17:37.915Z</time></trkpt><trkpt lat="44.1860905" lon="10.2949608"><ele>533.0</ele><time>2026-05-02T10:17:38.915Z</time></trkpt><trkpt lat="44.186009" lon="10.2951179"><ele>534.0</ele><time>2026-05-02T10:17:39.913Z</time></trkpt><trkpt lat="44.185914" lon="10.2952741"><ele>535.0</ele><time>2026-05-02T10:17:40.914Z</time></trkpt><trkpt lat="44.1858304" lon="10.2954577"><ele>537.6666666666667</ele><time>2026-05-02T10:17:41.914Z</time></trkpt><trkpt lat="44.1857581" lon="10.2956588"><ele>540.3333333333334</ele><time>2026-05-02T10:17:42.917Z</time></trkpt><trkpt lat="44.1856946" lon="10.2958476"><ele>543.0</ele><time>2026-05-02T10:17:43.916Z</time></trkpt><trkpt lat="44.1856348" lon="10.2960303"><ele>538.0</ele><time>2026-05-02T10:17:44.913Z</time></trkpt><trkpt lat="44.1855681" lon="10.2961894"><ele>533.0</ele><time>2026-05-02T10:17:45.913Z</time></trkpt><trkpt lat="44.185472" lon="10.2962689"><ele>528.0</ele><time>2026-05-02T10:17:46.917Z</time></trkpt><trkpt lat="44.1853743" lon="10.2963258"><ele>523.0</ele><time>2026-05-02T10:17:47.912Z</time></trkpt><trkpt lat="44.185274" lon="10.2963672"><ele>524.4</ele><time>2026-05-02T10:17:48.914Z</time></trkpt><trkpt lat="44.1851829" lon="10.2964371"><ele>525.8</ele><time>2026-05-02T10:17:49.916Z</time></trkpt><trkpt lat="44.1851155" lon="10.296539"><ele>527.2</ele><time>2026-05-02T10:17:50.914Z</time></trkpt><trkpt lat="44.1850771" lon="10.2966793"><ele>528.6</ele><time>2026-05-02T10:17:51.914Z</time></trkpt><trkpt lat="44.1850543" lon="10.296856"><ele>530.0</ele><time>2026-05-02T10:17:52.918Z</time></trkpt><trkpt lat="44.1850395" lon="10.2970605"><ele>531.75</ele><time>2026-05-02T10:17:53.914Z</time></trkpt><trkpt lat="44.1850244" lon="10.2972653"><ele>533.5</ele><time>2026-05-02T10:17:54.915Z</time></trkpt><trkpt lat="44.1850073" lon="10.2974643"><ele>535.25</ele><time>2026-05-02T10:17:55.915Z</time></trkpt><trkpt lat="44.1849934" lon="10.2976592"><ele>537.0</ele><time>2026-05-02T10:17:56.919Z</time></trkpt><trkpt lat="44.1849735" lon="10.2978344"><ele>537.0</ele><time>2026-05-02T10:17:57.916Z</time></trkpt><trkpt lat="44.1849431" lon="10.297992"><ele>537.0</ele><time>2026-05-02T10:17:58.914Z</time></trkpt><trkpt lat="44.1848839" lon="10.2981295"><ele>537.0</ele><time>2026-05-02T10:17:59.915Z</time></trkpt><trkpt lat="44.1847981" lon="10.2982505"><ele>537.0</ele><time>2026-05-02T10:18:00.911Z</time></trkpt><trkpt lat="44.1846916" lon="10.298363"><ele>534.75</ele><time>2026-05-02T10:18:01.916Z</time></trkpt><trkpt lat="44.1845807" lon="10.2984688"><ele>532.5</ele><time>2026-05-02T10:18:02.915Z</time></trkpt><trkpt lat="44.1844721" lon="10.2985669"><ele>530.25</ele><time>2026-05-02T10:18:03.915Z</time></trkpt><trkpt lat="44.1843667" lon="10.298659"><ele>528.0</ele><time>2026-05-02T10:18:04.916Z</time></trkpt><trkpt lat="44.1842752" lon="10.2987663"><ele>528.0</ele><time>2026-05-02T10:18:05.916Z</time></trkpt><trkpt lat="44.1841999" lon="10.2988992"><ele>528.0</ele><time>2026-05-02T10:18:06.913Z</time></trkpt><trkpt lat="44.1841451" lon="10.2990455"><ele>528.0</ele><time>2026-05-02T10:18:07.915Z</time></trkpt><trkpt lat="44.1841023" lon="10.2991949"><ele>528.0</ele><time>2026-05-02T10:18:08.916Z</time></trkpt><trkpt lat="44.1840613" lon="10.2993422"><ele>529.5</ele><time>2026-05-02T10:18:09.916Z</time></trkpt><trkpt lat="44.1840214" lon="10.2995"><ele>531.0</ele><time>2026-05-02T10:18:10.914Z</time></trkpt><trkpt lat="44.1839819" lon="10.2996614"><ele>532.5</ele><time>2026-05-02T10:18:11.912Z</time></trkpt><trkpt lat="44.1839457" lon="10.2998175"><ele>534.0</ele><time>2026-05-02T10:18:12.914Z</time></trkpt><trkpt lat="44.18391" lon="10.2999899"><ele>531.0</ele><time>2026-05-02T10:18:13.914Z</time></trkpt><trkpt lat="44.1838516" lon="10.3001331"><ele>528.0</ele><time>2026-05-02T10:18:14.915Z</time></trkpt><trkpt lat="44.183793" lon="10.3002858"><ele>525.0</ele><time>2026-05-02T10:18:15.916Z</time></trkpt><trkpt lat="44.1837369" lon="10.300446"><ele>522.0</ele><time>2026-05-02T10:18:16.916Z</time></trkpt><trkpt lat="44.1836772" lon="10.3005939"><ele>522.0</ele><time>2026-05-02T10:18:17.915Z</time></trkpt><trkpt lat="44.1836194" lon="10.3007414"><ele>522.0</ele><time>2026-05-02T10:18:18.916Z</time></trkpt><trkpt lat="44.1835627" lon="10.3008919"><ele>522.0</ele><time>2026-05-02T10:18:19.916Z</time></trkpt><trkpt lat="44.1835009" lon="10.3010382"><ele>522.0</ele><time>2026-05-02T10:18:20.915Z</time></trkpt><trkpt lat="44.183444" lon="10.3011792"><ele>522.0</ele><time>2026-05-02T10:18:21.914Z</time></trkpt><trkpt lat="44.1833775" lon="10.3013113"><ele>522.0</ele><time>2026-05-02T10:18:22.914Z</time></trkpt><trkpt lat="44.1833183" lon="10.3014419"><ele>522.0</ele><time>2026-05-02T10:18:23.917Z</time></trkpt><trkpt lat="44.1832667" lon="10.3015665"><ele>522.0</ele><time>2026-05-02T10:18:24.915Z</time></trkpt><trkpt lat="44.1832436" lon="10.3017096"><ele>522.0</ele><time>2026-05-02T10:18:25.914Z</time></trkpt><trkpt lat="44.1832407" lon="10.3018645"><ele>522.25</ele><time>2026-05-02T10:18:26.915Z</time></trkpt><trkpt lat="44.1832545" lon="10.3020255"><ele>522.5</ele><time>2026-05-02T10:18:27.919Z</time></trkpt><trkpt lat="44.1832804" lon="10.3021983"><ele>522.75</ele><time>2026-05-02T10:18:28.916Z</time></trkpt><trkpt lat="44.1833077" lon="10.302366"><ele>523.0</ele><time>2026-05-02T10:18:29.913Z</time></trkpt><trkpt lat="44.1833367" lon="10.3025289"><ele>522.1999999999999</ele><time>2026-05-02T10:18:30.916Z</time></trkpt><trkpt lat="44.1833651" lon="10.3026744"><ele>521.4</ele><time>2026-05-02T10:18:31.914Z</time></trkpt><trkpt lat="44.1833972" lon="10.3028083"><ele>520.5999999999999</ele><time>2026-05-02T10:18:32.915Z</time></trkpt><trkpt lat="44.1834438" lon="10.3029434"><ele>519.8</ele><time>2026-05-02T10:18:33.913Z</time></trkpt><trkpt lat="44.1835012" lon="10.3030852"><ele>519.0</ele><time>2026-05-02T10:18:34.918Z</time></trkpt><trkpt lat="44.1835617" lon="10.3032214"><ele>518.2</ele><time>2026-05-02T10:18:35.916Z</time></trkpt><trkpt lat="44.1836257" lon="10.3033541"><ele>517.4</ele><time>2026-05-02T10:18:36.916Z</time></trkpt><trkpt lat="44.1836912" lon="10.303484"><ele>516.6</ele><time>2026-05-02T10:18:37.915Z</time></trkpt><trkpt lat="44.1837528" lon="10.3036047"><ele>515.8</ele><time>2026-05-02T10:18:38.914Z</time></trkpt><trkpt lat="44.1838123" lon="10.3037204"><ele>515.0</ele><time>2026-05-02T10:18:39.913Z</time></trkpt><trkpt lat="44.1838682" lon="10.3038266"><ele>515.5</ele><time>2026-05-02T10:18:40.914Z</time></trkpt><trkpt lat="44.183922" lon="10.3039272"><ele>516.0</ele><time>2026-05-02T10:18:41.913Z</time></trkpt><trkpt lat="44.1839711" lon="10.304022"><ele>516.5</ele><time>2026-05-02T10:18:42.914Z</time></trkpt><trkpt lat="44.1840179" lon="10.3041073"><ele>517.0</ele><time>2026-05-02T10:18:43.913Z</time></trkpt><trkpt lat="44.1840641" lon="10.3041848"><ele>517.5</ele><time>2026-05-02T10:18:44.912Z</time></trkpt><trkpt lat="44.1841019" lon="10.3042654"><ele>518.0</ele><time>2026-05-02T10:18:46.914Z</time></trkpt><trkpt lat="44.1841462" lon="10.3043851"><ele>518.0</ele><time>2026-05-02T10:18:49.913Z</time></trkpt><trkpt lat="44.18415" lon="10.3045458"><ele>518.0</ele><time>2026-05-02T10:18:51.915Z</time></trkpt><trkpt lat="44.1841181" lon="10.3046511"><ele>518.0</ele><time>2026-05-02T10:18:52.917Z</time></trkpt><trkpt lat="44.1840734" lon="10.3047711"><ele>518.0</ele><time>2026-05-02T10:18:53.914Z</time></trkpt><trkpt lat="44.1840309" lon="10.304911"><ele>518.0</ele><time>2026-05-02T10:18:54.915Z</time></trkpt><trkpt lat="44.1840078" lon="10.3050713"><ele>517.5</ele><time>2026-05-02T10:18:55.917Z</time></trkpt><trkpt lat="44.1839928" lon="10.3052532"><ele>517.0</ele><time>2026-05-02T10:18:56.916Z</time></trkpt><trkpt lat="44.1839872" lon="10.3054483"><ele>516.5</ele><time>2026-05-02T10:18:57.914Z</time></trkpt><trkpt lat="44.1839836" lon="10.3056431"><ele>516.0</ele><time>2026-05-02T10:18:58.915Z</time></trkpt><trkpt lat="44.1839773" lon="10.3058492"><ele>511.33333333333337</ele><time>2026-05-02T10:18:59.913Z</time></trkpt><trkpt lat="44.1839697" lon="10.3060583"><ele>506.6666666666667</ele><time>2026-05-02T10:19:00.912Z</time></trkpt><trkpt lat="44.1839576" lon="10.306276"><ele>502.0</ele><time>2026-05-02T10:19:01.914Z</time></trkpt><trkpt lat="44.1839302" lon="10.3064949"><ele>497.0</ele><time>2026-05-02T10:19:02.914Z</time></trkpt><trkpt lat="44.1838995" lon="10.3067176"><ele>492.0</ele><time>2026-05-02T10:19:03.911Z</time></trkpt><trkpt lat="44.1838331" lon="10.3071245"><ele>496.5</ele><time>2026-05-02T10:19:05.915Z</time></trkpt><trkpt lat="44.1837848" lon="10.3073182"><ele>501.0</ele><time>2026-05-02T10:19:06.913Z</time></trkpt><trkpt lat="44.1837271" lon="10.3075"><ele>505.5</ele><time>2026-05-02T10:19:07.914Z</time></trkpt><trkpt lat="44.1836681" lon="10.3076604"><ele>510.0</ele><time>2026-05-02T10:19:08.913Z</time></trkpt><trkpt lat="44.1836021" lon="10.3078117"><ele>510.0</ele><time>2026-05-02T10:19:09.914Z</time></trkpt><trkpt lat="44.1835283" lon="10.3079472"><ele>510.0</ele><time>2026-05-02T10:19:10.914Z</time></trkpt><trkpt lat="44.1834452" lon="10.3080737"><ele>510.0</ele><time>2026-05-02T10:19:11.91Z</time></trkpt><trkpt lat="44.1833522" lon="10.308194"><ele>510.0</ele><time>2026-05-02T10:19:12.912Z</time></trkpt><trkpt lat="44.1832475" lon="10.3082987"><ele>508.25</ele><time>2026-05-02T10:19:13.914Z</time></trkpt><trkpt lat="44.1831325" lon="10.3083928"><ele>506.5</ele><time>2026-05-02T10:19:14.912Z</time></trkpt><trkpt lat="44.1830051" lon="10.3084669"><ele>504.75</ele><time>2026-05-02T10:19:15.911Z</time></trkpt><trkpt lat="44.1828753" lon="10.3085145"><ele>503.0</ele><time>2026-05-02T10:19:16.912Z</time></trkpt><trkpt lat="44.1827349" lon="10.3085481"><ele>503.0</ele><time>2026-05-02T10:19:17.918Z</time></trkpt><trkpt lat="44.1825832" lon="10.308573"><ele>503.0</ele><time>2026-05-02T10:19:18.913Z</time></trkpt><trkpt lat="44.1824404" lon="10.308598"><ele>503.0</ele><time>2026-05-02T10:19:19.914Z</time></trkpt><trkpt lat="44.1822883" lon="10.3086173"><ele>503.0</ele><time>2026-05-02T10:19:20.913Z</time></trkpt><trkpt lat="44.1821453" lon="10.3086329"><ele>506.75</ele><time>2026-05-02T10:19:21.914Z</time></trkpt><trkpt lat="44.1820059" lon="10.3086535"><ele>510.5</ele><time>2026-05-02T10:19:22.914Z</time></trkpt><trkpt lat="44.1818679" lon="10.3086723"><ele>514.25</ele><time>2026-05-02T10:19:23.918Z</time></trkpt><trkpt lat="44.1817306" lon="10.3086898"><ele>518.0</ele><time>2026-05-02T10:19:24.915Z</time></trkpt><trkpt lat="44.1815874" lon="10.3087108"><ele>518.75</ele><time>2026-05-02T10:19:25.913Z</time></trkpt><trkpt lat="44.1814396" lon="10.3087328"><ele>519.5</ele><time>2026-05-02T10:19:26.914Z</time></trkpt><trkpt lat="44.1813062" lon="10.3087496"><ele>520.25</ele><time>2026-05-02T10:19:27.912Z</time></trkpt><trkpt lat="44.1811637" lon="10.3087706"><ele>521.0</ele><time>2026-05-02T10:19:28.912Z</time></trkpt><trkpt lat="44.1810242" lon="10.3087905"><ele>521.0</ele><time>2026-05-02T10:19:29.913Z</time></trkpt><trkpt lat="44.1808863" lon="10.308815"><ele>521.0</ele><time>2026-05-02T10:19:30.916Z</time></trkpt><trkpt lat="44.1807773" lon="10.3089415"><ele>521.0</ele><time>2026-05-02T10:19:31.913Z</time></trkpt><trkpt lat="44.1806684" lon="10.3092518"><ele>515.5</ele><time>2026-05-02T10:19:32.916Z</time></trkpt><trkpt lat="44.1805845" lon="10.3093895"><ele>510.0</ele><time>2026-05-02T10:19:33.917Z</time></trkpt><trkpt lat="44.1804806" lon="10.3095136"><ele>504.5</ele><time>2026-05-02T10:19:34.909Z</time></trkpt><trkpt lat="44.1803737" lon="10.3096127"><ele>499.0</ele><time>2026-05-02T10:19:35.911Z</time></trkpt><trkpt lat="44.1802619" lon="10.3097025"><ele>499.0</ele><time>2026-05-02T10:19:36.912Z</time></trkpt><trkpt lat="44.1801471" lon="10.3097823"><ele>499.0</ele><time>2026-05-02T10:19:37.912Z</time></trkpt><trkpt lat="44.1800213" lon="10.3098477"><ele>499.0</ele><time>2026-05-02T10:19:38.91Z</time></trkpt><trkpt lat="44.179898" lon="10.3099011"><ele>499.0</ele><time>2026-05-02T10:19:39.911Z</time></trkpt><trkpt lat="44.1797646" lon="10.3099364"><ele>499.0</ele><time>2026-05-02T10:19:40.915Z</time></trkpt><trkpt lat="44.1796333" lon="10.30996"><ele>499.0</ele><time>2026-05-02T10:19:41.913Z</time></trkpt><trkpt lat="44.1794975" lon="10.3099679"><ele>499.0</ele><time>2026-05-02T10:19:42.913Z</time></trkpt><trkpt lat="44.1793579" lon="10.3099688"><ele>499.0</ele><time>2026-05-02T10:19:43.912Z</time></trkpt><trkpt lat="44.1792165" lon="10.3099649"><ele>499.0</ele><time>2026-05-02T10:19:44.916Z</time></trkpt><trkpt lat="44.1790798" lon="10.3099634"><ele>499.0</ele><time>2026-05-02T10:19:45.911Z</time></trkpt><trkpt lat="44.1789435" lon="10.3099748"><ele>499.0</ele><time>2026-05-02T10:19:46.911Z</time></trkpt><trkpt lat="44.1788126" lon="10.3099648"><ele>499.0</ele><time>2026-05-02T10:19:47.915Z</time></trkpt><trkpt lat="44.1786926" lon="10.3099606"><ele>496.4</ele><time>2026-05-02T10:19:48.911Z</time></trkpt><trkpt lat="44.1785745" lon="10.309956"><ele>493.79999999999995</ele><time>2026-05-02T10:19:49.914Z</time></trkpt><trkpt lat="44.1784673" lon="10.3099634"><ele>491.20000000000005</ele><time>2026-05-02T10:19:50.914Z</time></trkpt><trkpt lat="44.1783712" lon="10.3099763"><ele>488.6</ele><time>2026-05-02T10:19:51.913Z</time></trkpt><trkpt lat="44.1782848" lon="10.3099867"><ele>486.0</ele><time>2026-05-02T10:19:52.913Z</time></trkpt><trkpt lat="44.1782084" lon="10.3100055"><ele>482.6666666666667</ele><time>2026-05-02T10:19:53.915Z</time></trkpt><trkpt lat="44.1781449" lon="10.3100354"><ele>479.33333333333337</ele><time>2026-05-02T10:19:54.913Z</time></trkpt><trkpt lat="44.1780574" lon="10.3101254"><ele>476.0</ele><time>2026-05-02T10:19:56.912Z</time></trkpt><trkpt lat="44.1780384" lon="10.310291"><ele>472.6666666666667</ele><time>2026-05-02T10:19:58.91Z</time></trkpt><trkpt lat="44.1780364" lon="10.310381"><ele>469.33333333333337</ele><time>2026-05-02T10:19:59.913Z</time></trkpt><trkpt lat="44.1780564" lon="10.3104665"><ele>466.0</ele><time>2026-05-02T10:20:00.914Z</time></trkpt><trkpt lat="44.1780564" lon="10.3105673"><ele>468.8</ele><time>2026-05-02T10:20:01.914Z</time></trkpt><trkpt lat="44.1780391" lon="10.3106751"><ele>471.6</ele><time>2026-05-02T10:20:02.915Z</time></trkpt><trkpt lat="44.1780109" lon="10.3107891"><ele>474.4</ele><time>2026-05-02T10:20:03.916Z</time></trkpt><trkpt lat="44.17797" lon="10.3109026"><ele>477.2</ele><time>2026-05-02T10:20:04.916Z</time></trkpt><trkpt lat="44.1779193" lon="10.3110253"><ele>480.0</ele><time>2026-05-02T10:20:05.913Z</time></trkpt><trkpt lat="44.177868" lon="10.3111495"><ele>480.0</ele><time>2026-05-02T10:20:06.915Z</time></trkpt><trkpt lat="44.1778237" lon="10.311269"><ele>480.0</ele><time>2026-05-02T10:20:07.916Z</time></trkpt><trkpt lat="44.1777798" lon="10.3113986"><ele>480.0</ele><time>2026-05-02T10:20:08.912Z</time></trkpt><trkpt lat="44.1777409" lon="10.3115292"><ele>480.0</ele><time>2026-05-02T10:20:09.913Z</time></trkpt><trkpt lat="44.1777128" lon="10.3116511"><ele>480.0</ele><time>2026-05-02T10:20:10.913Z</time></trkpt><trkpt lat="44.1776877" lon="10.3117823"><ele>482.2</ele><time>2026-05-02T10:20:11.913Z</time></trkpt><trkpt lat="44.1776671" lon="10.3119261"><ele>484.4</ele><time>2026-05-02T10:20:12.911Z</time></trkpt><trkpt lat="44.177643" lon="10.312065"><ele>486.6</ele><time>2026-05-02T10:20:13.91Z</time></trkpt><trkpt lat="44.1776077" lon="10.3122096"><ele>488.8</ele><time>2026-05-02T10:20:14.912Z</time></trkpt><trkpt lat="44.1775642" lon="10.31233"><ele>491.0</ele><time>2026-05-02T10:20:15.912Z</time></trkpt><trkpt lat="44.1775077" lon="10.3124431"><ele>492.8</ele><time>2026-05-02T10:20:16.914Z</time></trkpt><trkpt lat="44.1774461" lon="10.3125558"><ele>494.6</ele><time>2026-05-02T10:20:17.91Z</time></trkpt><trkpt lat="44.1773823" lon="10.3126609"><ele>496.4</ele><time>2026-05-02T10:20:18.914Z</time></trkpt><trkpt lat="44.1773228" lon="10.3127669"><ele>498.2</ele><time>2026-05-02T10:20:19.911Z</time></trkpt><trkpt lat="44.1772678" lon="10.3128732"><ele>500.0</ele><time>2026-05-02T10:20:20.913Z</time></trkpt><trkpt lat="44.177221" lon="10.3129891"><ele>498.2</ele><time>2026-05-02T10:20:21.913Z</time></trkpt><trkpt lat="44.17719" lon="10.3131226"><ele>496.4</ele><time>2026-05-02T10:20:22.912Z</time></trkpt><trkpt lat="44.1771716" lon="10.3132605"><ele>494.6</ele><time>2026-05-02T10:20:23.917Z</time></trkpt><trkpt lat="44.1771657" lon="10.3133969"><ele>492.8</ele><time>2026-05-02T10:20:24.913Z</time></trkpt><trkpt lat="44.177164" lon="10.3135264"><ele>491.0</ele><time>2026-05-02T10:20:25.915Z</time></trkpt><trkpt lat="44.177154" lon="10.3136509"><ele>490.99999999999994</ele><time>2026-05-02T10:20:26.915Z</time></trkpt><trkpt lat="44.1771327" lon="10.313775"><ele>491.0</ele><time>2026-05-02T10:20:27.911Z</time></trkpt><trkpt lat="44.1770922" lon="10.3138769"><ele>491.0</ele><time>2026-05-02T10:20:28.91Z</time></trkpt><trkpt lat="44.1770323" lon="10.3139581"><ele>491.0</ele><time>2026-05-02T10:20:29.914Z</time></trkpt><trkpt lat="44.1769653" lon="10.3140058"><ele>490.99999999999994</ele><time>2026-05-02T10:20:30.914Z</time></trkpt><trkpt lat="44.1768855" lon="10.3140295"><ele>491.0</ele><time>2026-05-02T10:20:31.912Z</time></trkpt><trkpt lat="44.1768102" lon="10.3140078"><ele>490.99999999999994</ele><time>2026-05-02T10:20:32.913Z</time></trkpt><trkpt lat="44.1767432" lon="10.3139624"><ele>491.0</ele><time>2026-05-02T10:20:33.91Z</time></trkpt><trkpt lat="44.1766845" lon="10.3138797"><ele>491.0</ele><time>2026-05-02T10:20:34.911Z</time></trkpt><trkpt lat="44.17663" lon="10.3137711"><ele>491.0</ele><time>2026-05-02T10:20:35.912Z</time></trkpt><trkpt lat="44.176567" lon="10.313662"><ele>490.99999999999994</ele><time>2026-05-02T10:20:36.91Z</time></trkpt><trkpt lat="44.1765005" lon="10.3135682"><ele>491.0</ele><time>2026-05-02T10:20:37.911Z</time></trkpt><trkpt lat="44.176417" lon="10.3135061"><ele>489.20000000000005</ele><time>2026-05-02T10:20:38.912Z</time></trkpt><trkpt lat="44.1763133" lon="10.3134701"><ele>487.40000000000003</ele><time>2026-05-02T10:20:39.913Z</time></trkpt><trkpt lat="44.1762094" lon="10.3134641"><ele>485.6</ele><time>2026-05-02T10:20:40.913Z</time></trkpt><trkpt lat="44.176105" lon="10.3135055"><ele>483.8</ele><time>2026-05-02T10:20:41.914Z</time></trkpt><trkpt lat="44.1760098" lon="10.3135652"><ele>482.0</ele><time>2026-05-02T10:20:42.914Z</time></trkpt><trkpt lat="44.1759177" lon="10.3136448"><ele>482.0</ele><time>2026-05-02T10:20:43.915Z</time></trkpt><trkpt lat="44.1758297" lon="10.313721"><ele>482.00000000000006</ele><time>2026-05-02T10:20:44.915Z</time></trkpt><trkpt lat="44.1757449" lon="10.3138135"><ele>482.00000000000006</ele><time>2026-05-02T10:20:45.915Z</time></trkpt><trkpt lat="44.1756695" lon="10.3139362"><ele>482.0</ele><time>2026-05-02T10:20:46.915Z</time></trkpt><trkpt lat="44.1756104" lon="10.3140809"><ele>482.0</ele><time>2026-05-02T10:20:47.915Z</time></trkpt><trkpt lat="44.1755759" lon="10.3142613"><ele>476.66666666666663</ele><time>2026-05-02T10:20:48.913Z</time></trkpt><trkpt lat="44.175543" lon="10.31449"><ele>471.33333333333337</ele><time>2026-05-02T10:20:49.916Z</time></trkpt><trkpt lat="44.1755062" lon="10.3147668"><ele>466.0</ele><time>2026-05-02T10:20:50.915Z</time></trkpt><trkpt lat="44.1754683" lon="10.3150794"><ele>465.6666666666667</ele><time>2026-05-02T10:20:51.915Z</time></trkpt><trkpt lat="44.1754395" lon="10.315374"><ele>465.33333333333337</ele><time>2026-05-02T10:20:52.914Z</time></trkpt><trkpt lat="44.1754105" lon="10.3156598"><ele>465.0</ele><time>2026-05-02T10:20:53.917Z</time></trkpt><trkpt lat="44.1753716" lon="10.3159367"><ele>465.0</ele><time>2026-05-02T10:20:54.915Z</time></trkpt><trkpt lat="44.1753207" lon="10.3161956"><ele>465.0</ele><time>2026-05-02T10:20:55.915Z</time></trkpt><trkpt lat="44.1752535" lon="10.3164358"><ele>465.0</ele><time>2026-05-02T10:20:56.913Z</time></trkpt><trkpt lat="44.1751859" lon="10.3166637"><ele>468.33333333333337</ele><time>2026-05-02T10:20:57.914Z</time></trkpt><trkpt lat="44.1751151" lon="10.3168621"><ele>471.6666666666667</ele><time>2026-05-02T10:20:58.916Z</time></trkpt><trkpt lat="44.1750288" lon="10.3170384"><ele>475.0</ele><time>2026-05-02T10:20:59.913Z</time></trkpt><trkpt lat="44.1749191" lon="10.3171741"><ele>475.0</ele><time>2026-05-02T10:21:00.914Z</time></trkpt><trkpt lat="44.1747835" lon="10.3172567"><ele>475.0</ele><time>2026-05-02T10:21:01.915Z</time></trkpt><trkpt lat="44.1746277" lon="10.317308"><ele>475.0</ele><time>2026-05-02T10:21:02.913Z</time></trkpt><trkpt lat="44.1744598" lon="10.3173614"><ele>475.0</ele><time>2026-05-02T10:21:03.915Z</time></trkpt><trkpt lat="44.1742801" lon="10.3174156"><ele>475.0</ele><time>2026-05-02T10:21:04.915Z</time></trkpt><trkpt lat="44.1740972" lon="10.3174777"><ele>475.0</ele><time>2026-05-02T10:21:05.913Z</time></trkpt><trkpt lat="44.1739182" lon="10.3175604"><ele>469.0</ele><time>2026-05-02T10:21:06.914Z</time></trkpt><trkpt lat="44.17375" lon="10.3176476"><ele>463.0</ele><time>2026-05-02T10:21:07.914Z</time></trkpt><trkpt lat="44.1735889" lon="10.3177347"><ele>457.0</ele><time>2026-05-02T10:21:08.917Z</time></trkpt><trkpt lat="44.1734351" lon="10.3177958"><ele>457.0</ele><time>2026-05-02T10:21:09.915Z</time></trkpt><trkpt lat="44.1732845" lon="10.3178297"><ele>457.0</ele><time>2026-05-02T10:21:10.915Z</time></trkpt><trkpt lat="44.1731426" lon="10.3178427"><ele>457.0</ele><time>2026-05-02T10:21:11.915Z</time></trkpt><trkpt lat="44.1730042" lon="10.3178614"><ele>457.0</ele><time>2026-05-02T10:21:12.915Z</time></trkpt><trkpt lat="44.1728753" lon="10.3178958"><ele>455.75</ele><time>2026-05-02T10:21:13.914Z</time></trkpt><trkpt lat="44.1727679" lon="10.3179686"><ele>454.5</ele><time>2026-05-02T10:21:14.913Z</time></trkpt><trkpt lat="44.1726854" lon="10.3180829"><ele>453.25</ele><time>2026-05-02T10:21:15.914Z</time></trkpt><trkpt lat="44.1726307" lon="10.3182305"><ele>452.0</ele><time>2026-05-02T10:21:16.913Z</time></trkpt><trkpt lat="44.1725949" lon="10.3184226"><ele>457.3333333333333</ele><time>2026-05-02T10:21:17.917Z</time></trkpt><trkpt lat="44.1725573" lon="10.3186244"><ele>462.66666666666663</ele><time>2026-05-02T10:21:18.914Z</time></trkpt><trkpt lat="44.1725236" lon="10.3188431"><ele>468.0</ele><time>2026-05-02T10:21:19.915Z</time></trkpt><trkpt lat="44.1724882" lon="10.3190678"><ele>468.0</ele><time>2026-05-02T10:21:20.914Z</time></trkpt><trkpt lat="44.1724648" lon="10.3192764"><ele>468.0</ele><time>2026-05-02T10:21:21.914Z</time></trkpt><trkpt lat="44.1724837" lon="10.3194799"><ele>468.0</ele><time>2026-05-02T10:21:22.915Z</time></trkpt><trkpt lat="44.1725383" lon="10.3196591"><ele>468.0</ele><time>2026-05-02T10:21:23.916Z</time></trkpt><trkpt lat="44.1726292" lon="10.3198003"><ele>466.5</ele><time>2026-05-02T10:21:24.916Z</time></trkpt><trkpt lat="44.1727382" lon="10.3199237"><ele>465.0</ele><time>2026-05-02T10:21:25.913Z</time></trkpt><trkpt lat="44.1728466" lon="10.3200617"><ele>463.5</ele><time>2026-05-02T10:21:26.916Z</time></trkpt><trkpt lat="44.172932" lon="10.3202108"><ele>462.0</ele><time>2026-05-02T10:21:27.912Z</time></trkpt><trkpt lat="44.1729784" lon="10.3203859"><ele>461.33333333333337</ele><time>2026-05-02T10:21:28.914Z</time></trkpt><trkpt lat="44.1729813" lon="10.3205717"><ele>460.6666666666667</ele><time>2026-05-02T10:21:29.915Z</time></trkpt><trkpt lat="44.1729581" lon="10.320773"><ele>460.0</ele><time>2026-05-02T10:21:30.913Z</time></trkpt><trkpt lat="44.1729173" lon="10.3210073"><ele>460.0</ele><time>2026-05-02T10:21:31.914Z</time></trkpt><trkpt lat="44.1728684" lon="10.3212603"><ele>460.0</ele><time>2026-05-02T10:21:32.917Z</time></trkpt><trkpt lat="44.172812" lon="10.3215495"><ele>460.0</ele><time>2026-05-02T10:21:33.914Z</time></trkpt><trkpt lat="44.1727579" lon="10.3218408"><ele>460.0</ele><time>2026-05-02T10:21:34.916Z</time></trkpt><trkpt lat="44.1726986" lon="10.3221392"><ele>460.0</ele><time>2026-05-02T10:21:35.914Z</time></trkpt><trkpt lat="44.1726473" lon="10.3224183"><ele>460.0</ele><time>2026-05-02T10:21:36.914Z</time></trkpt><trkpt lat="44.1726185" lon="10.3226915"><ele>460.0</ele><time>2026-05-02T10:21:37.913Z</time></trkpt><trkpt lat="44.1726071" lon="10.3229414"><ele>460.0</ele><time>2026-05-02T10:21:38.913Z</time></trkpt><trkpt lat="44.1726144" lon="10.3231903"><ele>460.0</ele><time>2026-05-02T10:21:39.914Z</time></trkpt><trkpt lat="44.1726464" lon="10.3234383"><ele>460.0</ele><time>2026-05-02T10:21:40.916Z</time></trkpt><trkpt lat="44.1727064" lon="10.3236799"><ele>460.0</ele><time>2026-05-02T10:21:41.916Z</time></trkpt><trkpt lat="44.1727848" lon="10.3239156"><ele>460.0</ele><time>2026-05-02T10:21:42.914Z</time></trkpt><trkpt lat="44.1728765" lon="10.324137"><ele>456.33333333333337</ele><time>2026-05-02T10:21:43.914Z</time></trkpt><trkpt lat="44.1729764" lon="10.324332"><ele>452.66666666666663</ele><time>2026-05-02T10:21:44.917Z</time></trkpt><trkpt lat="44.1730877" lon="10.3244945"><ele>449.0</ele><time>2026-05-02T10:21:45.915Z</time></trkpt><trkpt lat="44.173194" lon="10.3246452"><ele>453.75</ele><time>2026-05-02T10:21:46.914Z</time></trkpt><trkpt lat="44.1732951" lon="10.3247859"><ele>458.5</ele><time>2026-05-02T10:21:47.915Z</time></trkpt><trkpt lat="44.1733737" lon="10.32494"><ele>463.25</ele><time>2026-05-02T10:21:48.915Z</time></trkpt><trkpt lat="44.17341" lon="10.3251115"><ele>468.0</ele><time>2026-05-02T10:21:49.912Z</time></trkpt><trkpt lat="44.1734005" lon="10.3252829"><ele>468.0</ele><time>2026-05-02T10:21:50.913Z</time></trkpt><trkpt lat="44.1733534" lon="10.3254434"><ele>468.0</ele><time>2026-05-02T10:21:51.913Z</time></trkpt><trkpt lat="44.1732644" lon="10.3255854"><ele>468.0</ele><time>2026-05-02T10:21:52.912Z</time></trkpt><trkpt lat="44.1731546" lon="10.325726"><ele>468.0</ele><time>2026-05-02T10:21:53.917Z</time></trkpt><trkpt lat="44.17302" lon="10.3258758"><ele>468.0</ele><time>2026-05-02T10:21:54.917Z</time></trkpt><trkpt lat="44.1728923" lon="10.3260012"><ele>468.0</ele><time>2026-05-02T10:21:55.91Z</time></trkpt><trkpt lat="44.1727565" lon="10.3261185"><ele>468.0</ele><time>2026-05-02T10:21:56.912Z</time></trkpt><trkpt lat="44.1726489" lon="10.3261671"><ele>468.0</ele><time>2026-05-02T10:21:57.911Z</time></trkpt><trkpt lat="44.1725108" lon="10.3261677"><ele>468.0</ele><time>2026-05-02T10:21:58.912Z</time></trkpt><trkpt lat="44.1723935" lon="10.3261321"><ele>468.0</ele><time>2026-05-02T10:21:59.91Z</time></trkpt><trkpt lat="44.1722795" lon="10.3260511"><ele>468.0</ele><time>2026-05-02T10:22:00.912Z</time></trkpt><trkpt lat="44.1721599" lon="10.3259763"><ele>468.0</ele><time>2026-05-02T10:22:01.912Z</time></trkpt><trkpt lat="44.1720353" lon="10.3259022"><ele>467.59999999999997</ele><time>2026-05-02T10:22:02.912Z</time></trkpt><trkpt lat="44.1719145" lon="10.3259385"><ele>467.19999999999993</ele><time>2026-05-02T10:22:03.917Z</time></trkpt><trkpt lat="44.1718189" lon="10.3259896"><ele>466.8</ele><time>2026-05-02T10:22:04.915Z</time></trkpt><trkpt lat="44.1717524" lon="10.3261043"><ele>466.4</ele><time>2026-05-02T10:22:05.912Z</time></trkpt><trkpt lat="44.1717223" lon="10.3262451"><ele>466.0</ele><time>2026-05-02T10:22:06.914Z</time></trkpt><trkpt lat="44.1717278" lon="10.3264133"><ele>468.6666666666667</ele><time>2026-05-02T10:22:07.915Z</time></trkpt><trkpt lat="44.1717483" lon="10.3266113"><ele>471.33333333333337</ele><time>2026-05-02T10:22:08.912Z</time></trkpt><trkpt lat="44.1717712" lon="10.3268355"><ele>474.0</ele><time>2026-05-02T10:22:09.911Z</time></trkpt><trkpt lat="44.1717851" lon="10.3270528"><ele>475.66666666666663</ele><time>2026-05-02T10:22:10.914Z</time></trkpt><trkpt lat="44.1718025" lon="10.3272833"><ele>477.3333333333333</ele><time>2026-05-02T10:22:11.914Z</time></trkpt><trkpt lat="44.1718839" lon="10.3274361"><ele>479.0</ele><time>2026-05-02T10:22:12.912Z</time></trkpt><trkpt lat="44.1719727" lon="10.3276058"><ele>479.0</ele><time>2026-05-02T10:22:13.913Z</time></trkpt><trkpt lat="44.172087" lon="10.3277638"><ele>479.0</ele><time>2026-05-02T10:22:14.916Z</time></trkpt><trkpt lat="44.1722114" lon="10.3279342"><ele>479.0</ele><time>2026-05-02T10:22:15.913Z</time></trkpt><trkpt lat="44.1723242" lon="10.328129"><ele>486.0</ele><time>2026-05-02T10:22:16.913Z</time></trkpt><trkpt lat="44.172394" lon="10.3283576"><ele>493.0</ele><time>2026-05-02T10:22:17.915Z</time></trkpt><trkpt lat="44.1724435" lon="10.3285993"><ele>500.0</ele><time>2026-05-02T10:22:18.915Z</time></trkpt><trkpt lat="44.1724611" lon="10.3288324"><ele>499.5</ele><time>2026-05-02T10:22:19.915Z</time></trkpt><trkpt lat="44.1724427" lon="10.3290492"><ele>499.0</ele><time>2026-05-02T10:22:20.916Z</time></trkpt><trkpt lat="44.1724048" lon="10.3292502"><ele>498.5</ele><time>2026-05-02T10:22:21.914Z</time></trkpt><trkpt lat="44.1723776" lon="10.329429"><ele>498.0</ele><time>2026-05-02T10:22:22.915Z</time></trkpt><trkpt lat="44.1723868" lon="10.3296005"><ele>497.2</ele><time>2026-05-02T10:22:23.916Z</time></trkpt><trkpt lat="44.1724349" lon="10.3297293"><ele>496.4</ele><time>2026-05-02T10:22:24.913Z</time></trkpt><trkpt lat="44.1725183" lon="10.3298263"><ele>495.59999999999997</ele><time>2026-05-02T10:22:25.914Z</time></trkpt><trkpt lat="44.1726264" lon="10.3298892"><ele>494.79999999999995</ele><time>2026-05-02T10:22:26.912Z</time></trkpt><trkpt lat="44.172724" lon="10.3299562"><ele>494.0</ele><time>2026-05-02T10:22:27.913Z</time></trkpt><trkpt lat="44.172796" lon="10.3301184"><ele>494.0</ele><time>2026-05-02T10:22:28.915Z</time></trkpt><trkpt lat="44.1728405" lon="10.3302829"><ele>494.0</ele><time>2026-05-02T10:22:29.913Z</time></trkpt><trkpt lat="44.1728829" lon="10.33048"><ele>494.0</ele><time>2026-05-02T10:22:30.916Z</time></trkpt><trkpt lat="44.1729251" lon="10.3306983"><ele>494.0</ele><time>2026-05-02T10:22:31.914Z</time></trkpt><trkpt lat="44.1729603" lon="10.3309319"><ele>490.66666666666663</ele><time>2026-05-02T10:22:32.913Z</time></trkpt><trkpt lat="44.172999" lon="10.3311779"><ele>487.33333333333337</ele><time>2026-05-02T10:22:33.916Z</time></trkpt><trkpt lat="44.1730509" lon="10.3314241"><ele>484.0</ele><time>2026-05-02T10:22:34.914Z</time></trkpt><trkpt lat="44.1731072" lon="10.3316822"><ele>483.6666666666667</ele><time>2026-05-02T10:22:35.913Z</time></trkpt><trkpt lat="44.1731645" lon="10.3319452"><ele>483.33333333333337</ele><time>2026-05-02T10:22:36.914Z</time></trkpt><trkpt lat="44.1732128" lon="10.3322049"><ele>483.0</ele><time>2026-05-02T10:22:37.913Z</time></trkpt><trkpt lat="44.173253" lon="10.3324714"><ele>490.0</ele><time>2026-05-02T10:22:38.913Z</time></trkpt><trkpt lat="44.1732868" lon="10.3327344"><ele>497.0</ele><time>2026-05-02T10:22:39.915Z</time></trkpt><trkpt lat="44.1733173" lon="10.3330029"><ele>504.0</ele><time>2026-05-02T10:22:40.913Z</time></trkpt><trkpt lat="44.1733407" lon="10.3332591"><ele>504.0</ele><time>2026-05-02T10:22:41.914Z</time></trkpt><trkpt lat="44.173367" lon="10.3334984"><ele>504.0</ele><time>2026-05-02T10:22:42.913Z</time></trkpt><trkpt lat="44.1734109" lon="10.3337074"><ele>504.0</ele><time>2026-05-02T10:22:43.913Z</time></trkpt><trkpt lat="44.1734829" lon="10.3338854"><ele>500.66666666666663</ele><time>2026-05-02T10:22:44.914Z</time></trkpt><trkpt lat="44.173589" lon="10.3340438"><ele>497.3333333333333</ele><time>2026-05-02T10:22:45.914Z</time></trkpt><trkpt lat="44.1737025" lon="10.3341922"><ele>494.0</ele><time>2026-05-02T10:22:46.914Z</time></trkpt><trkpt lat="44.1738112" lon="10.3343497"><ele>494.0</ele><time>2026-05-02T10:22:47.913Z</time></trkpt><trkpt lat="44.1738941" lon="10.3345387"><ele>494.0</ele><time>2026-05-02T10:22:48.912Z</time></trkpt><trkpt lat="44.1739498" lon="10.3347494"><ele>494.0</ele><time>2026-05-02T10:22:49.913Z</time></trkpt><trkpt lat="44.1739896" lon="10.3349703"><ele>499.3333333333333</ele><time>2026-05-02T10:22:50.913Z</time></trkpt><trkpt lat="44.1740469" lon="10.3351862"><ele>504.66666666666663</ele><time>2026-05-02T10:22:51.915Z</time></trkpt><trkpt lat="44.1741157" lon="10.3353722"><ele>510.0</ele><time>2026-05-02T10:22:52.913Z</time></trkpt><trkpt lat="44.1741704" lon="10.3355592"><ele>510.0</ele><time>2026-05-02T10:22:53.914Z</time></trkpt><trkpt lat="44.1741925" lon="10.3357468"><ele>510.0</ele><time>2026-05-02T10:22:54.913Z</time></trkpt><trkpt lat="44.1741841" lon="10.3359422"><ele>510.0</ele><time>2026-05-02T10:22:55.912Z</time></trkpt><trkpt lat="44.1741431" lon="10.3361226"><ele>510.0</ele><time>2026-05-02T10:22:56.912Z</time></trkpt><trkpt lat="44.1740965" lon="10.3362901"><ele>507.0</ele><time>2026-05-02T10:22:57.913Z</time></trkpt><trkpt lat="44.1739371" lon="10.3363764"><ele>504.0</ele><time>2026-05-02T10:22:58.911Z</time></trkpt><trkpt lat="44.1738068" lon="10.3364722"><ele>501.0</ele><time>2026-05-02T10:22:59.913Z</time></trkpt><trkpt lat="44.173666" lon="10.336584"><ele>501.0</ele><time>2026-05-02T10:23:00.914Z</time></trkpt><trkpt lat="44.1735273" lon="10.3367207"><ele>501.0</ele><time>2026-05-02T10:23:01.915Z</time></trkpt><trkpt lat="44.1733834" lon="10.3368656"><ele>501.0</ele><time>2026-05-02T10:23:02.916Z</time></trkpt><trkpt lat="44.1732249" lon="10.3370082"><ele>503.0</ele><time>2026-05-02T10:23:03.916Z</time></trkpt><trkpt lat="44.173052" lon="10.3371246"><ele>505.0</ele><time>2026-05-02T10:23:04.912Z</time></trkpt><trkpt lat="44.1728646" lon="10.33722"><ele>507.0</ele><time>2026-05-02T10:23:05.914Z</time></trkpt><trkpt lat="44.1726612" lon="10.3373071"><ele>507.0</ele><time>2026-05-02T10:23:06.912Z</time></trkpt><trkpt lat="44.1724626" lon="10.3373868"><ele>507.0</ele><time>2026-05-02T10:23:07.916Z</time></trkpt><trkpt lat="44.1722813" lon="10.3374584"><ele>507.0</ele><time>2026-05-02T10:23:08.914Z</time></trkpt><trkpt lat="44.1721099" lon="10.337512"><ele>504.0</ele><time>2026-05-02T10:23:09.918Z</time></trkpt><trkpt lat="44.1719493" lon="10.3375625"><ele>501.0</ele><time>2026-05-02T10:23:10.914Z</time></trkpt><trkpt lat="44.1718011" lon="10.3376137"><ele>498.0</ele><time>2026-05-02T10:23:11.914Z</time></trkpt><trkpt lat="44.1716705" lon="10.3376786"><ele>498.0</ele><time>2026-05-02T10:23:12.916Z</time></trkpt><trkpt lat="44.1715605" lon="10.3377684"><ele>498.0</ele><time>2026-05-02T10:23:13.915Z</time></trkpt><trkpt lat="44.1714709" lon="10.3378823"><ele>498.0</ele><time>2026-05-02T10:23:14.912Z</time></trkpt><trkpt lat="44.1714285" lon="10.3380194"><ele>498.0</ele><time>2026-05-02T10:23:15.911Z</time></trkpt><trkpt lat="44.1714305" lon="10.3381553"><ele>496.75</ele><time>2026-05-02T10:23:16.913Z</time></trkpt><trkpt lat="44.1714696" lon="10.3382954"><ele>495.5</ele><time>2026-05-02T10:23:17.914Z</time></trkpt><trkpt lat="44.1715285" lon="10.3384353"><ele>494.25</ele><time>2026-05-02T10:23:18.915Z</time></trkpt><trkpt lat="44.1715938" lon="10.3385875"><ele>493.0</ele><time>2026-05-02T10:23:19.916Z</time></trkpt><trkpt lat="44.1716641" lon="10.3387584"><ele>498.0</ele><time>2026-05-02T10:23:20.915Z</time></trkpt><trkpt lat="44.1717347" lon="10.3389165"><ele>503.0</ele><time>2026-05-02T10:23:21.915Z</time></trkpt><trkpt lat="44.1717796" lon="10.3390827"><ele>508.0</ele><time>2026-05-02T10:23:22.914Z</time></trkpt><trkpt lat="44.1717882" lon="10.3392564"><ele>513.0</ele><time>2026-05-02T10:23:23.912Z</time></trkpt><trkpt lat="44.1717517" lon="10.3394298"><ele>513.0</ele><time>2026-05-02T10:23:24.914Z</time></trkpt><trkpt lat="44.1716874" lon="10.3396001"><ele>513.0</ele><time>2026-05-02T10:23:25.913Z</time></trkpt><trkpt lat="44.1716402" lon="10.3397831"><ele>513.0</ele><time>2026-05-02T10:23:26.915Z</time></trkpt><trkpt lat="44.1716155" lon="10.3399923"><ele>513.0</ele><time>2026-05-02T10:23:27.91Z</time></trkpt><trkpt lat="44.1716011" lon="10.3402169"><ele>515.3333333333334</ele><time>2026-05-02T10:23:28.912Z</time></trkpt><trkpt lat="44.171602" lon="10.3404255"><ele>517.6666666666667</ele><time>2026-05-02T10:23:29.912Z</time></trkpt><trkpt lat="44.1716061" lon="10.3406375"><ele>520.0</ele><time>2026-05-02T10:23:30.912Z</time></trkpt><trkpt lat="44.1716992" lon="10.3408139"><ele>519.6666666666667</ele><time>2026-05-02T10:23:31.912Z</time></trkpt><trkpt lat="44.1717704" lon="10.3409995"><ele>519.3333333333334</ele><time>2026-05-02T10:23:32.912Z</time></trkpt><trkpt lat="44.1718347" lon="10.3411836"><ele>519.0</ele><time>2026-05-02T10:23:33.912Z</time></trkpt><trkpt lat="44.1718693" lon="10.3413919"><ele>519.0</ele><time>2026-05-02T10:23:34.912Z</time></trkpt><trkpt lat="44.171884" lon="10.3415995"><ele>519.0</ele><time>2026-05-02T10:23:35.924Z</time></trkpt><trkpt lat="44.1718507" lon="10.3418316"><ele>519.0</ele><time>2026-05-02T10:23:36.913Z</time></trkpt><trkpt lat="44.1718024" lon="10.3420462"><ele>520.0</ele><time>2026-05-02T10:23:37.916Z</time></trkpt><trkpt lat="44.1717429" lon="10.3422699"><ele>521.0</ele><time>2026-05-02T10:23:38.913Z</time></trkpt><trkpt lat="44.1716209" lon="10.3424691"><ele>522.0</ele><time>2026-05-02T10:23:39.912Z</time></trkpt><trkpt lat="44.1715177" lon="10.3426736"><ele>520.3333333333334</ele><time>2026-05-02T10:23:40.913Z</time></trkpt><trkpt lat="44.1714191" lon="10.3428745"><ele>518.6666666666667</ele><time>2026-05-02T10:23:41.914Z</time></trkpt><trkpt lat="44.1713205" lon="10.3430642"><ele>517.0</ele><time>2026-05-02T10:23:42.914Z</time></trkpt><trkpt lat="44.1712219" lon="10.3432518"><ele>517.0</ele><time>2026-05-02T10:23:43.915Z</time></trkpt><trkpt lat="44.1711116" lon="10.3434279"><ele>517.0</ele><time>2026-05-02T10:23:44.915Z</time></trkpt><trkpt lat="44.1710022" lon="10.3435947"><ele>517.0</ele><time>2026-05-02T10:23:45.913Z</time></trkpt><trkpt lat="44.1708716" lon="10.3437031"><ele>517.0</ele><time>2026-05-02T10:23:46.911Z</time></trkpt><trkpt lat="44.1707609" lon="10.3438367"><ele>517.0</ele><time>2026-05-02T10:23:47.91Z</time></trkpt><trkpt lat="44.1706753" lon="10.3439991"><ele>517.0</ele><time>2026-05-02T10:23:48.914Z</time></trkpt><trkpt lat="44.1706206" lon="10.3441957"><ele>517.0</ele><time>2026-05-02T10:23:49.914Z</time></trkpt><trkpt lat="44.1705844" lon="10.3444236"><ele>516.5</ele><time>2026-05-02T10:23:50.914Z</time></trkpt><trkpt lat="44.1705601" lon="10.3446369"><ele>516.0</ele><time>2026-05-02T10:23:51.914Z</time></trkpt><trkpt lat="44.1705414" lon="10.3448359"><ele>515.5</ele><time>2026-05-02T10:23:52.915Z</time></trkpt><trkpt lat="44.1705249" lon="10.3450248"><ele>515.0</ele><time>2026-05-02T10:23:53.913Z</time></trkpt><trkpt lat="44.1705113" lon="10.3451967"><ele>518.25</ele><time>2026-05-02T10:23:54.915Z</time></trkpt><trkpt lat="44.170491" lon="10.345365"><ele>521.5</ele><time>2026-05-02T10:23:55.916Z</time></trkpt><trkpt lat="44.1704552" lon="10.3455128"><ele>524.75</ele><time>2026-05-02T10:23:56.913Z</time></trkpt><trkpt lat="44.1704012" lon="10.3456438"><ele>528.0</ele><time>2026-05-02T10:23:57.911Z</time></trkpt><trkpt lat="44.1703261" lon="10.3457519"><ele>530.0</ele><time>2026-05-02T10:23:58.913Z</time></trkpt><trkpt lat="44.1702354" lon="10.3458395"><ele>532.0</ele><time>2026-05-02T10:23:59.912Z</time></trkpt><trkpt lat="44.170131" lon="10.3458981"><ele>534.0</ele><time>2026-05-02T10:24:00.915Z</time></trkpt><trkpt lat="44.1700268" lon="10.3459333"><ele>536.0</ele><time>2026-05-02T10:24:01.917Z</time></trkpt><trkpt lat="44.1699173" lon="10.3459365"><ele>538.0</ele><time>2026-05-02T10:24:02.913Z</time></trkpt><trkpt lat="44.1698106" lon="10.3459012"><ele>538.6</ele><time>2026-05-02T10:24:03.912Z</time></trkpt><trkpt lat="44.1697085" lon="10.3458406"><ele>539.1999999999999</ele><time>2026-05-02T10:24:04.913Z</time></trkpt><trkpt lat="44.1696092" lon="10.3457699"><ele>539.8</ele><time>2026-05-02T10:24:05.912Z</time></trkpt><trkpt lat="44.1695034" lon="10.3457019"><ele>540.4</ele><time>2026-05-02T10:24:06.914Z</time></trkpt><trkpt lat="44.1694046" lon="10.3456354"><ele>541.0</ele><time>2026-05-02T10:24:07.914Z</time></trkpt><trkpt lat="44.1693065" lon="10.3455751"><ele>538.4</ele><time>2026-05-02T10:24:08.911Z</time></trkpt><trkpt lat="44.1692137" lon="10.3455343"><ele>535.8</ele><time>2026-05-02T10:24:09.914Z</time></trkpt><trkpt lat="44.1691154" lon="10.3455184"><ele>533.1999999999999</ele><time>2026-05-02T10:24:10.914Z</time></trkpt><trkpt lat="44.1690203" lon="10.3455256"><ele>530.6</ele><time>2026-05-02T10:24:11.913Z</time></trkpt><trkpt lat="44.1689297" lon="10.3455461"><ele>528.0</ele><time>2026-05-02T10:24:12.914Z</time></trkpt><trkpt lat="44.168858" lon="10.3456277"><ele>528.0</ele><time>2026-05-02T10:24:13.917Z</time></trkpt><trkpt lat="44.1687995" lon="10.3457173"><ele>528.0</ele><time>2026-05-02T10:24:14.914Z</time></trkpt><trkpt lat="44.1687597" lon="10.34583"><ele>528.0</ele><time>2026-05-02T10:24:15.912Z</time></trkpt><trkpt lat="44.1687485" lon="10.3459518"><ele>528.0</ele><time>2026-05-02T10:24:16.914Z</time></trkpt><trkpt lat="44.1687662" lon="10.3460947"><ele>528.0</ele><time>2026-05-02T10:24:17.913Z</time></trkpt><trkpt lat="44.1687954" lon="10.3462324"><ele>528.0</ele><time>2026-05-02T10:24:18.915Z</time></trkpt><trkpt lat="44.1688245" lon="10.3463625"><ele>528.0</ele><time>2026-05-02T10:24:19.915Z</time></trkpt><trkpt lat="44.1688271" lon="10.3465015"><ele>528.0</ele><time>2026-05-02T10:24:20.916Z</time></trkpt><trkpt lat="44.1688025" lon="10.3466345"><ele>528.0</ele><time>2026-05-02T10:24:21.913Z</time></trkpt><trkpt lat="44.1687532" lon="10.3467436"><ele>528.0</ele><time>2026-05-02T10:24:22.912Z</time></trkpt><trkpt lat="44.1686891" lon="10.3468422"><ele>527.8</ele><time>2026-05-02T10:24:23.914Z</time></trkpt><trkpt lat="44.1686221" lon="10.3469429"><ele>527.5999999999999</ele><time>2026-05-02T10:24:24.912Z</time></trkpt><trkpt lat="44.1685577" lon="10.3470465"><ele>527.4000000000001</ele><time>2026-05-02T10:24:25.915Z</time></trkpt><trkpt lat="44.1684934" lon="10.3471453"><ele>527.2</ele><time>2026-05-02T10:24:26.913Z</time></trkpt><trkpt lat="44.1684342" lon="10.3472401"><ele>527.0</ele><time>2026-05-02T10:24:27.913Z</time></trkpt><trkpt lat="44.1683971" lon="10.3473427"><ele>527.0</ele><time>2026-05-02T10:24:28.912Z</time></trkpt><trkpt lat="44.1683676" lon="10.3474383"><ele>527.0</ele><time>2026-05-02T10:24:29.915Z</time></trkpt><trkpt lat="44.1684262" lon="10.3475585"><ele>527.0</ele><time>2026-05-02T10:24:30.915Z</time></trkpt><trkpt lat="44.1684898" lon="10.3476379"><ele>527.0</ele><time>2026-05-02T10:24:31.914Z</time></trkpt><trkpt lat="44.1685799" lon="10.3476903"><ele>527.0</ele><time>2026-05-02T10:24:32.913Z</time></trkpt><trkpt lat="44.1686771" lon="10.3477115"><ele>527.0</ele><time>2026-05-02T10:24:33.919Z</time></trkpt><trkpt lat="44.1687742" lon="10.34774"><ele>527.0</ele><time>2026-05-02T10:24:34.912Z</time></trkpt><trkpt lat="44.1688674" lon="10.3477926"><ele>527.0</ele><time>2026-05-02T10:24:35.916Z</time></trkpt><trkpt lat="44.1689426" lon="10.3478692"><ele>527.0</ele><time>2026-05-02T10:24:36.914Z</time></trkpt><trkpt lat="44.1689866" lon="10.3479813"><ele>527.0</ele><time>2026-05-02T10:24:37.909Z</time></trkpt><trkpt lat="44.168993" lon="10.3481026"><ele>524.0</ele><time>2026-05-02T10:24:38.91Z</time></trkpt><trkpt lat="44.1689658" lon="10.3482267"><ele>521.0</ele><time>2026-05-02T10:24:39.914Z</time></trkpt><trkpt lat="44.168921" lon="10.3483633"><ele>518.0</ele><time>2026-05-02T10:24:40.913Z</time></trkpt><trkpt lat="44.1688714" lon="10.3485171"><ele>515.0</ele><time>2026-05-02T10:24:41.911Z</time></trkpt><trkpt lat="44.1688203" lon="10.3486679"><ele>512.0</ele><time>2026-05-02T10:24:42.913Z</time></trkpt><trkpt lat="44.1687721" lon="10.3488184"><ele>511.25</ele><time>2026-05-02T10:24:43.915Z</time></trkpt><trkpt lat="44.1687199" lon="10.3489756"><ele>510.5</ele><time>2026-05-02T10:24:44.914Z</time></trkpt><trkpt lat="44.1686675" lon="10.3491291"><ele>509.75</ele><time>2026-05-02T10:24:45.911Z</time></trkpt><trkpt lat="44.1686149" lon="10.3492796"><ele>509.0</ele><time>2026-05-02T10:24:46.915Z</time></trkpt><trkpt lat="44.1685633" lon="10.3494295"><ele>509.0</ele><time>2026-05-02T10:24:47.914Z</time></trkpt><trkpt lat="44.1685155" lon="10.3495818"><ele>509.0</ele><time>2026-05-02T10:24:48.915Z</time></trkpt><trkpt lat="44.168477" lon="10.3497406"><ele>509.0</ele><time>2026-05-02T10:24:49.913Z</time></trkpt><trkpt lat="44.1684583" lon="10.349908"><ele>509.0</ele><time>2026-05-02T10:24:50.914Z</time></trkpt><trkpt lat="44.168461" lon="10.3500774"><ele>508.75</ele><time>2026-05-02T10:24:51.914Z</time></trkpt><trkpt lat="44.1684847" lon="10.3502367"><ele>508.5</ele><time>2026-05-02T10:24:52.914Z</time></trkpt><trkpt lat="44.1685335" lon="10.3503795"><ele>508.25</ele><time>2026-05-02T10:24:53.913Z</time></trkpt><trkpt lat="44.1685946" lon="10.350516"><ele>508.0</ele><time>2026-05-02T10:24:54.911Z</time></trkpt><trkpt lat="44.1686434" lon="10.3506581"><ele>506.25</ele><time>2026-05-02T10:24:55.917Z</time></trkpt><trkpt lat="44.1686645" lon="10.3508077"><ele>504.5</ele><time>2026-05-02T10:24:56.913Z</time></trkpt><trkpt lat="44.168661" lon="10.3509739"><ele>502.75</ele><time>2026-05-02T10:24:57.915Z</time></trkpt><trkpt lat="44.1686463" lon="10.3511414"><ele>501.0</ele><time>2026-05-02T10:24:58.91Z</time></trkpt><trkpt lat="44.1686257" lon="10.3512929"><ele>506.0</ele><time>2026-05-02T10:24:59.912Z</time></trkpt><trkpt lat="44.1685919" lon="10.3514361"><ele>511.0</ele><time>2026-05-02T10:25:00.915Z</time></trkpt><trkpt lat="44.1685412" lon="10.3515636"><ele>516.0</ele><time>2026-05-02T10:25:01.914Z</time></trkpt><trkpt lat="44.1684654" lon="10.3516577"><ele>521.0</ele><time>2026-05-02T10:25:02.911Z</time></trkpt><trkpt lat="44.1683678" lon="10.351719"><ele>526.0</ele><time>2026-05-02T10:25:03.91Z</time></trkpt><trkpt lat="44.1682594" lon="10.351739"><ele>522.25</ele><time>2026-05-02T10:25:04.911Z</time></trkpt><trkpt lat="44.1681364" lon="10.3516928"><ele>518.5</ele><time>2026-05-02T10:25:05.91Z</time></trkpt><trkpt lat="44.1679995" lon="10.3516481"><ele>514.75</ele><time>2026-05-02T10:25:06.91Z</time></trkpt><trkpt lat="44.1678502" lon="10.3516082"><ele>511.0</ele><time>2026-05-02T10:25:07.91Z</time></trkpt><trkpt lat="44.1677079" lon="10.3515923"><ele>511.0</ele><time>2026-05-02T10:25:08.91Z</time></trkpt><trkpt lat="44.1675697" lon="10.351601"><ele>511.0</ele><time>2026-05-02T10:25:09.914Z</time></trkpt><trkpt lat="44.1674355" lon="10.3516552"><ele>511.0</ele><time>2026-05-02T10:25:10.913Z</time></trkpt><trkpt lat="44.1673058" lon="10.3517519"><ele>511.0</ele><time>2026-05-02T10:25:11.912Z</time></trkpt><trkpt lat="44.1671825" lon="10.3518751"><ele>511.0</ele><time>2026-05-02T10:25:12.913Z</time></trkpt><trkpt lat="44.1670634" lon="10.3520181"><ele>511.0</ele><time>2026-05-02T10:25:13.91Z</time></trkpt><trkpt lat="44.166954" lon="10.3521493"><ele>511.0</ele><time>2026-05-02T10:25:14.913Z</time></trkpt><trkpt lat="44.1668417" lon="10.3522702"><ele>511.0</ele><time>2026-05-02T10:25:15.913Z</time></trkpt><trkpt lat="44.166724" lon="10.352369"><ele>511.0</ele><time>2026-05-02T10:25:16.914Z</time></trkpt><trkpt lat="44.1665996" lon="10.3524421"><ele>511.0</ele><time>2026-05-02T10:25:17.913Z</time></trkpt><trkpt lat="44.1664599" lon="10.3525021"><ele>511.0</ele><time>2026-05-02T10:25:18.913Z</time></trkpt><trkpt lat="44.1663178" lon="10.3525539"><ele>511.0</ele><time>2026-05-02T10:25:19.912Z</time></trkpt><trkpt lat="44.1661821" lon="10.3526021"><ele>507.0</ele><time>2026-05-02T10:25:20.916Z</time></trkpt><trkpt lat="44.1660493" lon="10.3526495"><ele>503.0</ele><time>2026-05-02T10:25:21.918Z</time></trkpt><trkpt lat="44.1659211" lon="10.3527035"><ele>499.0</ele><time>2026-05-02T10:25:22.914Z</time></trkpt><trkpt lat="44.1658003" lon="10.3527531"><ele>495.0</ele><time>2026-05-02T10:25:23.912Z</time></trkpt><trkpt lat="44.1656765" lon="10.3528009"><ele>493.5</ele><time>2026-05-02T10:25:24.914Z</time></trkpt><trkpt lat="44.1655547" lon="10.352856"><ele>492.0</ele><time>2026-05-02T10:25:25.913Z</time></trkpt><trkpt lat="44.1654307" lon="10.3529099"><ele>490.5</ele><time>2026-05-02T10:25:26.921Z</time></trkpt><trkpt lat="44.1653124" lon="10.3529553"><ele>489.0</ele><time>2026-05-02T10:25:27.915Z</time></trkpt><trkpt lat="44.1651986" lon="10.3530009"><ele>488.0</ele><time>2026-05-02T10:25:28.913Z</time></trkpt><trkpt lat="44.1650912" lon="10.353049"><ele>487.0</ele><time>2026-05-02T10:25:29.913Z</time></trkpt><trkpt lat="44.1649869" lon="10.3531139"><ele>486.0</ele><time>2026-05-02T10:25:30.914Z</time></trkpt><trkpt lat="44.1648883" lon="10.3531996"><ele>485.0</ele><time>2026-05-02T10:25:31.913Z</time></trkpt><trkpt lat="44.1648002" lon="10.3532925"><ele>485.0</ele><time>2026-05-02T10:25:32.912Z</time></trkpt><trkpt lat="44.1647217" lon="10.3533996"><ele>485.0</ele><time>2026-05-02T10:25:33.912Z</time></trkpt><trkpt lat="44.1646456" lon="10.3535072"><ele>485.0</ele><time>2026-05-02T10:25:34.919Z</time></trkpt><trkpt lat="44.1645714" lon="10.353616"><ele>485.0</ele><time>2026-05-02T10:25:35.915Z</time></trkpt><trkpt lat="44.1644981" lon="10.3537303"><ele>485.0</ele><time>2026-05-02T10:25:36.914Z</time></trkpt><trkpt lat="44.1644249" lon="10.3538421"><ele>487.2</ele><time>2026-05-02T10:25:37.914Z</time></trkpt><trkpt lat="44.1643517" lon="10.353951"><ele>489.4</ele><time>2026-05-02T10:25:38.914Z</time></trkpt><trkpt lat="44.1642759" lon="10.3540495"><ele>491.6</ele><time>2026-05-02T10:25:39.914Z</time></trkpt><trkpt lat="44.1641971" lon="10.354139"><ele>493.8</ele><time>2026-05-02T10:25:40.913Z</time></trkpt><trkpt lat="44.1641127" lon="10.3542069"><ele>496.0</ele><time>2026-05-02T10:25:41.913Z</time></trkpt><trkpt lat="44.1640231" lon="10.3542639"><ele>496.0</ele><time>2026-05-02T10:25:42.913Z</time></trkpt><trkpt lat="44.1639238" lon="10.3543012"><ele>496.0</ele><time>2026-05-02T10:25:43.915Z</time></trkpt><trkpt lat="44.163818" lon="10.3543248"><ele>496.0</ele><time>2026-05-02T10:25:44.914Z</time></trkpt><trkpt lat="44.1637102" lon="10.3543473"><ele>496.0</ele><time>2026-05-02T10:25:45.913Z</time></trkpt><trkpt lat="44.1635952" lon="10.3543694"><ele>496.0</ele><time>2026-05-02T10:25:46.913Z</time></trkpt><trkpt lat="44.1634765" lon="10.354394"><ele>496.0</ele><time>2026-05-02T10:25:47.914Z</time></trkpt><trkpt lat="44.163357" lon="10.3544185"><ele>496.0</ele><time>2026-05-02T10:25:48.912Z</time></trkpt><trkpt lat="44.163244" lon="10.3544418"><ele>496.0</ele><time>2026-05-02T10:25:49.915Z</time></trkpt><trkpt lat="44.1631275" lon="10.3544618"><ele>496.0</ele><time>2026-05-02T10:25:50.919Z</time></trkpt><trkpt lat="44.1630127" lon="10.3544758"><ele>495.8</ele><time>2026-05-02T10:25:51.914Z</time></trkpt><trkpt lat="44.1628993" lon="10.3544945"><ele>495.6</ele><time>2026-05-02T10:25:52.915Z</time></trkpt><trkpt lat="44.1627856" lon="10.354509"><ele>495.4</ele><time>2026-05-02T10:25:53.911Z</time></trkpt><trkpt lat="44.1626751" lon="10.3545234"><ele>495.2</ele><time>2026-05-02T10:25:54.916Z</time></trkpt><trkpt lat="44.1625663" lon="10.3545322"><ele>495.0</ele><time>2026-05-02T10:25:55.913Z</time></trkpt><trkpt lat="44.1624556" lon="10.3545258"><ele>496.6</ele><time>2026-05-02T10:25:56.911Z</time></trkpt><trkpt lat="44.1623489" lon="10.354513"><ele>498.2</ele><time>2026-05-02T10:25:57.914Z</time></trkpt><trkpt lat="44.1622499" lon="10.3544756"><ele>499.79999999999995</ele><time>2026-05-02T10:25:58.912Z</time></trkpt><trkpt lat="44.1621569" lon="10.3544049"><ele>501.4</ele><time>2026-05-02T10:25:59.913Z</time></trkpt><trkpt lat="44.1620597" lon="10.3543301"><ele>503.0</ele><time>2026-05-02T10:26:00.913Z</time></trkpt><trkpt lat="44.161965" lon="10.354244"><ele>503.0</ele><time>2026-05-02T10:26:01.913Z</time></trkpt><trkpt lat="44.161872" lon="10.3541456"><ele>503.0</ele><time>2026-05-02T10:26:02.915Z</time></trkpt><trkpt lat="44.1617796" lon="10.3540446"><ele>503.0</ele><time>2026-05-02T10:26:03.911Z</time></trkpt><trkpt lat="44.1616855" lon="10.3539418"><ele>503.0</ele><time>2026-05-02T10:26:04.915Z</time></trkpt><trkpt lat="44.1615966" lon="10.353834"><ele>500.0</ele><time>2026-05-02T10:26:05.914Z</time></trkpt><trkpt lat="44.161508" lon="10.353739"><ele>496.99999999999994</ele><time>2026-05-02T10:26:06.914Z</time></trkpt><trkpt lat="44.1614196" lon="10.3536509"><ele>493.99999999999994</ele><time>2026-05-02T10:26:07.913Z</time></trkpt><trkpt lat="44.1613262" lon="10.3535855"><ele>491.0</ele><time>2026-05-02T10:26:08.912Z</time></trkpt><trkpt lat="44.1612345" lon="10.3535467"><ele>488.0</ele><time>2026-05-02T10:26:09.915Z</time></trkpt><trkpt lat="44.1611438" lon="10.3535466"><ele>488.0</ele><time>2026-05-02T10:26:10.916Z</time></trkpt><trkpt lat="44.1610569" lon="10.353582"><ele>487.99999999999994</ele><time>2026-05-02T10:26:11.914Z</time></trkpt><trkpt lat="44.1609795" lon="10.3536546"><ele>487.99999999999994</ele><time>2026-05-02T10:26:12.916Z</time></trkpt><trkpt lat="44.1609147" lon="10.3537536"><ele>488.0</ele><time>2026-05-02T10:26:13.913Z</time></trkpt><trkpt lat="44.1608509" lon="10.3538622"><ele>488.0</ele><time>2026-05-02T10:26:14.914Z</time></trkpt><trkpt lat="44.1607909" lon="10.3539826"><ele>486.59999999999997</ele><time>2026-05-02T10:26:15.913Z</time></trkpt><trkpt lat="44.1607295" lon="10.3541035"><ele>485.19999999999993</ele><time>2026-05-02T10:26:16.914Z</time></trkpt><trkpt lat="44.1606722" lon="10.3542264"><ele>483.8</ele><time>2026-05-02T10:26:17.915Z</time></trkpt><trkpt lat="44.1606263" lon="10.3543591"><ele>482.4</ele><time>2026-05-02T10:26:18.915Z</time></trkpt><trkpt lat="44.1606065" lon="10.3544915"><ele>481.0</ele><time>2026-05-02T10:26:19.916Z</time></trkpt><trkpt lat="44.1606116" lon="10.3546241"><ele>480.4</ele><time>2026-05-02T10:26:20.914Z</time></trkpt><trkpt lat="44.1606482" lon="10.3547536"><ele>479.8</ele><time>2026-05-02T10:26:21.915Z</time></trkpt><trkpt lat="44.1607115" lon="10.3548722"><ele>479.19999999999993</ele><time>2026-05-02T10:26:22.914Z</time></trkpt><trkpt lat="44.1607972" lon="10.3549811"><ele>478.59999999999997</ele><time>2026-05-02T10:26:23.917Z</time></trkpt><trkpt lat="44.1608874" lon="10.3550973"><ele>478.0</ele><time>2026-05-02T10:26:24.914Z</time></trkpt><trkpt lat="44.1609764" lon="10.355208"><ele>479.25</ele><time>2026-05-02T10:26:25.915Z</time></trkpt><trkpt lat="44.1610633" lon="10.3553213"><ele>480.5</ele><time>2026-05-02T10:26:26.914Z</time></trkpt><trkpt lat="44.161149" lon="10.3554254"><ele>481.75</ele><time>2026-05-02T10:26:27.913Z</time></trkpt><trkpt lat="44.1612309" lon="10.3555305"><ele>483.0</ele><time>2026-05-02T10:26:28.915Z</time></trkpt><trkpt lat="44.1613087" lon="10.3556381"><ele>483.0</ele><time>2026-05-02T10:26:29.914Z</time></trkpt><trkpt lat="44.1613739" lon="10.3557504"><ele>482.99999999999994</ele><time>2026-05-02T10:26:30.912Z</time></trkpt><trkpt lat="44.1614122" lon="10.355883"><ele>482.99999999999994</ele><time>2026-05-02T10:26:31.914Z</time></trkpt><trkpt lat="44.1614139" lon="10.356022"><ele>483.0</ele><time>2026-05-02T10:26:32.915Z</time></trkpt><trkpt lat="44.1613856" lon="10.3561666"><ele>483.0</ele><time>2026-05-02T10:26:33.913Z</time></trkpt><trkpt lat="44.1613489" lon="10.3563217"><ele>481.75</ele><time>2026-05-02T10:26:34.914Z</time></trkpt><trkpt lat="44.1613003" lon="10.3564846"><ele>480.5</ele><time>2026-05-02T10:26:35.915Z</time></trkpt><trkpt lat="44.1612503" lon="10.3566443"><ele>479.25</ele><time>2026-05-02T10:26:36.914Z</time></trkpt><trkpt lat="44.1612038" lon="10.3568109"><ele>478.0</ele><time>2026-05-02T10:26:37.913Z</time></trkpt><trkpt lat="44.1611572" lon="10.3569816"><ele>478.0</ele><time>2026-05-02T10:26:38.915Z</time></trkpt><trkpt lat="44.1611096" lon="10.3571538"><ele>478.0</ele><time>2026-05-02T10:26:39.916Z</time></trkpt><trkpt lat="44.1610625" lon="10.3573265"><ele>478.0</ele><time>2026-05-02T10:26:40.914Z</time></trkpt><trkpt lat="44.1610097" lon="10.3574964"><ele>478.0</ele><time>2026-05-02T10:26:41.912Z</time></trkpt><trkpt lat="44.1609532" lon="10.3576603"><ele>479.25</ele><time>2026-05-02T10:26:42.915Z</time></trkpt><trkpt lat="44.1608878" lon="10.3578206"><ele>480.5</ele><time>2026-05-02T10:26:43.913Z</time></trkpt><trkpt lat="44.1608062" lon="10.357993"><ele>481.75</ele><time>2026-05-02T10:26:44.913Z</time></trkpt><trkpt lat="44.1607107" lon="10.3581802"><ele>483.0</ele><time>2026-05-02T10:26:45.912Z</time></trkpt><trkpt lat="44.1605951" lon="10.3583777"><ele>480.66666666666663</ele><time>2026-05-02T10:26:46.914Z</time></trkpt><trkpt lat="44.1604619" lon="10.3585951"><ele>478.3333333333333</ele><time>2026-05-02T10:26:47.916Z</time></trkpt><trkpt lat="44.1603209" lon="10.3588102"><ele>476.0</ele><time>2026-05-02T10:26:48.916Z</time></trkpt><trkpt lat="44.1601821" lon="10.3590092"><ele>476.0</ele><time>2026-05-02T10:26:49.912Z</time></trkpt><trkpt lat="44.1600368" lon="10.3591849"><ele>476.0</ele><time>2026-05-02T10:26:50.914Z</time></trkpt><trkpt lat="44.1598813" lon="10.3593304"><ele>476.0</ele><time>2026-05-02T10:26:51.913Z</time></trkpt><trkpt lat="44.1597204" lon="10.3594352"><ele>470.66666666666663</ele><time>2026-05-02T10:26:52.913Z</time></trkpt><trkpt lat="44.1595619" lon="10.359513"><ele>465.33333333333337</ele><time>2026-05-02T10:26:53.912Z</time></trkpt><trkpt lat="44.1593946" lon="10.359583"><ele>460.0</ele><time>2026-05-02T10:26:54.915Z</time></trkpt><trkpt lat="44.1592346" lon="10.3596482"><ele>460.6666666666667</ele><time>2026-05-02T10:26:55.914Z</time></trkpt><trkpt lat="44.1590763" lon="10.3597059"><ele>461.33333333333337</ele><time>2026-05-02T10:26:56.91Z</time></trkpt><trkpt lat="44.1589215" lon="10.359758"><ele>462.0</ele><time>2026-05-02T10:26:57.913Z</time></trkpt><trkpt lat="44.1587702" lon="10.359809"><ele>462.0</ele><time>2026-05-02T10:26:58.912Z</time></trkpt><trkpt lat="44.1586318" lon="10.3598541"><ele>462.0</ele><time>2026-05-02T10:26:59.912Z</time></trkpt><trkpt lat="44.1585133" lon="10.3599058"><ele>462.0</ele><time>2026-05-02T10:27:00.914Z</time></trkpt><trkpt lat="44.1584037" lon="10.3599833"><ele>462.0</ele><time>2026-05-02T10:27:01.911Z</time></trkpt><trkpt lat="44.1583175" lon="10.3601051"><ele>462.0</ele><time>2026-05-02T10:27:02.912Z</time></trkpt><trkpt lat="44.1582534" lon="10.3602626"><ele>462.0</ele><time>2026-05-02T10:27:03.912Z</time></trkpt><trkpt lat="44.1582037" lon="10.3604515"><ele>462.0</ele><time>2026-05-02T10:27:04.912Z</time></trkpt><trkpt lat="44.1581638" lon="10.3606545"><ele>462.0</ele><time>2026-05-02T10:27:05.914Z</time></trkpt><trkpt lat="44.158121" lon="10.3608657"><ele>460.0</ele><time>2026-05-02T10:27:06.912Z</time></trkpt><trkpt lat="44.1580782" lon="10.3610738"><ele>458.0</ele><time>2026-05-02T10:27:07.914Z</time></trkpt><trkpt lat="44.1580104" lon="10.361258"><ele>456.0</ele><time>2026-05-02T10:27:08.912Z</time></trkpt><trkpt lat="44.1579224" lon="10.3614346"><ele>456.0</ele><time>2026-05-02T10:27:09.911Z</time></trkpt><trkpt lat="44.157814" lon="10.3616068"><ele>456.0</ele><time>2026-05-02T10:27:10.912Z</time></trkpt><trkpt lat="44.1576932" lon="10.3617682"><ele>456.0</ele><time>2026-05-02T10:27:11.912Z</time></trkpt><trkpt lat="44.1575778" lon="10.3619186"><ele>456.0</ele><time>2026-05-02T10:27:12.911Z</time></trkpt><trkpt lat="44.1574677" lon="10.3620603"><ele>456.0</ele><time>2026-05-02T10:27:13.911Z</time></trkpt><trkpt lat="44.1573473" lon="10.3621797"><ele>456.0</ele><time>2026-05-02T10:27:14.915Z</time></trkpt><trkpt lat="44.1572195" lon="10.3622439"><ele>456.0</ele><time>2026-05-02T10:27:15.915Z</time></trkpt><trkpt lat="44.1570904" lon="10.3622686"><ele>455.0</ele><time>2026-05-02T10:27:16.913Z</time></trkpt><trkpt lat="44.1569671" lon="10.3622577"><ele>454.0</ele><time>2026-05-02T10:27:17.911Z</time></trkpt><trkpt lat="44.1568451" lon="10.3622682"><ele>453.0</ele><time>2026-05-02T10:27:18.913Z</time></trkpt><trkpt lat="44.1567307" lon="10.3623167"><ele>452.0</ele><time>2026-05-02T10:27:19.914Z</time></trkpt><trkpt lat="44.1566423" lon="10.3624199"><ele>452.0</ele><time>2026-05-02T10:27:20.913Z</time></trkpt><trkpt lat="44.1565777" lon="10.3625623"><ele>452.0</ele><time>2026-05-02T10:27:21.913Z</time></trkpt><trkpt lat="44.1565262" lon="10.362734"><ele>452.0</ele><time>2026-05-02T10:27:22.913Z</time></trkpt><trkpt lat="44.1564815" lon="10.3629162"><ele>452.0</ele><time>2026-05-02T10:27:23.914Z</time></trkpt><trkpt lat="44.1564322" lon="10.3631283"><ele>447.0</ele><time>2026-05-02T10:27:24.915Z</time></trkpt><trkpt lat="44.156385" lon="10.36334"><ele>442.0</ele><time>2026-05-02T10:27:25.914Z</time></trkpt><trkpt lat="44.156341" lon="10.3635445"><ele>437.0</ele><time>2026-05-02T10:27:26.915Z</time></trkpt><trkpt lat="44.1562994" lon="10.3637477"><ele>436.25</ele><time>2026-05-02T10:27:27.911Z</time></trkpt><trkpt lat="44.156258" lon="10.3639508"><ele>435.5</ele><time>2026-05-02T10:27:28.914Z</time></trkpt><trkpt lat="44.1562221" lon="10.3641477"><ele>434.75</ele><time>2026-05-02T10:27:29.917Z</time></trkpt><trkpt lat="44.156197" lon="10.3643416"><ele>434.0</ele><time>2026-05-02T10:27:30.914Z</time></trkpt><trkpt lat="44.1561932" lon="10.3645226"><ele>434.0</ele><time>2026-05-02T10:27:31.912Z</time></trkpt><trkpt lat="44.1562244" lon="10.3646906"><ele>434.0</ele><time>2026-05-02T10:27:32.913Z</time></trkpt><trkpt lat="44.156289" lon="10.3648532"><ele>434.0</ele><time>2026-05-02T10:27:33.911Z</time></trkpt><trkpt lat="44.1563633" lon="10.3649948"><ele>434.0</ele><time>2026-05-02T10:27:34.912Z</time></trkpt><trkpt lat="44.1564211" lon="10.3651386"><ele>434.25</ele><time>2026-05-02T10:27:35.914Z</time></trkpt><trkpt lat="44.156436" lon="10.3652979"><ele>434.5</ele><time>2026-05-02T10:27:36.917Z</time></trkpt><trkpt lat="44.1564155" lon="10.3654441"><ele>434.75</ele><time>2026-05-02T10:27:37.913Z</time></trkpt><trkpt lat="44.1563624" lon="10.3655929"><ele>435.0</ele><time>2026-05-02T10:27:38.913Z</time></trkpt><trkpt lat="44.1562986" lon="10.3657407"><ele>435.75</ele><time>2026-05-02T10:27:39.914Z</time></trkpt><trkpt lat="44.1562224" lon="10.3658689"><ele>436.5</ele><time>2026-05-02T10:27:40.912Z</time></trkpt><trkpt lat="44.156122" lon="10.3659582"><ele>437.25</ele><time>2026-05-02T10:27:41.914Z</time></trkpt><trkpt lat="44.156011" lon="10.3660055"><ele>438.0</ele><time>2026-05-02T10:27:42.913Z</time></trkpt><trkpt lat="44.1558925" lon="10.3660098"><ele>438.0</ele><time>2026-05-02T10:27:43.913Z</time></trkpt><trkpt lat="44.1557656" lon="10.3660031"><ele>438.0</ele><time>2026-05-02T10:27:44.916Z</time></trkpt><trkpt lat="44.1556436" lon="10.3660308"><ele>438.0</ele><time>2026-05-02T10:27:45.912Z</time></trkpt><trkpt lat="44.1555178" lon="10.3660991"><ele>438.0</ele><time>2026-05-02T10:27:46.912Z</time></trkpt><trkpt lat="44.1554057" lon="10.3662155"><ele>438.5</ele><time>2026-05-02T10:27:47.913Z</time></trkpt><trkpt lat="44.1553021" lon="10.3663628"><ele>439.0</ele><time>2026-05-02T10:27:48.917Z</time></trkpt><trkpt lat="44.1551997" lon="10.3665021"><ele>439.5</ele><time>2026-05-02T10:27:49.912Z</time></trkpt><trkpt lat="44.1550871" lon="10.3666163"><ele>440.0</ele><time>2026-05-02T10:27:50.915Z</time></trkpt><trkpt lat="44.1549648" lon="10.3667009"><ele>440.75</ele><time>2026-05-02T10:27:51.913Z</time></trkpt><trkpt lat="44.1548232" lon="10.3667304"><ele>441.5</ele><time>2026-05-02T10:27:52.913Z</time></trkpt><trkpt lat="44.1546733" lon="10.3667307"><ele>442.25</ele><time>2026-05-02T10:27:53.915Z</time></trkpt><trkpt lat="44.1545256" lon="10.3666867"><ele>443.0</ele><time>2026-05-02T10:27:54.913Z</time></trkpt><trkpt lat="44.1543737" lon="10.366573"><ele>443.0</ele><time>2026-05-02T10:27:55.916Z</time></trkpt><trkpt lat="44.1541987" lon="10.3664831"><ele>443.0</ele><time>2026-05-02T10:27:56.914Z</time></trkpt><trkpt lat="44.1540017" lon="10.3664302"><ele>443.0</ele><time>2026-05-02T10:27:57.913Z</time></trkpt><trkpt lat="44.1538003" lon="10.3663985"><ele>443.66666666666663</ele><time>2026-05-02T10:27:58.911Z</time></trkpt><trkpt lat="44.1536025" lon="10.366374"><ele>444.33333333333337</ele><time>2026-05-02T10:27:59.914Z</time></trkpt><trkpt lat="44.1534145" lon="10.3663552"><ele>445.0</ele><time>2026-05-02T10:28:00.913Z</time></trkpt><trkpt lat="44.1532359" lon="10.366337"><ele>435.0</ele><time>2026-05-02T10:28:01.915Z</time></trkpt><trkpt lat="44.1530708" lon="10.3663182"><ele>425.0</ele><time>2026-05-02T10:28:02.914Z</time></trkpt><trkpt lat="44.1529131" lon="10.3663047"><ele>415.0</ele><time>2026-05-02T10:28:03.912Z</time></trkpt><trkpt lat="44.1527611" lon="10.3662936"><ele>415.0</ele><time>2026-05-02T10:28:04.912Z</time></trkpt><trkpt lat="44.1526221" lon="10.3662861"><ele>415.0</ele><time>2026-05-02T10:28:05.913Z</time></trkpt><trkpt lat="44.1524832" lon="10.3663108"><ele>415.0</ele><time>2026-05-02T10:28:06.914Z</time></trkpt><trkpt lat="44.1523457" lon="10.3663735"><ele>415.0</ele><time>2026-05-02T10:28:07.913Z</time></trkpt><trkpt lat="44.15223" lon="10.3664793"><ele>419.25</ele><time>2026-05-02T10:28:08.914Z</time></trkpt><trkpt lat="44.1521253" lon="10.366598"><ele>423.5</ele><time>2026-05-02T10:28:09.916Z</time></trkpt><trkpt lat="44.1520184" lon="10.3666951"><ele>427.75</ele><time>2026-05-02T10:28:10.914Z</time></trkpt><trkpt lat="44.151879" lon="10.3667421"><ele>432.0</ele><time>2026-05-02T10:28:11.92Z</time></trkpt><trkpt lat="44.1517398" lon="10.3667669"><ele>432.0</ele><time>2026-05-02T10:28:12.915Z</time></trkpt><trkpt lat="44.1515859" lon="10.3667896"><ele>432.0</ele><time>2026-05-02T10:28:13.914Z</time></trkpt><trkpt lat="44.1514217" lon="10.3668277"><ele>432.0</ele><time>2026-05-02T10:28:14.914Z</time></trkpt><trkpt lat="44.1512625" lon="10.3668824"><ele>427.66666666666663</ele><time>2026-05-02T10:28:15.913Z</time></trkpt><trkpt lat="44.1511108" lon="10.3669683"><ele>423.3333333333333</ele><time>2026-05-02T10:28:16.916Z</time></trkpt><trkpt lat="44.1509689" lon="10.3670653"><ele>419.0</ele><time>2026-05-02T10:28:17.912Z</time></trkpt><trkpt lat="44.1508296" lon="10.3671443"><ele>417.5</ele><time>2026-05-02T10:28:18.912Z</time></trkpt><trkpt lat="44.1506931" lon="10.3671847"><ele>416.0</ele><time>2026-05-02T10:28:19.915Z</time></trkpt><trkpt lat="44.1505504" lon="10.3671603"><ele>414.5</ele><time>2026-05-02T10:28:20.913Z</time></trkpt><trkpt lat="44.1504137" lon="10.367149"><ele>413.0</ele><time>2026-05-02T10:28:21.914Z</time></trkpt><trkpt lat="44.1502757" lon="10.3671693"><ele>415.0</ele><time>2026-05-02T10:28:22.912Z</time></trkpt><trkpt lat="44.1501347" lon="10.3672179"><ele>417.0</ele><time>2026-05-02T10:28:23.913Z</time></trkpt><trkpt lat="44.14999" lon="10.3672802"><ele>419.0</ele><time>2026-05-02T10:28:24.918Z</time></trkpt><trkpt lat="44.1498479" lon="10.3673442"><ele>421.0</ele><time>2026-05-02T10:28:25.916Z</time></trkpt><trkpt lat="44.1497063" lon="10.3674118"><ele>421.0</ele><time>2026-05-02T10:28:26.914Z</time></trkpt><trkpt lat="44.1495713" lon="10.3674749"><ele>421.0</ele><time>2026-05-02T10:28:27.914Z</time></trkpt><trkpt lat="44.1494434" lon="10.3675433"><ele>421.0</ele><time>2026-05-02T10:28:28.914Z</time></trkpt><trkpt lat="44.149319" lon="10.3676018"><ele>421.0</ele><time>2026-05-02T10:28:29.914Z</time></trkpt><trkpt lat="44.1492" lon="10.3676558"><ele>421.0</ele><time>2026-05-02T10:28:30.914Z</time></trkpt><trkpt lat="44.1490898" lon="10.3677048"><ele>421.0</ele><time>2026-05-02T10:28:31.915Z</time></trkpt><trkpt lat="44.148987" lon="10.3677554"><ele>421.0</ele><time>2026-05-02T10:28:32.915Z</time></trkpt><trkpt lat="44.1488965" lon="10.3678051"><ele>421.0</ele><time>2026-05-02T10:28:33.915Z</time></trkpt><trkpt lat="44.1488166" lon="10.3678787"><ele>421.0</ele><time>2026-05-02T10:28:34.914Z</time></trkpt><trkpt lat="44.1487705" lon="10.3679907"><ele>418.75</ele><time>2026-05-02T10:28:35.913Z</time></trkpt><trkpt lat="44.1487373" lon="10.3681074"><ele>416.5</ele><time>2026-05-02T10:28:36.915Z</time></trkpt><trkpt lat="44.14875" lon="10.3682771"><ele>414.25</ele><time>2026-05-02T10:28:37.914Z</time></trkpt><trkpt lat="44.148748" lon="10.3684508"><ele>412.0</ele><time>2026-05-02T10:28:38.913Z</time></trkpt><trkpt lat="44.1487505" lon="10.3686341"><ele>412.0</ele><time>2026-05-02T10:28:39.913Z</time></trkpt><trkpt lat="44.1487508" lon="10.3688456"><ele>412.0</ele><time>2026-05-02T10:28:40.913Z</time></trkpt><trkpt lat="44.1487437" lon="10.369062"><ele>412.0</ele><time>2026-05-02T10:28:41.915Z</time></trkpt><trkpt lat="44.1487129" lon="10.3692684"><ele>413.75</ele><time>2026-05-02T10:28:42.913Z</time></trkpt><trkpt lat="44.1486592" lon="10.3694526"><ele>415.5</ele><time>2026-05-02T10:28:43.914Z</time></trkpt><trkpt lat="44.1485833" lon="10.3696108"><ele>417.25</ele><time>2026-05-02T10:28:44.912Z</time></trkpt><trkpt lat="44.148493" lon="10.3697352"><ele>419.0</ele><time>2026-05-02T10:28:45.913Z</time></trkpt><trkpt lat="44.1483869" lon="10.3698244"><ele>419.0</ele><time>2026-05-02T10:28:46.917Z</time></trkpt><trkpt lat="44.14827" lon="10.3698982"><ele>419.0</ele><time>2026-05-02T10:28:47.911Z</time></trkpt><trkpt lat="44.148142" lon="10.3699476"><ele>419.0</ele><time>2026-05-02T10:28:48.914Z</time></trkpt><trkpt lat="44.1480058" lon="10.3699915"><ele>419.0</ele><time>2026-05-02T10:28:49.915Z</time></trkpt><trkpt lat="44.1478611" lon="10.3700432"><ele>419.0</ele><time>2026-05-02T10:28:50.913Z</time></trkpt><trkpt lat="44.147724" lon="10.3701082"><ele>419.0</ele><time>2026-05-02T10:28:51.914Z</time></trkpt><trkpt lat="44.1475899" lon="10.37019"><ele>419.0</ele><time>2026-05-02T10:28:52.913Z</time></trkpt><trkpt lat="44.1474629" lon="10.3702918"><ele>419.0</ele><time>2026-05-02T10:28:53.911Z</time></trkpt><trkpt lat="44.1473442" lon="10.3704097"><ele>417.75</ele><time>2026-05-02T10:28:54.913Z</time></trkpt><trkpt lat="44.1472338" lon="10.3705263"><ele>416.5</ele><time>2026-05-02T10:28:55.914Z</time></trkpt><trkpt lat="44.1471321" lon="10.3706603"><ele>415.25</ele><time>2026-05-02T10:28:56.913Z</time></trkpt><trkpt lat="44.1470426" lon="10.3708033"><ele>414.0</ele><time>2026-05-02T10:28:57.914Z</time></trkpt><trkpt lat="44.1469678" lon="10.3709663"><ele>414.0</ele><time>2026-05-02T10:28:58.913Z</time></trkpt><trkpt lat="44.1469135" lon="10.3711426"><ele>414.0</ele><time>2026-05-02T10:28:59.913Z</time></trkpt><trkpt lat="44.1468685" lon="10.3713319"><ele>414.0</ele><time>2026-05-02T10:29:00.914Z</time></trkpt><trkpt lat="44.1468394" lon="10.3715238"><ele>414.0</ele><time>2026-05-02T10:29:01.913Z</time></trkpt><trkpt lat="44.1468217" lon="10.3717098"><ele>415.0</ele><time>2026-05-02T10:29:02.914Z</time></trkpt><trkpt lat="44.1468197" lon="10.3719054"><ele>416.0</ele><time>2026-05-02T10:29:03.916Z</time></trkpt><trkpt lat="44.1468325" lon="10.3720933"><ele>417.0</ele><time>2026-05-02T10:29:04.913Z</time></trkpt><trkpt lat="44.146854" lon="10.3722723"><ele>418.0</ele><time>2026-05-02T10:29:05.912Z</time></trkpt><trkpt lat="44.1468645" lon="10.3724509"><ele>418.0</ele><time>2026-05-02T10:29:06.915Z</time></trkpt><trkpt lat="44.1468458" lon="10.3726019"><ele>418.0</ele><time>2026-05-02T10:29:07.914Z</time></trkpt><trkpt lat="44.1467949" lon="10.3727264"><ele>418.0</ele><time>2026-05-02T10:29:08.913Z</time></trkpt><trkpt lat="44.1467155" lon="10.3728238"><ele>418.0</ele><time>2026-05-02T10:29:09.913Z</time></trkpt><trkpt lat="44.1466088" lon="10.3728815"><ele>418.0</ele><time>2026-05-02T10:29:10.911Z</time></trkpt><trkpt lat="44.1464879" lon="10.3728868"><ele>416.75</ele><time>2026-05-02T10:29:11.911Z</time></trkpt><trkpt lat="44.1463607" lon="10.3728551"><ele>415.5</ele><time>2026-05-02T10:29:12.914Z</time></trkpt><trkpt lat="44.146222" lon="10.3728023"><ele>414.25</ele><time>2026-05-02T10:29:13.914Z</time></trkpt><trkpt lat="44.1460894" lon="10.3727427"><ele>413.0</ele><time>2026-05-02T10:29:14.91Z</time></trkpt><trkpt lat="44.1459648" lon="10.3726881"><ele>413.0</ele><time>2026-05-02T10:29:15.912Z</time></trkpt><trkpt lat="44.1458469" lon="10.3726452"><ele>413.0</ele><time>2026-05-02T10:29:16.91Z</time></trkpt><trkpt lat="44.1457424" lon="10.3726706"><ele>413.0</ele><time>2026-05-02T10:29:17.914Z</time></trkpt><trkpt lat="44.1456378" lon="10.372735"><ele>413.0</ele><time>2026-05-02T10:29:18.91Z</time></trkpt><trkpt lat="44.1455211" lon="10.3728357"><ele>413.66666666666663</ele><time>2026-05-02T10:29:19.908Z</time></trkpt><trkpt lat="44.1453931" lon="10.3729465"><ele>414.33333333333337</ele><time>2026-05-02T10:29:20.913Z</time></trkpt><trkpt lat="44.1452544" lon="10.3730719"><ele>415.0</ele><time>2026-05-02T10:29:21.914Z</time></trkpt><trkpt lat="44.1451103" lon="10.3732017"><ele>415.0</ele><time>2026-05-02T10:29:22.913Z</time></trkpt><trkpt lat="44.1449562" lon="10.3733385"><ele>415.0</ele><time>2026-05-02T10:29:23.914Z</time></trkpt><trkpt lat="44.1447991" lon="10.3734747"><ele>415.0</ele><time>2026-05-02T10:29:24.913Z</time></trkpt><trkpt lat="44.1446454" lon="10.3736131"><ele>416.33333333333337</ele><time>2026-05-02T10:29:25.914Z</time></trkpt><trkpt lat="44.1444949" lon="10.3737416"><ele>417.66666666666663</ele><time>2026-05-02T10:29:26.915Z</time></trkpt><trkpt lat="44.1443486" lon="10.373854"><ele>419.0</ele><time>2026-05-02T10:29:27.914Z</time></trkpt><trkpt lat="44.1442" lon="10.3739394"><ele>417.66666666666663</ele><time>2026-05-02T10:29:28.916Z</time></trkpt><trkpt lat="44.1440438" lon="10.373986"><ele>416.33333333333337</ele><time>2026-05-02T10:29:29.915Z</time></trkpt><trkpt lat="44.1438916" lon="10.3740069"><ele>415.0</ele><time>2026-05-02T10:29:30.913Z</time></trkpt><trkpt lat="44.1437386" lon="10.3739894"><ele>415.0</ele><time>2026-05-02T10:29:31.914Z</time></trkpt><trkpt lat="44.1435926" lon="10.373942"><ele>415.0</ele><time>2026-05-02T10:29:32.912Z</time></trkpt><trkpt lat="44.1434514" lon="10.3738577"><ele>415.0</ele><time>2026-05-02T10:29:33.913Z</time></trkpt><trkpt lat="44.1433208" lon="10.3737629"><ele>414.25</ele><time>2026-05-02T10:29:34.913Z</time></trkpt><trkpt lat="44.1432003" lon="10.3736742"><ele>413.5</ele><time>2026-05-02T10:29:35.914Z</time></trkpt><trkpt lat="44.1430846" lon="10.3736073"><ele>412.75</ele><time>2026-05-02T10:29:36.913Z</time></trkpt><trkpt lat="44.142981" lon="10.3735733"><ele>412.0</ele><time>2026-05-02T10:29:37.917Z</time></trkpt><trkpt lat="44.1428733" lon="10.373604"><ele>412.0</ele><time>2026-05-02T10:29:38.913Z</time></trkpt><trkpt lat="44.1427811" lon="10.3736846"><ele>412.0</ele><time>2026-05-02T10:29:39.913Z</time></trkpt><trkpt lat="44.1427113" lon="10.3738037"><ele>412.0</ele><time>2026-05-02T10:29:40.912Z</time></trkpt><trkpt lat="44.1426572" lon="10.3739534"><ele>412.0</ele><time>2026-05-02T10:29:41.916Z</time></trkpt><trkpt lat="44.1425973" lon="10.3741303"><ele>411.33333333333337</ele><time>2026-05-02T10:29:42.911Z</time></trkpt><trkpt lat="44.1425316" lon="10.3743309"><ele>410.66666666666663</ele><time>2026-05-02T10:29:43.913Z</time></trkpt><trkpt lat="44.142465" lon="10.3745461"><ele>410.0</ele><time>2026-05-02T10:29:44.914Z</time></trkpt><trkpt lat="44.1423956" lon="10.3747676"><ele>404.66666666666663</ele><time>2026-05-02T10:29:45.914Z</time></trkpt><trkpt lat="44.1423323" lon="10.3750056"><ele>399.33333333333337</ele><time>2026-05-02T10:29:46.913Z</time></trkpt><trkpt lat="44.1422906" lon="10.375251"><ele>394.0</ele><time>2026-05-02T10:29:47.913Z</time></trkpt><trkpt lat="44.1422652" lon="10.375502"><ele>394.33333333333337</ele><time>2026-05-02T10:29:48.914Z</time></trkpt><trkpt lat="44.1422483" lon="10.3757661"><ele>394.66666666666663</ele><time>2026-05-02T10:29:49.911Z</time></trkpt><trkpt lat="44.1422238" lon="10.3760398"><ele>395.0</ele><time>2026-05-02T10:29:50.914Z</time></trkpt><trkpt lat="44.142194" lon="10.3762971"><ele>396.3333333333333</ele><time>2026-05-02T10:29:51.918Z</time></trkpt><trkpt lat="44.1421205" lon="10.3765237"><ele>397.66666666666663</ele><time>2026-05-02T10:29:52.915Z</time></trkpt><trkpt lat="44.1420458" lon="10.3767516"><ele>399.0</ele><time>2026-05-02T10:29:53.914Z</time></trkpt><trkpt lat="44.1419604" lon="10.3769565"><ele>399.0</ele><time>2026-05-02T10:29:54.912Z</time></trkpt><trkpt lat="44.1418671" lon="10.3771329"><ele>399.0</ele><time>2026-05-02T10:29:55.914Z</time></trkpt><trkpt lat="44.1417546" lon="10.37728"><ele>399.0</ele><time>2026-05-02T10:29:56.911Z</time></trkpt><trkpt lat="44.1416232" lon="10.3774043"><ele>399.0</ele><time>2026-05-02T10:29:57.911Z</time></trkpt><trkpt lat="44.1414864" lon="10.3775395"><ele>399.0</ele><time>2026-05-02T10:29:58.914Z</time></trkpt><trkpt lat="44.1413501" lon="10.3776836"><ele>399.0</ele><time>2026-05-02T10:29:59.914Z</time></trkpt><trkpt lat="44.1412114" lon="10.3778115"><ele>399.0</ele><time>2026-05-02T10:30:00.913Z</time></trkpt><trkpt lat="44.1410583" lon="10.3779051"><ele>399.0</ele><time>2026-05-02T10:30:01.916Z</time></trkpt><trkpt lat="44.1409003" lon="10.3779452"><ele>399.0</ele><time>2026-05-02T10:30:02.91Z</time></trkpt><trkpt lat="44.1407518" lon="10.3779642"><ele>398.5</ele><time>2026-05-02T10:30:03.914Z</time></trkpt><trkpt lat="44.1406045" lon="10.3779898"><ele>398.0</ele><time>2026-05-02T10:30:04.912Z</time></trkpt><trkpt lat="44.1404705" lon="10.3780399"><ele>397.5</ele><time>2026-05-02T10:30:05.911Z</time></trkpt><trkpt lat="44.1403464" lon="10.3781241"><ele>397.0</ele><time>2026-05-02T10:30:06.915Z</time></trkpt><trkpt lat="44.1402415" lon="10.3782554"><ele>397.0</ele><time>2026-05-02T10:30:07.913Z</time></trkpt><trkpt lat="44.1401545" lon="10.3784219"><ele>397.0</ele><time>2026-05-02T10:30:08.915Z</time></trkpt><trkpt lat="44.1400763" lon="10.3786152"><ele>397.0</ele><time>2026-05-02T10:30:09.913Z</time></trkpt><trkpt lat="44.1399907" lon="10.3788223"><ele>398.6666666666667</ele><time>2026-05-02T10:30:10.912Z</time></trkpt><trkpt lat="44.1398857" lon="10.3790241"><ele>400.33333333333337</ele><time>2026-05-02T10:30:11.914Z</time></trkpt><trkpt lat="44.1397656" lon="10.3791945"><ele>402.0</ele><time>2026-05-02T10:30:12.914Z</time></trkpt><trkpt lat="44.1396364" lon="10.3793594"><ele>397.33333333333337</ele><time>2026-05-02T10:30:13.915Z</time></trkpt><trkpt lat="44.1395104" lon="10.3795353"><ele>392.6666666666667</ele><time>2026-05-02T10:30:14.911Z</time></trkpt><trkpt lat="44.1393998" lon="10.3797253"><ele>388.0</ele><time>2026-05-02T10:30:15.913Z</time></trkpt><trkpt lat="44.1393016" lon="10.3799179"><ele>388.0</ele><time>2026-05-02T10:30:16.911Z</time></trkpt><trkpt lat="44.1392119" lon="10.3801145"><ele>388.0</ele><time>2026-05-02T10:30:17.914Z</time></trkpt><trkpt lat="44.1391279" lon="10.3803118"><ele>388.0</ele><time>2026-05-02T10:30:18.914Z</time></trkpt><trkpt lat="44.1390361" lon="10.3805001"><ele>385.0</ele><time>2026-05-02T10:30:19.916Z</time></trkpt><trkpt lat="44.1389013" lon="10.3806174"><ele>382.0</ele><time>2026-05-02T10:30:20.914Z</time></trkpt><trkpt lat="44.1387692" lon="10.3807496"><ele>379.0</ele><time>2026-05-02T10:30:21.914Z</time></trkpt><trkpt lat="44.13863" lon="10.380886"><ele>379.0</ele><time>2026-05-02T10:30:22.915Z</time></trkpt><trkpt lat="44.1385018" lon="10.3810284"><ele>379.0</ele><time>2026-05-02T10:30:23.913Z</time></trkpt><trkpt lat="44.1383831" lon="10.3811908"><ele>379.0</ele><time>2026-05-02T10:30:24.912Z</time></trkpt><trkpt lat="44.1382671" lon="10.3813475"><ele>376.75</ele><time>2026-05-02T10:30:25.914Z</time></trkpt><trkpt lat="44.1381545" lon="10.3815137"><ele>374.5</ele><time>2026-05-02T10:30:26.914Z</time></trkpt><trkpt lat="44.1380256" lon="10.3815871"><ele>372.25</ele><time>2026-05-02T10:30:27.915Z</time></trkpt><trkpt lat="44.1379202" lon="10.3817158"><ele>370.0</ele><time>2026-05-02T10:30:28.91Z</time></trkpt><trkpt lat="44.1378249" lon="10.3818779"><ele>370.0</ele><time>2026-05-02T10:30:29.911Z</time></trkpt><trkpt lat="44.1377375" lon="10.3820619"><ele>370.0</ele><time>2026-05-02T10:30:30.913Z</time></trkpt><trkpt lat="44.1376454" lon="10.382237"><ele>370.0</ele><time>2026-05-02T10:30:31.918Z</time></trkpt><trkpt lat="44.1375382" lon="10.3823835"><ele>369.0</ele><time>2026-05-02T10:30:32.909Z</time></trkpt><trkpt lat="44.1374088" lon="10.3825066"><ele>368.0</ele><time>2026-05-02T10:30:33.911Z</time></trkpt><trkpt lat="44.1372665" lon="10.382609"><ele>367.0</ele><time>2026-05-02T10:30:34.913Z</time></trkpt><trkpt lat="44.1371258" lon="10.3826942"><ele>367.0</ele><time>2026-05-02T10:30:35.912Z</time></trkpt><trkpt lat="44.136993" lon="10.3827661"><ele>367.0</ele><time>2026-05-02T10:30:36.916Z</time></trkpt><trkpt lat="44.1368711" lon="10.3828473"><ele>367.0</ele><time>2026-05-02T10:30:37.913Z</time></trkpt><trkpt lat="44.1367622" lon="10.3829558"><ele>367.0</ele><time>2026-05-02T10:30:38.912Z</time></trkpt><trkpt lat="44.1366735" lon="10.3830915"><ele>368.75</ele><time>2026-05-02T10:30:39.913Z</time></trkpt><trkpt lat="44.1366096" lon="10.3832515"><ele>370.5</ele><time>2026-05-02T10:30:40.911Z</time></trkpt><trkpt lat="44.1365766" lon="10.3834339"><ele>372.25</ele><time>2026-05-02T10:30:41.914Z</time></trkpt><trkpt lat="44.1365716" lon="10.3836361"><ele>374.0</ele><time>2026-05-02T10:30:42.914Z</time></trkpt><trkpt lat="44.1365868" lon="10.3838596"><ele>374.0</ele><time>2026-05-02T10:30:43.919Z</time></trkpt><trkpt lat="44.1366126" lon="10.3841026"><ele>374.0</ele><time>2026-05-02T10:30:44.919Z</time></trkpt><trkpt lat="44.1366399" lon="10.3843722"><ele>374.0</ele><time>2026-05-02T10:30:45.917Z</time></trkpt><trkpt lat="44.1366741" lon="10.3846456"><ele>372.0</ele><time>2026-05-02T10:30:46.913Z</time></trkpt><trkpt lat="44.1367092" lon="10.3849038"><ele>370.0</ele><time>2026-05-02T10:30:47.913Z</time></trkpt><trkpt lat="44.1367423" lon="10.3851506"><ele>368.0</ele><time>2026-05-02T10:30:48.916Z</time></trkpt><trkpt lat="44.1367725" lon="10.385385"><ele>367.0</ele><time>2026-05-02T10:30:49.913Z</time></trkpt><trkpt lat="44.1368018" lon="10.3855976"><ele>366.0</ele><time>2026-05-02T10:30:50.912Z</time></trkpt><trkpt lat="44.1368326" lon="10.3857898"><ele>365.0</ele><time>2026-05-02T10:30:51.91Z</time></trkpt><trkpt lat="44.1368483" lon="10.3859715"><ele>364.0</ele><time>2026-05-02T10:30:52.912Z</time></trkpt><trkpt lat="44.1368371" lon="10.3861247"><ele>364.0</ele><time>2026-05-02T10:30:53.913Z</time></trkpt><trkpt lat="44.136789" lon="10.3862553"><ele>364.0</ele><time>2026-05-02T10:30:54.913Z</time></trkpt><trkpt lat="44.1367142" lon="10.3863573"><ele>364.0</ele><time>2026-05-02T10:30:55.912Z</time></trkpt><trkpt lat="44.1365946" lon="10.3864135"><ele>364.0</ele><time>2026-05-02T10:30:56.915Z</time></trkpt><trkpt lat="44.1364929" lon="10.3864766"><ele>364.0</ele><time>2026-05-02T10:30:57.913Z</time></trkpt><trkpt lat="44.1363224" lon="10.3865357"><ele>362.3333333333333</ele><time>2026-05-02T10:30:58.911Z</time></trkpt><trkpt lat="44.1361767" lon="10.3866036"><ele>360.6666666666667</ele><time>2026-05-02T10:30:59.929Z</time></trkpt><trkpt lat="44.1360298" lon="10.3866592"><ele>359.0</ele><time>2026-05-02T10:31:00.913Z</time></trkpt><trkpt lat="44.1358848" lon="10.3867181"><ele>359.0</ele><time>2026-05-02T10:31:01.912Z</time></trkpt><trkpt lat="44.1357433" lon="10.386775"><ele>359.0</ele><time>2026-05-02T10:31:02.912Z</time></trkpt><trkpt lat="44.1356049" lon="10.3868319"><ele>359.0</ele><time>2026-05-02T10:31:03.911Z</time></trkpt><trkpt lat="44.1354833" lon="10.3869024"><ele>359.0</ele><time>2026-05-02T10:31:04.913Z</time></trkpt><trkpt lat="44.1353768" lon="10.3870031"><ele>358.0</ele><time>2026-05-02T10:31:05.912Z</time></trkpt><trkpt lat="44.1352944" lon="10.3871379"><ele>357.0</ele><time>2026-05-02T10:31:06.911Z</time></trkpt><trkpt lat="44.1352247" lon="10.3873043"><ele>356.0</ele><time>2026-05-02T10:31:07.911Z</time></trkpt><trkpt lat="44.1351546" lon="10.3874948"><ele>355.0</ele><time>2026-05-02T10:31:08.913Z</time></trkpt><trkpt lat="44.1350855" lon="10.3876922"><ele>355.0</ele><time>2026-05-02T10:31:09.911Z</time></trkpt><trkpt lat="44.1350181" lon="10.387875"><ele>355.0</ele><time>2026-05-02T10:31:10.916Z</time></trkpt><trkpt lat="44.1349556" lon="10.3880566"><ele>355.0</ele><time>2026-05-02T10:31:11.913Z</time></trkpt><trkpt lat="44.1348993" lon="10.388232"><ele>355.0</ele><time>2026-05-02T10:31:12.915Z</time></trkpt><trkpt lat="44.1348512" lon="10.3884156"><ele>352.25</ele><time>2026-05-02T10:31:13.913Z</time></trkpt><trkpt lat="44.1348225" lon="10.3886119"><ele>349.5</ele><time>2026-05-02T10:31:14.912Z</time></trkpt><trkpt lat="44.1348041" lon="10.3888125"><ele>346.75</ele><time>2026-05-02T10:31:15.913Z</time></trkpt><trkpt lat="44.134787" lon="10.3890116"><ele>344.0</ele><time>2026-05-02T10:31:16.916Z</time></trkpt><trkpt lat="44.1347333" lon="10.389202"><ele>343.25</ele><time>2026-05-02T10:31:17.914Z</time></trkpt><trkpt lat="44.1346775" lon="10.3893903"><ele>342.5</ele><time>2026-05-02T10:31:18.914Z</time></trkpt><trkpt lat="44.1346233" lon="10.3895625"><ele>341.75</ele><time>2026-05-02T10:31:19.914Z</time></trkpt><trkpt lat="44.134591" lon="10.389713"><ele>341.0</ele><time>2026-05-02T10:31:20.909Z</time></trkpt><trkpt lat="44.134585" lon="10.3898728"><ele>338.25</ele><time>2026-05-02T10:31:21.91Z</time></trkpt><trkpt lat="44.1346067" lon="10.3900383"><ele>335.5</ele><time>2026-05-02T10:31:22.91Z</time></trkpt><trkpt lat="44.1346639" lon="10.3902083"><ele>332.75</ele><time>2026-05-02T10:31:23.909Z</time></trkpt><trkpt lat="44.1347312" lon="10.3903924"><ele>330.0</ele><time>2026-05-02T10:31:24.911Z</time></trkpt><trkpt lat="44.1347994" lon="10.3905843"><ele>327.6666666666667</ele><time>2026-05-02T10:31:25.908Z</time></trkpt><trkpt lat="44.1348671" lon="10.3907665"><ele>325.33333333333337</ele><time>2026-05-02T10:31:26.913Z</time></trkpt><trkpt lat="44.1349433" lon="10.3909497"><ele>323.0</ele><time>2026-05-02T10:31:27.912Z</time></trkpt><trkpt lat="44.135027" lon="10.3911291"><ele>325.5</ele><time>2026-05-02T10:31:28.914Z</time></trkpt><trkpt lat="44.1351176" lon="10.3912996"><ele>328.0</ele><time>2026-05-02T10:31:29.912Z</time></trkpt><trkpt lat="44.1352064" lon="10.3914605"><ele>330.5</ele><time>2026-05-02T10:31:30.913Z</time></trkpt><trkpt lat="44.1352975" lon="10.3916205"><ele>333.0</ele><time>2026-05-02T10:31:31.915Z</time></trkpt><trkpt lat="44.1353783" lon="10.3917624"><ele>333.0</ele><time>2026-05-02T10:31:32.912Z</time></trkpt><trkpt lat="44.1354397" lon="10.3919034"><ele>333.0</ele><time>2026-05-02T10:31:33.912Z</time></trkpt><trkpt lat="44.1354719" lon="10.3920609"><ele>333.0</ele><time>2026-05-02T10:31:34.911Z</time></trkpt><trkpt lat="44.1354604" lon="10.3922099"><ele>333.0</ele><time>2026-05-02T10:31:35.91Z</time></trkpt><trkpt lat="44.1354077" lon="10.3923316"><ele>333.0</ele><time>2026-05-02T10:31:36.912Z</time></trkpt><trkpt lat="44.1353205" lon="10.3924367"><ele>333.25</ele><time>2026-05-02T10:31:37.91Z</time></trkpt><trkpt lat="44.1352172" lon="10.3925566"><ele>333.5</ele><time>2026-05-02T10:31:38.912Z</time></trkpt><trkpt lat="44.1351017" lon="10.3926564"><ele>333.75</ele><time>2026-05-02T10:31:39.91Z</time></trkpt><trkpt lat="44.1349815" lon="10.392724"><ele>334.0</ele><time>2026-05-02T10:31:40.917Z</time></trkpt><trkpt lat="44.1348404" lon="10.3927447"><ele>334.75</ele><time>2026-05-02T10:31:41.911Z</time></trkpt><trkpt lat="44.13469" lon="10.3927454"><ele>335.5</ele><time>2026-05-02T10:31:42.914Z</time></trkpt><trkpt lat="44.1345491" lon="10.392785"><ele>336.25</ele><time>2026-05-02T10:31:43.911Z</time></trkpt><trkpt lat="44.1344219" lon="10.3928676"><ele>337.0</ele><time>2026-05-02T10:31:44.914Z</time></trkpt><trkpt lat="44.1342871" lon="10.3929559"><ele>341.0</ele><time>2026-05-02T10:31:45.914Z</time></trkpt><trkpt lat="44.1341416" lon="10.3930114"><ele>345.0</ele><time>2026-05-02T10:31:46.912Z</time></trkpt><trkpt lat="44.1339846" lon="10.3930249"><ele>349.0</ele><time>2026-05-02T10:31:47.911Z</time></trkpt><trkpt lat="44.1338215" lon="10.3930155"><ele>347.0</ele><time>2026-05-02T10:31:48.912Z</time></trkpt><trkpt lat="44.1336581" lon="10.3929757"><ele>345.0</ele><time>2026-05-02T10:31:49.914Z</time></trkpt><trkpt lat="44.1334939" lon="10.3928993"><ele>343.0</ele><time>2026-05-02T10:31:50.912Z</time></trkpt><trkpt lat="44.1333307" lon="10.3928042"><ele>344.66666666666663</ele><time>2026-05-02T10:31:51.91Z</time></trkpt><trkpt lat="44.1331825" lon="10.3927159"><ele>346.3333333333333</ele><time>2026-05-02T10:31:52.912Z</time></trkpt><trkpt lat="44.1330406" lon="10.3926379"><ele>348.0</ele><time>2026-05-02T10:31:53.911Z</time></trkpt><trkpt lat="44.1328947" lon="10.392589"><ele>348.0</ele><time>2026-05-02T10:31:54.913Z</time></trkpt><trkpt lat="44.1327469" lon="10.3925933"><ele>348.0</ele><time>2026-05-02T10:31:55.913Z</time></trkpt><trkpt lat="44.1325815" lon="10.3926276"><ele>348.0</ele><time>2026-05-02T10:31:56.912Z</time></trkpt><trkpt lat="44.1324091" lon="10.3926646"><ele>351.0</ele><time>2026-05-02T10:31:57.914Z</time></trkpt><trkpt lat="44.1322534" lon="10.3926687"><ele>354.0</ele><time>2026-05-02T10:31:58.916Z</time></trkpt><trkpt lat="44.1321022" lon="10.3926384"><ele>357.0</ele><time>2026-05-02T10:31:59.913Z</time></trkpt><trkpt lat="44.131956" lon="10.3925721"><ele>357.0</ele><time>2026-05-02T10:32:00.91Z</time></trkpt><trkpt lat="44.1318134" lon="10.3924603"><ele>357.0</ele><time>2026-05-02T10:32:01.916Z</time></trkpt><trkpt lat="44.1316675" lon="10.3923374"><ele>357.0</ele><time>2026-05-02T10:32:02.914Z</time></trkpt><trkpt lat="44.1315157" lon="10.3922296"><ele>352.0</ele><time>2026-05-02T10:32:03.913Z</time></trkpt><trkpt lat="44.1313507" lon="10.3921411"><ele>347.0</ele><time>2026-05-02T10:32:04.912Z</time></trkpt><trkpt lat="44.1311668" lon="10.3920836"><ele>342.0</ele><time>2026-05-02T10:32:05.909Z</time></trkpt><trkpt lat="44.1309968" lon="10.3920331"><ele>342.0</ele><time>2026-05-02T10:32:06.914Z</time></trkpt><trkpt lat="44.1308348" lon="10.3919871"><ele>342.0</ele><time>2026-05-02T10:32:07.913Z</time></trkpt><trkpt lat="44.1306799" lon="10.3919751"><ele>342.0</ele><time>2026-05-02T10:32:08.912Z</time></trkpt><trkpt lat="44.1305177" lon="10.3919982"><ele>340.6666666666667</ele><time>2026-05-02T10:32:09.914Z</time></trkpt><trkpt lat="44.13035" lon="10.3920407"><ele>339.33333333333337</ele><time>2026-05-02T10:32:10.912Z</time></trkpt><trkpt lat="44.1301821" lon="10.3920762"><ele>338.0</ele><time>2026-05-02T10:32:11.913Z</time></trkpt><trkpt lat="44.1300235" lon="10.3921082"><ele>337.0</ele><time>2026-05-02T10:32:12.913Z</time></trkpt><trkpt lat="44.1298737" lon="10.392154"><ele>336.0</ele><time>2026-05-02T10:32:13.911Z</time></trkpt><trkpt lat="44.1297344" lon="10.3922303"><ele>335.0</ele><time>2026-05-02T10:32:14.914Z</time></trkpt><trkpt lat="44.129614" lon="10.392358"><ele>335.0</ele><time>2026-05-02T10:32:15.915Z</time></trkpt><trkpt lat="44.1295024" lon="10.3925208"><ele>335.0</ele><time>2026-05-02T10:32:16.915Z</time></trkpt><trkpt lat="44.1293874" lon="10.3927019"><ele>335.0</ele><time>2026-05-02T10:32:17.914Z</time></trkpt><trkpt lat="44.12927" lon="10.3928812"><ele>334.33333333333337</ele><time>2026-05-02T10:32:18.912Z</time></trkpt><trkpt lat="44.1291582" lon="10.3930811"><ele>333.6666666666667</ele><time>2026-05-02T10:32:19.91Z</time></trkpt><trkpt lat="44.1289995" lon="10.3932138"><ele>333.0</ele><time>2026-05-02T10:32:20.914Z</time></trkpt><trkpt lat="44.1288488" lon="10.3933424"><ele>333.0</ele><time>2026-05-02T10:32:21.91Z</time></trkpt><trkpt lat="44.1286862" lon="10.3934393"><ele>333.0</ele><time>2026-05-02T10:32:22.913Z</time></trkpt><trkpt lat="44.1285236" lon="10.3935123"><ele>333.0</ele><time>2026-05-02T10:32:23.913Z</time></trkpt><trkpt lat="44.1283651" lon="10.3935789"><ele>330.75</ele><time>2026-05-02T10:32:24.912Z</time></trkpt><trkpt lat="44.128213" lon="10.393635"><ele>328.5</ele><time>2026-05-02T10:32:25.914Z</time></trkpt><trkpt lat="44.1280721" lon="10.3936945"><ele>326.25</ele><time>2026-05-02T10:32:26.914Z</time></trkpt><trkpt lat="44.1279409" lon="10.3937717"><ele>324.0</ele><time>2026-05-02T10:32:27.912Z</time></trkpt><trkpt lat="44.1278296" lon="10.3938773"><ele>324.0</ele><time>2026-05-02T10:32:28.913Z</time></trkpt><trkpt lat="44.1277411" lon="10.3940207"><ele>324.0</ele><time>2026-05-02T10:32:29.912Z</time></trkpt><trkpt lat="44.1276844" lon="10.3942018"><ele>324.0</ele><time>2026-05-02T10:32:30.912Z</time></trkpt><trkpt lat="44.1276557" lon="10.3944212"><ele>324.0</ele><time>2026-05-02T10:32:31.912Z</time></trkpt><trkpt lat="44.1276257" lon="10.3946538"><ele>324.3333333333333</ele><time>2026-05-02T10:32:32.912Z</time></trkpt><trkpt lat="44.1276038" lon="10.3949008"><ele>324.66666666666663</ele><time>2026-05-02T10:32:33.912Z</time></trkpt><trkpt lat="44.1275778" lon="10.3951708"><ele>325.0</ele><time>2026-05-02T10:32:34.911Z</time></trkpt><trkpt lat="44.1275453" lon="10.3954503"><ele>326.66666666666663</ele><time>2026-05-02T10:32:35.912Z</time></trkpt><trkpt lat="44.1274911" lon="10.3957132"><ele>328.3333333333333</ele><time>2026-05-02T10:32:36.909Z</time></trkpt><trkpt lat="44.1274038" lon="10.3959592"><ele>330.0</ele><time>2026-05-02T10:32:37.911Z</time></trkpt><trkpt lat="44.127289" lon="10.396198"><ele>326.0</ele><time>2026-05-02T10:32:38.909Z</time></trkpt><trkpt lat="44.1271635" lon="10.3964305"><ele>322.0</ele><time>2026-05-02T10:32:39.914Z</time></trkpt><trkpt lat="44.1270401" lon="10.3966723"><ele>318.0</ele><time>2026-05-02T10:32:40.911Z</time></trkpt><trkpt lat="44.1269234" lon="10.3968956"><ele>318.0</ele><time>2026-05-02T10:32:41.913Z</time></trkpt><trkpt lat="44.1268028" lon="10.3971172"><ele>318.0</ele><time>2026-05-02T10:32:42.912Z</time></trkpt><trkpt lat="44.1266806" lon="10.3973152"><ele>318.0</ele><time>2026-05-02T10:32:43.913Z</time></trkpt><trkpt lat="44.1265657" lon="10.3974967"><ele>314.3333333333333</ele><time>2026-05-02T10:32:44.91Z</time></trkpt><trkpt lat="44.12645" lon="10.397669"><ele>310.66666666666663</ele><time>2026-05-02T10:32:45.91Z</time></trkpt><trkpt lat="44.1263447" lon="10.3978354"><ele>307.0</ele><time>2026-05-02T10:32:46.914Z</time></trkpt><trkpt lat="44.1262408" lon="10.3979974"><ele>307.25</ele><time>2026-05-02T10:32:47.912Z</time></trkpt><trkpt lat="44.1261453" lon="10.3981438"><ele>307.5</ele><time>2026-05-02T10:32:48.913Z</time></trkpt><trkpt lat="44.1260494" lon="10.3982864"><ele>307.75</ele><time>2026-05-02T10:32:49.915Z</time></trkpt><trkpt lat="44.1259583" lon="10.3984267"><ele>308.0</ele><time>2026-05-02T10:32:50.912Z</time></trkpt><trkpt lat="44.1258639" lon="10.3985505"><ele>308.0</ele><time>2026-05-02T10:32:51.914Z</time></trkpt><trkpt lat="44.1257631" lon="10.3986447"><ele>308.0</ele><time>2026-05-02T10:32:52.912Z</time></trkpt><trkpt lat="44.1256635" lon="10.3987023"><ele>308.0</ele><time>2026-05-02T10:32:53.92Z</time></trkpt><trkpt lat="44.1255769" lon="10.3987522"><ele>308.0</ele><time>2026-05-02T10:32:54.914Z</time></trkpt><trkpt lat="44.1254963" lon="10.3988094"><ele>308.0</ele><time>2026-05-02T10:32:55.911Z</time></trkpt><trkpt lat="44.1254638" lon="10.3989172"><ele>309.6</ele><time>2026-05-02T10:32:56.914Z</time></trkpt><trkpt lat="44.1254521" lon="10.3990354"><ele>311.20000000000005</ele><time>2026-05-02T10:32:57.912Z</time></trkpt><trkpt lat="44.1254763" lon="10.3991705"><ele>312.8</ele><time>2026-05-02T10:32:58.914Z</time></trkpt><trkpt lat="44.1255153" lon="10.399317"><ele>314.40000000000003</ele><time>2026-05-02T10:32:59.914Z</time></trkpt><trkpt lat="44.1255472" lon="10.3994857"><ele>316.0</ele><time>2026-05-02T10:33:00.91Z</time></trkpt><trkpt lat="44.1255729" lon="10.3996715"><ele>316.66666666666663</ele><time>2026-05-02T10:33:01.915Z</time></trkpt><trkpt lat="44.1255998" lon="10.3998905"><ele>317.3333333333333</ele><time>2026-05-02T10:33:02.913Z</time></trkpt><trkpt lat="44.1256324" lon="10.4001196"><ele>318.0</ele><time>2026-05-02T10:33:03.914Z</time></trkpt><trkpt lat="44.1256787" lon="10.4003714"><ele>319.6666666666667</ele><time>2026-05-02T10:33:04.913Z</time></trkpt><trkpt lat="44.1257311" lon="10.4006447"><ele>321.33333333333337</ele><time>2026-05-02T10:33:05.921Z</time></trkpt><trkpt lat="44.1257895" lon="10.400937"><ele>323.0</ele><time>2026-05-02T10:33:06.91Z</time></trkpt><trkpt lat="44.1258591" lon="10.40123"><ele>324.33333333333337</ele><time>2026-05-02T10:33:07.912Z</time></trkpt><trkpt lat="44.1259319" lon="10.4015288"><ele>325.6666666666667</ele><time>2026-05-02T10:33:08.91Z</time></trkpt><trkpt lat="44.1259949" lon="10.4018265"><ele>327.0</ele><time>2026-05-02T10:33:09.913Z</time></trkpt><trkpt lat="44.1260432" lon="10.4021189"><ele>327.0</ele><time>2026-05-02T10:33:10.913Z</time></trkpt><trkpt lat="44.126071" lon="10.4024107"><ele>327.0</ele><time>2026-05-02T10:33:11.913Z</time></trkpt><trkpt lat="44.1260778" lon="10.4027022"><ele>327.0</ele><time>2026-05-02T10:33:12.912Z</time></trkpt><trkpt lat="44.1260703" lon="10.4029942"><ele>327.3333333333333</ele><time>2026-05-02T10:33:13.914Z</time></trkpt><trkpt lat="44.1260599" lon="10.4032869"><ele>327.66666666666663</ele><time>2026-05-02T10:33:14.912Z</time></trkpt><trkpt lat="44.126053" lon="10.4035846"><ele>328.0</ele><time>2026-05-02T10:33:15.91Z</time></trkpt><trkpt lat="44.1260412" lon="10.4038817"><ele>329.0</ele><time>2026-05-02T10:33:16.911Z</time></trkpt><trkpt lat="44.126033" lon="10.4041679"><ele>330.0</ele><time>2026-05-02T10:33:17.912Z</time></trkpt><trkpt lat="44.1260227" lon="10.4044561"><ele>331.0</ele><time>2026-05-02T10:33:18.912Z</time></trkpt><trkpt lat="44.1260144" lon="10.4047493"><ele>331.0</ele><time>2026-05-02T10:33:19.911Z</time></trkpt><trkpt lat="44.1260077" lon="10.405043"><ele>331.0</ele><time>2026-05-02T10:33:20.911Z</time></trkpt><trkpt lat="44.1260007" lon="10.4053368"><ele>331.0</ele><time>2026-05-02T10:33:21.913Z</time></trkpt><trkpt lat="44.1259887" lon="10.4056309"><ele>331.0</ele><time>2026-05-02T10:33:22.919Z</time></trkpt><trkpt lat="44.1259751" lon="10.4059187"><ele>331.0</ele><time>2026-05-02T10:33:23.914Z</time></trkpt><trkpt lat="44.1259602" lon="10.4062012"><ele>331.0</ele><time>2026-05-02T10:33:24.911Z</time></trkpt><trkpt lat="44.1259451" lon="10.4064851"><ele>332.0</ele><time>2026-05-02T10:33:25.92Z</time></trkpt><trkpt lat="44.1259186" lon="10.406772"><ele>333.0</ele><time>2026-05-02T10:33:26.908Z</time></trkpt><trkpt lat="44.1258832" lon="10.4070559"><ele>334.0</ele><time>2026-05-02T10:33:27.909Z</time></trkpt><trkpt lat="44.1258356" lon="10.4073295"><ele>335.0</ele><time>2026-05-02T10:33:28.91Z</time></trkpt><trkpt lat="44.1257716" lon="10.4075914"><ele>336.0</ele><time>2026-05-02T10:33:29.909Z</time></trkpt><trkpt lat="44.1257009" lon="10.4078439"><ele>337.0</ele><time>2026-05-02T10:33:30.908Z</time></trkpt><trkpt lat="44.1256223" lon="10.4080872"><ele>337.0</ele><time>2026-05-02T10:33:31.914Z</time></trkpt><trkpt lat="44.1255478" lon="10.408318"><ele>337.0</ele><time>2026-05-02T10:33:32.917Z</time></trkpt><trkpt lat="44.1254757" lon="10.408534"><ele>337.0</ele><time>2026-05-02T10:33:33.912Z</time></trkpt><trkpt lat="44.1254085" lon="10.4087376"><ele>337.5</ele><time>2026-05-02T10:33:34.913Z</time></trkpt><trkpt lat="44.1253457" lon="10.4089256"><ele>338.0</ele><time>2026-05-02T10:33:35.913Z</time></trkpt><trkpt lat="44.125288" lon="10.4091014"><ele>338.5</ele><time>2026-05-02T10:33:36.911Z</time></trkpt><trkpt lat="44.1252294" lon="10.4092671"><ele>339.0</ele><time>2026-05-02T10:33:37.914Z</time></trkpt><trkpt lat="44.1251737" lon="10.4094193"><ele>339.0</ele><time>2026-05-02T10:33:38.913Z</time></trkpt><trkpt lat="44.1251265" lon="10.4095591"><ele>339.0</ele><time>2026-05-02T10:33:39.911Z</time></trkpt><trkpt lat="44.1250786" lon="10.4096726"><ele>339.0</ele><time>2026-05-02T10:33:40.91Z</time></trkpt><trkpt lat="44.1250242" lon="10.4097596"><ele>339.0</ele><time>2026-05-02T10:33:41.91Z</time></trkpt><trkpt lat="44.1249648" lon="10.4098395"><ele>339.0</ele><time>2026-05-02T10:33:42.91Z</time></trkpt><trkpt lat="44.1248813" lon="10.4098974"><ele>339.1666666666667</ele><time>2026-05-02T10:33:43.91Z</time></trkpt><trkpt lat="44.12482" lon="10.4099822"><ele>339.3333333333333</ele><time>2026-05-02T10:33:44.909Z</time></trkpt><trkpt lat="44.12478" lon="10.4100804"><ele>339.5</ele><time>2026-05-02T10:33:45.909Z</time></trkpt><trkpt lat="44.1247778" lon="10.410199"><ele>339.66666666666663</ele><time>2026-05-02T10:33:46.908Z</time></trkpt><trkpt lat="44.1248063" lon="10.4102933"><ele>339.8333333333333</ele><time>2026-05-02T10:33:47.911Z</time></trkpt><trkpt lat="44.1248681" lon="10.4103568"><ele>340.0</ele><time>2026-05-02T10:33:48.909Z</time></trkpt><trkpt lat="44.124942" lon="10.4103797"><ele>340.8</ele><time>2026-05-02T10:33:49.909Z</time></trkpt><trkpt lat="44.1250253" lon="10.4103814"><ele>341.6</ele><time>2026-05-02T10:33:50.913Z</time></trkpt><trkpt lat="44.1251166" lon="10.4103663"><ele>342.4</ele><time>2026-05-02T10:33:51.911Z</time></trkpt><trkpt lat="44.1252154" lon="10.4103706"><ele>343.2</ele><time>2026-05-02T10:33:52.909Z</time></trkpt><trkpt lat="44.1253091" lon="10.410398"><ele>344.0</ele><time>2026-05-02T10:33:53.909Z</time></trkpt><trkpt lat="44.1254084" lon="10.410441"><ele>344.0</ele><time>2026-05-02T10:33:54.91Z</time></trkpt><trkpt lat="44.1255112" lon="10.4104838"><ele>344.0</ele><time>2026-05-02T10:33:55.909Z</time></trkpt><trkpt lat="44.1256138" lon="10.4105271"><ele>344.0</ele><time>2026-05-02T10:33:56.91Z</time></trkpt><trkpt lat="44.1257246" lon="10.410576"><ele>344.0</ele><time>2026-05-02T10:33:57.912Z</time></trkpt><trkpt lat="44.125842" lon="10.4106182"><ele>345.0</ele><time>2026-05-02T10:33:58.911Z</time></trkpt><trkpt lat="44.1259624" lon="10.4106578"><ele>346.0</ele><time>2026-05-02T10:33:59.913Z</time></trkpt><trkpt lat="44.1260951" lon="10.4106948"><ele>347.0</ele><time>2026-05-02T10:34:00.911Z</time></trkpt><trkpt lat="44.1262433" lon="10.4107222"><ele>348.0</ele><time>2026-05-02T10:34:01.912Z</time></trkpt><trkpt lat="44.1263983" lon="10.4107575"><ele>348.3333333333333</ele><time>2026-05-02T10:34:02.912Z</time></trkpt><trkpt lat="44.1265627" lon="10.410801"><ele>348.66666666666663</ele><time>2026-05-02T10:34:03.912Z</time></trkpt><trkpt lat="44.1267389" lon="10.4108543"><ele>349.0</ele><time>2026-05-02T10:34:04.912Z</time></trkpt><trkpt lat="44.126914" lon="10.4109089"><ele>349.0</ele><time>2026-05-02T10:34:05.915Z</time></trkpt><trkpt lat="44.1270791" lon="10.4109609"><ele>349.0</ele><time>2026-05-02T10:34:06.913Z</time></trkpt><trkpt lat="44.1272341" lon="10.4110053"><ele>349.0</ele><time>2026-05-02T10:34:07.912Z</time></trkpt><trkpt lat="44.1273774" lon="10.4110452"><ele>349.25</ele><time>2026-05-02T10:34:08.911Z</time></trkpt><trkpt lat="44.1275096" lon="10.4110911"><ele>349.5</ele><time>2026-05-02T10:34:09.913Z</time></trkpt><trkpt lat="44.1276384" lon="10.4111318"><ele>349.75</ele><time>2026-05-02T10:34:10.913Z</time></trkpt><trkpt lat="44.1277714" lon="10.4111871"><ele>350.0</ele><time>2026-05-02T10:34:11.914Z</time></trkpt><trkpt lat="44.1279064" lon="10.4112434"><ele>350.0</ele><time>2026-05-02T10:34:12.914Z</time></trkpt><trkpt lat="44.128051" lon="10.4112982"><ele>350.0</ele><time>2026-05-02T10:34:13.91Z</time></trkpt><trkpt lat="44.1281873" lon="10.4113471"><ele>350.0</ele><time>2026-05-02T10:34:14.912Z</time></trkpt><trkpt lat="44.1283191" lon="10.4113886"><ele>350.0</ele><time>2026-05-02T10:34:15.91Z</time></trkpt><trkpt lat="44.1284469" lon="10.4114095"><ele>350.6</ele><time>2026-05-02T10:34:16.913Z</time></trkpt><trkpt lat="44.128564" lon="10.4114161"><ele>351.2</ele><time>2026-05-02T10:34:17.912Z</time></trkpt><trkpt lat="44.1286677" lon="10.4114273"><ele>351.79999999999995</ele><time>2026-05-02T10:34:18.912Z</time></trkpt><trkpt lat="44.1287629" lon="10.4114363"><ele>352.4</ele><time>2026-05-02T10:34:19.917Z</time></trkpt><trkpt lat="44.1288246" lon="10.4115098"><ele>353.0</ele><time>2026-05-02T10:34:20.91Z</time></trkpt><trkpt lat="44.1288985" lon="10.411563"><ele>353.0</ele><time>2026-05-02T10:34:21.913Z</time></trkpt><trkpt lat="44.1289998" lon="10.411618"><ele>353.0</ele><time>2026-05-02T10:34:22.911Z</time></trkpt><trkpt lat="44.1291208" lon="10.4116642"><ele>353.0</ele><time>2026-05-02T10:34:23.91Z</time></trkpt><trkpt lat="44.1292584" lon="10.4117141"><ele>353.0</ele><time>2026-05-02T10:34:24.91Z</time></trkpt><trkpt lat="44.129405" lon="10.4117649"><ele>353.6666666666667</ele><time>2026-05-02T10:34:25.911Z</time></trkpt><trkpt lat="44.1295646" lon="10.4118249"><ele>354.3333333333333</ele><time>2026-05-02T10:34:26.911Z</time></trkpt><trkpt lat="44.1297316" lon="10.4118934"><ele>355.0</ele><time>2026-05-02T10:34:27.912Z</time></trkpt><trkpt lat="44.1298962" lon="10.4119891"><ele>357.0</ele><time>2026-05-02T10:34:28.913Z</time></trkpt><trkpt lat="44.1300527" lon="10.4120813"><ele>359.0</ele><time>2026-05-02T10:34:29.911Z</time></trkpt><trkpt lat="44.1302122" lon="10.4121759"><ele>361.0</ele><time>2026-05-02T10:34:30.913Z</time></trkpt><trkpt lat="44.1303609" lon="10.4122904"><ele>361.66666666666663</ele><time>2026-05-02T10:34:31.926Z</time></trkpt><trkpt lat="44.1305151" lon="10.4123881"><ele>362.3333333333333</ele><time>2026-05-02T10:34:32.912Z</time></trkpt><trkpt lat="44.1306614" lon="10.4124992"><ele>363.0</ele><time>2026-05-02T10:34:33.912Z</time></trkpt><trkpt lat="44.1308107" lon="10.4126083"><ele>363.3333333333333</ele><time>2026-05-02T10:34:34.911Z</time></trkpt><trkpt lat="44.1309564" lon="10.4127101"><ele>363.66666666666663</ele><time>2026-05-02T10:34:35.915Z</time></trkpt><trkpt lat="44.131112" lon="10.4128127"><ele>364.0</ele><time>2026-05-02T10:34:36.912Z</time></trkpt><trkpt lat="44.1312495" lon="10.4129123"><ele>364.5</ele><time>2026-05-02T10:34:37.908Z</time></trkpt><trkpt lat="44.1313794" lon="10.4130077"><ele>365.0</ele><time>2026-05-02T10:34:38.908Z</time></trkpt><trkpt lat="44.1315086" lon="10.4130918"><ele>365.5</ele><time>2026-05-02T10:34:39.91Z</time></trkpt><trkpt lat="44.131654" lon="10.4131663"><ele>366.0</ele><time>2026-05-02T10:34:40.914Z</time></trkpt><trkpt lat="44.1317973" lon="10.4132385"><ele>366.5</ele><time>2026-05-02T10:34:41.912Z</time></trkpt><trkpt lat="44.1319355" lon="10.4133"><ele>367.0</ele><time>2026-05-02T10:34:42.912Z</time></trkpt><trkpt lat="44.1320719" lon="10.413361"><ele>367.5</ele><time>2026-05-02T10:34:43.912Z</time></trkpt><trkpt lat="44.1322101" lon="10.4134187"><ele>368.0</ele><time>2026-05-02T10:34:44.911Z</time></trkpt><trkpt lat="44.1323505" lon="10.4134722"><ele>369.25</ele><time>2026-05-02T10:34:45.912Z</time></trkpt><trkpt lat="44.132488" lon="10.4135316"><ele>370.5</ele><time>2026-05-02T10:34:46.913Z</time></trkpt><trkpt lat="44.1326245" lon="10.4135872"><ele>371.75</ele><time>2026-05-02T10:34:47.912Z</time></trkpt><trkpt lat="44.1327553" lon="10.4136364"><ele>373.0</ele><time>2026-05-02T10:34:48.913Z</time></trkpt><trkpt lat="44.1328733" lon="10.4136892"><ele>373.0</ele><time>2026-05-02T10:34:49.912Z</time></trkpt><trkpt lat="44.1329809" lon="10.4137358"><ele>373.0</ele><time>2026-05-02T10:34:50.914Z</time></trkpt><trkpt lat="44.1330765" lon="10.4137786"><ele>373.0</ele><time>2026-05-02T10:34:51.911Z</time></trkpt><trkpt lat="44.1331665" lon="10.4138141"><ele>373.0</ele><time>2026-05-02T10:34:52.909Z</time></trkpt><trkpt lat="44.1332431" lon="10.4138471"><ele>373.0</ele><time>2026-05-02T10:34:53.909Z</time></trkpt><trkpt lat="44.1333066" lon="10.4138798"><ele>373.7142857142857</ele><time>2026-05-02T10:34:54.909Z</time></trkpt><trkpt lat="44.1333736" lon="10.4139203"><ele>374.42857142857144</ele><time>2026-05-02T10:34:56.909Z</time></trkpt><trkpt lat="44.1334325" lon="10.4139555"><ele>375.1428571428571</ele><time>2026-05-02T10:35:00.909Z</time></trkpt><trkpt lat="44.1335262" lon="10.4140401"><ele>375.8571428571429</ele><time>2026-05-02T10:35:02.911Z</time></trkpt><trkpt lat="44.1335852" lon="10.4140874"><ele>376.57142857142856</ele><time>2026-05-02T10:35:03.913Z</time></trkpt><trkpt lat="44.1336372" lon="10.4141422"><ele>377.2857142857143</ele><time>2026-05-02T10:35:04.911Z</time></trkpt><trkpt lat="44.13369" lon="10.4141958"><ele>378.0</ele><time>2026-05-02T10:35:05.911Z</time></trkpt><trkpt lat="44.1337745" lon="10.4142826"><ele>378.0</ele><time>2026-05-02T10:35:07.911Z</time></trkpt><trkpt lat="44.1338553" lon="10.4143801"><ele>378.0</ele><time>2026-05-02T10:35:09.907Z</time></trkpt><trkpt lat="44.1339027" lon="10.4144487"><ele>378.0</ele><time>2026-05-02T10:35:10.913Z</time></trkpt><trkpt lat="44.1339644" lon="10.4145179"><ele>378.0</ele><time>2026-05-02T10:35:11.91Z</time></trkpt><trkpt lat="44.1340363" lon="10.4145951"><ele>378.0</ele><time>2026-05-02T10:35:12.909Z</time></trkpt><trkpt lat="44.134113" lon="10.4146825"><ele>378.0</ele><time>2026-05-02T10:35:13.91Z</time></trkpt><trkpt lat="44.1341897" lon="10.4147707"><ele>378.79999999999995</ele><time>2026-05-02T10:35:14.91Z</time></trkpt><trkpt lat="44.1342675" lon="10.4148554"><ele>379.6</ele><time>2026-05-02T10:35:15.909Z</time></trkpt><trkpt lat="44.1343368" lon="10.4149473"><ele>380.4</ele><time>2026-05-02T10:35:16.909Z</time></trkpt><trkpt lat="44.1344101" lon="10.4150347"><ele>381.20000000000005</ele><time>2026-05-02T10:35:17.909Z</time></trkpt><trkpt lat="44.1344897" lon="10.415123"><ele>382.0</ele><time>2026-05-02T10:35:18.908Z</time></trkpt><trkpt lat="44.134566" lon="10.4152095"><ele>382.0</ele><time>2026-05-02T10:35:19.908Z</time></trkpt><trkpt lat="44.1346399" lon="10.4152883"><ele>382.0</ele><time>2026-05-02T10:35:20.908Z</time></trkpt><trkpt lat="44.1347089" lon="10.4153626"><ele>382.0</ele><time>2026-05-02T10:35:21.908Z</time></trkpt><trkpt lat="44.1347767" lon="10.4154406"><ele>382.0</ele><time>2026-05-02T10:35:22.912Z</time></trkpt><trkpt lat="44.1348622" lon="10.4155021"><ele>382.0</ele><time>2026-05-02T10:35:23.912Z</time></trkpt><trkpt lat="44.1349574" lon="10.4155544"><ele>382.5</ele><time>2026-05-02T10:35:24.913Z</time></trkpt><trkpt lat="44.1350695" lon="10.4156086"><ele>383.0</ele><time>2026-05-02T10:35:25.911Z</time></trkpt><trkpt lat="44.1351759" lon="10.4156588"><ele>383.5</ele><time>2026-05-02T10:35:26.91Z</time></trkpt><trkpt lat="44.135284" lon="10.4157113"><ele>384.0</ele><time>2026-05-02T10:35:27.924Z</time></trkpt><trkpt lat="44.1354042" lon="10.4157712"><ele>384.0</ele><time>2026-05-02T10:35:28.915Z</time></trkpt><trkpt lat="44.1355199" lon="10.415822"><ele>384.0</ele><time>2026-05-02T10:35:29.912Z</time></trkpt><trkpt lat="44.1356464" lon="10.4158782"><ele>384.0</ele><time>2026-05-02T10:35:30.913Z</time></trkpt><trkpt lat="44.1357704" lon="10.4159316"><ele>384.0</ele><time>2026-05-02T10:35:31.914Z</time></trkpt><trkpt lat="44.1358942" lon="10.4159878"><ele>385.0</ele><time>2026-05-02T10:35:32.912Z</time></trkpt><trkpt lat="44.136023" lon="10.4160428"><ele>386.0</ele><time>2026-05-02T10:35:33.912Z</time></trkpt><trkpt lat="44.1361552" lon="10.4161118"><ele>387.0</ele><time>2026-05-02T10:35:34.912Z</time></trkpt><trkpt lat="44.1362819" lon="10.4161993"><ele>388.0</ele><time>2026-05-02T10:35:35.911Z</time></trkpt><trkpt lat="44.1364108" lon="10.4163029"><ele>388.0</ele><time>2026-05-02T10:35:36.911Z</time></trkpt><trkpt lat="44.1365429" lon="10.4164258"><ele>388.0</ele><time>2026-05-02T10:35:37.912Z</time></trkpt><trkpt lat="44.1366741" lon="10.4165534"><ele>388.0</ele><time>2026-05-02T10:35:38.913Z</time></trkpt><trkpt lat="44.1367932" lon="10.41667"><ele>389.5</ele><time>2026-05-02T10:35:39.912Z</time></trkpt><trkpt lat="44.1369051" lon="10.416782"><ele>391.0</ele><time>2026-05-02T10:35:40.912Z</time></trkpt><trkpt lat="44.1370173" lon="10.4169033"><ele>392.5</ele><time>2026-05-02T10:35:41.912Z</time></trkpt><trkpt lat="44.1371325" lon="10.4170279"><ele>394.0</ele><time>2026-05-02T10:35:42.912Z</time></trkpt><trkpt lat="44.137242" lon="10.4171438"><ele>394.5</ele><time>2026-05-02T10:35:43.91Z</time></trkpt><trkpt lat="44.1373538" lon="10.4172625"><ele>395.0</ele><time>2026-05-02T10:35:44.908Z</time></trkpt><trkpt lat="44.1374651" lon="10.4173825"><ele>395.5</ele><time>2026-05-02T10:35:45.91Z</time></trkpt><trkpt lat="44.1375847" lon="10.4175137"><ele>396.0</ele><time>2026-05-02T10:35:46.91Z</time></trkpt><trkpt lat="44.1377131" lon="10.4176639"><ele>397.33333333333337</ele><time>2026-05-02T10:35:47.911Z</time></trkpt><trkpt lat="44.1378544" lon="10.4178158"><ele>398.6666666666667</ele><time>2026-05-02T10:35:48.912Z</time></trkpt><trkpt lat="44.138002" lon="10.417954"><ele>400.0</ele><time>2026-05-02T10:35:49.913Z</time></trkpt><trkpt lat="44.1381577" lon="10.4180731"><ele>401.0</ele><time>2026-05-02T10:35:50.911Z</time></trkpt><trkpt lat="44.1383209" lon="10.4181622"><ele>402.0</ele><time>2026-05-02T10:35:51.91Z</time></trkpt><trkpt lat="44.1384841" lon="10.4182112"><ele>403.0</ele><time>2026-05-02T10:35:52.911Z</time></trkpt><trkpt lat="44.1386567" lon="10.4182148"><ele>403.0</ele><time>2026-05-02T10:35:53.909Z</time></trkpt><trkpt lat="44.1388343" lon="10.4182048"><ele>403.0</ele><time>2026-05-02T10:35:54.912Z</time></trkpt><trkpt lat="44.139018" lon="10.4182104"><ele>403.0</ele><time>2026-05-02T10:35:55.91Z</time></trkpt><trkpt lat="44.1391926" lon="10.4182334"><ele>400.6666666666667</ele><time>2026-05-02T10:35:56.912Z</time></trkpt><trkpt lat="44.1393661" lon="10.4182508"><ele>398.33333333333337</ele><time>2026-05-02T10:35:57.913Z</time></trkpt><trkpt lat="44.1395381" lon="10.4182371"><ele>396.0</ele><time>2026-05-02T10:35:58.91Z</time></trkpt><trkpt lat="44.1397018" lon="10.418221"><ele>396.0</ele><time>2026-05-02T10:35:59.911Z</time></trkpt><trkpt lat="44.1398561" lon="10.4182068"><ele>396.0</ele><time>2026-05-02T10:36:00.911Z</time></trkpt><trkpt lat="44.1399999" lon="10.4181877"><ele>396.0</ele><time>2026-05-02T10:36:01.913Z</time></trkpt><trkpt lat="44.1401291" lon="10.4181552"><ele>396.0</ele><time>2026-05-02T10:36:02.91Z</time></trkpt><trkpt lat="44.140242" lon="10.4180816"><ele>392.75</ele><time>2026-05-02T10:36:03.911Z</time></trkpt><trkpt lat="44.1403314" lon="10.4179635"><ele>389.5</ele><time>2026-05-02T10:36:04.913Z</time></trkpt><trkpt lat="44.1403944" lon="10.4178007"><ele>386.25</ele><time>2026-05-02T10:36:05.91Z</time></trkpt><trkpt lat="44.1404351" lon="10.4176104"><ele>383.0</ele><time>2026-05-02T10:36:06.912Z</time></trkpt><trkpt lat="44.1404662" lon="10.417393"><ele>381.33333333333337</ele><time>2026-05-02T10:36:07.915Z</time></trkpt><trkpt lat="44.1405006" lon="10.4171515"><ele>379.6666666666667</ele><time>2026-05-02T10:36:08.912Z</time></trkpt><trkpt lat="44.1405399" lon="10.4168847"><ele>378.0</ele><time>2026-05-02T10:36:09.912Z</time></trkpt><trkpt lat="44.1405774" lon="10.4166066"><ele>378.0</ele><time>2026-05-02T10:36:10.911Z</time></trkpt><trkpt lat="44.1406191" lon="10.4163263"><ele>378.0</ele><time>2026-05-02T10:36:11.912Z</time></trkpt><trkpt lat="44.1406597" lon="10.4160617"><ele>378.0</ele><time>2026-05-02T10:36:12.911Z</time></trkpt><trkpt lat="44.1406949" lon="10.4158127"><ele>378.0</ele><time>2026-05-02T10:36:13.913Z</time></trkpt><trkpt lat="44.1407165" lon="10.4155663"><ele>378.0</ele><time>2026-05-02T10:36:14.912Z</time></trkpt><trkpt lat="44.1407189" lon="10.4153208"><ele>378.0</ele><time>2026-05-02T10:36:15.917Z</time></trkpt><trkpt lat="44.1407099" lon="10.415097"><ele>378.0</ele><time>2026-05-02T10:36:16.913Z</time></trkpt><trkpt lat="44.1407006" lon="10.4148912"><ele>378.0</ele><time>2026-05-02T10:36:17.912Z</time></trkpt><trkpt lat="44.1406928" lon="10.4146987"><ele>378.0</ele><time>2026-05-02T10:36:18.911Z</time></trkpt><trkpt lat="44.1406929" lon="10.4145226"><ele>378.0</ele><time>2026-05-02T10:36:19.909Z</time></trkpt><trkpt lat="44.1407163" lon="10.4143696"><ele>380.5</ele><time>2026-05-02T10:36:20.913Z</time></trkpt><trkpt lat="44.1407668" lon="10.4142546"><ele>383.0</ele><time>2026-05-02T10:36:21.912Z</time></trkpt><trkpt lat="44.1408392" lon="10.4141898"><ele>385.5</ele><time>2026-05-02T10:36:22.911Z</time></trkpt><trkpt lat="44.1409215" lon="10.414178"><ele>388.0</ele><time>2026-05-02T10:36:23.912Z</time></trkpt><trkpt lat="44.1409914" lon="10.4142169"><ele>390.5</ele><time>2026-05-02T10:36:24.912Z</time></trkpt><trkpt lat="44.1410401" lon="10.4143008"><ele>393.0</ele><time>2026-05-02T10:36:25.912Z</time></trkpt><trkpt lat="44.1410685" lon="10.4144081"><ele>393.0</ele><time>2026-05-02T10:36:26.91Z</time></trkpt><trkpt lat="44.1410801" lon="10.4145247"><ele>393.0</ele><time>2026-05-02T10:36:27.911Z</time></trkpt><trkpt lat="44.1410987" lon="10.4146452"><ele>393.0</ele><time>2026-05-02T10:36:28.911Z</time></trkpt><trkpt lat="44.1411312" lon="10.4147463"><ele>393.0</ele><time>2026-05-02T10:36:29.908Z</time></trkpt><trkpt lat="44.1411894" lon="10.4148427"><ele>393.0</ele><time>2026-05-02T10:36:30.913Z</time></trkpt><trkpt lat="44.1412571" lon="10.4148914"><ele>393.0</ele><time>2026-05-02T10:36:31.911Z</time></trkpt><trkpt lat="44.14136" lon="10.4149091"><ele>393.79999999999995</ele><time>2026-05-02T10:36:32.91Z</time></trkpt><trkpt lat="44.1414527" lon="10.4149038"><ele>394.6</ele><time>2026-05-02T10:36:33.911Z</time></trkpt><trkpt lat="44.1415437" lon="10.4148853"><ele>395.4</ele><time>2026-05-02T10:36:34.914Z</time></trkpt><trkpt lat="44.1416347" lon="10.4148641"><ele>396.20000000000005</ele><time>2026-05-02T10:36:35.913Z</time></trkpt><trkpt lat="44.1417282" lon="10.4148494"><ele>397.0</ele><time>2026-05-02T10:36:36.912Z</time></trkpt><trkpt lat="44.1418247" lon="10.4148273"><ele>397.0</ele><time>2026-05-02T10:36:37.913Z</time></trkpt><trkpt lat="44.1419316" lon="10.4148216"><ele>397.0</ele><time>2026-05-02T10:36:38.91Z</time></trkpt><trkpt lat="44.1420407" lon="10.4148271"><ele>397.0</ele><time>2026-05-02T10:36:39.911Z</time></trkpt><trkpt lat="44.1421495" lon="10.4148494"><ele>397.0</ele><time>2026-05-02T10:36:40.911Z</time></trkpt><trkpt lat="44.142257" lon="10.4148629"><ele>397.0</ele><time>2026-05-02T10:36:41.91Z</time></trkpt><trkpt lat="44.1423716" lon="10.4148884"><ele>398.5</ele><time>2026-05-02T10:36:42.912Z</time></trkpt><trkpt lat="44.1424776" lon="10.4149127"><ele>400.0</ele><time>2026-05-02T10:36:43.911Z</time></trkpt><trkpt lat="44.1425876" lon="10.4149355"><ele>401.5</ele><time>2026-05-02T10:36:44.91Z</time></trkpt><trkpt lat="44.142703" lon="10.4149362"><ele>403.0</ele><time>2026-05-02T10:36:45.913Z</time></trkpt><trkpt lat="44.1428189" lon="10.4149268"><ele>403.0</ele><time>2026-05-02T10:36:46.911Z</time></trkpt><trkpt lat="44.1429324" lon="10.4148997"><ele>403.0</ele><time>2026-05-02T10:36:47.913Z</time></trkpt><trkpt lat="44.1430403" lon="10.4148707"><ele>403.0</ele><time>2026-05-02T10:36:48.912Z</time></trkpt><trkpt lat="44.1431552" lon="10.4148573"><ele>403.0</ele><time>2026-05-02T10:36:49.911Z</time></trkpt><trkpt lat="44.1432685" lon="10.4148583"><ele>405.4</ele><time>2026-05-02T10:36:50.914Z</time></trkpt><trkpt lat="44.143382" lon="10.4148856"><ele>407.79999999999995</ele><time>2026-05-02T10:36:51.911Z</time></trkpt><trkpt lat="44.1434908" lon="10.4149175"><ele>410.2</ele><time>2026-05-02T10:36:52.91Z</time></trkpt><trkpt lat="44.1435922" lon="10.4149476"><ele>412.6</ele><time>2026-05-02T10:36:53.91Z</time></trkpt><trkpt lat="44.1436914" lon="10.41498"><ele>415.0</ele><time>2026-05-02T10:36:54.911Z</time></trkpt><trkpt lat="44.1437917" lon="10.4150137"><ele>415.0</ele><time>2026-05-02T10:36:55.913Z</time></trkpt><trkpt lat="44.1438858" lon="10.4150575"><ele>415.0</ele><time>2026-05-02T10:36:56.914Z</time></trkpt><trkpt lat="44.1439653" lon="10.4150999"><ele>415.0</ele><time>2026-05-02T10:36:57.91Z</time></trkpt><trkpt lat="44.1440315" lon="10.4151264"><ele>415.0</ele><time>2026-05-02T10:36:58.913Z</time></trkpt><trkpt lat="44.144126" lon="10.41508"><ele>415.0</ele><time>2026-05-02T10:37:00.908Z</time></trkpt><trkpt lat="44.1441546" lon="10.4149386"><ele>415.0</ele><time>2026-05-02T10:37:02.911Z</time></trkpt><trkpt lat="44.1440686" lon="10.4147993"><ele>415.0</ele><time>2026-05-02T10:37:04.911Z</time></trkpt><trkpt lat="44.1439909" lon="10.4147482"><ele>415.0</ele><time>2026-05-02T10:37:05.911Z</time></trkpt><trkpt lat="44.1438935" lon="10.4147089"><ele>415.0</ele><time>2026-05-02T10:37:06.911Z</time></trkpt><trkpt lat="44.1437977" lon="10.4146795"><ele>415.0</ele><time>2026-05-02T10:37:07.912Z</time></trkpt><trkpt lat="44.1437074" lon="10.4146635"><ele>416.6666666666667</ele><time>2026-05-02T10:37:08.916Z</time></trkpt><trkpt lat="44.143624" lon="10.4146454"><ele>418.33333333333337</ele><time>2026-05-02T10:37:09.91Z</time></trkpt><trkpt lat="44.1435486" lon="10.4146146"><ele>420.0</ele><time>2026-05-02T10:37:10.912Z</time></trkpt><trkpt lat="44.1434853" lon="10.4145567"><ele>421.66666666666663</ele><time>2026-05-02T10:37:11.909Z</time></trkpt><trkpt lat="44.1434386" lon="10.4144686"><ele>423.3333333333333</ele><time>2026-05-02T10:37:12.918Z</time></trkpt><trkpt lat="44.1434169" lon="10.4143616"><ele>425.0</ele><time>2026-05-02T10:37:13.912Z</time></trkpt><trkpt lat="44.1434143" lon="10.4142372"><ele>425.0</ele><time>2026-05-02T10:37:14.912Z</time></trkpt><trkpt lat="44.1434178" lon="10.4141008"><ele>425.0</ele><time>2026-05-02T10:37:15.912Z</time></trkpt><trkpt lat="44.1434172" lon="10.4139645"><ele>425.0</ele><time>2026-05-02T10:37:16.913Z</time></trkpt><trkpt lat="44.1434082" lon="10.4138165"><ele>425.0</ele><time>2026-05-02T10:37:17.911Z</time></trkpt><trkpt lat="44.1433931" lon="10.4136745"><ele>425.0</ele><time>2026-05-02T10:37:18.91Z</time></trkpt><trkpt lat="44.1433705" lon="10.4135302"><ele>425.8</ele><time>2026-05-02T10:37:19.912Z</time></trkpt><trkpt lat="44.1433483" lon="10.4134009"><ele>426.6</ele><time>2026-05-02T10:37:20.911Z</time></trkpt><trkpt lat="44.1433201" lon="10.4132645"><ele>427.4</ele><time>2026-05-02T10:37:21.912Z</time></trkpt><trkpt lat="44.1432932" lon="10.4131385"><ele>428.2</ele><time>2026-05-02T10:37:22.909Z</time></trkpt><trkpt lat="44.1432612" lon="10.4130346"><ele>429.0</ele><time>2026-05-02T10:37:23.909Z</time></trkpt><trkpt lat="44.1432068" lon="10.4129422"><ele>429.0</ele><time>2026-05-02T10:37:24.91Z</time></trkpt><trkpt lat="44.1431291" lon="10.4128849"><ele>429.0</ele><time>2026-05-02T10:37:25.91Z</time></trkpt><trkpt lat="44.1430422" lon="10.4128522"><ele>429.0</ele><time>2026-05-02T10:37:26.909Z</time></trkpt><trkpt lat="44.1429593" lon="10.4128293"><ele>429.0</ele><time>2026-05-02T10:37:27.91Z</time></trkpt><trkpt lat="44.1428772" lon="10.4128019"><ele>429.0</ele><time>2026-05-02T10:37:28.91Z</time></trkpt><trkpt lat="44.1428027" lon="10.4127642"><ele>429.0</ele><time>2026-05-02T10:37:29.91Z</time></trkpt><trkpt lat="44.1427456" lon="10.412706"><ele>429.0</ele><time>2026-05-02T10:37:30.913Z</time></trkpt><trkpt lat="44.1427204" lon="10.4125981"><ele>429.0</ele><time>2026-05-02T10:37:31.909Z</time></trkpt><trkpt lat="44.1427342" lon="10.4124914"><ele>429.0</ele><time>2026-05-02T10:37:32.907Z</time></trkpt><trkpt lat="44.1427886" lon="10.4123924"><ele>429.0</ele><time>2026-05-02T10:37:33.91Z</time></trkpt><trkpt lat="44.1428781" lon="10.4123202"><ele>429.0</ele><time>2026-05-02T10:37:34.911Z</time></trkpt><trkpt lat="44.1430064" lon="10.4122464"><ele>429.0</ele><time>2026-05-02T10:37:35.911Z</time></trkpt><trkpt lat="44.1431611" lon="10.4121764"><ele>429.0</ele><time>2026-05-02T10:37:36.913Z</time></trkpt><trkpt lat="44.1433357" lon="10.41213"><ele>429.0</ele><time>2026-05-02T10:37:37.911Z</time></trkpt><trkpt lat="44.1434967" lon="10.4121003"><ele>432.66666666666663</ele><time>2026-05-02T10:37:38.915Z</time></trkpt><trkpt lat="44.1436469" lon="10.412053"><ele>436.3333333333333</ele><time>2026-05-02T10:37:39.913Z</time></trkpt><trkpt lat="44.1437789" lon="10.4119486"><ele>440.0</ele><time>2026-05-02T10:37:40.911Z</time></trkpt><trkpt lat="44.14389" lon="10.4118196"><ele>440.0</ele><time>2026-05-02T10:37:41.911Z</time></trkpt><trkpt lat="44.1439749" lon="10.411677"><ele>440.0</ele><time>2026-05-02T10:37:42.911Z</time></trkpt><trkpt lat="44.1440158" lon="10.4115173"><ele>440.0</ele><time>2026-05-02T10:37:43.912Z</time></trkpt><trkpt lat="44.1440106" lon="10.4113499"><ele>440.0</ele><time>2026-05-02T10:37:44.911Z</time></trkpt><trkpt lat="44.143961" lon="10.4111969"><ele>441.75</ele><time>2026-05-02T10:37:45.913Z</time></trkpt><trkpt lat="44.143875" lon="10.4110722"><ele>443.5</ele><time>2026-05-02T10:37:46.913Z</time></trkpt><trkpt lat="44.143765" lon="10.4109525"><ele>445.25</ele><time>2026-05-02T10:37:47.913Z</time></trkpt><trkpt lat="44.1436464" lon="10.4108332"><ele>447.0</ele><time>2026-05-02T10:37:48.912Z</time></trkpt><trkpt lat="44.1435391" lon="10.4107265"><ele>447.0</ele><time>2026-05-02T10:37:49.913Z</time></trkpt><trkpt lat="44.1434498" lon="10.4106292"><ele>447.00000000000006</ele><time>2026-05-02T10:37:50.911Z</time></trkpt><trkpt lat="44.1434134" lon="10.4105187"><ele>447.00000000000006</ele><time>2026-05-02T10:37:51.912Z</time></trkpt><trkpt lat="44.1434232" lon="10.4104139"><ele>447.0</ele><time>2026-05-02T10:37:52.911Z</time></trkpt><trkpt lat="44.1434836" lon="10.4103369"><ele>447.0</ele><time>2026-05-02T10:37:53.91Z</time></trkpt><trkpt lat="44.1435703" lon="10.4102723"><ele>447.75</ele><time>2026-05-02T10:37:54.911Z</time></trkpt><trkpt lat="44.1436845" lon="10.4102023"><ele>448.5</ele><time>2026-05-02T10:37:55.91Z</time></trkpt><trkpt lat="44.1438148" lon="10.410132"><ele>449.25</ele><time>2026-05-02T10:37:56.909Z</time></trkpt><trkpt lat="44.1439498" lon="10.4100855"><ele>450.0</ele><time>2026-05-02T10:37:57.91Z</time></trkpt><trkpt lat="44.1440846" lon="10.4100913"><ele>453.5</ele><time>2026-05-02T10:37:58.911Z</time></trkpt><trkpt lat="44.1442233" lon="10.4101266"><ele>457.0</ele><time>2026-05-02T10:37:59.915Z</time></trkpt><trkpt lat="44.1443706" lon="10.4101656"><ele>460.5</ele><time>2026-05-02T10:38:00.911Z</time></trkpt><trkpt lat="44.1445172" lon="10.4102153"><ele>464.0</ele><time>2026-05-02T10:38:01.908Z</time></trkpt><trkpt lat="44.1446665" lon="10.4102693"><ele>464.0</ele><time>2026-05-02T10:38:02.91Z</time></trkpt><trkpt lat="44.1448115" lon="10.4103265"><ele>464.0</ele><time>2026-05-02T10:38:03.91Z</time></trkpt><trkpt lat="44.1449271" lon="10.4103721"><ele>464.0</ele><time>2026-05-02T10:38:04.91Z</time></trkpt><trkpt lat="44.1450424" lon="10.4104091"><ele>464.0</ele><time>2026-05-02T10:38:05.909Z</time></trkpt><trkpt lat="44.1451389" lon="10.410447"><ele>465.4</ele><time>2026-05-02T10:38:06.912Z</time></trkpt><trkpt lat="44.1452346" lon="10.4104874"><ele>466.79999999999995</ele><time>2026-05-02T10:38:07.912Z</time></trkpt><trkpt lat="44.1453272" lon="10.4105188"><ele>468.20000000000005</ele><time>2026-05-02T10:38:08.91Z</time></trkpt><trkpt lat="44.1454039" lon="10.4105397"><ele>469.6</ele><time>2026-05-02T10:38:09.914Z</time></trkpt><trkpt lat="44.1454714" lon="10.4105323"><ele>471.0</ele><time>2026-05-02T10:38:10.911Z</time></trkpt><trkpt lat="44.1455447" lon="10.4104205"><ele>471.0</ele><time>2026-05-02T10:38:12.909Z</time></trkpt><trkpt lat="44.1455605" lon="10.410313"><ele>471.0</ele><time>2026-05-02T10:38:13.909Z</time></trkpt><trkpt lat="44.1455664" lon="10.4101833"><ele>471.0</ele><time>2026-05-02T10:38:14.909Z</time></trkpt><trkpt lat="44.1455611" lon="10.4100217"><ele>471.0</ele><time>2026-05-02T10:38:15.91Z</time></trkpt><trkpt lat="44.1455615" lon="10.4098514"><ele>471.0</ele><time>2026-05-02T10:38:16.915Z</time></trkpt><trkpt lat="44.1455609" lon="10.4096758"><ele>471.4</ele><time>2026-05-02T10:38:17.911Z</time></trkpt><trkpt lat="44.1455663" lon="10.4095184"><ele>471.8</ele><time>2026-05-02T10:38:18.912Z</time></trkpt><trkpt lat="44.145567" lon="10.4093745"><ele>472.19999999999993</ele><time>2026-05-02T10:38:19.913Z</time></trkpt><trkpt lat="44.1455755" lon="10.4092383"><ele>472.59999999999997</ele><time>2026-05-02T10:38:20.911Z</time></trkpt><trkpt lat="44.1455807" lon="10.4091122"><ele>473.0</ele><time>2026-05-02T10:38:21.912Z</time></trkpt><trkpt lat="44.145585" lon="10.4089975"><ele>472.99999999999994</ele><time>2026-05-02T10:38:22.912Z</time></trkpt><trkpt lat="44.1455693" lon="10.4088892"><ele>473.0</ele><time>2026-05-02T10:38:23.91Z</time></trkpt><trkpt lat="44.1455476" lon="10.4087681"><ele>473.0</ele><time>2026-05-02T10:38:24.911Z</time></trkpt><trkpt lat="44.1455236" lon="10.4086517"><ele>473.0</ele><time>2026-05-02T10:38:25.913Z</time></trkpt><trkpt lat="44.1454935" lon="10.40855"><ele>472.99999999999994</ele><time>2026-05-02T10:38:26.911Z</time></trkpt><trkpt lat="44.1454595" lon="10.4084546"><ele>473.0</ele><time>2026-05-02T10:38:27.908Z</time></trkpt><trkpt lat="44.1454174" lon="10.4083788"><ele>474.2</ele><time>2026-05-02T10:38:28.91Z</time></trkpt><trkpt lat="44.1453213" lon="10.4082774"><ele>475.4</ele><time>2026-05-02T10:38:30.91Z</time></trkpt><trkpt lat="44.1452533" lon="10.4082882"><ele>476.59999999999997</ele><time>2026-05-02T10:38:31.912Z</time></trkpt><trkpt lat="44.1451358" lon="10.4082165"><ele>477.79999999999995</ele><time>2026-05-02T10:38:33.913Z</time></trkpt><trkpt lat="44.1450821" lon="10.4081444"><ele>479.0</ele><time>2026-05-02T10:38:34.91Z</time></trkpt><trkpt lat="44.1450261" lon="10.4080741"><ele>480.0</ele><time>2026-05-02T10:38:35.91Z</time></trkpt><trkpt lat="44.1449833" lon="10.4079923"><ele>481.0</ele><time>2026-05-02T10:38:36.91Z</time></trkpt><trkpt lat="44.1449526" lon="10.4079074"><ele>482.0</ele><time>2026-05-02T10:38:37.909Z</time></trkpt><trkpt lat="44.1449416" lon="10.4078115"><ele>483.0</ele><time>2026-05-02T10:38:38.912Z</time></trkpt><trkpt lat="44.1449447" lon="10.4077122"><ele>484.0</ele><time>2026-05-02T10:38:39.91Z</time></trkpt><trkpt lat="44.1449709" lon="10.4076129"><ele>485.0</ele><time>2026-05-02T10:38:40.91Z</time></trkpt><trkpt lat="44.1450075" lon="10.4075299"><ele>486.0</ele><time>2026-05-02T10:38:41.909Z</time></trkpt><trkpt lat="44.1450835" lon="10.4074226"><ele>486.0</ele><time>2026-05-02T10:38:43.909Z</time></trkpt><trkpt lat="44.1450819" lon="10.4073088"><ele>486.0</ele><time>2026-05-02T10:38:45.909Z</time></trkpt><trkpt lat="44.145075" lon="10.4072195"><ele>486.0</ele><time>2026-05-02T10:38:47.912Z</time></trkpt><trkpt lat="44.1451709" lon="10.4071563"><ele>486.0</ele><time>2026-05-02T10:38:50.91Z</time></trkpt><trkpt lat="44.1452641" lon="10.4071184"><ele>486.0</ele><time>2026-05-02T10:38:52.916Z</time></trkpt><trkpt lat="44.1453592" lon="10.4070943"><ele>486.0</ele><time>2026-05-02T10:38:54.91Z</time></trkpt><trkpt lat="44.1454303" lon="10.4070981"><ele>477.0</ele><time>2026-05-02T10:38:56.917Z</time></trkpt></trkseg></trk></gpx>